﻿<?xml version="1.0" encoding="utf-8"?><gpx creator="Garmin Desktop App" version="1.1" xsi:schemaLocation="http://www.topografix.com/GPX/1/1 http://www.topografix.com/GPX/1/1/gpx.xsd http://www.garmin.com/xmlschemas/WaypointExtension/v1 http://www8.garmin.com/xmlschemas/WaypointExtensionv1.xsd http://www.garmin.com/xmlschemas/TrackPointExtension/v1 http://www.garmin.com/xmlschemas/TrackPointExtensionv1.xsd http://www.garmin.com/xmlschemas/GpxExtensions/v3 http://www8.garmin.com/xmlschemas/GpxExtensionsv3.xsd http://www.garmin.com/xmlschemas/ActivityExtension/v1 http://www8.garmin.com/xmlschemas/ActivityExtensionv1.xsd http://www.garmin.com/xmlschemas/AdventuresExtensions/v1 http://www8.garmin.com/xmlschemas/AdventuresExtensionv1.xsd http://www.garmin.com/xmlschemas/PressureExtension/v1 http://www.garmin.com/xmlschemas/PressureExtensionv1.xsd http://www.garmin.com/xmlschemas/TripExtensions/v1 http://www.garmin.com/xmlschemas/TripExtensionsv1.xsd http://www.garmin.com/xmlschemas/TripMetaDataExtensions/v1 http://www.garmin.com/xmlschemas/TripMetaDataExtensionsv1.xsd http://www.garmin.com/xmlschemas/ViaPointTransportationModeExtensions/v1 http://www.garmin.com/xmlschemas/ViaPointTransportationModeExtensionsv1.xsd http://www.garmin.com/xmlschemas/CreationTimeExtension/v1 http://www.garmin.com/xmlschemas/CreationTimeExtensionsv1.xsd http://www.garmin.com/xmlschemas/AccelerationExtension/v1 http://www.garmin.com/xmlschemas/AccelerationExtensionv1.xsd http://www.garmin.com/xmlschemas/PowerExtension/v1 http://www.garmin.com/xmlschemas/PowerExtensionv1.xsd http://www.garmin.com/xmlschemas/VideoExtension/v1 http://www.garmin.com/xmlschemas/VideoExtensionv1.xsd" xmlns="http://www.topografix.com/GPX/1/1" xmlns:xsi="http://www.w3.org/2001/XMLSchema-instance" xmlns:wptx1="http://www.garmin.com/xmlschemas/WaypointExtension/v1" xmlns:gpxtrx="http://www.garmin.com/xmlschemas/GpxExtensions/v3" xmlns:gpxtpx="http://www.garmin.com/xmlschemas/TrackPointExtension/v1" xmlns:gpxx="http://www.garmin.com/xmlschemas/GpxExtensions/v3" xmlns:trp="http://www.garmin.com/xmlschemas/TripExtensions/v1" xmlns:adv="http://www.garmin.com/xmlschemas/AdventuresExtensions/v1" xmlns:prs="http://www.garmin.com/xmlschemas/PressureExtension/v1" xmlns:tmd="http://www.garmin.com/xmlschemas/TripMetaDataExtensions/v1" xmlns:vptm="http://www.garmin.com/xmlschemas/ViaPointTransportationModeExtensions/v1" xmlns:ctx="http://www.garmin.com/xmlschemas/CreationTimeExtension/v1" xmlns:gpxacc="http://www.garmin.com/xmlschemas/AccelerationExtension/v1" xmlns:gpxpx="http://www.garmin.com/xmlschemas/PowerExtension/v1" xmlns:vidx1="http://www.garmin.com/xmlschemas/VideoExtension/v1">

  <metadata>
    <link href="http://www.garmin.com">
      <text>Garmin International</text>
    </link>
    <time>2018-09-17T21:17:16Z</time>
    <bounds maxlat="47.569018034264445" maxlon="11.509310016408563" minlat="46.812712037935853" minlon="10.239065028727055" />
  </metadata>

  <trk>
    <name>Track vom: 2018-09-17 08:30</name>
    <extensions>
      <gpxx:TrackExtension>
        <gpxx:DisplayColor>DarkGray</gpxx:DisplayColor>
      </gpxx:TrackExtension>
    </extensions>
    <trkseg>
      <trkpt lat="47.442249041050673" lon="10.247461013495922">
        <ele>832.63999999999999</ele>
        <time>2018-09-17T06:30:31Z</time>
      </trkpt>
      <trkpt lat="47.442249041050673" lon="10.247461013495922">
        <ele>832.63999999999999</ele>
        <time>2018-09-17T06:30:53Z</time>
      </trkpt>
      <trkpt lat="47.442312994971871" lon="10.24747802875936">
        <ele>831.67999999999995</ele>
        <time>2018-09-17T06:30:56Z</time>
      </trkpt>
      <trkpt lat="47.442365968599916" lon="10.247428994625807">
        <ele>831.20000000000005</ele>
        <time>2018-09-17T06:30:58Z</time>
      </trkpt>
      <trkpt lat="47.442413996905088" lon="10.247387001290917">
        <ele>831.20000000000005</ele>
        <time>2018-09-17T06:30:59Z</time>
      </trkpt>
      <trkpt lat="47.442468982189894" lon="10.247336961328983">
        <ele>830.72000000000003</ele>
        <time>2018-09-17T06:31:00Z</time>
      </trkpt>
      <trkpt lat="47.442526984959841" lon="10.247282981872559">
        <ele>830.72000000000003</ele>
        <time>2018-09-17T06:31:01Z</time>
      </trkpt>
      <trkpt lat="47.442570989951491" lon="10.247208969667554">
        <ele>830.72000000000003</ele>
        <time>2018-09-17T06:31:02Z</time>
      </trkpt>
      <trkpt lat="47.442821022123098" lon="10.246788030490279">
        <ele>831.20000000000005</ele>
        <time>2018-09-17T06:31:07Z</time>
      </trkpt>
      <trkpt lat="47.442943984642625" lon="10.246649980545044">
        <ele>830.72000000000003</ele>
        <time>2018-09-17T06:31:09Z</time>
      </trkpt>
      <trkpt lat="47.443008022382855" lon="10.246603963896632">
        <ele>830.24000000000001</ele>
        <time>2018-09-17T06:31:10Z</time>
      </trkpt>
      <trkpt lat="47.443068036809564" lon="10.246559958904982">
        <ele>830.24000000000001</ele>
        <time>2018-09-17T06:31:11Z</time>
      </trkpt>
      <trkpt lat="47.443140037357807" lon="10.246529029682279">
        <ele>830.24000000000001</ele>
        <time>2018-09-17T06:31:12Z</time>
      </trkpt>
      <trkpt lat="47.44321396574378" lon="10.246520983055234">
        <ele>830.72000000000003</ele>
        <time>2018-09-17T06:31:13Z</time>
      </trkpt>
      <trkpt lat="47.443288983777165" lon="10.246513020247221">
        <ele>830.72000000000003</ele>
        <time>2018-09-17T06:31:14Z</time>
      </trkpt>
      <trkpt lat="47.443360984325409" lon="10.246504973620176">
        <ele>831.20000000000005</ele>
        <time>2018-09-17T06:31:15Z</time>
      </trkpt>
      <trkpt lat="47.44342896156013" lon="10.246498016640544">
        <ele>831.20000000000005</ele>
        <time>2018-09-17T06:31:16Z</time>
      </trkpt>
      <trkpt lat="47.443487970158458" lon="10.24649198167026">
        <ele>831.67999999999995</ele>
        <time>2018-09-17T06:31:17Z</time>
      </trkpt>
      <trkpt lat="47.443652004003525" lon="10.24649198167026">
        <ele>832.15999999999997</ele>
        <time>2018-09-17T06:31:21Z</time>
      </trkpt>
      <trkpt lat="47.443682011216879" lon="10.246428027749062">
        <ele>832.15999999999997</ele>
        <time>2018-09-17T06:31:22Z</time>
      </trkpt>
      <trkpt lat="47.443720987066627" lon="10.246344963088632">
        <ele>832.63999999999999</ele>
        <time>2018-09-17T06:31:23Z</time>
      </trkpt>
      <trkpt lat="47.443764992058277" lon="10.246249996125698">
        <ele>832.63999999999999</ele>
        <time>2018-09-17T06:31:24Z</time>
      </trkpt>
      <trkpt lat="47.443811008706689" lon="10.246153017506003">
        <ele>833.12</ele>
        <time>2018-09-17T06:31:25Z</time>
      </trkpt>
      <trkpt lat="47.44385601952672" lon="10.246056038886309">
        <ele>833.12</ele>
        <time>2018-09-17T06:31:26Z</time>
      </trkpt>
      <trkpt lat="47.443943023681641" lon="10.2458699606359">
        <ele>833.60000000000002</ele>
        <time>2018-09-17T06:31:28Z</time>
      </trkpt>
      <trkpt lat="47.44398501701653" lon="10.245682960376143">
        <ele>834.08000000000004</ele>
        <time>2018-09-17T06:31:30Z</time>
      </trkpt>
      <trkpt lat="47.443998008966446" lon="10.245594028383493">
        <ele>834.08000000000004</ele>
        <time>2018-09-17T06:31:31Z</time>
      </trkpt>
      <trkpt lat="47.443999014794827" lon="10.245514987036586">
        <ele>834.08000000000004</ele>
        <time>2018-09-17T06:31:32Z</time>
      </trkpt>
      <trkpt lat="47.443950986489654" lon="10.245469976216555">
        <ele>834.08000000000004</ele>
        <time>2018-09-17T06:31:33Z</time>
      </trkpt>
      <trkpt lat="47.443894995376468" lon="10.245418008416891">
        <ele>834.08000000000004</ele>
        <time>2018-09-17T06:31:34Z</time>
      </trkpt>
      <trkpt lat="47.443831963464618" lon="10.245358999818563">
        <ele>833.60000000000002</ele>
        <time>2018-09-17T06:31:35Z</time>
      </trkpt>
      <trkpt lat="47.443637000396848" lon="10.24513796903193">
        <ele>833.12</ele>
        <time>2018-09-17T06:31:38Z</time>
      </trkpt>
      <trkpt lat="47.443601964041591" lon="10.245058005675673">
        <ele>833.12</ele>
        <time>2018-09-17T06:31:39Z</time>
      </trkpt>
      <trkpt lat="47.443578997626901" lon="10.245005032047629">
        <ele>833.12</ele>
        <time>2018-09-17T06:31:40Z</time>
      </trkpt>
      <trkpt lat="47.443554019555449" lon="10.244805961847305">
        <ele>833.12</ele>
        <time>2018-09-17T06:31:43Z</time>
      </trkpt>
      <trkpt lat="47.443597018718719" lon="10.244747959077358">
        <ele>833.12</ele>
        <time>2018-09-17T06:31:44Z</time>
      </trkpt>
      <trkpt lat="47.443653009831905" lon="10.244674030691385">
        <ele>833.12</ele>
        <time>2018-09-17T06:31:45Z</time>
      </trkpt>
      <trkpt lat="47.444275030866265" lon="10.243704998865724">
        <ele>834.55999999999995</ele>
        <time>2018-09-17T06:31:53Z</time>
      </trkpt>
      <trkpt lat="47.444362035021186" lon="10.243550017476082">
        <ele>835.03999999999996</ele>
        <time>2018-09-17T06:31:54Z</time>
      </trkpt>
      <trkpt lat="47.444446021690965" lon="10.243400987237692">
        <ele>836</ele>
        <time>2018-09-17T06:31:55Z</time>
      </trkpt>
      <trkpt lat="47.444509975612164" lon="10.243237037211657">
        <ele>836.48000000000002</ele>
        <time>2018-09-17T06:31:56Z</time>
      </trkpt>
      <trkpt lat="47.444924963638186" lon="10.242288960143924">
        <ele>838.88999999999999</ele>
        <time>2018-09-17T06:32:03Z</time>
      </trkpt>
      <trkpt lat="47.445612028241158" lon="10.241225967183709">
        <ele>841.28999999999996</ele>
        <time>2018-09-17T06:32:12Z</time>
      </trkpt>
      <trkpt lat="47.446126006543636" lon="10.240546027198434">
        <ele>843.69000000000005</ele>
        <time>2018-09-17T06:32:19Z</time>
      </trkpt>
      <trkpt lat="47.446200018748641" lon="10.240468997508287">
        <ele>844.17999999999995</ele>
        <time>2018-09-17T06:32:20Z</time>
      </trkpt>
      <trkpt lat="47.446274030953646" lon="10.240391967818141">
        <ele>844.17999999999995</ele>
        <time>2018-09-17T06:32:21Z</time>
      </trkpt>
      <trkpt lat="47.446347959339619" lon="10.240315021947026">
        <ele>844.65999999999997</ele>
        <time>2018-09-17T06:32:22Z</time>
      </trkpt>
      <trkpt lat="47.446422977373004" lon="10.24023799225688">
        <ele>845.13999999999999</ele>
        <time>2018-09-17T06:32:23Z</time>
      </trkpt>
      <trkpt lat="47.446496989578009" lon="10.240160040557384">
        <ele>846.10000000000002</ele>
        <time>2018-09-17T06:32:24Z</time>
      </trkpt>
      <trkpt lat="47.447235016152263" lon="10.23937901481986">
        <ele>849.46000000000004</ele>
        <time>2018-09-17T06:32:34Z</time>
      </trkpt>
      <trkpt lat="47.447387985885143" lon="10.239225961267948">
        <ele>850.89999999999998</ele>
        <time>2018-09-17T06:32:36Z</time>
      </trkpt>
      <trkpt lat="47.447469960898161" lon="10.239188997074962">
        <ele>851.38</ele>
        <time>2018-09-17T06:32:37Z</time>
      </trkpt>
      <trkpt lat="47.44755201973021" lon="10.239158989861608">
        <ele>852.35000000000002</ele>
        <time>2018-09-17T06:32:38Z</time>
      </trkpt>
      <trkpt lat="47.447631983086467" lon="10.239128982648253">
        <ele>852.83000000000004</ele>
        <time>2018-09-17T06:32:39Z</time>
      </trkpt>
      <trkpt lat="47.447712030261755" lon="10.23909998126328">
        <ele>852.83000000000004</ele>
        <time>2018-09-17T06:32:40Z</time>
      </trkpt>
      <trkpt lat="47.447805991396308" lon="10.239065028727055">
        <ele>853.30999999999995</ele>
        <time>2018-09-17T06:32:41Z</time>
      </trkpt>
      <trkpt lat="47.447883021086454" lon="10.239073997363448">
        <ele>853.78999999999996</ele>
        <time>2018-09-17T06:32:42Z</time>
      </trkpt>
      <trkpt lat="47.447977988049388" lon="10.239085983484983">
        <ele>854.26999999999998</ele>
        <time>2018-09-17T06:32:43Z</time>
      </trkpt>
      <trkpt lat="47.448879964649677" lon="10.239452021196485">
        <ele>853.78999999999996</ele>
        <time>2018-09-17T06:32:54Z</time>
      </trkpt>
      <trkpt lat="47.449161009863019" lon="10.239559980109334">
        <ele>852.35000000000002</ele>
        <time>2018-09-17T06:33:01Z</time>
      </trkpt>
      <trkpt lat="47.449363013729453" lon="10.239626029506326">
        <ele>850.89999999999998</ele>
        <time>2018-09-17T06:33:14Z</time>
      </trkpt>
      <trkpt lat="47.449402995407581" lon="10.239709010347724">
        <ele>850.41999999999996</ele>
        <time>2018-09-17T06:33:15Z</time>
      </trkpt>
      <trkpt lat="47.449573986232281" lon="10.240063983947039">
        <ele>849.46000000000004</ele>
        <time>2018-09-17T06:33:18Z</time>
      </trkpt>
      <trkpt lat="47.449642969295382" lon="10.240197004750371">
        <ele>848.5</ele>
        <time>2018-09-17T06:33:19Z</time>
      </trkpt>
      <trkpt lat="47.450578976422548" lon="10.241337027400732">
        <ele>843.21000000000004</ele>
        <time>2018-09-17T06:33:28Z</time>
      </trkpt>
      <trkpt lat="47.451148023828864" lon="10.242054015398026">
        <ele>839.85000000000002</ele>
        <time>2018-09-17T06:33:34Z</time>
      </trkpt>
      <trkpt lat="47.451222036033869" lon="10.242197010666132">
        <ele>839.37</ele>
        <time>2018-09-17T06:33:35Z</time>
      </trkpt>
      <trkpt lat="47.451295964419842" lon="10.242341011762619">
        <ele>838.88999999999999</ele>
        <time>2018-09-17T06:33:36Z</time>
      </trkpt>
      <trkpt lat="47.451369976624846" lon="10.242484007030725">
        <ele>837.92999999999995</ele>
        <time>2018-09-17T06:33:37Z</time>
      </trkpt>
      <trkpt lat="47.451434014365077" lon="10.242628008127213">
        <ele>837.45000000000005</ele>
        <time>2018-09-17T06:33:38Z</time>
      </trkpt>
      <trkpt lat="47.451824024319649" lon="10.243602991104126">
        <ele>834.08000000000004</ele>
        <time>2018-09-17T06:33:45Z</time>
      </trkpt>
      <trkpt lat="47.45189200155437" lon="10.243708016350865">
        <ele>834.08000000000004</ele>
        <time>2018-09-17T06:33:46Z</time>
      </trkpt>
      <trkpt lat="47.451964002102613" lon="10.243818992748857">
        <ele>833.12</ele>
        <time>2018-09-17T06:33:47Z</time>
      </trkpt>
      <trkpt lat="47.452051006257534" lon="10.243923012167215">
        <ele>833.12</ele>
        <time>2018-09-17T06:33:48Z</time>
      </trkpt>
      <trkpt lat="47.452152008190751" lon="10.244000963866711">
        <ele>832.15999999999997</ele>
        <time>2018-09-17T06:33:49Z</time>
      </trkpt>
      <trkpt lat="47.452255021780729" lon="10.244080005213618">
        <ele>831.67999999999995</ele>
        <time>2018-09-17T06:33:50Z</time>
      </trkpt>
      <trkpt lat="47.452362980693579" lon="10.244133984670043">
        <ele>831.20000000000005</ele>
        <time>2018-09-17T06:33:51Z</time>
      </trkpt>
      <trkpt lat="47.45247102342546" lon="10.244172960519791">
        <ele>830.72000000000003</ele>
        <time>2018-09-17T06:33:52Z</time>
      </trkpt>
      <trkpt lat="47.453016014769673" lon="10.244347974658012">
        <ele>828.30999999999995</ele>
        <time>2018-09-17T06:33:58Z</time>
      </trkpt>
      <trkpt lat="47.45318298228085" lon="10.244393991306424">
        <ele>827.83000000000004</ele>
        <time>2018-09-17T06:34:00Z</time>
      </trkpt>
      <trkpt lat="47.4538279697299" lon="10.244670007377863">
        <ele>826.38999999999999</ele>
        <time>2018-09-17T06:34:06Z</time>
      </trkpt>
      <trkpt lat="47.454072972759604" lon="10.244878968223929">
        <ele>825.42999999999995</ele>
        <time>2018-09-17T06:34:08Z</time>
      </trkpt>
      <trkpt lat="47.454209011048079" lon="10.245003020390868">
        <ele>824.95000000000005</ele>
        <time>2018-09-17T06:34:09Z</time>
      </trkpt>
      <trkpt lat="47.454303978011012" lon="10.245181974023581">
        <ele>824.47000000000003</ele>
        <time>2018-09-17T06:34:10Z</time>
      </trkpt>
      <trkpt lat="47.454402968287468" lon="10.245366040617228">
        <ele>823.99000000000001</ele>
        <time>2018-09-17T06:34:11Z</time>
      </trkpt>
      <trkpt lat="47.454501036554575" lon="10.245550023391843">
        <ele>823.50999999999999</ele>
        <time>2018-09-17T06:34:12Z</time>
      </trkpt>
      <trkpt lat="47.454584017395973" lon="10.24576099589467">
        <ele>822.54999999999995</ele>
        <time>2018-09-17T06:34:13Z</time>
      </trkpt>
      <trkpt lat="47.454645037651062" lon="10.245960988104343">
        <ele>821.10000000000002</ele>
        <time>2018-09-17T06:34:14Z</time>
      </trkpt>
      <trkpt lat="47.455005962401628" lon="10.247825039550662">
        <ele>815.34000000000003</ele>
        <time>2018-09-17T06:34:21Z</time>
      </trkpt>
      <trkpt lat="47.455719010904431" lon="10.249727983027697">
        <ele>809.09000000000003</ele>
        <time>2018-09-17T06:34:27Z</time>
      </trkpt>
      <trkpt lat="47.456258973106742" lon="10.251738969236612">
        <ele>803.79999999999995</ele>
        <time>2018-09-17T06:34:33Z</time>
      </trkpt>
      <trkpt lat="47.456492995843291" lon="10.252749994397163">
        <ele>801.88</ele>
        <time>2018-09-17T06:34:36Z</time>
      </trkpt>
      <trkpt lat="47.456617970019579" lon="10.253041014075279">
        <ele>801.39999999999998</ele>
        <time>2018-09-17T06:34:37Z</time>
      </trkpt>
      <trkpt lat="47.456755014136434" lon="10.253316024318337">
        <ele>800.44000000000005</ele>
        <time>2018-09-17T06:34:38Z</time>
      </trkpt>
      <trkpt lat="47.456890968605876" lon="10.253586005419493">
        <ele>799.47000000000003</ele>
        <time>2018-09-17T06:34:39Z</time>
      </trkpt>
      <trkpt lat="47.457023989409208" lon="10.253852969035506">
        <ele>798.99000000000001</ele>
        <time>2018-09-17T06:34:40Z</time>
      </trkpt>
      <trkpt lat="47.457703007385135" lon="10.255564972758293">
        <ele>793.71000000000004</ele>
        <time>2018-09-17T06:34:46Z</time>
      </trkpt>
      <trkpt lat="47.458199970424175" lon="10.257461965084076">
        <ele>787.94000000000005</ele>
        <time>2018-09-17T06:34:53Z</time>
      </trkpt>
      <trkpt lat="47.458341959863901" lon="10.257902015000582">
        <ele>786.98000000000002</ele>
        <time>2018-09-17T06:34:56Z</time>
      </trkpt>
      <trkpt lat="47.458648988977075" lon="10.25918897241354">
        <ele>786.5</ele>
        <time>2018-09-17T06:35:05Z</time>
      </trkpt>
      <trkpt lat="47.4589619692415" lon="10.260839033871889">
        <ele>785.52999999999997</ele>
        <time>2018-09-17T06:35:17Z</time>
      </trkpt>
      <trkpt lat="47.459462033584714" lon="10.262877009809017">
        <ele>782.16999999999996</ele>
        <time>2018-09-17T06:35:32Z</time>
      </trkpt>
      <trkpt lat="47.459679963067174" lon="10.263703968375921">
        <ele>781.21000000000004</ele>
        <time>2018-09-17T06:35:38Z</time>
      </trkpt>
      <trkpt lat="47.460129987448454" lon="10.265196030959487">
        <ele>779.28999999999996</ele>
        <time>2018-09-17T06:35:49Z</time>
      </trkpt>
      <trkpt lat="47.460188996046782" lon="10.265474980697036">
        <ele>779.28999999999996</ele>
        <time>2018-09-17T06:35:51Z</time>
      </trkpt>
      <trkpt lat="47.460321011021733" lon="10.266368994489312">
        <ele>776.88</ele>
        <time>2018-09-17T06:35:58Z</time>
      </trkpt>
      <trkpt lat="47.460328973829746" lon="10.266718016937375">
        <ele>773.51999999999998</ele>
        <time>2018-09-17T06:36:06Z</time>
      </trkpt>
      <trkpt lat="47.460328973829746" lon="10.266718016937375">
        <ele>773.51999999999998</ele>
        <time>2018-09-17T06:36:42Z</time>
      </trkpt>
      <trkpt lat="47.460316987708211" lon="10.266856988891959">
        <ele>774</ele>
        <time>2018-09-17T06:36:55Z</time>
      </trkpt>
      <trkpt lat="47.460300978273153" lon="10.267047006636858">
        <ele>774.48000000000002</ele>
        <time>2018-09-17T06:37:00Z</time>
      </trkpt>
      <trkpt lat="47.460339032113552" lon="10.267141973599792">
        <ele>774.96000000000004</ele>
        <time>2018-09-17T06:37:01Z</time>
      </trkpt>
      <trkpt lat="47.460395023226738" lon="10.267156977206469">
        <ele>774.96000000000004</ele>
        <time>2018-09-17T06:37:02Z</time>
      </trkpt>
      <trkpt lat="47.460468029603362" lon="10.267174998298287">
        <ele>775.44000000000005</ele>
        <time>2018-09-17T06:37:03Z</time>
      </trkpt>
      <trkpt lat="47.460553022101521" lon="10.267196036875248">
        <ele>775.44000000000005</ele>
        <time>2018-09-17T06:37:04Z</time>
      </trkpt>
      <trkpt lat="47.461278978735209" lon="10.267430981621146">
        <ele>774.96000000000004</ele>
        <time>2018-09-17T06:37:11Z</time>
      </trkpt>
      <trkpt lat="47.461769990622997" lon="10.267686964944005">
        <ele>774.48000000000002</ele>
        <time>2018-09-17T06:37:20Z</time>
      </trkpt>
      <trkpt lat="47.461828999221325" lon="10.26771797798574">
        <ele>774.48000000000002</ele>
        <time>2018-09-17T06:37:22Z</time>
      </trkpt>
      <trkpt lat="47.462279023602605" lon="10.267946971580386">
        <ele>774</ele>
        <time>2018-09-17T06:37:28Z</time>
      </trkpt>
      <trkpt lat="47.463266998529434" lon="10.268294988200068">
        <ele>774.48000000000002</ele>
        <time>2018-09-17T06:37:35Z</time>
      </trkpt>
      <trkpt lat="47.464878000319004" lon="10.2683209720999">
        <ele>772.08000000000004</ele>
        <time>2018-09-17T06:37:44Z</time>
      </trkpt>
      <trkpt lat="47.467246977612376" lon="10.26814796961844">
        <ele>764.38999999999999</ele>
        <time>2018-09-17T06:37:56Z</time>
      </trkpt>
      <trkpt lat="47.469301968812943" lon="10.268015032634139">
        <ele>760.53999999999996</ele>
        <time>2018-09-17T06:38:08Z</time>
      </trkpt>
      <trkpt lat="47.471242966130376" lon="10.267987959086895">
        <ele>761.98000000000002</ele>
        <time>2018-09-17T06:38:21Z</time>
      </trkpt>
      <trkpt lat="47.472815997898579" lon="10.267862984910607">
        <ele>760.05999999999995</ele>
        <time>2018-09-17T06:38:31Z</time>
      </trkpt>
      <trkpt lat="47.473198967054486" lon="10.267778998240829">
        <ele>757.65999999999997</ele>
        <time>2018-09-17T06:38:37Z</time>
      </trkpt>
      <trkpt lat="47.473331987857819" lon="10.267748991027474">
        <ele>757.17999999999995</ele>
        <time>2018-09-17T06:38:40Z</time>
      </trkpt>
      <trkpt lat="47.473968006670475" lon="10.267575988546014">
        <ele>756.21000000000004</ele>
        <time>2018-09-17T06:38:47Z</time>
      </trkpt>
      <trkpt lat="47.475391002371907" lon="10.26709302328527">
        <ele>756.21000000000004</ele>
        <time>2018-09-17T06:38:57Z</time>
      </trkpt>
      <trkpt lat="47.477355971932411" lon="10.266684992238879">
        <ele>760.53999999999996</ele>
        <time>2018-09-17T06:39:09Z</time>
      </trkpt>
      <trkpt lat="47.478863960132003" lon="10.266698990017176">
        <ele>768.71000000000004</ele>
        <time>2018-09-17T06:39:18Z</time>
      </trkpt>
      <trkpt lat="47.479993002489209" lon="10.266545014455914">
        <ele>774</ele>
        <time>2018-09-17T06:39:26Z</time>
      </trkpt>
      <trkpt lat="47.481192033737898" lon="10.266075041145086">
        <ele>780.73000000000002</ele>
        <time>2018-09-17T06:39:35Z</time>
      </trkpt>
      <trkpt lat="47.482352005317807" lon="10.266088033095002">
        <ele>784.57000000000005</ele>
        <time>2018-09-17T06:39:43Z</time>
      </trkpt>
      <trkpt lat="47.483725966885686" lon="10.266272015869617">
        <ele>785.04999999999995</ele>
        <time>2018-09-17T06:39:53Z</time>
      </trkpt>
      <trkpt lat="47.484632972627878" lon="10.266377963125706">
        <ele>785.04999999999995</ele>
        <time>2018-09-17T06:39:59Z</time>
      </trkpt>
      <trkpt lat="47.484780997037888" lon="10.266453986987472">
        <ele>785.04999999999995</ele>
        <time>2018-09-17T06:40:00Z</time>
      </trkpt>
      <trkpt lat="47.484937990084291" lon="10.266540991142392">
        <ele>785.04999999999995</ele>
        <time>2018-09-17T06:40:01Z</time>
      </trkpt>
      <trkpt lat="47.48525901697576" lon="10.266724973917007">
        <ele>784.57000000000005</ele>
        <time>2018-09-17T06:40:03Z</time>
      </trkpt>
      <trkpt lat="47.485415004193783" lon="10.266839973628521">
        <ele>785.04999999999995</ele>
        <time>2018-09-17T06:40:04Z</time>
      </trkpt>
      <trkpt lat="47.485569985583425" lon="10.266953967511654">
        <ele>784.57000000000005</ele>
        <time>2018-09-17T06:40:05Z</time>
      </trkpt>
      <trkpt lat="47.485722033306956" lon="10.267036026343703">
        <ele>784.57000000000005</ele>
        <time>2018-09-17T06:40:06Z</time>
      </trkpt>
      <trkpt lat="47.485875003039837" lon="10.267096040770411">
        <ele>784.09000000000003</ele>
        <time>2018-09-17T06:40:07Z</time>
      </trkpt>
      <trkpt lat="47.486022021621466" lon="10.267153037711978">
        <ele>784.57000000000005</ele>
        <time>2018-09-17T06:40:08Z</time>
      </trkpt>
      <trkpt lat="47.48618203215301" lon="10.267144991084933">
        <ele>784.09000000000003</ele>
        <time>2018-09-17T06:40:09Z</time>
      </trkpt>
      <trkpt lat="47.486341036856174" lon="10.267138034105301">
        <ele>784.09000000000003</ele>
        <time>2018-09-17T06:40:10Z</time>
      </trkpt>
      <trkpt lat="47.486499035730958" lon="10.267124036327004">
        <ele>784.09000000000003</ele>
        <time>2018-09-17T06:40:11Z</time>
      </trkpt>
      <trkpt lat="47.486644964665174" lon="10.267082965001464">
        <ele>784.09000000000003</ele>
        <time>2018-09-17T06:40:12Z</time>
      </trkpt>
      <trkpt lat="47.487807031720877" lon="10.266975006088614">
        <ele>780.73000000000002</ele>
        <time>2018-09-17T06:40:20Z</time>
      </trkpt>
      <trkpt lat="47.489237990230322" lon="10.266952961683273">
        <ele>774.96000000000004</ele>
        <time>2018-09-17T06:40:29Z</time>
      </trkpt>
      <trkpt lat="47.490516984835267" lon="10.266699995845556">
        <ele>768.23000000000002</ele>
        <time>2018-09-17T06:40:37Z</time>
      </trkpt>
      <trkpt lat="47.490999028086662" lon="10.266679963096976">
        <ele>765.83000000000004</ele>
        <time>2018-09-17T06:40:40Z</time>
      </trkpt>
      <trkpt lat="47.491841996088624" lon="10.266744000837207">
        <ele>760.53999999999996</ele>
        <time>2018-09-17T06:40:45Z</time>
      </trkpt>
      <trkpt lat="47.493216041475534" lon="10.266653979197145">
        <ele>753.33000000000004</ele>
        <time>2018-09-17T06:40:52Z</time>
      </trkpt>
      <trkpt lat="47.493418967351317" lon="10.266621960327029">
        <ele>752.37</ele>
        <time>2018-09-17T06:40:53Z</time>
      </trkpt>
      <trkpt lat="47.495155027136207" lon="10.265824003145099">
        <ele>748.03999999999996</ele>
        <time>2018-09-17T06:41:02Z</time>
      </trkpt>
      <trkpt lat="47.496064966544509" lon="10.265470035374165">
        <ele>746.12</ele>
        <time>2018-09-17T06:41:07Z</time>
      </trkpt>
      <trkpt lat="47.496256995946169" lon="10.265436004847288">
        <ele>746.12</ele>
        <time>2018-09-17T06:41:08Z</time>
      </trkpt>
      <trkpt lat="47.496437961235642" lon="10.265472969040275">
        <ele>746.12</ele>
        <time>2018-09-17T06:41:09Z</time>
      </trkpt>
      <trkpt lat="47.498290026560426" lon="10.26584898121655">
        <ele>747.55999999999995</ele>
        <time>2018-09-17T06:41:19Z</time>
      </trkpt>
      <trkpt lat="47.50044803135097" lon="10.266452981159091">
        <ele>746.12</ele>
        <time>2018-09-17T06:41:32Z</time>
      </trkpt>
      <trkpt lat="47.502214014530182" lon="10.267455037683249">
        <ele>745.15999999999997</ele>
        <time>2018-09-17T06:41:43Z</time>
      </trkpt>
      <trkpt lat="47.504042023792863" lon="10.269058998674154">
        <ele>745.63999999999999</ele>
        <time>2018-09-17T06:41:55Z</time>
      </trkpt>
      <trkpt lat="47.505969023332" lon="10.270680980756879">
        <ele>749</ele>
        <time>2018-09-17T06:42:07Z</time>
      </trkpt>
      <trkpt lat="47.507781023159623" lon="10.271466029807925">
        <ele>749.97000000000003</ele>
        <time>2018-09-17T06:42:16Z</time>
      </trkpt>
      <trkpt lat="47.509384984150529" lon="10.271741040050983">
        <ele>748.51999999999998</ele>
        <time>2018-09-17T06:42:24Z</time>
      </trkpt>
      <trkpt lat="47.511308966204524" lon="10.271551022306085">
        <ele>747.08000000000004</ele>
        <time>2018-09-17T06:42:34Z</time>
      </trkpt>
      <trkpt lat="47.513200007379055" lon="10.271239969879389">
        <ele>745.63999999999999</ele>
        <time>2018-09-17T06:42:44Z</time>
      </trkpt>
      <trkpt lat="47.515318030491471" lon="10.270801009610295">
        <ele>746.60000000000002</ele>
        <time>2018-09-17T06:42:56Z</time>
      </trkpt>
      <trkpt lat="47.516891984269023" lon="10.270119979977608">
        <ele>744.67999999999995</ele>
        <time>2018-09-17T06:43:06Z</time>
      </trkpt>
      <trkpt lat="47.518292013555765" lon="10.269468035548925">
        <ele>741.30999999999995</ele>
        <time>2018-09-17T06:43:15Z</time>
      </trkpt>
      <trkpt lat="47.518589990213513" lon="10.269455965608358">
        <ele>740.35000000000002</ele>
        <time>2018-09-17T06:43:17Z</time>
      </trkpt>
      <trkpt lat="47.518910011276603" lon="10.269515980035067">
        <ele>739.87</ele>
        <time>2018-09-17T06:43:19Z</time>
      </trkpt>
      <trkpt lat="47.519072033464909" lon="10.26958404108882">
        <ele>739.38999999999999</ele>
        <time>2018-09-17T06:43:20Z</time>
      </trkpt>
      <trkpt lat="47.519233971834183" lon="10.269653024151921">
        <ele>739.38999999999999</ele>
        <time>2018-09-17T06:43:21Z</time>
      </trkpt>
      <trkpt lat="47.51937897875905" lon="10.269774980843067">
        <ele>739.38999999999999</ele>
        <time>2018-09-17T06:43:22Z</time>
      </trkpt>
      <trkpt lat="47.519521974027157" lon="10.269910013303161">
        <ele>739.38999999999999</ele>
        <time>2018-09-17T06:43:23Z</time>
      </trkpt>
      <trkpt lat="47.519659018144011" lon="10.270044039934874">
        <ele>739.87</ele>
        <time>2018-09-17T06:43:24Z</time>
      </trkpt>
      <trkpt lat="47.520114993676543" lon="10.27061702683568">
        <ele>742.75999999999999</ele>
        <time>2018-09-17T06:43:28Z</time>
      </trkpt>
      <trkpt lat="47.520195040851831" lon="10.270763039588928">
        <ele>743.72000000000003</ele>
        <time>2018-09-17T06:43:29Z</time>
      </trkpt>
      <trkpt lat="47.52025899477303" lon="10.270878961309791">
        <ele>744.20000000000005</ele>
        <time>2018-09-17T06:43:30Z</time>
      </trkpt>
      <trkpt lat="47.520310962572694" lon="10.270975017920136">
        <ele>744.20000000000005</ele>
        <time>2018-09-17T06:43:31Z</time>
      </trkpt>
      <trkpt lat="47.520337030291557" lon="10.271137040108442">
        <ele>744.20000000000005</ele>
        <time>2018-09-17T06:43:32Z</time>
      </trkpt>
      <trkpt lat="47.520341975614429" lon="10.271281041204929">
        <ele>744.67999999999995</ele>
        <time>2018-09-17T06:43:33Z</time>
      </trkpt>
      <trkpt lat="47.520347004756331" lon="10.271427975967526">
        <ele>744.67999999999995</ele>
        <time>2018-09-17T06:43:34Z</time>
      </trkpt>
      <trkpt lat="47.520380029454827" lon="10.272825993597507">
        <ele>744.67999999999995</ele>
        <time>2018-09-17T06:43:41Z</time>
      </trkpt>
      <trkpt lat="47.52038698643446" lon="10.273023974150419">
        <ele>744.67999999999995</ele>
        <time>2018-09-17T06:43:42Z</time>
      </trkpt>
      <trkpt lat="47.520439960062504" lon="10.27519203722477">
        <ele>741.30999999999995</ele>
        <time>2018-09-17T06:43:54Z</time>
      </trkpt>
      <trkpt lat="47.520417999476194" lon="10.276396013796329">
        <ele>741.78999999999996</ele>
        <time>2018-09-17T06:44:01Z</time>
      </trkpt>
      <trkpt lat="47.520413976162672" lon="10.276572033762932">
        <ele>741.78999999999996</ele>
        <time>2018-09-17T06:44:02Z</time>
      </trkpt>
      <trkpt lat="47.520410036668181" lon="10.276745036244392">
        <ele>741.78999999999996</ele>
        <time>2018-09-17T06:44:03Z</time>
      </trkpt>
      <trkpt lat="47.520254971459508" lon="10.278299041092396">
        <ele>742.27999999999997</ele>
        <time>2018-09-17T06:44:12Z</time>
      </trkpt>
      <trkpt lat="47.520230999216437" lon="10.278468020260334">
        <ele>742.27999999999997</ele>
        <time>2018-09-17T06:44:13Z</time>
      </trkpt>
      <trkpt lat="47.519927993416786" lon="10.280152028426528">
        <ele>741.78999999999996</ele>
        <time>2018-09-17T06:44:23Z</time>
      </trkpt>
      <trkpt lat="47.519889017567039" lon="10.280315978452563">
        <ele>742.27999999999997</ele>
        <time>2018-09-17T06:44:24Z</time>
      </trkpt>
      <trkpt lat="47.519850041717291" lon="10.28047900646925">
        <ele>742.75999999999999</ele>
        <time>2018-09-17T06:44:25Z</time>
      </trkpt>
      <trkpt lat="47.519689025357366" lon="10.281293978914618">
        <ele>744.67999999999995</ele>
        <time>2018-09-17T06:44:32Z</time>
      </trkpt>
      <trkpt lat="47.519674021750689" lon="10.28136002831161">
        <ele>744.67999999999995</ele>
        <time>2018-09-17T06:44:33Z</time>
      </trkpt>
      <trkpt lat="47.519639991223812" lon="10.281507968902588">
        <ele>745.15999999999997</ele>
        <time>2018-09-17T06:44:41Z</time>
      </trkpt>
      <trkpt lat="47.519601015374064" lon="10.281680971384048">
        <ele>745.15999999999997</ele>
        <time>2018-09-17T06:44:59Z</time>
      </trkpt>
      <trkpt lat="47.51937897875905" lon="10.282703982666135">
        <ele>745.63999999999999</ele>
        <time>2018-09-17T06:45:05Z</time>
      </trkpt>
      <trkpt lat="47.519062981009483" lon="10.284209037199616">
        <ele>746.12</ele>
        <time>2018-09-17T06:45:13Z</time>
      </trkpt>
      <trkpt lat="47.51879601739347" lon="10.285179996863008">
        <ele>747.55999999999995</ele>
        <time>2018-09-17T06:45:19Z</time>
      </trkpt>
      <trkpt lat="47.517953971400857" lon="10.286730984225869">
        <ele>750.92999999999995</ele>
        <time>2018-09-17T06:45:30Z</time>
      </trkpt>
      <trkpt lat="47.517123995348811" lon="10.287772016599774">
        <ele>753.80999999999995</ele>
        <time>2018-09-17T06:45:40Z</time>
      </trkpt>
      <trkpt lat="47.516340035945177" lon="10.288676004856825">
        <ele>755.25</ele>
        <time>2018-09-17T06:45:48Z</time>
      </trkpt>
      <trkpt lat="47.515834020450711" lon="10.28926701284945">
        <ele>755.73000000000002</ele>
        <time>2018-09-17T06:45:54Z</time>
      </trkpt>
      <trkpt lat="47.515757996588945" lon="10.289358040317893">
        <ele>755.73000000000002</ele>
        <time>2018-09-17T06:45:55Z</time>
      </trkpt>
      <trkpt lat="47.514810003340244" lon="10.290474006906152">
        <ele>758.13999999999999</ele>
        <time>2018-09-17T06:46:05Z</time>
      </trkpt>
      <trkpt lat="47.513549029827118" lon="10.291671026498079">
        <ele>760.53999999999996</ele>
        <time>2018-09-17T06:46:17Z</time>
      </trkpt>
      <trkpt lat="47.512788036838174" lon="10.292271003127098">
        <ele>762.46000000000004</ele>
        <time>2018-09-17T06:46:24Z</time>
      </trkpt>
      <trkpt lat="47.512680999934673" lon="10.292354989796877">
        <ele>762.46000000000004</ele>
        <time>2018-09-17T06:46:25Z</time>
      </trkpt>
      <trkpt lat="47.511512981727719" lon="10.293296026065946">
        <ele>763.89999999999998</ele>
        <time>2018-09-17T06:46:36Z</time>
      </trkpt>
      <trkpt lat="47.511411979794502" lon="10.293389987200499">
        <ele>763.89999999999998</ele>
        <time>2018-09-17T06:46:37Z</time>
      </trkpt>
      <trkpt lat="47.510670013725758" lon="10.294507965445518">
        <ele>765.83000000000004</ele>
        <time>2018-09-17T06:46:46Z</time>
      </trkpt>
      <trkpt lat="47.510190987959504" lon="10.295993993058801">
        <ele>766.78999999999996</ele>
        <time>2018-09-17T06:46:55Z</time>
      </trkpt>
      <trkpt lat="47.509937016293406" lon="10.297961980104446">
        <ele>765.83000000000004</ele>
        <time>2018-09-17T06:47:06Z</time>
      </trkpt>
      <trkpt lat="47.509848000481725" lon="10.298573020845652">
        <ele>766.78999999999996</ele>
        <time>2018-09-17T06:47:12Z</time>
      </trkpt>
      <trkpt lat="47.509827967733145" lon="10.298705035820603">
        <ele>766.78999999999996</ele>
        <time>2018-09-17T06:47:20Z</time>
      </trkpt>
      <trkpt lat="47.509756973013282" lon="10.299095967784524">
        <ele>767.26999999999998</ele>
        <time>2018-09-17T06:47:41Z</time>
      </trkpt>
      <trkpt lat="47.509509036317468" lon="10.300199026241899">
        <ele>767.26999999999998</ele>
        <time>2018-09-17T06:47:47Z</time>
      </trkpt>
      <trkpt lat="47.509141992777586" lon="10.301821008324623">
        <ele>767.75</ele>
        <time>2018-09-17T06:47:56Z</time>
      </trkpt>
      <trkpt lat="47.508680988103151" lon="10.303996028378606">
        <ele>768.23000000000002</ele>
        <time>2018-09-17T06:48:08Z</time>
      </trkpt>
      <trkpt lat="47.508249990642071" lon="10.30591900460422">
        <ele>769.66999999999996</ele>
        <time>2018-09-17T06:48:15Z</time>
      </trkpt>
      <trkpt lat="47.50741196796298" lon="10.309239998459816">
        <ele>775.44000000000005</ele>
        <time>2018-09-17T06:48:25Z</time>
      </trkpt>
      <trkpt lat="47.506585009396076" lon="10.311257019639015">
        <ele>776.88</ele>
        <time>2018-09-17T06:48:32Z</time>
      </trkpt>
      <trkpt lat="47.505645984783769" lon="10.313748959451914">
        <ele>774</ele>
        <time>2018-09-17T06:48:41Z</time>
      </trkpt>
      <trkpt lat="47.505246000364423" lon="10.316226985305548">
        <ele>773.03999999999996</ele>
        <time>2018-09-17T06:48:49Z</time>
      </trkpt>
      <trkpt lat="47.504786001518369" lon="10.31990303657949">
        <ele>774</ele>
        <time>2018-09-17T06:49:00Z</time>
      </trkpt>
      <trkpt lat="47.504263976588845" lon="10.323777990415692">
        <ele>776.39999999999998</ele>
        <time>2018-09-17T06:49:11Z</time>
      </trkpt>
      <trkpt lat="47.504154006019235" lon="10.326298009604216">
        <ele>778.80999999999995</ele>
        <time>2018-09-17T06:49:19Z</time>
      </trkpt>
      <trkpt lat="47.504364978522062" lon="10.327981011942029">
        <ele>780.25</ele>
        <time>2018-09-17T06:49:26Z</time>
      </trkpt>
      <trkpt lat="47.504716012626886" lon="10.330309001728892">
        <ele>779.76999999999998</ele>
        <time>2018-09-17T06:49:35Z</time>
      </trkpt>
      <trkpt lat="47.504594977945089" lon="10.332458959892392">
        <ele>778.32000000000005</ele>
        <time>2018-09-17T06:49:43Z</time>
      </trkpt>
      <trkpt lat="47.504130033776164" lon="10.335800992324948">
        <ele>779.76999999999998</ele>
        <time>2018-09-17T06:49:56Z</time>
      </trkpt>
      <trkpt lat="47.503658970817924" lon="10.338699035346508">
        <ele>779.76999999999998</ele>
        <time>2018-09-17T06:50:07Z</time>
      </trkpt>
      <trkpt lat="47.50319997780025" lon="10.342124970629811">
        <ele>783.13</ele>
        <time>2018-09-17T06:50:20Z</time>
      </trkpt>
      <trkpt lat="47.503071986138821" lon="10.343891959637403">
        <ele>784.09000000000003</ele>
        <time>2018-09-17T06:50:29Z</time>
      </trkpt>
      <trkpt lat="47.503043990582228" lon="10.345877967774868">
        <ele>786.01999999999998</ele>
        <time>2018-09-17T06:50:40Z</time>
      </trkpt>
      <trkpt lat="47.503017000854015" lon="10.34835197031498">
        <ele>786.5</ele>
        <time>2018-09-17T06:50:53Z</time>
      </trkpt>
      <trkpt lat="47.503053965047002" lon="10.35078096203506">
        <ele>787.46000000000004</ele>
        <time>2018-09-17T06:51:06Z</time>
      </trkpt>
      <trkpt lat="47.503161001950502" lon="10.352615006268024">
        <ele>787.94000000000005</ele>
        <time>2018-09-17T06:51:14Z</time>
      </trkpt>
      <trkpt lat="47.50334900803864" lon="10.354997981339693">
        <ele>788.41999999999996</ele>
        <time>2018-09-17T06:51:25Z</time>
      </trkpt>
      <trkpt lat="47.503671040758491" lon="10.358007000759244">
        <ele>790.82000000000005</ele>
        <time>2018-09-17T06:51:38Z</time>
      </trkpt>
      <trkpt lat="47.503812024369836" lon="10.359271997585893">
        <ele>792.25999999999999</ele>
        <time>2018-09-17T06:51:46Z</time>
      </trkpt>
      <trkpt lat="47.503829961642623" lon="10.359452962875366">
        <ele>792.74000000000001</ele>
        <time>2018-09-17T06:51:48Z</time>
      </trkpt>
      <trkpt lat="47.503839014098048" lon="10.359539967030287">
        <ele>792.74000000000001</ele>
        <time>2018-09-17T06:51:49Z</time>
      </trkpt>
      <trkpt lat="47.503810012713075" lon="10.359699977561831">
        <ele>793.22000000000003</ele>
        <time>2018-09-17T06:51:50Z</time>
      </trkpt>
      <trkpt lat="47.503810012713075" lon="10.359701989218593">
        <ele>793.22000000000003</ele>
        <time>2018-09-17T06:51:51Z</time>
      </trkpt>
      <trkpt lat="47.503782017156482" lon="10.359767032787204">
        <ele>793.22000000000003</ele>
        <time>2018-09-17T06:51:52Z</time>
      </trkpt>
      <trkpt lat="47.503747986629605" lon="10.359858982264996">
        <ele>793.71000000000004</ele>
        <time>2018-09-17T06:51:53Z</time>
      </trkpt>
      <trkpt lat="47.503765001893044" lon="10.359942968934774">
        <ele>793.71000000000004</ele>
        <time>2018-09-17T06:51:54Z</time>
      </trkpt>
      <trkpt lat="47.503782017156482" lon="10.360030978918076">
        <ele>793.71000000000004</ele>
        <time>2018-09-17T06:51:55Z</time>
      </trkpt>
      <trkpt lat="47.503852006047964" lon="10.360085964202881">
        <ele>794.19000000000005</ele>
        <time>2018-09-17T06:51:56Z</time>
      </trkpt>
      <trkpt lat="47.50392802990973" lon="10.360171040520072">
        <ele>793.71000000000004</ele>
        <time>2018-09-17T06:51:57Z</time>
      </trkpt>
      <trkpt lat="47.503944961354136" lon="10.360281011089683">
        <ele>793.71000000000004</ele>
        <time>2018-09-17T06:51:58Z</time>
      </trkpt>
      <trkpt lat="47.503963988274336" lon="10.360403973609209">
        <ele>793.71000000000004</ele>
        <time>2018-09-17T06:51:59Z</time>
      </trkpt>
      <trkpt lat="47.503984021022916" lon="10.36053498275578">
        <ele>793.71000000000004</ele>
        <time>2018-09-17T06:52:00Z</time>
      </trkpt>
      <trkpt lat="47.504030959680676" lon="10.36083497107029">
        <ele>794.66999999999996</ele>
        <time>2018-09-17T06:52:02Z</time>
      </trkpt>
      <trkpt lat="47.504306975752115" lon="10.362924998626113">
        <ele>798.99000000000001</ele>
        <time>2018-09-17T06:52:14Z</time>
      </trkpt>
      <trkpt lat="47.504482995718718" lon="10.365296993404627">
        <ele>808.13</ele>
        <time>2018-09-17T06:52:28Z</time>
      </trkpt>
      <trkpt lat="47.504476038739085" lon="10.367993032559752">
        <ele>813.40999999999997</ele>
        <time>2018-09-17T06:52:43Z</time>
      </trkpt>
      <trkpt lat="47.504476038739085" lon="10.369692966341972">
        <ele>813.88999999999999</ele>
        <time>2018-09-17T06:52:52Z</time>
      </trkpt>
      <trkpt lat="47.504597995430231" lon="10.371472025290132">
        <ele>811.49000000000001</ele>
        <time>2018-09-17T06:53:02Z</time>
      </trkpt>
      <trkpt lat="47.505103005096316" lon="10.373471025377512">
        <ele>811.49000000000001</ele>
        <time>2018-09-17T06:53:14Z</time>
      </trkpt>
      <trkpt lat="47.505428977310658" lon="10.374622028321028">
        <ele>814.85000000000002</ele>
        <time>2018-09-17T06:53:21Z</time>
      </trkpt>
      <trkpt lat="47.505478011444211" lon="10.374786984175444">
        <ele>815.82000000000005</ele>
        <time>2018-09-17T06:53:22Z</time>
      </trkpt>
      <trkpt lat="47.506302036345005" lon="10.37757396697998">
        <ele>831.20000000000005</ele>
        <time>2018-09-17T06:53:39Z</time>
      </trkpt>
      <trkpt lat="47.506875023245811" lon="10.379557963460684">
        <ele>840.80999999999995</ele>
        <time>2018-09-17T06:53:51Z</time>
      </trkpt>
      <trkpt lat="47.507436024025083" lon="10.381788974627852">
        <ele>851.87</ele>
        <time>2018-09-17T06:54:04Z</time>
      </trkpt>
      <trkpt lat="47.507587987929583" lon="10.382276969030499">
        <ele>854.26999999999998</ele>
        <time>2018-09-17T06:54:07Z</time>
      </trkpt>
      <trkpt lat="47.507614977657795" lon="10.382428010925651">
        <ele>854.75</ele>
        <time>2018-09-17T06:54:08Z</time>
      </trkpt>
      <trkpt lat="47.507612966001034" lon="10.382570000365376">
        <ele>855.23000000000002</ele>
        <time>2018-09-17T06:54:09Z</time>
      </trkpt>
      <trkpt lat="47.507578013464808" lon="10.382692040875554">
        <ele>856.19000000000005</ele>
        <time>2018-09-17T06:54:10Z</time>
      </trkpt>
      <trkpt lat="47.507506012916565" lon="10.382821960374713">
        <ele>856.66999999999996</ele>
        <time>2018-09-17T06:54:11Z</time>
      </trkpt>
      <trkpt lat="47.507419008761644" lon="10.382850961759686">
        <ele>857.14999999999998</ele>
        <time>2018-09-17T06:54:12Z</time>
      </trkpt>
      <trkpt lat="47.507320018485188" lon="10.382870994508266">
        <ele>857.63</ele>
        <time>2018-09-17T06:54:13Z</time>
      </trkpt>
      <trkpt lat="47.507223039865494" lon="10.382860014215112">
        <ele>858.11000000000001</ele>
        <time>2018-09-17T06:54:14Z</time>
      </trkpt>
      <trkpt lat="47.507128994911909" lon="10.382849033921957">
        <ele>858.59000000000003</ele>
        <time>2018-09-17T06:54:15Z</time>
      </trkpt>
      <trkpt lat="47.507035033777356" lon="10.382838975638151">
        <ele>859.55999999999995</ele>
        <time>2018-09-17T06:54:16Z</time>
      </trkpt>
      <trkpt lat="47.506949035450816" lon="10.382845010608435">
        <ele>860.51999999999998</ele>
        <time>2018-09-17T06:54:17Z</time>
      </trkpt>
      <trkpt lat="47.506835963577032" lon="10.382938971742988">
        <ele>861</ele>
        <time>2018-09-17T06:54:18Z</time>
      </trkpt>
      <trkpt lat="47.506785001605749" lon="10.383040979504585">
        <ele>861.96000000000004</ele>
        <time>2018-09-17T06:54:19Z</time>
      </trkpt>
      <trkpt lat="47.506717024371028" lon="10.383196966722608">
        <ele>862.91999999999996</ele>
        <time>2018-09-17T06:54:20Z</time>
      </trkpt>
      <trkpt lat="47.506668996065855" lon="10.383377010002732">
        <ele>863.88</ele>
        <time>2018-09-17T06:54:21Z</time>
      </trkpt>
      <trkpt lat="47.506617028266191" lon="10.383568033576012">
        <ele>865.32000000000005</ele>
        <time>2018-09-17T06:54:22Z</time>
      </trkpt>
      <trkpt lat="47.506570005789399" lon="10.3837810177356">
        <ele>866.28999999999996</ele>
        <time>2018-09-17T06:54:23Z</time>
      </trkpt>
      <trkpt lat="47.506509991362691" lon="10.384244034066796">
        <ele>868.69000000000005</ele>
        <time>2018-09-17T06:54:25Z</time>
      </trkpt>
      <trkpt lat="47.506424998864532" lon="10.384695986285806">
        <ele>871.09000000000003</ele>
        <time>2018-09-17T06:54:27Z</time>
      </trkpt>
      <trkpt lat="47.50633598305285" lon="10.385076021775603">
        <ele>873.5</ele>
        <time>2018-09-17T06:54:29Z</time>
      </trkpt>
      <trkpt lat="47.506296001374722" lon="10.385441975668073">
        <ele>875.41999999999996</ele>
        <time>2018-09-17T06:54:31Z</time>
      </trkpt>
      <trkpt lat="47.506190976127982" lon="10.385770965367556">
        <ele>877.34000000000003</ele>
        <time>2018-09-17T06:54:33Z</time>
      </trkpt>
      <trkpt lat="47.506181001663208" lon="10.385948996990919">
        <ele>878.29999999999995</ele>
        <time>2018-09-17T06:54:34Z</time>
      </trkpt>
      <trkpt lat="47.506214026361704" lon="10.386306988075376">
        <ele>879.74000000000001</ele>
        <time>2018-09-17T06:54:36Z</time>
      </trkpt>
      <trkpt lat="47.506182007491589" lon="10.386435985565186">
        <ele>879.74000000000001</ele>
        <time>2018-09-17T06:54:37Z</time>
      </trkpt>
      <trkpt lat="47.506107995286584" lon="10.386558026075363">
        <ele>879.74000000000001</ele>
        <time>2018-09-17T06:54:38Z</time>
      </trkpt>
      <trkpt lat="47.506017973646522" lon="10.386627009138465">
        <ele>880.22000000000003</ele>
        <time>2018-09-17T06:54:39Z</time>
      </trkpt>
      <trkpt lat="47.505932981148362" lon="10.386679982766509">
        <ele>880.22000000000003</ele>
        <time>2018-09-17T06:54:40Z</time>
      </trkpt>
      <trkpt lat="47.505857041105628" lon="10.386727005243301">
        <ele>880.22000000000003</ele>
        <time>2018-09-17T06:54:41Z</time>
      </trkpt>
      <trkpt lat="47.505786968395114" lon="10.386822978034616">
        <ele>880.22000000000003</ele>
        <time>2018-09-17T06:54:42Z</time>
      </trkpt>
      <trkpt lat="47.505747992545366" lon="10.386952981352806">
        <ele>880.22000000000003</ele>
        <time>2018-09-17T06:54:43Z</time>
      </trkpt>
      <trkpt lat="47.505742041394114" lon="10.387121038511395">
        <ele>880.71000000000004</ele>
        <time>2018-09-17T06:54:44Z</time>
      </trkpt>
      <trkpt lat="47.50575402751565" lon="10.387305021286011">
        <ele>881.19000000000005</ele>
        <time>2018-09-17T06:54:45Z</time>
      </trkpt>
      <trkpt lat="47.505774982273579" lon="10.387503001838923">
        <ele>881.66999999999996</ele>
        <time>2018-09-17T06:54:46Z</time>
      </trkpt>
      <trkpt lat="47.505853017792106" lon="10.388095015659928">
        <ele>883.11000000000001</ele>
        <time>2018-09-17T06:54:49Z</time>
      </trkpt>
      <trkpt lat="47.50592996366322" lon="10.388240022584796">
        <ele>883.59000000000003</ele>
        <time>2018-09-17T06:54:50Z</time>
      </trkpt>
      <trkpt lat="47.506247973069549" lon="10.388876041397452">
        <ele>885.99000000000001</ele>
        <time>2018-09-17T06:54:54Z</time>
      </trkpt>
      <trkpt lat="47.506302036345005" lon="10.389039991423488">
        <ele>886.47000000000003</ele>
        <time>2018-09-17T06:54:55Z</time>
      </trkpt>
      <trkpt lat="47.50631301663816" lon="10.389207964763045">
        <ele>886.95000000000005</ele>
        <time>2018-09-17T06:54:56Z</time>
      </trkpt>
      <trkpt lat="47.506318967789412" lon="10.389382978901267">
        <ele>887.42999999999995</ele>
        <time>2018-09-17T06:54:57Z</time>
      </trkpt>
      <trkpt lat="47.50631301663816" lon="10.389566961675882">
        <ele>888.39999999999998</ele>
        <time>2018-09-17T06:54:58Z</time>
      </trkpt>
      <trkpt lat="47.506300024688244" lon="10.389934005215764">
        <ele>889.84000000000003</ele>
        <time>2018-09-17T06:55:00Z</time>
      </trkpt>
      <trkpt lat="47.506341012194753" lon="10.390128968283534">
        <ele>890.32000000000005</ele>
        <time>2018-09-17T06:55:01Z</time>
      </trkpt>
      <trkpt lat="47.506394991651177" lon="10.390297025442123">
        <ele>890.79999999999995</ele>
        <time>2018-09-17T06:55:02Z</time>
      </trkpt>
      <trkpt lat="47.506471015512943" lon="10.390448989346623">
        <ele>891.75999999999999</ele>
        <time>2018-09-17T06:55:03Z</time>
      </trkpt>
      <trkpt lat="47.506535975262523" lon="10.390576981008053">
        <ele>892.24000000000001</ele>
        <time>2018-09-17T06:55:04Z</time>
      </trkpt>
      <trkpt lat="47.506633037701249" lon="10.39065501652658">
        <ele>892.72000000000003</ele>
        <time>2018-09-17T06:55:05Z</time>
      </trkpt>
      <trkpt lat="47.506715012714267" lon="10.390662979334593">
        <ele>893.67999999999995</ele>
        <time>2018-09-17T06:55:06Z</time>
      </trkpt>
      <trkpt lat="47.506785001605749" lon="10.390642024576664">
        <ele>894.63999999999999</ele>
        <time>2018-09-17T06:55:07Z</time>
      </trkpt>
      <trkpt lat="47.506837975233793" lon="10.390557032078505">
        <ele>895.12</ele>
        <time>2018-09-17T06:55:08Z</time>
      </trkpt>
      <trkpt lat="47.506868988275528" lon="10.390448989346623">
        <ele>895.61000000000001</ele>
        <time>2018-09-17T06:55:09Z</time>
      </trkpt>
      <trkpt lat="47.506843004375696" lon="10.390328038483858">
        <ele>896.09000000000003</ele>
        <time>2018-09-17T06:55:10Z</time>
      </trkpt>
      <trkpt lat="47.506792964413762" lon="10.390266012400389">
        <ele>896.09000000000003</ele>
        <time>2018-09-17T06:55:11Z</time>
      </trkpt>
      <trkpt lat="47.506719036027789" lon="10.390211027115583">
        <ele>896.57000000000005</ele>
        <time>2018-09-17T06:55:12Z</time>
      </trkpt>
      <trkpt lat="47.506635971367359" lon="10.390149001032114">
        <ele>897.04999999999995</ele>
        <time>2018-09-17T06:55:13Z</time>
      </trkpt>
      <trkpt lat="47.506557013839483" lon="10.390084041282535">
        <ele>897.52999999999997</ele>
        <time>2018-09-17T06:55:14Z</time>
      </trkpt>
      <trkpt lat="47.506487024948001" lon="10.389986978843808">
        <ele>898.00999999999999</ele>
        <time>2018-09-17T06:55:15Z</time>
      </trkpt>
      <trkpt lat="47.506471015512943" lon="10.389891006052494">
        <ele>898.00999999999999</ele>
        <time>2018-09-17T06:55:16Z</time>
      </trkpt>
      <trkpt lat="47.506502028554678" lon="10.389736024662852">
        <ele>898.49000000000001</ele>
        <time>2018-09-17T06:55:17Z</time>
      </trkpt>
      <trkpt lat="47.506535975262523" lon="10.389566039666533">
        <ele>898.49000000000001</ele>
        <time>2018-09-17T06:55:18Z</time>
      </trkpt>
      <trkpt lat="47.506565982475877" lon="10.389346014708281">
        <ele>898.97000000000003</ele>
        <time>2018-09-17T06:55:19Z</time>
      </trkpt>
      <trkpt lat="47.506620967760682" lon="10.388654004782438">
        <ele>901.37</ele>
        <time>2018-09-17T06:55:22Z</time>
      </trkpt>
      <trkpt lat="47.506581991910934" lon="10.388470022007823">
        <ele>902.82000000000005</ele>
        <time>2018-09-17T06:55:23Z</time>
      </trkpt>
      <trkpt lat="47.506518037989736" lon="10.38831596262753">
        <ele>903.77999999999997</ele>
        <time>2018-09-17T06:55:24Z</time>
      </trkpt>
      <trkpt lat="47.506449976935983" lon="10.388160981237888">
        <ele>904.25999999999999</ele>
        <time>2018-09-17T06:55:25Z</time>
      </trkpt>
      <trkpt lat="47.506385017186403" lon="10.388013040646911">
        <ele>905.22000000000003</ele>
        <time>2018-09-17T06:55:26Z</time>
      </trkpt>
      <trkpt lat="47.506346963346004" lon="10.387857975438237">
        <ele>905.70000000000005</ele>
        <time>2018-09-17T06:55:27Z</time>
      </trkpt>
      <trkpt lat="47.506358027458191" lon="10.38773400709033">
        <ele>906.65999999999997</ele>
        <time>2018-09-17T06:55:28Z</time>
      </trkpt>
      <trkpt lat="47.50640002079308" lon="10.387634010985494">
        <ele>906.65999999999997</ele>
        <time>2018-09-17T06:55:29Z</time>
      </trkpt>
      <trkpt lat="47.50646498054266" lon="10.387586988508701">
        <ele>907.13999999999999</ele>
        <time>2018-09-17T06:55:30Z</time>
      </trkpt>
      <trkpt lat="47.506557013839483" lon="10.387564022094011">
        <ele>907.62</ele>
        <time>2018-09-17T06:55:31Z</time>
      </trkpt>
      <trkpt lat="47.506650974974036" lon="10.387591011822224">
        <ele>908.10000000000002</ele>
        <time>2018-09-17T06:55:32Z</time>
      </trkpt>
      <trkpt lat="47.506821965798736" lon="10.387649014592171">
        <ele>909.05999999999995</ele>
        <time>2018-09-17T06:55:34Z</time>
      </trkpt>
      <trkpt lat="47.506877034902573" lon="10.387738030403852">
        <ele>909.53999999999996</ele>
        <time>2018-09-17T06:55:35Z</time>
      </trkpt>
      <trkpt lat="47.506924979388714" lon="10.387838026508689">
        <ele>910.02999999999997</ele>
        <time>2018-09-17T06:55:36Z</time>
      </trkpt>
      <trkpt lat="47.506939982995391" lon="10.387960989028215">
        <ele>910.02999999999997</ele>
        <time>2018-09-17T06:55:37Z</time>
      </trkpt>
      <trkpt lat="47.506954986602068" lon="10.388089986518025">
        <ele>910.02999999999997</ele>
        <time>2018-09-17T06:55:38Z</time>
      </trkpt>
      <trkpt lat="47.506988011300564" lon="10.388209009543061">
        <ele>910.02999999999997</ele>
        <time>2018-09-17T06:55:39Z</time>
      </trkpt>
      <trkpt lat="47.507050959393382" lon="10.388302970677614">
        <ele>909.53999999999996</ele>
        <time>2018-09-17T06:55:40Z</time>
      </trkpt>
      <trkpt lat="47.507154978811741" lon="10.388368014246225">
        <ele>909.53999999999996</ele>
        <time>2018-09-17T06:55:41Z</time>
      </trkpt>
      <trkpt lat="47.5072589982301" lon="10.388410007581115">
        <ele>909.53999999999996</ele>
        <time>2018-09-17T06:55:42Z</time>
      </trkpt>
      <trkpt lat="47.5073660351336" lon="10.388410007581115">
        <ele>910.02999999999997</ele>
        <time>2018-09-17T06:55:43Z</time>
      </trkpt>
      <trkpt lat="47.507466031238437" lon="10.388376982882619">
        <ele>910.02999999999997</ele>
        <time>2018-09-17T06:55:44Z</time>
      </trkpt>
      <trkpt lat="47.507553035393357" lon="10.388278998434544">
        <ele>910.50999999999999</ele>
        <time>2018-09-17T06:55:45Z</time>
      </trkpt>
      <trkpt lat="47.507638027891517" lon="10.38814296014607">
        <ele>910.99000000000001</ele>
        <time>2018-09-17T06:55:46Z</time>
      </trkpt>
      <trkpt lat="47.507702987641096" lon="10.387981021776795">
        <ele>911.47000000000003</ele>
        <time>2018-09-17T06:55:47Z</time>
      </trkpt>
      <trkpt lat="47.507958970963955" lon="10.387340979650617">
        <ele>913.87</ele>
        <time>2018-09-17T06:55:51Z</time>
      </trkpt>
      <trkpt lat="47.508023008704185" lon="10.387222962453961">
        <ele>913.87</ele>
        <time>2018-09-17T06:55:52Z</time>
      </trkpt>
      <trkpt lat="47.508113030344248" lon="10.387134030461311">
        <ele>914.35000000000002</ele>
        <time>2018-09-17T06:55:53Z</time>
      </trkpt>
      <trkpt lat="47.508199028670788" lon="10.387047026306391">
        <ele>914.35000000000002</ele>
        <time>2018-09-17T06:55:54Z</time>
      </trkpt>
      <trkpt lat="47.508278992027044" lon="10.386967984959483">
        <ele>914.35000000000002</ele>
        <time>2018-09-17T06:55:55Z</time>
      </trkpt>
      <trkpt lat="47.508295001462102" lon="10.386807974427938">
        <ele>914.35000000000002</ele>
        <time>2018-09-17T06:55:56Z</time>
      </trkpt>
      <trkpt lat="47.508295001462102" lon="10.386649975553155">
        <ele>914.83000000000004</ele>
        <time>2018-09-17T06:55:57Z</time>
      </trkpt>
      <trkpt lat="47.508295001462102" lon="10.386502034962177">
        <ele>914.83000000000004</ele>
        <time>2018-09-17T06:55:58Z</time>
      </trkpt>
      <trkpt lat="47.508325008675456" lon="10.38638100028038">
        <ele>914.35000000000002</ele>
        <time>2018-09-17T06:55:59Z</time>
      </trkpt>
      <trkpt lat="47.508359039202332" lon="10.386245967820287">
        <ele>914.35000000000002</ele>
        <time>2018-09-17T06:56:00Z</time>
      </trkpt>
      <trkpt lat="47.508425004780293" lon="10.386176984757185">
        <ele>913.87</ele>
        <time>2018-09-17T06:56:01Z</time>
      </trkpt>
      <trkpt lat="47.508495999500155" lon="10.386130968108773">
        <ele>913.87</ele>
        <time>2018-09-17T06:56:02Z</time>
      </trkpt>
      <trkpt lat="47.508584009483457" lon="10.386115964502096">
        <ele>913.38999999999999</ele>
        <time>2018-09-17T06:56:03Z</time>
      </trkpt>
      <trkpt lat="47.508684005588293" lon="10.38610003888607">
        <ele>912.90999999999997</ele>
        <time>2018-09-17T06:56:04Z</time>
      </trkpt>
      <trkpt lat="47.508790036663413" lon="10.386082017794251">
        <ele>912.42999999999995</ele>
        <time>2018-09-17T06:56:05Z</time>
      </trkpt>
      <trkpt lat="47.50889103859663" lon="10.386032983660698">
        <ele>911.95000000000005</ele>
        <time>2018-09-17T06:56:06Z</time>
      </trkpt>
      <trkpt lat="47.508982988074422" lon="10.385941034182906">
        <ele>911.95000000000005</ele>
        <time>2018-09-17T06:56:07Z</time>
      </trkpt>
      <trkpt lat="47.509046019986272" lon="10.385809019207954">
        <ele>911.47000000000003</ele>
        <time>2018-09-17T06:56:08Z</time>
      </trkpt>
      <trkpt lat="47.509098993614316" lon="10.385670969262719">
        <ele>911.47000000000003</ele>
        <time>2018-09-17T06:56:09Z</time>
      </trkpt>
      <trkpt lat="47.50915196724236" lon="10.385517999529839">
        <ele>911.47000000000003</ele>
        <time>2018-09-17T06:56:10Z</time>
      </trkpt>
      <trkpt lat="47.509259004145861" lon="10.385195966809988">
        <ele>910.99000000000001</ele>
        <time>2018-09-17T06:56:12Z</time>
      </trkpt>
      <trkpt lat="47.50932103022933" lon="10.385037967935205">
        <ele>910.99000000000001</ele>
        <time>2018-09-17T06:56:13Z</time>
      </trkpt>
      <trkpt lat="47.509806007146835" lon="10.384327014908195">
        <ele>912.90999999999997</ele>
        <time>2018-09-17T06:56:18Z</time>
      </trkpt>
      <trkpt lat="47.509883036836982" lon="10.384214026853442">
        <ele>912.90999999999997</ele>
        <time>2018-09-17T06:56:19Z</time>
      </trkpt>
      <trkpt lat="47.509926036000252" lon="10.384087963029742">
        <ele>913.38999999999999</ele>
        <time>2018-09-17T06:56:20Z</time>
      </trkpt>
      <trkpt lat="47.509942967444658" lon="10.38395301438868">
        <ele>913.87</ele>
        <time>2018-09-17T06:56:21Z</time>
      </trkpt>
      <trkpt lat="47.509927041828632" lon="10.38382401689887">
        <ele>914.83000000000004</ele>
        <time>2018-09-17T06:56:22Z</time>
      </trkpt>
      <trkpt lat="47.509910026565194" lon="10.383688984438777">
        <ele>915.30999999999995</ele>
        <time>2018-09-17T06:56:23Z</time>
      </trkpt>
      <trkpt lat="47.509893011301756" lon="10.383552024140954">
        <ele>915.78999999999996</ele>
        <time>2018-09-17T06:56:24Z</time>
      </trkpt>
      <trkpt lat="47.509900974109769" lon="10.383416991680861">
        <ele>916.26999999999998</ele>
        <time>2018-09-17T06:56:25Z</time>
      </trkpt>
      <trkpt lat="47.509941039606929" lon="10.383285982534289">
        <ele>916.75</ele>
        <time>2018-09-17T06:56:26Z</time>
      </trkpt>
      <trkpt lat="47.509995019063354" lon="10.383156985044479">
        <ele>917.72000000000003</ele>
        <time>2018-09-17T06:56:27Z</time>
      </trkpt>
      <trkpt lat="47.510087974369526" lon="10.383055983111262">
        <ele>918.20000000000005</ele>
        <time>2018-09-17T06:56:28Z</time>
      </trkpt>
      <trkpt lat="47.510187970474362" lon="10.383022958412766">
        <ele>919.15999999999997</ele>
        <time>2018-09-17T06:56:29Z</time>
      </trkpt>
      <trkpt lat="47.510299030691385" lon="10.383024970069528">
        <ele>919.63999999999999</ele>
        <time>2018-09-17T06:56:30Z</time>
      </trkpt>
      <trkpt lat="47.510398020967841" lon="10.383069980889559">
        <ele>920.60000000000002</ele>
        <time>2018-09-17T06:56:31Z</time>
      </trkpt>
      <trkpt lat="47.510485025122762" lon="10.383155979216099">
        <ele>921.55999999999995</ele>
        <time>2018-09-17T06:56:32Z</time>
      </trkpt>
      <trkpt lat="47.510530035942793" lon="10.383267961442471">
        <ele>922.51999999999998</ele>
        <time>2018-09-17T06:56:33Z</time>
      </trkpt>
      <trkpt lat="47.510537998750806" lon="10.383394025266171">
        <ele>923.48000000000002</ele>
        <time>2018-09-17T06:56:34Z</time>
      </trkpt>
      <trkpt lat="47.51054503954947" lon="10.383511958643794">
        <ele>924.45000000000005</ele>
        <time>2018-09-17T06:56:35Z</time>
      </trkpt>
      <trkpt lat="47.510506985709071" lon="10.383629975840449">
        <ele>925.40999999999997</ele>
        <time>2018-09-17T06:56:36Z</time>
      </trkpt>
      <trkpt lat="47.510440014302731" lon="10.383742041885853">
        <ele>926.37</ele>
        <time>2018-09-17T06:56:37Z</time>
      </trkpt>
      <trkpt lat="47.510367007926106" lon="10.383862992748618">
        <ele>927.80999999999995</ele>
        <time>2018-09-17T06:56:38Z</time>
      </trkpt>
      <trkpt lat="47.510288972407579" lon="10.383998025208712">
        <ele>928.76999999999998</ele>
        <time>2018-09-17T06:56:39Z</time>
      </trkpt>
      <trkpt lat="47.510254019871354" lon="10.384170021861792">
        <ele>929.73000000000002</ele>
        <time>2018-09-17T06:56:40Z</time>
      </trkpt>
      <trkpt lat="47.510177996009588" lon="10.384539999067783">
        <ele>932.13999999999999</ele>
        <time>2018-09-17T06:56:42Z</time>
      </trkpt>
      <trkpt lat="47.51013801433146" lon="10.384738985449076">
        <ele>933.10000000000002</ele>
        <time>2018-09-17T06:56:43Z</time>
      </trkpt>
      <trkpt lat="47.510039024055004" lon="10.385157996788621">
        <ele>935.5</ele>
        <time>2018-09-17T06:56:45Z</time>
      </trkpt>
      <trkpt lat="47.509796032682061" lon="10.3859309758991">
        <ele>940.30999999999995</ele>
        <time>2018-09-17T06:56:49Z</time>
      </trkpt>
      <trkpt lat="47.509746998548508" lon="10.386085035279393">
        <ele>941.26999999999998</ele>
        <time>2018-09-17T06:56:50Z</time>
      </trkpt>
      <trkpt lat="47.509719002991915" lon="10.386253008618951">
        <ele>941.75</ele>
        <time>2018-09-17T06:56:51Z</time>
      </trkpt>
      <trkpt lat="47.509742975234985" lon="10.386404972523451">
        <ele>942.71000000000004</ele>
        <time>2018-09-17T06:56:52Z</time>
      </trkpt>
      <trkpt lat="47.509798966348171" lon="10.386559031903744">
        <ele>943.66999999999996</ele>
        <time>2018-09-17T06:56:53Z</time>
      </trkpt>
      <trkpt lat="47.509871972724795" lon="10.386690041050315">
        <ele>944.63</ele>
        <time>2018-09-17T06:56:54Z</time>
      </trkpt>
      <trkpt lat="47.509942967444658" lon="10.386818032711744">
        <ele>945.59000000000003</ele>
        <time>2018-09-17T06:56:55Z</time>
      </trkpt>
      <trkpt lat="47.509990995749831" lon="10.386944012716413">
        <ele>946.55999999999995</ele>
        <time>2018-09-17T06:56:56Z</time>
      </trkpt>
      <trkpt lat="47.510029971599579" lon="10.387079967185855">
        <ele>947.03999999999996</ele>
        <time>2018-09-17T06:56:57Z</time>
      </trkpt>
      <trkpt lat="47.510042041540146" lon="10.387222962453961">
        <ele>948</ele>
        <time>2018-09-17T06:56:58Z</time>
      </trkpt>
      <trkpt lat="47.510013040155172" lon="10.387353971600533">
        <ele>948.48000000000002</ele>
        <time>2018-09-17T06:56:59Z</time>
      </trkpt>
      <trkpt lat="47.509985966607928" lon="10.387474000453949">
        <ele>948.96000000000004</ele>
        <time>2018-09-17T06:57:00Z</time>
      </trkpt>
      <trkpt lat="47.509929975494742" lon="10.387590005993843">
        <ele>949.44000000000005</ele>
        <time>2018-09-17T06:57:01Z</time>
      </trkpt>
      <trkpt lat="47.509855963289738" lon="10.387665024027228">
        <ele>949.91999999999996</ele>
        <time>2018-09-17T06:57:02Z</time>
      </trkpt>
      <trkpt lat="47.509781029075384" lon="10.387739036232233">
        <ele>950.88</ele>
        <time>2018-09-17T06:57:03Z</time>
      </trkpt>
      <trkpt lat="47.509701987728477" lon="10.387817993760109">
        <ele>951.84000000000003</ele>
        <time>2018-09-17T06:57:04Z</time>
      </trkpt>
      <trkpt lat="47.509645996615291" lon="10.387918995693326">
        <ele>952.79999999999995</ele>
        <time>2018-09-17T06:57:05Z</time>
      </trkpt>
      <trkpt lat="47.509582964703441" lon="10.388044975697994">
        <ele>953.27999999999997</ele>
        <time>2018-09-17T06:57:06Z</time>
      </trkpt>
      <trkpt lat="47.509600985795259" lon="10.388154024258256">
        <ele>953.76999999999998</ele>
        <time>2018-09-17T06:57:07Z</time>
      </trkpt>
      <trkpt lat="47.509627975523472" lon="10.388305988162756">
        <ele>954.25</ele>
        <time>2018-09-17T06:57:08Z</time>
      </trkpt>
      <trkpt lat="47.509701987728477" lon="10.38837899453938">
        <ele>955.21000000000004</ele>
        <time>2018-09-17T06:57:09Z</time>
      </trkpt>
      <trkpt lat="47.509793015196919" lon="10.38840196095407">
        <ele>955.69000000000005</ele>
        <time>2018-09-17T06:57:10Z</time>
      </trkpt>
      <trkpt lat="47.509881025180221" lon="10.388376982882619">
        <ele>955.69000000000005</ele>
        <time>2018-09-17T06:57:11Z</time>
      </trkpt>
      <trkpt lat="47.509946990758181" lon="10.388324009254575">
        <ele>956.16999999999996</ele>
        <time>2018-09-17T06:57:12Z</time>
      </trkpt>
      <trkpt lat="47.510001976042986" lon="10.388181013986468">
        <ele>956.64999999999998</ele>
        <time>2018-09-17T06:57:13Z</time>
      </trkpt>
      <trkpt lat="47.510053021833301" lon="10.388047993183136">
        <ele>957.13</ele>
        <time>2018-09-17T06:57:14Z</time>
      </trkpt>
      <trkpt lat="47.510104989632964" lon="10.387910027056932">
        <ele>957.61000000000001</ele>
        <time>2018-09-17T06:57:15Z</time>
      </trkpt>
      <trkpt lat="47.510189982131124" lon="10.387784969061613">
        <ele>958.09000000000003</ele>
        <time>2018-09-17T06:57:16Z</time>
      </trkpt>
      <trkpt lat="47.510358039289713" lon="10.387575002387166">
        <ele>958.57000000000005</ele>
        <time>2018-09-17T06:57:18Z</time>
      </trkpt>
      <trkpt lat="47.510390980169177" lon="10.387449022382498">
        <ele>959.04999999999995</ele>
        <time>2018-09-17T06:57:19Z</time>
      </trkpt>
      <trkpt lat="47.510411012917757" lon="10.387295968830585">
        <ele>959.52999999999997</ele>
        <time>2018-09-17T06:57:20Z</time>
      </trkpt>
      <trkpt lat="47.510539004579186" lon="10.386535981670022">
        <ele>961.94000000000005</ele>
        <time>2018-09-17T06:57:25Z</time>
      </trkpt>
      <trkpt lat="47.510583009570837" lon="10.38644403219223">
        <ele>962.41999999999996</ele>
        <time>2018-09-17T06:57:26Z</time>
      </trkpt>
      <trkpt lat="47.510693985968828" lon="10.3862090036273">
        <ele>963.38</ele>
        <time>2018-09-17T06:57:29Z</time>
      </trkpt>
      <trkpt lat="47.510749977082014" lon="10.386091992259026">
        <ele>964.34000000000003</ele>
        <time>2018-09-17T06:57:31Z</time>
      </trkpt>
      <trkpt lat="47.510770009830594" lon="10.386049998924136">
        <ele>964.82000000000005</ele>
        <time>2018-09-17T06:57:32Z</time>
      </trkpt>
      <trkpt lat="47.510788030922413" lon="10.386011023074389">
        <ele>964.82000000000005</ele>
        <time>2018-09-17T06:57:33Z</time>
      </trkpt>
      <trkpt lat="47.510802028700709" lon="10.385982021689415">
        <ele>965.29999999999995</ele>
        <time>2018-09-17T06:57:34Z</time>
      </trkpt>
      <trkpt lat="47.510802028700709" lon="10.385982021689415">
        <ele>966.25999999999999</ele>
        <time>2018-09-17T06:57:46Z</time>
      </trkpt>
      <trkpt lat="47.510829018428922" lon="10.385925024747849">
        <ele>969.14999999999998</ele>
        <time>2018-09-17T06:58:31Z</time>
      </trkpt>
      <trkpt lat="47.510860031470656" lon="10.385859981179237">
        <ele>969.63</ele>
        <time>2018-09-17T06:58:32Z</time>
      </trkpt>
      <trkpt lat="47.510906970128417" lon="10.385777000337839">
        <ele>970.11000000000001</ele>
        <time>2018-09-17T06:58:33Z</time>
      </trkpt>
      <trkpt lat="47.510979976505041" lon="10.385702988132834">
        <ele>970.11000000000001</ele>
        <time>2018-09-17T06:58:34Z</time>
      </trkpt>
      <trkpt lat="47.511069998145103" lon="10.385626964271069">
        <ele>970.11000000000001</ele>
        <time>2018-09-17T06:58:35Z</time>
      </trkpt>
      <trkpt lat="47.511173011735082" lon="10.385570973157883">
        <ele>970.11000000000001</ele>
        <time>2018-09-17T06:58:36Z</time>
      </trkpt>
      <trkpt lat="47.511279964819551" lon="10.385511964559555">
        <ele>970.59000000000003</ele>
        <time>2018-09-17T06:58:37Z</time>
      </trkpt>
      <trkpt lat="47.511381972581148" lon="10.38545697927475">
        <ele>971.07000000000005</ele>
        <time>2018-09-17T06:58:38Z</time>
      </trkpt>
      <trkpt lat="47.511479035019875" lon="10.385404005646706">
        <ele>971.54999999999995</ele>
        <time>2018-09-17T06:58:39Z</time>
      </trkpt>
      <trkpt lat="47.511547012254596" lon="10.385304009541869">
        <ele>972.02999999999997</ele>
        <time>2018-09-17T06:58:40Z</time>
      </trkpt>
      <trkpt lat="47.5116210244596" lon="10.385126983746886">
        <ele>972.99000000000001</ele>
        <time>2018-09-17T06:58:41Z</time>
      </trkpt>
      <trkpt lat="47.51164399087429" lon="10.385013995692134">
        <ele>973.95000000000005</ele>
        <time>2018-09-17T06:58:42Z</time>
      </trkpt>
      <trkpt lat="47.511678021401167" lon="10.384844010695815">
        <ele>975.38999999999999</ele>
        <time>2018-09-17T06:58:43Z</time>
      </trkpt>
      <trkpt lat="47.511711968109012" lon="10.384671008214355">
        <ele>976.36000000000001</ele>
        <time>2018-09-17T06:58:44Z</time>
      </trkpt>
      <trkpt lat="47.511758990585804" lon="10.384524995461106">
        <ele>976.84000000000003</ele>
        <time>2018-09-17T06:58:45Z</time>
      </trkpt>
      <trkpt lat="47.511825961992145" lon="10.384384011849761">
        <ele>977.32000000000005</ele>
        <time>2018-09-17T06:58:46Z</time>
      </trkpt>
      <trkpt lat="47.511892011389136" lon="10.384242022410035">
        <ele>978.27999999999997</ele>
        <time>2018-09-17T06:58:47Z</time>
      </trkpt>
      <trkpt lat="47.511960994452238" lon="10.384097015485168">
        <ele>978.75999999999999</ele>
        <time>2018-09-17T06:58:48Z</time>
      </trkpt>
      <trkpt lat="47.512023020535707" lon="10.383965000510216">
        <ele>979.72000000000003</ele>
        <time>2018-09-17T06:58:49Z</time>
      </trkpt>
      <trkpt lat="47.512088986113667" lon="10.383843965828419">
        <ele>980.20000000000005</ele>
        <time>2018-09-17T06:58:50Z</time>
      </trkpt>
      <trkpt lat="47.51215897500515" lon="10.383773976936936">
        <ele>981.15999999999997</ele>
        <time>2018-09-17T06:58:51Z</time>
      </trkpt>
      <trkpt lat="47.512262994423509" lon="10.383728966116905">
        <ele>981.63999999999999</ele>
        <time>2018-09-17T06:58:52Z</time>
      </trkpt>
      <trkpt lat="47.512341029942036" lon="10.383764002472162">
        <ele>981.63999999999999</ele>
        <time>2018-09-17T06:58:53Z</time>
      </trkpt>
      <trkpt lat="47.512433985248208" lon="10.383860981091857">
        <ele>982.60000000000002</ele>
        <time>2018-09-17T06:58:54Z</time>
      </trkpt>
      <trkpt lat="47.512467009946704" lon="10.383969023823738">
        <ele>983.09000000000003</ele>
        <time>2018-09-17T06:58:55Z</time>
      </trkpt>
      <trkpt lat="47.512466004118323" lon="10.384120987728238">
        <ele>984.04999999999995</ele>
        <time>2018-09-17T06:58:56Z</time>
      </trkpt>
      <trkpt lat="47.51245804131031" lon="10.384183013811707">
        <ele>984.52999999999997</ele>
        <time>2018-09-17T06:58:57Z</time>
      </trkpt>
      <trkpt lat="47.512346981093287" lon="10.384288039058447">
        <ele>985.49000000000001</ele>
        <time>2018-09-17T06:58:58Z</time>
      </trkpt>
      <trkpt lat="47.512273974716663" lon="10.384357022121549">
        <ele>986.45000000000005</ele>
        <time>2018-09-17T06:58:59Z</time>
      </trkpt>
      <trkpt lat="47.51219904050231" lon="10.384428016841412">
        <ele>987.40999999999997</ele>
        <time>2018-09-17T06:59:00Z</time>
      </trkpt>
      <trkpt lat="47.512117987498641" lon="10.384504962712526">
        <ele>988.37</ele>
        <time>2018-09-17T06:59:01Z</time>
      </trkpt>
      <trkpt lat="47.512037018314004" lon="10.384607976302505">
        <ele>989.33000000000004</ele>
        <time>2018-09-17T06:59:02Z</time>
      </trkpt>
      <trkpt lat="47.511985972523689" lon="10.384762035682797">
        <ele>990.29999999999995</ele>
        <time>2018-09-17T06:59:03Z</time>
      </trkpt>
      <trkpt lat="47.511960994452238" lon="10.384936966001987">
        <ele>990.77999999999997</ele>
        <time>2018-09-17T06:59:04Z</time>
      </trkpt>
      <trkpt lat="47.511940961703658" lon="10.385119020938873">
        <ele>991.74000000000001</ele>
        <time>2018-09-17T06:59:05Z</time>
      </trkpt>
      <trkpt lat="47.511932998895645" lon="10.385301997885108">
        <ele>992.22000000000003</ele>
        <time>2018-09-17T06:59:06Z</time>
      </trkpt>
      <trkpt lat="47.511925036087632" lon="10.385467959567904">
        <ele>992.22000000000003</ele>
        <time>2018-09-17T06:59:07Z</time>
      </trkpt>
      <trkpt lat="47.511908020824194" lon="10.385617995634675">
        <ele>992.70000000000005</ele>
        <time>2018-09-17T06:59:08Z</time>
      </trkpt>
      <trkpt lat="47.511869966983795" lon="10.38575897924602">
        <ele>993.17999999999995</ele>
        <time>2018-09-17T06:59:09Z</time>
      </trkpt>
      <trkpt lat="47.511788997799158" lon="10.385847995057702">
        <ele>993.65999999999997</ele>
        <time>2018-09-17T06:59:10Z</time>
      </trkpt>
      <trkpt lat="47.511700987815857" lon="10.385944973677397">
        <ele>994.13999999999999</ele>
        <time>2018-09-17T06:59:11Z</time>
      </trkpt>
      <trkpt lat="47.511608032509685" lon="10.386046981438994">
        <ele>994.13999999999999</ele>
        <time>2018-09-17T06:59:12Z</time>
      </trkpt>
      <trkpt lat="47.511511975899339" lon="10.386153012514114">
        <ele>994.62</ele>
        <time>2018-09-17T06:59:13Z</time>
      </trkpt>
      <trkpt lat="47.511433018371463" lon="10.38627102971077">
        <ele>995.10000000000002</ele>
        <time>2018-09-17T06:59:14Z</time>
      </trkpt>
      <trkpt lat="47.511379038915038" lon="10.386431962251663">
        <ele>995.58000000000004</ele>
        <time>2018-09-17T06:59:15Z</time>
      </trkpt>
      <trkpt lat="47.511358000338078" lon="10.386613011360168">
        <ele>996.05999999999995</ele>
        <time>2018-09-17T06:59:16Z</time>
      </trkpt>
      <trkpt lat="47.511350037530065" lon="10.386782996356487">
        <ele>996.05999999999995</ele>
        <time>2018-09-17T06:59:17Z</time>
      </trkpt>
      <trkpt lat="47.5113429967314" lon="10.386929009109735">
        <ele>997.01999999999998</ele>
        <time>2018-09-17T06:59:18Z</time>
      </trkpt>
      <trkpt lat="47.511307960376143" lon="10.38704501464963">
        <ele>997.50999999999999</ele>
        <time>2018-09-17T06:59:19Z</time>
      </trkpt>
      <trkpt lat="47.511272002011538" lon="10.387145010754466">
        <ele>997.99000000000001</ele>
        <time>2018-09-17T06:59:20Z</time>
      </trkpt>
      <trkpt lat="47.511239983141422" lon="10.387235032394528">
        <ele>998.95000000000005</ele>
        <time>2018-09-17T06:59:21Z</time>
      </trkpt>
      <trkpt lat="47.511209975928068" lon="10.387319019064307">
        <ele>999.42999999999995</ele>
        <time>2018-09-17T06:59:22Z</time>
      </trkpt>
      <trkpt lat="47.511180974543095" lon="10.387398982420564">
        <ele>1000.39</ele>
        <time>2018-09-17T06:59:23Z</time>
      </trkpt>
      <trkpt lat="47.51114996150136" lon="10.387494033202529">
        <ele>1000.87</ele>
        <time>2018-09-17T06:59:24Z</time>
      </trkpt>
      <trkpt lat="47.511161025613546" lon="10.387593023478985">
        <ele>1001.35</ele>
        <time>2018-09-17T06:59:25Z</time>
      </trkpt>
      <trkpt lat="47.511188015341759" lon="10.387706011533737">
        <ele>1001.83</ele>
        <time>2018-09-17T06:59:26Z</time>
      </trkpt>
      <trkpt lat="47.511232020333409" lon="10.387767031788826">
        <ele>1002.3099999999999</ele>
        <time>2018-09-17T06:59:27Z</time>
      </trkpt>
      <trkpt lat="47.511273007839918" lon="10.387824028730392">
        <ele>1002.79</ele>
        <time>2018-09-17T06:59:28Z</time>
      </trkpt>
      <trkpt lat="47.5113429967314" lon="10.387830985710025">
        <ele>1003.27</ele>
        <time>2018-09-17T06:59:29Z</time>
      </trkpt>
      <trkpt lat="47.511408962309361" lon="10.387830985710025">
        <ele>1003.75</ele>
        <time>2018-09-17T06:59:30Z</time>
      </trkpt>
      <trkpt lat="47.511476017534733" lon="10.387797961011529">
        <ele>1004.23</ele>
        <time>2018-09-17T06:59:31Z</time>
      </trkpt>
      <trkpt lat="47.511527985334396" lon="10.38773300126195">
        <ele>1005.2</ele>
        <time>2018-09-17T06:59:32Z</time>
      </trkpt>
      <trkpt lat="47.511546006426215" lon="10.38764800876379">
        <ele>1006.16</ele>
        <time>2018-09-17T06:59:33Z</time>
      </trkpt>
      <trkpt lat="47.511564027518034" lon="10.387524040415883">
        <ele>1007.12</ele>
        <time>2018-09-17T06:59:34Z</time>
      </trkpt>
      <trkpt lat="47.511590011417866" lon="10.387349026277661">
        <ele>1008.08</ele>
        <time>2018-09-17T06:59:35Z</time>
      </trkpt>
      <trkpt lat="47.511619012802839" lon="10.387149034067988">
        <ele>1009.52</ele>
        <time>2018-09-17T06:59:36Z</time>
      </trkpt>
      <trkpt lat="47.511646002531052" lon="10.386963039636612">
        <ele>1010.48</ele>
        <time>2018-09-17T06:59:37Z</time>
      </trkpt>
      <trkpt lat="47.511669974774122" lon="10.386799005791545">
        <ele>1011.4400000000001</ele>
        <time>2018-09-17T06:59:38Z</time>
      </trkpt>
      <trkpt lat="47.511712973937392" lon="10.386653998866677">
        <ele>1012.41</ele>
        <time>2018-09-17T06:59:39Z</time>
      </trkpt>
      <trkpt lat="47.511787991970778" lon="10.386544028297067">
        <ele>1013.37</ele>
        <time>2018-09-17T06:59:40Z</time>
      </trkpt>
      <trkpt lat="47.511867033317685" lon="10.386430034413934">
        <ele>1014.8099999999999</ele>
        <time>2018-09-17T06:59:41Z</time>
      </trkpt>
      <trkpt lat="47.511952025815845" lon="10.386325009167194">
        <ele>1016.25</ele>
        <time>2018-09-17T06:59:42Z</time>
      </trkpt>
      <trkpt lat="47.512039029970765" lon="10.38625200279057">
        <ele>1017.21</ele>
        <time>2018-09-17T06:59:43Z</time>
      </trkpt>
      <trkpt lat="47.512127039954066" lon="10.386243034154177">
        <ele>1018.17</ele>
        <time>2018-09-17T06:59:44Z</time>
      </trkpt>
      <trkpt lat="47.51219904050231" lon="10.386292990297079">
        <ele>1018.65</ele>
        <time>2018-09-17T06:59:45Z</time>
      </trkpt>
      <trkpt lat="47.512261988595128" lon="10.386368008330464">
        <ele>1019.62</ele>
        <time>2018-09-17T06:59:46Z</time>
      </trkpt>
      <trkpt lat="47.51228797249496" lon="10.3864870313555">
        <ele>1020.58</ele>
        <time>2018-09-17T06:59:47Z</time>
      </trkpt>
      <trkpt lat="47.512302976101637" lon="10.386606976389885">
        <ele>1021.0599999999999</ele>
        <time>2018-09-17T06:59:48Z</time>
      </trkpt>
      <trkpt lat="47.512272968888283" lon="10.386727005243301">
        <ele>1022.02</ele>
        <time>2018-09-17T06:59:49Z</time>
      </trkpt>
      <trkpt lat="47.512204991653562" lon="10.386814009398222">
        <ele>1022.98</ele>
        <time>2018-09-17T06:59:50Z</time>
      </trkpt>
      <trkpt lat="47.512127039954066" lon="10.386886009946465">
        <ele>1023.9400000000001</ele>
        <time>2018-09-17T06:59:51Z</time>
      </trkpt>
      <trkpt lat="47.512043975293636" lon="10.386963039636612">
        <ele>1024.4200000000001</ele>
        <time>2018-09-17T06:59:52Z</time>
      </trkpt>
      <trkpt lat="47.51196401193738" lon="10.387036968022585">
        <ele>1024.9000000000001</ele>
        <time>2018-09-17T06:59:53Z</time>
      </trkpt>
      <trkpt lat="47.51190198585391" lon="10.387163031846285">
        <ele>1025.8599999999999</ele>
        <time>2018-09-17T06:59:54Z</time>
      </trkpt>
      <trkpt lat="47.511895028874278" lon="10.387322036549449">
        <ele>1026.3399999999999</ele>
        <time>2018-09-17T06:59:55Z</time>
      </trkpt>
      <trkpt lat="47.511888993903995" lon="10.387495961040258">
        <ele>1026.8299999999999</ele>
        <time>2018-09-17T06:59:56Z</time>
      </trkpt>
      <trkpt lat="47.511882036924362" lon="10.387676004320383">
        <ele>1027.3099999999999</ele>
        <time>2018-09-17T06:59:57Z</time>
      </trkpt>
      <trkpt lat="47.511876001954079" lon="10.387866022065282">
        <ele>1028.27</ele>
        <time>2018-09-17T06:59:58Z</time>
      </trkpt>
      <trkpt lat="47.511868961155415" lon="10.388060985133052">
        <ele>1028.75</ele>
        <time>2018-09-17T06:59:59Z</time>
      </trkpt>
      <trkpt lat="47.511863010004163" lon="10.388252008706331">
        <ele>1029.23</ele>
        <time>2018-09-17T07:00:00Z</time>
      </trkpt>
      <trkpt lat="47.511851023882627" lon="10.388432973995805">
        <ele>1029.71</ele>
        <time>2018-09-17T07:00:01Z</time>
      </trkpt>
      <trkpt lat="47.511802995577455" lon="10.388602036982775">
        <ele>1030.1900000000001</ele>
        <time>2018-09-17T07:00:02Z</time>
      </trkpt>
      <trkpt lat="47.511754967272282" lon="10.388775039464235">
        <ele>1031.1500000000001</ele>
        <time>2018-09-17T07:00:03Z</time>
      </trkpt>
      <trkpt lat="47.511708028614521" lon="10.388944018632174">
        <ele>1031.6300000000001</ele>
        <time>2018-09-17T07:00:04Z</time>
      </trkpt>
      <trkpt lat="47.511630998924375" lon="10.389091037213802">
        <ele>1032.5899999999999</ele>
        <time>2018-09-17T07:00:05Z</time>
      </trkpt>
      <trkpt lat="47.511551035568118" lon="10.389241995289922">
        <ele>1033.0699999999999</ele>
        <time>2018-09-17T07:00:06Z</time>
      </trkpt>
      <trkpt lat="47.511460008099675" lon="10.389389013871551">
        <ele>1034.04</ele>
        <time>2018-09-17T07:00:07Z</time>
      </trkpt>
      <trkpt lat="47.511347020044923" lon="10.389508958905935">
        <ele>1034.52</ele>
        <time>2018-09-17T07:00:08Z</time>
      </trkpt>
      <trkpt lat="47.511235037818551" lon="10.389626976102591">
        <ele>1035.48</ele>
        <time>2018-09-17T07:00:09Z</time>
      </trkpt>
      <trkpt lat="47.511111991479993" lon="10.389729989692569">
        <ele>1035.96</ele>
        <time>2018-09-17T07:00:10Z</time>
      </trkpt>
      <trkpt lat="47.51097603701055" lon="10.389769971370697">
        <ele>1036.9200000000001</ele>
        <time>2018-09-17T07:00:11Z</time>
      </trkpt>
      <trkpt lat="47.510843016207218" lon="10.389808025211096">
        <ele>1037.4000000000001</ele>
        <time>2018-09-17T07:00:12Z</time>
      </trkpt>
      <trkpt lat="47.510711001232266" lon="10.389847001060843">
        <ele>1037.8800000000001</ele>
        <time>2018-09-17T07:00:13Z</time>
      </trkpt>
      <trkpt lat="47.510594995692372" lon="10.389920007437468">
        <ele>1037.8800000000001</ele>
        <time>2018-09-17T07:00:14Z</time>
      </trkpt>
      <trkpt lat="47.510493993759155" lon="10.3900530282408">
        <ele>1038.3599999999999</ele>
        <time>2018-09-17T07:00:15Z</time>
      </trkpt>
      <trkpt lat="47.510388968512416" lon="10.390189988538623">
        <ele>1038.3599999999999</ele>
        <time>2018-09-17T07:00:16Z</time>
      </trkpt>
      <trkpt lat="47.510286038741469" lon="10.390331977978349">
        <ele>1038.8399999999999</ele>
        <time>2018-09-17T07:00:17Z</time>
      </trkpt>
      <trkpt lat="47.510046986863017" lon="10.390821984037757">
        <ele>1040.28</ele>
        <time>2018-09-17T07:00:20Z</time>
      </trkpt>
      <trkpt lat="47.510001976042986" lon="10.391003033146262">
        <ele>1040.76</ele>
        <time>2018-09-17T07:00:21Z</time>
      </trkpt>
      <trkpt lat="47.509989989921451" lon="10.39119397290051">
        <ele>1041.73</ele>
        <time>2018-09-17T07:00:22Z</time>
      </trkpt>
      <trkpt lat="47.509998958557844" lon="10.391394970938563">
        <ele>1042.6900000000001</ele>
        <time>2018-09-17T07:00:23Z</time>
      </trkpt>
      <trkpt lat="47.510037012398243" lon="10.391594963148236">
        <ele>1043.1700000000001</ele>
        <time>2018-09-17T07:00:24Z</time>
      </trkpt>
      <trkpt lat="47.510075988247991" lon="10.391797972843051">
        <ele>1043.6500000000001</ele>
        <time>2018-09-17T07:00:25Z</time>
      </trkpt>
      <trkpt lat="47.510179001837969" lon="10.391954965889454">
        <ele>1044.1300000000001</ele>
        <time>2018-09-17T07:00:26Z</time>
      </trkpt>
      <trkpt lat="47.510275980457664" lon="10.392099972814322">
        <ele>1044.6099999999999</ele>
        <time>2018-09-17T07:00:27Z</time>
      </trkpt>
      <trkpt lat="47.510382011532784" lon="10.392211033031344">
        <ele>1045.0899999999999</ele>
        <time>2018-09-17T07:00:28Z</time>
      </trkpt>
      <trkpt lat="47.510511009022593" lon="10.392275992780924">
        <ele>1045.5699999999999</ele>
        <time>2018-09-17T07:00:29Z</time>
      </trkpt>
      <trkpt lat="47.510637994855642" lon="10.392339024692774">
        <ele>1046.05</ele>
        <time>2018-09-17T07:00:30Z</time>
      </trkpt>
      <trkpt lat="47.510856008157134" lon="10.392447989434004">
        <ele>1047.01</ele>
        <time>2018-09-17T07:00:32Z</time>
      </trkpt>
      <trkpt lat="47.510933959856629" lon="10.392486965283751">
        <ele>1047.49</ele>
        <time>2018-09-17T07:00:33Z</time>
      </trkpt>
      <trkpt lat="47.51097603701055" lon="10.392571035772562">
        <ele>1048.45</ele>
        <time>2018-09-17T07:00:34Z</time>
      </trkpt>
      <trkpt lat="47.511019958183169" lon="10.392659967765212">
        <ele>1048.9400000000001</ele>
        <time>2018-09-17T07:00:35Z</time>
      </trkpt>
      <trkpt lat="47.511008977890015" lon="10.392773039638996">
        <ele>1049.4200000000001</ele>
        <time>2018-09-17T07:00:36Z</time>
      </trkpt>
      <trkpt lat="47.510981988161802" lon="10.392903964966536">
        <ele>1049.9000000000001</ele>
        <time>2018-09-17T07:00:37Z</time>
      </trkpt>
      <trkpt lat="47.510919040068984" lon="10.393018964678049">
        <ele>1050.3800000000001</ele>
        <time>2018-09-17T07:00:38Z</time>
      </trkpt>
      <trkpt lat="47.510850979015231" lon="10.393142011016607">
        <ele>1050.8599999999999</ele>
        <time>2018-09-17T07:00:39Z</time>
      </trkpt>
      <trkpt lat="47.51076296903193" lon="10.393303027376533">
        <ele>1051.8199999999999</ele>
        <time>2018-09-17T07:00:40Z</time>
      </trkpt>
      <trkpt lat="47.510736985132098" lon="10.393441999331117">
        <ele>1052.78</ele>
        <time>2018-09-17T07:00:41Z</time>
      </trkpt>
      <trkpt lat="47.510722987353802" lon="10.393626987934113">
        <ele>1053.74</ele>
        <time>2018-09-17T07:00:42Z</time>
      </trkpt>
      <trkpt lat="47.510729022324085" lon="10.393820023164153">
        <ele>1054.7</ele>
        <time>2018-09-17T07:00:43Z</time>
      </trkpt>
      <trkpt lat="47.510735979303718" lon="10.394014986231923">
        <ele>1055.6700000000001</ele>
        <time>2018-09-17T07:00:44Z</time>
      </trkpt>
      <trkpt lat="47.510758023709059" lon="10.394206009805202">
        <ele>1056.6300000000001</ele>
        <time>2018-09-17T07:00:45Z</time>
      </trkpt>
      <trkpt lat="47.510804040357471" lon="10.394327966496348">
        <ele>1057.1099999999999</ele>
        <time>2018-09-17T07:00:46Z</time>
      </trkpt>
      <trkpt lat="47.510865982621908" lon="10.39439301006496">
        <ele>1057.5899999999999</ele>
        <time>2018-09-17T07:00:47Z</time>
      </trkpt>
      <trkpt lat="47.510937983170152" lon="10.394383035600185">
        <ele>1058.0699999999999</ele>
        <time>2018-09-17T07:00:48Z</time>
      </trkpt>
      <trkpt lat="47.511000009253621" lon="10.394340958446264">
        <ele>1058.55</ele>
        <time>2018-09-17T07:00:49Z</time>
      </trkpt>
      <trkpt lat="47.511054994538426" lon="10.394257977604866">
        <ele>1059.03</ele>
        <time>2018-09-17T07:00:50Z</time>
      </trkpt>
      <trkpt lat="47.511048037558794" lon="10.394187988713384">
        <ele>1059.99</ele>
        <time>2018-09-17T07:00:51Z</time>
      </trkpt>
      <trkpt lat="47.511023981496692" lon="10.39409302175045">
        <ele>1060.47</ele>
        <time>2018-09-17T07:00:52Z</time>
      </trkpt>
      <trkpt lat="47.510993974283338" lon="10.393980033695698">
        <ele>1060.95</ele>
        <time>2018-09-17T07:00:53Z</time>
      </trkpt>
      <trkpt lat="47.510960027575493" lon="10.393849024549127">
        <ele>1061.9100000000001</ele>
        <time>2018-09-17T07:00:54Z</time>
      </trkpt>
      <trkpt lat="47.510928008705378" lon="10.393723966553807">
        <ele>1061.9100000000001</ele>
        <time>2018-09-17T07:00:55Z</time>
      </trkpt>
      <trkpt lat="47.510903030633926" lon="10.393623970448971">
        <ele>1062.8699999999999</ele>
        <time>2018-09-17T07:00:56Z</time>
      </trkpt>
      <trkpt lat="47.510923985391855" lon="10.39349103346467">
        <ele>1063.8399999999999</ele>
        <time>2018-09-17T07:00:57Z</time>
      </trkpt>
      <trkpt lat="47.510976959019899" lon="10.393345020711422">
        <ele>1064.3199999999999</ele>
        <time>2018-09-17T07:00:58Z</time>
      </trkpt>
      <trkpt lat="47.511039990931749" lon="10.393264973536134">
        <ele>1065.28</ele>
        <time>2018-09-17T07:00:59Z</time>
      </trkpt>
      <trkpt lat="47.511119032278657" lon="10.393162965774536">
        <ele>1066.24</ele>
        <time>2018-09-17T07:01:00Z</time>
      </trkpt>
      <trkpt lat="47.511183992028236" lon="10.393046960234642">
        <ele>1067.2</ele>
        <time>2018-09-17T07:01:01Z</time>
      </trkpt>
      <trkpt lat="47.511250041425228" lon="10.392921986058354">
        <ele>1067.6800000000001</ele>
        <time>2018-09-17T07:01:02Z</time>
      </trkpt>
      <trkpt lat="47.511295974254608" lon="10.392785025760531">
        <ele>1068.6400000000001</ele>
        <time>2018-09-17T07:01:03Z</time>
      </trkpt>
      <trkpt lat="47.511283988133073" lon="10.392623003572226">
        <ele>1069.1199999999999</ele>
        <time>2018-09-17T07:01:04Z</time>
      </trkpt>
      <trkpt lat="47.511248029768467" lon="10.392471039667726">
        <ele>1070.0799999999999</ele>
        <time>2018-09-17T07:01:05Z</time>
      </trkpt>
      <trkpt lat="47.511176029220223" lon="10.392339024692774">
        <ele>1070.5699999999999</ele>
        <time>2018-09-17T07:01:06Z</time>
      </trkpt>
      <trkpt lat="47.511081984266639" lon="10.392225030809641">
        <ele>1071.05</ele>
        <time>2018-09-17T07:01:07Z</time>
      </trkpt>
      <trkpt lat="47.510985005646944" lon="10.392108019441366">
        <ele>1072.01</ele>
        <time>2018-09-17T07:01:08Z</time>
      </trkpt>
      <trkpt lat="47.51069700345397" lon="10.391690013930202">
        <ele>1073.9300000000001</ele>
        <time>2018-09-17T07:01:11Z</time>
      </trkpt>
      <trkpt lat="47.510576974600554" lon="10.391393965110183">
        <ele>1074.8900000000001</ele>
        <time>2018-09-17T07:01:13Z</time>
      </trkpt>
      <trkpt lat="47.510553002357483" lon="10.391248036175966">
        <ele>1075.3699999999999</ele>
        <time>2018-09-17T07:01:14Z</time>
      </trkpt>
      <trkpt lat="47.510531041771173" lon="10.391118032857776">
        <ele>1075.8499999999999</ele>
        <time>2018-09-17T07:01:15Z</time>
      </trkpt>
      <trkpt lat="47.510564988479018" lon="10.390995992347598">
        <ele>1076.3299999999999</ele>
        <time>2018-09-17T07:01:16Z</time>
      </trkpt>
      <trkpt lat="47.510605975985527" lon="10.39089297875762">
        <ele>1076.8099999999999</ele>
        <time>2018-09-17T07:01:17Z</time>
      </trkpt>
      <trkpt lat="47.510680994018912" lon="10.390855008736253">
        <ele>1076.8099999999999</ele>
        <time>2018-09-17T07:01:18Z</time>
      </trkpt>
      <trkpt lat="47.510761041194201" lon="10.390843022614717">
        <ele>1076.8099999999999</ele>
        <time>2018-09-17T07:01:19Z</time>
      </trkpt>
      <trkpt lat="47.510835975408554" lon="10.390873029828072">
        <ele>1077.29</ele>
        <time>2018-09-17T07:01:20Z</time>
      </trkpt>
      <trkpt lat="47.510902024805546" lon="10.390975037589669">
        <ele>1077.29</ele>
        <time>2018-09-17T07:01:21Z</time>
      </trkpt>
      <trkpt lat="47.510958015918732" lon="10.391075033694506">
        <ele>1077.78</ele>
        <time>2018-09-17T07:01:22Z</time>
      </trkpt>
      <trkpt lat="47.511005038395524" lon="10.391180980950594">
        <ele>1078.26</ele>
        <time>2018-09-17T07:01:23Z</time>
      </trkpt>
      <trkpt lat="47.511042002588511" lon="10.391263961791992">
        <ele>1078.74</ele>
        <time>2018-09-17T07:01:24Z</time>
      </trkpt>
      <trkpt lat="47.51112699508667" lon="10.391362030059099">
        <ele>1079.22</ele>
        <time>2018-09-17T07:01:25Z</time>
      </trkpt>
      <trkpt lat="47.511210981756449" lon="10.391447022557259">
        <ele>1079.7</ele>
        <time>2018-09-17T07:01:26Z</time>
      </trkpt>
      <trkpt lat="47.511317012831569" lon="10.391510976478457">
        <ele>1079.7</ele>
        <time>2018-09-17T07:01:27Z</time>
      </trkpt>
      <trkpt lat="47.511605015024543" lon="10.391783975064754">
        <ele>1081.1400000000001</ele>
        <time>2018-09-17T07:01:30Z</time>
      </trkpt>
      <trkpt lat="47.511695036664605" lon="10.391891011968255">
        <ele>1082.0999999999999</ele>
        <time>2018-09-17T07:01:31Z</time>
      </trkpt>
      <trkpt lat="47.511787991970778" lon="10.392000982537866">
        <ele>1082.5799999999999</ele>
        <time>2018-09-17T07:01:32Z</time>
      </trkpt>
      <trkpt lat="47.511881031095982" lon="10.392132997512817">
        <ele>1083.54</ele>
        <time>2018-09-17T07:01:33Z</time>
      </trkpt>
      <trkpt lat="47.511952025815845" lon="10.392299965023994">
        <ele>1084.5</ele>
        <time>2018-09-17T07:01:34Z</time>
      </trkpt>
      <trkpt lat="47.512069959193468" lon="10.392637001350522">
        <ele>1085.95</ele>
        <time>2018-09-17T07:01:36Z</time>
      </trkpt>
      <trkpt lat="47.512111030519009" lon="10.392813021317124">
        <ele>1086.9100000000001</ele>
        <time>2018-09-17T07:01:37Z</time>
      </trkpt>
      <trkpt lat="47.512114970013499" lon="10.393004966899753">
        <ele>1087.8699999999999</ele>
        <time>2018-09-17T07:01:38Z</time>
      </trkpt>
      <trkpt lat="47.512114970013499" lon="10.393194984644651">
        <ele>1088.8299999999999</ele>
        <time>2018-09-17T07:01:39Z</time>
      </trkpt>
      <trkpt lat="47.51209401525557" lon="10.393401011824608">
        <ele>1089.3099999999999</ele>
        <time>2018-09-17T07:01:40Z</time>
      </trkpt>
      <trkpt lat="47.51207297667861" lon="10.393608966842294">
        <ele>1090.27</ele>
        <time>2018-09-17T07:01:41Z</time>
      </trkpt>
      <trkpt lat="47.512059984728694" lon="10.394051028415561">
        <ele>1091.71</ele>
        <time>2018-09-17T07:01:43Z</time>
      </trkpt>
      <trkpt lat="47.512113964185119" lon="10.394513960927725">
        <ele>1093.6400000000001</ele>
        <time>2018-09-17T07:01:45Z</time>
      </trkpt>
      <trkpt lat="47.512157969176769" lon="10.394740020856261">
        <ele>1094.5999999999999</ele>
        <time>2018-09-17T07:01:46Z</time>
      </trkpt>
      <trkpt lat="47.512253019958735" lon="10.394912017509341">
        <ele>1095.5599999999999</ele>
        <time>2018-09-17T07:01:47Z</time>
      </trkpt>
      <trkpt lat="47.512353016063571" lon="10.395089965313673">
        <ele>1096.04</ele>
        <time>2018-09-17T07:01:48Z</time>
      </trkpt>
      <trkpt lat="47.512455023825169" lon="10.395271014422178">
        <ele>1097</ele>
        <time>2018-09-17T07:01:49Z</time>
      </trkpt>
      <trkpt lat="47.513281982392073" lon="10.39639201015234">
        <ele>1103.73</ele>
        <time>2018-09-17T07:01:56Z</time>
      </trkpt>
      <trkpt lat="47.513380972668529" lon="10.396526958793402">
        <ele>1104.21</ele>
        <time>2018-09-17T07:01:57Z</time>
      </trkpt>
      <trkpt lat="47.513488009572029" lon="10.39667297154665">
        <ele>1105.1700000000001</ele>
        <time>2018-09-17T07:01:58Z</time>
      </trkpt>
      <trkpt lat="47.513528997078538" lon="10.396857960149646">
        <ele>1106.1300000000001</ele>
        <time>2018-09-17T07:01:59Z</time>
      </trkpt>
      <trkpt lat="47.513574007898569" lon="10.39705803617835">
        <ele>1107.0999999999999</ele>
        <time>2018-09-17T07:02:00Z</time>
      </trkpt>
      <trkpt lat="47.51359798014164" lon="10.397277977317572">
        <ele>1108.0599999999999</ele>
        <time>2018-09-17T07:02:01Z</time>
      </trkpt>
      <trkpt lat="47.513622036203742" lon="10.397500013932586">
        <ele>1109.02</ele>
        <time>2018-09-17T07:02:02Z</time>
      </trkpt>
      <trkpt lat="47.513723960146308" lon="10.398449013009667">
        <ele>1112.3800000000001</ele>
        <time>2018-09-17T07:02:06Z</time>
      </trkpt>
      <trkpt lat="47.513757990673184" lon="10.39869099855423">
        <ele>1113.3399999999999</ele>
        <time>2018-09-17T07:02:07Z</time>
      </trkpt>
      <trkpt lat="47.513824962079525" lon="10.398922003805637">
        <ele>1114.3099999999999</ele>
        <time>2018-09-17T07:02:08Z</time>
      </trkpt>
      <trkpt lat="47.514143977314234" lon="10.400021960958838">
        <ele>1119.5899999999999</ele>
        <time>2018-09-17T07:02:14Z</time>
      </trkpt>
      <trkpt lat="47.51454496756196" lon="10.401243958622217">
        <ele>1124.4000000000001</ele>
        <time>2018-09-17T07:02:24Z</time>
      </trkpt>
      <trkpt lat="47.514733979478478" lon="10.401862962171435">
        <ele>1125.8399999999999</ele>
        <time>2018-09-17T07:02:29Z</time>
      </trkpt>
      <trkpt lat="47.514768010005355" lon="10.401987014338374">
        <ele>1125.8399999999999</ele>
        <time>2018-09-17T07:02:30Z</time>
      </trkpt>
      <trkpt lat="47.514841016381979" lon="10.402231011539698">
        <ele>1126.3199999999999</ele>
        <time>2018-09-17T07:02:32Z</time>
      </trkpt>
      <trkpt lat="47.514880998060107" lon="10.402351962402463">
        <ele>1126.3199999999999</ele>
        <time>2018-09-17T07:02:33Z</time>
      </trkpt>
      <trkpt lat="47.514920979738235" lon="10.402474002912641">
        <ele>1126.3199999999999</ele>
        <time>2018-09-17T07:02:34Z</time>
      </trkpt>
      <trkpt lat="47.515089036896825" lon="10.402975995093584">
        <ele>1128.24</ele>
        <time>2018-09-17T07:02:38Z</time>
      </trkpt>
      <trkpt lat="47.515349965542555" lon="10.404349034652114">
        <ele>1130.1700000000001</ele>
        <time>2018-09-17T07:02:47Z</time>
      </trkpt>
      <trkpt lat="47.515978021547198" lon="10.405914019793272">
        <ele>1135.9400000000001</ele>
        <time>2018-09-17T07:02:58Z</time>
      </trkpt>
      <trkpt lat="47.516903970390558" lon="10.407763989642262">
        <ele>1146.51</ele>
        <time>2018-09-17T07:03:12Z</time>
      </trkpt>
      <trkpt lat="47.517092982307076" lon="10.408065989613533">
        <ele>1149.3900000000001</ele>
        <time>2018-09-17T07:03:15Z</time>
      </trkpt>
      <trkpt lat="47.517146039754152" lon="10.408146036788821">
        <ele>1149.8699999999999</ele>
        <time>2018-09-17T07:03:16Z</time>
      </trkpt>
      <trkpt lat="47.517114020884037" lon="10.408365977928042">
        <ele>1150.3499999999999</ele>
        <time>2018-09-17T07:03:17Z</time>
      </trkpt>
      <trkpt lat="47.517114020884037" lon="10.408365977928042">
        <ele>1150.3499999999999</ele>
        <time>2018-09-17T07:03:18Z</time>
      </trkpt>
      <trkpt lat="47.517141010612249" lon="10.408602012321353">
        <ele>1150.8399999999999</ele>
        <time>2018-09-17T07:03:19Z</time>
      </trkpt>
      <trkpt lat="47.517083007842302" lon="10.408679964020848">
        <ele>1150.8399999999999</ele>
        <time>2018-09-17T07:03:20Z</time>
      </trkpt>
      <trkpt lat="47.517017964273691" lon="10.408769985660911">
        <ele>1150.8399999999999</ele>
        <time>2018-09-17T07:03:21Z</time>
      </trkpt>
      <trkpt lat="47.516948981210589" lon="10.408867970108986">
        <ele>1150.8399999999999</ele>
        <time>2018-09-17T07:03:22Z</time>
      </trkpt>
      <trkpt lat="47.516045998781919" lon="10.40992702357471">
        <ele>1151.3199999999999</ele>
        <time>2018-09-17T07:03:31Z</time>
      </trkpt>
      <trkpt lat="47.515835026279092" lon="10.410241009667516">
        <ele>1151.8</ele>
        <time>2018-09-17T07:03:33Z</time>
      </trkpt>
      <trkpt lat="47.51572597771883" lon="10.410404959693551">
        <ele>1152.28</ele>
        <time>2018-09-17T07:03:34Z</time>
      </trkpt>
      <trkpt lat="47.515622964128852" lon="10.410576034337282">
        <ele>1152.76</ele>
        <time>2018-09-17T07:03:35Z</time>
      </trkpt>
      <trkpt lat="47.515529002994299" lon="10.41076404042542">
        <ele>1152.76</ele>
        <time>2018-09-17T07:03:36Z</time>
      </trkpt>
      <trkpt lat="47.515440993010998" lon="10.410940982401371">
        <ele>1153.24</ele>
        <time>2018-09-17T07:03:37Z</time>
      </trkpt>
      <trkpt lat="47.51538097858429" lon="10.411164024844766">
        <ele>1153.72</ele>
        <time>2018-09-17T07:03:38Z</time>
      </trkpt>
      <trkpt lat="47.51531601883471" lon="10.411358987912536">
        <ele>1154.2</ele>
        <time>2018-09-17T07:03:39Z</time>
      </trkpt>
      <trkpt lat="47.515262961387634" lon="10.411558980122209">
        <ele>1154.6800000000001</ele>
        <time>2018-09-17T07:03:40Z</time>
      </trkpt>
      <trkpt lat="47.515217028558254" lon="10.411764001473784">
        <ele>1155.1600000000001</ele>
        <time>2018-09-17T07:03:41Z</time>
      </trkpt>
      <trkpt lat="47.515190038830042" lon="10.411976985633373">
        <ele>1155.1600000000001</ele>
        <time>2018-09-17T07:03:42Z</time>
      </trkpt>
      <trkpt lat="47.51516698859632" lon="10.412418963387609">
        <ele>1156.1199999999999</ele>
        <time>2018-09-17T07:03:44Z</time>
      </trkpt>
      <trkpt lat="47.515176041051745" lon="10.412644017487764">
        <ele>1156.1199999999999</ele>
        <time>2018-09-17T07:03:45Z</time>
      </trkpt>
      <trkpt lat="47.515190038830042" lon="10.412873011082411">
        <ele>1156.5999999999999</ele>
        <time>2018-09-17T07:03:46Z</time>
      </trkpt>
      <trkpt lat="47.515225997194648" lon="10.413104016333818">
        <ele>1156.1199999999999</ele>
        <time>2018-09-17T07:03:47Z</time>
      </trkpt>
      <trkpt lat="47.515262961387634" lon="10.413338961079717">
        <ele>1156.1199999999999</ele>
        <time>2018-09-17T07:03:48Z</time>
      </trkpt>
      <trkpt lat="47.515310989692807" lon="10.413573989644647">
        <ele>1155.6400000000001</ele>
        <time>2018-09-17T07:03:49Z</time>
      </trkpt>
      <trkpt lat="47.515388019382954" lon="10.413793008774519">
        <ele>1155.1600000000001</ele>
        <time>2018-09-17T07:03:50Z</time>
      </trkpt>
      <trkpt lat="47.515465971082449" lon="10.414011022076011">
        <ele>1154.6800000000001</ele>
        <time>2018-09-17T07:03:51Z</time>
      </trkpt>
      <trkpt lat="47.516064019873738" lon="10.416061989963055">
        <ele>1149.3900000000001</ele>
        <time>2018-09-17T07:04:00Z</time>
      </trkpt>
      <trkpt lat="47.516484037041664" lon="10.418271962553263">
        <ele>1143.1400000000001</ele>
        <time>2018-09-17T07:04:09Z</time>
      </trkpt>
      <trkpt lat="47.517298003658652" lon="10.420100977644324">
        <ele>1136.9000000000001</ele>
        <time>2018-09-17T07:04:16Z</time>
      </trkpt>
      <trkpt lat="47.518716976046562" lon="10.422284966334701">
        <ele>1134.49</ele>
        <time>2018-09-17T07:04:25Z</time>
      </trkpt>
      <trkpt lat="47.519492972642183" lon="10.424265023320913">
        <ele>1136.4200000000001</ele>
        <time>2018-09-17T07:04:32Z</time>
      </trkpt>
      <trkpt lat="47.519711991772056" lon="10.42477598413825">
        <ele>1137.3800000000001</ele>
        <time>2018-09-17T07:04:34Z</time>
      </trkpt>
      <trkpt lat="47.519832020625472" lon="10.425007995218039">
        <ele>1137.8599999999999</ele>
        <time>2018-09-17T07:04:35Z</time>
      </trkpt>
      <trkpt lat="47.520513972267509" lon="10.426133014261723">
        <ele>1140.74</ele>
        <time>2018-09-17T07:04:40Z</time>
      </trkpt>
      <trkpt lat="47.520631989464164" lon="10.426382040604949">
        <ele>1141.22</ele>
        <time>2018-09-17T07:04:41Z</time>
      </trkpt>
      <trkpt lat="47.520735003054142" lon="10.426640035584569">
        <ele>1142.1800000000001</ele>
        <time>2018-09-17T07:04:42Z</time>
      </trkpt>
      <trkpt lat="47.520829970017076" lon="10.426905993372202">
        <ele>1142.6600000000001</ele>
        <time>2018-09-17T07:04:43Z</time>
      </trkpt>
      <trkpt lat="47.520914962515235" lon="10.427178991958499">
        <ele>1143.6300000000001</ele>
        <time>2018-09-17T07:04:44Z</time>
      </trkpt>
      <trkpt lat="47.521586017683148" lon="10.429387036710978">
        <ele>1151.3199999999999</ele>
        <time>2018-09-17T07:04:52Z</time>
      </trkpt>
      <trkpt lat="47.52247097902" lon="10.431256033480167">
        <ele>1159.49</ele>
        <time>2018-09-17T07:04:59Z</time>
      </trkpt>
      <trkpt lat="47.522606011480093" lon="10.431493995711207">
        <ele>1160.45</ele>
        <time>2018-09-17T07:05:00Z</time>
      </trkpt>
      <trkpt lat="47.522748000919819" lon="10.431700022891164">
        <ele>1161.8900000000001</ele>
        <time>2018-09-17T07:05:01Z</time>
      </trkpt>
      <trkpt lat="47.522897031158209" lon="10.431857015937567">
        <ele>1162.8499999999999</ele>
        <time>2018-09-17T07:05:02Z</time>
      </trkpt>
      <trkpt lat="47.523046983405948" lon="10.431984001770616">
        <ele>1163.8099999999999</ele>
        <time>2018-09-17T07:05:03Z</time>
      </trkpt>
      <trkpt lat="47.52320003695786" lon="10.432072011753917">
        <ele>1164.77</ele>
        <time>2018-09-17T07:05:04Z</time>
      </trkpt>
      <trkpt lat="47.523355018347502" lon="10.432140994817019">
        <ele>1166.22</ele>
        <time>2018-09-17T07:05:05Z</time>
      </trkpt>
      <trkpt lat="47.523518968373537" lon="10.432140994817019">
        <ele>1167.1800000000001</ele>
        <time>2018-09-17T07:05:06Z</time>
      </trkpt>
      <trkpt lat="47.523693982511759" lon="10.432140994817019">
        <ele>1168.1400000000001</ele>
        <time>2018-09-17T07:05:07Z</time>
      </trkpt>
      <trkpt lat="47.523872014135122" lon="10.432086009532213">
        <ele>1169.0999999999999</ele>
        <time>2018-09-17T07:05:08Z</time>
      </trkpt>
      <trkpt lat="47.524052979424596" lon="10.432019038125873">
        <ele>1169.5799999999999</ele>
        <time>2018-09-17T07:05:09Z</time>
      </trkpt>
      <trkpt lat="47.52423302270472" lon="10.4319519829005">
        <ele>1170.0599999999999</ele>
        <time>2018-09-17T07:05:10Z</time>
      </trkpt>
      <trkpt lat="47.524591013789177" lon="10.431819967925549">
        <ele>1171.5</ele>
        <time>2018-09-17T07:05:12Z</time>
      </trkpt>
      <trkpt lat="47.52477197907865" lon="10.431751990690827">
        <ele>1171.98</ele>
        <time>2018-09-17T07:05:13Z</time>
      </trkpt>
      <trkpt lat="47.525851987302303" lon="10.43145501986146">
        <ele>1172.95</ele>
        <time>2018-09-17T07:05:19Z</time>
      </trkpt>
      <trkpt lat="47.526014009490609" lon="10.431496007367969">
        <ele>1172.95</ele>
        <time>2018-09-17T07:05:20Z</time>
      </trkpt>
      <trkpt lat="47.526171002537012" lon="10.431534983217716">
        <ele>1172.95</ele>
        <time>2018-09-17T07:05:21Z</time>
      </trkpt>
      <trkpt lat="47.526307962834835" lon="10.43162802234292">
        <ele>1172.47</ele>
        <time>2018-09-17T07:05:22Z</time>
      </trkpt>
      <trkpt lat="47.526448024436831" lon="10.431732963770628">
        <ele>1172.47</ele>
        <time>2018-09-17T07:05:23Z</time>
      </trkpt>
      <trkpt lat="47.526551960036159" lon="10.431899009272456">
        <ele>1171.98</ele>
        <time>2018-09-17T07:05:24Z</time>
      </trkpt>
      <trkpt lat="47.526656985282898" lon="10.432066982612014">
        <ele>1171.98</ele>
        <time>2018-09-17T07:05:25Z</time>
      </trkpt>
      <trkpt lat="47.526721023023129" lon="10.432261023670435">
        <ele>1171.98</ele>
        <time>2018-09-17T07:05:26Z</time>
      </trkpt>
      <trkpt lat="47.526786988601089" lon="10.432469984516501">
        <ele>1171.98</ele>
        <time>2018-09-17T07:05:27Z</time>
      </trkpt>
      <trkpt lat="47.526808027178049" lon="10.432691015303135">
        <ele>1171.98</ele>
        <time>2018-09-17T07:05:28Z</time>
      </trkpt>
      <trkpt lat="47.526826970279217" lon="10.432925960049033">
        <ele>1171.5</ele>
        <time>2018-09-17T07:05:29Z</time>
      </trkpt>
      <trkpt lat="47.526802998036146" lon="10.43315302580595">
        <ele>1171.5</ele>
        <time>2018-09-17T07:05:30Z</time>
      </trkpt>
      <trkpt lat="47.526748012751341" lon="10.433379001915455">
        <ele>1171.5</ele>
        <time>2018-09-17T07:05:31Z</time>
      </trkpt>
      <trkpt lat="47.526694033294916" lon="10.433602966368198">
        <ele>1171.02</ele>
        <time>2018-09-17T07:05:32Z</time>
      </trkpt>
      <trkpt lat="47.526593031361699" lon="10.433785021305084">
        <ele>1170.54</ele>
        <time>2018-09-17T07:05:33Z</time>
      </trkpt>
      <trkpt lat="47.526491023600101" lon="10.433943020179868">
        <ele>1170.0599999999999</ele>
        <time>2018-09-17T07:05:34Z</time>
      </trkpt>
      <trkpt lat="47.526349034160376" lon="10.434107976034284">
        <ele>1169.5799999999999</ele>
        <time>2018-09-17T07:05:35Z</time>
      </trkpt>
      <trkpt lat="47.52621098421514" lon="10.434267986565828">
        <ele>1169.0999999999999</ele>
        <time>2018-09-17T07:05:36Z</time>
      </trkpt>
      <trkpt lat="47.526083998382092" lon="10.434415005147457">
        <ele>1168.1400000000001</ele>
        <time>2018-09-17T07:05:37Z</time>
      </trkpt>
      <trkpt lat="47.525947960093617" lon="10.434643998742104">
        <ele>1167.6600000000001</ele>
        <time>2018-09-17T07:05:38Z</time>
      </trkpt>
      <trkpt lat="47.524929977953434" lon="10.436716005206108">
        <ele>1158.53</ele>
        <time>2018-09-17T07:05:48Z</time>
      </trkpt>
      <trkpt lat="47.524295970797539" lon="10.438786000013351">
        <ele>1152.28</ele>
        <time>2018-09-17T07:05:57Z</time>
      </trkpt>
      <trkpt lat="47.524217013269663" lon="10.439050029963255">
        <ele>1151.8</ele>
        <time>2018-09-17T07:05:58Z</time>
      </trkpt>
      <trkpt lat="47.524184994399548" lon="10.439254967495799">
        <ele>1151.8</ele>
        <time>2018-09-17T07:05:59Z</time>
      </trkpt>
      <trkpt lat="47.524174014106393" lon="10.439509022980928">
        <ele>1150.8399999999999</ele>
        <time>2018-09-17T07:06:00Z</time>
      </trkpt>
      <trkpt lat="47.524174014106393" lon="10.439759977161884">
        <ele>1150.3499999999999</ele>
        <time>2018-09-17T07:06:01Z</time>
      </trkpt>
      <trkpt lat="47.524206032976508" lon="10.440017972141504">
        <ele>1149.8699999999999</ele>
        <time>2018-09-17T07:06:02Z</time>
      </trkpt>
      <trkpt lat="47.524244002997875" lon="10.440271021798253">
        <ele>1149.3900000000001</ele>
        <time>2018-09-17T07:06:03Z</time>
      </trkpt>
      <trkpt lat="47.524349028244615" lon="10.441497964784503">
        <ele>1143.6300000000001</ele>
        <time>2018-09-17T07:06:08Z</time>
      </trkpt>
      <trkpt lat="47.524323966354132" lon="10.441711032763124">
        <ele>1142.1800000000001</ele>
        <time>2018-09-17T07:06:09Z</time>
      </trkpt>
      <trkpt lat="47.524264035746455" lon="10.441953018307686">
        <ele>1140.74</ele>
        <time>2018-09-17T07:06:10Z</time>
      </trkpt>
      <trkpt lat="47.524217013269663" lon="10.442140018567443">
        <ele>1139.3</ele>
        <time>2018-09-17T07:06:11Z</time>
      </trkpt>
      <trkpt lat="47.524118022993207" lon="10.442357026040554">
        <ele>1137.8599999999999</ele>
        <time>2018-09-17T07:06:12Z</time>
      </trkpt>
      <trkpt lat="47.524028001353145" lon="10.442554000765085">
        <ele>1136.4200000000001</ele>
        <time>2018-09-17T07:06:13Z</time>
      </trkpt>
      <trkpt lat="47.523919036611915" lon="10.442728009074926">
        <ele>1134.97</ele>
        <time>2018-09-17T07:06:14Z</time>
      </trkpt>
      <trkpt lat="47.523795990273356" lon="10.442897994071245">
        <ele>1133.05</ele>
        <time>2018-09-17T07:06:15Z</time>
      </trkpt>
      <trkpt lat="47.523661041632295" lon="10.443051969632506">
        <ele>1131.6099999999999</ele>
        <time>2018-09-17T07:06:16Z</time>
      </trkpt>
      <trkpt lat="47.523511005565524" lon="10.443179961293936">
        <ele>1130.1700000000001</ele>
        <time>2018-09-17T07:06:17Z</time>
      </trkpt>
      <trkpt lat="47.522623026743531" lon="10.443980013951659">
        <ele>1122</ele>
        <time>2018-09-17T07:06:23Z</time>
      </trkpt>
      <trkpt lat="47.522480031475425" lon="10.444130972027779">
        <ele>1121.03</ele>
        <time>2018-09-17T07:06:24Z</time>
      </trkpt>
      <trkpt lat="47.521114032715559" lon="10.446033999323845">
        <ele>1108.0599999999999</ele>
        <time>2018-09-17T07:06:34Z</time>
      </trkpt>
      <trkpt lat="47.520310962572694" lon="10.447278963401914">
        <ele>1101.3299999999999</ele>
        <time>2018-09-17T07:06:40Z</time>
      </trkpt>
      <trkpt lat="47.520217001438141" lon="10.447512986138463">
        <ele>1099.8900000000001</ele>
        <time>2018-09-17T07:06:41Z</time>
      </trkpt>
      <trkpt lat="47.520137038081884" lon="10.447761006653309">
        <ele>1098.9200000000001</ele>
        <time>2018-09-17T07:06:42Z</time>
      </trkpt>
      <trkpt lat="47.520054979249835" lon="10.448014978319407">
        <ele>1097.96</ele>
        <time>2018-09-17T07:06:43Z</time>
      </trkpt>
      <trkpt lat="47.519971998408437" lon="10.448270039632916">
        <ele>1097</ele>
        <time>2018-09-17T07:06:44Z</time>
      </trkpt>
      <trkpt lat="47.51980603672564" lon="10.448783012107015">
        <ele>1095.0799999999999</ele>
        <time>2018-09-17T07:06:46Z</time>
      </trkpt>
      <trkpt lat="47.519690031185746" lon="10.449003037065268">
        <ele>1094.1199999999999</ele>
        <time>2018-09-17T07:06:47Z</time>
      </trkpt>
      <trkpt lat="47.519450979307294" lon="10.449449038133025">
        <ele>1092.2</ele>
        <time>2018-09-17T07:06:49Z</time>
      </trkpt>
      <trkpt lat="47.519332962110639" lon="10.44967602007091">
        <ele>1091.23</ele>
        <time>2018-09-17T07:06:50Z</time>
      </trkpt>
      <trkpt lat="47.519217040389776" lon="10.449909036979079">
        <ele>1090.27</ele>
        <time>2018-09-17T07:06:51Z</time>
      </trkpt>
      <trkpt lat="47.518785959109664" lon="10.451181996613741">
        <ele>1084.5</ele>
        <time>2018-09-17T07:06:56Z</time>
      </trkpt>
      <trkpt lat="47.518696021288633" lon="10.451408978551626">
        <ele>1083.54</ele>
        <time>2018-09-17T07:06:57Z</time>
      </trkpt>
      <trkpt lat="47.518587978556752" lon="10.451634032651782">
        <ele>1082.5799999999999</ele>
        <time>2018-09-17T07:06:58Z</time>
      </trkpt>
      <trkpt lat="47.517684996128082" lon="10.452987039461732">
        <ele>1076.8099999999999</ele>
        <time>2018-09-17T07:07:05Z</time>
      </trkpt>
      <trkpt lat="47.517499001696706" lon="10.45330798253417">
        <ele>1074.8900000000001</ele>
        <time>2018-09-17T07:07:07Z</time>
      </trkpt>
      <trkpt lat="47.516804980114102" lon="10.454285982996225">
        <ele>1068.1600000000001</ele>
        <time>2018-09-17T07:07:15Z</time>
      </trkpt>
      <trkpt lat="47.516703978180885" lon="10.454483963549137">
        <ele>1066.72</ele>
        <time>2018-09-17T07:07:17Z</time>
      </trkpt>
      <trkpt lat="47.516671037301421" lon="10.454607009887695">
        <ele>1066.24</ele>
        <time>2018-09-17T07:07:18Z</time>
      </trkpt>
      <trkpt lat="47.516428967937827" lon="10.455925986170769">
        <ele>1061.4300000000001</ele>
        <time>2018-09-17T07:07:27Z</time>
      </trkpt>
      <trkpt lat="47.516328971832991" lon="10.456729978322983">
        <ele>1060.95</ele>
        <time>2018-09-17T07:07:32Z</time>
      </trkpt>
      <trkpt lat="47.516286978498101" lon="10.456876996904612">
        <ele>1060.95</ele>
        <time>2018-09-17T07:07:33Z</time>
      </trkpt>
      <trkpt lat="47.516229981556535" lon="10.457018986344337">
        <ele>1061.4300000000001</ele>
        <time>2018-09-17T07:07:34Z</time>
      </trkpt>
      <trkpt lat="47.515543000772595" lon="10.458579026162624">
        <ele>1066.24</ele>
        <time>2018-09-17T07:07:44Z</time>
      </trkpt>
      <trkpt lat="47.515334961935878" lon="10.458955960348248">
        <ele>1068.1600000000001</ele>
        <time>2018-09-17T07:07:47Z</time>
      </trkpt>
      <trkpt lat="47.515258016064763" lon="10.459062997251749">
        <ele>1068.1600000000001</ele>
        <time>2018-09-17T07:07:48Z</time>
      </trkpt>
      <trkpt lat="47.515184003859758" lon="10.459168022498488">
        <ele>1068.6400000000001</ele>
        <time>2018-09-17T07:07:49Z</time>
      </trkpt>
      <trkpt lat="47.514418987557292" lon="10.460217017680407">
        <ele>1072.01</ele>
        <time>2018-09-17T07:07:59Z</time>
      </trkpt>
      <trkpt lat="47.513990001752973" lon="10.460650026798248">
        <ele>1073.9300000000001</ele>
        <time>2018-09-17T07:08:04Z</time>
      </trkpt>
      <trkpt lat="47.513736030086875" lon="10.460932999849319">
        <ele>1074.8900000000001</ele>
        <time>2018-09-17T07:08:07Z</time>
      </trkpt>
      <trkpt lat="47.513637961819768" lon="10.461043976247311">
        <ele>1074.8900000000001</ele>
        <time>2018-09-17T07:08:08Z</time>
      </trkpt>
      <trkpt lat="47.513588005676866" lon="10.461143972352147">
        <ele>1075.3699999999999</ele>
        <time>2018-09-17T07:08:09Z</time>
      </trkpt>
      <trkpt lat="47.51346998848021" lon="10.461413031443954">
        <ele>1075.8499999999999</ele>
        <time>2018-09-17T07:08:11Z</time>
      </trkpt>
      <trkpt lat="47.513418020680547" lon="10.461539011448622">
        <ele>1076.3299999999999</ele>
        <time>2018-09-17T07:08:12Z</time>
      </trkpt>
      <trkpt lat="47.513364963233471" lon="10.461665997281671">
        <ele>1076.8099999999999</ele>
        <time>2018-09-17T07:08:13Z</time>
      </trkpt>
      <trkpt lat="47.512595001608133" lon="10.463123023509979">
        <ele>1079.22</ele>
        <time>2018-09-17T07:08:24Z</time>
      </trkpt>
      <trkpt lat="47.511730995029211" lon="10.464656995609403">
        <ele>1078.74</ele>
        <time>2018-09-17T07:08:32Z</time>
      </trkpt>
      <trkpt lat="47.510620979592204" lon="10.466174958273768">
        <ele>1074.4100000000001</ele>
        <time>2018-09-17T07:08:39Z</time>
      </trkpt>
      <trkpt lat="47.510025026276708" lon="10.467942031100392">
        <ele>1073.45</ele>
        <time>2018-09-17T07:08:45Z</time>
      </trkpt>
      <trkpt lat="47.509676003828645" lon="10.469655962660909">
        <ele>1077.78</ele>
        <time>2018-09-17T07:08:52Z</time>
      </trkpt>
      <trkpt lat="47.509179040789604" lon="10.471237963065505">
        <ele>1081.6199999999999</ele>
        <time>2018-09-17T07:09:01Z</time>
      </trkpt>
      <trkpt lat="47.508702026680112" lon="10.472520980983973">
        <ele>1078.74</ele>
        <time>2018-09-17T07:09:10Z</time>
      </trkpt>
      <trkpt lat="47.508285026997328" lon="10.474423002451658">
        <ele>1075.3699999999999</ele>
        <time>2018-09-17T07:09:23Z</time>
      </trkpt>
      <trkpt lat="47.508212020620704" lon="10.474703963845968">
        <ele>1075.8499999999999</ele>
        <time>2018-09-17T07:09:25Z</time>
      </trkpt>
      <trkpt lat="47.508169021457434" lon="10.474842013791203">
        <ele>1075.8499999999999</ele>
        <time>2018-09-17T07:09:26Z</time>
      </trkpt>
      <trkpt lat="47.508058967068791" lon="10.475099002942443">
        <ele>1075.8499999999999</ele>
        <time>2018-09-17T07:09:28Z</time>
      </trkpt>
      <trkpt lat="47.507913038134575" lon="10.475335037335753">
        <ele>1076.3299999999999</ele>
        <time>2018-09-17T07:09:30Z</time>
      </trkpt>
      <trkpt lat="47.507833996787667" lon="10.475463028997183">
        <ele>1076.8099999999999</ele>
        <time>2018-09-17T07:09:31Z</time>
      </trkpt>
      <trkpt lat="47.507735006511211" lon="10.475592026486993">
        <ele>1076.3299999999999</ele>
        <time>2018-09-17T07:09:32Z</time>
      </trkpt>
      <trkpt lat="47.507617995142937" lon="10.475700991228223">
        <ele>1076.3299999999999</ele>
        <time>2018-09-17T07:09:33Z</time>
      </trkpt>
      <trkpt lat="47.507491009309888" lon="10.475819008424878">
        <ele>1076.3299999999999</ele>
        <time>2018-09-17T07:09:34Z</time>
      </trkpt>
      <trkpt lat="47.507355976849794" lon="10.475945994257927">
        <ele>1076.8099999999999</ele>
        <time>2018-09-17T07:09:35Z</time>
      </trkpt>
      <trkpt lat="47.50693797133863" lon="10.476422002539039">
        <ele>1076.8099999999999</ele>
        <time>2018-09-17T07:09:38Z</time>
      </trkpt>
      <trkpt lat="47.506795981898904" lon="10.476614031940699">
        <ele>1076.3299999999999</ele>
        <time>2018-09-17T07:09:39Z</time>
      </trkpt>
      <trkpt lat="47.506654998287559" lon="10.476813018321991">
        <ele>1076.3299999999999</ele>
        <time>2018-09-17T07:09:40Z</time>
      </trkpt>
      <trkpt lat="47.506534969434142" lon="10.477053998038173">
        <ele>1076.3299999999999</ele>
        <time>2018-09-17T07:09:41Z</time>
      </trkpt>
      <trkpt lat="47.506429022178054" lon="10.477311993017793">
        <ele>1076.3299999999999</ele>
        <time>2018-09-17T07:09:42Z</time>
      </trkpt>
      <trkpt lat="47.506342018023133" lon="10.47758499160409">
        <ele>1076.3299999999999</ele>
        <time>2018-09-17T07:09:43Z</time>
      </trkpt>
      <trkpt lat="47.506282003596425" lon="10.477870982140303">
        <ele>1076.3299999999999</ele>
        <time>2018-09-17T07:09:44Z</time>
      </trkpt>
      <trkpt lat="47.506229029968381" lon="10.47816401347518">
        <ele>1076.3299999999999</ele>
        <time>2018-09-17T07:09:45Z</time>
      </trkpt>
      <trkpt lat="47.506175972521305" lon="10.478459978476167">
        <ele>1076.8099999999999</ele>
        <time>2018-09-17T07:09:46Z</time>
      </trkpt>
      <trkpt lat="47.506161974743009" lon="10.478771030902863">
        <ele>1076.8099999999999</ele>
        <time>2018-09-17T07:09:47Z</time>
      </trkpt>
      <trkpt lat="47.506152000278234" lon="10.479075964540243">
        <ele>1077.29</ele>
        <time>2018-09-17T07:09:48Z</time>
      </trkpt>
      <trkpt lat="47.506268005818129" lon="10.481720035895705">
        <ele>1076.8099999999999</ele>
        <time>2018-09-17T07:09:57Z</time>
      </trkpt>
      <trkpt lat="47.506887009367347" lon="10.485224006697536">
        <ele>1077.78</ele>
        <time>2018-09-17T07:10:10Z</time>
      </trkpt>
      <trkpt lat="47.506944006308913" lon="10.485743014141917">
        <ele>1078.74</ele>
        <time>2018-09-17T07:10:12Z</time>
      </trkpt>
      <trkpt lat="47.506964039057493" lon="10.486002014949918">
        <ele>1079.22</ele>
        <time>2018-09-17T07:10:13Z</time>
      </trkpt>
      <trkpt lat="47.506832024082541" lon="10.488521028310061">
        <ele>1084.02</ele>
        <time>2018-09-17T07:10:22Z</time>
      </trkpt>
      <trkpt lat="47.506409995257854" lon="10.490985978394747">
        <ele>1085.95</ele>
        <time>2018-09-17T07:10:31Z</time>
      </trkpt>
      <trkpt lat="47.50571496784687" lon="10.493954010307789">
        <ele>1088.3499999999999</ele>
        <time>2018-09-17T07:10:42Z</time>
      </trkpt>
      <trkpt lat="47.505123959854245" lon="10.498459031805396">
        <ele>1090.27</ele>
        <time>2018-09-17T07:10:58Z</time>
      </trkpt>
      <trkpt lat="47.504453994333744" lon="10.500172041356564">
        <ele>1091.23</ele>
        <time>2018-09-17T07:11:05Z</time>
      </trkpt>
      <trkpt lat="47.503397958353162" lon="10.501380963250995">
        <ele>1096.04</ele>
        <time>2018-09-17T07:11:12Z</time>
      </trkpt>
      <trkpt lat="47.501597022637725" lon="10.503086009994149">
        <ele>1105.1700000000001</ele>
        <time>2018-09-17T07:11:23Z</time>
      </trkpt>
      <trkpt lat="47.500957986339927" lon="10.504294009879231">
        <ele>1106.1300000000001</ele>
        <time>2018-09-17T07:11:29Z</time>
      </trkpt>
      <trkpt lat="47.500565964728594" lon="10.50583896227181">
        <ele>1104.21</ele>
        <time>2018-09-17T07:11:37Z</time>
      </trkpt>
      <trkpt lat="47.500537969172001" lon="10.507699996232986">
        <ele>1099.8900000000001</ele>
        <time>2018-09-17T07:11:44Z</time>
      </trkpt>
      <trkpt lat="47.50102898105979" lon="10.511330030858517">
        <ele>1095.0799999999999</ele>
        <time>2018-09-17T07:11:56Z</time>
      </trkpt>
      <trkpt lat="47.501321006566286" lon="10.514569971710443">
        <ele>1095.5599999999999</ele>
        <time>2018-09-17T07:12:06Z</time>
      </trkpt>
      <trkpt lat="47.501079021021724" lon="10.517121003940701">
        <ele>1096.52</ele>
        <time>2018-09-17T07:12:14Z</time>
      </trkpt>
      <trkpt lat="47.500477032735944" lon="10.519169960170984">
        <ele>1097.96</ele>
        <time>2018-09-17T07:12:21Z</time>
      </trkpt>
      <trkpt lat="47.499846965074539" lon="10.520844999700785">
        <ele>1098.9200000000001</ele>
        <time>2018-09-17T07:12:28Z</time>
      </trkpt>
      <trkpt lat="47.499383026733994" lon="10.522126005962491">
        <ele>1099.8900000000001</ele>
        <time>2018-09-17T07:12:36Z</time>
      </trkpt>
      <trkpt lat="47.49896502122283" lon="10.523795010522008">
        <ele>1100.8499999999999</ele>
        <time>2018-09-17T07:12:44Z</time>
      </trkpt>
      <trkpt lat="47.498713983222842" lon="10.526068015024066">
        <ele>1102.29</ele>
        <time>2018-09-17T07:12:54Z</time>
      </trkpt>
      <trkpt lat="47.498705014586449" lon="10.52863497287035">
        <ele>1103.73</ele>
        <time>2018-09-17T07:13:03Z</time>
      </trkpt>
      <trkpt lat="47.498724963515997" lon="10.532884011045098">
        <ele>1105.1700000000001</ele>
        <time>2018-09-17T07:13:17Z</time>
      </trkpt>
      <trkpt lat="47.498524971306324" lon="10.536882011219859">
        <ele>1104.6900000000001</ele>
        <time>2018-09-17T07:13:30Z</time>
      </trkpt>
      <trkpt lat="47.498136973008513" lon="10.540167968720198">
        <ele>1109.5</ele>
        <time>2018-09-17T07:13:41Z</time>
      </trkpt>
      <trkpt lat="47.497470024973154" lon="10.543432971462607">
        <ele>1110.9400000000001</ele>
        <time>2018-09-17T07:13:52Z</time>
      </trkpt>
      <trkpt lat="47.496975995600224" lon="10.54610101506114">
        <ele>1106.6099999999999</ele>
        <time>2018-09-17T07:14:01Z</time>
      </trkpt>
      <trkpt lat="47.496497975662351" lon="10.549665000289679">
        <ele>1107.0999999999999</ele>
        <time>2018-09-17T07:14:13Z</time>
      </trkpt>
      <trkpt lat="47.496256995946169" lon="10.551792997866869">
        <ele>1109.02</ele>
        <time>2018-09-17T07:14:20Z</time>
      </trkpt>
      <trkpt lat="47.496482972055674" lon="10.55390196852386">
        <ele>1110.46</ele>
        <time>2018-09-17T07:14:27Z</time>
      </trkpt>
      <trkpt lat="47.496489007025957" lon="10.554193994030356">
        <ele>1110.46</ele>
        <time>2018-09-17T07:14:28Z</time>
      </trkpt>
      <trkpt lat="47.496462017297745" lon="10.554461041465402">
        <ele>1109.98</ele>
        <time>2018-09-17T07:14:29Z</time>
      </trkpt>
      <trkpt lat="47.496414994820952" lon="10.554709983989596">
        <ele>1110.46</ele>
        <time>2018-09-17T07:14:30Z</time>
      </trkpt>
      <trkpt lat="47.496342994272709" lon="10.554939983412623">
        <ele>1110.46</ele>
        <time>2018-09-17T07:14:31Z</time>
      </trkpt>
      <trkpt lat="47.49623796902597" lon="10.555127989500761">
        <ele>1110.46</ele>
        <time>2018-09-17T07:14:32Z</time>
      </trkpt>
      <trkpt lat="47.496133027598262" lon="10.555317001417279">
        <ele>1110.9400000000001</ele>
        <time>2018-09-17T07:14:33Z</time>
      </trkpt>
      <trkpt lat="47.496020961552858" lon="10.555506013333797">
        <ele>1110.9400000000001</ele>
        <time>2018-09-17T07:14:34Z</time>
      </trkpt>
      <trkpt lat="47.49589397571981" lon="10.555660994723439">
        <ele>1111.4200000000001</ele>
        <time>2018-09-17T07:14:35Z</time>
      </trkpt>
      <trkpt lat="47.495771013200283" lon="10.555809019133449">
        <ele>1111.4200000000001</ele>
        <time>2018-09-17T07:14:36Z</time>
      </trkpt>
      <trkpt lat="47.494980012997985" lon="10.55686698295176">
        <ele>1113.8199999999999</ele>
        <time>2018-09-17T07:14:44Z</time>
      </trkpt>
      <trkpt lat="47.494656974449754" lon="10.557647002860904">
        <ele>1116.23</ele>
        <time>2018-09-17T07:14:50Z</time>
      </trkpt>
      <trkpt lat="47.494637025520205" lon="10.55778999812901">
        <ele>1116.23</ele>
        <time>2018-09-17T07:14:51Z</time>
      </trkpt>
      <trkpt lat="47.494621016085148" lon="10.557940034195781">
        <ele>1116.71</ele>
        <time>2018-09-17T07:14:52Z</time>
      </trkpt>
      <trkpt lat="47.49460500665009" lon="10.558088980615139">
        <ele>1116.71</ele>
        <time>2018-09-17T07:14:53Z</time>
      </trkpt>
      <trkpt lat="47.494588997215033" lon="10.558233987540007">
        <ele>1117.1900000000001</ele>
        <time>2018-09-17T07:14:54Z</time>
      </trkpt>
      <trkpt lat="47.494510961696506" lon="10.558961033821106">
        <ele>1119.1099999999999</ele>
        <time>2018-09-17T07:14:59Z</time>
      </trkpt>
      <trkpt lat="47.49441197142005" lon="10.559278037399054">
        <ele>1120.55</ele>
        <time>2018-09-17T07:15:02Z</time>
      </trkpt>
      <trkpt lat="47.494349023327231" lon="10.559348026290536">
        <ele>1121.03</ele>
        <time>2018-09-17T07:15:03Z</time>
      </trkpt>
      <trkpt lat="47.494279034435749" lon="10.559426983818412">
        <ele>1121.03</ele>
        <time>2018-09-17T07:15:04Z</time>
      </trkpt>
      <trkpt lat="47.494202004745603" lon="10.559484986588359">
        <ele>1121.52</ele>
        <time>2018-09-17T07:15:05Z</time>
      </trkpt>
      <trkpt lat="47.494109971448779" lon="10.559518011286855">
        <ele>1121.52</ele>
        <time>2018-09-17T07:15:06Z</time>
      </trkpt>
      <trkpt lat="47.494015004485846" lon="10.55955296382308">
        <ele>1121.52</ele>
        <time>2018-09-17T07:15:07Z</time>
      </trkpt>
      <trkpt lat="47.4930140376091" lon="10.56002302095294">
        <ele>1124.4000000000001</ele>
        <time>2018-09-17T07:15:17Z</time>
      </trkpt>
      <trkpt lat="47.4927550368011" lon="10.560214966535568">
        <ele>1124.4000000000001</ele>
        <time>2018-09-17T07:15:20Z</time>
      </trkpt>
      <trkpt lat="47.492682030424476" lon="10.560269029811025">
        <ele>1124.4000000000001</ele>
        <time>2018-09-17T07:15:21Z</time>
      </trkpt>
      <trkpt lat="47.492612041532993" lon="10.560334995388985">
        <ele>1124.8800000000001</ele>
        <time>2018-09-17T07:15:22Z</time>
      </trkpt>
      <trkpt lat="47.492554038763046" lon="10.560419987887144">
        <ele>1124.8800000000001</ele>
        <time>2018-09-17T07:15:23Z</time>
      </trkpt>
      <trkpt lat="47.492494024336338" lon="10.560506992042065">
        <ele>1125.3599999999999</ele>
        <time>2018-09-17T07:15:24Z</time>
      </trkpt>
      <trkpt lat="47.492431998252869" lon="10.560597013682127">
        <ele>1125.8399999999999</ele>
        <time>2018-09-17T07:15:25Z</time>
      </trkpt>
      <trkpt lat="47.49237097799778" lon="10.560710001736879">
        <ele>1126.3199999999999</ele>
        <time>2018-09-17T07:15:26Z</time>
      </trkpt>
      <trkpt lat="47.492338037118316" lon="10.560857020318508">
        <ele>1126.3199999999999</ele>
        <time>2018-09-17T07:15:27Z</time>
      </trkpt>
      <trkpt lat="47.49232797883451" lon="10.561009990051389">
        <ele>1126.8</ele>
        <time>2018-09-17T07:15:28Z</time>
      </trkpt>
      <trkpt lat="47.492324961349368" lon="10.56116396561265">
        <ele>1126.8</ele>
        <time>2018-09-17T07:15:29Z</time>
      </trkpt>
      <trkpt lat="47.492321021854877" lon="10.561320036649704">
        <ele>1127.28</ele>
        <time>2018-09-17T07:15:30Z</time>
      </trkpt>
      <trkpt lat="47.492316998541355" lon="10.561482980847359">
        <ele>1127.28</ele>
        <time>2018-09-17T07:15:31Z</time>
      </trkpt>
      <trkpt lat="47.492312975227833" lon="10.561649026349187">
        <ele>1127.28</ele>
        <time>2018-09-17T07:15:32Z</time>
      </trkpt>
      <trkpt lat="47.492297971621156" lon="10.562692992389202">
        <ele>1127.28</ele>
        <time>2018-09-17T07:15:38Z</time>
      </trkpt>
      <trkpt lat="47.492525959387422" lon="10.564287984743714">
        <ele>1125.8399999999999</ele>
        <time>2018-09-17T07:15:47Z</time>
      </trkpt>
      <trkpt lat="47.492652023211122" lon="10.565564967691898">
        <ele>1124.4000000000001</ele>
        <time>2018-09-17T07:15:54Z</time>
      </trkpt>
      <trkpt lat="47.492697034031153" lon="10.565716009587049">
        <ele>1123.9200000000001</ele>
        <time>2018-09-17T07:15:55Z</time>
      </trkpt>
      <trkpt lat="47.492759982123971" lon="10.565929999575019">
        <ele>1123.9200000000001</ele>
        <time>2018-09-17T07:15:56Z</time>
      </trkpt>
      <trkpt lat="47.492819996550679" lon="10.566101996228099">
        <ele>1123.4400000000001</ele>
        <time>2018-09-17T07:15:57Z</time>
      </trkpt>
      <trkpt lat="47.492890991270542" lon="10.566304000094533">
        <ele>1122.96</ele>
        <time>2018-09-17T07:15:58Z</time>
      </trkpt>
      <trkpt lat="47.493435982614756" lon="10.568155981600285">
        <ele>1122.96</ele>
        <time>2018-09-17T07:16:06Z</time>
      </trkpt>
      <trkpt lat="47.493645027279854" lon="10.569168012589216">
        <ele>1123.4400000000001</ele>
        <time>2018-09-17T07:16:10Z</time>
      </trkpt>
      <trkpt lat="47.493862034752965" lon="10.571660036221147">
        <ele>1123.9200000000001</ele>
        <time>2018-09-17T07:16:20Z</time>
      </trkpt>
      <trkpt lat="47.493889024481177" lon="10.572916986420751">
        <ele>1124.4000000000001</ele>
        <time>2018-09-17T07:16:25Z</time>
      </trkpt>
      <trkpt lat="47.49391601420939" lon="10.573159977793694">
        <ele>1124.8800000000001</ele>
        <time>2018-09-17T07:16:26Z</time>
      </trkpt>
      <trkpt lat="47.493944009765983" lon="10.573412021622062">
        <ele>1125.3599999999999</ele>
        <time>2018-09-17T07:16:27Z</time>
      </trkpt>
      <trkpt lat="47.493972005322576" lon="10.573665993288159">
        <ele>1125.3599999999999</ele>
        <time>2018-09-17T07:16:28Z</time>
      </trkpt>
      <trkpt lat="47.493998995050788" lon="10.573910996317863">
        <ele>1125.3599999999999</ele>
        <time>2018-09-17T07:16:29Z</time>
      </trkpt>
      <trkpt lat="47.494051968678832" lon="10.574358003214002">
        <ele>1124.8800000000001</ele>
        <time>2018-09-17T07:16:31Z</time>
      </trkpt>
      <trkpt lat="47.494112988933921" lon="10.57457098737359">
        <ele>1124.4000000000001</ele>
        <time>2018-09-17T07:16:32Z</time>
      </trkpt>
      <trkpt lat="47.494167974218726" lon="10.574804004281759">
        <ele>1124.4000000000001</ele>
        <time>2018-09-17T07:16:33Z</time>
      </trkpt>
      <trkpt lat="47.494221031665802" lon="10.575049007311463">
        <ele>1123.9200000000001</ele>
        <time>2018-09-17T07:16:34Z</time>
      </trkpt>
      <trkpt lat="47.494274005293846" lon="10.575295016169548">
        <ele>1123.9200000000001</ele>
        <time>2018-09-17T07:16:35Z</time>
      </trkpt>
      <trkpt lat="47.494309963658452" lon="10.575546976178885">
        <ele>1123.4400000000001</ele>
        <time>2018-09-17T07:16:36Z</time>
      </trkpt>
      <trkpt lat="47.494322033599019" lon="10.575807988643646">
        <ele>1123.4400000000001</ele>
        <time>2018-09-17T07:16:37Z</time>
      </trkpt>
      <trkpt lat="47.494466034695506" lon="10.577652007341385">
        <ele>1121.52</ele>
        <time>2018-09-17T07:16:45Z</time>
      </trkpt>
      <trkpt lat="47.49475403688848" lon="10.579496026039124">
        <ele>1120.55</ele>
        <time>2018-09-17T07:16:53Z</time>
      </trkpt>
      <trkpt lat="47.494907006621361" lon="10.580190969631076">
        <ele>1120.55</ele>
        <time>2018-09-17T07:16:56Z</time>
      </trkpt>
      <trkpt lat="47.494931984692812" lon="10.58043303899467">
        <ele>1120.0699999999999</ele>
        <time>2018-09-17T07:16:57Z</time>
      </trkpt>
      <trkpt lat="47.494985964149237" lon="10.581784034147859">
        <ele>1118.6300000000001</ele>
        <time>2018-09-17T07:17:04Z</time>
      </trkpt>
      <trkpt lat="47.494982024654746" lon="10.582167003303766">
        <ele>1119.5899999999999</ele>
        <time>2018-09-17T07:17:07Z</time>
      </trkpt>
      <trkpt lat="47.494965009391308" lon="10.582276973873377">
        <ele>1119.5899999999999</ele>
        <time>2018-09-17T07:17:08Z</time>
      </trkpt>
      <trkpt lat="47.49494799412787" lon="10.582389961928129">
        <ele>1119.5899999999999</ele>
        <time>2018-09-17T07:17:09Z</time>
      </trkpt>
      <trkpt lat="47.494929973036051" lon="10.582507979124784">
        <ele>1120.0699999999999</ele>
        <time>2018-09-17T07:17:10Z</time>
      </trkpt>
      <trkpt lat="47.494912035763264" lon="10.58262599632144">
        <ele>1120.0699999999999</ele>
        <time>2018-09-17T07:17:11Z</time>
      </trkpt>
      <trkpt lat="47.494871970266104" lon="10.582748958840966">
        <ele>1120.55</ele>
        <time>2018-09-17T07:17:12Z</time>
      </trkpt>
      <trkpt lat="47.494826037436724" lon="10.582860019057989">
        <ele>1121.03</ele>
        <time>2018-09-17T07:17:13Z</time>
      </trkpt>
      <trkpt lat="47.49449503608048" lon="10.583677003160119">
        <ele>1124.8800000000001</ele>
        <time>2018-09-17T07:17:21Z</time>
      </trkpt>
      <trkpt lat="47.494481960311532" lon="10.58378697372973">
        <ele>1125.3599999999999</ele>
        <time>2018-09-17T07:17:22Z</time>
      </trkpt>
      <trkpt lat="47.494469974189997" lon="10.583897028118372">
        <ele>1125.8399999999999</ele>
        <time>2018-09-17T07:17:23Z</time>
      </trkpt>
      <trkpt lat="47.494456982240081" lon="10.584003981202841">
        <ele>1126.3199999999999</ele>
        <time>2018-09-17T07:17:24Z</time>
      </trkpt>
      <trkpt lat="47.494444996118546" lon="10.584110012277961">
        <ele>1126.8</ele>
        <time>2018-09-17T07:17:25Z</time>
      </trkpt>
      <trkpt lat="47.49443200416863" lon="10.584215959534049">
        <ele>1127.28</ele>
        <time>2018-09-17T07:17:26Z</time>
      </trkpt>
      <trkpt lat="47.494420018047094" lon="10.584327019751072">
        <ele>1127.76</ele>
        <time>2018-09-17T07:17:27Z</time>
      </trkpt>
      <trkpt lat="47.494406020268798" lon="10.584440007805824">
        <ele>1128.24</ele>
        <time>2018-09-17T07:17:28Z</time>
      </trkpt>
      <trkpt lat="47.494392022490501" lon="10.58456196449697">
        <ele>1128.73</ele>
        <time>2018-09-17T07:17:29Z</time>
      </trkpt>
      <trkpt lat="47.494350029155612" lon="10.584678975865245">
        <ele>1129.21</ele>
        <time>2018-09-17T07:17:30Z</time>
      </trkpt>
      <trkpt lat="47.494262019172311" lon="10.584897994995117">
        <ele>1129.6900000000001</ele>
        <time>2018-09-17T07:17:32Z</time>
      </trkpt>
      <trkpt lat="47.49421700835228" lon="10.585008971393108">
        <ele>1129.6900000000001</ele>
        <time>2018-09-17T07:17:33Z</time>
      </trkpt>
      <trkpt lat="47.494061021134257" lon="10.585423959419131">
        <ele>1131.6099999999999</ele>
        <time>2018-09-17T07:17:37Z</time>
      </trkpt>
      <trkpt lat="47.494025984779" lon="10.585520016029477">
        <ele>1132.0899999999999</ele>
        <time>2018-09-17T07:17:38Z</time>
      </trkpt>
      <trkpt lat="47.493965970352292" lon="10.585614982992411">
        <ele>1132.5699999999999</ele>
        <time>2018-09-17T07:17:39Z</time>
      </trkpt>
      <trkpt lat="47.493915008381009" lon="10.585694024339318">
        <ele>1133.05</ele>
        <time>2018-09-17T07:17:40Z</time>
      </trkpt>
      <trkpt lat="47.49385398812592" lon="10.585768958553672">
        <ele>1133.05</ele>
        <time>2018-09-17T07:17:41Z</time>
      </trkpt>
      <trkpt lat="47.493782993406057" lon="10.585811035707593">
        <ele>1133.53</ele>
        <time>2018-09-17T07:17:42Z</time>
      </trkpt>
      <trkpt lat="47.493706969544291" lon="10.585855962708592">
        <ele>1134.01</ele>
        <time>2018-09-17T07:17:43Z</time>
      </trkpt>
      <trkpt lat="47.493628012016416" lon="10.585902985185385">
        <ele>1134.49</ele>
        <time>2018-09-17T07:17:44Z</time>
      </trkpt>
      <trkpt lat="47.493361970409751" lon="10.586060984060168">
        <ele>1134.97</ele>
        <time>2018-09-17T07:17:47Z</time>
      </trkpt>
      <trkpt lat="47.49327102676034" lon="10.586124015972018">
        <ele>1135.45</ele>
        <time>2018-09-17T07:17:48Z</time>
      </trkpt>
      <trkpt lat="47.493176981806755" lon="10.586217977106571">
        <ele>1135.45</ele>
        <time>2018-09-17T07:17:49Z</time>
      </trkpt>
      <trkpt lat="47.492976989597082" lon="10.586417969316244">
        <ele>1135.9400000000001</ele>
        <time>2018-09-17T07:17:51Z</time>
      </trkpt>
      <trkpt lat="47.49286400154233" lon="10.586519977077842">
        <ele>1135.9400000000001</ele>
        <time>2018-09-17T07:17:52Z</time>
      </trkpt>
      <trkpt lat="47.492622015997767" lon="10.586741007864475">
        <ele>1136.4200000000001</ele>
        <time>2018-09-17T07:17:54Z</time>
      </trkpt>
      <trkpt lat="47.492501987144351" lon="10.586850978434086">
        <ele>1136.9000000000001</ele>
        <time>2018-09-17T07:17:55Z</time>
      </trkpt>
      <trkpt lat="47.492394028231502" lon="10.587011994794011">
        <ele>1137.3800000000001</ele>
        <time>2018-09-17T07:17:56Z</time>
      </trkpt>
      <trkpt lat="47.492286991328001" lon="10.587174016982317">
        <ele>1138.3399999999999</ele>
        <time>2018-09-17T07:17:57Z</time>
      </trkpt>
      <trkpt lat="47.492186995223165" lon="10.587335033342242">
        <ele>1139.3</ele>
        <time>2018-09-17T07:17:58Z</time>
      </trkpt>
      <trkpt lat="47.492117006331682" lon="10.587494038045406">
        <ele>1140.26</ele>
        <time>2018-09-17T07:17:59Z</time>
      </trkpt>
      <trkpt lat="47.491485010832548" lon="10.588777977973223">
        <ele>1146.03</ele>
        <time>2018-09-17T07:18:08Z</time>
      </trkpt>
      <trkpt lat="47.490572975948453" lon="10.590534992516041">
        <ele>1151.8</ele>
        <time>2018-09-17T07:18:17Z</time>
      </trkpt>
      <trkpt lat="47.489873003214598" lon="10.591848017647862">
        <ele>1152.28</ele>
        <time>2018-09-17T07:18:23Z</time>
      </trkpt>
      <trkpt lat="47.489775018766522" lon="10.592107018455863">
        <ele>1152.28</ele>
        <time>2018-09-17T07:18:24Z</time>
      </trkpt>
      <trkpt lat="47.489056019112468" lon="10.59461303986609">
        <ele>1153.72</ele>
        <time>2018-09-17T07:18:33Z</time>
      </trkpt>
      <trkpt lat="47.489008996635675" lon="10.594909004867077">
        <ele>1153.72</ele>
        <time>2018-09-17T07:18:34Z</time>
      </trkpt>
      <trkpt lat="47.488767011091113" lon="10.596253965049982">
        <ele>1154.6800000000001</ele>
        <time>2018-09-17T07:18:39Z</time>
      </trkpt>
      <trkpt lat="47.48867497779429" lon="10.596482958644629">
        <ele>1154.6800000000001</ele>
        <time>2018-09-17T07:18:40Z</time>
      </trkpt>
      <trkpt lat="47.488585961982608" lon="10.596706001088023">
        <ele>1154.6800000000001</ele>
        <time>2018-09-17T07:18:41Z</time>
      </trkpt>
      <trkpt lat="47.488433998078108" lon="10.597130041569471">
        <ele>1154.2</ele>
        <time>2018-09-17T07:18:43Z</time>
      </trkpt>
      <trkpt lat="47.488377001136541" lon="10.59734595939517">
        <ele>1154.2</ele>
        <time>2018-09-17T07:18:44Z</time>
      </trkpt>
      <trkpt lat="47.488335007801652" lon="10.597572019323707">
        <ele>1154.2</ele>
        <time>2018-09-17T07:18:45Z</time>
      </trkpt>
      <trkpt lat="47.487957989796996" lon="10.599522991105914">
        <ele>1151.3199999999999</ele>
        <time>2018-09-17T07:18:53Z</time>
      </trkpt>
      <trkpt lat="47.48757703229785" lon="10.601544035598636">
        <ele>1147.95</ele>
        <time>2018-09-17T07:19:01Z</time>
      </trkpt>
      <trkpt lat="47.487175958231091" lon="10.602770978584886">
        <ele>1145.55</ele>
        <time>2018-09-17T07:19:06Z</time>
      </trkpt>
      <trkpt lat="47.487060036510229" lon="10.602986980229616">
        <ele>1144.5899999999999</ele>
        <time>2018-09-17T07:19:07Z</time>
      </trkpt>
      <trkpt lat="47.4869130179286" lon="10.603169035166502">
        <ele>1143.6300000000001</ele>
        <time>2018-09-17T07:19:08Z</time>
      </trkpt>
      <trkpt lat="47.486764993518591" lon="10.603352012112737">
        <ele>1143.1400000000001</ele>
        <time>2018-09-17T07:19:09Z</time>
      </trkpt>
      <trkpt lat="47.486614035442472" lon="10.603527026250958">
        <ele>1142.1800000000001</ele>
        <time>2018-09-17T07:19:10Z</time>
      </trkpt>
      <trkpt lat="47.486444972455502" lon="10.603665998205543">
        <ele>1140.74</ele>
        <time>2018-09-17T07:19:11Z</time>
      </trkpt>
      <trkpt lat="47.486274987459183" lon="10.603803964331746">
        <ele>1139.78</ele>
        <time>2018-09-17T07:19:12Z</time>
      </trkpt>
      <trkpt lat="47.486091004684567" lon="10.603885017335415">
        <ele>1138.8199999999999</ele>
        <time>2018-09-17T07:19:13Z</time>
      </trkpt>
      <trkpt lat="47.485905010253191" lon="10.603966992348433">
        <ele>1137.8599999999999</ele>
        <time>2018-09-17T07:19:14Z</time>
      </trkpt>
      <trkpt lat="47.485714992508292" lon="10.604043016210198">
        <ele>1137.3800000000001</ele>
        <time>2018-09-17T07:19:15Z</time>
      </trkpt>
      <trkpt lat="47.485524974763393" lon="10.604075035080314">
        <ele>1136.9000000000001</ele>
        <time>2018-09-17T07:19:16Z</time>
      </trkpt>
      <trkpt lat="47.485334035009146" lon="10.604107975959778">
        <ele>1136.4200000000001</ele>
        <time>2018-09-17T07:19:17Z</time>
      </trkpt>
      <trkpt lat="47.483656983822584" lon="10.604739971458912">
        <ele>1131.6099999999999</ele>
        <time>2018-09-17T07:19:26Z</time>
      </trkpt>
      <trkpt lat="47.482405984774232" lon="10.606021983548999">
        <ele>1128.73</ele>
        <time>2018-09-17T07:19:34Z</time>
      </trkpt>
      <trkpt lat="47.48111198656261" lon="10.608106981962919">
        <ele>1128.24</ele>
        <time>2018-09-17T07:19:44Z</time>
      </trkpt>
      <trkpt lat="47.479470977559686" lon="10.610937969759107">
        <ele>1125.3599999999999</ele>
        <time>2018-09-17T07:19:57Z</time>
      </trkpt>
      <trkpt lat="47.478576963767409" lon="10.613454971462488">
        <ele>1122.96</ele>
        <time>2018-09-17T07:20:07Z</time>
      </trkpt>
      <trkpt lat="47.478017974644899" lon="10.616447981446981">
        <ele>1124.4000000000001</ele>
        <time>2018-09-17T07:20:18Z</time>
      </trkpt>
      <trkpt lat="47.477450016885996" lon="10.618564998731017">
        <ele>1125.3599999999999</ele>
        <time>2018-09-17T07:20:26Z</time>
      </trkpt>
      <trkpt lat="47.47649297118187" lon="10.61998900026083">
        <ele>1122.96</ele>
        <time>2018-09-17T07:20:33Z</time>
      </trkpt>
      <trkpt lat="47.475264016538858" lon="10.620820987969637">
        <ele>1114.79</ele>
        <time>2018-09-17T07:20:40Z</time>
      </trkpt>
      <trkpt lat="47.473740018904209" lon="10.621014023199677">
        <ele>1108.0599999999999</ele>
        <time>2018-09-17T07:20:48Z</time>
      </trkpt>
      <trkpt lat="47.471816958859563" lon="10.620615966618061">
        <ele>1101.3299999999999</ele>
        <time>2018-09-17T07:20:58Z</time>
      </trkpt>
      <trkpt lat="47.471046997234225" lon="10.620543966069818">
        <ele>1098.4400000000001</ele>
        <time>2018-09-17T07:21:02Z</time>
      </trkpt>
      <trkpt lat="47.470857985317707" lon="10.620491998270154">
        <ele>1097.96</ele>
        <time>2018-09-17T07:21:03Z</time>
      </trkpt>
      <trkpt lat="47.470669979229569" lon="10.620441036298871">
        <ele>1097</ele>
        <time>2018-09-17T07:21:04Z</time>
      </trkpt>
      <trkpt lat="47.470483984798193" lon="10.620342968031764">
        <ele>1096.52</ele>
        <time>2018-09-17T07:21:05Z</time>
      </trkpt>
      <trkpt lat="47.470302013680339" lon="10.620237020775676">
        <ele>1095.0799999999999</ele>
        <time>2018-09-17T07:21:06Z</time>
      </trkpt>
      <trkpt lat="47.468825960531831" lon="10.619573006406426">
        <ele>1088.3499999999999</ele>
        <time>2018-09-17T07:21:14Z</time>
      </trkpt>
      <trkpt lat="47.467114962637424" lon="10.619202023372054">
        <ele>1081.1400000000001</ele>
        <time>2018-09-17T07:21:23Z</time>
      </trkpt>
      <trkpt lat="47.466940032318234" lon="10.619091968983412">
        <ele>1080.1800000000001</ele>
        <time>2018-09-17T07:21:24Z</time>
      </trkpt>
      <trkpt lat="47.465674029663205" lon="10.618423009291291">
        <ele>1076.8099999999999</ele>
        <time>2018-09-17T07:21:31Z</time>
      </trkpt>
      <trkpt lat="47.465486023575068" lon="10.61840096488595">
        <ele>1076.8099999999999</ele>
        <time>2018-09-17T07:21:32Z</time>
      </trkpt>
      <trkpt lat="47.46471899561584" lon="10.618353020399809">
        <ele>1075.3699999999999</ele>
        <time>2018-09-17T07:21:36Z</time>
      </trkpt>
      <trkpt lat="47.464351030066609" lon="10.618197033181787">
        <ele>1074.8900000000001</ele>
        <time>2018-09-17T07:21:38Z</time>
      </trkpt>
      <trkpt lat="47.464171992614865" lon="10.618111034855247">
        <ele>1073.9300000000001</ele>
        <time>2018-09-17T07:21:39Z</time>
      </trkpt>
      <trkpt lat="47.463999995961785" lon="10.617984971031547">
        <ele>1073.9300000000001</ele>
        <time>2018-09-17T07:21:40Z</time>
      </trkpt>
      <trkpt lat="47.463837973773479" lon="10.617824960500002">
        <ele>1073.45</ele>
        <time>2018-09-17T07:21:41Z</time>
      </trkpt>
      <trkpt lat="47.463689027354121" lon="10.617650030180812">
        <ele>1072.97</ele>
        <time>2018-09-17T07:21:42Z</time>
      </trkpt>
      <trkpt lat="47.462253961712122" lon="10.616194009780884">
        <ele>1071.05</ele>
        <time>2018-09-17T07:21:51Z</time>
      </trkpt>
      <trkpt lat="47.462090011686087" lon="10.616052020341158">
        <ele>1071.05</ele>
        <time>2018-09-17T07:21:52Z</time>
      </trkpt>
      <trkpt lat="47.461914997547865" lon="10.615970967337489">
        <ele>1071.53</ele>
        <time>2018-09-17T07:21:53Z</time>
      </trkpt>
      <trkpt lat="47.461736965924501" lon="10.615930985659361">
        <ele>1071.53</ele>
        <time>2018-09-17T07:21:54Z</time>
      </trkpt>
      <trkpt lat="47.461567986756563" lon="10.615941965952516">
        <ele>1072.01</ele>
        <time>2018-09-17T07:21:55Z</time>
      </trkpt>
      <trkpt lat="47.461405964568257" lon="10.61599301174283">
        <ele>1072.49</ele>
        <time>2018-09-17T07:21:56Z</time>
      </trkpt>
      <trkpt lat="47.461252994835377" lon="10.616095019504428">
        <ele>1072.97</ele>
        <time>2018-09-17T07:21:57Z</time>
      </trkpt>
      <trkpt lat="47.461102036759257" lon="10.616195015609264">
        <ele>1073.45</ele>
        <time>2018-09-17T07:21:58Z</time>
      </trkpt>
      <trkpt lat="47.460968010127544" lon="10.616310015320778">
        <ele>1074.4100000000001</ele>
        <time>2018-09-17T07:21:59Z</time>
      </trkpt>
      <trkpt lat="47.459630006924272" lon="10.61758297495544">
        <ele>1076.8099999999999</ele>
        <time>2018-09-17T07:22:09Z</time>
      </trkpt>
      <trkpt lat="47.45954199694097" lon="10.617782967165112">
        <ele>1076.8099999999999</ele>
        <time>2018-09-17T07:22:10Z</time>
      </trkpt>
      <trkpt lat="47.459480976685882" lon="10.61799000017345">
        <ele>1076.8099999999999</ele>
        <time>2018-09-17T07:22:11Z</time>
      </trkpt>
      <trkpt lat="47.459437977522612" lon="10.618227040395141">
        <ele>1076.8099999999999</ele>
        <time>2018-09-17T07:22:12Z</time>
      </trkpt>
      <trkpt lat="47.459394978359342" lon="10.618471037596464">
        <ele>1076.8099999999999</ele>
        <time>2018-09-17T07:22:13Z</time>
      </trkpt>
      <trkpt lat="47.459350973367691" lon="10.618715034797788">
        <ele>1077.29</ele>
        <time>2018-09-17T07:22:14Z</time>
      </trkpt>
      <trkpt lat="47.45930696837604" lon="10.618959031999111">
        <ele>1077.29</ele>
        <time>2018-09-17T07:22:15Z</time>
      </trkpt>
      <trkpt lat="47.459251983091235" lon="10.619193976745009">
        <ele>1077.78</ele>
        <time>2018-09-17T07:22:16Z</time>
      </trkpt>
      <trkpt lat="47.459183000028133" lon="10.619423976168036">
        <ele>1077.78</ele>
        <time>2018-09-17T07:22:17Z</time>
      </trkpt>
      <trkpt lat="47.459075963124633" lon="10.619612988084555">
        <ele>1078.26</ele>
        <time>2018-09-17T07:22:18Z</time>
      </trkpt>
      <trkpt lat="47.458945037797093" lon="10.619777021929622">
        <ele>1078.26</ele>
        <time>2018-09-17T07:22:19Z</time>
      </trkpt>
      <trkpt lat="47.458812016993761" lon="10.619926974177361">
        <ele>1078.74</ele>
        <time>2018-09-17T07:22:20Z</time>
      </trkpt>
      <trkpt lat="47.458644965663552" lon="10.619997968897223">
        <ele>1079.22</ele>
        <time>2018-09-17T07:22:21Z</time>
      </trkpt>
      <trkpt lat="47.458471041172743" lon="10.620072986930609">
        <ele>1079.7</ele>
        <time>2018-09-17T07:22:22Z</time>
      </trkpt>
      <trkpt lat="47.45829401537776" lon="10.620131995528936">
        <ele>1080.1800000000001</ele>
        <time>2018-09-17T07:22:23Z</time>
      </trkpt>
      <trkpt lat="47.457386003807187" lon="10.620403988286853">
        <ele>1080.6600000000001</ele>
        <time>2018-09-17T07:22:28Z</time>
      </trkpt>
      <trkpt lat="47.457224987447262" lon="10.620503984391689">
        <ele>1080.6600000000001</ele>
        <time>2018-09-17T07:22:29Z</time>
      </trkpt>
      <trkpt lat="47.457088027149439" lon="10.620663994923234">
        <ele>1080.6600000000001</ele>
        <time>2018-09-17T07:22:30Z</time>
      </trkpt>
      <trkpt lat="47.456966992467642" lon="10.62084998935461">
        <ele>1080.6600000000001</ele>
        <time>2018-09-17T07:22:31Z</time>
      </trkpt>
      <trkpt lat="47.456865990534425" lon="10.621069008484483">
        <ele>1080.1800000000001</ele>
        <time>2018-09-17T07:22:32Z</time>
      </trkpt>
      <trkpt lat="47.456763982772827" lon="10.621291967108846">
        <ele>1080.1800000000001</ele>
        <time>2018-09-17T07:22:33Z</time>
      </trkpt>
      <trkpt lat="47.456558039411902" lon="10.621737968176603">
        <ele>1079.7</ele>
        <time>2018-09-17T07:22:35Z</time>
      </trkpt>
      <trkpt lat="47.456417977809906" lon="10.621914993971586">
        <ele>1079.7</ele>
        <time>2018-09-17T07:22:36Z</time>
      </trkpt>
      <trkpt lat="47.456260984763503" lon="10.622052038088441">
        <ele>1079.7</ele>
        <time>2018-09-17T07:22:37Z</time>
      </trkpt>
      <trkpt lat="47.456098040565848" lon="10.622195033356547">
        <ele>1079.22</ele>
        <time>2018-09-17T07:22:38Z</time>
      </trkpt>
      <trkpt lat="47.455933000892401" lon="10.622340040281415">
        <ele>1079.22</ele>
        <time>2018-09-17T07:22:39Z</time>
      </trkpt>
      <trkpt lat="47.454674961045384" lon="10.623423987999558">
        <ele>1076.8099999999999</ele>
        <time>2018-09-17T07:22:47Z</time>
      </trkpt>
      <trkpt lat="47.454543029889464" lon="10.62349003739655">
        <ele>1076.3299999999999</ele>
        <time>2018-09-17T07:22:48Z</time>
      </trkpt>
      <trkpt lat="47.454435992985964" lon="10.623543011024594">
        <ele>1075.8499999999999</ele>
        <time>2018-09-17T07:22:49Z</time>
      </trkpt>
      <trkpt lat="47.454375978559256" lon="10.623572012409568">
        <ele>1075.3699999999999</ele>
        <time>2018-09-17T07:22:50Z</time>
      </trkpt>
      <trkpt lat="47.454323004931211" lon="10.623596990481019">
        <ele>1074.8900000000001</ele>
        <time>2018-09-17T07:22:51Z</time>
      </trkpt>
      <trkpt lat="47.4542769882828" lon="10.62361802905798">
        <ele>1074.4100000000001</ele>
        <time>2018-09-17T07:22:52Z</time>
      </trkpt>
      <trkpt lat="47.454137010499835" lon="10.62368399463594">
        <ele>1071.53</ele>
        <time>2018-09-17T07:23:00Z</time>
      </trkpt>
      <trkpt lat="47.454137010499835" lon="10.62368399463594">
        <ele>1070.5699999999999</ele>
        <time>2018-09-17T07:23:29Z</time>
      </trkpt>
      <trkpt lat="47.454137010499835" lon="10.62368399463594">
        <ele>1072.01</ele>
        <time>2018-09-17T07:23:46Z</time>
      </trkpt>
      <trkpt lat="47.454137010499835" lon="10.62368399463594">
        <ele>1071.53</ele>
        <time>2018-09-17T07:23:52Z</time>
      </trkpt>
      <trkpt lat="47.454179003834724" lon="10.62353203073144">
        <ele>1071.53</ele>
        <time>2018-09-17T07:24:01Z</time>
      </trkpt>
      <trkpt lat="47.454176992177963" lon="10.623525995761156">
        <ele>1072.01</ele>
        <time>2018-09-17T07:24:47Z</time>
      </trkpt>
      <trkpt lat="47.454179003834724" lon="10.623524989932775">
        <ele>1072.01</ele>
        <time>2018-09-17T07:25:38Z</time>
      </trkpt>
      <trkpt lat="47.454183027148247" lon="10.623480984941125">
        <ele>1072.97</ele>
        <time>2018-09-17T07:26:04Z</time>
      </trkpt>
      <trkpt lat="47.454183027148247" lon="10.62366203404963">
        <ele>1073.9300000000001</ele>
        <time>2018-09-17T07:26:07Z</time>
      </trkpt>
      <trkpt lat="47.454156959429383" lon="10.623675025999546">
        <ele>1073.9300000000001</ele>
        <time>2018-09-17T07:26:08Z</time>
      </trkpt>
      <trkpt lat="47.454071966931224" lon="10.623715007677674">
        <ele>1073.9300000000001</ele>
        <time>2018-09-17T07:26:09Z</time>
      </trkpt>
      <trkpt lat="47.454071966931224" lon="10.623715007677674">
        <ele>1074.4100000000001</ele>
        <time>2018-09-17T07:26:10Z</time>
      </trkpt>
      <trkpt lat="47.454071966931224" lon="10.623715007677674">
        <ele>1074.4100000000001</ele>
        <time>2018-09-17T07:26:11Z</time>
      </trkpt>
      <trkpt lat="47.45406299829483" lon="10.623721964657307">
        <ele>1074.4100000000001</ele>
        <time>2018-09-17T07:26:13Z</time>
      </trkpt>
      <trkpt lat="47.454006001353264" lon="10.62376999296248">
        <ele>1074.4100000000001</ele>
        <time>2018-09-17T07:26:14Z</time>
      </trkpt>
      <trkpt lat="47.453926960006356" lon="10.623837970197201">
        <ele>1073.45</ele>
        <time>2018-09-17T07:26:15Z</time>
      </trkpt>
      <trkpt lat="47.453164039179683" lon="10.624486980959773">
        <ele>1069.1199999999999</ele>
        <time>2018-09-17T07:26:22Z</time>
      </trkpt>
      <trkpt lat="47.452412014827132" lon="10.625181002542377">
        <ele>1062.8699999999999</ele>
        <time>2018-09-17T07:26:28Z</time>
      </trkpt>
      <trkpt lat="47.452312018722296" lon="10.625345036387444">
        <ele>1061.9100000000001</ele>
        <time>2018-09-17T07:26:29Z</time>
      </trkpt>
      <trkpt lat="47.452226020395756" lon="10.625517033040524">
        <ele>1060.47</ele>
        <time>2018-09-17T07:26:30Z</time>
      </trkpt>
      <trkpt lat="47.452159970998764" lon="10.625708978623152">
        <ele>1059.99</ele>
        <time>2018-09-17T07:26:31Z</time>
      </trkpt>
      <trkpt lat="47.452097022905946" lon="10.625892039388418">
        <ele>1059.03</ele>
        <time>2018-09-17T07:26:32Z</time>
      </trkpt>
      <trkpt lat="47.452038014307618" lon="10.626063030213118">
        <ele>1058.0699999999999</ele>
        <time>2018-09-17T07:26:33Z</time>
      </trkpt>
      <trkpt lat="47.45199803262949" lon="10.626227986067533">
        <ele>1057.1099999999999</ele>
        <time>2018-09-17T07:26:34Z</time>
      </trkpt>
      <trkpt lat="47.451950004324317" lon="10.626540966331959">
        <ele>1055.1800000000001</ele>
        <time>2018-09-17T07:26:36Z</time>
      </trkpt>
      <trkpt lat="47.451939024031162" lon="10.626916978508234">
        <ele>1052.3</ele>
        <time>2018-09-17T07:26:41Z</time>
      </trkpt>
      <trkpt lat="47.451939024031162" lon="10.626916978508234">
        <ele>1050.8599999999999</ele>
        <time>2018-09-17T07:26:54Z</time>
      </trkpt>
      <trkpt lat="47.451939024031162" lon="10.626916978508234">
        <ele>1049.4200000000001</ele>
        <time>2018-09-17T07:27:27Z</time>
      </trkpt>
      <trkpt lat="47.451946986839175" lon="10.627041030675173">
        <ele>1048.9400000000001</ele>
        <time>2018-09-17T07:27:28Z</time>
      </trkpt>
      <trkpt lat="47.451946986839175" lon="10.627041030675173">
        <ele>1048.45</ele>
        <time>2018-09-17T07:27:29Z</time>
      </trkpt>
      <trkpt lat="47.451968025416136" lon="10.627120994031429">
        <ele>1047.97</ele>
        <time>2018-09-17T07:27:30Z</time>
      </trkpt>
      <trkpt lat="47.451994009315968" lon="10.627220990136266">
        <ele>1047.49</ele>
        <time>2018-09-17T07:27:31Z</time>
      </trkpt>
      <trkpt lat="47.452025022357702" lon="10.627339007332921">
        <ele>1047.01</ele>
        <time>2018-09-17T07:27:32Z</time>
      </trkpt>
      <trkpt lat="47.452057963237166" lon="10.627464987337589">
        <ele>1047.01</ele>
        <time>2018-09-17T07:27:33Z</time>
      </trkpt>
      <trkpt lat="47.452070033177733" lon="10.627570012584329">
        <ele>1046.53</ele>
        <time>2018-09-17T07:27:34Z</time>
      </trkpt>
      <trkpt lat="47.452044971287251" lon="10.627708984538913">
        <ele>1046.05</ele>
        <time>2018-09-17T07:27:35Z</time>
      </trkpt>
      <trkpt lat="47.452017981559038" lon="10.627862960100174">
        <ele>1046.05</ele>
        <time>2018-09-17T07:27:36Z</time>
      </trkpt>
      <trkpt lat="47.451988980174065" lon="10.62802598811686">
        <ele>1045.5699999999999</ele>
        <time>2018-09-17T07:27:37Z</time>
      </trkpt>
      <trkpt lat="47.451930977404118" lon="10.628350032493472">
        <ele>1044.1300000000001</ele>
        <time>2018-09-17T07:27:39Z</time>
      </trkpt>
      <trkpt lat="47.451905999332666" lon="10.628507025539875">
        <ele>1043.1700000000001</ele>
        <time>2018-09-17T07:27:40Z</time>
      </trkpt>
      <trkpt lat="47.451938018202782" lon="10.62866703607142">
        <ele>1042.21</ele>
        <time>2018-09-17T07:27:41Z</time>
      </trkpt>
      <trkpt lat="47.451971964910626" lon="10.628838026896119">
        <ele>1041.25</ele>
        <time>2018-09-17T07:27:42Z</time>
      </trkpt>
      <trkpt lat="47.452010018751025" lon="10.629026032984257">
        <ele>1040.28</ele>
        <time>2018-09-17T07:27:43Z</time>
      </trkpt>
      <trkpt lat="47.452118983492255" lon="10.629573035985231">
        <ele>1037.4000000000001</ele>
        <time>2018-09-17T07:27:46Z</time>
      </trkpt>
      <trkpt lat="47.452109009027481" lon="10.629736986011267">
        <ele>1036.9200000000001</ele>
        <time>2018-09-17T07:27:47Z</time>
      </trkpt>
      <trkpt lat="47.452097022905946" lon="10.629916023463011">
        <ele>1035.96</ele>
        <time>2018-09-17T07:27:48Z</time>
      </trkpt>
      <trkpt lat="47.452061986550689" lon="10.630010990425944">
        <ele>1035</ele>
        <time>2018-09-17T07:27:49Z</time>
      </trkpt>
      <trkpt lat="47.452016975730658" lon="10.630134036764503">
        <ele>1034.52</ele>
        <time>2018-09-17T07:27:50Z</time>
      </trkpt>
      <trkpt lat="47.451971964910626" lon="10.630256999284029">
        <ele>1033.55</ele>
        <time>2018-09-17T07:27:51Z</time>
      </trkpt>
      <trkpt lat="47.451956961303949" lon="10.630381973460317">
        <ele>1032.5899999999999</ele>
        <time>2018-09-17T07:27:52Z</time>
      </trkpt>
      <trkpt lat="47.451981017366052" lon="10.630518011748791">
        <ele>1031.6300000000001</ele>
        <time>2018-09-17T07:27:53Z</time>
      </trkpt>
      <trkpt lat="47.452005995437503" lon="10.630666958168149">
        <ele>1030.1900000000001</ele>
        <time>2018-09-17T07:27:54Z</time>
      </trkpt>
      <trkpt lat="47.452034996822476" lon="10.630834009498358">
        <ele>1029.23</ele>
        <time>2018-09-17T07:27:55Z</time>
      </trkpt>
      <trkpt lat="47.452048994600773" lon="10.63101296313107">
        <ele>1028.27</ele>
        <time>2018-09-17T07:27:56Z</time>
      </trkpt>
      <trkpt lat="47.452030973508954" lon="10.631207004189491">
        <ele>1027.3099999999999</ele>
        <time>2018-09-17T07:27:57Z</time>
      </trkpt>
      <trkpt lat="47.452012030407786" lon="10.631417976692319">
        <ele>1026.3399999999999</ele>
        <time>2018-09-17T07:27:58Z</time>
      </trkpt>
      <trkpt lat="47.451958972960711" lon="10.631611011922359">
        <ele>1025.3800000000001</ele>
        <time>2018-09-17T07:27:59Z</time>
      </trkpt>
      <trkpt lat="47.451900970190763" lon="10.631819972768426">
        <ele>1024.9000000000001</ele>
        <time>2018-09-17T07:28:00Z</time>
      </trkpt>
      <trkpt lat="47.45178597047925" lon="10.632238984107971">
        <ele>1022.98</ele>
        <time>2018-09-17T07:28:02Z</time>
      </trkpt>
      <trkpt lat="47.451529987156391" lon="10.633237017318606">
        <ele>1018.65</ele>
        <time>2018-09-17T07:28:07Z</time>
      </trkpt>
      <trkpt lat="47.451512971892953" lon="10.633413959294558">
        <ele>1017.6900000000001</ele>
        <time>2018-09-17T07:28:08Z</time>
      </trkpt>
      <trkpt lat="47.451481036841869" lon="10.63373900949955">
        <ele>1015.77</ele>
        <time>2018-09-17T07:28:10Z</time>
      </trkpt>
      <trkpt lat="47.45144197717309" lon="10.633882004767656">
        <ele>1014.33</ele>
        <time>2018-09-17T07:28:11Z</time>
      </trkpt>
      <trkpt lat="47.451367964968085" lon="10.634027011692524">
        <ele>1013.37</ele>
        <time>2018-09-17T07:28:12Z</time>
      </trkpt>
      <trkpt lat="47.451260006055236" lon="10.634085014462471">
        <ele>1012.41</ele>
        <time>2018-09-17T07:28:13Z</time>
      </trkpt>
      <trkpt lat="47.451144000515342" lon="10.634158020839095">
        <ele>1011.4400000000001</ele>
        <time>2018-09-17T07:28:14Z</time>
      </trkpt>
      <trkpt lat="47.451067976653576" lon="10.634272014722228">
        <ele>1010.48</ele>
        <time>2018-09-17T07:28:15Z</time>
      </trkpt>
      <trkpt lat="47.451007962226868" lon="10.634459014981985">
        <ele>1009.52</ele>
        <time>2018-09-17T07:28:16Z</time>
      </trkpt>
      <trkpt lat="47.450951971113682" lon="10.634634029120207">
        <ele>1008.5599999999999</ele>
        <time>2018-09-17T07:28:17Z</time>
      </trkpt>
      <trkpt lat="47.450897991657257" lon="10.634802002459764">
        <ele>1007.6</ele>
        <time>2018-09-17T07:28:18Z</time>
      </trkpt>
      <trkpt lat="47.450915006920695" lon="10.634984979405999">
        <ele>1006.16</ele>
        <time>2018-09-17T07:28:19Z</time>
      </trkpt>
      <trkpt lat="47.450934033840895" lon="10.635149013251066">
        <ele>1004.72</ele>
        <time>2018-09-17T07:28:20Z</time>
      </trkpt>
      <trkpt lat="47.450981978327036" lon="10.635289996862411">
        <ele>1003.27</ele>
        <time>2018-09-17T07:28:21Z</time>
      </trkpt>
      <trkpt lat="47.451048027724028" lon="10.63543600961566">
        <ele>1002.3099999999999</ele>
        <time>2018-09-17T07:28:22Z</time>
      </trkpt>
      <trkpt lat="47.451111981645226" lon="10.635575987398624">
        <ele>1000.87</ele>
        <time>2018-09-17T07:28:23Z</time>
      </trkpt>
      <trkpt lat="47.451152969151735" lon="10.635739015415311">
        <ele>999.90999999999997</ele>
        <time>2018-09-17T07:28:24Z</time>
      </trkpt>
      <trkpt lat="47.451152969151735" lon="10.635891985148191">
        <ele>998.95000000000005</ele>
        <time>2018-09-17T07:28:25Z</time>
      </trkpt>
      <trkpt lat="47.451119022443891" lon="10.636031962931156">
        <ele>998.47000000000003</ele>
        <time>2018-09-17T07:28:26Z</time>
      </trkpt>
      <trkpt lat="47.451038975268602" lon="10.636136988177896">
        <ele>997.50999999999999</ele>
        <time>2018-09-17T07:28:27Z</time>
      </trkpt>
      <trkpt lat="47.450941996648908" lon="10.636250982061028">
        <ele>996.53999999999996</ele>
        <time>2018-09-17T07:28:28Z</time>
      </trkpt>
      <trkpt lat="47.450834037736058" lon="10.636377967894077">
        <ele>995.58000000000004</ele>
        <time>2018-09-17T07:28:29Z</time>
      </trkpt>
      <trkpt lat="47.450388036668301" lon="10.636903010308743">
        <ele>991.74000000000001</ele>
        <time>2018-09-17T07:28:33Z</time>
      </trkpt>
      <trkpt lat="47.450310001149774" lon="10.637063020840287">
        <ele>990.29999999999995</ele>
        <time>2018-09-17T07:28:34Z</time>
      </trkpt>
      <trkpt lat="47.450231965631247" lon="10.637226970866323">
        <ele>989.33000000000004</ele>
        <time>2018-09-17T07:28:35Z</time>
      </trkpt>
      <trkpt lat="47.450182009488344" lon="10.637427968904376">
        <ele>987.88999999999999</ele>
        <time>2018-09-17T07:28:36Z</time>
      </trkpt>
      <trkpt lat="47.450144039466977" lon="10.637641958892345">
        <ele>986.92999999999995</ele>
        <time>2018-09-17T07:28:37Z</time>
      </trkpt>
      <trkpt lat="47.449842961505055" lon="10.639253966510296">
        <ele>979.24000000000001</ele>
        <time>2018-09-17T07:28:44Z</time>
      </trkpt>
      <trkpt lat="47.449771966785192" lon="10.639460999518633">
        <ele>977.79999999999995</ele>
        <time>2018-09-17T07:28:45Z</time>
      </trkpt>
      <trkpt lat="47.44970197789371" lon="10.639665015041828">
        <ele>976.36000000000001</ele>
        <time>2018-09-17T07:28:46Z</time>
      </trkpt>
      <trkpt lat="47.44963500648737" lon="10.63986299559474">
        <ele>975.38999999999999</ele>
        <time>2018-09-17T07:28:47Z</time>
      </trkpt>
      <trkpt lat="47.449570968747139" lon="10.640047984197736">
        <ele>973.95000000000005</ele>
        <time>2018-09-17T07:28:48Z</time>
      </trkpt>
      <trkpt lat="47.44957197457552" lon="10.640246970579028">
        <ele>972.50999999999999</ele>
        <time>2018-09-17T07:28:49Z</time>
      </trkpt>
      <trkpt lat="47.449578009545803" lon="10.640436988323927">
        <ele>971.54999999999995</ele>
        <time>2018-09-17T07:28:50Z</time>
      </trkpt>
      <trkpt lat="47.449584966525435" lon="10.640618959441781">
        <ele>970.59000000000003</ele>
        <time>2018-09-17T07:28:51Z</time>
      </trkpt>
      <trkpt lat="47.44961597956717" lon="10.640791039913893">
        <ele>969.63</ele>
        <time>2018-09-17T07:28:52Z</time>
      </trkpt>
      <trkpt lat="47.44965797290206" lon="10.64093797467649">
        <ele>969.14999999999998</ele>
        <time>2018-09-17T07:28:53Z</time>
      </trkpt>
      <trkpt lat="47.44969803839922" lon="10.641075018793344">
        <ele>967.70000000000005</ele>
        <time>2018-09-17T07:28:54Z</time>
      </trkpt>
      <trkpt lat="47.449735002592206" lon="10.641205022111535">
        <ele>967.22000000000003</ele>
        <time>2018-09-17T07:28:55Z</time>
      </trkpt>
      <trkpt lat="47.449767021462321" lon="10.641319015994668">
        <ele>966.25999999999999</ele>
        <time>2018-09-17T07:28:56Z</time>
      </trkpt>
      <trkpt lat="47.449801973998547" lon="10.641438961029053">
        <ele>965.77999999999997</ele>
        <time>2018-09-17T07:28:57Z</time>
      </trkpt>
      <trkpt lat="47.449772972613573" lon="10.641524959355593">
        <ele>964.82000000000005</ele>
        <time>2018-09-17T07:28:58Z</time>
      </trkpt>
      <trkpt lat="47.44969803839922" lon="10.641574999317527">
        <ele>964.34000000000003</ele>
        <time>2018-09-17T07:28:59Z</time>
      </trkpt>
      <trkpt lat="47.449629977345467" lon="10.64158396795392">
        <ele>963.86000000000001</ele>
        <time>2018-09-17T07:29:00Z</time>
      </trkpt>
      <trkpt lat="47.449554037302732" lon="10.641500987112522">
        <ele>962.89999999999998</ele>
        <time>2018-09-17T07:29:01Z</time>
      </trkpt>
      <trkpt lat="47.449524030089378" lon="10.641392022371292">
        <ele>962.89999999999998</ele>
        <time>2018-09-17T07:29:02Z</time>
      </trkpt>
      <trkpt lat="47.44952998124063" lon="10.641267970204353">
        <ele>962.41999999999996</ele>
        <time>2018-09-17T07:29:03Z</time>
      </trkpt>
      <trkpt lat="47.449537022039294" lon="10.641120029613376">
        <ele>961.94000000000005</ele>
        <time>2018-09-17T07:29:04Z</time>
      </trkpt>
      <trkpt lat="47.449537022039294" lon="10.640950966626406">
        <ele>961.46000000000004</ele>
        <time>2018-09-17T07:29:05Z</time>
      </trkpt>
      <trkpt lat="47.449505003169179" lon="10.640770001336932">
        <ele>961.46000000000004</ele>
        <time>2018-09-17T07:29:06Z</time>
      </trkpt>
      <trkpt lat="47.449469966813922" lon="10.64057101495564">
        <ele>960.98000000000002</ele>
        <time>2018-09-17T07:29:07Z</time>
      </trkpt>
      <trkpt lat="47.449433002620935" lon="10.640360964462161">
        <ele>960.49000000000001</ele>
        <time>2018-09-17T07:29:08Z</time>
      </trkpt>
      <trkpt lat="47.449422022327781" lon="10.640140017494559">
        <ele>959.52999999999997</ele>
        <time>2018-09-17T07:29:09Z</time>
      </trkpt>
      <trkpt lat="47.449434008449316" lon="10.639913035556674">
        <ele>958.57000000000005</ele>
        <time>2018-09-17T07:29:10Z</time>
      </trkpt>
      <trkpt lat="47.449447000399232" lon="10.639673983678222">
        <ele>958.09000000000003</ele>
        <time>2018-09-17T07:29:11Z</time>
      </trkpt>
      <trkpt lat="47.449459992349148" lon="10.639429986476898">
        <ele>957.61000000000001</ele>
        <time>2018-09-17T07:29:12Z</time>
      </trkpt>
      <trkpt lat="47.449472984299064" lon="10.639178026467562">
        <ele>956.64999999999998</ele>
        <time>2018-09-17T07:29:13Z</time>
      </trkpt>
      <trkpt lat="47.449508020654321" lon="10.638915002346039">
        <ele>955.69000000000005</ele>
        <time>2018-09-17T07:29:14Z</time>
      </trkpt>
      <trkpt lat="47.449557976797223" lon="10.638665976002812">
        <ele>954.73000000000002</ele>
        <time>2018-09-17T07:29:15Z</time>
      </trkpt>
      <trkpt lat="47.44959301315248" lon="10.638421978801489">
        <ele>954.25</ele>
        <time>2018-09-17T07:29:16Z</time>
      </trkpt>
      <trkpt lat="47.449610028415918" lon="10.638172030448914">
        <ele>953.76999999999998</ele>
        <time>2018-09-17T07:29:17Z</time>
      </trkpt>
      <trkpt lat="47.449668031185865" lon="10.637730974704027">
        <ele>951.84000000000003</ele>
        <time>2018-09-17T07:29:19Z</time>
      </trkpt>
      <trkpt lat="47.449752017855644" lon="10.637409025803208">
        <ele>949.91999999999996</ele>
        <time>2018-09-17T07:29:21Z</time>
      </trkpt>
      <trkpt lat="47.449736008420587" lon="10.63732797279954">
        <ele>948.96000000000004</ele>
        <time>2018-09-17T07:29:22Z</time>
      </trkpt>
      <trkpt lat="47.449702983722091" lon="10.637244991958141">
        <ele>947.51999999999998</ele>
        <time>2018-09-17T07:29:23Z</time>
      </trkpt>
      <trkpt lat="47.449672976508737" lon="10.637168968096375">
        <ele>946.55999999999995</ele>
        <time>2018-09-17T07:29:24Z</time>
      </trkpt>
      <trkpt lat="47.449621008709073" lon="10.637179026380181">
        <ele>946.07000000000005</ele>
        <time>2018-09-17T07:29:25Z</time>
      </trkpt>
      <trkpt lat="47.449557976797223" lon="10.637216996401548">
        <ele>945.11000000000001</ele>
        <time>2018-09-17T07:29:26Z</time>
      </trkpt>
      <trkpt lat="47.449531992897391" lon="10.637313975021243">
        <ele>944.14999999999998</ele>
        <time>2018-09-17T07:29:27Z</time>
      </trkpt>
      <trkpt lat="47.449500979855657" lon="10.637427968904376">
        <ele>943.19000000000005</ele>
        <time>2018-09-17T07:29:28Z</time>
      </trkpt>
      <trkpt lat="47.449487987905741" lon="10.637569036334753">
        <ele>942.71000000000004</ele>
        <time>2018-09-17T07:29:29Z</time>
      </trkpt>
      <trkpt lat="47.449472984299064" lon="10.637737009674311">
        <ele>942.71000000000004</ele>
        <time>2018-09-17T07:29:30Z</time>
      </trkpt>
      <trkpt lat="47.449451023712754" lon="10.6379309669137">
        <ele>941.75</ele>
        <time>2018-09-17T07:29:31Z</time>
      </trkpt>
      <trkpt lat="47.449407018721104" lon="10.638140011578798">
        <ele>941.26999999999998</ele>
        <time>2018-09-17T07:29:32Z</time>
      </trkpt>
      <trkpt lat="47.44935798458755" lon="10.638367999345064">
        <ele>940.78999999999996</ele>
        <time>2018-09-17T07:29:33Z</time>
      </trkpt>
      <trkpt lat="47.449307022616267" lon="10.638607973232865">
        <ele>940.30999999999995</ele>
        <time>2018-09-17T07:29:34Z</time>
      </trkpt>
      <trkpt lat="47.449254970997572" lon="10.63885398209095">
        <ele>939.83000000000004</ele>
        <time>2018-09-17T07:29:35Z</time>
      </trkpt>
      <trkpt lat="47.44922798126936" lon="10.639117006212473">
        <ele>939.35000000000002</ele>
        <time>2018-09-17T07:29:36Z</time>
      </trkpt>
      <trkpt lat="47.449208032339811" lon="10.639396961778402">
        <ele>938.86000000000001</ele>
        <time>2018-09-17T07:29:37Z</time>
      </trkpt>
      <trkpt lat="47.449065037071705" lon="10.641294037923217">
        <ele>933.10000000000002</ele>
        <time>2018-09-17T07:29:44Z</time>
      </trkpt>
      <trkpt lat="47.449025977402925" lon="10.641535017639399">
        <ele>932.13999999999999</ele>
        <time>2018-09-17T07:29:45Z</time>
      </trkpt>
      <trkpt lat="47.448953976854682" lon="10.641735009849072">
        <ele>931.64999999999998</ele>
        <time>2018-09-17T07:29:46Z</time>
      </trkpt>
      <trkpt lat="47.448817016556859" lon="10.642117979004979">
        <ele>929.73000000000002</ele>
        <time>2018-09-17T07:29:48Z</time>
      </trkpt>
      <trkpt lat="47.448813999071717" lon="10.642314031720161">
        <ele>928.76999999999998</ele>
        <time>2018-09-17T07:29:49Z</time>
      </trkpt>
      <trkpt lat="47.448834031820297" lon="10.642479993402958">
        <ele>927.80999999999995</ele>
        <time>2018-09-17T07:29:50Z</time>
      </trkpt>
      <trkpt lat="47.448878958821297" lon="10.642777970060706">
        <ele>926.37</ele>
        <time>2018-09-17T07:29:52Z</time>
      </trkpt>
      <trkpt lat="47.448836965486407" lon="10.642891963943839">
        <ele>925.40999999999997</ele>
        <time>2018-09-17T07:29:53Z</time>
      </trkpt>
      <trkpt lat="47.448796983808279" lon="10.642948038876057">
        <ele>924.45000000000005</ele>
        <time>2018-09-17T07:29:54Z</time>
      </trkpt>
      <trkpt lat="47.448728000745177" lon="10.642973016947508">
        <ele>923.48000000000002</ele>
        <time>2018-09-17T07:29:55Z</time>
      </trkpt>
      <trkpt lat="47.448658011853695" lon="10.642889030277729">
        <ele>922.51999999999998</ele>
        <time>2018-09-17T07:29:56Z</time>
      </trkpt>
      <trkpt lat="47.448617024347186" lon="10.642766989767551">
        <ele>921.08000000000004</ele>
        <time>2018-09-17T07:29:57Z</time>
      </trkpt>
      <trkpt lat="47.448590034618974" lon="10.642614020034671">
        <ele>920.12</ele>
        <time>2018-09-17T07:29:58Z</time>
      </trkpt>
      <trkpt lat="47.448557009920478" lon="10.642424002289772">
        <ele>919.15999999999997</ele>
        <time>2018-09-17T07:29:59Z</time>
      </trkpt>
      <trkpt lat="47.448557009920478" lon="10.642224010080099">
        <ele>918.20000000000005</ele>
        <time>2018-09-17T07:30:00Z</time>
      </trkpt>
      <trkpt lat="47.448557009920478" lon="10.642009014263749">
        <ele>917.72000000000003</ele>
        <time>2018-09-17T07:30:01Z</time>
      </trkpt>
      <trkpt lat="47.448608977720141" lon="10.641577010974288">
        <ele>916.26999999999998</ele>
        <time>2018-09-17T07:30:03Z</time>
      </trkpt>
      <trkpt lat="47.448580982163548" lon="10.641342988237739">
        <ele>915.78999999999996</ele>
        <time>2018-09-17T07:30:04Z</time>
      </trkpt>
      <trkpt lat="47.448528008535504" lon="10.64113000407815">
        <ele>914.83000000000004</ele>
        <time>2018-09-17T07:30:05Z</time>
      </trkpt>
      <trkpt lat="47.448473023250699" lon="10.640909979119897">
        <ele>914.35000000000002</ele>
        <time>2018-09-17T07:30:06Z</time>
      </trkpt>
      <trkpt lat="47.448449973016977" lon="10.640678973868489">
        <ele>913.87</ele>
        <time>2018-09-17T07:30:07Z</time>
      </trkpt>
      <trkpt lat="47.448449973016977" lon="10.640433970838785">
        <ele>913.38999999999999</ele>
        <time>2018-09-17T07:30:08Z</time>
      </trkpt>
      <trkpt lat="47.448346959426999" lon="10.63857302069664">
        <ele>904.74000000000001</ele>
        <time>2018-09-17T07:30:16Z</time>
      </trkpt>
      <trkpt lat="47.448277976363897" lon="10.638414015993476">
        <ele>903.29999999999995</ele>
        <time>2018-09-17T07:30:17Z</time>
      </trkpt>
      <trkpt lat="47.44819600135088" lon="10.63827496021986">
        <ele>902.33000000000004</ele>
        <time>2018-09-17T07:30:18Z</time>
      </trkpt>
      <trkpt lat="47.44808703660965" lon="10.638215029612184">
        <ele>901.37</ele>
        <time>2018-09-17T07:30:19Z</time>
      </trkpt>
      <trkpt lat="47.447987040504813" lon="10.638185022398829">
        <ele>900.88999999999999</ele>
        <time>2018-09-17T07:30:20Z</time>
      </trkpt>
      <trkpt lat="47.447891989722848" lon="10.638206982985139">
        <ele>900.40999999999997</ele>
        <time>2018-09-17T07:30:21Z</time>
      </trkpt>
      <trkpt lat="47.447802973911166" lon="10.638228021562099">
        <ele>899.92999999999995</ele>
        <time>2018-09-17T07:30:22Z</time>
      </trkpt>
      <trkpt lat="47.447725022211671" lon="10.638252999633551">
        <ele>899.45000000000005</ele>
        <time>2018-09-17T07:30:23Z</time>
      </trkpt>
      <trkpt lat="47.447647992521524" lon="10.638303961604834">
        <ele>898.97000000000003</ele>
        <time>2018-09-17T07:30:24Z</time>
      </trkpt>
      <trkpt lat="47.446825979277492" lon="10.638708975166082">
        <ele>894.15999999999997</ele>
        <time>2018-09-17T07:30:34Z</time>
      </trkpt>
      <trkpt lat="47.446020981296897" lon="10.639196969568729">
        <ele>889.84000000000003</ele>
        <time>2018-09-17T07:30:46Z</time>
      </trkpt>
      <trkpt lat="47.445208020508289" lon="10.639789989218116">
        <ele>891.27999999999997</ele>
        <time>2018-09-17T07:30:57Z</time>
      </trkpt>
      <trkpt lat="47.444385001435876" lon="10.640171030536294">
        <ele>891.27999999999997</ele>
        <time>2018-09-17T07:31:07Z</time>
      </trkpt>
      <trkpt lat="47.444141004234552" lon="10.640255017206073">
        <ele>891.27999999999997</ele>
        <time>2018-09-17T07:31:10Z</time>
      </trkpt>
      <trkpt lat="47.444075960665941" lon="10.640322994440794">
        <ele>890.79999999999995</ele>
        <time>2018-09-17T07:31:11Z</time>
      </trkpt>
      <trkpt lat="47.443886026740074" lon="10.640521980822086">
        <ele>890.79999999999995</ele>
        <time>2018-09-17T07:31:14Z</time>
      </trkpt>
      <trkpt lat="47.443283032625914" lon="10.641060015186667">
        <ele>888.39999999999998</ele>
        <time>2018-09-17T07:31:23Z</time>
      </trkpt>
      <trkpt lat="47.442807024344802" lon="10.641450025141239">
        <ele>885.99000000000001</ele>
        <time>2018-09-17T07:31:30Z</time>
      </trkpt>
      <trkpt lat="47.442738963291049" lon="10.641506016254425">
        <ele>885.99000000000001</ele>
        <time>2018-09-17T07:31:31Z</time>
      </trkpt>
      <trkpt lat="47.442301008850336" lon="10.641955034807324">
        <ele>885.99000000000001</ele>
        <time>2018-09-17T07:31:38Z</time>
      </trkpt>
      <trkpt lat="47.442242000252008" lon="10.642031980678439">
        <ele>885.99000000000001</ele>
        <time>2018-09-17T07:31:39Z</time>
      </trkpt>
      <trkpt lat="47.442183997482061" lon="10.642103981226683">
        <ele>885.99000000000001</ele>
        <time>2018-09-17T07:31:40Z</time>
      </trkpt>
      <trkpt lat="47.442114008590579" lon="10.642157038673759">
        <ele>885.99000000000001</ele>
        <time>2018-09-17T07:31:41Z</time>
      </trkpt>
      <trkpt lat="47.442046031355858" lon="10.642210012301803">
        <ele>885.99000000000001</ele>
        <time>2018-09-17T07:31:42Z</time>
      </trkpt>
      <trkpt lat="47.441977970302105" lon="10.642260974273086">
        <ele>885.50999999999999</ele>
        <time>2018-09-17T07:31:43Z</time>
      </trkpt>
      <trkpt lat="47.441762974485755" lon="10.642402041703463">
        <ele>885.02999999999997</ele>
        <time>2018-09-17T07:31:46Z</time>
      </trkpt>
      <trkpt lat="47.440991001203656" lon="10.64248401671648">
        <ele>886.95000000000005</ele>
        <time>2018-09-17T07:31:56Z</time>
      </trkpt>
      <trkpt lat="47.440854040905833" lon="10.642340015619993">
        <ele>887.42999999999995</ele>
        <time>2018-09-17T07:31:57Z</time>
      </trkpt>
      <trkpt lat="47.440854040905833" lon="10.642340015619993">
        <ele>887.42999999999995</ele>
        <time>2018-09-17T07:31:58Z</time>
      </trkpt>
      <trkpt lat="47.440801989287138" lon="10.642288969829679">
        <ele>887.90999999999997</ele>
        <time>2018-09-17T07:31:59Z</time>
      </trkpt>
      <trkpt lat="47.440759995952249" lon="10.642152009531856">
        <ele>887.90999999999997</ele>
        <time>2018-09-17T07:32:00Z</time>
      </trkpt>
      <trkpt lat="47.440751027315855" lon="10.6420339923352">
        <ele>887.90999999999997</ele>
        <time>2018-09-17T07:32:01Z</time>
      </trkpt>
      <trkpt lat="47.44074197486043" lon="10.641906000673771">
        <ele>888.39999999999998</ele>
        <time>2018-09-17T07:32:02Z</time>
      </trkpt>
      <trkpt lat="47.440724959596992" lon="10.641654040664434">
        <ele>888.88</ele>
        <time>2018-09-17T07:32:04Z</time>
      </trkpt>
      <trkpt lat="47.440715990960598" lon="10.641220025718212">
        <ele>889.36000000000001</ele>
        <time>2018-09-17T07:32:08Z</time>
      </trkpt>
      <trkpt lat="47.440671985968947" lon="10.640325006097555">
        <ele>887.90999999999997</ele>
        <time>2018-09-17T07:32:15Z</time>
      </trkpt>
      <trkpt lat="47.440528990700841" lon="10.638491967692971">
        <ele>885.99000000000001</ele>
        <time>2018-09-17T07:32:24Z</time>
      </trkpt>
      <trkpt lat="47.440150966867805" lon="10.637043993920088">
        <ele>885.02999999999997</ele>
        <time>2018-09-17T07:32:32Z</time>
      </trkpt>
      <trkpt lat="47.439355021342635" lon="10.63502999022603">
        <ele>888.88</ele>
        <time>2018-09-17T07:32:46Z</time>
      </trkpt>
      <trkpt lat="47.438828973099589" lon="10.633680000901222">
        <ele>888.88</ele>
        <time>2018-09-17T07:32:57Z</time>
      </trkpt>
      <trkpt lat="47.438163030892611" lon="10.63199901022017">
        <ele>888.88</ele>
        <time>2018-09-17T07:33:08Z</time>
      </trkpt>
      <trkpt lat="47.437554001808167" lon="10.629827007651329">
        <ele>889.84000000000003</ele>
        <time>2018-09-17T07:33:20Z</time>
      </trkpt>
      <trkpt lat="47.437318973243237" lon="10.627442020922899">
        <ele>893.20000000000005</ele>
        <time>2018-09-17T07:33:31Z</time>
      </trkpt>
      <trkpt lat="47.437106994912028" lon="10.624312972649932">
        <ele>897.04999999999995</ele>
        <time>2018-09-17T07:33:45Z</time>
      </trkpt>
      <trkpt lat="47.436943966895342" lon="10.622066035866737">
        <ele>899.45000000000005</ele>
        <time>2018-09-17T07:33:54Z</time>
      </trkpt>
      <trkpt lat="47.436741041019559" lon="10.619324985891581">
        <ele>902.33000000000004</ele>
        <time>2018-09-17T07:34:02Z</time>
      </trkpt>
      <trkpt lat="47.436441974714398" lon="10.61605797149241">
        <ele>904.74000000000001</ele>
        <time>2018-09-17T07:34:11Z</time>
      </trkpt>
      <trkpt lat="47.435973007231951" lon="10.612213024869561">
        <ele>908.10000000000002</ele>
        <time>2018-09-17T07:34:22Z</time>
      </trkpt>
      <trkpt lat="47.435514014214277" lon="10.608420968055725">
        <ele>908.10000000000002</ele>
        <time>2018-09-17T07:34:33Z</time>
      </trkpt>
      <trkpt lat="47.435265993699431" lon="10.606766967102885">
        <ele>908.58000000000004</ele>
        <time>2018-09-17T07:34:39Z</time>
      </trkpt>
      <trkpt lat="47.434805994853377" lon="10.605661980807781">
        <ele>910.02999999999997</ele>
        <time>2018-09-17T07:34:45Z</time>
      </trkpt>
      <trkpt lat="47.434702981263399" lon="10.605483027175069">
        <ele>910.02999999999997</ele>
        <time>2018-09-17T07:34:46Z</time>
      </trkpt>
      <trkpt lat="47.43459602817893" lon="10.605297032743692">
        <ele>910.50999999999999</ele>
        <time>2018-09-17T07:34:47Z</time>
      </trkpt>
      <trkpt lat="47.43444699794054" lon="10.605169041082263">
        <ele>910.99000000000001</ele>
        <time>2018-09-17T07:34:48Z</time>
      </trkpt>
      <trkpt lat="47.434291010722518" lon="10.605042977258563">
        <ele>910.50999999999999</ele>
        <time>2018-09-17T07:34:49Z</time>
      </trkpt>
      <trkpt lat="47.434137035161257" lon="10.604918003082275">
        <ele>910.50999999999999</ele>
        <time>2018-09-17T07:34:50Z</time>
      </trkpt>
      <trkpt lat="47.433964032679796" lon="10.604823958128691">
        <ele>910.50999999999999</ele>
        <time>2018-09-17T07:34:51Z</time>
      </trkpt>
      <trkpt lat="47.433794969692826" lon="10.604731002822518">
        <ele>910.50999999999999</ele>
        <time>2018-09-17T07:34:52Z</time>
      </trkpt>
      <trkpt lat="47.433634037151933" lon="10.604655984789133">
        <ele>910.50999999999999</ele>
        <time>2018-09-17T07:34:53Z</time>
      </trkpt>
      <trkpt lat="47.43345801718533" lon="10.604632012546062">
        <ele>910.99000000000001</ele>
        <time>2018-09-17T07:34:54Z</time>
      </trkpt>
      <trkpt lat="47.433278979733586" lon="10.604608040302992">
        <ele>910.99000000000001</ele>
        <time>2018-09-17T07:34:55Z</time>
      </trkpt>
      <trkpt lat="47.433102037757635" lon="10.604608962312341">
        <ele>911.47000000000003</ele>
        <time>2018-09-17T07:34:56Z</time>
      </trkpt>
      <trkpt lat="47.432917971163988" lon="10.604634024202824">
        <ele>911.47000000000003</ele>
        <time>2018-09-17T07:34:57Z</time>
      </trkpt>
      <trkpt lat="47.43272996507585" lon="10.604660008102655">
        <ele>911.47000000000003</ele>
        <time>2018-09-17T07:34:58Z</time>
      </trkpt>
      <trkpt lat="47.430272977799177" lon="10.605232995003462">
        <ele>912.90999999999997</ele>
        <time>2018-09-17T07:35:11Z</time>
      </trkpt>
      <trkpt lat="47.429303023964167" lon="10.605366015806794">
        <ele>911.47000000000003</ele>
        <time>2018-09-17T07:35:16Z</time>
      </trkpt>
      <trkpt lat="47.428917037323117" lon="10.605328967794776">
        <ele>911.47000000000003</ele>
        <time>2018-09-17T07:35:18Z</time>
      </trkpt>
      <trkpt lat="47.428730959072709" lon="10.605259984731674">
        <ele>911.47000000000003</ele>
        <time>2018-09-17T07:35:19Z</time>
      </trkpt>
      <trkpt lat="47.428363999351859" lon="10.605098968371749">
        <ele>911.47000000000003</ele>
        <time>2018-09-17T07:35:21Z</time>
      </trkpt>
      <trkpt lat="47.428192002698779" lon="10.604959996417165">
        <ele>911.47000000000003</ele>
        <time>2018-09-17T07:35:22Z</time>
      </trkpt>
      <trkpt lat="47.428025035187602" lon="10.604813983663917">
        <ele>911.47000000000003</ele>
        <time>2018-09-17T07:35:23Z</time>
      </trkpt>
      <trkpt lat="47.427862007170916" lon="10.604650033637881">
        <ele>911.47000000000003</ele>
        <time>2018-09-17T07:35:24Z</time>
      </trkpt>
      <trkpt lat="47.427703002467752" lon="10.60447501949966">
        <ele>911.47000000000003</ele>
        <time>2018-09-17T07:35:25Z</time>
      </trkpt>
      <trkpt lat="47.427561013028026" lon="10.604268992319703">
        <ele>911.47000000000003</ele>
        <time>2018-09-17T07:35:26Z</time>
      </trkpt>
      <trkpt lat="47.427418017759919" lon="10.604062965139747">
        <ele>910.99000000000001</ele>
        <time>2018-09-17T07:35:27Z</time>
      </trkpt>
      <trkpt lat="47.427289020270109" lon="10.603837994858623">
        <ele>910.99000000000001</ele>
        <time>2018-09-17T07:35:28Z</time>
      </trkpt>
      <trkpt lat="47.427167985588312" lon="10.603597015142441">
        <ele>910.99000000000001</ele>
        <time>2018-09-17T07:35:29Z</time>
      </trkpt>
      <trkpt lat="47.427058015018702" lon="10.603342959657311">
        <ele>911.47000000000003</ele>
        <time>2018-09-17T07:35:30Z</time>
      </trkpt>
      <trkpt lat="47.426185961812735" lon="10.600854037329555">
        <ele>912.90999999999997</ele>
        <time>2018-09-17T07:35:39Z</time>
      </trkpt>
      <trkpt lat="47.425109976902604" lon="10.597762959077954">
        <ele>913.87</ele>
        <time>2018-09-17T07:35:50Z</time>
      </trkpt>
      <trkpt lat="47.423935001716018" lon="10.594391003251076">
        <ele>914.83000000000004</ele>
        <time>2018-09-17T07:36:01Z</time>
      </trkpt>
      <trkpt lat="47.422842001542449" lon="10.591237982735038">
        <ele>916.26999999999998</ele>
        <time>2018-09-17T07:36:14Z</time>
      </trkpt>
      <trkpt lat="47.421328984200954" lon="10.586847960948944">
        <ele>919.15999999999997</ele>
        <time>2018-09-17T07:36:32Z</time>
      </trkpt>
      <trkpt lat="47.420366993173957" lon="10.584491975605488">
        <ele>920.12</ele>
        <time>2018-09-17T07:36:42Z</time>
      </trkpt>
      <trkpt lat="47.419098978862166" lon="10.582920033484697">
        <ele>917.72000000000003</ele>
        <time>2018-09-17T07:36:51Z</time>
      </trkpt>
      <trkpt lat="47.417714959010482" lon="10.582159962505102">
        <ele>917.72000000000003</ele>
        <time>2018-09-17T07:36:59Z</time>
      </trkpt>
      <trkpt lat="47.416229015216231" lon="10.582147976383567">
        <ele>919.15999999999997</ele>
        <time>2018-09-17T07:37:07Z</time>
      </trkpt>
      <trkpt lat="47.41440100595355" lon="10.582676958292723">
        <ele>922.51999999999998</ele>
        <time>2018-09-17T07:37:17Z</time>
      </trkpt>
      <trkpt lat="47.412383984774351" lon="10.583022041246295">
        <ele>924.45000000000005</ele>
        <time>2018-09-17T07:37:28Z</time>
      </trkpt>
      <trkpt lat="47.411216972395778" lon="10.582657009363174">
        <ele>926.37</ele>
        <time>2018-09-17T07:37:34Z</time>
      </trkpt>
      <trkpt lat="47.411052016541362" lon="10.58254100382328">
        <ele>926.37</ele>
        <time>2018-09-17T07:37:35Z</time>
      </trkpt>
      <trkpt lat="47.410755967721343" lon="10.582237998023629">
        <ele>927.33000000000004</ele>
        <time>2018-09-17T07:37:37Z</time>
      </trkpt>
      <trkpt lat="47.409981982782483" lon="10.581125970929861">
        <ele>928.28999999999996</ele>
        <time>2018-09-17T07:37:43Z</time>
      </trkpt>
      <trkpt lat="47.409820966422558" lon="10.581006025895476">
        <ele>928.28999999999996</ele>
        <time>2018-09-17T07:37:44Z</time>
      </trkpt>
      <trkpt lat="47.409655004739761" lon="10.580909969285131">
        <ele>928.28999999999996</ele>
        <time>2018-09-17T07:37:45Z</time>
      </trkpt>
      <trkpt lat="47.409475967288017" lon="10.580855989828706">
        <ele>928.28999999999996</ele>
        <time>2018-09-17T07:37:46Z</time>
      </trkpt>
      <trkpt lat="47.409295001998544" lon="10.580802010372281">
        <ele>928.76999999999998</ele>
        <time>2018-09-17T07:37:47Z</time>
      </trkpt>
      <trkpt lat="47.409110013395548" lon="10.580793963745236">
        <ele>928.76999999999998</ele>
        <time>2018-09-17T07:37:48Z</time>
      </trkpt>
      <trkpt lat="47.40892200730741" lon="10.580787006765604">
        <ele>928.76999999999998</ele>
        <time>2018-09-17T07:37:49Z</time>
      </trkpt>
      <trkpt lat="47.407980971038342" lon="10.580733027309179">
        <ele>929.73000000000002</ele>
        <time>2018-09-17T07:37:54Z</time>
      </trkpt>
      <trkpt lat="47.407806040719151" lon="10.580635964870453">
        <ele>929.73000000000002</ele>
        <time>2018-09-17T07:37:55Z</time>
      </trkpt>
      <trkpt lat="47.407633038237691" lon="10.580538986250758">
        <ele>929.25</ele>
        <time>2018-09-17T07:37:56Z</time>
      </trkpt>
      <trkpt lat="47.407464981079102" lon="10.580420969054103">
        <ele>929.73000000000002</ele>
        <time>2018-09-17T07:37:57Z</time>
      </trkpt>
      <trkpt lat="47.407300025224686" lon="10.580303035676479">
        <ele>929.73000000000002</ele>
        <time>2018-09-17T07:37:58Z</time>
      </trkpt>
      <trkpt lat="47.407134985551238" lon="10.580187030136585">
        <ele>929.73000000000002</ele>
        <time>2018-09-17T07:37:59Z</time>
      </trkpt>
      <trkpt lat="47.406957959756255" lon="10.580131039023399">
        <ele>930.21000000000004</ele>
        <time>2018-09-17T07:38:00Z</time>
      </trkpt>
      <trkpt lat="47.406779006123543" lon="10.580080999061465">
        <ele>930.69000000000005</ele>
        <time>2018-09-17T07:38:01Z</time>
      </trkpt>
      <trkpt lat="47.406585970893502" lon="10.580027019605041">
        <ele>930.69000000000005</ele>
        <time>2018-09-17T07:38:02Z</time>
      </trkpt>
      <trkpt lat="47.406413974240422" lon="10.580031964927912">
        <ele>930.69000000000005</ele>
        <time>2018-09-17T07:38:03Z</time>
      </trkpt>
      <trkpt lat="47.406225968152285" lon="10.580037999898195">
        <ele>931.64999999999998</ele>
        <time>2018-09-17T07:38:04Z</time>
      </trkpt>
      <trkpt lat="47.404200984165072" lon="10.580080999061465">
        <ele>933.58000000000004</ele>
        <time>2018-09-17T07:38:15Z</time>
      </trkpt>
      <trkpt lat="47.403833018615842" lon="10.580059960484505">
        <ele>934.53999999999996</ele>
        <time>2018-09-17T07:38:17Z</time>
      </trkpt>
      <trkpt lat="47.403646018356085" lon="10.58004898019135">
        <ele>934.53999999999996</ele>
        <time>2018-09-17T07:38:18Z</time>
      </trkpt>
      <trkpt lat="47.402156973257661" lon="10.579535001888871">
        <ele>932.62</ele>
        <time>2018-09-17T07:38:26Z</time>
      </trkpt>
      <trkpt lat="47.401650035753846" lon="10.579245993867517">
        <ele>931.64999999999998</ele>
        <time>2018-09-17T07:38:29Z</time>
      </trkpt>
      <trkpt lat="47.401339989155531" lon="10.578955980017781">
        <ele>930.69000000000005</ele>
        <time>2018-09-17T07:38:31Z</time>
      </trkpt>
      <trkpt lat="47.40105802193284" lon="10.578619027510285">
        <ele>929.73000000000002</ele>
        <time>2018-09-17T07:38:33Z</time>
      </trkpt>
      <trkpt lat="47.400206001475453" lon="10.577166024595499">
        <ele>928.28999999999996</ele>
        <time>2018-09-17T07:38:40Z</time>
      </trkpt>
      <trkpt lat="47.40007096901536" lon="10.576981035992503">
        <ele>928.28999999999996</ele>
        <time>2018-09-17T07:38:41Z</time>
      </trkpt>
      <trkpt lat="47.399929985404015" lon="10.576812978833914">
        <ele>928.76999999999998</ele>
        <time>2018-09-17T07:38:42Z</time>
      </trkpt>
      <trkpt lat="47.39976997487247" lon="10.576682975515723">
        <ele>928.76999999999998</ele>
        <time>2018-09-17T07:38:43Z</time>
      </trkpt>
      <trkpt lat="47.399608958512545" lon="10.576551966369152">
        <ele>928.76999999999998</ele>
        <time>2018-09-17T07:38:44Z</time>
      </trkpt>
      <trkpt lat="47.39944702014327" lon="10.576420035213232">
        <ele>929.25</ele>
        <time>2018-09-17T07:38:45Z</time>
      </trkpt>
      <trkpt lat="47.397316005080938" lon="10.574703002348542">
        <ele>930.69000000000005</ele>
        <time>2018-09-17T07:38:58Z</time>
      </trkpt>
      <trkpt lat="47.394867986440659" lon="10.572756975889206">
        <ele>932.13999999999999</ele>
        <time>2018-09-17T07:39:13Z</time>
      </trkpt>
      <trkpt lat="47.394215958192945" lon="10.572194969281554">
        <ele>933.10000000000002</ele>
        <time>2018-09-17T07:39:18Z</time>
      </trkpt>
      <trkpt lat="47.393242986872792" lon="10.571343032643199">
        <ele>935.01999999999998</ele>
        <time>2018-09-17T07:39:24Z</time>
      </trkpt>
      <trkpt lat="47.391584040597081" lon="10.569630023092031">
        <ele>937.89999999999998</ele>
        <time>2018-09-17T07:39:33Z</time>
      </trkpt>
      <trkpt lat="47.390166996046901" lon="10.567665975540876">
        <ele>939.35000000000002</ele>
        <time>2018-09-17T07:39:42Z</time>
      </trkpt>
      <trkpt lat="47.389710014685988" lon="10.567001961171627">
        <ele>939.83000000000004</ele>
        <time>2018-09-17T07:39:46Z</time>
      </trkpt>
      <trkpt lat="47.389612030237913" lon="10.566859971731901">
        <ele>940.30999999999995</ele>
        <time>2018-09-17T07:39:47Z</time>
      </trkpt>
      <trkpt lat="47.388647021725774" lon="10.565457008779049">
        <ele>941.75</ele>
        <time>2018-09-17T07:39:56Z</time>
      </trkpt>
      <trkpt lat="47.387662986293435" lon="10.563981039449573">
        <ele>942.23000000000002</ele>
        <time>2018-09-17T07:40:05Z</time>
      </trkpt>
      <trkpt lat="47.386786993592978" lon="10.562715036794543">
        <ele>944.14999999999998</ele>
        <time>2018-09-17T07:40:14Z</time>
      </trkpt>
      <trkpt lat="47.385947965085506" lon="10.561482980847359">
        <ele>945.59000000000003</ele>
        <time>2018-09-17T07:40:23Z</time>
      </trkpt>
      <trkpt lat="47.385763982310891" lon="10.561297992244363">
        <ele>945.59000000000003</ele>
        <time>2018-09-17T07:40:25Z</time>
      </trkpt>
      <trkpt lat="47.385671027004719" lon="10.561211993917823">
        <ele>945.59000000000003</ele>
        <time>2018-09-17T07:40:26Z</time>
      </trkpt>
      <trkpt lat="47.385577987879515" lon="10.561152985319495">
        <ele>946.07000000000005</ele>
        <time>2018-09-17T07:40:27Z</time>
      </trkpt>
      <trkpt lat="47.385470028966665" lon="10.56112096644938">
        <ele>946.07000000000005</ele>
        <time>2018-09-17T07:40:28Z</time>
      </trkpt>
      <trkpt lat="47.385361986234784" lon="10.561108980327845">
        <ele>946.07000000000005</ele>
        <time>2018-09-17T07:40:29Z</time>
      </trkpt>
      <trkpt lat="47.385246986523271" lon="10.561128007248044">
        <ele>946.07000000000005</ele>
        <time>2018-09-17T07:40:30Z</time>
      </trkpt>
      <trkpt lat="47.38513701595366" lon="10.561146028339863">
        <ele>946.55999999999995</ele>
        <time>2018-09-17T07:40:31Z</time>
      </trkpt>
      <trkpt lat="47.385034002363682" lon="10.561162959784269">
        <ele>946.55999999999995</ele>
        <time>2018-09-17T07:40:32Z</time>
      </trkpt>
      <trkpt lat="47.384929982945323" lon="10.561127001419663">
        <ele>946.55999999999995</ele>
        <time>2018-09-17T07:40:33Z</time>
      </trkpt>
      <trkpt lat="47.384839961305261" lon="10.561090959236026">
        <ele>946.55999999999995</ele>
        <time>2018-09-17T07:40:34Z</time>
      </trkpt>
      <trkpt lat="47.384755974635482" lon="10.561061035841703">
        <ele>947.03999999999996</ele>
        <time>2018-09-17T07:40:35Z</time>
      </trkpt>
      <trkpt lat="47.384590012952685" lon="10.561003033071756">
        <ele>947.03999999999996</ele>
        <time>2018-09-17T07:40:37Z</time>
      </trkpt>
      <trkpt lat="47.384499991312623" lon="10.560972020030022">
        <ele>947.03999999999996</ele>
        <time>2018-09-17T07:40:38Z</time>
      </trkpt>
      <trkpt lat="47.384417010471225" lon="10.560958022251725">
        <ele>947.03999999999996</ele>
        <time>2018-09-17T07:40:39Z</time>
      </trkpt>
      <trkpt lat="47.384315002709627" lon="10.560986017808318">
        <ele>947.03999999999996</ele>
        <time>2018-09-17T07:40:40Z</time>
      </trkpt>
      <trkpt lat="47.384205032140017" lon="10.561016025021672">
        <ele>947.03999999999996</ele>
        <time>2018-09-17T07:40:41Z</time>
      </trkpt>
      <trkpt lat="47.384118027985096" lon="10.561072016134858">
        <ele>947.51999999999998</ele>
        <time>2018-09-17T07:40:42Z</time>
      </trkpt>
      <trkpt lat="47.383752996101975" lon="10.561274020001292">
        <ele>947.03999999999996</ele>
        <time>2018-09-17T07:40:46Z</time>
      </trkpt>
      <trkpt lat="47.383668003603816" lon="10.561302015557885">
        <ele>947.03999999999996</ele>
        <time>2018-09-17T07:40:47Z</time>
      </trkpt>
      <trkpt lat="47.38359197974205" lon="10.561327999457717">
        <ele>947.03999999999996</ele>
        <time>2018-09-17T07:40:48Z</time>
      </trkpt>
      <trkpt lat="47.383514028042555" lon="10.561324981972575">
        <ele>947.03999999999996</ele>
        <time>2018-09-17T07:40:49Z</time>
      </trkpt>
      <trkpt lat="47.383442027494311" lon="10.561305033043027">
        <ele>947.03999999999996</ele>
        <time>2018-09-17T07:40:50Z</time>
      </trkpt>
      <trkpt lat="47.383369021117687" lon="10.561285000294447">
        <ele>947.03999999999996</ele>
        <time>2018-09-17T07:40:51Z</time>
      </trkpt>
      <trkpt lat="47.383291991427541" lon="10.561255998909473">
        <ele>947.03999999999996</ele>
        <time>2018-09-17T07:40:52Z</time>
      </trkpt>
      <trkpt lat="47.383217979222536" lon="10.561219034716487">
        <ele>947.03999999999996</ele>
        <time>2018-09-17T07:40:53Z</time>
      </trkpt>
      <trkpt lat="47.383147990331054" lon="10.561174023896456">
        <ele>947.51999999999998</ele>
        <time>2018-09-17T07:40:54Z</time>
      </trkpt>
      <trkpt lat="47.383086970075965" lon="10.561130018904805">
        <ele>947.51999999999998</ele>
        <time>2018-09-17T07:40:55Z</time>
      </trkpt>
      <trkpt lat="47.383037013933063" lon="10.561085008084774">
        <ele>948</ele>
        <time>2018-09-17T07:40:56Z</time>
      </trkpt>
      <trkpt lat="47.383000971749425" lon="10.561025999486446">
        <ele>948.48000000000002</ele>
        <time>2018-09-17T07:40:57Z</time>
      </trkpt>
      <trkpt lat="47.382982028648257" lon="10.560932960361242">
        <ele>948.96000000000004</ele>
        <time>2018-09-17T07:40:58Z</time>
      </trkpt>
      <trkpt lat="47.382982028648257" lon="10.560831036418676">
        <ele>949.44000000000005</ele>
        <time>2018-09-17T07:40:59Z</time>
      </trkpt>
      <trkpt lat="47.383011030033231" lon="10.560722993686795">
        <ele>950.39999999999998</ele>
        <time>2018-09-17T07:41:00Z</time>
      </trkpt>
      <trkpt lat="47.383047994226217" lon="10.560619980096817">
        <ele>950.39999999999998</ele>
        <time>2018-09-17T07:41:01Z</time>
      </trkpt>
      <trkpt lat="47.383068026974797" lon="10.560499029234052">
        <ele>950.88</ele>
        <time>2018-09-17T07:41:02Z</time>
      </trkpt>
      <trkpt lat="47.383068026974797" lon="10.560395009815693">
        <ele>951.36000000000001</ele>
        <time>2018-09-17T07:41:03Z</time>
      </trkpt>
      <trkpt lat="47.38303299061954" lon="10.560298031195998">
        <ele>951.36000000000001</ele>
        <time>2018-09-17T07:41:04Z</time>
      </trkpt>
      <trkpt lat="47.38298898562789" lon="10.560230975970626">
        <ele>951.36000000000001</ele>
        <time>2018-09-17T07:41:05Z</time>
      </trkpt>
      <trkpt lat="47.382914973422885" lon="10.560214966535568">
        <ele>951.84000000000003</ele>
        <time>2018-09-17T07:41:06Z</time>
      </trkpt>
      <trkpt lat="47.38283702172339" lon="10.560207003727555">
        <ele>951.84000000000003</ele>
        <time>2018-09-17T07:41:07Z</time>
      </trkpt>
      <trkpt lat="47.38275102339685" lon="10.560199040919542">
        <ele>951.84000000000003</ele>
        <time>2018-09-17T07:41:08Z</time>
      </trkpt>
      <trkpt lat="47.382009979337454" lon="10.559993013739586">
        <ele>950.88</ele>
        <time>2018-09-17T07:41:17Z</time>
      </trkpt>
      <trkpt lat="47.381214033812284" lon="10.559590011835098">
        <ele>948.48000000000002</ele>
        <time>2018-09-17T07:41:28Z</time>
      </trkpt>
      <trkpt lat="47.380596958100796" lon="10.558933038264513">
        <ele>947.03999999999996</ele>
        <time>2018-09-17T07:41:35Z</time>
      </trkpt>
      <trkpt lat="47.379576964303851" lon="10.557861998677254">
        <ele>947.03999999999996</ele>
        <time>2018-09-17T07:41:42Z</time>
      </trkpt>
      <trkpt lat="47.378057995811105" lon="10.556517038494349">
        <ele>948</ele>
        <time>2018-09-17T07:41:50Z</time>
      </trkpt>
      <trkpt lat="47.377848029136658" lon="10.556385023519397">
        <ele>948</ele>
        <time>2018-09-17T07:41:51Z</time>
      </trkpt>
      <trkpt lat="47.3757079616189" lon="10.555093958973885">
        <ele>949.91999999999996</ele>
        <time>2018-09-17T07:42:01Z</time>
      </trkpt>
      <trkpt lat="47.374183963984251" lon="10.553952008485794">
        <ele>952.32000000000005</ele>
        <time>2018-09-17T07:42:09Z</time>
      </trkpt>
      <trkpt lat="47.374010039493442" lon="10.553859975188971">
        <ele>953.27999999999997</ele>
        <time>2018-09-17T07:42:10Z</time>
      </trkpt>
      <trkpt lat="47.373822033405304" lon="10.553805995732546">
        <ele>953.76999999999998</ele>
        <time>2018-09-17T07:42:11Z</time>
      </trkpt>
      <trkpt lat="47.373627992346883" lon="10.553771965205669">
        <ele>954.25</ele>
        <time>2018-09-17T07:42:12Z</time>
      </trkpt>
      <trkpt lat="47.373426994308829" lon="10.553738018497825">
        <ele>954.73000000000002</ele>
        <time>2018-09-17T07:42:13Z</time>
      </trkpt>
      <trkpt lat="47.373218033462763" lon="10.553737012669444">
        <ele>955.69000000000005</ele>
        <time>2018-09-17T07:42:14Z</time>
      </trkpt>
      <trkpt lat="47.373009994626045" lon="10.553769031539559">
        <ele>956.16999999999996</ele>
        <time>2018-09-17T07:42:15Z</time>
      </trkpt>
      <trkpt lat="47.372804973274469" lon="10.553800966590643">
        <ele>956.64999999999998</ele>
        <time>2018-09-17T07:42:16Z</time>
      </trkpt>
      <trkpt lat="47.372116986662149" lon="10.553855029866099">
        <ele>960.00999999999999</ele>
        <time>2018-09-17T07:42:20Z</time>
      </trkpt>
      <trkpt lat="47.371967034414411" lon="10.553812030702829">
        <ele>960.98000000000002</ele>
        <time>2018-09-17T07:42:21Z</time>
      </trkpt>
      <trkpt lat="47.371820015832782" lon="10.553704993799329">
        <ele>961.46000000000004</ele>
        <time>2018-09-17T07:42:22Z</time>
      </trkpt>
      <trkpt lat="47.371031027287245" lon="10.553178023546934">
        <ele>964.34000000000003</ele>
        <time>2018-09-17T07:42:27Z</time>
      </trkpt>
      <trkpt lat="47.370885014533997" lon="10.553108034655452">
        <ele>964.34000000000003</ele>
        <time>2018-09-17T07:42:28Z</time>
      </trkpt>
      <trkpt lat="47.37074101343751" lon="10.553061012178659">
        <ele>964.82000000000005</ele>
        <time>2018-09-17T07:42:29Z</time>
      </trkpt>
      <trkpt lat="47.370581002905965" lon="10.553092025220394">
        <ele>964.82000000000005</ele>
        <time>2018-09-17T07:42:30Z</time>
      </trkpt>
      <trkpt lat="47.370410012081265" lon="10.553124966099858">
        <ele>964.82000000000005</ele>
        <time>2018-09-17T07:42:31Z</time>
      </trkpt>
      <trkpt lat="47.369653964415193" lon="10.553163019940257">
        <ele>965.29999999999995</ele>
        <time>2018-09-17T07:42:35Z</time>
      </trkpt>
      <trkpt lat="47.369449026882648" lon="10.553111974149942">
        <ele>965.29999999999995</ele>
        <time>2018-09-17T07:42:36Z</time>
      </trkpt>
      <trkpt lat="47.367521021515131" lon="10.552620040252805">
        <ele>965.77999999999997</ele>
        <time>2018-09-17T07:42:45Z</time>
      </trkpt>
      <trkpt lat="47.367108967155218" lon="10.552471010014415">
        <ele>965.29999999999995</ele>
        <time>2018-09-17T07:42:47Z</time>
      </trkpt>
      <trkpt lat="47.366899000480771" lon="10.552443014457822">
        <ele>965.29999999999995</ele>
        <time>2018-09-17T07:42:48Z</time>
      </trkpt>
      <trkpt lat="47.366694984957576" lon="10.55241703055799">
        <ele>965.29999999999995</ele>
        <time>2018-09-17T07:42:49Z</time>
      </trkpt>
      <trkpt lat="47.366499016061425" lon="10.552336983382702">
        <ele>965.77999999999997</ele>
        <time>2018-09-17T07:42:50Z</time>
      </trkpt>
      <trkpt lat="47.366302041336894" lon="10.552242016419768">
        <ele>966.25999999999999</ele>
        <time>2018-09-17T07:42:51Z</time>
      </trkpt>
      <trkpt lat="47.366104982793331" lon="10.552147971466184">
        <ele>966.25999999999999</ele>
        <time>2018-09-17T07:42:52Z</time>
      </trkpt>
      <trkpt lat="47.364676035940647" lon="10.55170901119709">
        <ele>966.74000000000001</ele>
        <time>2018-09-17T07:42:59Z</time>
      </trkpt>
      <trkpt lat="47.364471014589071" lon="10.551739018410444">
        <ele>966.74000000000001</ele>
        <time>2018-09-17T07:43:00Z</time>
      </trkpt>
      <trkpt lat="47.36427303403616" lon="10.551767013967037">
        <ele>966.74000000000001</ele>
        <time>2018-09-17T07:43:01Z</time>
      </trkpt>
      <trkpt lat="47.364069018512964" lon="10.55177103728056">
        <ele>966.74000000000001</ele>
        <time>2018-09-17T07:43:02Z</time>
      </trkpt>
      <trkpt lat="47.363872965797782" lon="10.551703982055187">
        <ele>966.25999999999999</ele>
        <time>2018-09-17T07:43:03Z</time>
      </trkpt>
      <trkpt lat="47.363676996901631" lon="10.551637010648847">
        <ele>966.25999999999999</ele>
        <time>2018-09-17T07:43:04Z</time>
      </trkpt>
      <trkpt lat="47.363483039662242" lon="10.551570961251855">
        <ele>966.25999999999999</ele>
        <time>2018-09-17T07:43:05Z</time>
      </trkpt>
      <trkpt lat="47.363291010260582" lon="10.551506001502275">
        <ele>966.25999999999999</ele>
        <time>2018-09-17T07:43:06Z</time>
      </trkpt>
      <trkpt lat="47.363091018050909" lon="10.551485968753695">
        <ele>965.77999999999997</ele>
        <time>2018-09-17T07:43:07Z</time>
      </trkpt>
      <trkpt lat="47.362276967614889" lon="10.551469959318638">
        <ele>965.77999999999997</ele>
        <time>2018-09-17T07:43:11Z</time>
      </trkpt>
      <trkpt lat="47.362074963748455" lon="10.551435006782413">
        <ele>965.77999999999997</ele>
        <time>2018-09-17T07:43:12Z</time>
      </trkpt>
      <trkpt lat="47.361892992630601" lon="10.551316989585757">
        <ele>965.77999999999997</ele>
        <time>2018-09-17T07:43:13Z</time>
      </trkpt>
      <trkpt lat="47.361711021512747" lon="10.551198972389102">
        <ele>965.29999999999995</ele>
        <time>2018-09-17T07:43:14Z</time>
      </trkpt>
      <trkpt lat="47.361536007374525" lon="10.55108598433435">
        <ele>965.29999999999995</ele>
        <time>2018-09-17T07:43:15Z</time>
      </trkpt>
      <trkpt lat="47.361212968826294" lon="10.550878029316664">
        <ele>965.29999999999995</ele>
        <time>2018-09-17T07:43:17Z</time>
      </trkpt>
      <trkpt lat="47.361056981608272" lon="10.550731010735035">
        <ele>965.29999999999995</ele>
        <time>2018-09-17T07:43:18Z</time>
      </trkpt>
      <trkpt lat="47.360938964411616" lon="10.550511991605163">
        <ele>965.29999999999995</ele>
        <time>2018-09-17T07:43:19Z</time>
      </trkpt>
      <trkpt lat="47.360814996063709" lon="10.550279980525374">
        <ele>964.82000000000005</ele>
        <time>2018-09-17T07:43:20Z</time>
      </trkpt>
      <trkpt lat="47.360684992745519" lon="10.550039000809193">
        <ele>965.29999999999995</ele>
        <time>2018-09-17T07:43:21Z</time>
      </trkpt>
      <trkpt lat="47.359735993668437" lon="10.548153994604945">
        <ele>965.29999999999995</ele>
        <time>2018-09-17T07:43:29Z</time>
      </trkpt>
      <trkpt lat="47.359608002007008" lon="10.547954002395272">
        <ele>964.82000000000005</ele>
        <time>2018-09-17T07:43:30Z</time>
      </trkpt>
      <trkpt lat="47.359460983425379" lon="10.547786029055715">
        <ele>964.82000000000005</ele>
        <time>2018-09-17T07:43:31Z</time>
      </trkpt>
      <trkpt lat="47.359300972893834" lon="10.547641022130847">
        <ele>964.82000000000005</ele>
        <time>2018-09-17T07:43:32Z</time>
      </trkpt>
      <trkpt lat="47.359121013432741" lon="10.547551000490785">
        <ele>964.82000000000005</ele>
        <time>2018-09-17T07:43:33Z</time>
      </trkpt>
      <trkpt lat="47.358934013172984" lon="10.547457039356232">
        <ele>964.82000000000005</ele>
        <time>2018-09-17T07:43:34Z</time>
      </trkpt>
      <trkpt lat="47.358727985993028" lon="10.547389984130859">
        <ele>964.82000000000005</ele>
        <time>2018-09-17T07:43:35Z</time>
      </trkpt>
      <trkpt lat="47.358519025146961" lon="10.547389984130859">
        <ele>964.82000000000005</ele>
        <time>2018-09-17T07:43:36Z</time>
      </trkpt>
      <trkpt lat="47.356737032532692" lon="10.547142969444394">
        <ele>965.29999999999995</ele>
        <time>2018-09-17T07:43:44Z</time>
      </trkpt>
      <trkpt lat="47.355356030166149" lon="10.547008020803332">
        <ele>965.77999999999997</ele>
        <time>2018-09-17T07:43:50Z</time>
      </trkpt>
      <trkpt lat="47.355130976065993" lon="10.547034004703164">
        <ele>965.29999999999995</ele>
        <time>2018-09-17T07:43:51Z</time>
      </trkpt>
      <trkpt lat="47.352636018767953" lon="10.547243971377611">
        <ele>964.34000000000003</ele>
        <time>2018-09-17T07:44:02Z</time>
      </trkpt>
      <trkpt lat="47.351139010861516" lon="10.546685988083482">
        <ele>964.82000000000005</ele>
        <time>2018-09-17T07:44:09Z</time>
      </trkpt>
      <trkpt lat="47.34949397854507" lon="10.545309009030461">
        <ele>965.29999999999995</ele>
        <time>2018-09-17T07:44:17Z</time>
      </trkpt>
      <trkpt lat="47.348233005031943" lon="10.544143002480268">
        <ele>966.74000000000001</ele>
        <time>2018-09-17T07:44:24Z</time>
      </trkpt>
      <trkpt lat="47.347060963511467" lon="10.543066011741757">
        <ele>967.22000000000003</ele>
        <time>2018-09-17T07:44:31Z</time>
      </trkpt>
      <trkpt lat="47.346048010513186" lon="10.542136039584875">
        <ele>969.14999999999998</ele>
        <time>2018-09-17T07:44:38Z</time>
      </trkpt>
      <trkpt lat="47.344596013426781" lon="10.541084026917815">
        <ele>973.95000000000005</ele>
        <time>2018-09-17T07:44:49Z</time>
      </trkpt>
      <trkpt lat="47.34313596971333" lon="10.54040702059865">
        <ele>975.38999999999999</ele>
        <time>2018-09-17T07:45:00Z</time>
      </trkpt>
      <trkpt lat="47.341552041471004" lon="10.539998989552259">
        <ele>972.99000000000001</ele>
        <time>2018-09-17T07:45:09Z</time>
      </trkpt>
      <trkpt lat="47.339501995593309" lon="10.539781982079148">
        <ele>973.47000000000003</ele>
        <time>2018-09-17T07:45:21Z</time>
      </trkpt>
      <trkpt lat="47.337640039622784" lon="10.539617026224732">
        <ele>976.36000000000001</ele>
        <time>2018-09-17T07:45:33Z</time>
      </trkpt>
      <trkpt lat="47.335608014836907" lon="10.53916197270155">
        <ele>977.79999999999995</ele>
        <time>2018-09-17T07:45:46Z</time>
      </trkpt>
      <trkpt lat="47.333837002515793" lon="10.538239041343331">
        <ele>979.24000000000001</ele>
        <time>2018-09-17T07:45:57Z</time>
      </trkpt>
      <trkpt lat="47.332229018211365" lon="10.536981001496315">
        <ele>981.15999999999997</ele>
        <time>2018-09-17T07:46:09Z</time>
      </trkpt>
      <trkpt lat="47.331562992185354" lon="10.536379013210535">
        <ele>982.12</ele>
        <time>2018-09-17T07:46:16Z</time>
      </trkpt>
      <trkpt lat="47.331351013854146" lon="10.536182038486004">
        <ele>982.60000000000002</ele>
        <time>2018-09-17T07:46:20Z</time>
      </trkpt>
      <trkpt lat="47.331318994984031" lon="10.53615303710103">
        <ele>983.09000000000003</ele>
        <time>2018-09-17T07:46:21Z</time>
      </trkpt>
      <trkpt lat="47.331283036619425" lon="10.536227971315384">
        <ele>983.57000000000005</ele>
        <time>2018-09-17T07:46:22Z</time>
      </trkpt>
      <trkpt lat="47.331258980557323" lon="10.536296032369137">
        <ele>983.57000000000005</ele>
        <time>2018-09-17T07:46:23Z</time>
      </trkpt>
      <trkpt lat="47.331227967515588" lon="10.536382030695677">
        <ele>983.57000000000005</ele>
        <time>2018-09-17T07:46:24Z</time>
      </trkpt>
      <trkpt lat="47.331194020807743" lon="10.53647699765861">
        <ele>983.57000000000005</ele>
        <time>2018-09-17T07:46:25Z</time>
      </trkpt>
      <trkpt lat="47.331162001937628" lon="10.536567019298673">
        <ele>983.57000000000005</ele>
        <time>2018-09-17T07:46:26Z</time>
      </trkpt>
      <trkpt lat="47.330947006121278" lon="10.537168001756072">
        <ele>984.04999999999995</ele>
        <time>2018-09-17T07:46:36Z</time>
      </trkpt>
      <trkpt lat="47.33073603361845" lon="10.537831010296941">
        <ele>985.00999999999999</ele>
        <time>2018-09-17T07:46:50Z</time>
      </trkpt>
      <trkpt lat="47.330732010304928" lon="10.537850959226489">
        <ele>985.00999999999999</ele>
        <time>2018-09-17T07:47:03Z</time>
      </trkpt>
      <trkpt lat="47.330732010304928" lon="10.537850959226489">
        <ele>985.49000000000001</ele>
        <time>2018-09-17T07:47:23Z</time>
      </trkpt>
      <trkpt lat="47.330732010304928" lon="10.537850959226489">
        <ele>985.49000000000001</ele>
        <time>2018-09-17T07:47:39Z</time>
      </trkpt>
      <trkpt lat="47.330732010304928" lon="10.537850959226489">
        <ele>986.92999999999995</ele>
        <time>2018-09-17T07:48:31Z</time>
      </trkpt>
      <trkpt lat="47.330732010304928" lon="10.537850959226489">
        <ele>987.88999999999999</ele>
        <time>2018-09-17T07:49:26Z</time>
      </trkpt>
      <trkpt lat="47.330732010304928" lon="10.537850959226489">
        <ele>988.37</ele>
        <time>2018-09-17T07:50:28Z</time>
      </trkpt>
      <trkpt lat="47.330732010304928" lon="10.537850959226489">
        <ele>987.88999999999999</ele>
        <time>2018-09-17T07:51:26Z</time>
      </trkpt>
    </trkseg>
  </trk>

  <trk>
    <name>Track vom: 2018-09-17 09:51</name>
    <extensions>
      <gpxx:TrackExtension>
        <gpxx:DisplayColor>DarkGray</gpxx:DisplayColor>
      </gpxx:TrackExtension>
    </extensions>
    <trkseg>
      <trkpt lat="47.330732010304928" lon="10.537850959226489">
        <ele>987.88999999999999</ele>
        <time>2018-09-17T07:51:34Z</time>
      </trkpt>
      <trkpt lat="47.330732010304928" lon="10.537850959226489">
        <ele>987.88999999999999</ele>
        <time>2018-09-17T07:52:25Z</time>
      </trkpt>
      <trkpt lat="47.330732010304928" lon="10.537850959226489">
        <ele>987.88999999999999</ele>
        <time>2018-09-17T07:53:19Z</time>
      </trkpt>
      <trkpt lat="47.330732010304928" lon="10.537850959226489">
        <ele>987.88999999999999</ele>
        <time>2018-09-17T07:54:07Z</time>
      </trkpt>
      <trkpt lat="47.330711977556348" lon="10.537942992523313">
        <ele>987.40999999999997</ele>
        <time>2018-09-17T07:54:21Z</time>
      </trkpt>
      <trkpt lat="47.330668978393078" lon="10.538141978904605">
        <ele>987.40999999999997</ele>
        <time>2018-09-17T07:54:22Z</time>
      </trkpt>
      <trkpt lat="47.330733016133308" lon="10.537847019731998">
        <ele>986.45000000000005</ele>
        <time>2018-09-17T07:54:24Z</time>
      </trkpt>
      <trkpt lat="47.330740978941321" lon="10.5378089658916">
        <ele>986.45000000000005</ele>
        <time>2018-09-17T07:54:25Z</time>
      </trkpt>
      <trkpt lat="47.330747013911605" lon="10.537779964506626">
        <ele>985.97000000000003</ele>
        <time>2018-09-17T07:54:26Z</time>
      </trkpt>
      <trkpt lat="47.330747013911605" lon="10.537779964506626">
        <ele>985.97000000000003</ele>
        <time>2018-09-17T07:54:41Z</time>
      </trkpt>
      <trkpt lat="47.330747013911605" lon="10.537779964506626">
        <ele>985.00999999999999</ele>
        <time>2018-09-17T07:55:38Z</time>
      </trkpt>
      <trkpt lat="47.330747013911605" lon="10.537779964506626">
        <ele>985.00999999999999</ele>
        <time>2018-09-17T07:56:32Z</time>
      </trkpt>
      <trkpt lat="47.33078196644783" lon="10.537632023915648">
        <ele>984.04999999999995</ele>
        <time>2018-09-17T07:56:41Z</time>
      </trkpt>
      <trkpt lat="47.331000985577703" lon="10.537016959860921">
        <ele>983.57000000000005</ele>
        <time>2018-09-17T07:56:47Z</time>
      </trkpt>
      <trkpt lat="47.331244982779026" lon="10.536334002390504">
        <ele>982.12</ele>
        <time>2018-09-17T07:56:54Z</time>
      </trkpt>
      <trkpt lat="47.331265015527606" lon="10.536280022934079">
        <ele>982.12</ele>
        <time>2018-09-17T07:56:55Z</time>
      </trkpt>
      <trkpt lat="47.331361994147301" lon="10.536192012950778">
        <ele>981.63999999999999</ele>
        <time>2018-09-17T07:56:56Z</time>
      </trkpt>
      <trkpt lat="47.331404993310571" lon="10.536231994628906">
        <ele>981.63999999999999</ele>
        <time>2018-09-17T07:56:57Z</time>
      </trkpt>
      <trkpt lat="47.331472970545292" lon="10.536296032369137">
        <ele>981.15999999999997</ele>
        <time>2018-09-17T07:56:58Z</time>
      </trkpt>
      <trkpt lat="47.331558968871832" lon="10.536375995725393">
        <ele>980.67999999999995</ele>
        <time>2018-09-17T07:56:59Z</time>
      </trkpt>
      <trkpt lat="47.33166097663343" lon="10.536470962688327">
        <ele>980.67999999999995</ele>
        <time>2018-09-17T07:57:00Z</time>
      </trkpt>
      <trkpt lat="47.332726987078786" lon="10.537394983693957">
        <ele>979.24000000000001</ele>
        <time>2018-09-17T07:57:08Z</time>
      </trkpt>
      <trkpt lat="47.334657004103065" lon="10.538771962746978">
        <ele>976.84000000000003</ele>
        <time>2018-09-17T07:57:20Z</time>
      </trkpt>
      <trkpt lat="47.336708977818489" lon="10.539479982107878">
        <ele>975.88</ele>
        <time>2018-09-17T07:57:31Z</time>
      </trkpt>
      <trkpt lat="47.339286999776959" lon="10.539765972644091">
        <ele>976.36000000000001</ele>
        <time>2018-09-17T07:57:44Z</time>
      </trkpt>
      <trkpt lat="47.341256998479366" lon="10.539966970682144">
        <ele>973.95000000000005</ele>
        <time>2018-09-17T07:57:52Z</time>
      </trkpt>
      <trkpt lat="47.343568978831172" lon="10.540546998381615">
        <ele>973.95000000000005</ele>
        <time>2018-09-17T07:58:01Z</time>
      </trkpt>
      <trkpt lat="47.345617013052106" lon="10.541790034621954">
        <ele>972.02999999999997</ele>
        <time>2018-09-17T07:58:10Z</time>
      </trkpt>
      <trkpt lat="47.348084980621934" lon="10.544005958363414">
        <ele>965.77999999999997</ele>
        <time>2018-09-17T07:58:21Z</time>
      </trkpt>
      <trkpt lat="47.350971037521958" lon="10.546588003635406">
        <ele>963.38</ele>
        <time>2018-09-17T07:58:34Z</time>
      </trkpt>
      <trkpt lat="47.352358996868134" lon="10.547198038548231">
        <ele>962.89999999999998</ele>
        <time>2018-09-17T07:58:40Z</time>
      </trkpt>
      <trkpt lat="47.354063037782907" lon="10.547156967222691">
        <ele>961.94000000000005</ele>
        <time>2018-09-17T07:58:47Z</time>
      </trkpt>
      <trkpt lat="47.355729024857283" lon="10.547002991661429">
        <ele>960.49000000000001</ele>
        <time>2018-09-17T07:58:54Z</time>
      </trkpt>
      <trkpt lat="47.357383025810122" lon="10.547197032719851">
        <ele>958.09000000000003</ele>
        <time>2018-09-17T07:59:01Z</time>
      </trkpt>
      <trkpt lat="47.358852038159966" lon="10.547415968030691">
        <ele>953.27999999999997</ele>
        <time>2018-09-17T07:59:07Z</time>
      </trkpt>
      <trkpt lat="47.359054964035749" lon="10.547517975792289">
        <ele>952.79999999999995</ele>
        <time>2018-09-17T07:59:08Z</time>
      </trkpt>
      <trkpt lat="47.359252022579312" lon="10.547615960240364">
        <ele>952.32000000000005</ele>
        <time>2018-09-17T07:59:09Z</time>
      </trkpt>
      <trkpt lat="47.359433993697166" lon="10.54775501601398">
        <ele>951.84000000000003</ele>
        <time>2018-09-17T07:59:10Z</time>
      </trkpt>
      <trkpt lat="47.359599033370614" lon="10.547942016273737">
        <ele>951.36000000000001</ele>
        <time>2018-09-17T07:59:11Z</time>
      </trkpt>
      <trkpt lat="47.359744040295482" lon="10.548171009868383">
        <ele>951.36000000000001</ele>
        <time>2018-09-17T07:59:12Z</time>
      </trkpt>
      <trkpt lat="47.35987002030015" lon="10.548439985141158">
        <ele>951.36000000000001</ele>
        <time>2018-09-17T07:59:13Z</time>
      </trkpt>
      <trkpt lat="47.360002035275102" lon="10.548720024526119">
        <ele>951.36000000000001</ele>
        <time>2018-09-17T07:59:14Z</time>
      </trkpt>
      <trkpt lat="47.360878027975559" lon="10.550396991893649">
        <ele>950.39999999999998</ele>
        <time>2018-09-17T07:59:20Z</time>
      </trkpt>
      <trkpt lat="47.361004007980227" lon="10.550631014630198">
        <ele>950.39999999999998</ele>
        <time>2018-09-17T07:59:21Z</time>
      </trkpt>
      <trkpt lat="47.36116100102663" lon="10.550843998789787">
        <ele>950.39999999999998</ele>
        <time>2018-09-17T07:59:22Z</time>
      </trkpt>
      <trkpt lat="47.361340038478374" lon="10.550958998501301">
        <ele>950.39999999999998</ele>
        <time>2018-09-17T07:59:23Z</time>
      </trkpt>
      <trkpt lat="47.361709009855986" lon="10.551197966560721">
        <ele>950.39999999999998</ele>
        <time>2018-09-17T07:59:25Z</time>
      </trkpt>
      <trkpt lat="47.362064989283681" lon="10.551427965983748">
        <ele>949.91999999999996</ele>
        <time>2018-09-17T07:59:27Z</time>
      </trkpt>
      <trkpt lat="47.36225500702858" lon="10.551469037309289">
        <ele>949.44000000000005</ele>
        <time>2018-09-17T07:59:28Z</time>
      </trkpt>
      <trkpt lat="47.362452987581491" lon="10.55147297680378">
        <ele>949.44000000000005</ele>
        <time>2018-09-17T07:59:29Z</time>
      </trkpt>
      <trkpt lat="47.363299978896976" lon="10.551508013159037">
        <ele>948</ele>
        <time>2018-09-17T07:59:33Z</time>
      </trkpt>
      <trkpt lat="47.363511035218835" lon="10.551581019535661">
        <ele>948</ele>
        <time>2018-09-17T07:59:34Z</time>
      </trkpt>
      <trkpt lat="47.363918982446194" lon="10.551719991490245">
        <ele>948</ele>
        <time>2018-09-17T07:59:36Z</time>
      </trkpt>
      <trkpt lat="47.364106988534331" lon="10.551784029230475">
        <ele>947.51999999999998</ele>
        <time>2018-09-17T07:59:37Z</time>
      </trkpt>
      <trkpt lat="47.364303963258862" lon="10.551762990653515">
        <ele>947.51999999999998</ele>
        <time>2018-09-17T07:59:38Z</time>
      </trkpt>
      <trkpt lat="47.364908969029784" lon="10.551739018410444">
        <ele>947.51999999999998</ele>
        <time>2018-09-17T07:59:41Z</time>
      </trkpt>
      <trkpt lat="47.366022001951933" lon="10.552106983959675">
        <ele>948.48000000000002</ele>
        <time>2018-09-17T07:59:46Z</time>
      </trkpt>
      <trkpt lat="47.366456016898155" lon="10.552316028624773">
        <ele>949.44000000000005</ele>
        <time>2018-09-17T07:59:48Z</time>
      </trkpt>
      <trkpt lat="47.366667995229363" lon="10.552413007244468">
        <ele>949.91999999999996</ele>
        <time>2018-09-17T07:59:49Z</time>
      </trkpt>
      <trkpt lat="47.366891037672758" lon="10.552442008629441">
        <ele>950.39999999999998</ele>
        <time>2018-09-17T07:59:50Z</time>
      </trkpt>
      <trkpt lat="47.367337960749865" lon="10.55254896171391">
        <ele>950.88</ele>
        <time>2018-09-17T07:59:52Z</time>
      </trkpt>
      <trkpt lat="47.367557985708117" lon="10.552634038031101">
        <ele>950.88</ele>
        <time>2018-09-17T07:59:53Z</time>
      </trkpt>
      <trkpt lat="47.36777801066637" lon="10.552719030529261">
        <ele>950.88</ele>
        <time>2018-09-17T07:59:54Z</time>
      </trkpt>
      <trkpt lat="47.367995018139482" lon="10.552803017199039">
        <ele>951.36000000000001</ele>
        <time>2018-09-17T07:59:55Z</time>
      </trkpt>
      <trkpt lat="47.368217976763844" lon="10.552861019968987">
        <ele>951.36000000000001</ele>
        <time>2018-09-17T07:59:56Z</time>
      </trkpt>
      <trkpt lat="47.36977600492537" lon="10.553168971091509">
        <ele>953.27999999999997</ele>
        <time>2018-09-17T08:00:03Z</time>
      </trkpt>
      <trkpt lat="47.37020599655807" lon="10.553165031597018">
        <ele>953.76999999999998</ele>
        <time>2018-09-17T08:00:05Z</time>
      </trkpt>
      <trkpt lat="47.370959026739001" lon="10.553143993020058">
        <ele>955.21000000000004</ele>
        <time>2018-09-17T08:00:09Z</time>
      </trkpt>
      <trkpt lat="47.371123982593417" lon="10.553222028538585">
        <ele>955.21000000000004</ele>
        <time>2018-09-17T08:00:10Z</time>
      </trkpt>
      <trkpt lat="47.371292961761355" lon="10.55332001298666">
        <ele>955.21000000000004</ele>
        <time>2018-09-17T08:00:11Z</time>
      </trkpt>
      <trkpt lat="47.371939038857818" lon="10.553791997954249">
        <ele>955.21000000000004</ele>
        <time>2018-09-17T08:00:15Z</time>
      </trkpt>
      <trkpt lat="47.372081028297544" lon="10.553853018209338">
        <ele>955.21000000000004</ele>
        <time>2018-09-17T08:00:16Z</time>
      </trkpt>
      <trkpt lat="47.37222402356565" lon="10.553861986845732">
        <ele>955.21000000000004</ele>
        <time>2018-09-17T08:00:17Z</time>
      </trkpt>
      <trkpt lat="47.372379004955292" lon="10.553868021816015">
        <ele>955.21000000000004</ele>
        <time>2018-09-17T08:00:18Z</time>
      </trkpt>
      <trkpt lat="47.372546978294849" lon="10.553841032087803">
        <ele>955.21000000000004</ele>
        <time>2018-09-17T08:00:19Z</time>
      </trkpt>
      <trkpt lat="47.373295985162258" lon="10.553725026547909">
        <ele>954.25</ele>
        <time>2018-09-17T08:00:23Z</time>
      </trkpt>
      <trkpt lat="47.373871989548206" lon="10.553813958540559">
        <ele>953.76999999999998</ele>
        <time>2018-09-17T08:00:26Z</time>
      </trkpt>
      <trkpt lat="47.374263005331159" lon="10.553992995992303">
        <ele>953.27999999999997</ele>
        <time>2018-09-17T08:00:28Z</time>
      </trkpt>
      <trkpt lat="47.374455034732819" lon="10.554112019017339">
        <ele>953.27999999999997</ele>
        <time>2018-09-17T08:00:29Z</time>
      </trkpt>
      <trkpt lat="47.376240966841578" lon="10.555481035262346">
        <ele>951.84000000000003</ele>
        <time>2018-09-17T08:00:38Z</time>
      </trkpt>
      <trkpt lat="47.378147011622787" lon="10.556574035435915">
        <ele>950.39999999999998</ele>
        <time>2018-09-17T08:00:47Z</time>
      </trkpt>
      <trkpt lat="47.379643013700843" lon="10.557922013103962">
        <ele>947.51999999999998</ele>
        <time>2018-09-17T08:00:55Z</time>
      </trkpt>
      <trkpt lat="47.380340974777937" lon="10.558636989444494">
        <ele>946.55999999999995</ele>
        <time>2018-09-17T08:01:01Z</time>
      </trkpt>
      <trkpt lat="47.381101967766881" lon="10.55950996465981">
        <ele>945.11000000000001</ele>
        <time>2018-09-17T08:01:10Z</time>
      </trkpt>
      <trkpt lat="47.381178997457027" lon="10.559565033763647">
        <ele>945.11000000000001</ele>
        <time>2018-09-17T08:01:11Z</time>
      </trkpt>
      <trkpt lat="47.381253009662032" lon="10.559618007391691">
        <ele>945.11000000000001</ele>
        <time>2018-09-17T08:01:12Z</time>
      </trkpt>
      <trkpt lat="47.381324004381895" lon="10.559668969362974">
        <ele>945.11000000000001</ele>
        <time>2018-09-17T08:01:13Z</time>
      </trkpt>
      <trkpt lat="47.381394999101758" lon="10.559719009324908">
        <ele>945.11000000000001</ele>
        <time>2018-09-17T08:01:14Z</time>
      </trkpt>
      <trkpt lat="47.382297981530428" lon="10.560137014836073">
        <ele>946.55999999999995</ele>
        <time>2018-09-17T08:01:27Z</time>
      </trkpt>
      <trkpt lat="47.38236403092742" lon="10.560170039534569">
        <ele>946.55999999999995</ele>
        <time>2018-09-17T08:01:28Z</time>
      </trkpt>
      <trkpt lat="47.382432008162141" lon="10.560182025656104">
        <ele>946.55999999999995</ele>
        <time>2018-09-17T08:01:29Z</time>
      </trkpt>
      <trkpt lat="47.382505014538765" lon="10.560185965150595">
        <ele>947.03999999999996</ele>
        <time>2018-09-17T08:01:30Z</time>
      </trkpt>
      <trkpt lat="47.382722022011876" lon="10.560198035091162">
        <ele>947.03999999999996</ele>
        <time>2018-09-17T08:01:33Z</time>
      </trkpt>
      <trkpt lat="47.38279402256012" lon="10.560202980414033">
        <ele>947.03999999999996</ele>
        <time>2018-09-17T08:01:34Z</time>
      </trkpt>
      <trkpt lat="47.382863005623221" lon="10.560210021212697">
        <ele>947.03999999999996</ele>
        <time>2018-09-17T08:01:35Z</time>
      </trkpt>
      <trkpt lat="47.382928971201181" lon="10.560215972363949">
        <ele>947.03999999999996</ele>
        <time>2018-09-17T08:01:36Z</time>
      </trkpt>
      <trkpt lat="47.383006000891328" lon="10.560256959870458">
        <ele>946.55999999999995</ele>
        <time>2018-09-17T08:01:37Z</time>
      </trkpt>
      <trkpt lat="47.383068026974797" lon="10.560374977067113">
        <ele>946.55999999999995</ele>
        <time>2018-09-17T08:01:38Z</time>
      </trkpt>
      <trkpt lat="47.383068026974797" lon="10.560469022020698">
        <ele>946.07000000000005</ele>
        <time>2018-09-17T08:01:39Z</time>
      </trkpt>
      <trkpt lat="47.383056040853262" lon="10.560599025338888">
        <ele>945.59000000000003</ele>
        <time>2018-09-17T08:01:40Z</time>
      </trkpt>
      <trkpt lat="47.383021004498005" lon="10.560696003958583">
        <ele>945.11000000000001</ele>
        <time>2018-09-17T08:01:41Z</time>
      </trkpt>
      <trkpt lat="47.382982028648257" lon="10.560801029205322">
        <ele>944.63</ele>
        <time>2018-09-17T08:01:43Z</time>
      </trkpt>
      <trkpt lat="47.382941041141748" lon="10.561028011143208">
        <ele>944.63</ele>
        <time>2018-09-17T08:01:44Z</time>
      </trkpt>
      <trkpt lat="47.382889995351434" lon="10.561070004478097">
        <ele>944.14999999999998</ele>
        <time>2018-09-17T08:01:45Z</time>
      </trkpt>
      <trkpt lat="47.38283802755177" lon="10.561111997812986">
        <ele>943.66999999999996</ele>
        <time>2018-09-17T08:01:46Z</time>
      </trkpt>
      <trkpt lat="47.382782958447933" lon="10.561157008633018">
        <ele>943.66999999999996</ele>
        <time>2018-09-17T08:01:47Z</time>
      </trkpt>
      <trkpt lat="47.382739959284663" lon="10.561200007796288">
        <ele>943.66999999999996</ele>
        <time>2018-09-17T08:01:48Z</time>
      </trkpt>
      <trkpt lat="47.382696038112044" lon="10.561288017779589">
        <ele>943.66999999999996</ele>
        <time>2018-09-17T08:01:49Z</time>
      </trkpt>
      <trkpt lat="47.382647003978491" lon="10.561384996399283">
        <ele>943.66999999999996</ele>
        <time>2018-09-17T08:01:50Z</time>
      </trkpt>
      <trkpt lat="47.382594030350447" lon="10.561492033302784">
        <ele>944.14999999999998</ele>
        <time>2018-09-17T08:01:51Z</time>
      </trkpt>
      <trkpt lat="47.381839994341135" lon="10.562558965757489">
        <ele>949.91999999999996</ele>
        <time>2018-09-17T08:02:00Z</time>
      </trkpt>
      <trkpt lat="47.381739998236299" lon="10.562682012096047">
        <ele>950.88</ele>
        <time>2018-09-17T08:02:01Z</time>
      </trkpt>
      <trkpt lat="47.381666991859674" lon="10.562832970172167">
        <ele>952.32000000000005</ele>
        <time>2018-09-17T08:02:02Z</time>
      </trkpt>
      <trkpt lat="47.381598008796573" lon="10.563003960996866">
        <ele>953.27999999999997</ele>
        <time>2018-09-17T08:02:03Z</time>
      </trkpt>
      <trkpt lat="47.381530031561852" lon="10.563172018155456">
        <ele>954.73000000000002</ele>
        <time>2018-09-17T08:02:04Z</time>
      </trkpt>
      <trkpt lat="47.38146398216486" lon="10.56333496235311">
        <ele>956.16999999999996</ele>
        <time>2018-09-17T08:02:05Z</time>
      </trkpt>
      <trkpt lat="47.381338002160192" lon="10.563647020608187">
        <ele>958.57000000000005</ele>
        <time>2018-09-17T08:02:07Z</time>
      </trkpt>
      <trkpt lat="47.381266001611948" lon="10.56382698006928">
        <ele>960.00999999999999</ele>
        <time>2018-09-17T08:02:08Z</time>
      </trkpt>
      <trkpt lat="47.381204981356859" lon="10.563932005316019">
        <ele>960.98000000000002</ele>
        <time>2018-09-17T08:02:09Z</time>
      </trkpt>
      <trkpt lat="47.38049796782434" lon="10.565276965498924">
        <ele>966.74000000000001</ele>
        <time>2018-09-17T08:02:17Z</time>
      </trkpt>
      <trkpt lat="47.380301998928189" lon="10.565667981281877">
        <ele>967.70000000000005</ele>
        <time>2018-09-17T08:02:19Z</time>
      </trkpt>
      <trkpt lat="47.3802409786731" lon="10.565895969048142">
        <ele>968.17999999999995</ele>
        <time>2018-09-17T08:02:20Z</time>
      </trkpt>
      <trkpt lat="47.380177024751902" lon="10.566137032583356">
        <ele>968.66999999999996</ele>
        <time>2018-09-17T08:02:21Z</time>
      </trkpt>
      <trkpt lat="47.38004500977695" lon="10.566635001450777">
        <ele>970.11000000000001</ele>
        <time>2018-09-17T08:02:23Z</time>
      </trkpt>
      <trkpt lat="47.379950964823365" lon="10.566870030015707">
        <ele>970.59000000000003</ele>
        <time>2018-09-17T08:02:24Z</time>
      </trkpt>
      <trkpt lat="47.379840994253755" lon="10.567096006125212">
        <ele>970.59000000000003</ele>
        <time>2018-09-17T08:02:25Z</time>
      </trkpt>
      <trkpt lat="47.379730017855763" lon="10.567326005548239">
        <ele>971.07000000000005</ele>
        <time>2018-09-17T08:02:26Z</time>
      </trkpt>
      <trkpt lat="47.379605965688825" lon="10.567541001364589">
        <ele>971.54999999999995</ele>
        <time>2018-09-17T08:02:27Z</time>
      </trkpt>
      <trkpt lat="47.378225969150662" lon="10.569766983389854">
        <ele>983.09000000000003</ele>
        <time>2018-09-17T08:02:38Z</time>
      </trkpt>
      <trkpt lat="47.378084985539317" lon="10.569922970607877">
        <ele>984.04999999999995</ele>
        <time>2018-09-17T08:02:39Z</time>
      </trkpt>
      <trkpt lat="47.377924975007772" lon="10.570017015561461">
        <ele>985.00999999999999</ele>
        <time>2018-09-17T08:02:40Z</time>
      </trkpt>
      <trkpt lat="47.377635966986418" lon="10.570184988901019">
        <ele>987.88999999999999</ele>
        <time>2018-09-17T08:02:42Z</time>
      </trkpt>
      <trkpt lat="47.377519961446524" lon="10.570276016369462">
        <ele>989.33000000000004</ele>
        <time>2018-09-17T08:02:43Z</time>
      </trkpt>
      <trkpt lat="47.377418959513307" lon="10.570377018302679">
        <ele>990.77999999999997</ele>
        <time>2018-09-17T08:02:44Z</time>
      </trkpt>
      <trkpt lat="47.377363974228501" lon="10.570542979985476">
        <ele>992.22000000000003</ele>
        <time>2018-09-17T08:02:45Z</time>
      </trkpt>
      <trkpt lat="47.377321980893612" lon="10.570700978860259">
        <ele>993.17999999999995</ele>
        <time>2018-09-17T08:02:46Z</time>
      </trkpt>
      <trkpt lat="47.377303959801793" lon="10.570858977735043">
        <ele>994.62</ele>
        <time>2018-09-17T08:02:47Z</time>
      </trkpt>
      <trkpt lat="47.377323992550373" lon="10.570999961346388">
        <ele>996.05999999999995</ele>
        <time>2018-09-17T08:02:48Z</time>
      </trkpt>
      <trkpt lat="47.377342013642192" lon="10.571130970492959">
        <ele>997.50999999999999</ele>
        <time>2018-09-17T08:02:49Z</time>
      </trkpt>
      <trkpt lat="47.37735802307725" lon="10.571250999346375">
        <ele>998.47000000000003</ele>
        <time>2018-09-17T08:02:50Z</time>
      </trkpt>
      <trkpt lat="47.377373026683927" lon="10.571355018764734">
        <ele>999.90999999999997</ele>
        <time>2018-09-17T08:02:51Z</time>
      </trkpt>
      <trkpt lat="47.377379983663559" lon="10.57143003679812">
        <ele>1001.35</ele>
        <time>2018-09-17T08:02:52Z</time>
      </trkpt>
      <trkpt lat="47.37735902890563" lon="10.571513017639518">
        <ele>1002.3099999999999</ele>
        <time>2018-09-17T08:02:53Z</time>
      </trkpt>
      <trkpt lat="47.377328015863895" lon="10.571592980995774">
        <ele>1003.75</ele>
        <time>2018-09-17T08:02:54Z</time>
      </trkpt>
      <trkpt lat="47.377284010872245" lon="10.571586024016142">
        <ele>1004.72</ele>
        <time>2018-09-17T08:02:55Z</time>
      </trkpt>
      <trkpt lat="47.377237994223833" lon="10.571579989045858">
        <ele>1005.6799999999999</ele>
        <time>2018-09-17T08:02:56Z</time>
      </trkpt>
      <trkpt lat="47.377172028645873" lon="10.571536989882588">
        <ele>1007.12</ele>
        <time>2018-09-17T08:02:57Z</time>
      </trkpt>
      <trkpt lat="47.37712299451232" lon="10.571431964635849">
        <ele>1008.08</ele>
        <time>2018-09-17T08:02:58Z</time>
      </trkpt>
      <trkpt lat="47.377068009227514" lon="10.571315037086606">
        <ele>1009.04</ele>
        <time>2018-09-17T08:02:59Z</time>
      </trkpt>
      <trkpt lat="47.377007994800806" lon="10.57119500823319">
        <ele>1010</ele>
        <time>2018-09-17T08:03:00Z</time>
      </trkpt>
      <trkpt lat="47.37692803144455" lon="10.571084031835198">
        <ele>1010.96</ele>
        <time>2018-09-17T08:03:01Z</time>
      </trkpt>
      <trkpt lat="47.376819988712668" lon="10.571038015186787">
        <ele>1011.9299999999999</ele>
        <time>2018-09-17T08:03:02Z</time>
      </trkpt>
      <trkpt lat="47.376699037849903" lon="10.571010019630194">
        <ele>1013.37</ele>
        <time>2018-09-17T08:03:03Z</time>
      </trkpt>
      <trkpt lat="47.376585965976119" lon="10.570984035730362">
        <ele>1014.8099999999999</ele>
        <time>2018-09-17T08:03:04Z</time>
      </trkpt>
      <trkpt lat="47.376481024548411" lon="10.57095997966826">
        <ele>1015.77</ele>
        <time>2018-09-17T08:03:05Z</time>
      </trkpt>
      <trkpt lat="47.376384967938066" lon="10.570904994383454">
        <ele>1017.21</ele>
        <time>2018-09-17T08:03:06Z</time>
      </trkpt>
      <trkpt lat="47.37628597766161" lon="10.570814972743392">
        <ele>1018.65</ele>
        <time>2018-09-17T08:03:07Z</time>
      </trkpt>
      <trkpt lat="47.37626301124692" lon="10.570712964981794">
        <ele>1019.62</ele>
        <time>2018-09-17T08:03:08Z</time>
      </trkpt>
      <trkpt lat="47.376239961013198" lon="10.570609029382467">
        <ele>1020.58</ele>
        <time>2018-09-17T08:03:09Z</time>
      </trkpt>
      <trkpt lat="47.376213977113366" lon="10.570497969165444">
        <ele>1021.54</ele>
        <time>2018-09-17T08:03:10Z</time>
      </trkpt>
      <trkpt lat="47.376184975728393" lon="10.570367965847254">
        <ele>1022.5</ele>
        <time>2018-09-17T08:03:11Z</time>
      </trkpt>
      <trkpt lat="47.376151029020548" lon="10.570217007771134">
        <ele>1023.46</ele>
        <time>2018-09-17T08:03:12Z</time>
      </trkpt>
      <trkpt lat="47.376085985451937" lon="10.570075018331409">
        <ele>1023.9400000000001</ele>
        <time>2018-09-17T08:03:13Z</time>
      </trkpt>
      <trkpt lat="47.375997975468636" lon="10.569935040548444">
        <ele>1024.4200000000001</ele>
        <time>2018-09-17T08:03:14Z</time>
      </trkpt>
      <trkpt lat="47.375906025990844" lon="10.569788021966815">
        <ele>1025.3800000000001</ele>
        <time>2018-09-17T08:03:15Z</time>
      </trkpt>
      <trkpt lat="47.375507969409227" lon="10.56915401481092">
        <ele>1030.1900000000001</ele>
        <time>2018-09-17T08:03:19Z</time>
      </trkpt>
      <trkpt lat="47.375430017709732" lon="10.568985035642982">
        <ele>1031.1500000000001</ele>
        <time>2018-09-17T08:03:20Z</time>
      </trkpt>
      <trkpt lat="47.375386012718081" lon="10.568826030939817">
        <ele>1032.5899999999999</ele>
        <time>2018-09-17T08:03:21Z</time>
      </trkpt>
      <trkpt lat="47.375366985797882" lon="10.568655040115118">
        <ele>1033.55</ele>
        <time>2018-09-17T08:03:22Z</time>
      </trkpt>
      <trkpt lat="47.375349970534444" lon="10.568513972684741">
        <ele>1035</ele>
        <time>2018-09-17T08:03:23Z</time>
      </trkpt>
      <trkpt lat="47.375335972756147" lon="10.568388998508453">
        <ele>1036.4400000000001</ele>
        <time>2018-09-17T08:03:24Z</time>
      </trkpt>
      <trkpt lat="47.375322980806231" lon="10.568278022110462">
        <ele>1037.8800000000001</ele>
        <time>2018-09-17T08:03:25Z</time>
      </trkpt>
      <trkpt lat="47.375271013006568" lon="10.568218007683754">
        <ele>1038.8399999999999</ele>
        <time>2018-09-17T08:03:26Z</time>
      </trkpt>
      <trkpt lat="47.375218039378524" lon="10.568164028227329">
        <ele>1039.8</ele>
        <time>2018-09-17T08:03:27Z</time>
      </trkpt>
      <trkpt lat="47.375162970274687" lon="10.568170985206962">
        <ele>1040.28</ele>
        <time>2018-09-17T08:03:28Z</time>
      </trkpt>
      <trkpt lat="47.375100022181869" lon="10.568195041269064">
        <ele>1041.25</ele>
        <time>2018-09-17T08:03:29Z</time>
      </trkpt>
      <trkpt lat="47.375043025240302" lon="10.568290008231997">
        <ele>1041.73</ele>
        <time>2018-09-17T08:03:30Z</time>
      </trkpt>
      <trkpt lat="47.375025004148483" lon="10.568413976579905">
        <ele>1042.21</ele>
        <time>2018-09-17T08:03:31Z</time>
      </trkpt>
      <trkpt lat="47.375002959743142" lon="10.568567030131817">
        <ele>1042.21</ele>
        <time>2018-09-17T08:03:32Z</time>
      </trkpt>
      <trkpt lat="47.374978987500072" lon="10.568738020956516">
        <ele>1042.6900000000001</ele>
        <time>2018-09-17T08:03:33Z</time>
      </trkpt>
      <trkpt lat="47.374946968629956" lon="10.56891999207437">
        <ele>1043.1700000000001</ele>
        <time>2018-09-17T08:03:34Z</time>
      </trkpt>
      <trkpt lat="47.374887960031629" lon="10.569092994555831">
        <ele>1043.6500000000001</ele>
        <time>2018-09-17T08:03:35Z</time>
      </trkpt>
      <trkpt lat="47.374699031934142" lon="10.569652989506721">
        <ele>1046.05</ele>
        <time>2018-09-17T08:03:38Z</time>
      </trkpt>
      <trkpt lat="47.374685034155846" lon="10.569868991151452">
        <ele>1047.01</ele>
        <time>2018-09-17T08:03:39Z</time>
      </trkpt>
      <trkpt lat="47.374684028327465" lon="10.570089016109705">
        <ele>1047.97</ele>
        <time>2018-09-17T08:03:40Z</time>
      </trkpt>
      <trkpt lat="47.374692996963859" lon="10.570313986390829">
        <ele>1048.9400000000001</ele>
        <time>2018-09-17T08:03:41Z</time>
      </trkpt>
      <trkpt lat="47.374703977257013" lon="10.570548009127378">
        <ele>1050.3800000000001</ele>
        <time>2018-09-17T08:03:42Z</time>
      </trkpt>
      <trkpt lat="47.374714035540819" lon="10.57078798301518">
        <ele>1051.3399999999999</ele>
        <time>2018-09-17T08:03:43Z</time>
      </trkpt>
      <trkpt lat="47.374711018055677" lon="10.571031980216503">
        <ele>1052.78</ele>
        <time>2018-09-17T08:03:44Z</time>
      </trkpt>
      <trkpt lat="47.374678999185562" lon="10.571273965761065">
        <ele>1054.22</ele>
        <time>2018-09-17T08:03:45Z</time>
      </trkpt>
      <trkpt lat="47.374584032222629" lon="10.572008974850178">
        <ele>1059.03</ele>
        <time>2018-09-17T08:03:48Z</time>
      </trkpt>
      <trkpt lat="47.374584032222629" lon="10.572255989536643">
        <ele>1060.47</ele>
        <time>2018-09-17T08:03:49Z</time>
      </trkpt>
      <trkpt lat="47.374604986980557" lon="10.572496969252825">
        <ele>1061.9100000000001</ele>
        <time>2018-09-17T08:03:50Z</time>
      </trkpt>
      <trkpt lat="47.374645974487066" lon="10.572730991989374">
        <ele>1063.3599999999999</ele>
        <time>2018-09-17T08:03:51Z</time>
      </trkpt>
      <trkpt lat="47.374700037762523" lon="10.572945987805724">
        <ele>1065.28</ele>
        <time>2018-09-17T08:03:52Z</time>
      </trkpt>
      <trkpt lat="47.374793998897076" lon="10.573140028864145">
        <ele>1066.72</ele>
        <time>2018-09-17T08:03:53Z</time>
      </trkpt>
      <trkpt lat="47.374885026365519" lon="10.573328034952283">
        <ele>1068.6400000000001</ele>
        <time>2018-09-17T08:03:54Z</time>
      </trkpt>
      <trkpt lat="47.374974964186549" lon="10.573514029383659">
        <ele>1070.0799999999999</ele>
        <time>2018-09-17T08:03:55Z</time>
      </trkpt>
      <trkpt lat="47.375063979998231" lon="10.573700023815036">
        <ele>1072.01</ele>
        <time>2018-09-17T08:03:56Z</time>
      </trkpt>
      <trkpt lat="47.375151989981532" lon="10.573887024074793">
        <ele>1073.9300000000001</ele>
        <time>2018-09-17T08:03:57Z</time>
      </trkpt>
      <trkpt lat="47.37523203715682" lon="10.574092967435718">
        <ele>1075.3699999999999</ele>
        <time>2018-09-17T08:03:58Z</time>
      </trkpt>
      <trkpt lat="47.375285010784864" lon="10.574318021535873">
        <ele>1076.8099999999999</ele>
        <time>2018-09-17T08:03:59Z</time>
      </trkpt>
      <trkpt lat="47.375337984412909" lon="10.574539974331856">
        <ele>1078.74</ele>
        <time>2018-09-17T08:04:00Z</time>
      </trkpt>
      <trkpt lat="47.375389030203223" lon="10.574756981804967">
        <ele>1080.6600000000001</ele>
        <time>2018-09-17T08:04:01Z</time>
      </trkpt>
      <trkpt lat="47.375462036579847" lon="10.574950017035007">
        <ele>1082.0999999999999</ele>
        <time>2018-09-17T08:04:02Z</time>
      </trkpt>
      <trkpt lat="47.375549040734768" lon="10.575137017294765">
        <ele>1084.02</ele>
        <time>2018-09-17T08:04:03Z</time>
      </trkpt>
      <trkpt lat="47.375715002417564" lon="10.575495008379221">
        <ele>1086.9100000000001</ele>
        <time>2018-09-17T08:04:05Z</time>
      </trkpt>
      <trkpt lat="47.375789014622569" lon="10.575654013082385">
        <ele>1088.8299999999999</ele>
        <time>2018-09-17T08:04:06Z</time>
      </trkpt>
      <trkpt lat="47.375841988250613" lon="10.575851993635297">
        <ele>1090.27</ele>
        <time>2018-09-17T08:04:07Z</time>
      </trkpt>
      <trkpt lat="47.375853974372149" lon="10.576060032472014">
        <ele>1091.71</ele>
        <time>2018-09-17T08:04:08Z</time>
      </trkpt>
      <trkpt lat="47.375866966322064" lon="10.576282991096377">
        <ele>1093.1600000000001</ele>
        <time>2018-09-17T08:04:09Z</time>
      </trkpt>
      <trkpt lat="47.37587995827198" lon="10.576510978862643">
        <ele>1094.5999999999999</ele>
        <time>2018-09-17T08:04:10Z</time>
      </trkpt>
      <trkpt lat="47.375893034040928" lon="10.576747013255954">
        <ele>1096.52</ele>
        <time>2018-09-17T08:04:11Z</time>
      </trkpt>
      <trkpt lat="47.375922035425901" lon="10.5769760068506">
        <ele>1098.4400000000001</ele>
        <time>2018-09-17T08:04:12Z</time>
      </trkpt>
      <trkpt lat="47.375978026539087" lon="10.577202988788486">
        <ele>1100.3699999999999</ele>
        <time>2018-09-17T08:04:13Z</time>
      </trkpt>
      <trkpt lat="47.376153040677309" lon="10.577902039512992">
        <ele>1106.6099999999999</ele>
        <time>2018-09-17T08:04:16Z</time>
      </trkpt>
      <trkpt lat="47.37662703730166" lon="10.580159034579992">
        <ele>1123.9200000000001</ele>
        <time>2018-09-17T08:04:25Z</time>
      </trkpt>
      <trkpt lat="47.376781012862921" lon="10.581053970381618">
        <ele>1131.1300000000001</ele>
        <time>2018-09-17T08:04:29Z</time>
      </trkpt>
      <trkpt lat="47.376781012862921" lon="10.581249017268419">
        <ele>1133.05</ele>
        <time>2018-09-17T08:04:30Z</time>
      </trkpt>
      <trkpt lat="47.376781012862921" lon="10.581443980336189">
        <ele>1134.49</ele>
        <time>2018-09-17T08:04:31Z</time>
      </trkpt>
      <trkpt lat="47.376755028963089" lon="10.581650007516146">
        <ele>1136.4200000000001</ele>
        <time>2018-09-17T08:04:32Z</time>
      </trkpt>
      <trkpt lat="47.376712029799819" lon="10.58185201138258">
        <ele>1137.8599999999999</ele>
        <time>2018-09-17T08:04:33Z</time>
      </trkpt>
      <trkpt lat="47.376489993184805" lon="10.582863036543131">
        <ele>1146.51</ele>
        <time>2018-09-17T08:04:38Z</time>
      </trkpt>
      <trkpt lat="47.376100989058614" lon="10.584501028060913">
        <ele>1152.76</ele>
        <time>2018-09-17T08:04:45Z</time>
      </trkpt>
      <trkpt lat="47.375677032396197" lon="10.586119992658496">
        <ele>1157.5599999999999</ele>
        <time>2018-09-17T08:04:54Z</time>
      </trkpt>
      <trkpt lat="47.375634033232927" lon="10.586266005411744">
        <ele>1157.5599999999999</ele>
        <time>2018-09-17T08:04:55Z</time>
      </trkpt>
      <trkpt lat="47.375563960522413" lon="10.58640799485147">
        <ele>1157.0799999999999</ele>
        <time>2018-09-17T08:04:56Z</time>
      </trkpt>
      <trkpt lat="47.375462036579847" lon="10.586487958207726">
        <ele>1157.5599999999999</ele>
        <time>2018-09-17T08:04:57Z</time>
      </trkpt>
      <trkpt lat="47.375353993847966" lon="10.586574040353298">
        <ele>1157.5599999999999</ele>
        <time>2018-09-17T08:04:58Z</time>
      </trkpt>
      <trkpt lat="47.375246034935117" lon="10.586658027023077">
        <ele>1158.05</ele>
        <time>2018-09-17T08:04:59Z</time>
      </trkpt>
      <trkpt lat="47.375144027173519" lon="10.586777972057462">
        <ele>1159.01</ele>
        <time>2018-09-17T08:05:00Z</time>
      </trkpt>
      <trkpt lat="47.375054005533457" lon="10.586919961497188">
        <ele>1159.49</ele>
        <time>2018-09-17T08:05:01Z</time>
      </trkpt>
      <trkpt lat="47.374958032742143" lon="10.587069997563958">
        <ele>1159.97</ele>
        <time>2018-09-17T08:05:02Z</time>
      </trkpt>
      <trkpt lat="47.374857030808926" lon="10.587207963690162">
        <ele>1159.97</ele>
        <time>2018-09-17T08:05:03Z</time>
      </trkpt>
      <trkpt lat="47.374743958935142" lon="10.587321035563946">
        <ele>1160.45</ele>
        <time>2018-09-17T08:05:04Z</time>
      </trkpt>
      <trkpt lat="47.374628959223628" lon="10.587436035275459">
        <ele>1160.45</ele>
        <time>2018-09-17T08:05:05Z</time>
      </trkpt>
      <trkpt lat="47.374513959512115" lon="10.587551034986973">
        <ele>1160.45</ele>
        <time>2018-09-17T08:05:06Z</time>
      </trkpt>
      <trkpt lat="47.374421004205942" lon="10.587644996121526">
        <ele>1159.97</ele>
        <time>2018-09-17T08:05:07Z</time>
      </trkpt>
      <trkpt lat="47.374272979795933" lon="10.587723031640053">
        <ele>1159.97</ele>
        <time>2018-09-17T08:05:08Z</time>
      </trkpt>
      <trkpt lat="47.374139036983252" lon="10.587795032188296">
        <ele>1159.97</ele>
        <time>2018-09-17T08:05:09Z</time>
      </trkpt>
      <trkpt lat="47.374011967331171" lon="10.587864015251398">
        <ele>1159.97</ele>
        <time>2018-09-17T08:05:10Z</time>
      </trkpt>
      <trkpt lat="47.373892022296786" lon="10.587927969172597">
        <ele>1159.49</ele>
        <time>2018-09-17T08:05:11Z</time>
      </trkpt>
      <trkpt lat="47.373794037848711" lon="10.588007010519505">
        <ele>1159.49</ele>
        <time>2018-09-17T08:05:12Z</time>
      </trkpt>
      <trkpt lat="47.373712984845042" lon="10.588138019666076">
        <ele>1159.49</ele>
        <time>2018-09-17T08:05:13Z</time>
      </trkpt>
      <trkpt lat="47.373673003166914" lon="10.588308004662395">
        <ele>1159.49</ele>
        <time>2018-09-17T08:05:14Z</time>
      </trkpt>
      <trkpt lat="47.373632015660405" lon="10.588483018800616">
        <ele>1159.01</ele>
        <time>2018-09-17T08:05:15Z</time>
      </trkpt>
      <trkpt lat="47.373590022325516" lon="10.588659038767219">
        <ele>1158.53</ele>
        <time>2018-09-17T08:05:16Z</time>
      </trkpt>
      <trkpt lat="47.373550962656736" lon="10.588827012106776">
        <ele>1158.05</ele>
        <time>2018-09-17T08:05:17Z</time>
      </trkpt>
      <trkpt lat="47.373462030664086" lon="10.588958021253347">
        <ele>1157.5599999999999</ele>
        <time>2018-09-17T08:05:18Z</time>
      </trkpt>
      <trkpt lat="47.373366979882121" lon="10.589067991822958">
        <ele>1157.5599999999999</ele>
        <time>2018-09-17T08:05:19Z</time>
      </trkpt>
      <trkpt lat="47.373265977948904" lon="10.589182991534472">
        <ele>1157.0799999999999</ele>
        <time>2018-09-17T08:05:20Z</time>
      </trkpt>
      <trkpt lat="47.373161036521196" lon="10.589304026216269">
        <ele>1157.0799999999999</ele>
        <time>2018-09-17T08:05:21Z</time>
      </trkpt>
      <trkpt lat="47.373053999617696" lon="10.589426988735795">
        <ele>1157.0799999999999</ele>
        <time>2018-09-17T08:05:22Z</time>
      </trkpt>
      <trkpt lat="47.372949980199337" lon="10.589554980397224">
        <ele>1157.5599999999999</ele>
        <time>2018-09-17T08:05:23Z</time>
      </trkpt>
      <trkpt lat="47.372660972177982" lon="10.590096032246947">
        <ele>1158.53</ele>
        <time>2018-09-17T08:05:27Z</time>
      </trkpt>
      <trkpt lat="47.372625013813376" lon="10.590193010866642">
        <ele>1158.53</ele>
        <time>2018-09-17T08:05:28Z</time>
      </trkpt>
      <trkpt lat="47.372667007148266" lon="10.590283032506704">
        <ele>1159.01</ele>
        <time>2018-09-17T08:05:29Z</time>
      </trkpt>
      <trkpt lat="47.372710006311536" lon="10.590379005298018">
        <ele>1159.01</ele>
        <time>2018-09-17T08:05:30Z</time>
      </trkpt>
      <trkpt lat="47.372765997424722" lon="10.590418986976147">
        <ele>1159.01</ele>
        <time>2018-09-17T08:05:31Z</time>
      </trkpt>
      <trkpt lat="47.372862976044416" lon="10.590433990582824">
        <ele>1158.53</ele>
        <time>2018-09-17T08:05:32Z</time>
      </trkpt>
      <trkpt lat="47.372975964099169" lon="10.590451005846262">
        <ele>1158.53</ele>
        <time>2018-09-17T08:05:33Z</time>
      </trkpt>
      <trkpt lat="47.373108984902501" lon="10.590471960604191">
        <ele>1158.05</ele>
        <time>2018-09-17T08:05:34Z</time>
      </trkpt>
      <trkpt lat="47.373262960463762" lon="10.590495010837913">
        <ele>1158.05</ele>
        <time>2018-09-17T08:05:35Z</time>
      </trkpt>
      <trkpt lat="47.373419031500816" lon="10.590494005009532">
        <ele>1158.05</ele>
        <time>2018-09-17T08:05:36Z</time>
      </trkpt>
      <trkpt lat="47.374527035281062" lon="10.590293006971478">
        <ele>1159.49</ele>
        <time>2018-09-17T08:05:43Z</time>
      </trkpt>
      <trkpt lat="47.374647986143827" lon="10.590256964787841">
        <ele>1159.49</ele>
        <time>2018-09-17T08:05:44Z</time>
      </trkpt>
      <trkpt lat="47.37475804053247" lon="10.590223018079996">
        <ele>1159.49</ele>
        <time>2018-09-17T08:05:45Z</time>
      </trkpt>
      <trkpt lat="47.375064985826612" lon="10.590169038623571">
        <ele>1159.49</ele>
        <time>2018-09-17T08:05:48Z</time>
      </trkpt>
      <trkpt lat="47.375160036608577" lon="10.590184964239597">
        <ele>1159.49</ele>
        <time>2018-09-17T08:05:49Z</time>
      </trkpt>
      <trkpt lat="47.375250980257988" lon="10.59021295979619">
        <ele>1159.01</ele>
        <time>2018-09-17T08:05:50Z</time>
      </trkpt>
      <trkpt lat="47.375314012169838" lon="10.59027599170804">
        <ele>1159.49</ele>
        <time>2018-09-17T08:05:51Z</time>
      </trkpt>
      <trkpt lat="47.375342007726431" lon="10.590353021398187">
        <ele>1159.49</ele>
        <time>2018-09-17T08:05:52Z</time>
      </trkpt>
      <trkpt lat="47.37536396831274" lon="10.590441031381488">
        <ele>1159.01</ele>
        <time>2018-09-17T08:05:53Z</time>
      </trkpt>
      <trkpt lat="47.375354999676347" lon="10.590560976415873">
        <ele>1159.01</ele>
        <time>2018-09-17T08:05:54Z</time>
      </trkpt>
      <trkpt lat="47.375343013554811" lon="10.590702965855598">
        <ele>1159.01</ele>
        <time>2018-09-17T08:05:55Z</time>
      </trkpt>
      <trkpt lat="47.375281993299723" lon="10.59119800105691">
        <ele>1159.01</ele>
        <time>2018-09-17T08:05:58Z</time>
      </trkpt>
      <trkpt lat="47.375241005793214" lon="10.591372009366751">
        <ele>1159.49</ele>
        <time>2018-09-17T08:05:59Z</time>
      </trkpt>
      <trkpt lat="47.375170011073351" lon="10.591529002413154">
        <ele>1159.49</ele>
        <time>2018-09-17T08:06:00Z</time>
      </trkpt>
      <trkpt lat="47.375095998868346" lon="10.591693036258221">
        <ele>1159.49</ele>
        <time>2018-09-17T08:06:01Z</time>
      </trkpt>
      <trkpt lat="47.375010000541806" lon="10.591863021254539">
        <ele>1159.49</ele>
        <time>2018-09-17T08:06:02Z</time>
      </trkpt>
      <trkpt lat="47.374831968918443" lon="10.59220802038908">
        <ele>1159.97</ele>
        <time>2018-09-17T08:06:04Z</time>
      </trkpt>
      <trkpt lat="47.374769020825624" lon="10.592410024255514">
        <ele>1160.45</ele>
        <time>2018-09-17T08:06:05Z</time>
      </trkpt>
      <trkpt lat="47.374734990298748" lon="10.592605993151665">
        <ele>1160.45</ele>
        <time>2018-09-17T08:06:06Z</time>
      </trkpt>
      <trkpt lat="47.374720992520452" lon="10.592799028381705">
        <ele>1160.9300000000001</ele>
        <time>2018-09-17T08:06:07Z</time>
      </trkpt>
      <trkpt lat="47.37473800778389" lon="10.592973036691546">
        <ele>1161.4100000000001</ele>
        <time>2018-09-17T08:06:08Z</time>
      </trkpt>
      <trkpt lat="47.374754017218947" lon="10.593136986717582">
        <ele>1161.4100000000001</ele>
        <time>2018-09-17T08:06:09Z</time>
      </trkpt>
      <trkpt lat="47.374769020825624" lon="10.593292973935604">
        <ele>1161.8900000000001</ele>
        <time>2018-09-17T08:06:10Z</time>
      </trkpt>
      <trkpt lat="47.374785030260682" lon="10.593460025265813">
        <ele>1162.3699999999999</ele>
        <time>2018-09-17T08:06:11Z</time>
      </trkpt>
      <trkpt lat="47.374743958935142" lon="10.593600003048778">
        <ele>1162.8499999999999</ele>
        <time>2018-09-17T08:06:12Z</time>
      </trkpt>
      <trkpt lat="47.374326959252357" lon="10.595061974599957">
        <ele>1168.1400000000001</ele>
        <time>2018-09-17T08:06:19Z</time>
      </trkpt>
      <trkpt lat="47.373905014246702" lon="10.597227020189166">
        <ele>1172.95</ele>
        <time>2018-09-17T08:06:27Z</time>
      </trkpt>
      <trkpt lat="47.373723965138197" lon="10.598184987902641">
        <ele>1175.8299999999999</ele>
        <time>2018-09-17T08:06:31Z</time>
      </trkpt>
      <trkpt lat="47.373722037300467" lon="10.598404007032514">
        <ele>1176.3099999999999</ele>
        <time>2018-09-17T08:06:32Z</time>
      </trkpt>
      <trkpt lat="47.373768975958228" lon="10.599184026941657">
        <ele>1178.71</ele>
        <time>2018-09-17T08:06:36Z</time>
      </trkpt>
      <trkpt lat="47.37379303202033" lon="10.599359963089228">
        <ele>1179.1900000000001</ele>
        <time>2018-09-17T08:06:37Z</time>
      </trkpt>
      <trkpt lat="47.373855980113149" lon="10.599528020247817">
        <ele>1179.6700000000001</ele>
        <time>2018-09-17T08:06:38Z</time>
      </trkpt>
      <trkpt lat="47.374133002012968" lon="10.600437959656119">
        <ele>1182.0799999999999</ele>
        <time>2018-09-17T08:06:43Z</time>
      </trkpt>
      <trkpt lat="47.374171977862716" lon="10.600604005157948">
        <ele>1182.5599999999999</ele>
        <time>2018-09-17T08:06:44Z</time>
      </trkpt>
      <trkpt lat="47.374206008389592" lon="10.600754963234067">
        <ele>1183.04</ele>
        <time>2018-09-17T08:06:45Z</time>
      </trkpt>
      <trkpt lat="47.374257976189256" lon="10.600894019007683">
        <ele>1183.52</ele>
        <time>2018-09-17T08:06:46Z</time>
      </trkpt>
      <trkpt lat="47.37430902197957" lon="10.601029973477125">
        <ele>1184</ele>
        <time>2018-09-17T08:06:47Z</time>
      </trkpt>
      <trkpt lat="47.374359983950853" lon="10.60116701759398">
        <ele>1184.48</ele>
        <time>2018-09-17T08:06:48Z</time>
      </trkpt>
      <trkpt lat="47.374403988942504" lon="10.601325016468763">
        <ele>1184.48</ele>
        <time>2018-09-17T08:06:49Z</time>
      </trkpt>
      <trkpt lat="47.37441698089242" lon="10.601496007293463">
        <ele>1184.48</ele>
        <time>2018-09-17T08:06:50Z</time>
      </trkpt>
      <trkpt lat="47.374456040561199" lon="10.602253982797265">
        <ele>1184.96</ele>
        <time>2018-09-17T08:06:54Z</time>
      </trkpt>
      <trkpt lat="47.374421004205942" lon="10.603020004928112">
        <ele>1185.9200000000001</ele>
        <time>2018-09-17T08:06:58Z</time>
      </trkpt>
      <trkpt lat="47.374376999214292" lon="10.603159982711077">
        <ele>1186.4000000000001</ele>
        <time>2018-09-17T08:06:59Z</time>
      </trkpt>
      <trkpt lat="47.374326959252357" lon="10.603298032656312">
        <ele>1186.8800000000001</ele>
        <time>2018-09-17T08:07:00Z</time>
      </trkpt>
      <trkpt lat="47.374236015602946" lon="10.603416971862316">
        <ele>1187.3699999999999</ele>
        <time>2018-09-17T08:07:01Z</time>
      </trkpt>
      <trkpt lat="47.37413702532649" lon="10.603546975180507">
        <ele>1187.8499999999999</ele>
        <time>2018-09-17T08:07:02Z</time>
      </trkpt>
      <trkpt lat="47.374040968716145" lon="10.603685025125742">
        <ele>1188.8099999999999</ele>
        <time>2018-09-17T08:07:03Z</time>
      </trkpt>
      <trkpt lat="47.373963017016649" lon="10.603858027607203">
        <ele>1189.77</ele>
        <time>2018-09-17T08:07:04Z</time>
      </trkpt>
      <trkpt lat="47.373882969841361" lon="10.604036981239915">
        <ele>1190.73</ele>
        <time>2018-09-17T08:07:05Z</time>
      </trkpt>
      <trkpt lat="47.373832007870078" lon="10.604249965399504">
        <ele>1191.21</ele>
        <time>2018-09-17T08:07:06Z</time>
      </trkpt>
      <trkpt lat="47.37379202619195" lon="10.604470996186137">
        <ele>1192.1700000000001</ele>
        <time>2018-09-17T08:07:07Z</time>
      </trkpt>
      <trkpt lat="47.373751038685441" lon="10.604694960638881">
        <ele>1193.1300000000001</ele>
        <time>2018-09-17T08:07:08Z</time>
      </trkpt>
      <trkpt lat="47.373655987903476" lon="10.605129981413484">
        <ele>1193.6099999999999</ele>
        <time>2018-09-17T08:07:10Z</time>
      </trkpt>
      <trkpt lat="47.373589016497135" lon="10.605331985279918">
        <ele>1194.0899999999999</ele>
        <time>2018-09-17T08:07:11Z</time>
      </trkpt>
      <trkpt lat="47.373389024287462" lon="10.605846969410777">
        <ele>1195.0599999999999</ele>
        <time>2018-09-17T08:07:14Z</time>
      </trkpt>
      <trkpt lat="47.3732990026474" lon="10.605946965515614">
        <ele>1195.0599999999999</ele>
        <time>2018-09-17T08:07:15Z</time>
      </trkpt>
      <trkpt lat="47.373211998492479" lon="10.60604402795434">
        <ele>1195.54</ele>
        <time>2018-09-17T08:07:16Z</time>
      </trkpt>
      <trkpt lat="47.373122982680798" lon="10.606143018230796">
        <ele>1196.02</ele>
        <time>2018-09-17T08:07:17Z</time>
      </trkpt>
      <trkpt lat="47.373036984354258" lon="10.606249971315265">
        <ele>1196.5</ele>
        <time>2018-09-17T08:07:18Z</time>
      </trkpt>
      <trkpt lat="47.372961966320872" lon="10.606420040130615">
        <ele>1196.98</ele>
        <time>2018-09-17T08:07:19Z</time>
      </trkpt>
      <trkpt lat="47.372931037098169" lon="10.60658298432827">
        <ele>1197.46</ele>
        <time>2018-09-17T08:07:20Z</time>
      </trkpt>
      <trkpt lat="47.372893989086151" lon="10.606774007901549">
        <ele>1197.9400000000001</ele>
        <time>2018-09-17T08:07:21Z</time>
      </trkpt>
      <trkpt lat="47.372497022151947" lon="10.608404958620667">
        <ele>1199.8599999999999</ele>
        <time>2018-09-17T08:07:28Z</time>
      </trkpt>
      <trkpt lat="47.372329970821738" lon="10.609111972153187">
        <ele>1200.8199999999999</ele>
        <time>2018-09-17T08:07:31Z</time>
      </trkpt>
      <trkpt lat="47.372241960838437" lon="10.609691999852657">
        <ele>1202.27</ele>
        <time>2018-09-17T08:07:34Z</time>
      </trkpt>
      <trkpt lat="47.372216982766986" lon="10.609854022040963">
        <ele>1202.75</ele>
        <time>2018-09-17T08:07:35Z</time>
      </trkpt>
      <trkpt lat="47.372169960290194" lon="10.60997698456049">
        <ele>1202.75</ele>
        <time>2018-09-17T08:07:36Z</time>
      </trkpt>
      <trkpt lat="47.372118998318911" lon="10.610077986493707">
        <ele>1202.75</ele>
        <time>2018-09-17T08:07:37Z</time>
      </trkpt>
      <trkpt lat="47.372075999155641" lon="10.610164990648627">
        <ele>1202.75</ele>
        <time>2018-09-17T08:07:38Z</time>
      </trkpt>
      <trkpt lat="47.372037023305893" lon="10.610243026167154">
        <ele>1203.23</ele>
        <time>2018-09-17T08:07:39Z</time>
      </trkpt>
      <trkpt lat="47.372023025527596" lon="10.610327012836933">
        <ele>1202.75</ele>
        <time>2018-09-17T08:07:40Z</time>
      </trkpt>
      <trkpt lat="47.372032999992371" lon="10.610405970364809">
        <ele>1202.75</ele>
        <time>2018-09-17T08:07:41Z</time>
      </trkpt>
      <trkpt lat="47.372044986113906" lon="10.61049297451973">
        <ele>1202.27</ele>
        <time>2018-09-17T08:07:42Z</time>
      </trkpt>
      <trkpt lat="47.372057978063822" lon="10.610595988109708">
        <ele>1202.27</ele>
        <time>2018-09-17T08:07:43Z</time>
      </trkpt>
      <trkpt lat="47.372092008590698" lon="10.610862029716372">
        <ele>1201.3</ele>
        <time>2018-09-17T08:07:45Z</time>
      </trkpt>
      <trkpt lat="47.372093014419079" lon="10.611018016934395">
        <ele>1200.3399999999999</ele>
        <time>2018-09-17T08:07:46Z</time>
      </trkpt>
      <trkpt lat="47.372068036347628" lon="10.611188001930714">
        <ele>1198.9000000000001</ele>
        <time>2018-09-17T08:07:47Z</time>
      </trkpt>
      <trkpt lat="47.371910037472844" lon="10.612243032082915">
        <ele>1195.54</ele>
        <time>2018-09-17T08:07:52Z</time>
      </trkpt>
      <trkpt lat="47.371896961703897" lon="10.612460039556026">
        <ele>1195.0599999999999</ele>
        <time>2018-09-17T08:07:53Z</time>
      </trkpt>
      <trkpt lat="47.371883969753981" lon="10.612671012058854">
        <ele>1194.5799999999999</ele>
        <time>2018-09-17T08:07:54Z</time>
      </trkpt>
      <trkpt lat="47.371871983632445" lon="10.612880978733301">
        <ele>1193.6099999999999</ele>
        <time>2018-09-17T08:07:55Z</time>
      </trkpt>
      <trkpt lat="47.371858991682529" lon="10.61309102922678">
        <ele>1193.1300000000001</ele>
        <time>2018-09-17T08:07:56Z</time>
      </trkpt>
      <trkpt lat="47.371821021661162" lon="10.613688994199038">
        <ele>1192.6500000000001</ele>
        <time>2018-09-17T08:07:59Z</time>
      </trkpt>
      <trkpt lat="47.371367979794741" lon="10.615493031218648">
        <ele>1192.6500000000001</ele>
        <time>2018-09-17T08:08:08Z</time>
      </trkpt>
      <trkpt lat="47.371310982853174" lon="10.615654969587922">
        <ele>1192.6500000000001</ele>
        <time>2018-09-17T08:08:09Z</time>
      </trkpt>
      <trkpt lat="47.371185002848506" lon="10.615899972617626">
        <ele>1192.6500000000001</ele>
        <time>2018-09-17T08:08:11Z</time>
      </trkpt>
      <trkpt lat="47.371094981208444" lon="10.615989994257689">
        <ele>1192.1700000000001</ele>
        <time>2018-09-17T08:08:12Z</time>
      </trkpt>
      <trkpt lat="47.371002025902271" lon="10.616000974550843">
        <ele>1192.1700000000001</ele>
        <time>2018-09-17T08:08:13Z</time>
      </trkpt>
      <trkpt lat="47.370803039520979" lon="10.616025030612946">
        <ele>1192.1700000000001</ele>
        <time>2018-09-17T08:08:15Z</time>
      </trkpt>
      <trkpt lat="47.370726009830832" lon="10.616038022562861">
        <ele>1192.6500000000001</ele>
        <time>2018-09-17T08:08:16Z</time>
      </trkpt>
      <trkpt lat="47.370644034817815" lon="10.616140030324459">
        <ele>1192.1700000000001</ele>
        <time>2018-09-17T08:08:17Z</time>
      </trkpt>
      <trkpt lat="47.370621990412474" lon="10.616257041692734">
        <ele>1192.1700000000001</ele>
        <time>2018-09-17T08:08:18Z</time>
      </trkpt>
      <trkpt lat="47.370595000684261" lon="10.616404982283711">
        <ele>1192.1700000000001</ele>
        <time>2018-09-17T08:08:19Z</time>
      </trkpt>
      <trkpt lat="47.370573040097952" lon="10.61657102778554">
        <ele>1191.6900000000001</ele>
        <time>2018-09-17T08:08:20Z</time>
      </trkpt>
      <trkpt lat="47.370559964329004" lon="10.616737995296717">
        <ele>1191.6900000000001</ele>
        <time>2018-09-17T08:08:21Z</time>
      </trkpt>
      <trkpt lat="47.370498022064567" lon="10.616896999999881">
        <ele>1191.21</ele>
        <time>2018-09-17T08:08:22Z</time>
      </trkpt>
      <trkpt lat="47.370433984324336" lon="10.617038989439607">
        <ele>1190.73</ele>
        <time>2018-09-17T08:08:23Z</time>
      </trkpt>
      <trkpt lat="47.370363995432854" lon="10.617193970829248">
        <ele>1190.73</ele>
        <time>2018-09-17T08:08:24Z</time>
      </trkpt>
      <trkpt lat="47.37026902846992" lon="10.617323974147439">
        <ele>1190.25</ele>
        <time>2018-09-17T08:08:25Z</time>
      </trkpt>
      <trkpt lat="47.370171966031194" lon="10.617456994950771">
        <ele>1190.25</ele>
        <time>2018-09-17T08:08:26Z</time>
      </trkpt>
      <trkpt lat="47.370074987411499" lon="10.617591021582484">
        <ele>1189.77</ele>
        <time>2018-09-17T08:08:27Z</time>
      </trkpt>
      <trkpt lat="47.369959987699986" lon="10.617700992152095">
        <ele>1190.25</ele>
        <time>2018-09-17T08:08:28Z</time>
      </trkpt>
      <trkpt lat="47.369843982160091" lon="10.617769975215197">
        <ele>1189.77</ele>
        <time>2018-09-17T08:08:29Z</time>
      </trkpt>
      <trkpt lat="47.369729988276958" lon="10.61779797077179">
        <ele>1189.29</ele>
        <time>2018-09-17T08:08:30Z</time>
      </trkpt>
      <trkpt lat="47.369629992172122" lon="10.617804005742073">
        <ele>1189.29</ele>
        <time>2018-09-17T08:08:31Z</time>
      </trkpt>
      <trkpt lat="47.369548017159104" lon="10.617809034883976">
        <ele>1189.29</ele>
        <time>2018-09-17T08:08:32Z</time>
      </trkpt>
      <trkpt lat="47.369480961933732" lon="10.617812974378467">
        <ele>1188.8099999999999</ele>
        <time>2018-09-17T08:08:33Z</time>
      </trkpt>
      <trkpt lat="47.369434023275971" lon="10.617853961884975">
        <ele>1188.3299999999999</ele>
        <time>2018-09-17T08:08:34Z</time>
      </trkpt>
      <trkpt lat="47.369392029941082" lon="10.617914982140064">
        <ele>1187.8499999999999</ele>
        <time>2018-09-17T08:08:35Z</time>
      </trkpt>
      <trkpt lat="47.369355987757444" lon="10.617995029315352">
        <ele>1187.8499999999999</ele>
        <time>2018-09-17T08:08:36Z</time>
      </trkpt>
      <trkpt lat="47.369349030777812" lon="10.618096031248569">
        <ele>1187.3699999999999</ele>
        <time>2018-09-17T08:08:37Z</time>
      </trkpt>
      <trkpt lat="47.369341989979148" lon="10.618209019303322">
        <ele>1187.8499999999999</ele>
        <time>2018-09-17T08:08:38Z</time>
      </trkpt>
      <trkpt lat="47.369339978322387" lon="10.618342962116003">
        <ele>1187.8499999999999</ele>
        <time>2018-09-17T08:08:39Z</time>
      </trkpt>
      <trkpt lat="47.369414996355772" lon="10.618948973715305">
        <ele>1185.9200000000001</ele>
        <time>2018-09-17T08:08:43Z</time>
      </trkpt>
      <trkpt lat="47.369391024112701" lon="10.619101021438837">
        <ele>1185.4400000000001</ele>
        <time>2018-09-17T08:08:44Z</time>
      </trkpt>
      <trkpt lat="47.369350036606193" lon="10.619243010878563">
        <ele>1184.48</ele>
        <time>2018-09-17T08:08:45Z</time>
      </trkpt>
      <trkpt lat="47.369307959452271" lon="10.619392041116953">
        <ele>1183.52</ele>
        <time>2018-09-17T08:08:46Z</time>
      </trkpt>
      <trkpt lat="47.369236964732409" lon="10.619532018899918">
        <ele>1183.04</ele>
        <time>2018-09-17T08:08:47Z</time>
      </trkpt>
      <trkpt lat="47.369150966405869" lon="10.619669985026121">
        <ele>1183.04</ele>
        <time>2018-09-17T08:08:48Z</time>
      </trkpt>
      <trkpt lat="47.368414029479027" lon="10.620908997952938">
        <ele>1182.5599999999999</ele>
        <time>2018-09-17T08:08:55Z</time>
      </trkpt>
      <trkpt lat="47.367613976821303" lon="10.622550006955862">
        <ele>1184</ele>
        <time>2018-09-17T08:09:03Z</time>
      </trkpt>
      <trkpt lat="47.366957003250718" lon="10.62389999628067">
        <ele>1187.8499999999999</ele>
        <time>2018-09-17T08:09:11Z</time>
      </trkpt>
      <trkpt lat="47.366362977772951" lon="10.625032978132367">
        <ele>1188.8099999999999</ele>
        <time>2018-09-17T08:09:17Z</time>
      </trkpt>
      <trkpt lat="47.365473993122578" lon="10.626610033214092">
        <ele>1189.77</ele>
        <time>2018-09-17T08:09:25Z</time>
      </trkpt>
      <trkpt lat="47.365367040038109" lon="10.626824023202062">
        <ele>1190.25</ele>
        <time>2018-09-17T08:09:26Z</time>
      </trkpt>
      <trkpt lat="47.364932019263506" lon="10.627684006467462">
        <ele>1192.6500000000001</ele>
        <time>2018-09-17T08:09:31Z</time>
      </trkpt>
      <trkpt lat="47.364853983744979" lon="10.627807974815369">
        <ele>1193.1300000000001</ele>
        <time>2018-09-17T08:09:32Z</time>
      </trkpt>
      <trkpt lat="47.364742001518607" lon="10.627871006727219">
        <ele>1193.1300000000001</ele>
        <time>2018-09-17T08:09:33Z</time>
      </trkpt>
      <trkpt lat="47.36444796435535" lon="10.628059012815356">
        <ele>1194.0899999999999</ele>
        <time>2018-09-17T08:09:36Z</time>
      </trkpt>
      <trkpt lat="47.364378981292248" lon="10.628156997263432">
        <ele>1194.0899999999999</ele>
        <time>2018-09-17T08:09:37Z</time>
      </trkpt>
      <trkpt lat="47.364331958815455" lon="10.628317007794976">
        <ele>1194.0899999999999</ele>
        <time>2018-09-17T08:09:38Z</time>
      </trkpt>
      <trkpt lat="47.364282002672553" lon="10.628486992791295">
        <ele>1194.5799999999999</ele>
        <time>2018-09-17T08:09:39Z</time>
      </trkpt>
      <trkpt lat="47.36423104070127" lon="10.628662006929517">
        <ele>1194.0899999999999</ele>
        <time>2018-09-17T08:09:40Z</time>
      </trkpt>
      <trkpt lat="47.364183012396097" lon="10.628827968612313">
        <ele>1194.0899999999999</ele>
        <time>2018-09-17T08:09:41Z</time>
      </trkpt>
      <trkpt lat="47.364135989919305" lon="10.628986973315477">
        <ele>1193.6099999999999</ele>
        <time>2018-09-17T08:09:42Z</time>
      </trkpt>
      <trkpt lat="47.364089973270893" lon="10.629146983847022">
        <ele>1193.1300000000001</ele>
        <time>2018-09-17T08:09:43Z</time>
      </trkpt>
      <trkpt lat="47.364012021571398" lon="10.629266006872058">
        <ele>1193.1300000000001</ele>
        <time>2018-09-17T08:09:44Z</time>
      </trkpt>
      <trkpt lat="47.363917976617813" lon="10.62937899492681">
        <ele>1192.6500000000001</ele>
        <time>2018-09-17T08:09:45Z</time>
      </trkpt>
      <trkpt lat="47.363822003826499" lon="10.629493994638324">
        <ele>1192.6500000000001</ele>
        <time>2018-09-17T08:09:46Z</time>
      </trkpt>
      <trkpt lat="47.363722007721663" lon="10.629584016278386">
        <ele>1193.1300000000001</ele>
        <time>2018-09-17T08:09:47Z</time>
      </trkpt>
      <trkpt lat="47.363606002181768" lon="10.629620980471373">
        <ele>1193.1300000000001</ele>
        <time>2018-09-17T08:09:48Z</time>
      </trkpt>
      <trkpt lat="47.363483961671591" lon="10.629660040140152">
        <ele>1193.6099999999999</ele>
        <time>2018-09-17T08:09:49Z</time>
      </trkpt>
      <trkpt lat="47.363363010808825" lon="10.6296990159899">
        <ele>1194.0899999999999</ele>
        <time>2018-09-17T08:09:50Z</time>
      </trkpt>
      <trkpt lat="47.363252034410834" lon="10.629734974354506">
        <ele>1195.0599999999999</ele>
        <time>2018-09-17T08:09:51Z</time>
      </trkpt>
      <trkpt lat="47.363146003335714" lon="10.62978501431644">
        <ele>1195.54</ele>
        <time>2018-09-17T08:09:52Z</time>
      </trkpt>
      <trkpt lat="47.363090012222528" lon="10.629895990714431">
        <ele>1196.5</ele>
        <time>2018-09-17T08:09:53Z</time>
      </trkpt>
      <trkpt lat="47.363032009452581" lon="10.630014007911086">
        <ele>1196.98</ele>
        <time>2018-09-17T08:09:54Z</time>
      </trkpt>
      <trkpt lat="47.362973000854254" lon="10.630131019279361">
        <ele>1197.9400000000001</ele>
        <time>2018-09-17T08:09:55Z</time>
      </trkpt>
      <trkpt lat="47.362913992255926" lon="10.630249036476016">
        <ele>1198.4200000000001</ele>
        <time>2018-09-17T08:09:56Z</time>
      </trkpt>
      <trkpt lat="47.362855989485979" lon="10.630364958196878">
        <ele>1198.9000000000001</ele>
        <time>2018-09-17T08:09:57Z</time>
      </trkpt>
      <trkpt lat="47.362774014472961" lon="10.630437964573503">
        <ele>1199.3800000000001</ele>
        <time>2018-09-17T08:09:58Z</time>
      </trkpt>
      <trkpt lat="47.362673012539744" lon="10.630485992878675">
        <ele>1199.8599999999999</ele>
        <time>2018-09-17T08:09:59Z</time>
      </trkpt>
      <trkpt lat="47.362561030313373" lon="10.630537960678339">
        <ele>1200.3399999999999</ele>
        <time>2018-09-17T08:10:00Z</time>
      </trkpt>
      <trkpt lat="47.362444018945098" lon="10.630611972883344">
        <ele>1200.8199999999999</ele>
        <time>2018-09-17T08:10:01Z</time>
      </trkpt>
      <trkpt lat="47.362346034497023" lon="10.630727978423238">
        <ele>1201.3</ele>
        <time>2018-09-17T08:10:02Z</time>
      </trkpt>
      <trkpt lat="47.362244026735425" lon="10.630849013105035">
        <ele>1201.3</ele>
        <time>2018-09-17T08:10:03Z</time>
      </trkpt>
      <trkpt lat="47.36195501871407" lon="10.631194012239575">
        <ele>1200.8199999999999</ele>
        <time>2018-09-17T08:10:06Z</time>
      </trkpt>
      <trkpt lat="47.361885029822588" lon="10.631309011951089">
        <ele>1200.8199999999999</ele>
        <time>2018-09-17T08:10:07Z</time>
      </trkpt>
      <trkpt lat="47.361829038709402" lon="10.631448989734054">
        <ele>1200.8199999999999</ele>
        <time>2018-09-17T08:10:08Z</time>
      </trkpt>
      <trkpt lat="47.361631980165839" lon="10.631932960823178">
        <ele>1199.3800000000001</ele>
        <time>2018-09-17T08:10:11Z</time>
      </trkpt>
      <trkpt lat="47.361548999324441" lon="10.632048966363072">
        <ele>1198.4200000000001</ele>
        <time>2018-09-17T08:10:12Z</time>
      </trkpt>
      <trkpt lat="47.36109796911478" lon="10.632678028196096">
        <ele>1194.5799999999999</ele>
        <time>2018-09-17T08:10:16Z</time>
      </trkpt>
      <trkpt lat="47.360985986888409" lon="10.632834015414119">
        <ele>1194.0899999999999</ele>
        <time>2018-09-17T08:10:17Z</time>
      </trkpt>
      <trkpt lat="47.360865036025643" lon="10.632976004853845">
        <ele>1193.6099999999999</ele>
        <time>2018-09-17T08:10:18Z</time>
      </trkpt>
      <trkpt lat="47.360737966373563" lon="10.633097039535642">
        <ele>1193.1300000000001</ele>
        <time>2018-09-17T08:10:19Z</time>
      </trkpt>
      <trkpt lat="47.360611986368895" lon="10.633215978741646">
        <ele>1192.6500000000001</ele>
        <time>2018-09-17T08:10:20Z</time>
      </trkpt>
      <trkpt lat="47.360379975289106" lon="10.633436003699899">
        <ele>1191.6900000000001</ele>
        <time>2018-09-17T08:10:22Z</time>
      </trkpt>
      <trkpt lat="47.360174031928182" lon="10.633631972596049">
        <ele>1190.73</ele>
        <time>2018-09-17T08:10:24Z</time>
      </trkpt>
      <trkpt lat="47.360070012509823" lon="10.633720988407731">
        <ele>1190.73</ele>
        <time>2018-09-17T08:10:25Z</time>
      </trkpt>
      <trkpt lat="47.359945960342884" lon="10.633768010884523">
        <ele>1190.25</ele>
        <time>2018-09-17T08:10:26Z</time>
      </trkpt>
      <trkpt lat="47.359816040843725" lon="10.633817967027426">
        <ele>1190.25</ele>
        <time>2018-09-17T08:10:27Z</time>
      </trkpt>
      <trkpt lat="47.359680002555251" lon="10.633870018646121">
        <ele>1190.25</ele>
        <time>2018-09-17T08:10:28Z</time>
      </trkpt>
      <trkpt lat="47.359544970095158" lon="10.633921986445785">
        <ele>1189.77</ele>
        <time>2018-09-17T08:10:29Z</time>
      </trkpt>
      <trkpt lat="47.359417984262109" lon="10.633970014750957">
        <ele>1189.77</ele>
        <time>2018-09-17T08:10:30Z</time>
      </trkpt>
      <trkpt lat="47.359306002035737" lon="10.634032962843776">
        <ele>1189.77</ele>
        <time>2018-09-17T08:10:31Z</time>
      </trkpt>
      <trkpt lat="47.359207011759281" lon="10.634109992533922">
        <ele>1189.77</ele>
        <time>2018-09-17T08:10:32Z</time>
      </trkpt>
      <trkpt lat="47.359130987897515" lon="10.634230021387339">
        <ele>1190.25</ele>
        <time>2018-09-17T08:10:33Z</time>
      </trkpt>
      <trkpt lat="47.359078014269471" lon="10.634367987513542">
        <ele>1190.73</ele>
        <time>2018-09-17T08:10:34Z</time>
      </trkpt>
      <trkpt lat="47.359026968479156" lon="10.634501008316875">
        <ele>1190.73</ele>
        <time>2018-09-17T08:10:35Z</time>
      </trkpt>
      <trkpt lat="47.358975000679493" lon="10.634635034948587">
        <ele>1190.25</ele>
        <time>2018-09-17T08:10:36Z</time>
      </trkpt>
      <trkpt lat="47.358895037323236" lon="10.634750034660101">
        <ele>1190.25</ele>
        <time>2018-09-17T08:10:37Z</time>
      </trkpt>
      <trkpt lat="47.358803004026413" lon="10.634831003844738">
        <ele>1190.25</ele>
        <time>2018-09-17T08:10:38Z</time>
      </trkpt>
      <trkpt lat="47.358631007373333" lon="10.634981961920857">
        <ele>1189.77</ele>
        <time>2018-09-17T08:10:40Z</time>
      </trkpt>
      <trkpt lat="47.358569987118244" lon="10.635082041844726">
        <ele>1189.77</ele>
        <time>2018-09-17T08:10:41Z</time>
      </trkpt>
      <trkpt lat="47.35853997990489" lon="10.635205004364252">
        <ele>1189.77</ele>
        <time>2018-09-17T08:10:42Z</time>
      </trkpt>
      <trkpt lat="47.358506033197045" lon="10.635338025167584">
        <ele>1189.29</ele>
        <time>2018-09-17T08:10:43Z</time>
      </trkpt>
      <trkpt lat="47.358467979356647" lon="10.63548001460731">
        <ele>1189.29</ele>
        <time>2018-09-17T08:10:44Z</time>
      </trkpt>
      <trkpt lat="47.358411988243461" lon="10.635641030967236">
        <ele>1189.29</ele>
        <time>2018-09-17T08:10:45Z</time>
      </trkpt>
      <trkpt lat="47.358352979645133" lon="10.635810010135174">
        <ele>1188.8099999999999</ele>
        <time>2018-09-17T08:10:46Z</time>
      </trkpt>
      <trkpt lat="47.358306040987372" lon="10.635945964604616">
        <ele>1188.8099999999999</ele>
        <time>2018-09-17T08:10:47Z</time>
      </trkpt>
      <trkpt lat="47.358214007690549" lon="10.636092983186245">
        <ele>1188.3299999999999</ele>
        <time>2018-09-17T08:10:48Z</time>
      </trkpt>
      <trkpt lat="47.35813002102077" lon="10.636228015646338">
        <ele>1188.3299999999999</ele>
        <time>2018-09-17T08:10:49Z</time>
      </trkpt>
      <trkpt lat="47.358047040179372" lon="10.636331029236317">
        <ele>1187.8499999999999</ele>
        <time>2018-09-17T08:10:50Z</time>
      </trkpt>
      <trkpt lat="47.357951989397407" lon="10.636419039219618">
        <ele>1187.3699999999999</ele>
        <time>2018-09-17T08:10:51Z</time>
      </trkpt>
      <trkpt lat="47.357770018279552" lon="10.636579971760511">
        <ele>1185.4400000000001</ele>
        <time>2018-09-17T08:10:53Z</time>
      </trkpt>
      <trkpt lat="47.357387971132994" lon="10.636803014203906">
        <ele>1182.5599999999999</ele>
        <time>2018-09-17T08:10:57Z</time>
      </trkpt>
      <trkpt lat="47.35727003775537" lon="10.636985991150141">
        <ele>1181.5999999999999</ele>
        <time>2018-09-17T08:10:59Z</time>
      </trkpt>
      <trkpt lat="47.357237013056874" lon="10.637110965326428">
        <ele>1181.5999999999999</ele>
        <time>2018-09-17T08:11:00Z</time>
      </trkpt>
      <trkpt lat="47.357256961986423" lon="10.637239962816238">
        <ele>1182.0799999999999</ele>
        <time>2018-09-17T08:11:01Z</time>
      </trkpt>
      <trkpt lat="47.357282023876905" lon="10.63737197779119">
        <ele>1182.0799999999999</ele>
        <time>2018-09-17T08:11:02Z</time>
      </trkpt>
      <trkpt lat="47.357338014990091" lon="10.637464011088014">
        <ele>1182.5599999999999</ele>
        <time>2018-09-17T08:11:03Z</time>
      </trkpt>
      <trkpt lat="47.357396017760038" lon="10.637558978050947">
        <ele>1183.04</ele>
        <time>2018-09-17T08:11:04Z</time>
      </trkpt>
      <trkpt lat="47.357454020529985" lon="10.637653023004532">
        <ele>1184</ele>
        <time>2018-09-17T08:11:05Z</time>
      </trkpt>
      <trkpt lat="47.357512023299932" lon="10.637747989967465">
        <ele>1184.48</ele>
        <time>2018-09-17T08:11:06Z</time>
      </trkpt>
      <trkpt lat="47.357543036341667" lon="10.637871958315372">
        <ele>1185.4400000000001</ele>
        <time>2018-09-17T08:11:07Z</time>
      </trkpt>
      <trkpt lat="47.357578994706273" lon="10.638015037402511">
        <ele>1186.8800000000001</ele>
        <time>2018-09-17T08:11:08Z</time>
      </trkpt>
      <trkpt lat="47.357618976384401" lon="10.638177981600165">
        <ele>1187.8499999999999</ele>
        <time>2018-09-17T08:11:09Z</time>
      </trkpt>
      <trkpt lat="47.357640014961362" lon="10.638335980474949">
        <ele>1188.8099999999999</ele>
        <time>2018-09-17T08:11:10Z</time>
      </trkpt>
      <trkpt lat="47.357663987204432" lon="10.638519963249564">
        <ele>1190.25</ele>
        <time>2018-09-17T08:11:11Z</time>
      </trkpt>
      <trkpt lat="47.357684019953012" lon="10.638671005144715">
        <ele>1191.21</ele>
        <time>2018-09-17T08:11:12Z</time>
      </trkpt>
      <trkpt lat="47.357661975547671" lon="10.638893963769078">
        <ele>1192.6500000000001</ele>
        <time>2018-09-17T08:11:13Z</time>
      </trkpt>
      <trkpt lat="47.357644038274884" lon="10.639066966250539">
        <ele>1193.6099999999999</ele>
        <time>2018-09-17T08:11:14Z</time>
      </trkpt>
      <trkpt lat="47.357581006363034" lon="10.639194035902619">
        <ele>1194.0899999999999</ele>
        <time>2018-09-17T08:11:15Z</time>
      </trkpt>
      <trkpt lat="47.357494002208114" lon="10.639332002028823">
        <ele>1195.0599999999999</ele>
        <time>2018-09-17T08:11:16Z</time>
      </trkpt>
      <trkpt lat="47.35740096308291" lon="10.639479020610452">
        <ele>1195.54</ele>
        <time>2018-09-17T08:11:17Z</time>
      </trkpt>
      <trkpt lat="47.357304990291595" lon="10.639630984514952">
        <ele>1196.02</ele>
        <time>2018-09-17T08:11:18Z</time>
      </trkpt>
      <trkpt lat="47.35720700584352" lon="10.63979996368289">
        <ele>1196.98</ele>
        <time>2018-09-17T08:11:19Z</time>
      </trkpt>
      <trkpt lat="47.357117990031838" lon="10.63999299891293">
        <ele>1197.46</ele>
        <time>2018-09-17T08:11:20Z</time>
      </trkpt>
      <trkpt lat="47.357059987261891" lon="10.640216963365674">
        <ele>1197.9400000000001</ele>
        <time>2018-09-17T08:11:21Z</time>
      </trkpt>
      <trkpt lat="47.357007013633847" lon="10.640446040779352">
        <ele>1198.4200000000001</ele>
        <time>2018-09-17T08:11:22Z</time>
      </trkpt>
      <trkpt lat="47.3569680377841" lon="10.640685008838773">
        <ele>1198.9000000000001</ele>
        <time>2018-09-17T08:11:23Z</time>
      </trkpt>
      <trkpt lat="47.356950016692281" lon="10.640932023525238">
        <ele>1199.3800000000001</ele>
        <time>2018-09-17T08:11:24Z</time>
      </trkpt>
      <trkpt lat="47.356674000620842" lon="10.64302297309041">
        <ele>1198.9000000000001</ele>
        <time>2018-09-17T08:11:32Z</time>
      </trkpt>
      <trkpt lat="47.356139989569783" lon="10.646347990259528">
        <ele>1200.3399999999999</ele>
        <time>2018-09-17T08:11:44Z</time>
      </trkpt>
      <trkpt lat="47.355746040120721" lon="10.648536002263427">
        <ele>1204.1900000000001</ele>
        <time>2018-09-17T08:11:52Z</time>
      </trkpt>
      <trkpt lat="47.355737993493676" lon="10.648814029991627">
        <ele>1204.6700000000001</ele>
        <time>2018-09-17T08:11:53Z</time>
      </trkpt>
      <trkpt lat="47.355731958523393" lon="10.649094991385937">
        <ele>1205.1500000000001</ele>
        <time>2018-09-17T08:11:54Z</time>
      </trkpt>
      <trkpt lat="47.35587696544826" lon="10.651280991733074">
        <ele>1208.03</ele>
        <time>2018-09-17T08:12:02Z</time>
      </trkpt>
      <trkpt lat="47.35589599236846" lon="10.652179028838873">
        <ele>1209.48</ele>
        <time>2018-09-17T08:12:06Z</time>
      </trkpt>
      <trkpt lat="47.355862967669964" lon="10.652393018826842">
        <ele>1209.96</ele>
        <time>2018-09-17T08:12:07Z</time>
      </trkpt>
      <trkpt lat="47.355817034840584" lon="10.652612037956715">
        <ele>1209.96</ele>
        <time>2018-09-17T08:12:08Z</time>
      </trkpt>
      <trkpt lat="47.35574696213007" lon="10.652802977710962">
        <ele>1210.4400000000001</ele>
        <time>2018-09-17T08:12:09Z</time>
      </trkpt>
      <trkpt lat="47.355676973238587" lon="10.652995007112622">
        <ele>1210.4400000000001</ele>
        <time>2018-09-17T08:12:10Z</time>
      </trkpt>
      <trkpt lat="47.355258967727423" lon="10.654421020299196">
        <ele>1213.8</ele>
        <time>2018-09-17T08:12:18Z</time>
      </trkpt>
      <trkpt lat="47.355258967727423" lon="10.654589999467134">
        <ele>1214.28</ele>
        <time>2018-09-17T08:12:19Z</time>
      </trkpt>
      <trkpt lat="47.355258967727423" lon="10.654729977250099">
        <ele>1215.24</ele>
        <time>2018-09-17T08:12:20Z</time>
      </trkpt>
      <trkpt lat="47.355258967727423" lon="10.654870038852096">
        <ele>1215.72</ele>
        <time>2018-09-17T08:12:21Z</time>
      </trkpt>
      <trkpt lat="47.355258967727423" lon="10.655012028291821">
        <ele>1216.21</ele>
        <time>2018-09-17T08:12:22Z</time>
      </trkpt>
      <trkpt lat="47.355258967727423" lon="10.655151000246406">
        <ele>1216.6900000000001</ele>
        <time>2018-09-17T08:12:23Z</time>
      </trkpt>
      <trkpt lat="47.355205994099379" lon="10.655288966372609">
        <ele>1216.6900000000001</ele>
        <time>2018-09-17T08:12:24Z</time>
      </trkpt>
      <trkpt lat="47.355154026299715" lon="10.655426010489464">
        <ele>1217.1700000000001</ele>
        <time>2018-09-17T08:12:25Z</time>
      </trkpt>
      <trkpt lat="47.355086971074343" lon="10.655601024627686">
        <ele>1217.1700000000001</ele>
        <time>2018-09-17T08:12:26Z</time>
      </trkpt>
      <trkpt lat="47.355009019374847" lon="10.655695991590619">
        <ele>1217.6500000000001</ele>
        <time>2018-09-17T08:12:27Z</time>
      </trkpt>
      <trkpt lat="47.354910029098392" lon="10.655815014615655">
        <ele>1217.6500000000001</ele>
        <time>2018-09-17T08:12:28Z</time>
      </trkpt>
      <trkpt lat="47.353661963716149" lon="10.657298024743795">
        <ele>1221.97</ele>
        <time>2018-09-17T08:12:40Z</time>
      </trkpt>
      <trkpt lat="47.353542018681765" lon="10.657409001141787">
        <ele>1222.9300000000001</ele>
        <time>2018-09-17T08:12:41Z</time>
      </trkpt>
      <trkpt lat="47.353413021191955" lon="10.657484019175172">
        <ele>1223.9000000000001</ele>
        <time>2018-09-17T08:12:42Z</time>
      </trkpt>
      <trkpt lat="47.353283017873764" lon="10.657516960054636">
        <ele>1224.8599999999999</ele>
        <time>2018-09-17T08:12:43Z</time>
      </trkpt>
      <trkpt lat="47.353165000677109" lon="10.65754596143961">
        <ele>1225.8199999999999</ele>
        <time>2018-09-17T08:12:44Z</time>
      </trkpt>
      <trkpt lat="47.353065004572272" lon="10.657571023330092">
        <ele>1226.78</ele>
        <time>2018-09-17T08:12:45Z</time>
      </trkpt>
      <trkpt lat="47.352983029559255" lon="10.657590972259641">
        <ele>1227.74</ele>
        <time>2018-09-17T08:12:46Z</time>
      </trkpt>
      <trkpt lat="47.352944975718856" lon="10.657650986686349">
        <ele>1228.7</ele>
        <time>2018-09-17T08:12:47Z</time>
      </trkpt>
      <trkpt lat="47.352921003475785" lon="10.657728016376495">
        <ele>1229.6600000000001</ele>
        <time>2018-09-17T08:12:48Z</time>
      </trkpt>
      <trkpt lat="47.352939024567604" lon="10.657818960025907">
        <ele>1230.6199999999999</ele>
        <time>2018-09-17T08:12:49Z</time>
      </trkpt>
      <trkpt lat="47.352985041216016" lon="10.65784502774477">
        <ele>1231.5899999999999</ele>
        <time>2018-09-17T08:12:50Z</time>
      </trkpt>
      <trkpt lat="47.353057041764259" lon="10.657865982502699">
        <ele>1232.55</ele>
        <time>2018-09-17T08:12:51Z</time>
      </trkpt>
      <trkpt lat="47.353141028434038" lon="10.657878974452615">
        <ele>1233.51</ele>
        <time>2018-09-17T08:12:52Z</time>
      </trkpt>
      <trkpt lat="47.353248987346888" lon="10.657887021079659">
        <ele>1233.99</ele>
        <time>2018-09-17T08:12:53Z</time>
      </trkpt>
      <trkpt lat="47.353373961523175" lon="10.657895989716053">
        <ele>1234.95</ele>
        <time>2018-09-17T08:12:54Z</time>
      </trkpt>
      <trkpt lat="47.353504970669746" lon="10.657964972779155">
        <ele>1235.9100000000001</ele>
        <time>2018-09-17T08:12:55Z</time>
      </trkpt>
      <trkpt lat="47.353636985644698" lon="10.658044014126062">
        <ele>1236.8699999999999</ele>
        <time>2018-09-17T08:12:56Z</time>
      </trkpt>
      <trkpt lat="47.353776041418314" lon="10.658126994967461">
        <ele>1237.8299999999999</ele>
        <time>2018-09-17T08:12:57Z</time>
      </trkpt>
      <trkpt lat="47.353911995887756" lon="10.658208969980478">
        <ele>1238.8</ele>
        <time>2018-09-17T08:12:58Z</time>
      </trkpt>
      <trkpt lat="47.35404803417623" lon="10.658235959708691">
        <ele>1239.76</ele>
        <time>2018-09-17T08:12:59Z</time>
      </trkpt>
      <trkpt lat="47.354175020009279" lon="10.658207964152098">
        <ele>1241.2</ele>
        <time>2018-09-17T08:13:00Z</time>
      </trkpt>
      <trkpt lat="47.354303011670709" lon="10.658157002180815">
        <ele>1242.6400000000001</ele>
        <time>2018-09-17T08:13:01Z</time>
      </trkpt>
      <trkpt lat="47.35443796031177" lon="10.658075027167797">
        <ele>1244.0799999999999</ele>
        <time>2018-09-17T08:13:02Z</time>
      </trkpt>
      <trkpt lat="47.354581039398909" lon="10.657988023012877">
        <ele>1245.53</ele>
        <time>2018-09-17T08:13:03Z</time>
      </trkpt>
      <trkpt lat="47.354937018826604" lon="10.657789958640933">
        <ele>1249.8499999999999</ele>
        <time>2018-09-17T08:13:06Z</time>
      </trkpt>
      <trkpt lat="47.355070961639285" lon="10.6578020285815">
        <ele>1251.29</ele>
        <time>2018-09-17T08:13:07Z</time>
      </trkpt>
      <trkpt lat="47.35516500659287" lon="10.657809991389513">
        <ele>1252.74</ele>
        <time>2018-09-17T08:13:08Z</time>
      </trkpt>
      <trkpt lat="47.355236001312733" lon="10.657891966402531">
        <ele>1254.1800000000001</ele>
        <time>2018-09-17T08:13:09Z</time>
      </trkpt>
      <trkpt lat="47.355312025174499" lon="10.657989028841257">
        <ele>1255.6199999999999</ele>
        <time>2018-09-17T08:13:10Z</time>
      </trkpt>
      <trkpt lat="47.355361981317401" lon="10.658130012452602">
        <ele>1257.0599999999999</ele>
        <time>2018-09-17T08:13:11Z</time>
      </trkpt>
      <trkpt lat="47.355410009622574" lon="10.658289017155766">
        <ele>1258.5</ele>
        <time>2018-09-17T08:13:12Z</time>
      </trkpt>
      <trkpt lat="47.355431970208883" lon="10.658488003537059">
        <ele>1259.9400000000001</ele>
        <time>2018-09-17T08:13:13Z</time>
      </trkpt>
      <trkpt lat="47.355456026270986" lon="10.658708028495312">
        <ele>1261.3900000000001</ele>
        <time>2018-09-17T08:13:14Z</time>
      </trkpt>
      <trkpt lat="47.355483015999198" lon="10.658944984897971">
        <ele>1262.8299999999999</ele>
        <time>2018-09-17T08:13:15Z</time>
      </trkpt>
      <trkpt lat="47.355910995975137" lon="10.660979021340609">
        <ele>1273.4000000000001</ele>
        <time>2018-09-17T08:13:23Z</time>
      </trkpt>
      <trkpt lat="47.356118028983474" lon="10.66175602376461">
        <ele>1274.8499999999999</ele>
        <time>2018-09-17T08:13:26Z</time>
      </trkpt>
      <trkpt lat="47.356157004833221" lon="10.662033967673779">
        <ele>1275.3299999999999</ele>
        <time>2018-09-17T08:13:27Z</time>
      </trkpt>
      <trkpt lat="47.356179971247911" lon="10.662324987351894">
        <ele>1275.8099999999999</ele>
        <time>2018-09-17T08:13:28Z</time>
      </trkpt>
      <trkpt lat="47.356200003996491" lon="10.663725016638637">
        <ele>1278.21</ele>
        <time>2018-09-17T08:13:33Z</time>
      </trkpt>
      <trkpt lat="47.356265969574451" lon="10.663999021053314">
        <ele>1279.1700000000001</ele>
        <time>2018-09-17T08:13:34Z</time>
      </trkpt>
      <trkpt lat="47.35634601674974" lon="10.664272019639611">
        <ele>1279.6500000000001</ele>
        <time>2018-09-17T08:13:35Z</time>
      </trkpt>
      <trkpt lat="47.356448024511337" lon="10.664526997134089">
        <ele>1280.1300000000001</ele>
        <time>2018-09-17T08:13:36Z</time>
      </trkpt>
      <trkpt lat="47.356571992859244" lon="10.664766971021891">
        <ele>1281.0899999999999</ele>
        <time>2018-09-17T08:13:37Z</time>
      </trkpt>
      <trkpt lat="47.356705013662577" lon="10.664994958788157">
        <ele>1281.5699999999999</ele>
        <time>2018-09-17T08:13:38Z</time>
      </trkpt>
      <trkpt lat="47.356845997273922" lon="10.66521598957479">
        <ele>1282.54</ele>
        <time>2018-09-17T08:13:39Z</time>
      </trkpt>
      <trkpt lat="47.357747973874211" lon="10.666350983083248">
        <ele>1286.3800000000001</ele>
        <time>2018-09-17T08:13:45Z</time>
      </trkpt>
      <trkpt lat="47.357899015769362" lon="10.666502024978399">
        <ele>1287.3399999999999</ele>
        <time>2018-09-17T08:13:46Z</time>
      </trkpt>
      <trkpt lat="47.358393967151642" lon="10.666858004406095">
        <ele>1291.6700000000001</ele>
        <time>2018-09-17T08:13:49Z</time>
      </trkpt>
      <trkpt lat="47.358544003218412" lon="10.666996976360679">
        <ele>1293.1099999999999</ele>
        <time>2018-09-17T08:13:50Z</time>
      </trkpt>
      <trkpt lat="47.358680963516235" lon="10.667157992720604">
        <ele>1294.55</ele>
        <time>2018-09-17T08:13:51Z</time>
      </trkpt>
      <trkpt lat="47.358793029561639" lon="10.667357984930277">
        <ele>1295.99</ele>
        <time>2018-09-17T08:13:52Z</time>
      </trkpt>
      <trkpt lat="47.358897970989347" lon="10.667575998231769">
        <ele>1297.9200000000001</ele>
        <time>2018-09-17T08:13:53Z</time>
      </trkpt>
      <trkpt lat="47.359093017876148" lon="10.668034991249442">
        <ele>1300.8</ele>
        <time>2018-09-17T08:13:55Z</time>
      </trkpt>
      <trkpt lat="47.359208017587662" lon="10.668251998722553">
        <ele>1302.72</ele>
        <time>2018-09-17T08:13:56Z</time>
      </trkpt>
      <trkpt lat="47.359341038390994" lon="10.668450985103846">
        <ele>1304.1700000000001</ele>
        <time>2018-09-17T08:13:57Z</time>
      </trkpt>
      <trkpt lat="47.360196998342872" lon="10.669481959193945">
        <ele>1312.3399999999999</ele>
        <time>2018-09-17T08:14:03Z</time>
      </trkpt>
      <trkpt lat="47.360354997217655" lon="10.669593019410968">
        <ele>1313.78</ele>
        <time>2018-09-17T08:14:04Z</time>
      </trkpt>
      <trkpt lat="47.360514001920819" lon="10.669699972495437">
        <ele>1314.74</ele>
        <time>2018-09-17T08:14:05Z</time>
      </trkpt>
      <trkpt lat="47.361152032390237" lon="10.670108003541827">
        <ele>1317.1400000000001</ele>
        <time>2018-09-17T08:14:09Z</time>
      </trkpt>
      <trkpt lat="47.361294021829963" lon="10.670258039608598">
        <ele>1317.6199999999999</ele>
        <time>2018-09-17T08:14:10Z</time>
      </trkpt>
      <trkpt lat="47.361411033198237" lon="10.670453002676368">
        <ele>1318.0999999999999</ele>
        <time>2018-09-17T08:14:11Z</time>
      </trkpt>
      <trkpt lat="47.361528966575861" lon="10.67065098322928">
        <ele>1318.5899999999999</ele>
        <time>2018-09-17T08:14:12Z</time>
      </trkpt>
      <trkpt lat="47.3616530187428" lon="10.670858016237617">
        <ele>1319.0699999999999</ele>
        <time>2018-09-17T08:14:13Z</time>
      </trkpt>
      <trkpt lat="47.361725019291043" lon="10.671093966811895">
        <ele>1319.55</ele>
        <time>2018-09-17T08:14:14Z</time>
      </trkpt>
      <trkpt lat="47.361798025667667" lon="10.671336036175489">
        <ele>1320.03</ele>
        <time>2018-09-17T08:14:15Z</time>
      </trkpt>
      <trkpt lat="47.361971028149128" lon="10.671798968687654">
        <ele>1320.99</ele>
        <time>2018-09-17T08:14:17Z</time>
      </trkpt>
      <trkpt lat="47.362069012597203" lon="10.672023016959429">
        <ele>1321.47</ele>
        <time>2018-09-17T08:14:18Z</time>
      </trkpt>
      <trkpt lat="47.362193986773491" lon="10.672194007784128">
        <ele>1321.47</ele>
        <time>2018-09-17T08:14:19Z</time>
      </trkpt>
      <trkpt lat="47.362337987869978" lon="10.672342032194138">
        <ele>1321.95</ele>
        <time>2018-09-17T08:14:20Z</time>
      </trkpt>
      <trkpt lat="47.362480983138084" lon="10.672487961128354">
        <ele>1321.95</ele>
        <time>2018-09-17T08:14:21Z</time>
      </trkpt>
      <trkpt lat="47.36262297257781" lon="10.672633973881602">
        <ele>1322.4300000000001</ele>
        <time>2018-09-17T08:14:22Z</time>
      </trkpt>
      <trkpt lat="47.362762028351426" lon="10.672775963321328">
        <ele>1322.9100000000001</ele>
        <time>2018-09-17T08:14:23Z</time>
      </trkpt>
      <trkpt lat="47.362898988649249" lon="10.672916024923325">
        <ele>1323.3900000000001</ele>
        <time>2018-09-17T08:14:24Z</time>
      </trkpt>
      <trkpt lat="47.363020023331046" lon="10.673089027404785">
        <ele>1323.8699999999999</ele>
        <time>2018-09-17T08:14:25Z</time>
      </trkpt>
      <trkpt lat="47.363110966980457" lon="10.673305029049516">
        <ele>1324.3499999999999</ele>
        <time>2018-09-17T08:14:26Z</time>
      </trkpt>
      <trkpt lat="47.363204006105661" lon="10.673525976017118">
        <ele>1325.3099999999999</ele>
        <time>2018-09-17T08:14:27Z</time>
      </trkpt>
      <trkpt lat="47.363297967240214" lon="10.673747006803751">
        <ele>1326.28</ele>
        <time>2018-09-17T08:14:28Z</time>
      </trkpt>
      <trkpt lat="47.363581024110317" lon="10.674357963725924">
        <ele>1329.6400000000001</ele>
        <time>2018-09-17T08:14:31Z</time>
      </trkpt>
      <trkpt lat="47.363675991073251" lon="10.674553010612726">
        <ele>1330.5999999999999</ele>
        <time>2018-09-17T08:14:32Z</time>
      </trkpt>
      <trkpt lat="47.363771041855216" lon="10.674747973680496">
        <ele>1331.5599999999999</ele>
        <time>2018-09-17T08:14:33Z</time>
      </trkpt>
      <trkpt lat="47.363833989948034" lon="10.674981996417046">
        <ele>1332.52</ele>
        <time>2018-09-17T08:14:34Z</time>
      </trkpt>
      <trkpt lat="47.363873971626163" lon="10.675230016931891">
        <ele>1333.49</ele>
        <time>2018-09-17T08:14:35Z</time>
      </trkpt>
      <trkpt lat="47.363900039345026" lon="10.675490023568273">
        <ele>1334.9300000000001</ele>
        <time>2018-09-17T08:14:36Z</time>
      </trkpt>
      <trkpt lat="47.363948989659548" lon="10.675985980778933">
        <ele>1337.3299999999999</ele>
        <time>2018-09-17T08:14:38Z</time>
      </trkpt>
      <trkpt lat="47.364025013521314" lon="10.67623601295054">
        <ele>1338.29</ele>
        <time>2018-09-17T08:14:39Z</time>
      </trkpt>
      <trkpt lat="47.364092990756035" lon="10.676459977403283">
        <ele>1339.25</ele>
        <time>2018-09-17T08:14:40Z</time>
      </trkpt>
      <trkpt lat="47.364293988794088" lon="10.677130026742816">
        <ele>1341.1800000000001</ele>
        <time>2018-09-17T08:14:43Z</time>
      </trkpt>
      <trkpt lat="47.364333970472217" lon="10.677370000630617">
        <ele>1341.1800000000001</ele>
        <time>2018-09-17T08:14:44Z</time>
      </trkpt>
      <trkpt lat="47.36436196602881" lon="10.677616009488702">
        <ele>1341.1800000000001</ele>
        <time>2018-09-17T08:14:45Z</time>
      </trkpt>
      <trkpt lat="47.364374035969377" lon="10.677869981154799">
        <ele>1341.1800000000001</ele>
        <time>2018-09-17T08:14:46Z</time>
      </trkpt>
      <trkpt lat="47.36438300460577" lon="10.678127976134419">
        <ele>1341.6600000000001</ele>
        <time>2018-09-17T08:14:47Z</time>
      </trkpt>
      <trkpt lat="47.364397002384067" lon="10.678617982193828">
        <ele>1341.6600000000001</ele>
        <time>2018-09-17T08:14:49Z</time>
      </trkpt>
      <trkpt lat="47.36444897018373" lon="10.678832978010178">
        <ele>1341.1800000000001</ele>
        <time>2018-09-17T08:14:50Z</time>
      </trkpt>
      <trkpt lat="47.364522982388735" lon="10.679019978269935">
        <ele>1341.1800000000001</ele>
        <time>2018-09-17T08:14:51Z</time>
      </trkpt>
      <trkpt lat="47.364613004028797" lon="10.679179988801479">
        <ele>1341.6600000000001</ele>
        <time>2018-09-17T08:14:52Z</time>
      </trkpt>
      <trkpt lat="47.364732027053833" lon="10.679291971027851">
        <ele>1342.1400000000001</ele>
        <time>2018-09-17T08:14:53Z</time>
      </trkpt>
      <trkpt lat="47.364861024543643" lon="10.679414011538029">
        <ele>1342.1400000000001</ele>
        <time>2018-09-17T08:14:54Z</time>
      </trkpt>
      <trkpt lat="47.364993961527944" lon="10.679538985714316">
        <ele>1342.6199999999999</ele>
        <time>2018-09-17T08:14:55Z</time>
      </trkpt>
      <trkpt lat="47.365262014791369" lon="10.679793963208795">
        <ele>1343.5799999999999</ele>
        <time>2018-09-17T08:14:57Z</time>
      </trkpt>
      <trkpt lat="47.365383971482515" lon="10.679928995668888">
        <ele>1343.5799999999999</ele>
        <time>2018-09-17T08:14:58Z</time>
      </trkpt>
      <trkpt lat="47.365481033921242" lon="10.680122030898929">
        <ele>1344.0599999999999</ele>
        <time>2018-09-17T08:14:59Z</time>
      </trkpt>
      <trkpt lat="47.366004986688495" lon="10.681025013327599">
        <ele>1344.54</ele>
        <time>2018-09-17T08:15:04Z</time>
      </trkpt>
      <trkpt lat="47.366137001663446" lon="10.681174965575337">
        <ele>1345.02</ele>
        <time>2018-09-17T08:15:05Z</time>
      </trkpt>
      <trkpt lat="47.366268010810018" lon="10.681325001642108">
        <ele>1345.5</ele>
        <time>2018-09-17T08:15:06Z</time>
      </trkpt>
      <trkpt lat="47.366701019927859" lon="10.681708976626396">
        <ele>1346.46</ele>
        <time>2018-09-17T08:15:09Z</time>
      </trkpt>
      <trkpt lat="47.366952979937196" lon="10.682057999074459">
        <ele>1346.46</ele>
        <time>2018-09-17T08:15:11Z</time>
      </trkpt>
      <trkpt lat="47.367048030719161" lon="10.68227500654757">
        <ele>1346.9400000000001</ele>
        <time>2018-09-17T08:15:12Z</time>
      </trkpt>
      <trkpt lat="47.367147020995617" lon="10.682499976828694">
        <ele>1347.4300000000001</ele>
        <time>2018-09-17T08:15:13Z</time>
      </trkpt>
      <trkpt lat="47.367246011272073" lon="10.682726036757231">
        <ele>1348.3900000000001</ele>
        <time>2018-09-17T08:15:14Z</time>
      </trkpt>
      <trkpt lat="47.367295967414975" lon="10.68298302590847">
        <ele>1349.3499999999999</ele>
        <time>2018-09-17T08:15:15Z</time>
      </trkpt>
      <trkpt lat="47.367341984063387" lon="10.683245966210961">
        <ele>1350.3099999999999</ele>
        <time>2018-09-17T08:15:16Z</time>
      </trkpt>
      <trkpt lat="47.367384983226657" lon="10.683512007817626">
        <ele>1351.27</ele>
        <time>2018-09-17T08:15:17Z</time>
      </trkpt>
      <trkpt lat="47.367403004318476" lon="10.683789029717445">
        <ele>1352.23</ele>
        <time>2018-09-17T08:15:18Z</time>
      </trkpt>
      <trkpt lat="47.367545999586582" lon="10.684857973828912">
        <ele>1356.5599999999999</ele>
        <time>2018-09-17T08:15:22Z</time>
      </trkpt>
      <trkpt lat="47.367609031498432" lon="10.68511001765728">
        <ele>1358</ele>
        <time>2018-09-17T08:15:23Z</time>
      </trkpt>
      <trkpt lat="47.367682959884405" lon="10.685358960181475">
        <ele>1358.96</ele>
        <time>2018-09-17T08:15:24Z</time>
      </trkpt>
      <trkpt lat="47.367796031758189" lon="10.685563981533051">
        <ele>1359.9200000000001</ele>
        <time>2018-09-17T08:15:25Z</time>
      </trkpt>
      <trkpt lat="47.367898039519787" lon="10.685748970136046">
        <ele>1360.8800000000001</ele>
        <time>2018-09-17T08:15:26Z</time>
      </trkpt>
      <trkpt lat="47.368045980110765" lon="10.6859499681741">
        <ele>1361.8399999999999</ele>
        <time>2018-09-17T08:15:27Z</time>
      </trkpt>
      <trkpt lat="47.368180006742477" lon="10.686131017282605">
        <ele>1362.8099999999999</ele>
        <time>2018-09-17T08:15:28Z</time>
      </trkpt>
      <trkpt lat="47.368576973676682" lon="10.686667961999774">
        <ele>1365.21</ele>
        <time>2018-09-17T08:15:31Z</time>
      </trkpt>
      <trkpt lat="47.368691973388195" lon="10.686843981966376">
        <ele>1365.6900000000001</ele>
        <time>2018-09-17T08:15:32Z</time>
      </trkpt>
      <trkpt lat="47.368792975321412" lon="10.687081022188067">
        <ele>1366.6500000000001</ele>
        <time>2018-09-17T08:15:33Z</time>
      </trkpt>
      <trkpt lat="47.368893977254629" lon="10.687316972762346">
        <ele>1367.1300000000001</ele>
        <time>2018-09-17T08:15:34Z</time>
      </trkpt>
      <trkpt lat="47.368993973359466" lon="10.687550995498896">
        <ele>1368.0899999999999</ele>
        <time>2018-09-17T08:15:35Z</time>
      </trkpt>
      <trkpt lat="47.369672991335392" lon="10.689382022246718">
        <ele>1370.98</ele>
        <time>2018-09-17T08:15:42Z</time>
      </trkpt>
      <trkpt lat="47.370080016553402" lon="10.690472004935145">
        <ele>1371.46</ele>
        <time>2018-09-17T08:15:46Z</time>
      </trkpt>
      <trkpt lat="47.370138019323349" lon="10.690736034885049">
        <ele>1371.9400000000001</ele>
        <time>2018-09-17T08:15:47Z</time>
      </trkpt>
      <trkpt lat="47.370300963521004" lon="10.6914690323174">
        <ele>1371.9400000000001</ele>
        <time>2018-09-17T08:15:50Z</time>
      </trkpt>
      <trkpt lat="47.370385034009814" lon="10.691681010648608">
        <ele>1371.9400000000001</ele>
        <time>2018-09-17T08:15:51Z</time>
      </trkpt>
      <trkpt lat="47.370495004579425" lon="10.691887037828565">
        <ele>1371.9400000000001</ele>
        <time>2018-09-17T08:15:52Z</time>
      </trkpt>
      <trkpt lat="47.370630959048867" lon="10.692070014774799">
        <ele>1371.9400000000001</ele>
        <time>2018-09-17T08:15:53Z</time>
      </trkpt>
      <trkpt lat="47.370771020650864" lon="10.692259026691318">
        <ele>1372.4200000000001</ele>
        <time>2018-09-17T08:15:54Z</time>
      </trkpt>
      <trkpt lat="47.37170803360641" lon="10.693707000464201">
        <ele>1373.3800000000001</ele>
        <time>2018-09-17T08:16:01Z</time>
      </trkpt>
      <trkpt lat="47.371797971427441" lon="10.693955020979047">
        <ele>1373.3800000000001</ele>
        <time>2018-09-17T08:16:02Z</time>
      </trkpt>
      <trkpt lat="47.372250007465482" lon="10.695246001705527">
        <ele>1371.46</ele>
        <time>2018-09-17T08:16:07Z</time>
      </trkpt>
      <trkpt lat="47.372311027720571" lon="10.695513971149921">
        <ele>1370.98</ele>
        <time>2018-09-17T08:16:08Z</time>
      </trkpt>
      <trkpt lat="47.372785024344921" lon="10.697002010419965">
        <ele>1367.6099999999999</ele>
        <time>2018-09-17T08:16:14Z</time>
      </trkpt>
      <trkpt lat="47.372922990471125" lon="10.697468966245651">
        <ele>1365.21</ele>
        <time>2018-09-17T08:16:16Z</time>
      </trkpt>
      <trkpt lat="47.372974036261439" lon="10.697713969275355">
        <ele>1363.77</ele>
        <time>2018-09-17T08:16:17Z</time>
      </trkpt>
      <trkpt lat="47.373006977140903" lon="10.697961989790201">
        <ele>1362.8099999999999</ele>
        <time>2018-09-17T08:16:18Z</time>
      </trkpt>
      <trkpt lat="47.373070009052753" lon="10.698447972536087">
        <ele>1360.8800000000001</ele>
        <time>2018-09-17T08:16:20Z</time>
      </trkpt>
      <trkpt lat="47.373120971024036" lon="10.698672020807862">
        <ele>1359.9200000000001</ele>
        <time>2018-09-17T08:16:21Z</time>
      </trkpt>
      <trkpt lat="47.373207975178957" lon="10.698873018845916">
        <ele>1358.96</ele>
        <time>2018-09-17T08:16:22Z</time>
      </trkpt>
      <trkpt lat="47.373305037617683" lon="10.699095977470279">
        <ele>1358.48</ele>
        <time>2018-09-17T08:16:23Z</time>
      </trkpt>
      <trkpt lat="47.373418025672436" lon="10.699234027415514">
        <ele>1357.52</ele>
        <time>2018-09-17T08:16:24Z</time>
      </trkpt>
      <trkpt lat="47.373544005677104" lon="10.699388002976775">
        <ele>1357.04</ele>
        <time>2018-09-17T08:16:25Z</time>
      </trkpt>
      <trkpt lat="47.373671997338533" lon="10.699543990194798">
        <ele>1356.5599999999999</ele>
        <time>2018-09-17T08:16:26Z</time>
      </trkpt>
      <trkpt lat="47.374138031154871" lon="10.700160982087255">
        <ele>1355.1199999999999</ele>
        <time>2018-09-17T08:16:30Z</time>
      </trkpt>
      <trkpt lat="47.374231992289424" lon="10.700355023145676">
        <ele>1354.6300000000001</ele>
        <time>2018-09-17T08:16:31Z</time>
      </trkpt>
      <trkpt lat="47.374301981180906" lon="10.700578987598419">
        <ele>1354.6300000000001</ele>
        <time>2018-09-17T08:16:32Z</time>
      </trkpt>
      <trkpt lat="47.374451011419296" lon="10.701043009757996">
        <ele>1354.6300000000001</ele>
        <time>2018-09-17T08:16:34Z</time>
      </trkpt>
      <trkpt lat="47.374569028615952" lon="10.701252976432443">
        <ele>1355.1199999999999</ele>
        <time>2018-09-17T08:16:35Z</time>
      </trkpt>
      <trkpt lat="47.374694002792239" lon="10.701467972248793">
        <ele>1355.1199999999999</ele>
        <time>2018-09-17T08:16:36Z</time>
      </trkpt>
      <trkpt lat="47.375158024951816" lon="10.702238017693162">
        <ele>1355.1199999999999</ele>
        <time>2018-09-17T08:16:40Z</time>
      </trkpt>
      <trkpt lat="47.375278975814581" lon="10.702395010739565">
        <ele>1354.6300000000001</ele>
        <time>2018-09-17T08:16:41Z</time>
      </trkpt>
      <trkpt lat="47.375637972727418" lon="10.702860038727522">
        <ele>1353.6700000000001</ele>
        <time>2018-09-17T08:16:44Z</time>
      </trkpt>
      <trkpt lat="47.375738974660635" lon="10.703018959611654">
        <ele>1353.1900000000001</ele>
        <time>2018-09-17T08:16:45Z</time>
      </trkpt>
      <trkpt lat="47.37579102627933" lon="10.70322398096323">
        <ele>1352.71</ele>
        <time>2018-09-17T08:16:46Z</time>
      </trkpt>
      <trkpt lat="47.375843999907374" lon="10.70343897677958">
        <ele>1352.23</ele>
        <time>2018-09-17T08:16:47Z</time>
      </trkpt>
      <trkpt lat="47.37589898519218" lon="10.703657995909452">
        <ele>1351.27</ele>
        <time>2018-09-17T08:16:48Z</time>
      </trkpt>
      <trkpt lat="47.376014990732074" lon="10.704123023897409">
        <ele>1349.3499999999999</ele>
        <time>2018-09-17T08:16:50Z</time>
      </trkpt>
      <trkpt lat="47.376090008765459" lon="10.704354029148817">
        <ele>1347.9100000000001</ele>
        <time>2018-09-17T08:16:51Z</time>
      </trkpt>
      <trkpt lat="47.376181958243251" lon="10.704563995823264">
        <ele>1346.9400000000001</ele>
        <time>2018-09-17T08:16:52Z</time>
      </trkpt>
      <trkpt lat="47.376278014853597" lon="10.704779997467995">
        <ele>1345.5</ele>
        <time>2018-09-17T08:16:53Z</time>
      </trkpt>
      <trkpt lat="47.37637298181653" lon="10.704997004941106">
        <ele>1344.54</ele>
        <time>2018-09-17T08:16:54Z</time>
      </trkpt>
      <trkpt lat="47.376417992636561" lon="10.70524200797081">
        <ele>1343.5799999999999</ele>
        <time>2018-09-17T08:16:55Z</time>
      </trkpt>
      <trkpt lat="47.376465015113354" lon="10.705493967980146">
        <ele>1342.6199999999999</ele>
        <time>2018-09-17T08:16:56Z</time>
      </trkpt>
      <trkpt lat="47.376512037590146" lon="10.705751962959766">
        <ele>1341.6600000000001</ele>
        <time>2018-09-17T08:16:57Z</time>
      </trkpt>
      <trkpt lat="47.376560987904668" lon="10.70601599290967">
        <ele>1341.1800000000001</ele>
        <time>2018-09-17T08:16:58Z</time>
      </trkpt>
      <trkpt lat="47.376642040908337" lon="10.706268036738038">
        <ele>1340.22</ele>
        <time>2018-09-17T08:16:59Z</time>
      </trkpt>
      <trkpt lat="47.376725021749735" lon="10.706513039767742">
        <ele>1339.25</ele>
        <time>2018-09-17T08:17:00Z</time>
      </trkpt>
      <trkpt lat="47.376810014247894" lon="10.706760976463556">
        <ele>1338.29</ele>
        <time>2018-09-17T08:17:01Z</time>
      </trkpt>
      <trkpt lat="47.37688503228128" lon="10.707017965614796">
        <ele>1336.8499999999999</ele>
        <time>2018-09-17T08:17:02Z</time>
      </trkpt>
      <trkpt lat="47.376940017566085" lon="10.707281995564699">
        <ele>1335.8900000000001</ele>
        <time>2018-09-17T08:17:03Z</time>
      </trkpt>
      <trkpt lat="47.376992991194129" lon="10.707538984715939">
        <ele>1334.45</ele>
        <time>2018-09-17T08:17:04Z</time>
      </trkpt>
      <trkpt lat="47.377164987847209" lon="10.708261001855135">
        <ele>1330.5999999999999</ele>
        <time>2018-09-17T08:17:07Z</time>
      </trkpt>
      <trkpt lat="47.377260960638523" lon="10.708471974357963">
        <ele>1329.1600000000001</ele>
        <time>2018-09-17T08:17:08Z</time>
      </trkpt>
      <trkpt lat="47.377604031935334" lon="10.709348972886801">
        <ele>1323.8699999999999</ele>
        <time>2018-09-17T08:17:12Z</time>
      </trkpt>
      <trkpt lat="47.377658011391759" lon="10.709599005058408">
        <ele>1322.9100000000001</ele>
        <time>2018-09-17T08:17:13Z</time>
      </trkpt>
      <trkpt lat="47.377766976132989" lon="10.710106026381254">
        <ele>1320.51</ele>
        <time>2018-09-17T08:17:15Z</time>
      </trkpt>
      <trkpt lat="47.377835959196091" lon="10.710349017754197">
        <ele>1319.55</ele>
        <time>2018-09-17T08:17:16Z</time>
      </trkpt>
      <trkpt lat="47.37791801802814" lon="10.710597038269043">
        <ele>1318.5899999999999</ele>
        <time>2018-09-17T08:17:17Z</time>
      </trkpt>
      <trkpt lat="47.378022037446499" lon="10.710817985236645">
        <ele>1317.6199999999999</ele>
        <time>2018-09-17T08:17:18Z</time>
      </trkpt>
      <trkpt lat="47.378128990530968" lon="10.711048990488052">
        <ele>1316.6600000000001</ele>
        <time>2018-09-17T08:17:19Z</time>
      </trkpt>
      <trkpt lat="47.379069020971656" lon="10.712947994470596">
        <ele>1310.9000000000001</ele>
        <time>2018-09-17T08:17:28Z</time>
      </trkpt>
      <trkpt lat="47.379818027839065" lon="10.713978968560696">
        <ele>1307.53</ele>
        <time>2018-09-17T08:17:34Z</time>
      </trkpt>
      <trkpt lat="47.379961023107171" lon="10.714105032384396">
        <ele>1307.05</ele>
        <time>2018-09-17T08:17:35Z</time>
      </trkpt>
      <trkpt lat="47.380116004496813" lon="10.714199999347329">
        <ele>1306.5699999999999</ele>
        <time>2018-09-17T08:17:36Z</time>
      </trkpt>
      <trkpt lat="47.380281966179609" lon="10.714271999895573">
        <ele>1306.0899999999999</ele>
        <time>2018-09-17T08:17:37Z</time>
      </trkpt>
      <trkpt lat="47.380451029166579" lon="10.714346012100577">
        <ele>1305.1300000000001</ele>
        <time>2018-09-17T08:17:38Z</time>
      </trkpt>
      <trkpt lat="47.382076028734446" lon="10.714792013168335">
        <ele>1295.99</ele>
        <time>2018-09-17T08:17:47Z</time>
      </trkpt>
      <trkpt lat="47.382372999563813" lon="10.714895026758313">
        <ele>1293.1099999999999</ele>
        <time>2018-09-17T08:17:49Z</time>
      </trkpt>
      <trkpt lat="47.382509037852287" lon="10.714972978457808">
        <ele>1291.1900000000001</ele>
        <time>2018-09-17T08:17:50Z</time>
      </trkpt>
      <trkpt lat="47.382620014250278" lon="10.715084038674831">
        <ele>1289.75</ele>
        <time>2018-09-17T08:17:51Z</time>
      </trkpt>
      <trkpt lat="47.38271196372807" lon="10.715217981487513">
        <ele>1287.8199999999999</ele>
        <time>2018-09-17T08:17:52Z</time>
      </trkpt>
      <trkpt lat="47.382780024781823" lon="10.715375980362296">
        <ele>1286.3800000000001</ele>
        <time>2018-09-17T08:17:53Z</time>
      </trkpt>
      <trkpt lat="47.382819000631571" lon="10.715559963136911">
        <ele>1284.9400000000001</ele>
        <time>2018-09-17T08:17:54Z</time>
      </trkpt>
      <trkpt lat="47.382854036986828" lon="10.71572600863874">
        <ele>1283.5</ele>
        <time>2018-09-17T08:17:55Z</time>
      </trkpt>
      <trkpt lat="47.382854036986828" lon="10.715950978919864">
        <ele>1282.0599999999999</ele>
        <time>2018-09-17T08:17:56Z</time>
      </trkpt>
      <trkpt lat="47.382851019501686" lon="10.716165974736214">
        <ele>1280.6099999999999</ele>
        <time>2018-09-17T08:17:57Z</time>
      </trkpt>
      <trkpt lat="47.382808020338416" lon="10.716381976380944">
        <ele>1279.1700000000001</ele>
        <time>2018-09-17T08:17:58Z</time>
      </trkpt>
      <trkpt lat="47.382755968719721" lon="10.716608036309481">
        <ele>1277.25</ele>
        <time>2018-09-17T08:17:59Z</time>
      </trkpt>
      <trkpt lat="47.382594030350447" lon="10.717270039021969">
        <ele>1272.4400000000001</ele>
        <time>2018-09-17T08:18:02Z</time>
      </trkpt>
      <trkpt lat="47.382569974288344" lon="10.717494003474712">
        <ele>1271</ele>
        <time>2018-09-17T08:18:03Z</time>
      </trkpt>
      <trkpt lat="47.382562011480331" lon="10.717716040089726">
        <ele>1269.5599999999999</ele>
        <time>2018-09-17T08:18:04Z</time>
      </trkpt>
      <trkpt lat="47.382591012865305" lon="10.717912008985877">
        <ele>1268.1199999999999</ele>
        <time>2018-09-17T08:18:05Z</time>
      </trkpt>
      <trkpt lat="47.382618002593517" lon="10.718086017295718">
        <ele>1267.1600000000001</ele>
        <time>2018-09-17T08:18:06Z</time>
      </trkpt>
      <trkpt lat="47.382692014798522" lon="10.718234041705728">
        <ele>1266.1900000000001</ele>
        <time>2018-09-17T08:18:07Z</time>
      </trkpt>
      <trkpt lat="47.382765021175146" lon="10.718380976468325">
        <ele>1265.23</ele>
        <time>2018-09-17T08:18:08Z</time>
      </trkpt>
      <trkpt lat="47.382856970652938" lon="10.718511985614896">
        <ele>1263.79</ele>
        <time>2018-09-17T08:18:09Z</time>
      </trkpt>
      <trkpt lat="47.382968030869961" lon="10.71860795840621">
        <ele>1262.3499999999999</ele>
        <time>2018-09-17T08:18:10Z</time>
      </trkpt>
      <trkpt lat="47.383070038631558" lon="10.718696974217892">
        <ele>1260.9100000000001</ele>
        <time>2018-09-17T08:18:11Z</time>
      </trkpt>
      <trkpt lat="47.383171962574124" lon="10.718748020008206">
        <ele>1259.46</ele>
        <time>2018-09-17T08:18:12Z</time>
      </trkpt>
      <trkpt lat="47.383286040276289" lon="10.718740979209542">
        <ele>1258.02</ele>
        <time>2018-09-17T08:18:13Z</time>
      </trkpt>
      <trkpt lat="47.383393999189138" lon="10.71873402222991">
        <ele>1256.5799999999999</ele>
        <time>2018-09-17T08:18:14Z</time>
      </trkpt>
      <trkpt lat="47.383484020829201" lon="10.718703009188175">
        <ele>1255.6199999999999</ele>
        <time>2018-09-17T08:18:15Z</time>
      </trkpt>
      <trkpt lat="47.383560966700315" lon="10.718632014468312">
        <ele>1254.1800000000001</ele>
        <time>2018-09-17T08:18:16Z</time>
      </trkpt>
      <trkpt lat="47.383642019703984" lon="10.718558002263308">
        <ele>1253.22</ele>
        <time>2018-09-17T08:18:17Z</time>
      </trkpt>
      <trkpt lat="47.383726006373763" lon="10.718467980623245">
        <ele>1251.77</ele>
        <time>2018-09-17T08:18:18Z</time>
      </trkpt>
      <trkpt lat="47.383797001093626" lon="10.718335965648293">
        <ele>1250.3299999999999</ele>
        <time>2018-09-17T08:18:19Z</time>
      </trkpt>
      <trkpt lat="47.383875036612153" lon="10.718191964551806">
        <ele>1248.8900000000001</ele>
        <time>2018-09-17T08:18:20Z</time>
      </trkpt>
      <trkpt lat="47.384095983579755" lon="10.717689972370863">
        <ele>1243.5999999999999</ele>
        <time>2018-09-17T08:18:23Z</time>
      </trkpt>
      <trkpt lat="47.384163038805127" lon="10.717506995424628">
        <ele>1242.1600000000001</ele>
        <time>2018-09-17T08:18:24Z</time>
      </trkpt>
      <trkpt lat="47.38416999578476" lon="10.717325024306774">
        <ele>1240.24</ele>
        <time>2018-09-17T08:18:25Z</time>
      </trkpt>
      <trkpt lat="47.384177958592772" lon="10.717125032097101">
        <ele>1238.8</ele>
        <time>2018-09-17T08:18:26Z</time>
      </trkpt>
      <trkpt lat="47.384186005219817" lon="10.716923028230667">
        <ele>1236.8699999999999</ele>
        <time>2018-09-17T08:18:27Z</time>
      </trkpt>
      <trkpt lat="47.384226992726326" lon="10.715944021940231">
        <ele>1225.8199999999999</ele>
        <time>2018-09-17T08:18:33Z</time>
      </trkpt>
      <trkpt lat="47.384260017424822" lon="10.715889958664775">
        <ele>1224.3800000000001</ele>
        <time>2018-09-17T08:18:34Z</time>
      </trkpt>
      <trkpt lat="47.38429899327457" lon="10.715832961723208">
        <ele>1223.4200000000001</ele>
        <time>2018-09-17T08:18:35Z</time>
      </trkpt>
      <trkpt lat="47.38432003185153" lon="10.715815024450421">
        <ele>1221.97</ele>
        <time>2018-09-17T08:18:36Z</time>
      </trkpt>
      <trkpt lat="47.3843630310148" lon="10.715841008350253">
        <ele>1221.01</ele>
        <time>2018-09-17T08:18:37Z</time>
      </trkpt>
      <trkpt lat="47.384420027956367" lon="10.715875960886478">
        <ele>1220.05</ele>
        <time>2018-09-17T08:18:38Z</time>
      </trkpt>
      <trkpt lat="47.384414998814464" lon="10.71594201028347">
        <ele>1218.6099999999999</ele>
        <time>2018-09-17T08:18:39Z</time>
      </trkpt>
      <trkpt lat="47.38440603017807" lon="10.716057009994984">
        <ele>1217.1700000000001</ele>
        <time>2018-09-17T08:18:40Z</time>
      </trkpt>
      <trkpt lat="47.384395971894264" lon="10.716185001656413">
        <ele>1216.21</ele>
        <time>2018-09-17T08:18:41Z</time>
      </trkpt>
      <trkpt lat="47.38438499160111" lon="10.716324979439378">
        <ele>1214.76</ele>
        <time>2018-09-17T08:18:42Z</time>
      </trkpt>
      <trkpt lat="47.384381974115968" lon="10.716470992192626">
        <ele>1213.8</ele>
        <time>2018-09-17T08:18:43Z</time>
      </trkpt>
      <trkpt lat="47.384398989379406" lon="10.716621028259397">
        <ele>1212.3599999999999</ele>
        <time>2018-09-17T08:18:44Z</time>
      </trkpt>
      <trkpt lat="47.384543996304274" lon="10.717170964926481">
        <ele>1208.51</ele>
        <time>2018-09-17T08:18:48Z</time>
      </trkpt>
      <trkpt lat="47.384604010730982" lon="10.717275990173221">
        <ele>1207.55</ele>
        <time>2018-09-17T08:18:49Z</time>
      </trkpt>
      <trkpt lat="47.38468699157238" lon="10.717342961579561">
        <ele>1207.0699999999999</ele>
        <time>2018-09-17T08:18:50Z</time>
      </trkpt>
      <trkpt lat="47.384784976020455" lon="10.717420997098088">
        <ele>1206.1099999999999</ele>
        <time>2018-09-17T08:18:51Z</time>
      </trkpt>
      <trkpt lat="47.384882960468531" lon="10.717400964349508">
        <ele>1205.1500000000001</ele>
        <time>2018-09-17T08:18:52Z</time>
      </trkpt>
      <trkpt lat="47.385002989321947" lon="10.717373974621296">
        <ele>1204.1900000000001</ele>
        <time>2018-09-17T08:18:53Z</time>
      </trkpt>
      <trkpt lat="47.385093010962009" lon="10.717272972688079">
        <ele>1203.71</ele>
        <time>2018-09-17T08:18:54Z</time>
      </trkpt>
      <trkpt lat="47.385184960439801" lon="10.717169959098101">
        <ele>1202.75</ele>
        <time>2018-09-17T08:18:55Z</time>
      </trkpt>
      <trkpt lat="47.385285962373018" lon="10.717056971043348">
        <ele>1202.27</ele>
        <time>2018-09-17T08:18:56Z</time>
      </trkpt>
      <trkpt lat="47.385409008711576" lon="10.716959992423654">
        <ele>1201.79</ele>
        <time>2018-09-17T08:18:57Z</time>
      </trkpt>
      <trkpt lat="47.385568013414741" lon="10.716924034059048">
        <ele>1201.79</ele>
        <time>2018-09-17T08:18:58Z</time>
      </trkpt>
      <trkpt lat="47.385737998411059" lon="10.716884974390268">
        <ele>1201.79</ele>
        <time>2018-09-17T08:18:59Z</time>
      </trkpt>
      <trkpt lat="47.385916030034423" lon="10.716843986883759">
        <ele>1201.79</ele>
        <time>2018-09-17T08:19:00Z</time>
      </trkpt>
      <trkpt lat="47.386115016415715" lon="10.716797970235348">
        <ele>1202.27</ele>
        <time>2018-09-17T08:19:01Z</time>
      </trkpt>
      <trkpt lat="47.386273015290499" lon="10.716668972745538">
        <ele>1202.75</ele>
        <time>2018-09-17T08:19:02Z</time>
      </trkpt>
      <trkpt lat="47.386822029948235" lon="10.716292038559914">
        <ele>1207.0699999999999</ele>
        <time>2018-09-17T08:19:06Z</time>
      </trkpt>
      <trkpt lat="47.386893024668097" lon="10.716292038559914">
        <ele>1208.03</ele>
        <time>2018-09-17T08:19:07Z</time>
      </trkpt>
      <trkpt lat="47.386935018002987" lon="10.716362027451396">
        <ele>1209.48</ele>
        <time>2018-09-17T08:19:08Z</time>
      </trkpt>
      <trkpt lat="47.386953961104155" lon="10.716441990807652">
        <ele>1210.4400000000001</ele>
        <time>2018-09-17T08:19:09Z</time>
      </trkpt>
      <trkpt lat="47.386956978589296" lon="10.716559002175927">
        <ele>1211.8800000000001</ele>
        <time>2018-09-17T08:19:10Z</time>
      </trkpt>
      <trkpt lat="47.386961001902819" lon="10.716708032414317">
        <ele>1212.8399999999999</ele>
        <time>2018-09-17T08:19:11Z</time>
      </trkpt>
      <trkpt lat="47.386966031044722" lon="10.716882962733507">
        <ele>1213.8</ele>
        <time>2018-09-17T08:19:12Z</time>
      </trkpt>
      <trkpt lat="47.386972988024354" lon="10.717120002955198">
        <ele>1215.24</ele>
        <time>2018-09-17T08:19:13Z</time>
      </trkpt>
      <trkpt lat="47.387055968865752" lon="10.71727498434484">
        <ele>1216.21</ele>
        <time>2018-09-17T08:19:14Z</time>
      </trkpt>
      <trkpt lat="47.387145990505815" lon="10.717443963512778">
        <ele>1216.6900000000001</ele>
        <time>2018-09-17T08:19:15Z</time>
      </trkpt>
      <trkpt lat="47.387236012145877" lon="10.717612020671368">
        <ele>1217.6500000000001</ele>
        <time>2018-09-17T08:19:16Z</time>
      </trkpt>
      <trkpt lat="47.387324022129178" lon="10.717791980132461">
        <ele>1218.1300000000001</ele>
        <time>2018-09-17T08:19:17Z</time>
      </trkpt>
      <trkpt lat="47.387375989928842" lon="10.717999013140798">
        <ele>1219.0899999999999</ele>
        <time>2018-09-17T08:19:18Z</time>
      </trkpt>
      <trkpt lat="47.387401973828673" lon="10.718219038099051">
        <ele>1219.0899999999999</ele>
        <time>2018-09-17T08:19:19Z</time>
      </trkpt>
      <trkpt lat="47.387426029890776" lon="10.718448031693697">
        <ele>1219.5699999999999</ele>
        <time>2018-09-17T08:19:20Z</time>
      </trkpt>
      <trkpt lat="47.387450002133846" lon="10.718676019459963">
        <ele>1220.05</ele>
        <time>2018-09-17T08:19:21Z</time>
      </trkpt>
      <trkpt lat="47.387472968548536" lon="10.718884980306029">
        <ele>1221.01</ele>
        <time>2018-09-17T08:19:22Z</time>
      </trkpt>
      <trkpt lat="47.3874990362674" lon="10.71907902136445">
        <ele>1221.49</ele>
        <time>2018-09-17T08:19:23Z</time>
      </trkpt>
      <trkpt lat="47.387557039037347" lon="10.719258980825543">
        <ele>1221.97</ele>
        <time>2018-09-17T08:19:24Z</time>
      </trkpt>
      <trkpt lat="47.387629961594939" lon="10.719415973871946">
        <ele>1222.9300000000001</ele>
        <time>2018-09-17T08:19:25Z</time>
      </trkpt>
      <trkpt lat="47.387729035690427" lon="10.719542037695646">
        <ele>1222.9300000000001</ele>
        <time>2018-09-17T08:19:26Z</time>
      </trkpt>
      <trkpt lat="47.387838000431657" lon="10.719640022143722">
        <ele>1223.4200000000001</ele>
        <time>2018-09-17T08:19:27Z</time>
      </trkpt>
      <trkpt lat="47.387977978214622" lon="10.719683021306992">
        <ele>1223.9000000000001</ele>
        <time>2018-09-17T08:19:28Z</time>
      </trkpt>
      <trkpt lat="47.388110999017954" lon="10.719695007428527">
        <ele>1223.9000000000001</ele>
        <time>2018-09-17T08:19:29Z</time>
      </trkpt>
      <trkpt lat="47.388241002336144" lon="10.719609009101987">
        <ele>1224.3800000000001</ele>
        <time>2018-09-17T08:19:30Z</time>
      </trkpt>
      <trkpt lat="47.388367988169193" lon="10.719524016603827">
        <ele>1225.3399999999999</ele>
        <time>2018-09-17T08:19:31Z</time>
      </trkpt>
      <trkpt lat="47.388444012030959" lon="10.719397030770779">
        <ele>1226.3</ele>
        <time>2018-09-17T08:19:32Z</time>
      </trkpt>
      <trkpt lat="47.388507965952158" lon="10.719225034117699">
        <ele>1227.26</ele>
        <time>2018-09-17T08:19:33Z</time>
      </trkpt>
      <trkpt lat="47.38853202201426" lon="10.7190350163728">
        <ele>1227.74</ele>
        <time>2018-09-17T08:19:34Z</time>
      </trkpt>
      <trkpt lat="47.388558005914092" lon="10.718835024163127">
        <ele>1228.7</ele>
        <time>2018-09-17T08:19:35Z</time>
      </trkpt>
      <trkpt lat="47.388583989813924" lon="10.718631008639932">
        <ele>1230.1400000000001</ele>
        <time>2018-09-17T08:19:36Z</time>
      </trkpt>
      <trkpt lat="47.388622965663671" lon="10.718424981459975">
        <ele>1231.1099999999999</ele>
        <time>2018-09-17T08:19:37Z</time>
      </trkpt>
      <trkpt lat="47.388693960383534" lon="10.718239992856979">
        <ele>1232.55</ele>
        <time>2018-09-17T08:19:38Z</time>
      </trkpt>
      <trkpt lat="47.388773001730442" lon="10.718062967061996">
        <ele>1233.99</ele>
        <time>2018-09-17T08:19:39Z</time>
      </trkpt>
      <trkpt lat="47.388883978128433" lon="10.717918965965509">
        <ele>1235.4300000000001</ele>
        <time>2018-09-17T08:19:40Z</time>
      </trkpt>
      <trkpt lat="47.389020016416907" lon="10.717808995395899">
        <ele>1236.3900000000001</ele>
        <time>2018-09-17T08:19:41Z</time>
      </trkpt>
      <trkpt lat="47.389169968664646" lon="10.717712016776204">
        <ele>1237.8299999999999</ele>
        <time>2018-09-17T08:19:42Z</time>
      </trkpt>
      <trkpt lat="47.389330985024571" lon="10.717662982642651">
        <ele>1238.8</ele>
        <time>2018-09-17T08:19:43Z</time>
      </trkpt>
      <trkpt lat="47.38950097002089" lon="10.717634987086058">
        <ele>1239.76</ele>
        <time>2018-09-17T08:19:44Z</time>
      </trkpt>
      <trkpt lat="47.38967296667397" lon="10.717634987086058">
        <ele>1241.2</ele>
        <time>2018-09-17T08:19:45Z</time>
      </trkpt>
      <trkpt lat="47.389846974983811" lon="10.717696007341146">
        <ele>1242.1600000000001</ele>
        <time>2018-09-17T08:19:46Z</time>
      </trkpt>
      <trkpt lat="47.39001695998013" lon="10.717765996232629">
        <ele>1243.1199999999999</ele>
        <time>2018-09-17T08:19:47Z</time>
      </trkpt>
      <trkpt lat="47.39018501713872" lon="10.717834979295731">
        <ele>1244.5599999999999</ele>
        <time>2018-09-17T08:19:48Z</time>
      </trkpt>
      <trkpt lat="47.390344021841884" lon="10.717900022864342">
        <ele>1246.01</ele>
        <time>2018-09-17T08:19:49Z</time>
      </trkpt>
      <trkpt lat="47.390497997403145" lon="10.71796297095716">
        <ele>1246.97</ele>
        <time>2018-09-17T08:19:50Z</time>
      </trkpt>
      <trkpt lat="47.39065800793469" lon="10.717949979007244">
        <ele>1248.4100000000001</ele>
        <time>2018-09-17T08:19:51Z</time>
      </trkpt>
      <trkpt lat="47.390817012637854" lon="10.717913014814258">
        <ele>1249.8499999999999</ele>
        <time>2018-09-17T08:19:52Z</time>
      </trkpt>
      <trkpt lat="47.390976017341018" lon="10.717875966802239">
        <ele>1251.29</ele>
        <time>2018-09-17T08:19:53Z</time>
      </trkpt>
      <trkpt lat="47.391301989555359" lon="10.717831961810589">
        <ele>1252.74</ele>
        <time>2018-09-17T08:19:55Z</time>
      </trkpt>
      <trkpt lat="47.391467029228806" lon="10.717836990952492">
        <ele>1253.7</ele>
        <time>2018-09-17T08:19:56Z</time>
      </trkpt>
      <trkpt lat="47.391958041116595" lon="10.717825004830956">
        <ele>1256.5799999999999</ele>
        <time>2018-09-17T08:19:59Z</time>
      </trkpt>
      <trkpt lat="47.392126014456153" lon="10.717773037031293">
        <ele>1257.54</ele>
        <time>2018-09-17T08:20:00Z</time>
      </trkpt>
      <trkpt lat="47.392793968319893" lon="10.717430971562862">
        <ele>1261.3900000000001</ele>
        <time>2018-09-17T08:20:04Z</time>
      </trkpt>
      <trkpt lat="47.392974011600018" lon="10.717389984056354">
        <ele>1262.8299999999999</ele>
        <time>2018-09-17T08:20:05Z</time>
      </trkpt>
      <trkpt lat="47.39330199547112" lon="10.717313960194588">
        <ele>1266.1900000000001</ele>
        <time>2018-09-17T08:20:07Z</time>
      </trkpt>
      <trkpt lat="47.393425041809678" lon="10.717214969918132">
        <ele>1267.6400000000001</ele>
        <time>2018-09-17T08:20:08Z</time>
      </trkpt>
      <trkpt lat="47.39353802986443" lon="10.717124026268721">
        <ele>1269.5599999999999</ele>
        <time>2018-09-17T08:20:09Z</time>
      </trkpt>
      <trkpt lat="47.393639031797647" lon="10.717041967436671">
        <ele>1270.52</ele>
        <time>2018-09-17T08:20:10Z</time>
      </trkpt>
      <trkpt lat="47.393729975447059" lon="10.716968961060047">
        <ele>1271.96</ele>
        <time>2018-09-17T08:20:11Z</time>
      </trkpt>
      <trkpt lat="47.393803987652063" lon="10.716909030452371">
        <ele>1273.4000000000001</ele>
        <time>2018-09-17T08:20:12Z</time>
      </trkpt>
      <trkpt lat="47.393864002078772" lon="10.71686502546072">
        <ele>1274.3599999999999</ele>
        <time>2018-09-17T08:20:13Z</time>
      </trkpt>
      <trkpt lat="47.393908007070422" lon="10.716909030452371">
        <ele>1274.8499999999999</ele>
        <time>2018-09-17T08:20:14Z</time>
      </trkpt>
      <trkpt lat="47.393969027325511" lon="10.71699402295053">
        <ele>1275.8099999999999</ele>
        <time>2018-09-17T08:20:15Z</time>
      </trkpt>
      <trkpt lat="47.393969027325511" lon="10.717083960771561">
        <ele>1276.77</ele>
        <time>2018-09-17T08:20:16Z</time>
      </trkpt>
      <trkpt lat="47.393901972100139" lon="10.717198960483074">
        <ele>1277.25</ele>
        <time>2018-09-17T08:20:17Z</time>
      </trkpt>
      <trkpt lat="47.39383801817894" lon="10.71729501709342">
        <ele>1278.21</ele>
        <time>2018-09-17T08:20:18Z</time>
      </trkpt>
      <trkpt lat="47.393761994317174" lon="10.717409010976553">
        <ele>1278.6900000000001</ele>
        <time>2018-09-17T08:20:19Z</time>
      </trkpt>
      <trkpt lat="47.393674990162253" lon="10.717538008466363">
        <ele>1279.1700000000001</ele>
        <time>2018-09-17T08:20:20Z</time>
      </trkpt>
      <trkpt lat="47.393609024584293" lon="10.717696007341146">
        <ele>1279.6500000000001</ele>
        <time>2018-09-17T08:20:21Z</time>
      </trkpt>
      <trkpt lat="47.393573988229036" lon="10.717879990115762">
        <ele>1280.6099999999999</ele>
        <time>2018-09-17T08:20:22Z</time>
      </trkpt>
      <trkpt lat="47.393541969358921" lon="10.718043018132448">
        <ele>1281.0899999999999</ele>
        <time>2018-09-17T08:20:23Z</time>
      </trkpt>
      <trkpt lat="47.393515985459089" lon="10.718178972601891">
        <ele>1282.0599999999999</ele>
        <time>2018-09-17T08:20:24Z</time>
      </trkpt>
      <trkpt lat="47.39349695853889" lon="10.718286009505391">
        <ele>1282.54</ele>
        <time>2018-09-17T08:20:25Z</time>
      </trkpt>
      <trkpt lat="47.393510034307837" lon="10.718384999781847">
        <ele>1283.98</ele>
        <time>2018-09-17T08:20:26Z</time>
      </trkpt>
      <trkpt lat="47.393526965752244" lon="10.718454988673329">
        <ele>1284.9400000000001</ele>
        <time>2018-09-17T08:20:27Z</time>
      </trkpt>
      <trkpt lat="47.393588991835713" lon="10.718486001715064">
        <ele>1285.9000000000001</ele>
        <time>2018-09-17T08:20:28Z</time>
      </trkpt>
      <trkpt lat="47.39364598877728" lon="10.718472003936768">
        <ele>1286.8599999999999</ele>
        <time>2018-09-17T08:20:29Z</time>
      </trkpt>
      <trkpt lat="47.393699968233705" lon="10.718420958146453">
        <ele>1287.8199999999999</ele>
        <time>2018-09-17T08:20:30Z</time>
      </trkpt>
      <trkpt lat="47.393738022074103" lon="10.71830696426332">
        <ele>1288.78</ele>
        <time>2018-09-17T08:20:31Z</time>
      </trkpt>
      <trkpt lat="47.393782027065754" lon="10.718172015622258">
        <ele>1289.75</ele>
        <time>2018-09-17T08:20:32Z</time>
      </trkpt>
      <trkpt lat="47.393833994865417" lon="10.718018962070346">
        <ele>1290.71</ele>
        <time>2018-09-17T08:20:33Z</time>
      </trkpt>
      <trkpt lat="47.393894009292126" lon="10.717849982902408">
        <ele>1291.6700000000001</ele>
        <time>2018-09-17T08:20:34Z</time>
      </trkpt>
      <trkpt lat="47.393981013447046" lon="10.717688966542482">
        <ele>1293.1099999999999</ele>
        <time>2018-09-17T08:20:35Z</time>
      </trkpt>
      <trkpt lat="47.394094001501799" lon="10.717539014294744">
        <ele>1294.55</ele>
        <time>2018-09-17T08:20:36Z</time>
      </trkpt>
      <trkpt lat="47.394221993163228" lon="10.71742401458323">
        <ele>1295.51</ele>
        <time>2018-09-17T08:20:37Z</time>
      </trkpt>
      <trkpt lat="47.394374962896109" lon="10.717385038733482">
        <ele>1296.48</ele>
        <time>2018-09-17T08:20:38Z</time>
      </trkpt>
      <trkpt lat="47.394528016448021" lon="10.717348996549845">
        <ele>1297.9200000000001</ele>
        <time>2018-09-17T08:20:39Z</time>
      </trkpt>
      <trkpt lat="47.394693978130817" lon="10.717313960194588">
        <ele>1298.8800000000001</ele>
        <time>2018-09-17T08:20:40Z</time>
      </trkpt>
      <trkpt lat="47.394867986440659" lon="10.717322006821632">
        <ele>1300.3199999999999</ele>
        <time>2018-09-17T08:20:41Z</time>
      </trkpt>
      <trkpt lat="47.395770968869328" lon="10.717420997098088">
        <ele>1308.49</ele>
        <time>2018-09-17T08:20:48Z</time>
      </trkpt>
      <trkpt lat="47.395800976082683" lon="10.717459972947836">
        <ele>1309.9300000000001</ele>
        <time>2018-09-17T08:20:49Z</time>
      </trkpt>
      <trkpt lat="47.395825032144785" lon="10.717492997646332">
        <ele>1310.9000000000001</ele>
        <time>2018-09-17T08:20:50Z</time>
      </trkpt>
      <trkpt lat="47.395841041579843" lon="10.717513030394912">
        <ele>1311.8599999999999</ele>
        <time>2018-09-17T08:20:51Z</time>
      </trkpt>
      <trkpt lat="47.395841041579843" lon="10.717513030394912">
        <ele>1312.8199999999999</ele>
        <time>2018-09-17T08:21:04Z</time>
      </trkpt>
      <trkpt lat="47.39585998468101" lon="10.717540020123124">
        <ele>1314.26</ele>
        <time>2018-09-17T08:21:22Z</time>
      </trkpt>
      <trkpt lat="47.395899966359138" lon="10.717591987922788">
        <ele>1315.22</ele>
        <time>2018-09-17T08:21:23Z</time>
      </trkpt>
      <trkpt lat="47.395952017977834" lon="10.717630963772535">
        <ele>1316.1800000000001</ele>
        <time>2018-09-17T08:21:24Z</time>
      </trkpt>
      <trkpt lat="47.396045979112387" lon="10.717663988471031">
        <ele>1316.6600000000001</ele>
        <time>2018-09-17T08:21:25Z</time>
      </trkpt>
      <trkpt lat="47.396133989095688" lon="10.717675974592566">
        <ele>1317.1400000000001</ele>
        <time>2018-09-17T08:21:26Z</time>
      </trkpt>
      <trkpt lat="47.396444035694003" lon="10.717716040089726">
        <ele>1317.6199999999999</ele>
        <time>2018-09-17T08:21:29Z</time>
      </trkpt>
      <trkpt lat="47.396571021527052" lon="10.717732971534133">
        <ele>1317.6199999999999</ele>
        <time>2018-09-17T08:21:30Z</time>
      </trkpt>
      <trkpt lat="47.397548016160727" lon="10.717700030654669">
        <ele>1316.6600000000001</ele>
        <time>2018-09-17T08:21:37Z</time>
      </trkpt>
      <trkpt lat="47.398950979113579" lon="10.717420997098088">
        <ele>1308.01</ele>
        <time>2018-09-17T08:21:47Z</time>
      </trkpt>
      <trkpt lat="47.399610970169306" lon="10.717523004859686">
        <ele>1301.76</ele>
        <time>2018-09-17T08:21:52Z</time>
      </trkpt>
      <trkpt lat="47.399737033993006" lon="10.717480005696416">
        <ele>1300.8</ele>
        <time>2018-09-17T08:21:53Z</time>
      </trkpt>
      <trkpt lat="47.399865025654435" lon="10.71740398183465">
        <ele>1299.3599999999999</ele>
        <time>2018-09-17T08:21:54Z</time>
      </trkpt>
      <trkpt lat="47.399999974295497" lon="10.717325024306774">
        <ele>1298.4000000000001</ele>
        <time>2018-09-17T08:21:55Z</time>
      </trkpt>
      <trkpt lat="47.400138024240732" lon="10.717241959646344">
        <ele>1296.96</ele>
        <time>2018-09-17T08:21:56Z</time>
      </trkpt>
      <trkpt lat="47.400535997003317" lon="10.717028975486755">
        <ele>1293.5899999999999</ele>
        <time>2018-09-17T08:21:59Z</time>
      </trkpt>
      <trkpt lat="47.400662982836366" lon="10.716988993808627">
        <ele>1292.6300000000001</ele>
        <time>2018-09-17T08:22:00Z</time>
      </trkpt>
      <trkpt lat="47.400793991982937" lon="10.716949012130499">
        <ele>1291.6700000000001</ele>
        <time>2018-09-17T08:22:01Z</time>
      </trkpt>
      <trkpt lat="47.400922989472747" lon="10.716982958838344">
        <ele>1290.23</ele>
        <time>2018-09-17T08:22:02Z</time>
      </trkpt>
      <trkpt lat="47.40105802193284" lon="10.717019001021981">
        <ele>1289.27</ele>
        <time>2018-09-17T08:22:03Z</time>
      </trkpt>
      <trkpt lat="47.401200011372566" lon="10.717083038762212">
        <ele>1288.3</ele>
        <time>2018-09-17T08:22:04Z</time>
      </trkpt>
      <trkpt lat="47.40237096324563" lon="10.717744035646319">
        <ele>1281.0899999999999</ele>
        <time>2018-09-17T08:22:13Z</time>
      </trkpt>
      <trkpt lat="47.403248967602849" lon="10.718200011178851">
        <ele>1279.6500000000001</ele>
        <time>2018-09-17T08:22:24Z</time>
      </trkpt>
      <trkpt lat="47.403325997292995" lon="10.718227000907063">
        <ele>1279.6500000000001</ele>
        <time>2018-09-17T08:22:25Z</time>
      </trkpt>
      <trkpt lat="47.403403026983142" lon="10.718253990635276">
        <ele>1280.1300000000001</ele>
        <time>2018-09-17T08:22:26Z</time>
      </trkpt>
      <trkpt lat="47.403483996167779" lon="10.718277040868998">
        <ele>1280.6099999999999</ele>
        <time>2018-09-17T08:22:27Z</time>
      </trkpt>
      <trkpt lat="47.403563037514687" lon="10.718254996463656">
        <ele>1281.0899999999999</ele>
        <time>2018-09-17T08:22:28Z</time>
      </trkpt>
      <trkpt lat="47.403639983385801" lon="10.718234041705728">
        <ele>1281.0899999999999</ele>
        <time>2018-09-17T08:22:29Z</time>
      </trkpt>
      <trkpt lat="47.40372003056109" lon="10.718211997300386">
        <ele>1281.5699999999999</ele>
        <time>2018-09-17T08:22:30Z</time>
      </trkpt>
      <trkpt lat="47.404322018846869" lon="10.718090040609241">
        <ele>1284.9400000000001</ele>
        <time>2018-09-17T08:22:37Z</time>
      </trkpt>
      <trkpt lat="47.404411034658551" lon="10.718123987317085">
        <ele>1284.9400000000001</ele>
        <time>2018-09-17T08:22:38Z</time>
      </trkpt>
      <trkpt lat="47.404500972479582" lon="10.718159023672342">
        <ele>1284.9400000000001</ele>
        <time>2018-09-17T08:22:39Z</time>
      </trkpt>
      <trkpt lat="47.404591999948025" lon="10.718194982036948">
        <ele>1283.98</ele>
        <time>2018-09-17T08:22:40Z</time>
      </trkpt>
      <trkpt lat="47.404660983011127" lon="10.71826396510005">
        <ele>1283.5</ele>
        <time>2018-09-17T08:22:41Z</time>
      </trkpt>
      <trkpt lat="47.404728960245848" lon="10.718332026153803">
        <ele>1282.54</ele>
        <time>2018-09-17T08:22:42Z</time>
      </trkpt>
      <trkpt lat="47.40479601547122" lon="10.718419030308723">
        <ele>1282.0599999999999</ele>
        <time>2018-09-17T08:22:43Z</time>
      </trkpt>
      <trkpt lat="47.404842032119632" lon="10.718532018363476">
        <ele>1281.5699999999999</ele>
        <time>2018-09-17T08:22:44Z</time>
      </trkpt>
      <trkpt lat="47.405244028195739" lon="10.719801960512996">
        <ele>1277.73</ele>
        <time>2018-09-17T08:22:53Z</time>
      </trkpt>
      <trkpt lat="47.405433040112257" lon="10.721267033368349">
        <ele>1278.21</ele>
        <time>2018-09-17T08:23:01Z</time>
      </trkpt>
      <trkpt lat="47.405720958486199" lon="10.72279597632587">
        <ele>1282.54</ele>
        <time>2018-09-17T08:23:07Z</time>
      </trkpt>
      <trkpt lat="47.406081967055798" lon="10.725213987752795">
        <ele>1290.71</ele>
        <time>2018-09-17T08:23:15Z</time>
      </trkpt>
      <trkpt lat="47.406083978712559" lon="10.725505007430911">
        <ele>1292.1500000000001</ele>
        <time>2018-09-17T08:23:16Z</time>
      </trkpt>
      <trkpt lat="47.406072998419404" lon="10.725788986310363">
        <ele>1293.1099999999999</ele>
        <time>2018-09-17T08:23:17Z</time>
      </trkpt>
      <trkpt lat="47.406059000641108" lon="10.726608987897635">
        <ele>1296.48</ele>
        <time>2018-09-17T08:23:20Z</time>
      </trkpt>
      <trkpt lat="47.406078027561307" lon="10.726883998140693">
        <ele>1297.9200000000001</ele>
        <time>2018-09-17T08:23:21Z</time>
      </trkpt>
      <trkpt lat="47.406126977875829" lon="10.727164959535003">
        <ele>1299.3599999999999</ele>
        <time>2018-09-17T08:23:22Z</time>
      </trkpt>
      <trkpt lat="47.406366029754281" lon="10.728545961901546">
        <ele>1307.05</ele>
        <time>2018-09-17T08:23:27Z</time>
      </trkpt>
      <trkpt lat="47.406355971470475" lon="10.728819966316223">
        <ele>1308.01</ele>
        <time>2018-09-17T08:23:28Z</time>
      </trkpt>
      <trkpt lat="47.406339040026069" lon="10.72909195907414">
        <ele>1309.45</ele>
        <time>2018-09-17T08:23:29Z</time>
      </trkpt>
      <trkpt lat="47.406285982578993" lon="10.729925036430359">
        <ele>1313.78</ele>
        <time>2018-09-17T08:23:32Z</time>
      </trkpt>
      <trkpt lat="47.406320013105869" lon="10.730195017531514">
        <ele>1315.22</ele>
        <time>2018-09-17T08:23:33Z</time>
      </trkpt>
      <trkpt lat="47.406361000612378" lon="10.730470027774572">
        <ele>1316.6600000000001</ele>
        <time>2018-09-17T08:23:34Z</time>
      </trkpt>
      <trkpt lat="47.40643098950386" lon="10.730739003047347">
        <ele>1318.0999999999999</ele>
        <time>2018-09-17T08:23:35Z</time>
      </trkpt>
      <trkpt lat="47.406501984223723" lon="10.731015019118786">
        <ele>1320.03</ele>
        <time>2018-09-17T08:23:36Z</time>
      </trkpt>
      <trkpt lat="47.407085029408336" lon="10.733738970011473">
        <ele>1330.1199999999999</ele>
        <time>2018-09-17T08:23:45Z</time>
      </trkpt>
      <trkpt lat="47.40743899717927" lon="10.736455963924527">
        <ele>1332.52</ele>
        <time>2018-09-17T08:23:53Z</time>
      </trkpt>
      <trkpt lat="47.407687017694116" lon="10.737665975466371">
        <ele>1333.49</ele>
        <time>2018-09-17T08:23:58Z</time>
      </trkpt>
      <trkpt lat="47.407807968556881" lon="10.738254971802235">
        <ele>1333.97</ele>
        <time>2018-09-17T08:24:04Z</time>
      </trkpt>
      <trkpt lat="47.407855996862054" lon="10.738620003685355">
        <ele>1334.45</ele>
        <time>2018-09-17T08:24:07Z</time>
      </trkpt>
      <trkpt lat="47.407860020175576" lon="10.738792000338435">
        <ele>1335.4100000000001</ele>
        <time>2018-09-17T08:24:08Z</time>
      </trkpt>
      <trkpt lat="47.407864965498447" lon="10.738991992548108">
        <ele>1335.8900000000001</ele>
        <time>2018-09-17T08:24:09Z</time>
      </trkpt>
      <trkpt lat="47.407682994380593" lon="10.740535017102957">
        <ele>1341.6600000000001</ele>
        <time>2018-09-17T08:24:15Z</time>
      </trkpt>
      <trkpt lat="47.407523989677429" lon="10.742719005793333">
        <ele>1352.23</ele>
        <time>2018-09-17T08:24:22Z</time>
      </trkpt>
      <trkpt lat="47.407594984397292" lon="10.743754003196955">
        <ele>1359.4400000000001</ele>
        <time>2018-09-17T08:24:27Z</time>
      </trkpt>
      <trkpt lat="47.407652987167239" lon="10.744280973449349">
        <ele>1362.8099999999999</ele>
        <time>2018-09-17T08:24:31Z</time>
      </trkpt>
      <trkpt lat="47.407666984945536" lon="10.744401002302766">
        <ele>1363.29</ele>
        <time>2018-09-17T08:24:32Z</time>
      </trkpt>
      <trkpt lat="47.40784702822566" lon="10.746196992695332">
        <ele>1360.8800000000001</ele>
        <time>2018-09-17T08:24:46Z</time>
      </trkpt>
      <trkpt lat="47.408017013221979" lon="10.747120007872581">
        <ele>1358</ele>
        <time>2018-09-17T08:24:54Z</time>
      </trkpt>
      <trkpt lat="47.408045008778572" lon="10.747226038947701">
        <ele>1358</ele>
        <time>2018-09-17T08:24:55Z</time>
      </trkpt>
      <trkpt lat="47.408100999891758" lon="10.747409015893936">
        <ele>1358</ele>
        <time>2018-09-17T08:24:57Z</time>
      </trkpt>
      <trkpt lat="47.40812698379159" lon="10.747490990906954">
        <ele>1357.52</ele>
        <time>2018-09-17T08:24:58Z</time>
      </trkpt>
      <trkpt lat="47.408195966854692" lon="10.747514963150024">
        <ele>1357.52</ele>
        <time>2018-09-17T08:24:59Z</time>
      </trkpt>
      <trkpt lat="47.408258998766541" lon="10.747526027262211">
        <ele>1357.04</ele>
        <time>2018-09-17T08:25:00Z</time>
      </trkpt>
      <trkpt lat="47.408325970172882" lon="10.747470958158374">
        <ele>1357.04</ele>
        <time>2018-09-17T08:25:01Z</time>
      </trkpt>
      <trkpt lat="47.408390007913113" lon="10.747415972873569">
        <ele>1357.04</ele>
        <time>2018-09-17T08:25:02Z</time>
      </trkpt>
      <trkpt lat="47.408447004854679" lon="10.747350007295609">
        <ele>1357.04</ele>
        <time>2018-09-17T08:25:03Z</time>
      </trkpt>
      <trkpt lat="47.408499978482723" lon="10.747286975383759">
        <ele>1357.04</ele>
        <time>2018-09-17T08:25:04Z</time>
      </trkpt>
      <trkpt lat="47.408727966248989" lon="10.747019005939364">
        <ele>1356.0799999999999</ele>
        <time>2018-09-17T08:25:08Z</time>
      </trkpt>
      <trkpt lat="47.408783035352826" lon="10.746954968199134">
        <ele>1355.1199999999999</ele>
        <time>2018-09-17T08:25:09Z</time>
      </trkpt>
      <trkpt lat="47.40889803506434" lon="10.746830999851227">
        <ele>1353.1900000000001</ele>
        <time>2018-09-17T08:25:11Z</time>
      </trkpt>
      <trkpt lat="47.408958971500397" lon="10.746800992637873">
        <ele>1352.23</ele>
        <time>2018-09-17T08:25:12Z</time>
      </trkpt>
      <trkpt lat="47.40903097204864" lon="10.74681700207293">
        <ele>1351.27</ele>
        <time>2018-09-17T08:25:13Z</time>
      </trkpt>
      <trkpt lat="47.40907296538353" lon="10.74688296765089">
        <ele>1350.3099999999999</ele>
        <time>2018-09-17T08:25:14Z</time>
      </trkpt>
      <trkpt lat="47.409123005345464" lon="10.746959997341037">
        <ele>1349.8299999999999</ele>
        <time>2018-09-17T08:25:15Z</time>
      </trkpt>
      <trkpt lat="47.409182013943791" lon="10.74705395847559">
        <ele>1348.8699999999999</ele>
        <time>2018-09-17T08:25:16Z</time>
      </trkpt>
      <trkpt lat="47.409219983965158" lon="10.747136017307639">
        <ele>1347.4300000000001</ele>
        <time>2018-09-17T08:25:17Z</time>
      </trkpt>
      <trkpt lat="47.409267006441951" lon="10.747237019240856">
        <ele>1346.46</ele>
        <time>2018-09-17T08:25:18Z</time>
      </trkpt>
      <trkpt lat="47.409628015011549" lon="10.748158022761345">
        <ele>1335.4100000000001</ele>
        <time>2018-09-17T08:25:26Z</time>
      </trkpt>
      <trkpt lat="47.409653998911381" lon="10.748273022472858">
        <ele>1333.97</ele>
        <time>2018-09-17T08:25:27Z</time>
      </trkpt>
      <trkpt lat="47.409653998911381" lon="10.749141974374652">
        <ele>1326.76</ele>
        <time>2018-09-17T08:25:35Z</time>
      </trkpt>
      <trkpt lat="47.409623991698027" lon="10.749280024319887">
        <ele>1325.3099999999999</ele>
        <time>2018-09-17T08:25:37Z</time>
      </trkpt>
      <trkpt lat="47.409577975049615" lon="10.749338027089834">
        <ele>1324.8299999999999</ele>
        <time>2018-09-17T08:25:38Z</time>
      </trkpt>
      <trkpt lat="47.409527013078332" lon="10.749400975182652">
        <ele>1324.3499999999999</ele>
        <time>2018-09-17T08:25:39Z</time>
      </trkpt>
      <trkpt lat="47.409465992823243" lon="10.749469958245754">
        <ele>1323.8699999999999</ele>
        <time>2018-09-17T08:25:40Z</time>
      </trkpt>
      <trkpt lat="47.409401033073664" lon="10.749524021521211">
        <ele>1323.3900000000001</ele>
        <time>2018-09-17T08:25:41Z</time>
      </trkpt>
      <trkpt lat="47.409334983676672" lon="10.749578000977635">
        <ele>1322.4300000000001</ele>
        <time>2018-09-17T08:25:42Z</time>
      </trkpt>
      <trkpt lat="47.40922199562192" lon="10.749683026224375">
        <ele>1321.47</ele>
        <time>2018-09-17T08:25:44Z</time>
      </trkpt>
      <trkpt lat="47.409182013943791" lon="10.749735999852419">
        <ele>1320.99</ele>
        <time>2018-09-17T08:25:45Z</time>
      </trkpt>
      <trkpt lat="47.409170027822256" lon="10.749827027320862">
        <ele>1320.51</ele>
        <time>2018-09-17T08:25:46Z</time>
      </trkpt>
      <trkpt lat="47.40915703587234" lon="10.749930962920189">
        <ele>1320.03</ele>
        <time>2018-09-17T08:25:47Z</time>
      </trkpt>
      <trkpt lat="47.409142032265663" lon="10.750045040622354">
        <ele>1319.55</ele>
        <time>2018-09-17T08:25:48Z</time>
      </trkpt>
      <trkpt lat="47.409060979261994" lon="10.750891026109457">
        <ele>1313.3</ele>
        <time>2018-09-17T08:25:55Z</time>
      </trkpt>
      <trkpt lat="47.409067014232278" lon="10.751012982800603">
        <ele>1311.8599999999999</ele>
        <time>2018-09-17T08:25:56Z</time>
      </trkpt>
      <trkpt lat="47.409071959555149" lon="10.751138962805271">
        <ele>1310.9000000000001</ele>
        <time>2018-09-17T08:25:57Z</time>
      </trkpt>
      <trkpt lat="47.409100960940123" lon="10.751267038285732">
        <ele>1309.45</ele>
        <time>2018-09-17T08:25:58Z</time>
      </trkpt>
      <trkpt lat="47.409144965931773" lon="10.751393018290401">
        <ele>1308.97</ele>
        <time>2018-09-17T08:25:59Z</time>
      </trkpt>
      <trkpt lat="47.409191988408566" lon="10.751526039093733">
        <ele>1308.01</ele>
        <time>2018-09-17T08:26:00Z</time>
      </trkpt>
      <trkpt lat="47.409240016713738" lon="10.751659981906414">
        <ele>1307.53</ele>
        <time>2018-09-17T08:26:01Z</time>
      </trkpt>
      <trkpt lat="47.409287039190531" lon="10.751791996881366">
        <ele>1307.05</ele>
        <time>2018-09-17T08:26:02Z</time>
      </trkpt>
      <trkpt lat="47.409334983676672" lon="10.751910014078021">
        <ele>1306.0899999999999</ele>
        <time>2018-09-17T08:26:03Z</time>
      </trkpt>
      <trkpt lat="47.40958996117115" lon="10.752589032053947">
        <ele>1303.6900000000001</ele>
        <time>2018-09-17T08:26:09Z</time>
      </trkpt>
      <trkpt lat="47.409647963941097" lon="10.752834035083652">
        <ele>1302.72</ele>
        <time>2018-09-17T08:26:11Z</time>
      </trkpt>
      <trkpt lat="47.40967595949769" lon="10.752954985946417">
        <ele>1302.72</ele>
        <time>2018-09-17T08:26:12Z</time>
      </trkpt>
      <trkpt lat="47.409666990861297" lon="10.753078032284975">
        <ele>1302.72</ele>
        <time>2018-09-17T08:26:13Z</time>
      </trkpt>
      <trkpt lat="47.409657016396523" lon="10.753206023946404">
        <ele>1302.24</ele>
        <time>2018-09-17T08:26:14Z</time>
      </trkpt>
      <trkpt lat="47.409647963941097" lon="10.753338038921356">
        <ele>1302.24</ele>
        <time>2018-09-17T08:26:15Z</time>
      </trkpt>
      <trkpt lat="47.409637989476323" lon="10.753473993390799">
        <ele>1302.24</ele>
        <time>2018-09-17T08:26:16Z</time>
      </trkpt>
      <trkpt lat="47.409574035555124" lon="10.75435602106154">
        <ele>1304.6500000000001</ele>
        <time>2018-09-17T08:26:22Z</time>
      </trkpt>
      <trkpt lat="47.409339006990194" lon="10.75577599927783">
        <ele>1308.97</ele>
        <time>2018-09-17T08:26:32Z</time>
      </trkpt>
      <trkpt lat="47.408803990110755" lon="10.757570983842015">
        <ele>1303.6900000000001</ele>
        <time>2018-09-17T08:26:42Z</time>
      </trkpt>
      <trkpt lat="47.408079961314797" lon="10.759799983352423">
        <ele>1291.6700000000001</ele>
        <time>2018-09-17T08:26:52Z</time>
      </trkpt>
      <trkpt lat="47.407872006297112" lon="10.760621996596456">
        <ele>1285.9000000000001</ele>
        <time>2018-09-17T08:26:56Z</time>
      </trkpt>
      <trkpt lat="47.407866977155209" lon="10.760828023776412">
        <ele>1283.98</ele>
        <time>2018-09-17T08:26:57Z</time>
      </trkpt>
      <trkpt lat="47.407858008518815" lon="10.7612310256809">
        <ele>1280.6099999999999</ele>
        <time>2018-09-17T08:26:59Z</time>
      </trkpt>
      <trkpt lat="47.407853985205293" lon="10.761430012062192">
        <ele>1278.6900000000001</ele>
        <time>2018-09-17T08:27:00Z</time>
      </trkpt>
      <trkpt lat="47.407801011577249" lon="10.7616419903934">
        <ele>1276.77</ele>
        <time>2018-09-17T08:27:01Z</time>
      </trkpt>
      <trkpt lat="47.40772096440196" lon="10.761837959289551">
        <ele>1274.8499999999999</ele>
        <time>2018-09-17T08:27:02Z</time>
      </trkpt>
      <trkpt lat="47.407638989388943" lon="10.762040968984365">
        <ele>1272.9200000000001</ele>
        <time>2018-09-17T08:27:03Z</time>
      </trkpt>
      <trkpt lat="47.40713900886476" lon="10.763605032116175">
        <ele>1260.4300000000001</ele>
        <time>2018-09-17T08:27:10Z</time>
      </trkpt>
      <trkpt lat="47.407090980559587" lon="10.763853974640369">
        <ele>1258.5</ele>
        <time>2018-09-17T08:27:11Z</time>
      </trkpt>
      <trkpt lat="47.407054016366601" lon="10.764106018468738">
        <ele>1256.5799999999999</ele>
        <time>2018-09-17T08:27:12Z</time>
      </trkpt>
      <trkpt lat="47.407015040516853" lon="10.766191016882658">
        <ele>1238.8</ele>
        <time>2018-09-17T08:27:20Z</time>
      </trkpt>
      <trkpt lat="47.407007999718189" lon="10.768611039966345">
        <ele>1219.5699999999999</ele>
        <time>2018-09-17T08:27:30Z</time>
      </trkpt>
      <trkpt lat="47.406980004161596" lon="10.768847996369004">
        <ele>1218.1300000000001</ele>
        <time>2018-09-17T08:27:31Z</time>
      </trkpt>
      <trkpt lat="47.406916972249746" lon="10.769319981336594">
        <ele>1214.28</ele>
        <time>2018-09-17T08:27:33Z</time>
      </trkpt>
      <trkpt lat="47.406434006989002" lon="10.770788993686438">
        <ele>1200.3399999999999</ele>
        <time>2018-09-17T08:27:40Z</time>
      </trkpt>
      <trkpt lat="47.406390001997352" lon="10.770999966189265">
        <ele>1198.4200000000001</ele>
        <time>2018-09-17T08:27:41Z</time>
      </trkpt>
      <trkpt lat="47.406383967027068" lon="10.771212028339505">
        <ele>1196.5</ele>
        <time>2018-09-17T08:27:42Z</time>
      </trkpt>
      <trkpt lat="47.406350020319223" lon="10.772554976865649">
        <ele>1183.52</ele>
        <time>2018-09-17T08:27:48Z</time>
      </trkpt>
      <trkpt lat="47.4063650239259" lon="10.772765027359128">
        <ele>1181.5999999999999</ele>
        <time>2018-09-17T08:27:49Z</time>
      </trkpt>
      <trkpt lat="47.406435012817383" lon="10.772962002083659">
        <ele>1180.6400000000001</ele>
        <time>2018-09-17T08:27:50Z</time>
      </trkpt>
      <trkpt lat="47.406520005315542" lon="10.773139027878642">
        <ele>1179.1900000000001</ele>
        <time>2018-09-17T08:27:51Z</time>
      </trkpt>
      <trkpt lat="47.406616983935237" lon="10.773313036188483">
        <ele>1177.27</ele>
        <time>2018-09-17T08:27:52Z</time>
      </trkpt>
      <trkpt lat="47.406716980040073" lon="10.773491989821196">
        <ele>1175.8299999999999</ele>
        <time>2018-09-17T08:27:53Z</time>
      </trkpt>
      <trkpt lat="47.40681798197329" lon="10.77367203310132">
        <ele>1173.9100000000001</ele>
        <time>2018-09-17T08:27:54Z</time>
      </trkpt>
      <trkpt lat="47.406911021098495" lon="10.773851992562413">
        <ele>1172.47</ele>
        <time>2018-09-17T08:27:55Z</time>
      </trkpt>
      <trkpt lat="47.406954020261765" lon="10.774082997813821">
        <ele>1170.54</ele>
        <time>2018-09-17T08:27:56Z</time>
      </trkpt>
      <trkpt lat="47.406997019425035" lon="10.774318026378751">
        <ele>1169.0999999999999</ele>
        <time>2018-09-17T08:27:57Z</time>
      </trkpt>
      <trkpt lat="47.407130962237716" lon="10.774994026869535">
        <ele>1164.77</ele>
        <time>2018-09-17T08:28:00Z</time>
      </trkpt>
      <trkpt lat="47.407208997756243" lon="10.775186978280544">
        <ele>1163.3299999999999</ele>
        <time>2018-09-17T08:28:01Z</time>
      </trkpt>
      <trkpt lat="47.407302958890796" lon="10.775374984368682">
        <ele>1161.8900000000001</ele>
        <time>2018-09-17T08:28:02Z</time>
      </trkpt>
      <trkpt lat="47.407400021329522" lon="10.775570031255484">
        <ele>1160.45</ele>
        <time>2018-09-17T08:28:03Z</time>
      </trkpt>
      <trkpt lat="47.407500017434359" lon="10.775769017636776">
        <ele>1159.49</ele>
        <time>2018-09-17T08:28:04Z</time>
      </trkpt>
      <trkpt lat="47.407647036015987" lon="10.776242008432746">
        <ele>1156.5999999999999</ele>
        <time>2018-09-17T08:28:06Z</time>
      </trkpt>
      <trkpt lat="47.408102005720139" lon="10.777611024677753">
        <ele>1148.4300000000001</ele>
        <time>2018-09-17T08:28:12Z</time>
      </trkpt>
      <trkpt lat="47.408219017088413" lon="10.777790984138846">
        <ele>1146.99</ele>
        <time>2018-09-17T08:28:13Z</time>
      </trkpt>
      <trkpt lat="47.409236999228597" lon="10.779561996459961">
        <ele>1136.4200000000001</ele>
        <time>2018-09-17T08:28:22Z</time>
      </trkpt>
      <trkpt lat="47.4102539755404" lon="10.782374041154981">
        <ele>1128.24</ele>
        <time>2018-09-17T08:28:32Z</time>
      </trkpt>
      <trkpt lat="47.411325015127659" lon="10.784848965704441">
        <ele>1120.55</ele>
        <time>2018-09-17T08:28:41Z</time>
      </trkpt>
      <trkpt lat="47.411491982638836" lon="10.785040995106101">
        <ele>1119.5899999999999</ele>
        <time>2018-09-17T08:28:42Z</time>
      </trkpt>
      <trkpt lat="47.413230976089835" lon="10.786717962473631">
        <ele>1110.9400000000001</ele>
        <time>2018-09-17T08:28:52Z</time>
      </trkpt>
      <trkpt lat="47.413372965529561" lon="10.786892976611853">
        <ele>1109.98</ele>
        <time>2018-09-17T08:28:53Z</time>
      </trkpt>
      <trkpt lat="47.413511015474796" lon="10.787062961608171">
        <ele>1109.02</ele>
        <time>2018-09-17T08:28:54Z</time>
      </trkpt>
      <trkpt lat="47.413646969944239" lon="10.787245016545057">
        <ele>1108.0599999999999</ele>
        <time>2018-09-17T08:28:55Z</time>
      </trkpt>
      <trkpt lat="47.41422900930047" lon="10.788322007283568">
        <ele>1104.6900000000001</ele>
        <time>2018-09-17T08:29:00Z</time>
      </trkpt>
      <trkpt lat="47.414352977648377" lon="10.788525016978383">
        <ele>1103.73</ele>
        <time>2018-09-17T08:29:01Z</time>
      </trkpt>
      <trkpt lat="47.414510976523161" lon="10.788640016689897">
        <ele>1103.25</ele>
        <time>2018-09-17T08:29:02Z</time>
      </trkpt>
      <trkpt lat="47.414670987054706" lon="10.788756022229791">
        <ele>1102.29</ele>
        <time>2018-09-17T08:29:03Z</time>
      </trkpt>
      <trkpt lat="47.41483099758625" lon="10.788859035819769">
        <ele>1101.3299999999999</ele>
        <time>2018-09-17T08:29:04Z</time>
      </trkpt>
      <trkpt lat="47.415000982582569" lon="10.788892982527614">
        <ele>1100.3699999999999</ele>
        <time>2018-09-17T08:29:05Z</time>
      </trkpt>
      <trkpt lat="47.415169961750507" lon="10.78892600722611">
        <ele>1099.8900000000001</ele>
        <time>2018-09-17T08:29:06Z</time>
      </trkpt>
      <trkpt lat="47.415341036394238" lon="10.788960959762335">
        <ele>1098.9200000000001</ele>
        <time>2018-09-17T08:29:07Z</time>
      </trkpt>
      <trkpt lat="47.417415976524353" lon="10.788854006677866">
        <ele>1092.2</ele>
        <time>2018-09-17T08:29:19Z</time>
      </trkpt>
      <trkpt lat="47.418971993029118" lon="10.788310021162033">
        <ele>1087.8699999999999</ele>
        <time>2018-09-17T08:29:29Z</time>
      </trkpt>
      <trkpt lat="47.419313974678516" lon="10.788210025057197">
        <ele>1085.95</ele>
        <time>2018-09-17T08:29:32Z</time>
      </trkpt>
      <trkpt lat="47.419633995741606" lon="10.788226034492254">
        <ele>1084.02</ele>
        <time>2018-09-17T08:29:36Z</time>
      </trkpt>
      <trkpt lat="47.41968696936965" lon="10.78823902644217">
        <ele>1083.54</ele>
        <time>2018-09-17T08:29:37Z</time>
      </trkpt>
      <trkpt lat="47.41972703486681" lon="10.788249000906944">
        <ele>1083.0599999999999</ele>
        <time>2018-09-17T08:29:38Z</time>
      </trkpt>
      <trkpt lat="47.419780008494854" lon="10.788262998685241">
        <ele>1082.0999999999999</ele>
        <time>2018-09-17T08:29:46Z</time>
      </trkpt>
    </trkseg>
  </trk>

  <trk>
    <name>Track vom: 2018-09-17 10:30</name>
    <extensions>
      <gpxx:TrackExtension>
        <gpxx:DisplayColor>DarkGray</gpxx:DisplayColor>
      </gpxx:TrackExtension>
    </extensions>
    <trkseg>
      <trkpt lat="47.419780008494854" lon="10.788262998685241">
        <ele>1082.0999999999999</ele>
        <time>2018-09-17T08:30:05Z</time>
      </trkpt>
      <trkpt lat="47.420044038444757" lon="10.788299040868878">
        <ele>1081.1400000000001</ele>
        <time>2018-09-17T08:30:25Z</time>
      </trkpt>
      <trkpt lat="47.420102041214705" lon="10.788276996463537">
        <ele>1081.1400000000001</ele>
        <time>2018-09-17T08:30:26Z</time>
      </trkpt>
      <trkpt lat="47.420145040377975" lon="10.78826098702848">
        <ele>1081.1400000000001</ele>
        <time>2018-09-17T08:30:27Z</time>
      </trkpt>
      <trkpt lat="47.42020396515727" lon="10.788359977304935">
        <ele>1081.6199999999999</ele>
        <time>2018-09-17T08:30:28Z</time>
      </trkpt>
      <trkpt lat="47.420227015390992" lon="10.788428960368037">
        <ele>1081.6199999999999</ele>
        <time>2018-09-17T08:30:29Z</time>
      </trkpt>
      <trkpt lat="47.420236989855766" lon="10.788516970351338">
        <ele>1081.1400000000001</ele>
        <time>2018-09-17T08:30:30Z</time>
      </trkpt>
      <trkpt lat="47.42024403065443" lon="10.788629958406091">
        <ele>1081.1400000000001</ele>
        <time>2018-09-17T08:30:31Z</time>
      </trkpt>
      <trkpt lat="47.420250987634063" lon="10.788750993087888">
        <ele>1081.1400000000001</ele>
        <time>2018-09-17T08:30:32Z</time>
      </trkpt>
      <trkpt lat="47.420254005119205" lon="10.788873033598065">
        <ele>1081.1400000000001</ele>
        <time>2018-09-17T08:30:33Z</time>
      </trkpt>
      <trkpt lat="47.420271020382643" lon="10.789333032444119">
        <ele>1080.1800000000001</ele>
        <time>2018-09-17T08:30:37Z</time>
      </trkpt>
      <trkpt lat="47.420278983190656" lon="10.789449037984014">
        <ele>1080.1800000000001</ele>
        <time>2018-09-17T08:30:38Z</time>
      </trkpt>
      <trkpt lat="47.420302033424377" lon="10.789554985240102">
        <ele>1080.1800000000001</ele>
        <time>2018-09-17T08:30:39Z</time>
      </trkpt>
      <trkpt lat="47.420323994010687" lon="10.789659004658461">
        <ele>1080.1800000000001</ele>
        <time>2018-09-17T08:30:40Z</time>
      </trkpt>
      <trkpt lat="47.420336985960603" lon="10.789776016026735">
        <ele>1079.7</ele>
        <time>2018-09-17T08:30:41Z</time>
      </trkpt>
      <trkpt lat="47.420327011495829" lon="10.789889004081488">
        <ele>1079.7</ele>
        <time>2018-09-17T08:30:42Z</time>
      </trkpt>
      <trkpt lat="47.420299015939236" lon="10.790106011554599">
        <ele>1079.7</ele>
        <time>2018-09-17T08:30:44Z</time>
      </trkpt>
      <trkpt lat="47.420282000675797" lon="10.790209025144577">
        <ele>1079.7</ele>
        <time>2018-09-17T08:30:45Z</time>
      </trkpt>
      <trkpt lat="47.420263979583979" lon="10.790318995714188">
        <ele>1079.7</ele>
        <time>2018-09-17T08:30:46Z</time>
      </trkpt>
      <trkpt lat="47.420245036482811" lon="10.790429972112179">
        <ele>1079.7</ele>
        <time>2018-09-17T08:30:47Z</time>
      </trkpt>
      <trkpt lat="47.420227015390992" lon="10.790541032329202">
        <ele>1079.7</ele>
        <time>2018-09-17T08:30:48Z</time>
      </trkpt>
      <trkpt lat="47.420207988470793" lon="10.790653014555573">
        <ele>1080.1800000000001</ele>
        <time>2018-09-17T08:30:49Z</time>
      </trkpt>
      <trkpt lat="47.420083014294505" lon="10.791020980104804">
        <ele>1079.7</ele>
        <time>2018-09-17T08:30:55Z</time>
      </trkpt>
      <trkpt lat="47.420027023181319" lon="10.791085017845035">
        <ele>1079.7</ele>
        <time>2018-09-17T08:30:56Z</time>
      </trkpt>
      <trkpt lat="47.419865000993013" lon="10.791274029761553">
        <ele>1078.74</ele>
        <time>2018-09-17T08:31:02Z</time>
      </trkpt>
      <trkpt lat="47.419848991557956" lon="10.79129297286272">
        <ele>1078.74</ele>
        <time>2018-09-17T08:31:03Z</time>
      </trkpt>
      <trkpt lat="47.419841028749943" lon="10.791302025318146">
        <ele>1078.74</ele>
        <time>2018-09-17T08:31:04Z</time>
      </trkpt>
      <trkpt lat="47.419825019314885" lon="10.791320968419313">
        <ele>1079.22</ele>
        <time>2018-09-17T08:31:05Z</time>
      </trkpt>
      <trkpt lat="47.419849997386336" lon="10.79129196703434">
        <ele>1079.22</ele>
        <time>2018-09-17T08:31:06Z</time>
      </trkpt>
      <trkpt lat="47.419861983507872" lon="10.791277969256043">
        <ele>1079.22</ele>
        <time>2018-09-17T08:31:07Z</time>
      </trkpt>
      <trkpt lat="47.419876987114549" lon="10.791261037811637">
        <ele>1079.22</ele>
        <time>2018-09-17T08:31:08Z</time>
      </trkpt>
      <trkpt lat="47.419894002377987" lon="10.791241005063057">
        <ele>1079.22</ele>
        <time>2018-09-17T08:31:09Z</time>
      </trkpt>
      <trkpt lat="47.41994496434927" lon="10.791181996464729">
        <ele>1078.74</ele>
        <time>2018-09-17T08:31:11Z</time>
      </trkpt>
      <trkpt lat="47.419980000704527" lon="10.79114000312984">
        <ele>1078.26</ele>
        <time>2018-09-17T08:31:12Z</time>
      </trkpt>
      <trkpt lat="47.420019982382655" lon="10.791093986481428">
        <ele>1078.26</ele>
        <time>2018-09-17T08:31:13Z</time>
      </trkpt>
      <trkpt lat="47.420055018737912" lon="10.791052998974919">
        <ele>1078.26</ele>
        <time>2018-09-17T08:31:14Z</time>
      </trkpt>
      <trkpt lat="47.420102041214705" lon="10.791059033945203">
        <ele>1077.78</ele>
        <time>2018-09-17T08:31:15Z</time>
      </trkpt>
      <trkpt lat="47.420124001801014" lon="10.791103960946202">
        <ele>1077.78</ele>
        <time>2018-09-17T08:31:16Z</time>
      </trkpt>
      <trkpt lat="47.420153003185987" lon="10.791161963716149">
        <ele>1077.78</ele>
        <time>2018-09-17T08:31:17Z</time>
      </trkpt>
      <trkpt lat="47.420186027884483" lon="10.79122700728476">
        <ele>1077.78</ele>
        <time>2018-09-17T08:31:18Z</time>
      </trkpt>
      <trkpt lat="47.420234978199005" lon="10.791298002004623">
        <ele>1077.29</ele>
        <time>2018-09-17T08:31:19Z</time>
      </trkpt>
      <trkpt lat="47.420356012880802" lon="10.791402021422982">
        <ele>1077.29</ele>
        <time>2018-09-17T08:31:21Z</time>
      </trkpt>
      <trkpt lat="47.420421978458762" lon="10.791458012536168">
        <ele>1077.29</ele>
        <time>2018-09-17T08:31:22Z</time>
      </trkpt>
      <trkpt lat="47.42048199288547" lon="10.791509980335832">
        <ele>1077.78</ele>
        <time>2018-09-17T08:31:23Z</time>
      </trkpt>
      <trkpt lat="47.420628005638719" lon="10.791721036657691">
        <ele>1078.26</ele>
        <time>2018-09-17T08:31:26Z</time>
      </trkpt>
      <trkpt lat="47.421033019199967" lon="10.792664000764489">
        <ele>1076.8099999999999</ele>
        <time>2018-09-17T08:31:36Z</time>
      </trkpt>
      <trkpt lat="47.421074006706476" lon="10.792760979384184">
        <ele>1076.8099999999999</ele>
        <time>2018-09-17T08:31:37Z</time>
      </trkpt>
      <trkpt lat="47.421113988384604" lon="10.792852006852627">
        <ele>1077.29</ele>
        <time>2018-09-17T08:31:38Z</time>
      </trkpt>
      <trkpt lat="47.421145001426339" lon="10.792921995744109">
        <ele>1077.29</ele>
        <time>2018-09-17T08:31:39Z</time>
      </trkpt>
      <trkpt lat="47.421136032789946" lon="10.793061973527074">
        <ele>1077.29</ele>
        <time>2018-09-17T08:31:40Z</time>
      </trkpt>
      <trkpt lat="47.42110401391983" lon="10.793114025145769">
        <ele>1077.29</ele>
        <time>2018-09-17T08:31:41Z</time>
      </trkpt>
      <trkpt lat="47.421064032241702" lon="10.793179990723729">
        <ele>1077.78</ele>
        <time>2018-09-17T08:31:42Z</time>
      </trkpt>
      <trkpt lat="47.421016003936529" lon="10.793260037899017">
        <ele>1077.78</ele>
        <time>2018-09-17T08:31:43Z</time>
      </trkpt>
      <trkpt lat="47.42095498368144" lon="10.793361039832234">
        <ele>1077.78</ele>
        <time>2018-09-17T08:31:44Z</time>
      </trkpt>
      <trkpt lat="47.420288035646081" lon="10.794457979500294">
        <ele>1076.8099999999999</ele>
        <time>2018-09-17T08:31:51Z</time>
      </trkpt>
      <trkpt lat="47.419128986075521" lon="10.796246007084846">
        <ele>1076.8099999999999</ele>
        <time>2018-09-17T08:32:01Z</time>
      </trkpt>
      <trkpt lat="47.418007990345359" lon="10.797808980569243">
        <ele>1075.3699999999999</ele>
        <time>2018-09-17T08:32:11Z</time>
      </trkpt>
      <trkpt lat="47.417565006762743" lon="10.798743981868029">
        <ele>1074.4100000000001</ele>
        <time>2018-09-17T08:32:16Z</time>
      </trkpt>
      <trkpt lat="47.417513960972428" lon="10.798898041248322">
        <ele>1073.9300000000001</ele>
        <time>2018-09-17T08:32:17Z</time>
      </trkpt>
      <trkpt lat="47.417470039799809" lon="10.799030978232622">
        <ele>1073.9300000000001</ele>
        <time>2018-09-17T08:32:18Z</time>
      </trkpt>
      <trkpt lat="47.417432991787791" lon="10.799142038449645">
        <ele>1073.9300000000001</ele>
        <time>2018-09-17T08:32:19Z</time>
      </trkpt>
      <trkpt lat="47.417400972917676" lon="10.799237005412579">
        <ele>1073.45</ele>
        <time>2018-09-17T08:32:20Z</time>
      </trkpt>
      <trkpt lat="47.417371971532702" lon="10.799324009567499">
        <ele>1073.45</ele>
        <time>2018-09-17T08:32:21Z</time>
      </trkpt>
      <trkpt lat="47.417346993461251" lon="10.799398021772504">
        <ele>1073.45</ele>
        <time>2018-09-17T08:32:22Z</time>
      </trkpt>
      <trkpt lat="47.417328972369432" lon="10.799453007057309">
        <ele>1072.97</ele>
        <time>2018-09-17T08:32:23Z</time>
      </trkpt>
      <trkpt lat="47.417318997904658" lon="10.799484020099044">
        <ele>1072.97</ele>
        <time>2018-09-17T08:32:24Z</time>
      </trkpt>
      <trkpt lat="47.417293014004827" lon="10.799560965970159">
        <ele>1072.97</ele>
        <time>2018-09-17T08:32:25Z</time>
      </trkpt>
      <trkpt lat="47.417293014004827" lon="10.799560965970159">
        <ele>1072.49</ele>
        <time>2018-09-17T08:32:26Z</time>
      </trkpt>
      <trkpt lat="47.417286979034543" lon="10.799553003162146">
        <ele>1072.49</ele>
        <time>2018-09-17T08:32:27Z</time>
      </trkpt>
      <trkpt lat="47.417286979034543" lon="10.799553003162146">
        <ele>1072.49</ele>
        <time>2018-09-17T08:32:39Z</time>
      </trkpt>
      <trkpt lat="47.417293014004827" lon="10.799560965970159">
        <ele>1072.97</ele>
        <time>2018-09-17T08:33:02Z</time>
      </trkpt>
      <trkpt lat="47.417277004569769" lon="10.79962701536715">
        <ele>1073.45</ele>
        <time>2018-09-17T08:33:03Z</time>
      </trkpt>
      <trkpt lat="47.417249009013176" lon="10.799747966229916">
        <ele>1072.97</ele>
        <time>2018-09-17T08:33:04Z</time>
      </trkpt>
      <trkpt lat="47.417213972657919" lon="10.799896996468306">
        <ele>1072.97</ele>
        <time>2018-09-17T08:33:05Z</time>
      </trkpt>
      <trkpt lat="47.41717298515141" lon="10.800069998949766">
        <ele>1072.97</ele>
        <time>2018-09-17T08:33:06Z</time>
      </trkpt>
      <trkpt lat="47.417126968502998" lon="10.800268985331059">
        <ele>1072.97</ele>
        <time>2018-09-17T08:33:07Z</time>
      </trkpt>
      <trkpt lat="47.41699998266995" lon="10.801879987120628">
        <ele>1073.45</ele>
        <time>2018-09-17T08:33:13Z</time>
      </trkpt>
      <trkpt lat="47.417308017611504" lon="10.803812015801668">
        <ele>1077.78</ele>
        <time>2018-09-17T08:33:19Z</time>
      </trkpt>
      <trkpt lat="47.417785031720996" lon="10.806066999211907">
        <ele>1085.47</ele>
        <time>2018-09-17T08:33:25Z</time>
      </trkpt>
      <trkpt lat="47.417973037809134" lon="10.807788977399468">
        <ele>1092.2</ele>
        <time>2018-09-17T08:33:31Z</time>
      </trkpt>
      <trkpt lat="47.417960967868567" lon="10.809942036867142">
        <ele>1095.0799999999999</ele>
        <time>2018-09-17T08:33:39Z</time>
      </trkpt>
      <trkpt lat="47.417794000357389" lon="10.813059015199542">
        <ele>1091.23</ele>
        <time>2018-09-17T08:33:49Z</time>
      </trkpt>
      <trkpt lat="47.418002039194107" lon="10.815522959455848">
        <ele>1084.5</ele>
        <time>2018-09-17T08:33:57Z</time>
      </trkpt>
      <trkpt lat="47.418511994183064" lon="10.819421969354153">
        <ele>1078.26</ele>
        <time>2018-09-17T08:34:10Z</time>
      </trkpt>
      <trkpt lat="47.418422978371382" lon="10.822149021551013">
        <ele>1079.7</ele>
        <time>2018-09-17T08:34:19Z</time>
      </trkpt>
      <trkpt lat="47.418266991153359" lon="10.826021041721106">
        <ele>1085.95</ele>
        <time>2018-09-17T08:34:31Z</time>
      </trkpt>
      <trkpt lat="47.418206976726651" lon="10.828513987362385">
        <ele>1093.6400000000001</ele>
        <time>2018-09-17T08:34:39Z</time>
      </trkpt>
      <trkpt lat="47.418001033365726" lon="10.831082034856081">
        <ele>1100.8499999999999</ele>
        <time>2018-09-17T08:34:46Z</time>
      </trkpt>
      <trkpt lat="47.417873041704297" lon="10.83383297547698">
        <ele>1106.6099999999999</ele>
        <time>2018-09-17T08:34:53Z</time>
      </trkpt>
      <trkpt lat="47.417934983968735" lon="10.836362969130278">
        <ele>1110.9400000000001</ele>
        <time>2018-09-17T08:35:00Z</time>
      </trkpt>
      <trkpt lat="47.417882010340691" lon="10.839558988809586">
        <ele>1109.98</ele>
        <time>2018-09-17T08:35:11Z</time>
      </trkpt>
      <trkpt lat="47.417680006474257" lon="10.841728979721665">
        <ele>1106.1300000000001</ele>
        <time>2018-09-17T08:35:19Z</time>
      </trkpt>
      <trkpt lat="47.417369037866592" lon="10.843497980386019">
        <ele>1101.8099999999999</ele>
        <time>2018-09-17T08:35:27Z</time>
      </trkpt>
      <trkpt lat="47.416856987401843" lon="10.845254994928837">
        <ele>1097</ele>
        <time>2018-09-17T08:35:36Z</time>
      </trkpt>
      <trkpt lat="47.416703011840582" lon="10.846083965152502">
        <ele>1093.1600000000001</ele>
        <time>2018-09-17T08:35:40Z</time>
      </trkpt>
      <trkpt lat="47.416659006848931" lon="10.846288986504078">
        <ele>1092.2</ele>
        <time>2018-09-17T08:35:41Z</time>
      </trkpt>
      <trkpt lat="47.4166139960289" lon="10.846505993977189">
        <ele>1091.71</ele>
        <time>2018-09-17T08:35:42Z</time>
      </trkpt>
      <trkpt lat="47.416564961895347" lon="10.846735993400216">
        <ele>1090.75</ele>
        <time>2018-09-17T08:35:43Z</time>
      </trkpt>
      <trkpt lat="47.416516011580825" lon="10.846969010308385">
        <ele>1089.3099999999999</ele>
        <time>2018-09-17T08:35:44Z</time>
      </trkpt>
      <trkpt lat="47.416422972455621" lon="10.847200015559793">
        <ele>1088.3499999999999</ele>
        <time>2018-09-17T08:35:45Z</time>
      </trkpt>
      <trkpt lat="47.415591990575194" lon="10.849249977618456">
        <ele>1076.8099999999999</ele>
        <time>2018-09-17T08:35:54Z</time>
      </trkpt>
      <trkpt lat="47.415161998942494" lon="10.851725991815329">
        <ele>1063.3599999999999</ele>
        <time>2018-09-17T08:36:03Z</time>
      </trkpt>
      <trkpt lat="47.414881037548184" lon="10.853183018043637">
        <ele>1057.1099999999999</ele>
        <time>2018-09-17T08:36:08Z</time>
      </trkpt>
      <trkpt lat="47.414488010108471" lon="10.853990027680993">
        <ele>1054.22</ele>
        <time>2018-09-17T08:36:11Z</time>
      </trkpt>
      <trkpt lat="47.41433403454721" lon="10.854246011003852">
        <ele>1053.26</ele>
        <time>2018-09-17T08:36:12Z</time>
      </trkpt>
      <trkpt lat="47.414163965731859" lon="10.854469975456595">
        <ele>1052.78</ele>
        <time>2018-09-17T08:36:13Z</time>
      </trkpt>
      <trkpt lat="47.413995992392302" lon="10.854691006243229">
        <ele>1051.8199999999999</ele>
        <time>2018-09-17T08:36:14Z</time>
      </trkpt>
      <trkpt lat="47.413817038759589" lon="10.854895021766424">
        <ele>1051.8199999999999</ele>
        <time>2018-09-17T08:36:15Z</time>
      </trkpt>
      <trkpt lat="47.413642024621367" lon="10.855089984834194">
        <ele>1051.3399999999999</ele>
        <time>2018-09-17T08:36:16Z</time>
      </trkpt>
      <trkpt lat="47.413494000211358" lon="10.855309003964067">
        <ele>1051.3399999999999</ele>
        <time>2018-09-17T08:36:17Z</time>
      </trkpt>
      <trkpt lat="47.413353016600013" lon="10.855556018650532">
        <ele>1051.3399999999999</ele>
        <time>2018-09-17T08:36:18Z</time>
      </trkpt>
      <trkpt lat="47.413210021331906" lon="10.855805967003107">
        <ele>1051.3399999999999</ele>
        <time>2018-09-17T08:36:19Z</time>
      </trkpt>
      <trkpt lat="47.413095021620393" lon="10.856069996953011">
        <ele>1050.8599999999999</ele>
        <time>2018-09-17T08:36:20Z</time>
      </trkpt>
      <trkpt lat="47.412994019687176" lon="10.856357999145985">
        <ele>1050.8599999999999</ele>
        <time>2018-09-17T08:36:21Z</time>
      </trkpt>
      <trkpt lat="47.412894023582339" lon="10.856640972197056">
        <ele>1050.3800000000001</ele>
        <time>2018-09-17T08:36:22Z</time>
      </trkpt>
      <trkpt lat="47.412810958921909" lon="10.856924029067159">
        <ele>1050.3800000000001</ele>
        <time>2018-09-17T08:36:23Z</time>
      </trkpt>
      <trkpt lat="47.411973020061851" lon="10.859492998570204">
        <ele>1047.97</ele>
        <time>2018-09-17T08:36:33Z</time>
      </trkpt>
      <trkpt lat="47.411326020956039" lon="10.861318996176124">
        <ele>1043.6500000000001</ele>
        <time>2018-09-17T08:36:41Z</time>
      </trkpt>
      <trkpt lat="47.411219989880919" lon="10.861499039456248">
        <ele>1043.1700000000001</ele>
        <time>2018-09-17T08:36:42Z</time>
      </trkpt>
      <trkpt lat="47.410158002749085" lon="10.862633027136326">
        <ele>1038.3599999999999</ele>
        <time>2018-09-17T08:36:50Z</time>
      </trkpt>
      <trkpt lat="47.408881019800901" lon="10.86401604115963">
        <ele>1035.48</ele>
        <time>2018-09-17T08:36:59Z</time>
      </trkpt>
      <trkpt lat="47.407513009384274" lon="10.865904986858368">
        <ele>1029.23</ele>
        <time>2018-09-17T08:37:08Z</time>
      </trkpt>
      <trkpt lat="47.405979037284851" lon="10.868238005787134">
        <ele>1022.98</ele>
        <time>2018-09-17T08:37:19Z</time>
      </trkpt>
      <trkpt lat="47.404441963881254" lon="10.870557026937604">
        <ele>1022.5</ele>
        <time>2018-09-17T08:37:32Z</time>
      </trkpt>
      <trkpt lat="47.397248027846217" lon="10.874776979908347">
        <ele>1022.02</ele>
        <time>2018-09-17T08:38:06Z</time>
      </trkpt>
      <trkpt lat="47.379105985164642" lon="10.882841963320971">
        <ele>1022.02</ele>
        <time>2018-09-17T08:39:28Z</time>
      </trkpt>
      <trkpt lat="47.37796101719141" lon="10.883060982450843">
        <ele>1022.02</ele>
        <time>2018-09-17T08:39:33Z</time>
      </trkpt>
      <trkpt lat="47.376806996762753" lon="10.883065005764365">
        <ele>1022.02</ele>
        <time>2018-09-17T08:39:38Z</time>
      </trkpt>
      <trkpt lat="47.37521099857986" lon="10.882702991366386">
        <ele>1022.02</ele>
        <time>2018-09-17T08:39:45Z</time>
      </trkpt>
      <trkpt lat="47.374107018113136" lon="10.882204016670585">
        <ele>1022.02</ele>
        <time>2018-09-17T08:39:50Z</time>
      </trkpt>
      <trkpt lat="47.373061962425709" lon="10.881477976217866">
        <ele>1022.02</ele>
        <time>2018-09-17T08:39:55Z</time>
      </trkpt>
      <trkpt lat="47.371890004724264" lon="10.880400985479355">
        <ele>1022.02</ele>
        <time>2018-09-17T08:40:01Z</time>
      </trkpt>
      <trkpt lat="47.371049970388412" lon="10.879240008071065">
        <ele>1022.02</ele>
        <time>2018-09-17T08:40:06Z</time>
      </trkpt>
      <trkpt lat="47.370482012629509" lon="10.878167962655425">
        <ele>1022.02</ele>
        <time>2018-09-17T08:40:10Z</time>
      </trkpt>
      <trkpt lat="47.373468987643719" lon="10.881792968139052">
        <ele>1041.73</ele>
        <time>2018-09-17T08:40:34Z</time>
      </trkpt>
      <trkpt lat="47.371679032221437" lon="10.880135027691722">
        <ele>1051.3399999999999</ele>
        <time>2018-09-17T08:40:44Z</time>
      </trkpt>
      <trkpt lat="47.370430966839194" lon="10.878053968772292">
        <ele>1061.9100000000001</ele>
        <time>2018-09-17T08:40:53Z</time>
      </trkpt>
      <trkpt lat="47.369469981640577" lon="10.875449040904641">
        <ele>1074.4100000000001</ele>
        <time>2018-09-17T08:41:02Z</time>
      </trkpt>
      <trkpt lat="47.368478989228606" lon="10.873609967529774">
        <ele>1082.0999999999999</ele>
        <time>2018-09-17T08:41:08Z</time>
      </trkpt>
      <trkpt lat="47.367343995720148" lon="10.872270036488771">
        <ele>1090.27</ele>
        <time>2018-09-17T08:41:14Z</time>
      </trkpt>
      <trkpt lat="47.366554001346231" lon="10.87173200212419">
        <ele>1095.5599999999999</ele>
        <time>2018-09-17T08:41:18Z</time>
      </trkpt>
      <trkpt lat="47.366348979994655" lon="10.871690008789301">
        <ele>1096.52</ele>
        <time>2018-09-17T08:41:19Z</time>
      </trkpt>
      <trkpt lat="47.366143958643079" lon="10.871671987697482">
        <ele>1097.48</ele>
        <time>2018-09-17T08:41:20Z</time>
      </trkpt>
      <trkpt lat="47.365149026736617" lon="10.8714310079813">
        <ele>1100.3699999999999</ele>
        <time>2018-09-17T08:41:25Z</time>
      </trkpt>
      <trkpt lat="47.364970995113254" lon="10.871279966086149">
        <ele>1100.8499999999999</ele>
        <time>2018-09-17T08:41:26Z</time>
      </trkpt>
      <trkpt lat="47.364794975146651" lon="10.871094977483153">
        <ele>1101.3299999999999</ele>
        <time>2018-09-17T08:41:27Z</time>
      </trkpt>
      <trkpt lat="47.363797025755048" lon="10.869621019810438">
        <ele>1106.1300000000001</ele>
        <time>2018-09-17T08:41:33Z</time>
      </trkpt>
      <trkpt lat="47.363624023273587" lon="10.869328994303942">
        <ele>1107.0999999999999</ele>
        <time>2018-09-17T08:41:34Z</time>
      </trkpt>
      <trkpt lat="47.363169975578785" lon="10.868514021858573">
        <ele>1110.46</ele>
        <time>2018-09-17T08:41:37Z</time>
      </trkpt>
      <trkpt lat="47.36304902471602" lon="10.868244962766767">
        <ele>1111.4200000000001</ele>
        <time>2018-09-17T08:41:38Z</time>
      </trkpt>
      <trkpt lat="47.362949028611183" lon="10.867953021079302">
        <ele>1111.9000000000001</ele>
        <time>2018-09-17T08:41:39Z</time>
      </trkpt>
      <trkpt lat="47.362907035276294" lon="10.867634005844593">
        <ele>1112.8599999999999</ele>
        <time>2018-09-17T08:41:40Z</time>
      </trkpt>
      <trkpt lat="47.362865963950753" lon="10.867318008095026">
        <ele>1113.3399999999999</ele>
        <time>2018-09-17T08:41:41Z</time>
      </trkpt>
      <trkpt lat="47.362825982272625" lon="10.867015002295375">
        <ele>1114.3099999999999</ele>
        <time>2018-09-17T08:41:42Z</time>
      </trkpt>
      <trkpt lat="47.362782983109355" lon="10.866719959303737">
        <ele>1115.27</ele>
        <time>2018-09-17T08:41:43Z</time>
      </trkpt>
      <trkpt lat="47.362696984782815" lon="10.866437992081046">
        <ele>1115.75</ele>
        <time>2018-09-17T08:41:44Z</time>
      </trkpt>
      <trkpt lat="47.362588020041585" lon="10.866162981837988">
        <ele>1116.71</ele>
        <time>2018-09-17T08:41:45Z</time>
      </trkpt>
      <trkpt lat="47.362448964267969" lon="10.865912027657032">
        <ele>1118.1500000000001</ele>
        <time>2018-09-17T08:41:46Z</time>
      </trkpt>
      <trkpt lat="47.361875977367163" lon="10.864373026415706">
        <ele>1126.8</ele>
        <time>2018-09-17T08:41:52Z</time>
      </trkpt>
      <trkpt lat="47.361607002094388" lon="10.863340962678194">
        <ele>1131.6099999999999</ele>
        <time>2018-09-17T08:41:58Z</time>
      </trkpt>
      <trkpt lat="47.361380020156503" lon="10.862763030454516">
        <ele>1133.53</ele>
        <time>2018-09-17T08:42:02Z</time>
      </trkpt>
      <trkpt lat="47.361298967152834" lon="10.862626992166042">
        <ele>1134.49</ele>
        <time>2018-09-17T08:42:03Z</time>
      </trkpt>
      <trkpt lat="47.361211962997913" lon="10.862482991069555">
        <ele>1134.97</ele>
        <time>2018-09-17T08:42:04Z</time>
      </trkpt>
      <trkpt lat="47.360835028812289" lon="10.861855018883944">
        <ele>1136.4200000000001</ele>
        <time>2018-09-17T08:42:08Z</time>
      </trkpt>
      <trkpt lat="47.36073100939393" lon="10.861681010574102">
        <ele>1136.4200000000001</ele>
        <time>2018-09-17T08:42:09Z</time>
      </trkpt>
      <trkpt lat="47.36066797748208" lon="10.861466014757752">
        <ele>1136.4200000000001</ele>
        <time>2018-09-17T08:42:10Z</time>
      </trkpt>
      <trkpt lat="47.360603017732501" lon="10.861243978142738">
        <ele>1136.9000000000001</ele>
        <time>2018-09-17T08:42:11Z</time>
      </trkpt>
      <trkpt lat="47.360564963892102" lon="10.861022025346756">
        <ele>1136.9000000000001</ele>
        <time>2018-09-17T08:42:12Z</time>
      </trkpt>
      <trkpt lat="47.36053897999227" lon="10.86079303175211">
        <ele>1136.9000000000001</ele>
        <time>2018-09-17T08:42:13Z</time>
      </trkpt>
      <trkpt lat="47.36051601357758" lon="10.860585998743773">
        <ele>1137.3800000000001</ele>
        <time>2018-09-17T08:42:14Z</time>
      </trkpt>
      <trkpt lat="47.360549038276076" lon="10.860391035676003">
        <ele>1137.8599999999999</ele>
        <time>2018-09-17T08:42:15Z</time>
      </trkpt>
      <trkpt lat="47.36058197915554" lon="10.86019397713244">
        <ele>1138.3399999999999</ele>
        <time>2018-09-17T08:42:16Z</time>
      </trkpt>
      <trkpt lat="47.360615003854036" lon="10.859992979094386">
        <ele>1138.8199999999999</ele>
        <time>2018-09-17T08:42:17Z</time>
      </trkpt>
      <trkpt lat="47.36075296998024" lon="10.859152022749186">
        <ele>1141.22</ele>
        <time>2018-09-17T08:42:21Z</time>
      </trkpt>
      <trkpt lat="47.360761016607285" lon="10.85892797447741">
        <ele>1141.7</ele>
        <time>2018-09-17T08:42:22Z</time>
      </trkpt>
      <trkpt lat="47.360769985243678" lon="10.858695041388273">
        <ele>1142.1800000000001</ele>
        <time>2018-09-17T08:42:23Z</time>
      </trkpt>
      <trkpt lat="47.360756993293762" lon="10.858459006994963">
        <ele>1142.6600000000001</ele>
        <time>2018-09-17T08:42:24Z</time>
      </trkpt>
      <trkpt lat="47.360726986080408" lon="10.858224984258413">
        <ele>1143.1400000000001</ele>
        <time>2018-09-17T08:42:25Z</time>
      </trkpt>
      <trkpt lat="47.360524982213974" lon="10.856889998540282">
        <ele>1146.03</ele>
        <time>2018-09-17T08:42:31Z</time>
      </trkpt>
      <trkpt lat="47.360464967787266" lon="10.856696041300893">
        <ele>1146.51</ele>
        <time>2018-09-17T08:42:32Z</time>
      </trkpt>
      <trkpt lat="47.360405037179589" lon="10.856499988585711">
        <ele>1146.99</ele>
        <time>2018-09-17T08:42:33Z</time>
      </trkpt>
      <trkpt lat="47.360321972519159" lon="10.856323968619108">
        <ele>1146.99</ele>
        <time>2018-09-17T08:42:34Z</time>
      </trkpt>
      <trkpt lat="47.36023798584938" lon="10.856168987229466">
        <ele>1146.99</ele>
        <time>2018-09-17T08:42:35Z</time>
      </trkpt>
      <trkpt lat="47.360165985301137" lon="10.856034960597754">
        <ele>1146.99</ele>
        <time>2018-09-17T08:42:36Z</time>
      </trkpt>
      <trkpt lat="47.359727025032043" lon="10.855055032297969">
        <ele>1147.95</ele>
        <time>2018-09-17T08:42:45Z</time>
      </trkpt>
      <trkpt lat="47.359691988676786" lon="10.854964004829526">
        <ele>1148.4300000000001</ele>
        <time>2018-09-17T08:42:46Z</time>
      </trkpt>
      <trkpt lat="47.359657036140561" lon="10.854874989017844">
        <ele>1148.4300000000001</ele>
        <time>2018-09-17T08:42:47Z</time>
      </trkpt>
      <trkpt lat="47.359624011442065" lon="10.854789996519685">
        <ele>1148.9100000000001</ele>
        <time>2018-09-17T08:42:48Z</time>
      </trkpt>
      <trkpt lat="47.359477998688817" lon="10.854472992941737">
        <ele>1149.8699999999999</ele>
        <time>2018-09-17T08:42:52Z</time>
      </trkpt>
      <trkpt lat="47.359433993697166" lon="10.854395041242242">
        <ele>1149.8699999999999</ele>
        <time>2018-09-17T08:42:53Z</time>
      </trkpt>
      <trkpt lat="47.359379008412361" lon="10.854298984631896">
        <ele>1150.3499999999999</ele>
        <time>2018-09-17T08:42:54Z</time>
      </trkpt>
      <trkpt lat="47.359308013692498" lon="10.854281969368458">
        <ele>1150.8399999999999</ele>
        <time>2018-09-17T08:42:55Z</time>
      </trkpt>
      <trkpt lat="47.359229978173971" lon="10.854313988238573">
        <ele>1150.8399999999999</ele>
        <time>2018-09-17T08:42:56Z</time>
      </trkpt>
      <trkpt lat="47.359142974019051" lon="10.854364028200507">
        <ele>1150.3499999999999</ele>
        <time>2018-09-17T08:42:57Z</time>
      </trkpt>
      <trkpt lat="47.359082959592342" lon="10.854441979900002">
        <ele>1150.3499999999999</ele>
        <time>2018-09-17T08:42:58Z</time>
      </trkpt>
      <trkpt lat="47.359009031206369" lon="10.854537030681968">
        <ele>1150.3499999999999</ele>
        <time>2018-09-17T08:42:59Z</time>
      </trkpt>
      <trkpt lat="47.358847009018064" lon="10.854746997356415">
        <ele>1149.8699999999999</ele>
        <time>2018-09-17T08:43:01Z</time>
      </trkpt>
      <trkpt lat="47.3586689773947" lon="10.854976996779442">
        <ele>1148.9100000000001</ele>
        <time>2018-09-17T08:43:03Z</time>
      </trkpt>
      <trkpt lat="47.358583984896541" lon="10.855087973177433">
        <ele>1148.4300000000001</ele>
        <time>2018-09-17T08:43:04Z</time>
      </trkpt>
      <trkpt lat="47.358470996841788" lon="10.855142036452889">
        <ele>1148.4300000000001</ele>
        <time>2018-09-17T08:43:05Z</time>
      </trkpt>
      <trkpt lat="47.358363037928939" lon="10.855172965675592">
        <ele>1147.95</ele>
        <time>2018-09-17T08:43:06Z</time>
      </trkpt>
      <trkpt lat="47.358258012682199" lon="10.855203978717327">
        <ele>1147.47</ele>
        <time>2018-09-17T08:43:07Z</time>
      </trkpt>
      <trkpt lat="47.358149969950318" lon="10.855201967060566">
        <ele>1147.47</ele>
        <time>2018-09-17T08:43:08Z</time>
      </trkpt>
      <trkpt lat="47.358045028522611" lon="10.855158967897296">
        <ele>1146.99</ele>
        <time>2018-09-17T08:43:09Z</time>
      </trkpt>
      <trkpt lat="47.35793698579073" lon="10.855114040896297">
        <ele>1146.51</ele>
        <time>2018-09-17T08:43:10Z</time>
      </trkpt>
      <trkpt lat="47.357825003564358" lon="10.855066012591124">
        <ele>1146.03</ele>
        <time>2018-09-17T08:43:11Z</time>
      </trkpt>
      <trkpt lat="47.357717966660857" lon="10.854995017871261">
        <ele>1145.55</ele>
        <time>2018-09-17T08:43:12Z</time>
      </trkpt>
      <trkpt lat="47.357513029128313" lon="10.854857973754406">
        <ele>1145.0699999999999</ele>
        <time>2018-09-17T08:43:14Z</time>
      </trkpt>
      <trkpt lat="47.35740096308291" lon="10.854828972369432">
        <ele>1144.5899999999999</ele>
        <time>2018-09-17T08:43:15Z</time>
      </trkpt>
      <trkpt lat="47.357298033311963" lon="10.854834001511335">
        <ele>1144.1099999999999</ele>
        <time>2018-09-17T08:43:16Z</time>
      </trkpt>
      <trkpt lat="47.357198037207127" lon="10.854879012331367">
        <ele>1143.6300000000001</ele>
        <time>2018-09-17T08:43:17Z</time>
      </trkpt>
      <trkpt lat="47.35709804110229" lon="10.854926034808159">
        <ele>1143.1400000000001</ele>
        <time>2018-09-17T08:43:18Z</time>
      </trkpt>
      <trkpt lat="47.356999972835183" lon="10.854998035356402">
        <ele>1143.1400000000001</ele>
        <time>2018-09-17T08:43:19Z</time>
      </trkpt>
      <trkpt lat="47.356801992282271" lon="10.855142958462238">
        <ele>1142.1800000000001</ele>
        <time>2018-09-17T08:43:21Z</time>
      </trkpt>
      <trkpt lat="47.356683975085616" lon="10.855144970118999">
        <ele>1141.7</ele>
        <time>2018-09-17T08:43:22Z</time>
      </trkpt>
      <trkpt lat="47.356575010344386" lon="10.855131978169084">
        <ele>1141.7</ele>
        <time>2018-09-17T08:43:23Z</time>
      </trkpt>
      <trkpt lat="47.356471996754408" lon="10.855118986219168">
        <ele>1141.22</ele>
        <time>2018-09-17T08:43:24Z</time>
      </trkpt>
      <trkpt lat="47.356383986771107" lon="10.85505997762084">
        <ele>1141.22</ele>
        <time>2018-09-17T08:43:25Z</time>
      </trkpt>
      <trkpt lat="47.356298994272947" lon="10.854974985122681">
        <ele>1140.74</ele>
        <time>2018-09-17T08:43:26Z</time>
      </trkpt>
      <trkpt lat="47.356220036745071" lon="10.854884963482618">
        <ele>1140.74</ele>
        <time>2018-09-17T08:43:27Z</time>
      </trkpt>
      <trkpt lat="47.356181982904673" lon="10.854750014841557">
        <ele>1140.74</ele>
        <time>2018-09-17T08:43:28Z</time>
      </trkpt>
      <trkpt lat="47.356166979297996" lon="10.854593021795154">
        <ele>1140.74</ele>
        <time>2018-09-17T08:43:29Z</time>
      </trkpt>
      <trkpt lat="47.356150969862938" lon="10.854420019313693">
        <ele>1141.22</ele>
        <time>2018-09-17T08:43:30Z</time>
      </trkpt>
      <trkpt lat="47.35613202676177" lon="10.854217009618878">
        <ele>1141.22</ele>
        <time>2018-09-17T08:43:31Z</time>
      </trkpt>
      <trkpt lat="47.356108976528049" lon="10.85396496579051">
        <ele>1142.1800000000001</ele>
        <time>2018-09-17T08:43:32Z</time>
      </trkpt>
      <trkpt lat="47.356101013720036" lon="10.853695990517735">
        <ele>1143.1400000000001</ele>
        <time>2018-09-17T08:43:33Z</time>
      </trkpt>
      <trkpt lat="47.35613202676177" lon="10.853182012215257">
        <ele>1145.0699999999999</ele>
        <time>2018-09-17T08:43:35Z</time>
      </trkpt>
      <trkpt lat="47.356205033138394" lon="10.852969028055668">
        <ele>1146.03</ele>
        <time>2018-09-17T08:43:36Z</time>
      </trkpt>
      <trkpt lat="47.356275022029877" lon="10.852765012532473">
        <ele>1147.47</ele>
        <time>2018-09-17T08:43:37Z</time>
      </trkpt>
      <trkpt lat="47.356845997273922" lon="10.851610992103815">
        <ele>1153.24</ele>
        <time>2018-09-17T08:43:44Z</time>
      </trkpt>
      <trkpt lat="47.357232989743352" lon="10.851034987717867">
        <ele>1157.5599999999999</ele>
        <time>2018-09-17T08:43:49Z</time>
      </trkpt>
      <trkpt lat="47.357732970267534" lon="10.850129993632436">
        <ele>1164.77</ele>
        <time>2018-09-17T08:43:58Z</time>
      </trkpt>
      <trkpt lat="47.358248038217425" lon="10.849122991785407">
        <ele>1170.0599999999999</ele>
        <time>2018-09-17T08:44:06Z</time>
      </trkpt>
      <trkpt lat="47.35828198492527" lon="10.848987959325314">
        <ele>1170.54</ele>
        <time>2018-09-17T08:44:07Z</time>
      </trkpt>
      <trkpt lat="47.358318027108908" lon="10.848844964057207">
        <ele>1170.54</ele>
        <time>2018-09-17T08:44:08Z</time>
      </trkpt>
      <trkpt lat="47.358330013230443" lon="10.848689982667565">
        <ele>1171.02</ele>
        <time>2018-09-17T08:44:09Z</time>
      </trkpt>
      <trkpt lat="47.358334036543965" lon="10.84852896630764">
        <ele>1171.5</ele>
        <time>2018-09-17T08:44:10Z</time>
      </trkpt>
      <trkpt lat="47.358421040698886" lon="10.847569992765784">
        <ele>1172.95</ele>
        <time>2018-09-17T08:44:16Z</time>
      </trkpt>
      <trkpt lat="47.358464961871505" lon="10.8474310208112">
        <ele>1173.4300000000001</ele>
        <time>2018-09-17T08:44:17Z</time>
      </trkpt>
      <trkpt lat="47.358528999611735" lon="10.847295988351107">
        <ele>1173.4300000000001</ele>
        <time>2018-09-17T08:44:18Z</time>
      </trkpt>
      <trkpt lat="47.358751036226749" lon="10.846827020868659">
        <ele>1172.95</ele>
        <time>2018-09-17T08:44:21Z</time>
      </trkpt>
      <trkpt lat="47.358867041766644" lon="10.846628034487367">
        <ele>1173.4300000000001</ele>
        <time>2018-09-17T08:44:22Z</time>
      </trkpt>
      <trkpt lat="47.359384959563613" lon="10.845827981829643">
        <ele>1176.3099999999999</ele>
        <time>2018-09-17T08:44:27Z</time>
      </trkpt>
      <trkpt lat="47.359856022521853" lon="10.845297994092107">
        <ele>1178.23</ele>
        <time>2018-09-17T08:44:34Z</time>
      </trkpt>
      <trkpt lat="47.360611986368895" lon="10.844928016886115">
        <ele>1180.1600000000001</ele>
        <time>2018-09-17T08:44:43Z</time>
      </trkpt>
      <trkpt lat="47.36098799854517" lon="10.844750991091132">
        <ele>1183.04</ele>
        <time>2018-09-17T08:44:51Z</time>
      </trkpt>
      <trkpt lat="47.36098799854517" lon="10.844750991091132">
        <ele>1187.3699999999999</ele>
        <time>2018-09-17T08:45:04Z</time>
      </trkpt>
      <trkpt lat="47.36098799854517" lon="10.844750991091132">
        <ele>1187.8499999999999</ele>
        <time>2018-09-17T08:45:30Z</time>
      </trkpt>
      <trkpt lat="47.3612040001899" lon="10.844726013019681">
        <ele>1190.25</ele>
        <time>2018-09-17T08:46:12Z</time>
      </trkpt>
      <trkpt lat="47.361373985186219" lon="10.844705980271101">
        <ele>1192.6500000000001</ele>
        <time>2018-09-17T08:46:15Z</time>
      </trkpt>
      <trkpt lat="47.361475992947817" lon="10.844693994149566">
        <ele>1194.0899999999999</ele>
        <time>2018-09-17T08:46:17Z</time>
      </trkpt>
      <trkpt lat="47.361514968797565" lon="10.844689970836043">
        <ele>1194.0899999999999</ele>
        <time>2018-09-17T08:46:18Z</time>
      </trkpt>
      <trkpt lat="47.361550005152822" lon="10.844678990542889">
        <ele>1194.5799999999999</ele>
        <time>2018-09-17T08:46:19Z</time>
      </trkpt>
      <trkpt lat="47.361566014587879" lon="10.844650994986296">
        <ele>1195.0599999999999</ele>
        <time>2018-09-17T08:46:20Z</time>
      </trkpt>
      <trkpt lat="47.361588981002569" lon="10.844607995823026">
        <ele>1194.5799999999999</ele>
        <time>2018-09-17T08:46:21Z</time>
      </trkpt>
      <trkpt lat="47.361620999872684" lon="10.84455200470984">
        <ele>1194.0899999999999</ele>
        <time>2018-09-17T08:46:22Z</time>
      </trkpt>
      <trkpt lat="47.3616530187428" lon="10.844492996111512">
        <ele>1194.0899999999999</ele>
        <time>2018-09-17T08:46:23Z</time>
      </trkpt>
      <trkpt lat="47.361640026792884" lon="10.844382019713521">
        <ele>1193.6099999999999</ele>
        <time>2018-09-17T08:46:24Z</time>
      </trkpt>
      <trkpt lat="47.361628040671349" lon="10.84427498281002">
        <ele>1193.6099999999999</ele>
        <time>2018-09-17T08:46:25Z</time>
      </trkpt>
      <trkpt lat="47.36161395907402" lon="10.844155037775636">
        <ele>1193.1300000000001</ele>
        <time>2018-09-17T08:46:26Z</time>
      </trkpt>
      <trkpt lat="47.361556962132454" lon="10.844056969508529">
        <ele>1193.1300000000001</ele>
        <time>2018-09-17T08:46:27Z</time>
      </trkpt>
      <trkpt lat="47.361495019868016" lon="10.843974994495511">
        <ele>1193.1300000000001</ele>
        <time>2018-09-17T08:46:28Z</time>
      </trkpt>
      <trkpt lat="47.36144196242094" lon="10.843903999775648">
        <ele>1193.1300000000001</ele>
        <time>2018-09-17T08:46:29Z</time>
      </trkpt>
      <trkpt lat="47.361358981579542" lon="10.843793023377657">
        <ele>1193.1300000000001</ele>
        <time>2018-09-17T08:46:31Z</time>
      </trkpt>
      <trkpt lat="47.361291004344821" lon="10.843652961775661">
        <ele>1193.1300000000001</ele>
        <time>2018-09-17T08:46:32Z</time>
      </trkpt>
      <trkpt lat="47.361298967152834" lon="10.843532010912895">
        <ele>1193.1300000000001</ele>
        <time>2018-09-17T08:46:33Z</time>
      </trkpt>
      <trkpt lat="47.361308019608259" lon="10.84339102730155">
        <ele>1193.6099999999999</ele>
        <time>2018-09-17T08:46:34Z</time>
      </trkpt>
      <trkpt lat="47.361326962709427" lon="10.843231016770005">
        <ele>1194.0899999999999</ele>
        <time>2018-09-17T08:46:35Z</time>
      </trkpt>
      <trkpt lat="47.361348001286387" lon="10.843067988753319">
        <ele>1195.0599999999999</ele>
        <time>2018-09-17T08:46:36Z</time>
      </trkpt>
      <trkpt lat="47.361387982964516" lon="10.842886017635465">
        <ele>1195.54</ele>
        <time>2018-09-17T08:46:37Z</time>
      </trkpt>
      <trkpt lat="47.361431987956166" lon="10.842699017375708">
        <ele>1196.5</ele>
        <time>2018-09-17T08:46:38Z</time>
      </trkpt>
      <trkpt lat="47.361512035131454" lon="10.842506987974048">
        <ele>1196.98</ele>
        <time>2018-09-17T08:46:39Z</time>
      </trkpt>
      <trkpt lat="47.361599039286375" lon="10.842313030734658">
        <ele>1197.9400000000001</ele>
        <time>2018-09-17T08:46:40Z</time>
      </trkpt>
      <trkpt lat="47.361701969057322" lon="10.842111026868224">
        <ele>1199.3800000000001</ele>
        <time>2018-09-17T08:46:41Z</time>
      </trkpt>
      <trkpt lat="47.362481988966465" lon="10.840865978971124">
        <ele>1205.1500000000001</ele>
        <time>2018-09-17T08:46:46Z</time>
      </trkpt>
      <trkpt lat="47.363385977223516" lon="10.839574998244643">
        <ele>1210.9200000000001</ele>
        <time>2018-09-17T08:46:52Z</time>
      </trkpt>
      <trkpt lat="47.36345898360014" lon="10.839378023520112">
        <ele>1211.8800000000001</ele>
        <time>2018-09-17T08:46:53Z</time>
      </trkpt>
      <trkpt lat="47.363525032997131" lon="10.839148024097085">
        <ele>1212.3599999999999</ele>
        <time>2018-09-17T08:46:54Z</time>
      </trkpt>
      <trkpt lat="47.364062983542681" lon="10.836950959637761">
        <ele>1214.28</ele>
        <time>2018-09-17T08:47:02Z</time>
      </trkpt>
      <trkpt lat="47.364109000191092" lon="10.836701011285186">
        <ele>1214.28</ele>
        <time>2018-09-17T08:47:03Z</time>
      </trkpt>
      <trkpt lat="47.364120986312628" lon="10.836470006033778">
        <ele>1214.28</ele>
        <time>2018-09-17T08:47:04Z</time>
      </trkpt>
      <trkpt lat="47.364120986312628" lon="10.836241012439132">
        <ele>1214.28</ele>
        <time>2018-09-17T08:47:05Z</time>
      </trkpt>
      <trkpt lat="47.36410497687757" lon="10.836007995530963">
        <ele>1214.28</ele>
        <time>2018-09-17T08:47:06Z</time>
      </trkpt>
      <trkpt lat="47.364076981320977" lon="10.835773972794414">
        <ele>1214.28</ele>
        <time>2018-09-17T08:47:07Z</time>
      </trkpt>
      <trkpt lat="47.363676996901631" lon="10.83404797129333">
        <ele>1212.8399999999999</ele>
        <time>2018-09-17T08:47:15Z</time>
      </trkpt>
      <trkpt lat="47.363233007490635" lon="10.832640985026956">
        <ele>1212.8399999999999</ele>
        <time>2018-09-17T08:47:23Z</time>
      </trkpt>
      <trkpt lat="47.36240403726697" lon="10.8308030012995">
        <ele>1209.96</ele>
        <time>2018-09-17T08:47:36Z</time>
      </trkpt>
      <trkpt lat="47.36232097260654" lon="10.830709962174296">
        <ele>1209.48</ele>
        <time>2018-09-17T08:47:37Z</time>
      </trkpt>
      <trkpt lat="47.362221982330084" lon="10.830627987161279">
        <ele>1209</ele>
        <time>2018-09-17T08:47:38Z</time>
      </trkpt>
      <trkpt lat="47.362146964296699" lon="10.83056696690619">
        <ele>1209</ele>
        <time>2018-09-17T08:47:39Z</time>
      </trkpt>
      <trkpt lat="47.362015033140779" lon="10.83056696690619">
        <ele>1208.51</ele>
        <time>2018-09-17T08:47:40Z</time>
      </trkpt>
      <trkpt lat="47.361907996237278" lon="10.830582976341248">
        <ele>1208.03</ele>
        <time>2018-09-17T08:47:41Z</time>
      </trkpt>
      <trkpt lat="47.361790984869003" lon="10.830623041838408">
        <ele>1207.55</ele>
        <time>2018-09-17T08:47:42Z</time>
      </trkpt>
      <trkpt lat="47.361673973500729" lon="10.830664029344916">
        <ele>1207.0699999999999</ele>
        <time>2018-09-17T08:47:43Z</time>
      </trkpt>
      <trkpt lat="47.360880961641669" lon="10.83076000213623">
        <ele>1201.3</ele>
        <time>2018-09-17T08:47:51Z</time>
      </trkpt>
      <trkpt lat="47.360798986628652" lon="10.830666041001678">
        <ele>1200.3399999999999</ele>
        <time>2018-09-17T08:47:52Z</time>
      </trkpt>
      <trkpt lat="47.36073100939393" lon="10.83058800548315">
        <ele>1199.3800000000001</ele>
        <time>2018-09-17T08:47:53Z</time>
      </trkpt>
      <trkpt lat="47.360673006623983" lon="10.830453978851438">
        <ele>1198.4200000000001</ele>
        <time>2018-09-17T08:47:54Z</time>
      </trkpt>
      <trkpt lat="47.360615003854036" lon="10.830306960269809">
        <ele>1197.9400000000001</ele>
        <time>2018-09-17T08:47:55Z</time>
      </trkpt>
      <trkpt lat="47.360553983598948" lon="10.830152984708548">
        <ele>1196.98</ele>
        <time>2018-09-17T08:47:56Z</time>
      </trkpt>
      <trkpt lat="47.36049497500062" lon="10.830003032460809">
        <ele>1196.5</ele>
        <time>2018-09-17T08:47:57Z</time>
      </trkpt>
      <trkpt lat="47.360437978059053" lon="10.82985601387918">
        <ele>1195.54</ele>
        <time>2018-09-17T08:47:58Z</time>
      </trkpt>
      <trkpt lat="47.360336976125836" lon="10.829753000289202">
        <ele>1194.5799999999999</ele>
        <time>2018-09-17T08:47:59Z</time>
      </trkpt>
      <trkpt lat="47.360233040526509" lon="10.829659039154649">
        <ele>1193.6099999999999</ele>
        <time>2018-09-17T08:48:00Z</time>
      </trkpt>
      <trkpt lat="47.360127009451389" lon="10.829562982544303">
        <ele>1192.6500000000001</ele>
        <time>2018-09-17T08:48:01Z</time>
      </trkpt>
      <trkpt lat="47.36002198420465" lon="10.829468015581369">
        <ele>1191.6900000000001</ele>
        <time>2018-09-17T08:48:02Z</time>
      </trkpt>
      <trkpt lat="47.359934980049729" lon="10.829354021698236">
        <ele>1190.73</ele>
        <time>2018-09-17T08:48:03Z</time>
      </trkpt>
      <trkpt lat="47.359857028350234" lon="10.829218989238143">
        <ele>1189.77</ele>
        <time>2018-09-17T08:48:04Z</time>
      </trkpt>
      <trkpt lat="47.359816962853074" lon="10.829069036990404">
        <ele>1188.8099999999999</ele>
        <time>2018-09-17T08:48:05Z</time>
      </trkpt>
      <trkpt lat="47.359795002266765" lon="10.828879019245505">
        <ele>1187.8499999999999</ele>
        <time>2018-09-17T08:48:06Z</time>
      </trkpt>
      <trkpt lat="47.359768012538552" lon="10.828655976802111">
        <ele>1186.8800000000001</ele>
        <time>2018-09-17T08:48:07Z</time>
      </trkpt>
      <trkpt lat="47.359735993668437" lon="10.828388007357717">
        <ele>1185.9200000000001</ele>
        <time>2018-09-17T08:48:08Z</time>
      </trkpt>
      <trkpt lat="47.359713027253747" lon="10.82809497602284">
        <ele>1184.96</ele>
        <time>2018-09-17T08:48:09Z</time>
      </trkpt>
      <trkpt lat="47.359563997015357" lon="10.826480034738779">
        <ele>1180.1600000000001</ele>
        <time>2018-09-17T08:48:15Z</time>
      </trkpt>
      <trkpt lat="47.3595289606601" lon="10.826253974810243">
        <ele>1179.6700000000001</ele>
        <time>2018-09-17T08:48:16Z</time>
      </trkpt>
      <trkpt lat="47.359533989802003" lon="10.826082983985543">
        <ele>1178.71</ele>
        <time>2018-09-17T08:48:17Z</time>
      </trkpt>
      <trkpt lat="47.359539018943906" lon="10.82590201869607">
        <ele>1178.23</ele>
        <time>2018-09-17T08:48:18Z</time>
      </trkpt>
      <trkpt lat="47.359543964266777" lon="10.825734967365861">
        <ele>1177.27</ele>
        <time>2018-09-17T08:48:19Z</time>
      </trkpt>
      <trkpt lat="47.359547987580299" lon="10.825576968491077">
        <ele>1176.79</ele>
        <time>2018-09-17T08:48:20Z</time>
      </trkpt>
      <trkpt lat="47.359538013115525" lon="10.825427016243339">
        <ele>1175.8299999999999</ele>
        <time>2018-09-17T08:48:21Z</time>
      </trkpt>
      <trkpt lat="47.359499959275126" lon="10.825261976569891">
        <ele>1175.3499999999999</ele>
        <time>2018-09-17T08:48:22Z</time>
      </trkpt>
      <trkpt lat="47.359460983425379" lon="10.82508796826005">
        <ele>1174.8699999999999</ele>
        <time>2018-09-17T08:48:23Z</time>
      </trkpt>
      <trkpt lat="47.35941999591887" lon="10.824911026284099">
        <ele>1173.9100000000001</ele>
        <time>2018-09-17T08:48:24Z</time>
      </trkpt>
      <trkpt lat="47.359382025897503" lon="10.824742969125509">
        <ele>1173.4300000000001</ele>
        <time>2018-09-17T08:48:25Z</time>
      </trkpt>
      <trkpt lat="47.359299967065454" lon="10.824609026312828">
        <ele>1172.47</ele>
        <time>2018-09-17T08:48:26Z</time>
      </trkpt>
      <trkpt lat="47.359213968738914" lon="10.824476005509496">
        <ele>1171.98</ele>
        <time>2018-09-17T08:48:27Z</time>
      </trkpt>
      <trkpt lat="47.359128976240754" lon="10.824338039383292">
        <ele>1171.02</ele>
        <time>2018-09-17T08:48:28Z</time>
      </trkpt>
      <trkpt lat="47.359056975692511" lon="10.824193032458425">
        <ele>1169.5799999999999</ele>
        <time>2018-09-17T08:48:29Z</time>
      </trkpt>
      <trkpt lat="47.358987992629409" lon="10.82405598834157">
        <ele>1169.0999999999999</ele>
        <time>2018-09-17T08:48:30Z</time>
      </trkpt>
      <trkpt lat="47.358939964324236" lon="10.823909975588322">
        <ele>1168.6199999999999</ele>
        <time>2018-09-17T08:48:31Z</time>
      </trkpt>
      <trkpt lat="47.358899982646108" lon="10.823766980320215">
        <ele>1167.6600000000001</ele>
        <time>2018-09-17T08:48:32Z</time>
      </trkpt>
      <trkpt lat="47.358791017904878" lon="10.823547961190343">
        <ele>1166.22</ele>
        <time>2018-09-17T08:48:34Z</time>
      </trkpt>
      <trkpt lat="47.358728991821408" lon="10.823471015319228">
        <ele>1165.74</ele>
        <time>2018-09-17T08:48:35Z</time>
      </trkpt>
      <trkpt lat="47.358670989051461" lon="10.823400020599365">
        <ele>1164.77</ele>
        <time>2018-09-17T08:48:36Z</time>
      </trkpt>
      <trkpt lat="47.358604017645121" lon="10.823418963700533">
        <ele>1163.8099999999999</ele>
        <time>2018-09-17T08:48:37Z</time>
      </trkpt>
      <trkpt lat="47.358530005440116" lon="10.823440002277493">
        <ele>1163.3299999999999</ele>
        <time>2018-09-17T08:48:38Z</time>
      </trkpt>
      <trkpt lat="47.358479965478182" lon="10.823507979512215">
        <ele>1162.3699999999999</ele>
        <time>2018-09-17T08:48:39Z</time>
      </trkpt>
      <trkpt lat="47.358422968536615" lon="10.823601018637419">
        <ele>1161.4100000000001</ele>
        <time>2018-09-17T08:48:40Z</time>
      </trkpt>
      <trkpt lat="47.358359014615417" lon="10.823703026399016">
        <ele>1160.9300000000001</ele>
        <time>2018-09-17T08:48:41Z</time>
      </trkpt>
      <trkpt lat="47.358290031552315" lon="10.823814002797008">
        <ele>1160.45</ele>
        <time>2018-09-17T08:48:42Z</time>
      </trkpt>
      <trkpt lat="47.357783010229468" lon="10.82452897913754">
        <ele>1156.5999999999999</ele>
        <time>2018-09-17T08:48:47Z</time>
      </trkpt>
      <trkpt lat="47.35761302523315" lon="10.824663005769253">
        <ele>1156.1199999999999</ele>
        <time>2018-09-17T08:48:48Z</time>
      </trkpt>
      <trkpt lat="47.357116984203458" lon="10.825051004067063">
        <ele>1153.72</ele>
        <time>2018-09-17T08:48:51Z</time>
      </trkpt>
      <trkpt lat="47.356370994821191" lon="10.825757011771202">
        <ele>1148.9100000000001</ele>
        <time>2018-09-17T08:48:58Z</time>
      </trkpt>
      <trkpt lat="47.356318021193147" lon="10.8258399926126">
        <ele>1147.95</ele>
        <time>2018-09-17T08:48:59Z</time>
      </trkpt>
      <trkpt lat="47.356265969574451" lon="10.825921967625618">
        <ele>1147.47</ele>
        <time>2018-09-17T08:49:00Z</time>
      </trkpt>
      <trkpt lat="47.356246020644903" lon="10.826014000922441">
        <ele>1146.99</ele>
        <time>2018-09-17T08:49:01Z</time>
      </trkpt>
      <trkpt lat="47.356246020644903" lon="10.826151967048645">
        <ele>1146.51</ele>
        <time>2018-09-17T08:49:02Z</time>
      </trkpt>
      <trkpt lat="47.356246020644903" lon="10.826361011713743">
        <ele>1145.55</ele>
        <time>2018-09-17T08:49:03Z</time>
      </trkpt>
      <trkpt lat="47.356266975402832" lon="10.826558992266655">
        <ele>1144.5899999999999</ele>
        <time>2018-09-17T08:49:04Z</time>
      </trkpt>
      <trkpt lat="47.356293965131044" lon="10.826811958104372">
        <ele>1143.6300000000001</ele>
        <time>2018-09-17T08:49:05Z</time>
      </trkpt>
      <trkpt lat="47.35630402341485" lon="10.827097026631236">
        <ele>1143.1400000000001</ele>
        <time>2018-09-17T08:49:06Z</time>
      </trkpt>
      <trkpt lat="47.356289019808173" lon="10.827390979975462">
        <ele>1142.1800000000001</ele>
        <time>2018-09-17T08:49:07Z</time>
      </trkpt>
      <trkpt lat="47.356207966804504" lon="10.827709995210171">
        <ele>1141.22</ele>
        <time>2018-09-17T08:49:08Z</time>
      </trkpt>
      <trkpt lat="47.356129009276628" lon="10.828021969646215">
        <ele>1139.78</ele>
        <time>2018-09-17T08:49:09Z</time>
      </trkpt>
      <trkpt lat="47.355602039024234" lon="10.829536998644471">
        <ele>1131.6099999999999</ele>
        <time>2018-09-17T08:49:15Z</time>
      </trkpt>
      <trkpt lat="47.3555519990623" lon="10.829726010560989">
        <ele>1130.6500000000001</ele>
        <time>2018-09-17T08:49:16Z</time>
      </trkpt>
      <trkpt lat="47.355517968535423" lon="10.829897001385689">
        <ele>1129.6900000000001</ele>
        <time>2018-09-17T08:49:17Z</time>
      </trkpt>
      <trkpt lat="47.355524003505707" lon="10.830097999423742">
        <ele>1128.24</ele>
        <time>2018-09-17T08:49:18Z</time>
      </trkpt>
      <trkpt lat="47.355570020154119" lon="10.831711012870073">
        <ele>1122.48</ele>
        <time>2018-09-17T08:49:24Z</time>
      </trkpt>
      <trkpt lat="47.355573959648609" lon="10.832335967570543">
        <ele>1120.55</ele>
        <time>2018-09-17T08:49:26Z</time>
      </trkpt>
      <trkpt lat="47.3554000351578" lon="10.834160037338734">
        <ele>1113.3399999999999</ele>
        <time>2018-09-17T08:49:33Z</time>
      </trkpt>
      <trkpt lat="47.355282017961144" lon="10.835748994722962">
        <ele>1107.0999999999999</ele>
        <time>2018-09-17T08:49:38Z</time>
      </trkpt>
      <trkpt lat="47.35505604185164" lon="10.837486982345581">
        <ele>1100.3699999999999</ele>
        <time>2018-09-17T08:49:44Z</time>
      </trkpt>
      <trkpt lat="47.354866024106741" lon="10.838129036128521">
        <ele>1097.48</ele>
        <time>2018-09-17T08:49:47Z</time>
      </trkpt>
      <trkpt lat="47.354683969169855" lon="10.838583000004292">
        <ele>1095.0799999999999</ele>
        <time>2018-09-17T08:49:49Z</time>
      </trkpt>
      <trkpt lat="47.354551032185555" lon="10.838797995820642">
        <ele>1094.1199999999999</ele>
        <time>2018-09-17T08:49:50Z</time>
      </trkpt>
      <trkpt lat="47.354421028867364" lon="10.839008968323469">
        <ele>1093.1600000000001</ele>
        <time>2018-09-17T08:49:51Z</time>
      </trkpt>
      <trkpt lat="47.353861033916473" lon="10.839941035956144">
        <ele>1085.95</ele>
        <time>2018-09-17T08:49:57Z</time>
      </trkpt>
      <trkpt lat="47.353803031146526" lon="10.84008302539587">
        <ele>1084.99</ele>
        <time>2018-09-17T08:49:58Z</time>
      </trkpt>
      <trkpt lat="47.353744022548199" lon="10.840229960158467">
        <ele>1083.54</ele>
        <time>2018-09-17T08:49:59Z</time>
      </trkpt>
      <trkpt lat="47.353681996464729" lon="10.840382007881999">
        <ele>1083.0599999999999</ele>
        <time>2018-09-17T08:50:00Z</time>
      </trkpt>
      <trkpt lat="47.353624999523163" lon="10.840522991493344">
        <ele>1083.0599999999999</ele>
        <time>2018-09-17T08:50:01Z</time>
      </trkpt>
      <trkpt lat="47.353574959561229" lon="10.840646959841251">
        <ele>1083.0599999999999</ele>
        <time>2018-09-17T08:50:02Z</time>
      </trkpt>
      <trkpt lat="47.353443028405309" lon="10.841002017259598">
        <ele>1082.0999999999999</ele>
        <time>2018-09-17T08:50:07Z</time>
      </trkpt>
      <trkpt lat="47.353215962648392" lon="10.84147903136909">
        <ele>1081.1400000000001</ele>
        <time>2018-09-17T08:50:13Z</time>
      </trkpt>
      <trkpt lat="47.353091994300485" lon="10.841661002486944">
        <ele>1080.1800000000001</ele>
        <time>2018-09-17T08:50:15Z</time>
      </trkpt>
      <trkpt lat="47.353075984865427" lon="10.841664019972086">
        <ele>1079.7</ele>
        <time>2018-09-17T08:50:16Z</time>
      </trkpt>
      <trkpt lat="47.353030974045396" lon="10.841671982780099">
        <ele>1078.74</ele>
        <time>2018-09-17T08:50:17Z</time>
      </trkpt>
      <trkpt lat="47.35297498293221" lon="10.841682041063905">
        <ele>1078.26</ele>
        <time>2018-09-17T08:50:18Z</time>
      </trkpt>
      <trkpt lat="47.352905999869108" lon="10.841695033013821">
        <ele>1077.78</ele>
        <time>2018-09-17T08:50:19Z</time>
      </trkpt>
      <trkpt lat="47.352837016806006" lon="10.841708024963737">
        <ele>1077.29</ele>
        <time>2018-09-17T08:50:20Z</time>
      </trkpt>
      <trkpt lat="47.352593019604683" lon="10.841753035783768">
        <ele>1075.3699999999999</ele>
        <time>2018-09-17T08:50:24Z</time>
      </trkpt>
      <trkpt lat="47.352543985471129" lon="10.841762004420161">
        <ele>1074.8900000000001</ele>
        <time>2018-09-17T08:50:25Z</time>
      </trkpt>
      <trkpt lat="47.352511966601014" lon="10.841768039390445">
        <ele>1074.4100000000001</ele>
        <time>2018-09-17T08:50:26Z</time>
      </trkpt>
      <trkpt lat="47.352511966601014" lon="10.841768039390445">
        <ele>1073.9300000000001</ele>
        <time>2018-09-17T08:50:27Z</time>
      </trkpt>
      <trkpt lat="47.352423034608364" lon="10.841743983328342">
        <ele>1073.45</ele>
        <time>2018-09-17T08:50:28Z</time>
      </trkpt>
      <trkpt lat="47.352382969111204" lon="10.841733003035188">
        <ele>1072.49</ele>
        <time>2018-09-17T08:50:29Z</time>
      </trkpt>
      <trkpt lat="47.352337958291173" lon="10.841720011085272">
        <ele>1072.01</ele>
        <time>2018-09-17T08:50:30Z</time>
      </trkpt>
      <trkpt lat="47.352274004369974" lon="10.841684974730015">
        <ele>1071.53</ele>
        <time>2018-09-17T08:50:31Z</time>
      </trkpt>
      <trkpt lat="47.3522640299052" lon="10.841619009152055">
        <ele>1071.05</ele>
        <time>2018-09-17T08:50:32Z</time>
      </trkpt>
      <trkpt lat="47.352284984663129" lon="10.841515995562077">
        <ele>1071.05</ele>
        <time>2018-09-17T08:50:33Z</time>
      </trkpt>
      <trkpt lat="47.352315997704864" lon="10.841477019712329">
        <ele>1070.5699999999999</ele>
        <time>2018-09-17T08:50:34Z</time>
      </trkpt>
      <trkpt lat="47.352414987981319" lon="10.841440977528691">
        <ele>1070.0799999999999</ele>
        <time>2018-09-17T08:50:35Z</time>
      </trkpt>
      <trkpt lat="47.352525964379311" lon="10.841433014720678">
        <ele>1069.5999999999999</ele>
        <time>2018-09-17T08:50:36Z</time>
      </trkpt>
      <trkpt lat="47.352637024596334" lon="10.841424968093634">
        <ele>1068.6400000000001</ele>
        <time>2018-09-17T08:50:37Z</time>
      </trkpt>
      <trkpt lat="47.352741966024041" lon="10.841417005285621">
        <ele>1068.1600000000001</ele>
        <time>2018-09-17T08:50:38Z</time>
      </trkpt>
      <trkpt lat="47.352828970178962" lon="10.841410970315337">
        <ele>1068.1600000000001</ele>
        <time>2018-09-17T08:50:39Z</time>
      </trkpt>
      <trkpt lat="47.352903988212347" lon="10.841406024992466">
        <ele>1067.6800000000001</ele>
        <time>2018-09-17T08:50:40Z</time>
      </trkpt>
      <trkpt lat="47.352964002639055" lon="10.841390015557408">
        <ele>1067.2</ele>
        <time>2018-09-17T08:50:41Z</time>
      </trkpt>
      <trkpt lat="47.35303801484406" lon="10.841348022222519">
        <ele>1067.2</ele>
        <time>2018-09-17T08:50:42Z</time>
      </trkpt>
      <trkpt lat="47.353113032877445" lon="10.841275015845895">
        <ele>1066.72</ele>
        <time>2018-09-17T08:50:43Z</time>
      </trkpt>
      <trkpt lat="47.353181010112166" lon="10.841133026406169">
        <ele>1066.72</ele>
        <time>2018-09-17T08:50:44Z</time>
      </trkpt>
      <trkpt lat="47.353237001225352" lon="10.840937979519367">
        <ele>1066.24</ele>
        <time>2018-09-17T08:50:45Z</time>
      </trkpt>
      <trkpt lat="47.353303972631693" lon="10.84070798009634">
        <ele>1065.76</ele>
        <time>2018-09-17T08:50:46Z</time>
      </trkpt>
      <trkpt lat="47.353643020614982" lon="10.839606011286378">
        <ele>1060.47</ele>
        <time>2018-09-17T08:50:52Z</time>
      </trkpt>
      <trkpt lat="47.353723989799619" lon="10.839424040168524">
        <ele>1059.51</ele>
        <time>2018-09-17T08:50:53Z</time>
      </trkpt>
      <trkpt lat="47.353818034753203" lon="10.839214995503426">
        <ele>1058.55</ele>
        <time>2018-09-17T08:50:54Z</time>
      </trkpt>
      <trkpt lat="47.354342993348837" lon="10.838016970083117">
        <ele>1050.3800000000001</ele>
        <time>2018-09-17T08:51:01Z</time>
      </trkpt>
      <trkpt lat="47.354368977248669" lon="10.837860982865095">
        <ele>1049.4200000000001</ele>
        <time>2018-09-17T08:51:02Z</time>
      </trkpt>
      <trkpt lat="47.354396972805262" lon="10.83770097233355">
        <ele>1048.45</ele>
        <time>2018-09-17T08:51:03Z</time>
      </trkpt>
      <trkpt lat="47.354528987780213" lon="10.836648037657142">
        <ele>1044.6099999999999</ele>
        <time>2018-09-17T08:51:09Z</time>
      </trkpt>
      <trkpt lat="47.354528987780213" lon="10.836040014401078">
        <ele>1042.21</ele>
        <time>2018-09-17T08:51:12Z</time>
      </trkpt>
      <trkpt lat="47.354528987780213" lon="10.83583096973598">
        <ele>1041.73</ele>
        <time>2018-09-17T08:51:13Z</time>
      </trkpt>
      <trkpt lat="47.354528987780213" lon="10.835213977843523">
        <ele>1039.8</ele>
        <time>2018-09-17T08:51:16Z</time>
      </trkpt>
      <trkpt lat="47.354526976123452" lon="10.835007028654218">
        <ele>1039.8</ele>
        <time>2018-09-17T08:51:17Z</time>
      </trkpt>
      <trkpt lat="47.35450099222362" lon="10.834787003695965">
        <ele>1039.3199999999999</ele>
        <time>2018-09-17T08:51:18Z</time>
      </trkpt>
      <trkpt lat="47.354266969487071" lon="10.832836031913757">
        <ele>1035.48</ele>
        <time>2018-09-17T08:51:27Z</time>
      </trkpt>
      <trkpt lat="47.354184994474053" lon="10.832395981997252">
        <ele>1034.04</ele>
        <time>2018-09-17T08:51:29Z</time>
      </trkpt>
      <trkpt lat="47.35391803085804" lon="10.831097038462758">
        <ele>1029.23</ele>
        <time>2018-09-17T08:51:35Z</time>
      </trkpt>
      <trkpt lat="47.353867990896106" lon="10.830880030989647">
        <ele>1028.75</ele>
        <time>2018-09-17T08:51:36Z</time>
      </trkpt>
      <trkpt lat="47.353443028405309" lon="10.829222006723285">
        <ele>1021.54</ele>
        <time>2018-09-17T08:51:44Z</time>
      </trkpt>
      <trkpt lat="47.352722017094493" lon="10.82762299105525">
        <ele>1013.85</ele>
        <time>2018-09-17T08:51:52Z</time>
      </trkpt>
      <trkpt lat="47.352383974939585" lon="10.827053021639585">
        <ele>1010.48</ele>
        <time>2018-09-17T08:51:55Z</time>
      </trkpt>
      <trkpt lat="47.351387031376362" lon="10.825575040653348">
        <ele>1001.83</ele>
        <time>2018-09-17T08:52:04Z</time>
      </trkpt>
      <trkpt lat="47.350984029471874" lon="10.825074976310134">
        <ele>997.99000000000001</ele>
        <time>2018-09-17T08:52:09Z</time>
      </trkpt>
      <trkpt lat="47.350925020873547" lon="10.825013034045696">
        <ele>997.01999999999998</ele>
        <time>2018-09-17T08:52:10Z</time>
      </trkpt>
      <trkpt lat="47.350855031982064" lon="10.824951007962227">
        <ele>996.53999999999996</ele>
        <time>2018-09-17T08:52:11Z</time>
      </trkpt>
      <trkpt lat="47.350780013948679" lon="10.824904991313815">
        <ele>996.05999999999995</ele>
        <time>2018-09-17T08:52:12Z</time>
      </trkpt>
      <trkpt lat="47.350701978430152" lon="10.824857968837023">
        <ele>995.58000000000004</ele>
        <time>2018-09-17T08:52:13Z</time>
      </trkpt>
      <trkpt lat="47.350624026730657" lon="10.824810024350882">
        <ele>995.10000000000002</ele>
        <time>2018-09-17T08:52:14Z</time>
      </trkpt>
      <trkpt lat="47.350548002868891" lon="10.82476400770247">
        <ele>994.62</ele>
        <time>2018-09-17T08:52:15Z</time>
      </trkpt>
      <trkpt lat="47.350471979007125" lon="10.824717991054058">
        <ele>994.13999999999999</ele>
        <time>2018-09-17T08:52:16Z</time>
      </trkpt>
      <trkpt lat="47.350060008466244" lon="10.82448698580265">
        <ele>991.74000000000001</ele>
        <time>2018-09-17T08:52:24Z</time>
      </trkpt>
      <trkpt lat="47.350000999867916" lon="10.824461001902819">
        <ele>990.77999999999997</ele>
        <time>2018-09-17T08:52:27Z</time>
      </trkpt>
      <trkpt lat="47.349979961290956" lon="10.824451027438045">
        <ele>990.29999999999995</ele>
        <time>2018-09-17T08:52:36Z</time>
      </trkpt>
      <trkpt lat="47.349817017093301" lon="10.824379026889801">
        <ele>988.37</ele>
        <time>2018-09-17T08:52:48Z</time>
      </trkpt>
      <trkpt lat="47.349787009879947" lon="10.824366034939885">
        <ele>987.88999999999999</ele>
        <time>2018-09-17T08:52:49Z</time>
      </trkpt>
      <trkpt lat="47.349734958261251" lon="10.824379026889801">
        <ele>987.40999999999997</ele>
        <time>2018-09-17T08:52:50Z</time>
      </trkpt>
      <trkpt lat="47.349678967148066" lon="10.824393024668097">
        <ele>986.92999999999995</ele>
        <time>2018-09-17T08:52:51Z</time>
      </trkpt>
      <trkpt lat="47.349621970206499" lon="10.824407022446394">
        <ele>986.45000000000005</ele>
        <time>2018-09-17T08:52:52Z</time>
      </trkpt>
      <trkpt lat="47.349564973264933" lon="10.82442102022469">
        <ele>985.97000000000003</ele>
        <time>2018-09-17T08:52:53Z</time>
      </trkpt>
      <trkpt lat="47.349369004368782" lon="10.824469970539212">
        <ele>985.00999999999999</ele>
        <time>2018-09-17T08:52:56Z</time>
      </trkpt>
      <trkpt lat="47.349285017699003" lon="10.824456978589296">
        <ele>984.52999999999997</ele>
        <time>2018-09-17T08:52:57Z</time>
      </trkpt>
      <trkpt lat="47.349164988845587" lon="10.824429988861084">
        <ele>984.04999999999995</ele>
        <time>2018-09-17T08:52:59Z</time>
      </trkpt>
      <trkpt lat="47.349054012447596" lon="10.824328986927867">
        <ele>983.57000000000005</ele>
        <time>2018-09-17T08:53:00Z</time>
      </trkpt>
      <trkpt lat="47.348987041041255" lon="10.824268972501159">
        <ele>983.57000000000005</ele>
        <time>2018-09-17T08:53:01Z</time>
      </trkpt>
      <trkpt lat="47.348886039108038" lon="10.824176017194986">
        <ele>983.09000000000003</ele>
        <time>2018-09-17T08:53:03Z</time>
      </trkpt>
      <trkpt lat="47.348840022459626" lon="10.824135029688478">
        <ele>983.09000000000003</ele>
        <time>2018-09-17T08:53:04Z</time>
      </trkpt>
      <trkpt lat="47.348788976669312" lon="10.824088007211685">
        <ele>983.09000000000003</ele>
        <time>2018-09-17T08:53:05Z</time>
      </trkpt>
      <trkpt lat="47.348731979727745" lon="10.824036961421371">
        <ele>983.09000000000003</ele>
        <time>2018-09-17T08:53:06Z</time>
      </trkpt>
      <trkpt lat="47.348658973351121" lon="10.823992034420371">
        <ele>982.60000000000002</ele>
        <time>2018-09-17T08:53:07Z</time>
      </trkpt>
      <trkpt lat="47.348579009994864" lon="10.823968984186649">
        <ele>982.60000000000002</ele>
        <time>2018-09-17T08:53:08Z</time>
      </trkpt>
      <trkpt lat="47.348497034981847" lon="10.82394702360034">
        <ele>982.12</ele>
        <time>2018-09-17T08:53:09Z</time>
      </trkpt>
      <trkpt lat="47.34835303388536" lon="10.823906036093831">
        <ele>981.63999999999999</ele>
        <time>2018-09-17T08:53:11Z</time>
      </trkpt>
      <trkpt lat="47.348307017236948" lon="10.823893966153264">
        <ele>981.15999999999997</ele>
        <time>2018-09-17T08:53:12Z</time>
      </trkpt>
      <trkpt lat="47.348234010860324" lon="10.823803022503853">
        <ele>980.67999999999995</ele>
        <time>2018-09-17T08:53:13Z</time>
      </trkpt>
      <trkpt lat="47.348221018910408" lon="10.823786007240415">
        <ele>980.20000000000005</ele>
        <time>2018-09-17T08:53:14Z</time>
      </trkpt>
      <trkpt lat="47.348178019747138" lon="10.82369196228683">
        <ele>979.72000000000003</ele>
        <time>2018-09-17T08:53:15Z</time>
      </trkpt>
      <trkpt lat="47.348155975341797" lon="10.823642006143928">
        <ele>979.24000000000001</ele>
        <time>2018-09-17T08:53:16Z</time>
      </trkpt>
      <trkpt lat="47.348135020583868" lon="10.823594983667135">
        <ele>978.75999999999999</ele>
        <time>2018-09-17T08:53:17Z</time>
      </trkpt>
      <trkpt lat="47.348111970350146" lon="10.823544021695852">
        <ele>978.27999999999997</ele>
        <time>2018-09-17T08:53:18Z</time>
      </trkpt>
      <trkpt lat="47.348086992278695" lon="10.823487024754286">
        <ele>977.79999999999995</ele>
        <time>2018-09-17T08:53:19Z</time>
      </trkpt>
      <trkpt lat="47.348019015043974" lon="10.823335982859135">
        <ele>976.84000000000003</ele>
        <time>2018-09-17T08:53:21Z</time>
      </trkpt>
      <trkpt lat="47.347976015880704" lon="10.823240010067821">
        <ele>976.36000000000001</ele>
        <time>2018-09-17T08:53:22Z</time>
      </trkpt>
      <trkpt lat="47.347879037261009" lon="10.823025014251471">
        <ele>976.36000000000001</ele>
        <time>2018-09-17T08:53:24Z</time>
      </trkpt>
      <trkpt lat="47.347824973985553" lon="10.822903979569674">
        <ele>975.88</ele>
        <time>2018-09-17T08:53:25Z</time>
      </trkpt>
      <trkpt lat="47.34777501784265" lon="10.822793003171682">
        <ele>975.38999999999999</ele>
        <time>2018-09-17T08:53:26Z</time>
      </trkpt>
      <trkpt lat="47.347701005637646" lon="10.822628969326615">
        <ele>974.42999999999995</ele>
        <time>2018-09-17T08:53:28Z</time>
      </trkpt>
      <trkpt lat="47.347673010081053" lon="10.822566021233797">
        <ele>973.95000000000005</ele>
        <time>2018-09-17T08:53:29Z</time>
      </trkpt>
      <trkpt lat="47.347567984834313" lon="10.822330992668867">
        <ele>972.99000000000001</ele>
        <time>2018-09-17T08:53:32Z</time>
      </trkpt>
      <trkpt lat="47.347343014553189" lon="10.821878034621477">
        <ele>972.02999999999997</ele>
        <time>2018-09-17T08:53:36Z</time>
      </trkpt>
      <trkpt lat="47.347263973206282" lon="10.821731016039848">
        <ele>971.07000000000005</ele>
        <time>2018-09-17T08:53:37Z</time>
      </trkpt>
      <trkpt lat="47.346904976293445" lon="10.8210479747504">
        <ele>967.22000000000003</ele>
        <time>2018-09-17T08:53:43Z</time>
      </trkpt>
      <trkpt lat="47.346857031807303" lon="10.820950996130705">
        <ele>966.74000000000001</ele>
        <time>2018-09-17T08:53:44Z</time>
      </trkpt>
      <trkpt lat="47.346800034865737" lon="10.820838008075953">
        <ele>966.25999999999999</ele>
        <time>2018-09-17T08:53:45Z</time>
      </trkpt>
      <trkpt lat="47.346739014610648" lon="10.820715967565775">
        <ele>965.29999999999995</ele>
        <time>2018-09-17T08:53:46Z</time>
      </trkpt>
      <trkpt lat="47.346670031547546" lon="10.82059501670301">
        <ele>964.34000000000003</ele>
        <time>2018-09-17T08:53:47Z</time>
      </trkpt>
      <trkpt lat="47.346311034634709" lon="10.820116996765137">
        <ele>958.57000000000005</ele>
        <time>2018-09-17T08:53:54Z</time>
      </trkpt>
      <trkpt lat="47.346231993287802" lon="10.819948017597198">
        <ele>956.16999999999996</ele>
        <time>2018-09-17T08:53:57Z</time>
      </trkpt>
      <trkpt lat="47.346203997731209" lon="10.819889008998871">
        <ele>955.69000000000005</ele>
        <time>2018-09-17T08:53:58Z</time>
      </trkpt>
      <trkpt lat="47.346168039366603" lon="10.819812985137105">
        <ele>954.73000000000002</ele>
        <time>2018-09-17T08:53:59Z</time>
      </trkpt>
      <trkpt lat="47.346125040203333" lon="10.819722041487694">
        <ele>954.25</ele>
        <time>2018-09-17T08:54:00Z</time>
      </trkpt>
      <trkpt lat="47.346079023554921" lon="10.819622967392206">
        <ele>953.76999999999998</ele>
        <time>2018-09-17T08:54:01Z</time>
      </trkpt>
      <trkpt lat="47.345795966684818" lon="10.819022990763187">
        <ele>949.91999999999996</ele>
        <time>2018-09-17T08:54:09Z</time>
      </trkpt>
      <trkpt lat="47.345759002491832" lon="10.818986026570201">
        <ele>949.44000000000005</ele>
        <time>2018-09-17T08:54:10Z</time>
      </trkpt>
      <trkpt lat="47.345698988065124" lon="10.818930035457015">
        <ele>948.96000000000004</ele>
        <time>2018-09-17T08:54:11Z</time>
      </trkpt>
      <trkpt lat="47.345603015273809" lon="10.818873038515449">
        <ele>948</ele>
        <time>2018-09-17T08:54:12Z</time>
      </trkpt>
      <trkpt lat="47.345569990575314" lon="10.818873038515449">
        <ele>946.55999999999995</ele>
        <time>2018-09-17T08:54:13Z</time>
      </trkpt>
      <trkpt lat="47.345525985583663" lon="10.81887798383832">
        <ele>945.11000000000001</ele>
        <time>2018-09-17T08:54:14Z</time>
      </trkpt>
      <trkpt lat="47.345495978370309" lon="10.818889969959855">
        <ele>943.66999999999996</ele>
        <time>2018-09-17T08:54:15Z</time>
      </trkpt>
      <trkpt lat="47.345460020005703" lon="10.818903967738152">
        <ele>939.35000000000002</ele>
        <time>2018-09-17T08:54:27Z</time>
      </trkpt>
      <trkpt lat="47.345460020005703" lon="10.818903967738152">
        <ele>939.83000000000004</ele>
        <time>2018-09-17T08:55:13Z</time>
      </trkpt>
      <trkpt lat="47.345316018909216" lon="10.818954007700086">
        <ele>936.94000000000005</ele>
        <time>2018-09-17T08:55:28Z</time>
      </trkpt>
      <trkpt lat="47.344929026439786" lon="10.818988960236311">
        <ele>935.98000000000002</ele>
        <time>2018-09-17T08:55:43Z</time>
      </trkpt>
      <trkpt lat="47.34457103535533" lon="10.818777987733483">
        <ele>935.5</ele>
        <time>2018-09-17T08:55:53Z</time>
      </trkpt>
      <trkpt lat="47.344154035672545" lon="10.818678997457027">
        <ele>934.05999999999995</ele>
        <time>2018-09-17T08:56:04Z</time>
      </trkpt>
      <trkpt lat="47.343675009906292" lon="10.818687966093421">
        <ele>933.58000000000004</ele>
        <time>2018-09-17T08:56:11Z</time>
      </trkpt>
      <trkpt lat="47.343595968559384" lon="10.818728031590581">
        <ele>933.58000000000004</ele>
        <time>2018-09-17T08:56:12Z</time>
      </trkpt>
      <trkpt lat="47.34352002851665" lon="10.818767007440329">
        <ele>933.58000000000004</ele>
        <time>2018-09-17T08:56:13Z</time>
      </trkpt>
      <trkpt lat="47.3434569966048" lon="10.818830039352179">
        <ele>933.58000000000004</ele>
        <time>2018-09-17T08:56:14Z</time>
      </trkpt>
      <trkpt lat="47.343401005491614" lon="10.818903967738152">
        <ele>934.05999999999995</ele>
        <time>2018-09-17T08:56:15Z</time>
      </trkpt>
      <trkpt lat="47.3433499597013" lon="10.818978985771537">
        <ele>933.58000000000004</ele>
        <time>2018-09-17T08:56:16Z</time>
      </trkpt>
      <trkpt lat="47.343202019110322" lon="10.819201022386551">
        <ele>933.58000000000004</ele>
        <time>2018-09-17T08:56:19Z</time>
      </trkpt>
      <trkpt lat="47.34292097389698" lon="10.819623973220587">
        <ele>932.62</ele>
        <time>2018-09-17T08:56:24Z</time>
      </trkpt>
      <trkpt lat="47.34283204190433" lon="10.819678036496043">
        <ele>932.62</ele>
        <time>2018-09-17T08:56:25Z</time>
      </trkpt>
      <trkpt lat="47.342756018042564" lon="10.819724975153804">
        <ele>932.13999999999999</ele>
        <time>2018-09-17T08:56:26Z</time>
      </trkpt>
      <trkpt lat="47.34268301166594" lon="10.819769985973835">
        <ele>932.13999999999999</ele>
        <time>2018-09-17T08:56:27Z</time>
      </trkpt>
      <trkpt lat="47.342605981975794" lon="10.819804016500711">
        <ele>931.64999999999998</ele>
        <time>2018-09-17T08:56:28Z</time>
      </trkpt>
      <trkpt lat="47.342181019484997" lon="10.819906024262309">
        <ele>928.28999999999996</ele>
        <time>2018-09-17T08:56:33Z</time>
      </trkpt>
      <trkpt lat="47.341686990112066" lon="10.820009037852287">
        <ele>925.40999999999997</ele>
        <time>2018-09-17T08:56:39Z</time>
      </trkpt>
      <trkpt lat="47.34160996042192" lon="10.819986993446946">
        <ele>924.92999999999995</ele>
        <time>2018-09-17T08:56:40Z</time>
      </trkpt>
      <trkpt lat="47.341532008722425" lon="10.819964027032256">
        <ele>924.92999999999995</ele>
        <time>2018-09-17T08:56:41Z</time>
      </trkpt>
      <trkpt lat="47.341452967375517" lon="10.819940976798534">
        <ele>924.45000000000005</ele>
        <time>2018-09-17T08:56:42Z</time>
      </trkpt>
      <trkpt lat="47.341365963220596" lon="10.81988800317049">
        <ele>923.96000000000004</ele>
        <time>2018-09-17T08:56:43Z</time>
      </trkpt>
      <trkpt lat="47.340732961893082" lon="10.819166991859674">
        <ele>919.63999999999999</ele>
        <time>2018-09-17T08:56:51Z</time>
      </trkpt>
      <trkpt lat="47.340205991640687" lon="10.818631974980235">
        <ele>917.24000000000001</ele>
        <time>2018-09-17T08:56:58Z</time>
      </trkpt>
      <trkpt lat="47.340157963335514" lon="10.81855402328074">
        <ele>916.26999999999998</ele>
        <time>2018-09-17T08:56:59Z</time>
      </trkpt>
      <trkpt lat="47.340113036334515" lon="10.818480011075735">
        <ele>915.78999999999996</ele>
        <time>2018-09-17T08:57:00Z</time>
      </trkpt>
      <trkpt lat="47.340074982494116" lon="10.818415973335505">
        <ele>915.30999999999995</ele>
        <time>2018-09-17T08:57:01Z</time>
      </trkpt>
      <trkpt lat="47.340042041614652" lon="10.81836199387908">
        <ele>914.35000000000002</ele>
        <time>2018-09-17T08:57:02Z</time>
      </trkpt>
      <trkpt lat="47.339990995824337" lon="10.81827700138092">
        <ele>912.42999999999995</ele>
        <time>2018-09-17T08:57:09Z</time>
      </trkpt>
      <trkpt lat="47.339936010539532" lon="10.818185973912477">
        <ele>910.99000000000001</ele>
        <time>2018-09-17T08:57:13Z</time>
      </trkpt>
      <trkpt lat="47.339902985841036" lon="10.818130988627672">
        <ele>910.50999999999999</ele>
        <time>2018-09-17T08:57:14Z</time>
      </trkpt>
      <trkpt lat="47.339835008606315" lon="10.818020012229681">
        <ele>909.53999999999996</ele>
        <time>2018-09-17T08:57:16Z</time>
      </trkpt>
      <trkpt lat="47.339755967259407" lon="10.817887997254729">
        <ele>909.05999999999995</ele>
        <time>2018-09-17T08:57:18Z</time>
      </trkpt>
      <trkpt lat="47.339701987802982" lon="10.817799987271428">
        <ele>908.58000000000004</ele>
        <time>2018-09-17T08:57:19Z</time>
      </trkpt>
      <trkpt lat="47.339625963941216" lon="10.8177409786731">
        <ele>908.58000000000004</ele>
        <time>2018-09-17T08:57:20Z</time>
      </trkpt>
      <trkpt lat="47.339541977271438" lon="10.817676018923521">
        <ele>908.58000000000004</ele>
        <time>2018-09-17T08:57:21Z</time>
      </trkpt>
      <trkpt lat="47.339423038065434" lon="10.817584991455078">
        <ele>908.58000000000004</ele>
        <time>2018-09-17T08:57:22Z</time>
      </trkpt>
      <trkpt lat="47.339317006990314" lon="10.817576022818685">
        <ele>908.10000000000002</ele>
        <time>2018-09-17T08:57:23Z</time>
      </trkpt>
      <trkpt lat="47.339197983965278" lon="10.817565964534879">
        <ele>907.62</ele>
        <time>2018-09-17T08:57:24Z</time>
      </trkpt>
      <trkpt lat="47.339064041152596" lon="10.817604018375278">
        <ele>907.62</ele>
        <time>2018-09-17T08:57:25Z</time>
      </trkpt>
      <trkpt lat="47.338930014520884" lon="10.817662021145225">
        <ele>907.62</ele>
        <time>2018-09-17T08:57:26Z</time>
      </trkpt>
      <trkpt lat="47.338795987889171" lon="10.8177409786731">
        <ele>907.62</ele>
        <time>2018-09-17T08:57:27Z</time>
      </trkpt>
      <trkpt lat="47.337688989937305" lon="10.818394012749195">
        <ele>905.70000000000005</ele>
        <time>2018-09-17T08:57:34Z</time>
      </trkpt>
      <trkpt lat="47.337172999978065" lon="10.818673968315125">
        <ele>903.29999999999995</ele>
        <time>2018-09-17T08:57:38Z</time>
      </trkpt>
      <trkpt lat="47.336437990888953" lon="10.818879995495081">
        <ele>901.37</ele>
        <time>2018-09-17T08:57:45Z</time>
      </trkpt>
      <trkpt lat="47.335312971845269" lon="10.818915031850338">
        <ele>900.40999999999997</ele>
        <time>2018-09-17T08:57:53Z</time>
      </trkpt>
      <trkpt lat="47.334229024127126" lon="10.818682014942169">
        <ele>900.88999999999999</ele>
        <time>2018-09-17T08:58:00Z</time>
      </trkpt>
      <trkpt lat="47.333184974268079" lon="10.818453021347523">
        <ele>902.82000000000005</ele>
        <time>2018-09-17T08:58:08Z</time>
      </trkpt>
      <trkpt lat="47.333066035062075" lon="10.818473976105452">
        <ele>902.33000000000004</ele>
        <time>2018-09-17T08:58:09Z</time>
      </trkpt>
      <trkpt lat="47.331925006583333" lon="10.818604985252023">
        <ele>899.92999999999995</ele>
        <time>2018-09-17T08:58:18Z</time>
      </trkpt>
      <trkpt lat="47.331518987193704" lon="10.818584030494094">
        <ele>898.00999999999999</ele>
        <time>2018-09-17T08:58:21Z</time>
      </trkpt>
      <trkpt lat="47.33039204031229" lon="10.81821002997458">
        <ele>890.79999999999995</ele>
        <time>2018-09-17T08:58:31Z</time>
      </trkpt>
      <trkpt lat="47.329764990136027" lon="10.818157978355885">
        <ele>885.02999999999997</ele>
        <time>2018-09-17T08:58:38Z</time>
      </trkpt>
      <trkpt lat="47.329676980152726" lon="10.818162001669407">
        <ele>884.07000000000005</ele>
        <time>2018-09-17T08:58:39Z</time>
      </trkpt>
      <trkpt lat="47.329589975997806" lon="10.818174993619323">
        <ele>883.59000000000003</ele>
        <time>2018-09-17T08:58:40Z</time>
      </trkpt>
      <trkpt lat="47.329496014863253" lon="10.81821103580296">
        <ele>883.11000000000001</ele>
        <time>2018-09-17T08:58:41Z</time>
      </trkpt>
      <trkpt lat="47.329400964081287" lon="10.818247999995947">
        <ele>882.14999999999998</ele>
        <time>2018-09-17T08:58:42Z</time>
      </trkpt>
      <trkpt lat="47.329304991289973" lon="10.818284964188933">
        <ele>881.66999999999996</ele>
        <time>2018-09-17T08:58:43Z</time>
      </trkpt>
      <trkpt lat="47.329216981306672" lon="10.81831899471581">
        <ele>881.66999999999996</ele>
        <time>2018-09-17T08:58:44Z</time>
      </trkpt>
      <trkpt lat="47.329132994636893" lon="10.818352019414306">
        <ele>881.19000000000005</ele>
        <time>2018-09-17T08:58:45Z</time>
      </trkpt>
      <trkpt lat="47.329051019623876" lon="10.818384038284421">
        <ele>880.71000000000004</ele>
        <time>2018-09-17T08:58:46Z</time>
      </trkpt>
      <trkpt lat="47.32818097807467" lon="10.818978985771537">
        <ele>879.74000000000001</ele>
        <time>2018-09-17T08:58:56Z</time>
      </trkpt>
      <trkpt lat="47.327790968120098" lon="10.819323984906077">
        <ele>878.29999999999995</ele>
        <time>2018-09-17T08:59:01Z</time>
      </trkpt>
      <trkpt lat="47.327185962349176" lon="10.820181034505367">
        <ele>880.22000000000003</ele>
        <time>2018-09-17T08:59:09Z</time>
      </trkpt>
      <trkpt lat="47.326738033443689" lon="10.820943033322692">
        <ele>881.66999999999996</ele>
        <time>2018-09-17T08:59:18Z</time>
      </trkpt>
      <trkpt lat="47.326180972158909" lon="10.821774015203118">
        <ele>880.71000000000004</ele>
        <time>2018-09-17T08:59:25Z</time>
      </trkpt>
      <trkpt lat="47.325056958943605" lon="10.822815969586372">
        <ele>876.86000000000001</ele>
        <time>2018-09-17T08:59:35Z</time>
      </trkpt>
      <trkpt lat="47.324152970686555" lon="10.823430027812719">
        <ele>872.04999999999995</ele>
        <time>2018-09-17T08:59:41Z</time>
      </trkpt>
      <trkpt lat="47.32396898791194" lon="10.823545027524233">
        <ele>871.09000000000003</ele>
        <time>2018-09-17T08:59:42Z</time>
      </trkpt>
      <trkpt lat="47.32377695851028" lon="10.823663966730237">
        <ele>870.13</ele>
        <time>2018-09-17T08:59:43Z</time>
      </trkpt>
      <trkpt lat="47.317335968837142" lon="10.825162986293435">
        <ele>870.13</ele>
        <time>2018-09-17T09:00:14Z</time>
      </trkpt>
      <trkpt lat="47.317146034911275" lon="10.825311010703444">
        <ele>870.13</ele>
        <time>2018-09-17T09:00:15Z</time>
      </trkpt>
      <trkpt lat="47.316789971664548" lon="10.825663972645998">
        <ele>870.13</ele>
        <time>2018-09-17T09:00:17Z</time>
      </trkpt>
      <trkpt lat="47.316323015838861" lon="10.826302003115416">
        <ele>870.13</ele>
        <time>2018-09-17T09:00:20Z</time>
      </trkpt>
      <trkpt lat="47.316199969500303" lon="10.826562009751797">
        <ele>870.13</ele>
        <time>2018-09-17T09:00:21Z</time>
      </trkpt>
      <trkpt lat="47.315777018666267" lon="10.827476978302002">
        <ele>869.16999999999996</ele>
        <time>2018-09-17T09:00:30Z</time>
      </trkpt>
      <trkpt lat="47.315411986783147" lon="10.828227996826172">
        <ele>865.32000000000005</ele>
        <time>2018-09-17T09:00:33Z</time>
      </trkpt>
      <trkpt lat="47.31443197466433" lon="10.829708995297551">
        <ele>861.48000000000002</ele>
        <time>2018-09-17T09:00:39Z</time>
      </trkpt>
      <trkpt lat="47.31410700827837" lon="10.830171005800366">
        <ele>861.96000000000004</ele>
        <time>2018-09-17T09:00:41Z</time>
      </trkpt>
      <trkpt lat="47.313262028619647" lon="10.83144798874855">
        <ele>857.63</ele>
        <time>2018-09-17T09:00:49Z</time>
      </trkpt>
      <trkpt lat="47.312091998755932" lon="10.833543967455626">
        <ele>850.41999999999996</ele>
        <time>2018-09-17T09:00:59Z</time>
      </trkpt>
      <trkpt lat="47.311154985800385" lon="10.834794966503978">
        <ele>847.05999999999995</ele>
        <time>2018-09-17T09:01:06Z</time>
      </trkpt>
      <trkpt lat="47.310137003660202" lon="10.83542101085186">
        <ele>843.69000000000005</ele>
        <time>2018-09-17T09:01:13Z</time>
      </trkpt>
      <trkpt lat="47.306062979623675" lon="10.839210972189903">
        <ele>836.48000000000002</ele>
        <time>2018-09-17T09:01:47Z</time>
      </trkpt>
      <trkpt lat="47.305595017969608" lon="10.840145973488688">
        <ele>834.08000000000004</ele>
        <time>2018-09-17T09:01:53Z</time>
      </trkpt>
      <trkpt lat="47.30549200437963" lon="10.840249992907047">
        <ele>834.08000000000004</ele>
        <time>2018-09-17T09:01:54Z</time>
      </trkpt>
      <trkpt lat="47.305386979132891" lon="10.840309001505375">
        <ele>833.60000000000002</ele>
        <time>2018-09-17T09:01:55Z</time>
      </trkpt>
      <trkpt lat="47.305280026048422" lon="10.840330040082335">
        <ele>832.63999999999999</ele>
        <time>2018-09-17T09:01:56Z</time>
      </trkpt>
      <trkpt lat="47.305134013295174" lon="10.840330040082335">
        <ele>831.67999999999995</ele>
        <time>2018-09-17T09:01:57Z</time>
      </trkpt>
      <trkpt lat="47.305052038282156" lon="10.840281005948782">
        <ele>830.72000000000003</ele>
        <time>2018-09-17T09:01:58Z</time>
      </trkpt>
      <trkpt lat="47.304928991943598" lon="10.840206993743777">
        <ele>829.75999999999999</ele>
        <time>2018-09-17T09:01:59Z</time>
      </trkpt>
      <trkpt lat="47.30411603115499" lon="10.839606011286378">
        <ele>826.87</ele>
        <time>2018-09-17T09:02:05Z</time>
      </trkpt>
      <trkpt lat="47.304002037271857" lon="10.839485982432961">
        <ele>827.35000000000002</ele>
        <time>2018-09-17T09:02:06Z</time>
      </trkpt>
      <trkpt lat="47.303889971226454" lon="10.839368971064687">
        <ele>827.35000000000002</ele>
        <time>2018-09-17T09:02:07Z</time>
      </trkpt>
      <trkpt lat="47.303781006485224" lon="10.839204015210271">
        <ele>827.35000000000002</ele>
        <time>2018-09-17T09:02:08Z</time>
      </trkpt>
      <trkpt lat="47.303701965138316" lon="10.839016009122133">
        <ele>827.83000000000004</ele>
        <time>2018-09-17T09:02:09Z</time>
      </trkpt>
      <trkpt lat="47.303635999560356" lon="10.838820040225983">
        <ele>828.30999999999995</ele>
        <time>2018-09-17T09:02:10Z</time>
      </trkpt>
      <trkpt lat="47.303585037589073" lon="10.838592974469066">
        <ele>828.78999999999996</ele>
        <time>2018-09-17T09:02:11Z</time>
      </trkpt>
      <trkpt lat="47.303544972091913" lon="10.838361969217658">
        <ele>829.75999999999999</ele>
        <time>2018-09-17T09:02:12Z</time>
      </trkpt>
      <trkpt lat="47.303502978757024" lon="10.838110009208322">
        <ele>830.24000000000001</ele>
        <time>2018-09-17T09:02:13Z</time>
      </trkpt>
      <trkpt lat="47.303502978757024" lon="10.837855031713843">
        <ele>831.20000000000005</ele>
        <time>2018-09-17T09:02:14Z</time>
      </trkpt>
      <trkpt lat="47.303502978757024" lon="10.83759100176394">
        <ele>832.15999999999997</ele>
        <time>2018-09-17T09:02:15Z</time>
      </trkpt>
      <trkpt lat="47.303485041484237" lon="10.837059002369642">
        <ele>833.60000000000002</ele>
        <time>2018-09-17T09:02:17Z</time>
      </trkpt>
      <trkpt lat="47.303467020392418" lon="10.836809976026416">
        <ele>834.55999999999995</ele>
        <time>2018-09-17T09:02:18Z</time>
      </trkpt>
      <trkpt lat="47.303410023450851" lon="10.836594980210066">
        <ele>835.03999999999996</ele>
        <time>2018-09-17T09:02:19Z</time>
      </trkpt>
      <trkpt lat="47.30334104038775" lon="10.836388031020761">
        <ele>835.51999999999998</ele>
        <time>2018-09-17T09:02:20Z</time>
      </trkpt>
      <trkpt lat="47.303245989605784" lon="10.836209999397397">
        <ele>836</ele>
        <time>2018-09-17T09:02:21Z</time>
      </trkpt>
      <trkpt lat="47.303136019036174" lon="10.836028028279543">
        <ele>836.48000000000002</ele>
        <time>2018-09-17T09:02:22Z</time>
      </trkpt>
      <trkpt lat="47.302992017939687" lon="10.835905987769365">
        <ele>836.48000000000002</ele>
        <time>2018-09-17T09:02:23Z</time>
      </trkpt>
      <trkpt lat="47.302837036550045" lon="10.835794005542994">
        <ele>836.96000000000004</ele>
        <time>2018-09-17T09:02:24Z</time>
      </trkpt>
      <trkpt lat="47.302678031846881" lon="10.835703983902931">
        <ele>837.45000000000005</ele>
        <time>2018-09-17T09:02:25Z</time>
      </trkpt>
      <trkpt lat="47.302510980516672" lon="10.835664002224803">
        <ele>837.45000000000005</ele>
        <time>2018-09-17T09:02:26Z</time>
      </trkpt>
      <trkpt lat="47.302350969985127" lon="10.835625026375055">
        <ele>837.45000000000005</ele>
        <time>2018-09-17T09:02:27Z</time>
      </trkpt>
      <trkpt lat="47.302189031615853" lon="10.835585966706276">
        <ele>837.45000000000005</ele>
        <time>2018-09-17T09:02:28Z</time>
      </trkpt>
      <trkpt lat="47.30203396640718" lon="10.835498962551355">
        <ele>837.45000000000005</ele>
        <time>2018-09-17T09:02:29Z</time>
      </trkpt>
      <trkpt lat="47.301887031644583" lon="10.835366025567055">
        <ele>837.45000000000005</ele>
        <time>2018-09-17T09:02:30Z</time>
      </trkpt>
      <trkpt lat="47.301742024719715" lon="10.835235016420484">
        <ele>836.96000000000004</ele>
        <time>2018-09-17T09:02:31Z</time>
      </trkpt>
      <trkpt lat="47.301607998088002" lon="10.835115993395448">
        <ele>836.96000000000004</ele>
        <time>2018-09-17T09:02:32Z</time>
      </trkpt>
      <trkpt lat="47.301471037790179" lon="10.835017003118992">
        <ele>836.96000000000004</ele>
        <time>2018-09-17T09:02:33Z</time>
      </trkpt>
      <trkpt lat="47.301331982016563" lon="10.834964029490948">
        <ele>836.96000000000004</ele>
        <time>2018-09-17T09:02:34Z</time>
      </trkpt>
      <trkpt lat="47.30119401589036" lon="10.834912983700633">
        <ele>836.96000000000004</ele>
        <time>2018-09-17T09:02:35Z</time>
      </trkpt>
      <trkpt lat="47.301055965945125" lon="10.834907032549381">
        <ele>836.48000000000002</ele>
        <time>2018-09-17T09:02:36Z</time>
      </trkpt>
      <trkpt lat="47.300913976505399" lon="10.834913989529014">
        <ele>836.48000000000002</ele>
        <time>2018-09-17T09:02:37Z</time>
      </trkpt>
      <trkpt lat="47.300768969580531" lon="10.834922036156058">
        <ele>836</ele>
        <time>2018-09-17T09:02:38Z</time>
      </trkpt>
      <trkpt lat="47.300326991826296" lon="10.834943996742368">
        <ele>835.03999999999996</ele>
        <time>2018-09-17T09:02:41Z</time>
      </trkpt>
      <trkpt lat="47.300171004608274" lon="10.834894962608814">
        <ele>834.55999999999995</ele>
        <time>2018-09-17T09:02:42Z</time>
      </trkpt>
      <trkpt lat="47.300021974369884" lon="10.834847018122673">
        <ele>834.08000000000004</ele>
        <time>2018-09-17T09:02:43Z</time>
      </trkpt>
      <trkpt lat="47.299874033778906" lon="10.834799995645881">
        <ele>833.60000000000002</ele>
        <time>2018-09-17T09:02:44Z</time>
      </trkpt>
      <trkpt lat="47.299731960520148" lon="10.834703017026186">
        <ele>833.12</ele>
        <time>2018-09-17T09:02:45Z</time>
      </trkpt>
      <trkpt lat="47.299595000222325" lon="10.834602015092969">
        <ele>832.63999999999999</ele>
        <time>2018-09-17T09:02:46Z</time>
      </trkpt>
      <trkpt lat="47.2988520283252" lon="10.833975970745087">
        <ele>828.78999999999996</ele>
        <time>2018-09-17T09:02:52Z</time>
      </trkpt>
      <trkpt lat="47.298743985593319" lon="10.833836998790503">
        <ele>828.30999999999995</ele>
        <time>2018-09-17T09:02:53Z</time>
      </trkpt>
      <trkpt lat="47.298656981438398" lon="10.833662990480661">
        <ele>827.83000000000004</ele>
        <time>2018-09-17T09:02:54Z</time>
      </trkpt>
      <trkpt lat="47.298566037788987" lon="10.833481019362807">
        <ele>827.35000000000002</ele>
        <time>2018-09-17T09:02:55Z</time>
      </trkpt>
      <trkpt lat="47.298470987007022" lon="10.833292007446289">
        <ele>826.87</ele>
        <time>2018-09-17T09:02:56Z</time>
      </trkpt>
      <trkpt lat="47.298395968973637" lon="10.833085980266333">
        <ele>826.38999999999999</ele>
        <time>2018-09-17T09:02:57Z</time>
      </trkpt>
      <trkpt lat="47.298325980082154" lon="10.832870984449983">
        <ele>825.90999999999997</ele>
        <time>2018-09-17T09:02:58Z</time>
      </trkpt>
      <trkpt lat="47.29825196787715" lon="10.832662023603916">
        <ele>825.90999999999997</ele>
        <time>2018-09-17T09:02:59Z</time>
      </trkpt>
      <trkpt lat="47.298150965943933" lon="10.832469994202256">
        <ele>825.42999999999995</ele>
        <time>2018-09-17T09:03:00Z</time>
      </trkpt>
      <trkpt lat="47.298031020909548" lon="10.832287017256021">
        <ele>824.95000000000005</ele>
        <time>2018-09-17T09:03:01Z</time>
      </trkpt>
      <trkpt lat="47.29790504090488" lon="10.832108985632658">
        <ele>824.47000000000003</ele>
        <time>2018-09-17T09:03:02Z</time>
      </trkpt>
      <trkpt lat="47.29775601066649" lon="10.831949980929494">
        <ele>823.99000000000001</ele>
        <time>2018-09-17T09:03:03Z</time>
      </trkpt>
      <trkpt lat="47.297582002356648" lon="10.83183104172349">
        <ele>823.50999999999999</ele>
        <time>2018-09-17T09:03:04Z</time>
      </trkpt>
      <trkpt lat="47.297402964904904" lon="10.831710007041693">
        <ele>823.50999999999999</ele>
        <time>2018-09-17T09:03:05Z</time>
      </trkpt>
      <trkpt lat="47.296491013839841" lon="10.830893022939563">
        <ele>821.10000000000002</ele>
        <time>2018-09-17T09:03:11Z</time>
      </trkpt>
      <trkpt lat="47.295047985389829" lon="10.829763980582356">
        <ele>823.99000000000001</ele>
        <time>2018-09-17T09:03:21Z</time>
      </trkpt>
      <trkpt lat="47.293616021052003" lon="10.828748010098934">
        <ele>826.38999999999999</ele>
        <time>2018-09-17T09:03:31Z</time>
      </trkpt>
      <trkpt lat="47.293174965307117" lon="10.828150967136025">
        <ele>825.90999999999997</ele>
        <time>2018-09-17T09:03:34Z</time>
      </trkpt>
      <trkpt lat="47.293029958382249" lon="10.827865982428193">
        <ele>825.42999999999995</ele>
        <time>2018-09-17T09:03:35Z</time>
      </trkpt>
      <trkpt lat="47.292035026475787" lon="10.825908975675702">
        <ele>823.02999999999997</ele>
        <time>2018-09-17T09:03:42Z</time>
      </trkpt>
      <trkpt lat="47.291780970990658" lon="10.825479989871383">
        <ele>822.54999999999995</ele>
        <time>2018-09-17T09:03:44Z</time>
      </trkpt>
      <trkpt lat="47.291514007374644" lon="10.825125016272068">
        <ele>822.54999999999995</ele>
        <time>2018-09-17T09:03:46Z</time>
      </trkpt>
      <trkpt lat="47.290525026619434" lon="10.824080966413021">
        <ele>821.10000000000002</ele>
        <time>2018-09-17T09:03:53Z</time>
      </trkpt>
      <trkpt lat="47.290198970586061" lon="10.823743008077145">
        <ele>820.62</ele>
        <time>2018-09-17T09:03:55Z</time>
      </trkpt>
      <trkpt lat="47.289328007027507" lon="10.822262009605765">
        <ele>820.62</ele>
        <time>2018-09-17T09:04:00Z</time>
      </trkpt>
      <trkpt lat="47.288337014615536" lon="10.820619994774461">
        <ele>821.10000000000002</ele>
        <time>2018-09-17T09:04:06Z</time>
      </trkpt>
      <trkpt lat="47.287683980539441" lon="10.819387016817927">
        <ele>820.13999999999999</ele>
        <time>2018-09-17T09:04:12Z</time>
      </trkpt>
      <trkpt lat="47.287048967555165" lon="10.818187985569239">
        <ele>819.17999999999995</ele>
        <time>2018-09-17T09:04:21Z</time>
      </trkpt>
      <trkpt lat="47.286933967843652" lon="10.817969972267747">
        <ele>818.22000000000003</ele>
        <time>2018-09-17T09:04:25Z</time>
      </trkpt>
      <trkpt lat="47.286929022520781" lon="10.817962009459734">
        <ele>818.22000000000003</ele>
        <time>2018-09-17T09:04:28Z</time>
      </trkpt>
      <trkpt lat="47.286913013085723" lon="10.817930996417999">
        <ele>818.22000000000003</ele>
        <time>2018-09-17T09:04:29Z</time>
      </trkpt>
      <trkpt lat="47.286882000043988" lon="10.817871987819672">
        <ele>817.74000000000001</ele>
        <time>2018-09-17T09:04:30Z</time>
      </trkpt>
      <trkpt lat="47.286836989223957" lon="10.817788001149893">
        <ele>817.25999999999999</ele>
        <time>2018-09-17T09:04:31Z</time>
      </trkpt>
      <trkpt lat="47.286783009767532" lon="10.817685993388295">
        <ele>816.77999999999997</ele>
        <time>2018-09-17T09:04:32Z</time>
      </trkpt>
      <trkpt lat="47.286730958148837" lon="10.81758800894022">
        <ele>816.77999999999997</ele>
        <time>2018-09-17T09:04:33Z</time>
      </trkpt>
      <trkpt lat="47.286688964813948" lon="10.817507961764932">
        <ele>816.29999999999995</ele>
        <time>2018-09-17T09:04:34Z</time>
      </trkpt>
      <trkpt lat="47.286644037812948" lon="10.817423975095153">
        <ele>815.82000000000005</ele>
        <time>2018-09-17T09:04:36Z</time>
      </trkpt>
      <trkpt lat="47.286644037812948" lon="10.817423975095153">
        <ele>815.34000000000003</ele>
        <time>2018-09-17T09:04:47Z</time>
      </trkpt>
      <trkpt lat="47.286644037812948" lon="10.817423975095153">
        <ele>815.34000000000003</ele>
        <time>2018-09-17T09:05:35Z</time>
      </trkpt>
      <trkpt lat="47.286644037812948" lon="10.817423975095153">
        <ele>814.85000000000002</ele>
        <time>2018-09-17T09:06:27Z</time>
      </trkpt>
      <trkpt lat="47.286644037812948" lon="10.817423975095153">
        <ele>813.40999999999997</ele>
        <time>2018-09-17T09:07:19Z</time>
      </trkpt>
      <trkpt lat="47.286644037812948" lon="10.817423975095153">
        <ele>813.40999999999997</ele>
        <time>2018-09-17T09:07:31Z</time>
      </trkpt>
      <trkpt lat="47.286616964265704" lon="10.81737301312387">
        <ele>813.40999999999997</ele>
        <time>2018-09-17T09:07:32Z</time>
      </trkpt>
      <trkpt lat="47.286359975114465" lon="10.816868003457785">
        <ele>812.45000000000005</ele>
        <time>2018-09-17T09:07:37Z</time>
      </trkpt>
      <trkpt lat="47.28572697378695" lon="10.815488006919622">
        <ele>815.34000000000003</ele>
        <time>2018-09-17T09:07:45Z</time>
      </trkpt>
      <trkpt lat="47.285632006824017" lon="10.815341994166374">
        <ele>815.82000000000005</ele>
        <time>2018-09-17T09:07:46Z</time>
      </trkpt>
      <trkpt lat="47.284832037985325" lon="10.814112033694983">
        <ele>813.40999999999997</ele>
        <time>2018-09-17T09:07:54Z</time>
      </trkpt>
      <trkpt lat="47.284404980018735" lon="10.81303596496582">
        <ele>811.49000000000001</ele>
        <time>2018-09-17T09:07:59Z</time>
      </trkpt>
      <trkpt lat="47.284348988905549" lon="10.812765983864665">
        <ele>811.49000000000001</ele>
        <time>2018-09-17T09:08:00Z</time>
      </trkpt>
      <trkpt lat="47.28428696282208" lon="10.812479993328452">
        <ele>811.00999999999999</ele>
        <time>2018-09-17T09:08:01Z</time>
      </trkpt>
      <trkpt lat="47.284203981980681" lon="10.812190985307097">
        <ele>811.00999999999999</ele>
        <time>2018-09-17T09:08:02Z</time>
      </trkpt>
      <trkpt lat="47.284105997532606" lon="10.811898959800601">
        <ele>811.00999999999999</ele>
        <time>2018-09-17T09:08:03Z</time>
      </trkpt>
      <trkpt lat="47.283996026962996" lon="10.811606012284756">
        <ele>811.00999999999999</ele>
        <time>2018-09-17T09:08:04Z</time>
      </trkpt>
      <trkpt lat="47.282838989049196" lon="10.808878038078547">
        <ele>808.13</ele>
        <time>2018-09-17T09:08:14Z</time>
      </trkpt>
      <trkpt lat="47.281478019431233" lon="10.805962979793549">
        <ele>803.79999999999995</ele>
        <time>2018-09-17T09:08:25Z</time>
      </trkpt>
      <trkpt lat="47.280903020873666" lon="10.804586000740528">
        <ele>803.79999999999995</ele>
        <time>2018-09-17T09:08:30Z</time>
      </trkpt>
      <trkpt lat="47.28028804063797" lon="10.802710969001055">
        <ele>804.27999999999997</ele>
        <time>2018-09-17T09:08:37Z</time>
      </trkpt>
      <trkpt lat="47.279759980738163" lon="10.800751028582454">
        <ele>807.15999999999997</ele>
        <time>2018-09-17T09:08:45Z</time>
      </trkpt>
      <trkpt lat="47.27902103215456" lon="10.798911033198237">
        <ele>810.04999999999995</ele>
        <time>2018-09-17T09:08:54Z</time>
      </trkpt>
      <trkpt lat="47.27893402799964" lon="10.79872403293848">
        <ele>810.04999999999995</ele>
        <time>2018-09-17T09:08:55Z</time>
      </trkpt>
      <trkpt lat="47.278866972774267" lon="10.79851197078824">
        <ele>810.52999999999997</ele>
        <time>2018-09-17T09:08:56Z</time>
      </trkpt>
      <trkpt lat="47.278795978054404" lon="10.798291023820639">
        <ele>810.52999999999997</ele>
        <time>2018-09-17T09:08:57Z</time>
      </trkpt>
      <trkpt lat="47.278748033568263" lon="10.798046020790935">
        <ele>810.52999999999997</ele>
        <time>2018-09-17T09:08:58Z</time>
      </trkpt>
      <trkpt lat="47.278703022748232" lon="10.797789031639695">
        <ele>811.00999999999999</ele>
        <time>2018-09-17T09:08:59Z</time>
      </trkpt>
      <trkpt lat="47.27867997251451" lon="10.797527013346553">
        <ele>811.00999999999999</ele>
        <time>2018-09-17T09:09:00Z</time>
      </trkpt>
      <trkpt lat="47.278662035241723" lon="10.797285027801991">
        <ele>811.00999999999999</ele>
        <time>2018-09-17T09:09:01Z</time>
      </trkpt>
      <trkpt lat="47.278566984459758" lon="10.796475000679493">
        <ele>811.00999999999999</ele>
        <time>2018-09-17T09:09:05Z</time>
      </trkpt>
      <trkpt lat="47.27828904055059" lon="10.795446038246155">
        <ele>810.52999999999997</ele>
        <time>2018-09-17T09:09:10Z</time>
      </trkpt>
      <trkpt lat="47.278231959789991" lon="10.795234981924295">
        <ele>810.52999999999997</ele>
        <time>2018-09-17T09:09:11Z</time>
      </trkpt>
      <trkpt lat="47.277595018967986" lon="10.7931590359658">
        <ele>812.45000000000005</ele>
        <time>2018-09-17T09:09:21Z</time>
      </trkpt>
      <trkpt lat="47.27751798927784" lon="10.792929958552122">
        <ele>812.45000000000005</ele>
        <time>2018-09-17T09:09:22Z</time>
      </trkpt>
      <trkpt lat="47.27680996991694" lon="10.790547989308834">
        <ele>815.34000000000003</ele>
        <time>2018-09-17T09:09:32Z</time>
      </trkpt>
      <trkpt lat="47.276162970811129" lon="10.788222011178732">
        <ele>817.74000000000001</ele>
        <time>2018-09-17T09:09:40Z</time>
      </trkpt>
      <trkpt lat="47.27603598497808" lon="10.787968961521983">
        <ele>818.22000000000003</ele>
        <time>2018-09-17T09:09:41Z</time>
      </trkpt>
      <trkpt lat="47.275900030508637" lon="10.78772203065455">
        <ele>818.22000000000003</ele>
        <time>2018-09-17T09:09:42Z</time>
      </trkpt>
      <trkpt lat="47.275766003876925" lon="10.787483984604478">
        <ele>818.22000000000003</ele>
        <time>2018-09-17T09:09:43Z</time>
      </trkpt>
      <trkpt lat="47.275608005002141" lon="10.787282986566424">
        <ele>818.22000000000003</ele>
        <time>2018-09-17T09:09:44Z</time>
      </trkpt>
      <trkpt lat="47.275449000298977" lon="10.78708098269999">
        <ele>818.22000000000003</ele>
        <time>2018-09-17T09:09:45Z</time>
      </trkpt>
      <trkpt lat="47.274009995162487" lon="10.784767996519804">
        <ele>815.82000000000005</ele>
        <time>2018-09-17T09:09:55Z</time>
      </trkpt>
      <trkpt lat="47.273211032152176" lon="10.782816018909216">
        <ele>812.45000000000005</ele>
        <time>2018-09-17T09:10:02Z</time>
      </trkpt>
      <trkpt lat="47.271807985380292" lon="10.780455004423857">
        <ele>806.20000000000005</ele>
        <time>2018-09-17T09:10:12Z</time>
      </trkpt>
      <trkpt lat="47.271112035959959" lon="10.778821958228946">
        <ele>801.88</ele>
        <time>2018-09-17T09:10:20Z</time>
      </trkpt>
      <trkpt lat="47.271032994613051" lon="10.778606962412596">
        <ele>801.39999999999998</ele>
        <time>2018-09-17T09:10:21Z</time>
      </trkpt>
      <trkpt lat="47.27094498462975" lon="10.778401019051671">
        <ele>800.44000000000005</ele>
        <time>2018-09-17T09:10:22Z</time>
      </trkpt>
      <trkpt lat="47.270842976868153" lon="10.778213012963533">
        <ele>799.95000000000005</ele>
        <time>2018-09-17T09:10:23Z</time>
      </trkpt>
      <trkpt lat="47.270724037662148" lon="10.778048979118466">
        <ele>799.47000000000003</ele>
        <time>2018-09-17T09:10:24Z</time>
      </trkpt>
      <trkpt lat="47.270593028515577" lon="10.777885029092431">
        <ele>798.99000000000001</ele>
        <time>2018-09-17T09:10:25Z</time>
      </trkpt>
      <trkpt lat="47.269355021417141" lon="10.77620898373425">
        <ele>795.14999999999998</ele>
        <time>2018-09-17T09:10:34Z</time>
      </trkpt>
      <trkpt lat="47.268381966277957" lon="10.774174025282264">
        <ele>795.63</ele>
        <time>2018-09-17T09:10:42Z</time>
      </trkpt>
      <trkpt lat="47.267676964402199" lon="10.772264963015914">
        <ele>798.99000000000001</ele>
        <time>2018-09-17T09:10:48Z</time>
      </trkpt>
      <trkpt lat="47.267166003584862" lon="10.770994015038013">
        <ele>802.36000000000001</ele>
        <time>2018-09-17T09:10:53Z</time>
      </trkpt>
      <trkpt lat="47.267031976953149" lon="10.770777007564902">
        <ele>802.84000000000003</ele>
        <time>2018-09-17T09:10:54Z</time>
      </trkpt>
      <trkpt lat="47.266876995563507" lon="10.770582966506481">
        <ele>803.32000000000005</ele>
        <time>2018-09-17T09:10:55Z</time>
      </trkpt>
      <trkpt lat="47.265652986243367" lon="10.768866017460823">
        <ele>805.72000000000003</ele>
        <time>2018-09-17T09:11:03Z</time>
      </trkpt>
      <trkpt lat="47.265038006007671" lon="10.767691964283586">
        <ele>808.13</ele>
        <time>2018-09-17T09:11:09Z</time>
      </trkpt>
      <trkpt lat="47.264380026608706" lon="10.766330994665623">
        <ele>809.57000000000005</ele>
        <time>2018-09-17T09:11:18Z</time>
      </trkpt>
      <trkpt lat="47.26359698921442" lon="10.765346037223935">
        <ele>809.09000000000003</ele>
        <time>2018-09-17T09:11:28Z</time>
      </trkpt>
      <trkpt lat="47.263537980616093" lon="10.765200024470687">
        <ele>809.09000000000003</ele>
        <time>2018-09-17T09:11:29Z</time>
      </trkpt>
      <trkpt lat="47.263494981452823" lon="10.765052000060678">
        <ele>809.09000000000003</ele>
        <time>2018-09-17T09:11:30Z</time>
      </trkpt>
      <trkpt lat="47.263485006988049" lon="10.764891989529133">
        <ele>809.57000000000005</ele>
        <time>2018-09-17T09:11:31Z</time>
      </trkpt>
      <trkpt lat="47.263486012816429" lon="10.764724016189575">
        <ele>810.04999999999995</ele>
        <time>2018-09-17T09:11:32Z</time>
      </trkpt>
      <trkpt lat="47.263513002544641" lon="10.764556964859366">
        <ele>811.00999999999999</ele>
        <time>2018-09-17T09:11:33Z</time>
      </trkpt>
      <trkpt lat="47.263538986444473" lon="10.764396032318473">
        <ele>811.49000000000001</ele>
        <time>2018-09-17T09:11:34Z</time>
      </trkpt>
      <trkpt lat="47.263562036678195" lon="10.764251025393605">
        <ele>811.97000000000003</ele>
        <time>2018-09-17T09:11:35Z</time>
      </trkpt>
      <trkpt lat="47.263560025021434" lon="10.764126973226666">
        <ele>812.45000000000005</ele>
        <time>2018-09-17T09:11:36Z</time>
      </trkpt>
      <trkpt lat="47.26353001780808" lon="10.764015996828675">
        <ele>812.45000000000005</ele>
        <time>2018-09-17T09:11:37Z</time>
      </trkpt>
      <trkpt lat="47.263472015038133" lon="10.763913989067078">
        <ele>812.92999999999995</ele>
        <time>2018-09-17T09:11:38Z</time>
      </trkpt>
      <trkpt lat="47.263404037803411" lon="10.763812987133861">
        <ele>812.92999999999995</ele>
        <time>2018-09-17T09:11:39Z</time>
      </trkpt>
      <trkpt lat="47.263332037255168" lon="10.763707961887121">
        <ele>812.92999999999995</ele>
        <time>2018-09-17T09:11:40Z</time>
      </trkpt>
      <trkpt lat="47.263260958716273" lon="10.763604026287794">
        <ele>813.40999999999997</ele>
        <time>2018-09-17T09:11:41Z</time>
      </trkpt>
      <trkpt lat="47.26318996399641" lon="10.763491038233042">
        <ele>813.40999999999997</ele>
        <time>2018-09-17T09:11:42Z</time>
      </trkpt>
      <trkpt lat="47.263045962899923" lon="10.763258021324873">
        <ele>813.88999999999999</ele>
        <time>2018-09-17T09:11:44Z</time>
      </trkpt>
      <trkpt lat="47.262977985665202" lon="10.763145033270121">
        <ele>814.37</ele>
        <time>2018-09-17T09:11:45Z</time>
      </trkpt>
      <trkpt lat="47.262912020087242" lon="10.763027016073465">
        <ele>814.37</ele>
        <time>2018-09-17T09:11:46Z</time>
      </trkpt>
      <trkpt lat="47.262848988175392" lon="10.762902041897178">
        <ele>814.37</ele>
        <time>2018-09-17T09:11:47Z</time>
      </trkpt>
      <trkpt lat="47.262787967920303" lon="10.762772038578987">
        <ele>814.37</ele>
        <time>2018-09-17T09:11:48Z</time>
      </trkpt>
      <trkpt lat="47.262591999024153" lon="10.762402983382344">
        <ele>814.37</ele>
        <time>2018-09-17T09:11:51Z</time>
      </trkpt>
      <trkpt lat="47.262525027617812" lon="10.76228597201407">
        <ele>814.85000000000002</ele>
        <time>2018-09-17T09:11:52Z</time>
      </trkpt>
      <trkpt lat="47.262460989877582" lon="10.762176001444459">
        <ele>815.34000000000003</ele>
        <time>2018-09-17T09:11:53Z</time>
      </trkpt>
      <trkpt lat="47.262389995157719" lon="10.762053038924932">
        <ele>815.34000000000003</ele>
        <time>2018-09-17T09:11:54Z</time>
      </trkpt>
      <trkpt lat="47.262302991002798" lon="10.762021020054817">
        <ele>815.82000000000005</ele>
        <time>2018-09-17T09:11:55Z</time>
      </trkpt>
      <trkpt lat="47.262194026261568" lon="10.761981960386038">
        <ele>816.29999999999995</ele>
        <time>2018-09-17T09:11:56Z</time>
      </trkpt>
      <trkpt lat="47.262081960216165" lon="10.761952036991715">
        <ele>816.29999999999995</ele>
        <time>2018-09-17T09:11:57Z</time>
      </trkpt>
      <trkpt lat="47.261968972161412" lon="10.761929992586374">
        <ele>816.77999999999997</ele>
        <time>2018-09-17T09:11:58Z</time>
      </trkpt>
      <trkpt lat="47.26185698993504" lon="10.761907026171684">
        <ele>817.25999999999999</ele>
        <time>2018-09-17T09:11:59Z</time>
      </trkpt>
      <trkpt lat="47.261749031022191" lon="10.761841982603073">
        <ele>817.74000000000001</ele>
        <time>2018-09-17T09:12:00Z</time>
      </trkpt>
      <trkpt lat="47.261642999947071" lon="10.761765036731958">
        <ele>818.22000000000003</ele>
        <time>2018-09-17T09:12:01Z</time>
      </trkpt>
      <trkpt lat="47.261546021327376" lon="10.761651964858174">
        <ele>818.70000000000005</ele>
        <time>2018-09-17T09:12:02Z</time>
      </trkpt>
      <trkpt lat="47.261460023000836" lon="10.761519027873874">
        <ele>819.17999999999995</ele>
        <time>2018-09-17T09:12:03Z</time>
      </trkpt>
      <trkpt lat="47.261370001360774" lon="10.761378966271877">
        <ele>819.17999999999995</ele>
        <time>2018-09-17T09:12:04Z</time>
      </trkpt>
      <trkpt lat="47.261277968063951" lon="10.76123496517539">
        <ele>819.65999999999997</ele>
        <time>2018-09-17T09:12:05Z</time>
      </trkpt>
      <trkpt lat="47.260556034743786" lon="10.759502006694674">
        <ele>819.17999999999995</ele>
        <time>2018-09-17T09:12:15Z</time>
      </trkpt>
      <trkpt lat="47.259950023144484" lon="10.757345007732511">
        <ele>819.65999999999997</ele>
        <time>2018-09-17T09:12:26Z</time>
      </trkpt>
      <trkpt lat="47.259934013709426" lon="10.757130011916161">
        <ele>820.13999999999999</ele>
        <time>2018-09-17T09:12:27Z</time>
      </trkpt>
      <trkpt lat="47.259906018152833" lon="10.756079005077481">
        <ele>822.54999999999995</ele>
        <time>2018-09-17T09:12:32Z</time>
      </trkpt>
      <trkpt lat="47.259867964312434" lon="10.755873983725905">
        <ele>823.02999999999997</ele>
        <time>2018-09-17T09:12:33Z</time>
      </trkpt>
      <trkpt lat="47.259826976805925" lon="10.755670974031091">
        <ele>823.50999999999999</ele>
        <time>2018-09-17T09:12:34Z</time>
      </trkpt>
      <trkpt lat="47.259760005399585" lon="10.755471987649798">
        <ele>823.50999999999999</ele>
        <time>2018-09-17T09:12:35Z</time>
      </trkpt>
      <trkpt lat="47.259682975709438" lon="10.755274007096887">
        <ele>823.99000000000001</ele>
        <time>2018-09-17T09:12:36Z</time>
      </trkpt>
      <trkpt lat="47.259571999311447" lon="10.755106033757329">
        <ele>824.47000000000003</ele>
        <time>2018-09-17T09:12:37Z</time>
      </trkpt>
      <trkpt lat="47.259446019306779" lon="10.754936970770359">
        <ele>824.47000000000003</ele>
        <time>2018-09-17T09:12:38Z</time>
      </trkpt>
      <trkpt lat="47.259311992675066" lon="10.754758017137647">
        <ele>824.95000000000005</ele>
        <time>2018-09-17T09:12:39Z</time>
      </trkpt>
      <trkpt lat="47.259150976315141" lon="10.754606975242496">
        <ele>824.95000000000005</ele>
        <time>2018-09-17T09:12:40Z</time>
      </trkpt>
      <trkpt lat="47.257796041667461" lon="10.753573989495635">
        <ele>826.87</ele>
        <time>2018-09-17T09:12:47Z</time>
      </trkpt>
      <trkpt lat="47.256645960733294" lon="10.752299018204212">
        <ele>826.87</ele>
        <time>2018-09-17T09:12:54Z</time>
      </trkpt>
      <trkpt lat="47.255337964743376" lon="10.750863030552864">
        <ele>823.99000000000001</ele>
        <time>2018-09-17T09:13:02Z</time>
      </trkpt>
      <trkpt lat="47.253404008224607" lon="10.748933013528585">
        <ele>823.02999999999997</ele>
        <time>2018-09-17T09:13:14Z</time>
      </trkpt>
      <trkpt lat="47.252027029171586" lon="10.747358975932002">
        <ele>825.90999999999997</ele>
        <time>2018-09-17T09:13:23Z</time>
      </trkpt>
      <trkpt lat="47.250406974926591" lon="10.745733976364136">
        <ele>824.95000000000005</ele>
        <time>2018-09-17T09:13:33Z</time>
      </trkpt>
      <trkpt lat="47.249228982254863" lon="10.745116984471679">
        <ele>823.50999999999999</ele>
        <time>2018-09-17T09:13:40Z</time>
      </trkpt>
      <trkpt lat="47.24818903952837" lon="10.745143974199891">
        <ele>823.02999999999997</ele>
        <time>2018-09-17T09:13:47Z</time>
      </trkpt>
      <trkpt lat="47.247950993478298" lon="10.745143974199891">
        <ele>822.54999999999995</ele>
        <time>2018-09-17T09:13:49Z</time>
      </trkpt>
      <trkpt lat="47.247846974059939" lon="10.745143974199891">
        <ele>822.05999999999995</ele>
        <time>2018-09-17T09:13:50Z</time>
      </trkpt>
      <trkpt lat="47.247758964076638" lon="10.744928978383541">
        <ele>821.58000000000004</ele>
        <time>2018-09-17T09:13:51Z</time>
      </trkpt>
      <trkpt lat="47.247676989063621" lon="10.744928978383541">
        <ele>821.58000000000004</ele>
        <time>2018-09-17T09:13:52Z</time>
      </trkpt>
      <trkpt lat="47.247605994343758" lon="10.744928978383541">
        <ele>821.10000000000002</ele>
        <time>2018-09-17T09:13:53Z</time>
      </trkpt>
      <trkpt lat="47.247583027929068" lon="10.745022017508745">
        <ele>821.10000000000002</ele>
        <time>2018-09-17T09:13:54Z</time>
      </trkpt>
      <trkpt lat="47.247562995180488" lon="10.745100975036621">
        <ele>821.10000000000002</ele>
        <time>2018-09-17T09:13:55Z</time>
      </trkpt>
      <trkpt lat="47.247413964942098" lon="10.745244976133108">
        <ele>821.58000000000004</ele>
        <time>2018-09-17T09:13:56Z</time>
      </trkpt>
      <trkpt lat="47.247312963008881" lon="10.745254028588533">
        <ele>821.58000000000004</ele>
        <time>2018-09-17T09:13:57Z</time>
      </trkpt>
      <trkpt lat="47.247185977175832" lon="10.745264003053308">
        <ele>821.58000000000004</ele>
        <time>2018-09-17T09:13:58Z</time>
      </trkpt>
      <trkpt lat="47.247038036584854" lon="10.745275989174843">
        <ele>821.10000000000002</ele>
        <time>2018-09-17T09:13:59Z</time>
      </trkpt>
      <trkpt lat="47.245705984532833" lon="10.745233995839953">
        <ele>815.82000000000005</ele>
        <time>2018-09-17T09:14:07Z</time>
      </trkpt>
      <trkpt lat="47.244523968547583" lon="10.744691016152501">
        <ele>809.09000000000003</ele>
        <time>2018-09-17T09:14:15Z</time>
      </trkpt>
      <trkpt lat="47.243394004181027" lon="10.743789039552212">
        <ele>800.91999999999996</ele>
        <time>2018-09-17T09:14:23Z</time>
      </trkpt>
      <trkpt lat="47.242023982107639" lon="10.743085965514183">
        <ele>792.74000000000001</ele>
        <time>2018-09-17T09:14:32Z</time>
      </trkpt>
      <trkpt lat="47.240457991138101" lon="10.743105998262763">
        <ele>785.52999999999997</ele>
        <time>2018-09-17T09:14:41Z</time>
      </trkpt>
      <trkpt lat="47.2386309877038" lon="10.743923988193274">
        <ele>784.09000000000003</ele>
        <time>2018-09-17T09:14:51Z</time>
      </trkpt>
      <trkpt lat="47.237165998667479" lon="10.744335958734155">
        <ele>779.28999999999996</ele>
        <time>2018-09-17T09:14:59Z</time>
      </trkpt>
      <trkpt lat="47.235577963292599" lon="10.744205033406615">
        <ele>773.51999999999998</ele>
        <time>2018-09-17T09:15:08Z</time>
      </trkpt>
      <trkpt lat="47.235159035772085" lon="10.744039993733168">
        <ele>772.55999999999995</ele>
        <time>2018-09-17T09:15:11Z</time>
      </trkpt>
      <trkpt lat="47.23504101857543" lon="10.743989031761885">
        <ele>772.55999999999995</ele>
        <time>2018-09-17T09:15:12Z</time>
      </trkpt>
      <trkpt lat="47.234936999157071" lon="10.743945026770234">
        <ele>772.08000000000004</ele>
        <time>2018-09-17T09:15:13Z</time>
      </trkpt>
      <trkpt lat="47.234881008043885" lon="10.743832038715482">
        <ele>772.08000000000004</ele>
        <time>2018-09-17T09:15:14Z</time>
      </trkpt>
      <trkpt lat="47.234881008043885" lon="10.743620982393622">
        <ele>771.60000000000002</ele>
        <time>2018-09-17T09:15:15Z</time>
      </trkpt>
      <trkpt lat="47.234840020537376" lon="10.743530038744211">
        <ele>772.08000000000004</ele>
        <time>2018-09-17T09:15:16Z</time>
      </trkpt>
      <trkpt lat="47.234790986403823" lon="10.74342199601233">
        <ele>772.55999999999995</ele>
        <time>2018-09-17T09:15:17Z</time>
      </trkpt>
      <trkpt lat="47.234686966985464" lon="10.743327029049397">
        <ele>772.55999999999995</ele>
        <time>2018-09-17T09:15:18Z</time>
      </trkpt>
      <trkpt lat="47.234583031386137" lon="10.743291992694139">
        <ele>773.03999999999996</ele>
        <time>2018-09-17T09:15:19Z</time>
      </trkpt>
      <trkpt lat="47.234492003917694" lon="10.743282018229365">
        <ele>773.03999999999996</ele>
        <time>2018-09-17T09:15:20Z</time>
      </trkpt>
      <trkpt lat="47.234397036954761" lon="10.743338009342551">
        <ele>773.03999999999996</ele>
        <time>2018-09-17T09:15:21Z</time>
      </trkpt>
      <trkpt lat="47.234324030578136" lon="10.743417972698808">
        <ele>773.03999999999996</ele>
        <time>2018-09-17T09:15:22Z</time>
      </trkpt>
      <trkpt lat="47.234244989231229" lon="10.743505982682109">
        <ele>773.03999999999996</ele>
        <time>2018-09-17T09:15:23Z</time>
      </trkpt>
      <trkpt lat="47.234222022816539" lon="10.743666999042034">
        <ele>773.51999999999998</ele>
        <time>2018-09-17T09:15:24Z</time>
      </trkpt>
      <trkpt lat="47.234165025874972" lon="10.743936980143189">
        <ele>773.51999999999998</ele>
        <time>2018-09-17T09:15:25Z</time>
      </trkpt>
      <trkpt lat="47.234067963436246" lon="10.743989031761885">
        <ele>772.55999999999995</ele>
        <time>2018-09-17T09:15:26Z</time>
      </trkpt>
      <trkpt lat="47.233952041715384" lon="10.744049968197942">
        <ele>772.08000000000004</ele>
        <time>2018-09-17T09:15:27Z</time>
      </trkpt>
      <trkpt lat="47.232918972149491" lon="10.744490018114448">
        <ele>768.23000000000002</ele>
        <time>2018-09-17T09:15:34Z</time>
      </trkpt>
      <trkpt lat="47.231610976159573" lon="10.744790006428957">
        <ele>760.53999999999996</ele>
        <time>2018-09-17T09:15:44Z</time>
      </trkpt>
      <trkpt lat="47.230477994307876" lon="10.745101980865002">
        <ele>754.76999999999998</ele>
        <time>2018-09-17T09:15:56Z</time>
      </trkpt>
      <trkpt lat="47.230354025959969" lon="10.744971977546811">
        <ele>754.28999999999996</ele>
        <time>2018-09-17T09:15:57Z</time>
      </trkpt>
      <trkpt lat="47.230286970734596" lon="10.744958985596895">
        <ele>753.80999999999995</ele>
        <time>2018-09-17T09:15:58Z</time>
      </trkpt>
      <trkpt lat="47.230212036520243" lon="10.744985975325108">
        <ele>753.80999999999995</ele>
        <time>2018-09-17T09:15:59Z</time>
      </trkpt>
      <trkpt lat="47.230182029306889" lon="10.745014976710081">
        <ele>753.33000000000004</ele>
        <time>2018-09-17T09:16:00Z</time>
      </trkpt>
      <trkpt lat="47.23005898296833" lon="10.745217986404896">
        <ele>752.85000000000002</ele>
        <time>2018-09-17T09:16:01Z</time>
      </trkpt>
      <trkpt lat="47.229955969378352" lon="10.745229972526431">
        <ele>752.37</ele>
        <time>2018-09-17T09:16:02Z</time>
      </trkpt>
      <trkpt lat="47.229837030172348" lon="10.745243970304728">
        <ele>751.88999999999999</ele>
        <time>2018-09-17T09:16:03Z</time>
      </trkpt>
      <trkpt lat="47.229706021025777" lon="10.745261991396546">
        <ele>750.92999999999995</ele>
        <time>2018-09-17T09:16:04Z</time>
      </trkpt>
      <trkpt lat="47.228454016149044" lon="10.745710004121065">
        <ele>744.67999999999995</ele>
        <time>2018-09-17T09:16:13Z</time>
      </trkpt>
      <trkpt lat="47.227572994306684" lon="10.746450964361429">
        <ele>739.87</ele>
        <time>2018-09-17T09:16:21Z</time>
      </trkpt>
      <trkpt lat="47.226685015484691" lon="10.74767597950995">
        <ele>734.58000000000004</ele>
        <time>2018-09-17T09:16:31Z</time>
      </trkpt>
      <trkpt lat="47.225161017850041" lon="10.749947978183627">
        <ele>734.10000000000002</ele>
        <time>2018-09-17T09:16:47Z</time>
      </trkpt>
      <trkpt lat="47.224179999902844" lon="10.751141980290413">
        <ele>735.07000000000005</ele>
        <time>2018-09-17T09:16:56Z</time>
      </trkpt>
      <trkpt lat="47.222993960604072" lon="10.751859974116087">
        <ele>739.38999999999999</ele>
        <time>2018-09-17T09:17:05Z</time>
      </trkpt>
      <trkpt lat="47.221587980166078" lon="10.752695985138416">
        <ele>747.08000000000004</ele>
        <time>2018-09-17T09:17:15Z</time>
      </trkpt>
      <trkpt lat="47.221427969634533" lon="10.752825988456607">
        <ele>748.03999999999996</ele>
        <time>2018-09-17T09:17:16Z</time>
      </trkpt>
      <trkpt lat="47.221321016550064" lon="10.752945011481643">
        <ele>749</ele>
        <time>2018-09-17T09:17:17Z</time>
      </trkpt>
      <trkpt lat="47.221196964383125" lon="10.753116002306342">
        <ele>749.97000000000003</ele>
        <time>2018-09-17T09:17:18Z</time>
      </trkpt>
      <trkpt lat="47.221095040440559" lon="10.753320017829537">
        <ele>750.92999999999995</ele>
        <time>2018-09-17T09:17:19Z</time>
      </trkpt>
      <trkpt lat="47.220997978001833" lon="10.753538031131029">
        <ele>751.88999999999999</ele>
        <time>2018-09-17T09:17:20Z</time>
      </trkpt>
      <trkpt lat="47.220910973846912" lon="10.753765013068914">
        <ele>752.85000000000002</ele>
        <time>2018-09-17T09:17:21Z</time>
      </trkpt>
      <trkpt lat="47.220825981348753" lon="10.753987971693277">
        <ele>753.80999999999995</ele>
        <time>2018-09-17T09:17:22Z</time>
      </trkpt>
      <trkpt lat="47.22077501937747" lon="10.754217971116304">
        <ele>754.76999999999998</ele>
        <time>2018-09-17T09:17:23Z</time>
      </trkpt>
      <trkpt lat="47.220729002729058" lon="10.754433972761035">
        <ele>755.73000000000002</ele>
        <time>2018-09-17T09:17:24Z</time>
      </trkpt>
      <trkpt lat="47.220489028841257" lon="10.755608025938272">
        <ele>758.62</ele>
        <time>2018-09-17T09:17:31Z</time>
      </trkpt>
      <trkpt lat="47.220472013577819" lon="10.755686983466148">
        <ele>758.62</ele>
        <time>2018-09-17T09:17:32Z</time>
      </trkpt>
      <trkpt lat="47.220333041623235" lon="10.755766024813056">
        <ele>758.62</ele>
        <time>2018-09-17T09:17:33Z</time>
      </trkpt>
      <trkpt lat="47.220333041623235" lon="10.755766024813056">
        <ele>758.62</ele>
        <time>2018-09-17T09:17:34Z</time>
      </trkpt>
      <trkpt lat="47.220314014703035" lon="10.755783962085843">
        <ele>758.62</ele>
        <time>2018-09-17T09:17:35Z</time>
      </trkpt>
      <trkpt lat="47.220266992226243" lon="10.755830984562635">
        <ele>758.62</ele>
        <time>2018-09-17T09:17:36Z</time>
      </trkpt>
      <trkpt lat="47.220228016376495" lon="10.755908014252782">
        <ele>759.10000000000002</ele>
        <time>2018-09-17T09:17:37Z</time>
      </trkpt>
      <trkpt lat="47.22021603025496" lon="10.756027037277818">
        <ele>759.10000000000002</ele>
        <time>2018-09-17T09:17:38Z</time>
      </trkpt>
      <trkpt lat="47.220237990841269" lon="10.756114963442087">
        <ele>758.62</ele>
        <time>2018-09-17T09:17:39Z</time>
      </trkpt>
      <trkpt lat="47.220313008874655" lon="10.756173972040415">
        <ele>758.62</ele>
        <time>2018-09-17T09:17:40Z</time>
      </trkpt>
      <trkpt lat="47.220391966402531" lon="10.756243038922548">
        <ele>758.62</ele>
        <time>2018-09-17T09:17:41Z</time>
      </trkpt>
      <trkpt lat="47.220429014414549" lon="10.756353009492159">
        <ele>758.62</ele>
        <time>2018-09-17T09:17:42Z</time>
      </trkpt>
      <trkpt lat="47.220466984435916" lon="10.756468009203672">
        <ele>758.62</ele>
        <time>2018-09-17T09:17:43Z</time>
      </trkpt>
      <trkpt lat="47.220505038276315" lon="10.756580997258425">
        <ele>758.62</ele>
        <time>2018-09-17T09:17:44Z</time>
      </trkpt>
      <trkpt lat="47.220587013289332" lon="10.756650986149907">
        <ele>758.13999999999999</ele>
        <time>2018-09-17T09:17:45Z</time>
      </trkpt>
      <trkpt lat="47.220663959160447" lon="10.756712006404996">
        <ele>758.13999999999999</ele>
        <time>2018-09-17T09:17:46Z</time>
      </trkpt>
      <trkpt lat="47.220762027427554" lon="10.756737990304828">
        <ele>758.13999999999999</ele>
        <time>2018-09-17T09:17:47Z</time>
      </trkpt>
      <trkpt lat="47.220855988562107" lon="10.756762968376279">
        <ele>757.65999999999997</ele>
        <time>2018-09-17T09:17:48Z</time>
      </trkpt>
      <trkpt lat="47.220940981060266" lon="10.756786018610001">
        <ele>757.65999999999997</ele>
        <time>2018-09-17T09:17:49Z</time>
      </trkpt>
      <trkpt lat="47.221006024628878" lon="10.756836980581284">
        <ele>757.65999999999997</ele>
        <time>2018-09-17T09:17:50Z</time>
      </trkpt>
      <trkpt lat="47.221051035448909" lon="10.756902024149895">
        <ele>757.17999999999995</ele>
        <time>2018-09-17T09:17:51Z</time>
      </trkpt>
      <trkpt lat="47.22109897993505" lon="10.756970001384616">
        <ele>757.17999999999995</ele>
        <time>2018-09-17T09:17:52Z</time>
      </trkpt>
      <trkpt lat="47.221130998805165" lon="10.757058011367917">
        <ele>756.69000000000005</ele>
        <time>2018-09-17T09:17:53Z</time>
      </trkpt>
      <trkpt lat="47.221142984926701" lon="10.75719203799963">
        <ele>756.69000000000005</ele>
        <time>2018-09-17T09:17:54Z</time>
      </trkpt>
      <trkpt lat="47.221156982704997" lon="10.757345007732511">
        <ele>756.69000000000005</ele>
        <time>2018-09-17T09:17:55Z</time>
      </trkpt>
      <trkpt lat="47.221183972433209" lon="10.758347986266017">
        <ele>759.58000000000004</ele>
        <time>2018-09-17T09:18:00Z</time>
      </trkpt>
      <trkpt lat="47.221080036833882" lon="10.760861970484257">
        <ele>766.30999999999995</ele>
        <time>2018-09-17T09:18:10Z</time>
      </trkpt>
      <trkpt lat="47.220964031293988" lon="10.762905981391668">
        <ele>775.44000000000005</ele>
        <time>2018-09-17T09:18:18Z</time>
      </trkpt>
      <trkpt lat="47.220905022695661" lon="10.763167999684811">
        <ele>776.39999999999998</ele>
        <time>2018-09-17T09:18:19Z</time>
      </trkpt>
      <trkpt lat="47.220831010490656" lon="10.763419037684798">
        <ele>777.36000000000001</ele>
        <time>2018-09-17T09:18:20Z</time>
      </trkpt>
      <trkpt lat="47.220251988619566" lon="10.76555298641324">
        <ele>783.13</ele>
        <time>2018-09-17T09:18:28Z</time>
      </trkpt>
      <trkpt lat="47.220032969489694" lon="10.766965001821518">
        <ele>784.09000000000003</ele>
        <time>2018-09-17T09:18:33Z</time>
      </trkpt>
      <trkpt lat="47.219987036660314" lon="10.767253004014492">
        <ele>784.09000000000003</ele>
        <time>2018-09-17T09:18:34Z</time>
      </trkpt>
      <trkpt lat="47.219906989485025" lon="10.767508987337351">
        <ele>784.57000000000005</ele>
        <time>2018-09-17T09:18:35Z</time>
      </trkpt>
      <trkpt lat="47.219306007027626" lon="10.769108003005385">
        <ele>786.98000000000002</ele>
        <time>2018-09-17T09:18:41Z</time>
      </trkpt>
      <trkpt lat="47.218778030946851" lon="10.77085898257792">
        <ele>791.29999999999995</ele>
        <time>2018-09-17T09:18:47Z</time>
      </trkpt>
      <trkpt lat="47.217740016058087" lon="10.773333990946412">
        <ele>797.54999999999995</ele>
        <time>2018-09-17T09:18:56Z</time>
      </trkpt>
      <trkpt lat="47.216129014268517" lon="10.77734699472785">
        <ele>808.61000000000001</ele>
        <time>2018-09-17T09:19:11Z</time>
      </trkpt>
      <trkpt lat="47.215348994359374" lon="10.779940020292997">
        <ele>815.82000000000005</ele>
        <time>2018-09-17T09:19:21Z</time>
      </trkpt>
      <trkpt lat="47.214124985039234" lon="10.783890997990966">
        <ele>826.87</ele>
        <time>2018-09-17T09:19:35Z</time>
      </trkpt>
      <trkpt lat="47.213589968159795" lon="10.786618972197175">
        <ele>836</ele>
        <time>2018-09-17T09:19:44Z</time>
      </trkpt>
      <trkpt lat="47.213540012016892" lon="10.789617011323571">
        <ele>840.33000000000004</ele>
        <time>2018-09-17T09:19:53Z</time>
      </trkpt>
      <trkpt lat="47.213615030050278" lon="10.792111968621612">
        <ele>836.48000000000002</ele>
        <time>2018-09-17T09:20:00Z</time>
      </trkpt>
      <trkpt lat="47.213757019490004" lon="10.79528502188623">
        <ele>824.95000000000005</ele>
        <time>2018-09-17T09:20:08Z</time>
      </trkpt>
      <trkpt lat="47.213820973411202" lon="10.795634966343641">
        <ele>823.02999999999997</ele>
        <time>2018-09-17T09:20:09Z</time>
      </trkpt>
      <trkpt lat="47.214305028319359" lon="10.798518005758524">
        <ele>811.00999999999999</ele>
        <time>2018-09-17T09:20:17Z</time>
      </trkpt>
      <trkpt lat="47.214634018018842" lon="10.800696965306997">
        <ele>800.44000000000005</ele>
        <time>2018-09-17T09:20:23Z</time>
      </trkpt>
      <trkpt lat="47.214744994416833" lon="10.801016986370087">
        <ele>798.02999999999997</ele>
        <time>2018-09-17T09:20:24Z</time>
      </trkpt>
      <trkpt lat="47.214883966371417" lon="10.801308006048203">
        <ele>796.11000000000001</ele>
        <time>2018-09-17T09:20:25Z</time>
      </trkpt>
      <trkpt lat="47.215040037408471" lon="10.801598019897938">
        <ele>793.71000000000004</ele>
        <time>2018-09-17T09:20:26Z</time>
      </trkpt>
      <trkpt lat="47.215198036283255" lon="10.801891973242164">
        <ele>791.77999999999997</ele>
        <time>2018-09-17T09:20:27Z</time>
      </trkpt>
      <trkpt lat="47.216683980077505" lon="10.804661018773913">
        <ele>773.51999999999998</ele>
        <time>2018-09-17T09:20:36Z</time>
      </trkpt>
      <trkpt lat="47.218268997967243" lon="10.807786965742707">
        <ele>754.76999999999998</ele>
        <time>2018-09-17T09:20:46Z</time>
      </trkpt>
      <trkpt lat="47.218912979587913" lon="10.810014959424734">
        <ele>745.15999999999997</ele>
        <time>2018-09-17T09:20:53Z</time>
      </trkpt>
      <trkpt lat="47.219240041449666" lon="10.811156993731856">
        <ele>739.87</ele>
        <time>2018-09-17T09:20:57Z</time>
      </trkpt>
      <trkpt lat="47.219341965392232" lon="10.811427980661392">
        <ele>738.42999999999995</ele>
        <time>2018-09-17T09:20:58Z</time>
      </trkpt>
      <trkpt lat="47.219466017559171" lon="10.811695028096437">
        <ele>736.99000000000001</ele>
        <time>2018-09-17T09:20:59Z</time>
      </trkpt>
      <trkpt lat="47.22043395973742" lon="10.813386999070644">
        <ele>731.22000000000003</ele>
        <time>2018-09-17T09:21:06Z</time>
      </trkpt>
      <trkpt lat="47.221339959651232" lon="10.81490496173501">
        <ele>729.29999999999995</ele>
        <time>2018-09-17T09:21:14Z</time>
      </trkpt>
      <trkpt lat="47.222418040037155" lon="10.816615959629416">
        <ele>723.52999999999997</ele>
        <time>2018-09-17T09:21:22Z</time>
      </trkpt>
      <trkpt lat="47.223413977771997" lon="10.818689977750182">
        <ele>715.84000000000003</ele>
        <time>2018-09-17T09:21:31Z</time>
      </trkpt>
      <trkpt lat="47.223480027168989" lon="10.818966999650002">
        <ele>715.36000000000001</ele>
        <time>2018-09-17T09:21:32Z</time>
      </trkpt>
      <trkpt lat="47.223910018801689" lon="10.821888009086251">
        <ele>718.72000000000003</ele>
        <time>2018-09-17T09:21:42Z</time>
      </trkpt>
      <trkpt lat="47.22410598769784" lon="10.823977030813694">
        <ele>721.13</ele>
        <time>2018-09-17T09:21:50Z</time>
      </trkpt>
      <trkpt lat="47.223877999931574" lon="10.825592977926135">
        <ele>723.04999999999995</ele>
        <time>2018-09-17T09:21:57Z</time>
      </trkpt>
      <trkpt lat="47.223629979416728" lon="10.826216004788876">
        <ele>724.00999999999999</ele>
        <time>2018-09-17T09:22:00Z</time>
      </trkpt>
      <trkpt lat="47.222855994477868" lon="10.827555013820529">
        <ele>725.45000000000005</ele>
        <time>2018-09-17T09:22:06Z</time>
      </trkpt>
      <trkpt lat="47.222028030082583" lon="10.828902991488576">
        <ele>729.77999999999997</ele>
        <time>2018-09-17T09:22:11Z</time>
      </trkpt>
      <trkpt lat="47.221886040642858" lon="10.829213038086891">
        <ele>730.74000000000001</ele>
        <time>2018-09-17T09:22:12Z</time>
      </trkpt>
      <trkpt lat="47.221774980425835" lon="10.829544961452484">
        <ele>731.22000000000003</ele>
        <time>2018-09-17T09:22:13Z</time>
      </trkpt>
      <trkpt lat="47.221676995977759" lon="10.829890966415405">
        <ele>732.17999999999995</ele>
        <time>2018-09-17T09:22:14Z</time>
      </trkpt>
      <trkpt lat="47.221610024571419" lon="10.830254992470145">
        <ele>732.65999999999997</ele>
        <time>2018-09-17T09:22:15Z</time>
      </trkpt>
      <trkpt lat="47.22156903706491" lon="10.830627987161279">
        <ele>733.62</ele>
        <time>2018-09-17T09:22:16Z</time>
      </trkpt>
      <trkpt lat="47.221551015973091" lon="10.830999976024032">
        <ele>734.10000000000002</ele>
        <time>2018-09-17T09:22:17Z</time>
      </trkpt>
      <trkpt lat="47.221540035679936" lon="10.83138202317059">
        <ele>735.07000000000005</ele>
        <time>2018-09-17T09:22:18Z</time>
      </trkpt>
      <trkpt lat="47.22156903706491" lon="10.831763986498117">
        <ele>735.54999999999995</ele>
        <time>2018-09-17T09:22:19Z</time>
      </trkpt>
      <trkpt lat="47.221598960459232" lon="10.832147961482406">
        <ele>736.02999999999997</ele>
        <time>2018-09-17T09:22:20Z</time>
      </trkpt>
      <trkpt lat="47.222088966518641" lon="10.836024004966021">
        <ele>738.90999999999997</ele>
        <time>2018-09-17T09:22:30Z</time>
      </trkpt>
      <trkpt lat="47.223142990842462" lon="10.838983990252018">
        <ele>737.95000000000005</ele>
        <time>2018-09-17T09:22:38Z</time>
      </trkpt>
      <trkpt lat="47.224232973530889" lon="10.841760998591781">
        <ele>736.50999999999999</ele>
        <time>2018-09-17T09:22:46Z</time>
      </trkpt>
      <trkpt lat="47.225641971454024" lon="10.843937024474144">
        <ele>731.70000000000005</ele>
        <time>2018-09-17T09:22:53Z</time>
      </trkpt>
      <trkpt lat="47.227761000394821" lon="10.847055008634925">
        <ele>726.40999999999997</ele>
        <time>2018-09-17T09:23:03Z</time>
      </trkpt>
      <trkpt lat="47.229415001347661" lon="10.849764039739966">
        <ele>727.86000000000001</ele>
        <time>2018-09-17T09:23:12Z</time>
      </trkpt>
      <trkpt lat="47.230157973244786" lon="10.851420974358916">
        <ele>732.17999999999995</ele>
        <time>2018-09-17T09:23:18Z</time>
      </trkpt>
      <trkpt lat="47.230400964617729" lon="10.851822970435023">
        <ele>733.62</ele>
        <time>2018-09-17T09:23:20Z</time>
      </trkpt>
      <trkpt lat="47.231233958154917" lon="10.852947989478707">
        <ele>737.95000000000005</ele>
        <time>2018-09-17T09:23:27Z</time>
      </trkpt>
      <trkpt lat="47.231589015573263" lon="10.853592976927757">
        <ele>736.02999999999997</ele>
        <time>2018-09-17T09:23:33Z</time>
      </trkpt>
      <trkpt lat="47.231617011129856" lon="10.853648968040943">
        <ele>735.54999999999995</ele>
        <time>2018-09-17T09:23:34Z</time>
      </trkpt>
      <trkpt lat="47.231608964502811" lon="10.85376899689436">
        <ele>735.54999999999995</ele>
        <time>2018-09-17T09:23:35Z</time>
      </trkpt>
      <trkpt lat="47.231574011966586" lon="10.853846026584506">
        <ele>735.07000000000005</ele>
        <time>2018-09-17T09:23:36Z</time>
      </trkpt>
      <trkpt lat="47.231534030288458" lon="10.853934036567807">
        <ele>735.07000000000005</ele>
        <time>2018-09-17T09:23:37Z</time>
      </trkpt>
      <trkpt lat="47.231597984209657" lon="10.854169987142086">
        <ele>734.58000000000004</ele>
        <time>2018-09-17T09:23:38Z</time>
      </trkpt>
      <trkpt lat="47.23153998143971" lon="10.854268977418542">
        <ele>734.58000000000004</ele>
        <time>2018-09-17T09:23:39Z</time>
      </trkpt>
      <trkpt lat="47.231470998376608" lon="10.854382971301675">
        <ele>734.58000000000004</ele>
        <time>2018-09-17T09:23:40Z</time>
      </trkpt>
      <trkpt lat="47.231063973158598" lon="10.854999041184783">
        <ele>734.10000000000002</ele>
        <time>2018-09-17T09:23:46Z</time>
      </trkpt>
      <trkpt lat="47.230998007580638" lon="10.855058971792459">
        <ele>733.62</ele>
        <time>2018-09-17T09:23:47Z</time>
      </trkpt>
      <trkpt lat="47.230931958183646" lon="10.855118986219168">
        <ele>733.13999999999999</ele>
        <time>2018-09-17T09:23:48Z</time>
      </trkpt>
      <trkpt lat="47.230825005099177" lon="10.855131978169084">
        <ele>732.65999999999997</ele>
        <time>2018-09-17T09:23:49Z</time>
      </trkpt>
      <trkpt lat="47.230745041742921" lon="10.855101970955729">
        <ele>732.65999999999997</ele>
        <time>2018-09-17T09:23:50Z</time>
      </trkpt>
      <trkpt lat="47.230632975697517" lon="10.854899967089295">
        <ele>732.17999999999995</ele>
        <time>2018-09-17T09:23:51Z</time>
      </trkpt>
      <trkpt lat="47.230632975697517" lon="10.854899967089295">
        <ele>732.17999999999995</ele>
        <time>2018-09-17T09:23:52Z</time>
      </trkpt>
      <trkpt lat="47.230611015111208" lon="10.854812962934375">
        <ele>731.70000000000005</ele>
        <time>2018-09-17T09:23:53Z</time>
      </trkpt>
      <trkpt lat="47.230586959049106" lon="10.854716990143061">
        <ele>731.70000000000005</ele>
        <time>2018-09-17T09:23:54Z</time>
      </trkpt>
      <trkpt lat="47.230546977370977" lon="10.854635015130043">
        <ele>731.70000000000005</ele>
        <time>2018-09-17T09:23:55Z</time>
      </trkpt>
      <trkpt lat="47.230480005964637" lon="10.854612970724702">
        <ele>731.22000000000003</ele>
        <time>2018-09-17T09:23:56Z</time>
      </trkpt>
      <trkpt lat="47.230415968224406" lon="10.854592015966773">
        <ele>730.74000000000001</ele>
        <time>2018-09-17T09:23:57Z</time>
      </trkpt>
      <trkpt lat="47.230343967676163" lon="10.854613976553082">
        <ele>730.74000000000001</ele>
        <time>2018-09-17T09:23:58Z</time>
      </trkpt>
      <trkpt lat="47.230285964906216" lon="10.854682037606835">
        <ele>731.22000000000003</ele>
        <time>2018-09-17T09:23:59Z</time>
      </trkpt>
      <trkpt lat="47.230246989056468" lon="10.854791002348065">
        <ele>731.70000000000005</ele>
        <time>2018-09-17T09:24:00Z</time>
      </trkpt>
      <trkpt lat="47.230246989056468" lon="10.854900972917676">
        <ele>732.17999999999995</ele>
        <time>2018-09-17T09:24:01Z</time>
      </trkpt>
      <trkpt lat="47.230246989056468" lon="10.855014966800809">
        <ele>732.65999999999997</ele>
        <time>2018-09-17T09:24:02Z</time>
      </trkpt>
      <trkpt lat="47.230246989056468" lon="10.855028964579105">
        <ele>733.13999999999999</ele>
        <time>2018-09-17T09:24:03Z</time>
      </trkpt>
      <trkpt lat="47.230223016813397" lon="10.855319984257221">
        <ele>733.13999999999999</ele>
        <time>2018-09-17T09:24:04Z</time>
      </trkpt>
      <trkpt lat="47.230146992951632" lon="10.855431966483593">
        <ele>733.62</ele>
        <time>2018-09-17T09:24:05Z</time>
      </trkpt>
      <trkpt lat="47.229388011619449" lon="10.856469981372356">
        <ele>735.54999999999995</ele>
        <time>2018-09-17T09:24:14Z</time>
      </trkpt>
      <trkpt lat="47.22808001562953" lon="10.857713017612696">
        <ele>739.38999999999999</ele>
        <time>2018-09-17T09:24:24Z</time>
      </trkpt>
      <trkpt lat="47.227434022352099" lon="10.858805011957884">
        <ele>740.35000000000002</ele>
        <time>2018-09-17T09:24:30Z</time>
      </trkpt>
      <trkpt lat="47.227352969348431" lon="10.858988994732499">
        <ele>740.83000000000004</ele>
        <time>2018-09-17T09:24:31Z</time>
      </trkpt>
      <trkpt lat="47.227019034326077" lon="10.859976969659328">
        <ele>740.35000000000002</ele>
        <time>2018-09-17T09:24:36Z</time>
      </trkpt>
      <trkpt lat="47.226680992171168" lon="10.860439985990524">
        <ele>739.38999999999999</ele>
        <time>2018-09-17T09:24:39Z</time>
      </trkpt>
      <trkpt lat="47.226419979706407" lon="10.860675014555454">
        <ele>738.42999999999995</ele>
        <time>2018-09-17T09:24:41Z</time>
      </trkpt>
      <trkpt lat="47.2262769844383" lon="10.860747015103698">
        <ele>738.42999999999995</ele>
        <time>2018-09-17T09:24:42Z</time>
      </trkpt>
      <trkpt lat="47.226127032190561" lon="10.860822033137083">
        <ele>737.95000000000005</ele>
        <time>2018-09-17T09:24:43Z</time>
      </trkpt>
      <trkpt lat="47.224586019292474" lon="10.861336011439562">
        <ele>735.54999999999995</ele>
        <time>2018-09-17T09:24:53Z</time>
      </trkpt>
      <trkpt lat="47.224431959912181" lon="10.861386973410845">
        <ele>735.54999999999995</ele>
        <time>2018-09-17T09:24:54Z</time>
      </trkpt>
      <trkpt lat="47.223020028322935" lon="10.861257975921035">
        <ele>734.10000000000002</ele>
        <time>2018-09-17T09:25:03Z</time>
      </trkpt>
      <trkpt lat="47.221546992659569" lon="10.860613994300365">
        <ele>735.07000000000005</ele>
        <time>2018-09-17T09:25:13Z</time>
      </trkpt>
      <trkpt lat="47.221414977684617" lon="10.860569989308715">
        <ele>735.07000000000005</ele>
        <time>2018-09-17T09:25:14Z</time>
      </trkpt>
      <trkpt lat="47.221285980194807" lon="10.860589016228914">
        <ele>735.07000000000005</ele>
        <time>2018-09-17T09:25:15Z</time>
      </trkpt>
      <trkpt lat="47.221155976876616" lon="10.860608965158463">
        <ele>735.07000000000005</ele>
        <time>2018-09-17T09:25:16Z</time>
      </trkpt>
      <trkpt lat="47.22101298160851" lon="10.860636038705707">
        <ele>735.07000000000005</ele>
        <time>2018-09-17T09:25:17Z</time>
      </trkpt>
      <trkpt lat="47.220882978290319" lon="10.860768975690007">
        <ele>734.58000000000004</ele>
        <time>2018-09-17T09:25:18Z</time>
      </trkpt>
      <trkpt lat="47.2207320202142" lon="10.86092202924192">
        <ele>734.58000000000004</ele>
        <time>2018-09-17T09:25:19Z</time>
      </trkpt>
      <trkpt lat="47.219924004748464" lon="10.861757034435868">
        <ele>734.58000000000004</ele>
        <time>2018-09-17T09:25:25Z</time>
      </trkpt>
      <trkpt lat="47.219813028350472" lon="10.861887037754059">
        <ele>735.07000000000005</ele>
        <time>2018-09-17T09:25:26Z</time>
      </trkpt>
      <trkpt lat="47.219705991446972" lon="10.862045958638191">
        <ele>735.07000000000005</ele>
        <time>2018-09-17T09:25:27Z</time>
      </trkpt>
      <trkpt lat="47.219634996727109" lon="10.862222984433174">
        <ele>735.07000000000005</ele>
        <time>2018-09-17T09:25:28Z</time>
      </trkpt>
      <trkpt lat="47.219559978693724" lon="10.862415013834834">
        <ele>735.54999999999995</ele>
        <time>2018-09-17T09:25:29Z</time>
      </trkpt>
      <trkpt lat="47.219516979530454" lon="10.862641995772719">
        <ele>735.54999999999995</ele>
        <time>2018-09-17T09:25:30Z</time>
      </trkpt>
      <trkpt lat="47.219468029215932" lon="10.862905019894242">
        <ele>736.50999999999999</ele>
        <time>2018-09-17T09:25:31Z</time>
      </trkpt>
      <trkpt lat="47.219083970412612" lon="10.86483696475625">
        <ele>741.30999999999995</ele>
        <time>2018-09-17T09:25:37Z</time>
      </trkpt>
      <trkpt lat="47.219008030369878" lon="10.865119015797973">
        <ele>742.27999999999997</ele>
        <time>2018-09-17T09:25:38Z</time>
      </trkpt>
      <trkpt lat="47.2189050167799" lon="10.865352032706141">
        <ele>743.24000000000001</ele>
        <time>2018-09-17T09:25:39Z</time>
      </trkpt>
      <trkpt lat="47.218520035967231" lon="10.86610103957355">
        <ele>747.55999999999995</ele>
        <time>2018-09-17T09:25:43Z</time>
      </trkpt>
      <trkpt lat="47.218429008498788" lon="10.866247974336147">
        <ele>749</ele>
        <time>2018-09-17T09:25:44Z</time>
      </trkpt>
      <trkpt lat="47.218324989080429" lon="10.866360040381551">
        <ele>749.49000000000001</ele>
        <time>2018-09-17T09:25:45Z</time>
      </trkpt>
      <trkpt lat="47.218187022954226" lon="10.866508986800909">
        <ele>750.45000000000005</ele>
        <time>2018-09-17T09:25:46Z</time>
      </trkpt>
      <trkpt lat="47.218085015192628" lon="10.866547962650657">
        <ele>751.40999999999997</ele>
        <time>2018-09-17T09:25:47Z</time>
      </trkpt>
      <trkpt lat="47.217950988560915" lon="10.866601020097733">
        <ele>752.37</ele>
        <time>2018-09-17T09:25:48Z</time>
      </trkpt>
      <trkpt lat="47.217800030484796" lon="10.86665902286768">
        <ele>753.33000000000004</ele>
        <time>2018-09-17T09:25:49Z</time>
      </trkpt>
      <trkpt lat="47.217173986136913" lon="10.866782991215587">
        <ele>756.69000000000005</ele>
        <time>2018-09-17T09:25:53Z</time>
      </trkpt>
      <trkpt lat="47.217020010575652" lon="10.866774022579193">
        <ele>757.17999999999995</ele>
        <time>2018-09-17T09:25:54Z</time>
      </trkpt>
      <trkpt lat="47.216857988387346" lon="10.866750972345471">
        <ele>757.65999999999997</ele>
        <time>2018-09-17T09:25:55Z</time>
      </trkpt>
      <trkpt lat="47.216425985097885" lon="10.866612000390887">
        <ele>758.62</ele>
        <time>2018-09-17T09:25:58Z</time>
      </trkpt>
      <trkpt lat="47.21628600731492" lon="10.866579981520772">
        <ele>759.10000000000002</ele>
        <time>2018-09-17T09:25:59Z</time>
      </trkpt>
      <trkpt lat="47.216150974854827" lon="10.866594985127449">
        <ele>760.05999999999995</ele>
        <time>2018-09-17T09:26:00Z</time>
      </trkpt>
      <trkpt lat="47.215881999582052" lon="10.866651982069016">
        <ele>761.01999999999998</ele>
        <time>2018-09-17T09:26:02Z</time>
      </trkpt>
      <trkpt lat="47.215764988213778" lon="10.866708979010582">
        <ele>761.5</ele>
        <time>2018-09-17T09:26:03Z</time>
      </trkpt>
      <trkpt lat="47.214549025520682" lon="10.867724027484655">
        <ele>763.41999999999996</ele>
        <time>2018-09-17T09:26:14Z</time>
      </trkpt>
      <trkpt lat="47.213817033916712" lon="10.868957005441189">
        <ele>762.46000000000004</ele>
        <time>2018-09-17T09:26:21Z</time>
      </trkpt>
      <trkpt lat="47.212838027626276" lon="10.870456025004387">
        <ele>761.01999999999998</ele>
        <time>2018-09-17T09:26:30Z</time>
      </trkpt>
      <trkpt lat="47.211922975257039" lon="10.871106963604689">
        <ele>762.46000000000004</ele>
        <time>2018-09-17T09:26:38Z</time>
      </trkpt>
      <trkpt lat="47.210895018652081" lon="10.871567968279123">
        <ele>765.35000000000002</ele>
        <time>2018-09-17T09:26:45Z</time>
      </trkpt>
      <trkpt lat="47.209815010428429" lon="10.871856976300478">
        <ele>766.30999999999995</ele>
        <time>2018-09-17T09:26:52Z</time>
      </trkpt>
      <trkpt lat="47.209510998800397" lon="10.872007012367249">
        <ele>766.78999999999996</ele>
        <time>2018-09-17T09:26:54Z</time>
      </trkpt>
      <trkpt lat="47.209360040724277" lon="10.872107008472085">
        <ele>766.78999999999996</ele>
        <time>2018-09-17T09:26:55Z</time>
      </trkpt>
      <trkpt lat="47.209208998829126" lon="10.872208010405302">
        <ele>766.78999999999996</ele>
        <time>2018-09-17T09:26:56Z</time>
      </trkpt>
      <trkpt lat="47.209076983854175" lon="10.87235301733017">
        <ele>766.78999999999996</ele>
        <time>2018-09-17T09:26:57Z</time>
      </trkpt>
      <trkpt lat="47.208952009677887" lon="10.872496012598276">
        <ele>767.26999999999998</ele>
        <time>2018-09-17T09:26:58Z</time>
      </trkpt>
      <trkpt lat="47.20882804132998" lon="10.872636996209621">
        <ele>767.26999999999998</ele>
        <time>2018-09-17T09:26:59Z</time>
      </trkpt>
      <trkpt lat="47.208703989163041" lon="10.872778985649347">
        <ele>767.26999999999998</ele>
        <time>2018-09-17T09:27:00Z</time>
      </trkpt>
      <trkpt lat="47.208129996433854" lon="10.873905010521412">
        <ele>767.26999999999998</ele>
        <time>2018-09-17T09:27:06Z</time>
      </trkpt>
      <trkpt lat="47.208066964522004" lon="10.874145990237594">
        <ele>767.26999999999998</ele>
        <time>2018-09-17T09:27:07Z</time>
      </trkpt>
      <trkpt lat="47.207652982324362" lon="10.875718016177416">
        <ele>767.26999999999998</ele>
        <time>2018-09-17T09:27:12Z</time>
      </trkpt>
      <trkpt lat="47.207022998481989" lon="10.878464011475444">
        <ele>768.23000000000002</ele>
        <time>2018-09-17T09:27:20Z</time>
      </trkpt>
      <trkpt lat="47.206857958808541" lon="10.880960980430245">
        <ele>767.26999999999998</ele>
        <time>2018-09-17T09:27:27Z</time>
      </trkpt>
      <trkpt lat="47.206705994904041" lon="10.883331969380379">
        <ele>766.30999999999995</ele>
        <time>2018-09-17T09:27:34Z</time>
      </trkpt>
      <trkpt lat="47.206352027133107" lon="10.884524965658784">
        <ele>766.78999999999996</ele>
        <time>2018-09-17T09:27:39Z</time>
      </trkpt>
      <trkpt lat="47.205865038558841" lon="10.886086011305451">
        <ele>767.75</ele>
        <time>2018-09-17T09:27:49Z</time>
      </trkpt>
      <trkpt lat="47.205247962847352" lon="10.888523971661925">
        <ele>770.14999999999998</ele>
        <time>2018-09-17T09:28:04Z</time>
      </trkpt>
      <trkpt lat="47.205017963424325" lon="10.88986499235034">
        <ele>768.71000000000004</ele>
        <time>2018-09-17T09:28:13Z</time>
      </trkpt>
      <trkpt lat="47.204743037000299" lon="10.891129989176989">
        <ele>771.11000000000001</ele>
        <time>2018-09-17T09:28:23Z</time>
      </trkpt>
      <trkpt lat="47.204415975138545" lon="10.892180996015668">
        <ele>773.51999999999998</ele>
        <time>2018-09-17T09:28:33Z</time>
      </trkpt>
      <trkpt lat="47.204300975427032" lon="10.892524989321828">
        <ele>774</ele>
        <time>2018-09-17T09:28:36Z</time>
      </trkpt>
      <trkpt lat="47.204228974878788" lon="10.892758006229997">
        <ele>774.48000000000002</ele>
        <time>2018-09-17T09:28:38Z</time>
      </trkpt>
      <trkpt lat="47.204171977937222" lon="10.893007032573223">
        <ele>774.48000000000002</ele>
        <time>2018-09-17T09:28:40Z</time>
      </trkpt>
      <trkpt lat="47.20414599403739" lon="10.893121026456356">
        <ele>774.48000000000002</ele>
        <time>2018-09-17T09:28:41Z</time>
      </trkpt>
      <trkpt lat="47.203861009329557" lon="10.894287033006549">
        <ele>777.84000000000003</ele>
        <time>2018-09-17T09:28:52Z</time>
      </trkpt>
      <trkpt lat="47.203837037086487" lon="10.894384011626244">
        <ele>778.32000000000005</ele>
        <time>2018-09-17T09:28:53Z</time>
      </trkpt>
      <trkpt lat="47.20378004014492" lon="10.894611999392509">
        <ele>779.28999999999996</ele>
        <time>2018-09-17T09:28:56Z</time>
      </trkpt>
      <trkpt lat="47.203761013224721" lon="10.894681988283992">
        <ele>779.76999999999998</ele>
        <time>2018-09-17T09:28:57Z</time>
      </trkpt>
      <trkpt lat="47.203740980476141" lon="10.894740996882319">
        <ele>780.25</ele>
        <time>2018-09-17T09:28:58Z</time>
      </trkpt>
      <trkpt lat="47.20371700823307" lon="10.894810985773802">
        <ele>780.73000000000002</ele>
        <time>2018-09-17T09:28:59Z</time>
      </trkpt>
      <trkpt lat="47.203689012676477" lon="10.894892038777471">
        <ele>781.21000000000004</ele>
        <time>2018-09-17T09:29:00Z</time>
      </trkpt>
      <trkpt lat="47.203536964952946" lon="10.895339967682958">
        <ele>782.16999999999996</ele>
        <time>2018-09-17T09:29:05Z</time>
      </trkpt>
      <trkpt lat="47.203505029901862" lon="10.895434012636542">
        <ele>782.16999999999996</ele>
        <time>2018-09-17T09:29:06Z</time>
      </trkpt>
      <trkpt lat="47.203441997990012" lon="10.895620007067919">
        <ele>783.13</ele>
        <time>2018-09-17T09:29:08Z</time>
      </trkpt>
      <trkpt lat="47.203276036307216" lon="10.896199028939009">
        <ele>785.52999999999997</ele>
        <time>2018-09-17T09:29:14Z</time>
      </trkpt>
      <trkpt lat="47.203249968588352" lon="10.896292990073562">
        <ele>786.01999999999998</ele>
        <time>2018-09-17T09:29:15Z</time>
      </trkpt>
      <trkpt lat="47.203194983303547" lon="10.89648300781846">
        <ele>786.98000000000002</ele>
        <time>2018-09-17T09:29:17Z</time>
      </trkpt>
      <trkpt lat="47.203165981918573" lon="10.896574035286903">
        <ele>787.94000000000005</ele>
        <time>2018-09-17T09:29:18Z</time>
      </trkpt>
      <trkpt lat="47.203076966106892" lon="10.896876035258174">
        <ele>790.34000000000003</ele>
        <time>2018-09-17T09:29:21Z</time>
      </trkpt>
      <trkpt lat="47.203045031055808" lon="10.896982988342643">
        <ele>790.82000000000005</ele>
        <time>2018-09-17T09:29:22Z</time>
      </trkpt>
      <trkpt lat="47.202842021360993" lon="10.897742975503206">
        <ele>790.82000000000005</ele>
        <time>2018-09-17T09:29:29Z</time>
      </trkpt>
      <trkpt lat="47.202747976407409" lon="10.898042963817716">
        <ele>790.34000000000003</ele>
        <time>2018-09-17T09:29:32Z</time>
      </trkpt>
      <trkpt lat="47.202682010829449" lon="10.89824203401804">
        <ele>789.86000000000001</ele>
        <time>2018-09-17T09:29:34Z</time>
      </trkpt>
      <trkpt lat="47.202648986130953" lon="10.898339012637734">
        <ele>789.86000000000001</ele>
        <time>2018-09-17T09:29:35Z</time>
      </trkpt>
      <trkpt lat="47.202583020552993" lon="10.898518972098827">
        <ele>789.86000000000001</ele>
        <time>2018-09-17T09:29:37Z</time>
      </trkpt>
      <trkpt lat="47.202544966712594" lon="10.89860899373889">
        <ele>789.86000000000001</ele>
        <time>2018-09-17T09:29:38Z</time>
      </trkpt>
      <trkpt lat="47.20238302834332" lon="10.898832036182284">
        <ele>790.34000000000003</ele>
        <time>2018-09-17T09:29:41Z</time>
      </trkpt>
      <trkpt lat="47.202330976724625" lon="10.898904036730528">
        <ele>790.34000000000003</ele>
        <time>2018-09-17T09:29:42Z</time>
      </trkpt>
      <trkpt lat="47.20214799977839" lon="10.899119032546878">
        <ele>789.86000000000001</ele>
        <time>2018-09-17T09:29:45Z</time>
      </trkpt>
      <trkpt lat="47.201751032844186" lon="10.89931701309979">
        <ele>787.46000000000004</ele>
        <time>2018-09-17T09:29:51Z</time>
      </trkpt>
      <trkpt lat="47.201670985668898" lon="10.899331010878086">
        <ele>786.98000000000002</ele>
        <time>2018-09-17T09:29:53Z</time>
      </trkpt>
      <trkpt lat="47.201622035354376" lon="10.899338973686099">
        <ele>786.98000000000002</ele>
        <time>2018-09-17T09:29:54Z</time>
      </trkpt>
      <trkpt lat="47.201456995680928" lon="10.899537960067391">
        <ele>786.5</ele>
        <time>2018-09-17T09:29:57Z</time>
      </trkpt>
      <trkpt lat="47.201402010396123" lon="10.899562016129494">
        <ele>786.5</ele>
        <time>2018-09-17T09:29:58Z</time>
      </trkpt>
      <trkpt lat="47.200630037114024" lon="10.899965018033981">
        <ele>787.94000000000005</ele>
        <time>2018-09-17T09:30:08Z</time>
      </trkpt>
      <trkpt lat="47.199713978916407" lon="10.901000015437603">
        <ele>793.71000000000004</ele>
        <time>2018-09-17T09:30:19Z</time>
      </trkpt>
      <trkpt lat="47.198894983157516" lon="10.902364002540708">
        <ele>801.39999999999998</ele>
        <time>2018-09-17T09:30:28Z</time>
      </trkpt>
      <trkpt lat="47.197785973548889" lon="10.904293013736606">
        <ele>813.40999999999997</ele>
        <time>2018-09-17T09:30:36Z</time>
      </trkpt>
      <trkpt lat="47.196349985897541" lon="10.906339958310127">
        <ele>821.10000000000002</ele>
        <time>2018-09-17T09:30:45Z</time>
      </trkpt>
      <trkpt lat="47.194791035726666" lon="10.907269008457661">
        <ele>829.75999999999999</ele>
        <time>2018-09-17T09:30:53Z</time>
      </trkpt>
      <trkpt lat="47.193808006122708" lon="10.907463971525431">
        <ele>837.45000000000005</ele>
        <time>2018-09-17T09:30:59Z</time>
      </trkpt>
      <trkpt lat="47.19267200678587" lon="10.907284012064338">
        <ele>844.17999999999995</ele>
        <time>2018-09-17T09:31:09Z</time>
      </trkpt>
      <trkpt lat="47.191228978335857" lon="10.906734997406602">
        <ele>846.58000000000004</ele>
        <time>2018-09-17T09:31:19Z</time>
      </trkpt>
      <trkpt lat="47.189680002629757" lon="10.906208027154207">
        <ele>850.41999999999996</ele>
        <time>2018-09-17T09:31:27Z</time>
      </trkpt>
      <trkpt lat="47.188322972506285" lon="10.906461998820305">
        <ele>853.78999999999996</ele>
        <time>2018-09-17T09:31:33Z</time>
      </trkpt>
      <trkpt lat="47.186983041465282" lon="10.907230032607913">
        <ele>856.66999999999996</ele>
        <time>2018-09-17T09:31:39Z</time>
      </trkpt>
      <trkpt lat="47.186744995415211" lon="10.907277977094054">
        <ele>857.63</ele>
        <time>2018-09-17T09:31:40Z</time>
      </trkpt>
      <trkpt lat="47.18650602735579" lon="10.907277977094054">
        <ele>858.11000000000001</ele>
        <time>2018-09-17T09:31:41Z</time>
      </trkpt>
      <trkpt lat="47.185875959694386" lon="10.907328017055988">
        <ele>860.51999999999998</ele>
        <time>2018-09-17T09:31:44Z</time>
      </trkpt>
      <trkpt lat="47.18568803742528" lon="10.907361963763833">
        <ele>861.48000000000002</ele>
        <time>2018-09-17T09:31:45Z</time>
      </trkpt>
      <trkpt lat="47.185522997751832" lon="10.907475035637617">
        <ele>862.44000000000005</ele>
        <time>2018-09-17T09:31:46Z</time>
      </trkpt>
      <trkpt lat="47.185362987220287" lon="10.907599003985524">
        <ele>863.39999999999998</ele>
        <time>2018-09-17T09:31:47Z</time>
      </trkpt>
      <trkpt lat="47.185222003608942" lon="10.907775023952127">
        <ele>864.36000000000001</ele>
        <time>2018-09-17T09:31:48Z</time>
      </trkpt>
      <trkpt lat="47.185101974755526" lon="10.907958000898361">
        <ele>865.32000000000005</ele>
        <time>2018-09-17T09:31:49Z</time>
      </trkpt>
      <trkpt lat="47.185028968378901" lon="10.908178025856614">
        <ele>865.79999999999995</ele>
        <time>2018-09-17T09:31:50Z</time>
      </trkpt>
      <trkpt lat="47.1849599853158" lon="10.908383969217539">
        <ele>866.76999999999998</ele>
        <time>2018-09-17T09:31:51Z</time>
      </trkpt>
      <trkpt lat="47.18489401973784" lon="10.908570969477296">
        <ele>867.25</ele>
        <time>2018-09-17T09:31:52Z</time>
      </trkpt>
      <trkpt lat="47.184832999482751" lon="10.908732991665602">
        <ele>867.73000000000002</ele>
        <time>2018-09-17T09:31:53Z</time>
      </trkpt>
      <trkpt lat="47.184771979227662" lon="10.908866012468934">
        <ele>868.21000000000004</ele>
        <time>2018-09-17T09:31:54Z</time>
      </trkpt>
      <trkpt lat="47.184710958972573" lon="10.90896500274539">
        <ele>868.69000000000005</ele>
        <time>2018-09-17T09:31:55Z</time>
      </trkpt>
      <trkpt lat="47.184621021151543" lon="10.908983023837209">
        <ele>868.69000000000005</ele>
        <time>2018-09-17T09:31:56Z</time>
      </trkpt>
      <trkpt lat="47.184552038088441" lon="10.908949999138713">
        <ele>869.16999999999996</ele>
        <time>2018-09-17T09:31:57Z</time>
      </trkpt>
      <trkpt lat="47.1845109667629" lon="10.908869029954076">
        <ele>869.64999999999998</ele>
        <time>2018-09-17T09:31:58Z</time>
      </trkpt>
      <trkpt lat="47.184455981478095" lon="10.908758975565434">
        <ele>870.13</ele>
        <time>2018-09-17T09:31:59Z</time>
      </trkpt>
      <trkpt lat="47.184455981478095" lon="10.908645987510681">
        <ele>870.61000000000001</ele>
        <time>2018-09-17T09:32:00Z</time>
      </trkpt>
      <trkpt lat="47.18450803309679" lon="10.908494023606181">
        <ele>871.57000000000005</ele>
        <time>2018-09-17T09:32:01Z</time>
      </trkpt>
      <trkpt lat="47.184570981189609" lon="10.908353962004185">
        <ele>872.04999999999995</ele>
        <time>2018-09-17T09:32:02Z</time>
      </trkpt>
      <trkpt lat="47.184649016708136" lon="10.908179031684995">
        <ele>873.00999999999999</ele>
        <time>2018-09-17T09:32:03Z</time>
      </trkpt>
      <trkpt lat="47.184678018093109" lon="10.907997982576489">
        <ele>874.46000000000004</ele>
        <time>2018-09-17T09:32:04Z</time>
      </trkpt>
      <trkpt lat="47.184712970629334" lon="10.907773012295365">
        <ele>875.41999999999996</ele>
        <time>2018-09-17T09:32:05Z</time>
      </trkpt>
      <trkpt lat="47.18470299616456" lon="10.907524991780519">
        <ele>876.86000000000001</ele>
        <time>2018-09-17T09:32:06Z</time>
      </trkpt>
      <trkpt lat="47.184691010043025" lon="10.907252999022603">
        <ele>878.29999999999995</ele>
        <time>2018-09-17T09:32:07Z</time>
      </trkpt>
      <trkpt lat="47.184678018093109" lon="10.90696600265801">
        <ele>879.25999999999999</ele>
        <time>2018-09-17T09:32:08Z</time>
      </trkpt>
      <trkpt lat="47.18467902392149" lon="10.906661991029978">
        <ele>880.22000000000003</ele>
        <time>2018-09-17T09:32:09Z</time>
      </trkpt>
      <trkpt lat="47.184698972851038" lon="10.906366026028991">
        <ele>881.66999999999996</ele>
        <time>2018-09-17T09:32:10Z</time>
      </trkpt>
      <trkpt lat="47.184719005599618" lon="10.905661024153233">
        <ele>885.02999999999997</ele>
        <time>2018-09-17T09:32:13Z</time>
      </trkpt>
      <trkpt lat="47.184694027528167" lon="10.905524985864758">
        <ele>886.47000000000003</ele>
        <time>2018-09-17T09:32:14Z</time>
      </trkpt>
      <trkpt lat="47.184665026143193" lon="10.905410991981626">
        <ele>887.42999999999995</ele>
        <time>2018-09-17T09:32:15Z</time>
      </trkpt>
      <trkpt lat="47.184607023373246" lon="10.905329016968608">
        <ele>887.90999999999997</ele>
        <time>2018-09-17T09:32:16Z</time>
      </trkpt>
      <trkpt lat="47.184528987854719" lon="10.905295992270112">
        <ele>888.88</ele>
        <time>2018-09-17T09:32:17Z</time>
      </trkpt>
      <trkpt lat="47.184442989528179" lon="10.905349971726537">
        <ele>889.36000000000001</ele>
        <time>2018-09-17T09:32:18Z</time>
      </trkpt>
      <trkpt lat="47.184392027556896" lon="10.905410991981626">
        <ele>889.84000000000003</ele>
        <time>2018-09-17T09:32:19Z</time>
      </trkpt>
      <trkpt lat="47.184376018121839" lon="10.905567985028028">
        <ele>890.32000000000005</ele>
        <time>2018-09-17T09:32:20Z</time>
      </trkpt>
      <trkpt lat="47.184362020343542" lon="10.905710980296135">
        <ele>890.79999999999995</ele>
        <time>2018-09-17T09:32:21Z</time>
      </trkpt>
      <trkpt lat="47.184345005080104" lon="10.905879959464073">
        <ele>891.27999999999997</ele>
        <time>2018-09-17T09:32:22Z</time>
      </trkpt>
      <trkpt lat="47.184325978159904" lon="10.906069977208972">
        <ele>891.27999999999997</ele>
        <time>2018-09-17T09:32:23Z</time>
      </trkpt>
      <trkpt lat="47.184017021209002" lon="10.907673016190529">
        <ele>894.15999999999997</ele>
        <time>2018-09-17T09:32:30Z</time>
      </trkpt>
      <trkpt lat="47.183917025104165" lon="10.908151958137751">
        <ele>895.12</ele>
        <time>2018-09-17T09:32:32Z</time>
      </trkpt>
      <trkpt lat="47.183841001242399" lon="10.908381035551429">
        <ele>895.61000000000001</ele>
        <time>2018-09-17T09:32:33Z</time>
      </trkpt>
      <trkpt lat="47.183741005137563" lon="10.908575998619199">
        <ele>896.09000000000003</ele>
        <time>2018-09-17T09:32:34Z</time>
      </trkpt>
      <trkpt lat="47.183626005426049" lon="10.908749001100659">
        <ele>897.04999999999995</ele>
        <time>2018-09-17T09:32:35Z</time>
      </trkpt>
      <trkpt lat="47.183483010157943" lon="10.908877998590469">
        <ele>898.00999999999999</ele>
        <time>2018-09-17T09:32:36Z</time>
      </trkpt>
      <trkpt lat="47.183315958827734" lon="10.908977994695306">
        <ele>899.45000000000005</ele>
        <time>2018-09-17T09:32:37Z</time>
      </trkpt>
      <trkpt lat="47.183141028508544" lon="10.909081008285284">
        <ele>900.40999999999997</ele>
        <time>2018-09-17T09:32:38Z</time>
      </trkpt>
      <trkpt lat="47.181842001155019" lon="10.910075018182397">
        <ele>911.47000000000003</ele>
        <time>2018-09-17T09:32:45Z</time>
      </trkpt>
      <trkpt lat="47.181270020082593" lon="10.9103839751333">
        <ele>916.26999999999998</ele>
        <time>2018-09-17T09:32:48Z</time>
      </trkpt>
      <trkpt lat="47.181101962924004" lon="10.910467961803079">
        <ele>917.72000000000003</ele>
        <time>2018-09-17T09:32:49Z</time>
      </trkpt>
      <trkpt lat="47.180971037596464" lon="10.910658985376358">
        <ele>919.63999999999999</ele>
        <time>2018-09-17T09:32:50Z</time>
      </trkpt>
      <trkpt lat="47.180864000692964" lon="10.910828970372677">
        <ele>920.60000000000002</ele>
        <time>2018-09-17T09:32:51Z</time>
      </trkpt>
      <trkpt lat="47.180774984881282" lon="10.910999961197376">
        <ele>922.03999999999996</ele>
        <time>2018-09-17T09:32:52Z</time>
      </trkpt>
      <trkpt lat="47.18051296658814" lon="10.91143699362874">
        <ele>925.40999999999997</ele>
        <time>2018-09-17T09:32:55Z</time>
      </trkpt>
      <trkpt lat="47.180422022938728" lon="10.911570014432073">
        <ele>926.37</ele>
        <time>2018-09-17T09:32:56Z</time>
      </trkpt>
      <trkpt lat="47.18029797077179" lon="10.91165198944509">
        <ele>927.33000000000004</ele>
        <time>2018-09-17T09:32:57Z</time>
      </trkpt>
      <trkpt lat="47.180164027959108" lon="10.911741005256772">
        <ele>927.33000000000004</ele>
        <time>2018-09-17T09:32:58Z</time>
      </trkpt>
      <trkpt lat="47.180011980235577" lon="10.911776963621378">
        <ele>927.33000000000004</ele>
        <time>2018-09-17T09:32:59Z</time>
      </trkpt>
      <trkpt lat="47.179850041866302" lon="10.911805965006351">
        <ele>926.85000000000002</ele>
        <time>2018-09-17T09:33:00Z</time>
      </trkpt>
      <trkpt lat="47.179676033556461" lon="10.911805965006351">
        <ele>926.85000000000002</ele>
        <time>2018-09-17T09:33:01Z</time>
      </trkpt>
      <trkpt lat="47.178381029516459" lon="10.912061026319861">
        <ele>924.92999999999995</ele>
        <time>2018-09-17T09:33:08Z</time>
      </trkpt>
      <trkpt lat="47.178212972357869" lon="10.912050968036056">
        <ele>924.45000000000005</ele>
        <time>2018-09-17T09:33:09Z</time>
      </trkpt>
      <trkpt lat="47.17806201428175" lon="10.912041999399662">
        <ele>924.45000000000005</ele>
        <time>2018-09-17T09:33:10Z</time>
      </trkpt>
      <trkpt lat="47.177781974896789" lon="10.911896992474794">
        <ele>924.92999999999995</ele>
        <time>2018-09-17T09:33:12Z</time>
      </trkpt>
      <trkpt lat="47.177646020427346" lon="10.911825997754931">
        <ele>924.92999999999995</ele>
        <time>2018-09-17T09:33:13Z</time>
      </trkpt>
      <trkpt lat="47.177508976310492" lon="10.911755003035069">
        <ele>924.92999999999995</ele>
        <time>2018-09-17T09:33:14Z</time>
      </trkpt>
      <trkpt lat="47.176428968086839" lon="10.910644987598062">
        <ele>925.40999999999997</ele>
        <time>2018-09-17T09:33:23Z</time>
      </trkpt>
      <trkpt lat="47.175463037565351" lon="10.910087004303932">
        <ele>926.37</ele>
        <time>2018-09-17T09:33:30Z</time>
      </trkpt>
      <trkpt lat="47.174264006316662" lon="10.910089015960693">
        <ele>926.85000000000002</ele>
        <time>2018-09-17T09:33:38Z</time>
      </trkpt>
      <trkpt lat="47.171973986551166" lon="10.910465028136969">
        <ele>930.69000000000005</ele>
        <time>2018-09-17T09:33:53Z</time>
      </trkpt>
      <trkpt lat="47.170013040304184" lon="10.910686980932951">
        <ele>932.62</ele>
        <time>2018-09-17T09:34:05Z</time>
      </trkpt>
      <trkpt lat="47.168140020221472" lon="10.910573992878199">
        <ele>935.5</ele>
        <time>2018-09-17T09:34:14Z</time>
      </trkpt>
      <trkpt lat="47.165857963263988" lon="10.910453964024782">
        <ele>937.41999999999996</ele>
        <time>2018-09-17T09:34:24Z</time>
      </trkpt>
      <trkpt lat="47.164696985855699" lon="10.910413982346654">
        <ele>938.38</ele>
        <time>2018-09-17T09:34:30Z</time>
      </trkpt>
      <trkpt lat="47.164520965889096" lon="10.910451030358672">
        <ele>938.86000000000001</ele>
        <time>2018-09-17T09:34:31Z</time>
      </trkpt>
      <trkpt lat="47.164331031963229" lon="10.910521019250154">
        <ele>939.35000000000002</ele>
        <time>2018-09-17T09:34:32Z</time>
      </trkpt>
      <trkpt lat="47.164144031703472" lon="10.91059997677803">
        <ele>939.83000000000004</ele>
        <time>2018-09-17T09:34:33Z</time>
      </trkpt>
      <trkpt lat="47.163920989260077" lon="10.910711036995053">
        <ele>940.30999999999995</ele>
        <time>2018-09-17T09:34:34Z</time>
      </trkpt>
      <trkpt lat="47.163765002042055" lon="10.910836011171341">
        <ele>940.30999999999995</ele>
        <time>2018-09-17T09:34:35Z</time>
      </trkpt>
      <trkpt lat="47.162965033203363" lon="10.911404974758625">
        <ele>940.78999999999996</ele>
        <time>2018-09-17T09:34:39Z</time>
      </trkpt>
      <trkpt lat="47.162746014073491" lon="10.911449985578656">
        <ele>940.30999999999995</ele>
        <time>2018-09-17T09:34:40Z</time>
      </trkpt>
      <trkpt lat="47.162531018257141" lon="10.911494996398687">
        <ele>940.30999999999995</ele>
        <time>2018-09-17T09:34:41Z</time>
      </trkpt>
      <trkpt lat="47.162306969985366" lon="10.911475969478488">
        <ele>940.30999999999995</ele>
        <time>2018-09-17T09:34:42Z</time>
      </trkpt>
      <trkpt lat="47.162085017189384" lon="10.911434981971979">
        <ele>940.30999999999995</ele>
        <time>2018-09-17T09:34:43Z</time>
      </trkpt>
      <trkpt lat="47.161885024979711" lon="10.911334985867143">
        <ele>940.78999999999996</ele>
        <time>2018-09-17T09:34:44Z</time>
      </trkpt>
      <trkpt lat="47.161694001406431" lon="10.911240018904209">
        <ele>940.30999999999995</ele>
        <time>2018-09-17T09:34:45Z</time>
      </trkpt>
      <trkpt lat="47.161496020853519" lon="10.911141028627753">
        <ele>940.30999999999995</ele>
        <time>2018-09-17T09:34:46Z</time>
      </trkpt>
      <trkpt lat="47.159998007118702" lon="10.910390010103583">
        <ele>939.83000000000004</ele>
        <time>2018-09-17T09:34:53Z</time>
      </trkpt>
      <trkpt lat="47.15767303481698" lon="10.910130003467202">
        <ele>940.78999999999996</ele>
        <time>2018-09-17T09:35:02Z</time>
      </trkpt>
      <trkpt lat="47.156321033835411" lon="10.910793012008071">
        <ele>943.19000000000005</ele>
        <time>2018-09-17T09:35:08Z</time>
      </trkpt>
      <trkpt lat="47.155689038336277" lon="10.911123007535934">
        <ele>944.14999999999998</ele>
        <time>2018-09-17T09:35:11Z</time>
      </trkpt>
      <trkpt lat="47.154382970184088" lon="10.911806970834732">
        <ele>945.59000000000003</ele>
        <time>2018-09-17T09:35:19Z</time>
      </trkpt>
      <trkpt lat="47.153029041364789" lon="10.912431003525853">
        <ele>949.91999999999996</ele>
        <time>2018-09-17T09:35:27Z</time>
      </trkpt>
      <trkpt lat="47.151792962104082" lon="10.912999967113137">
        <ele>954.73000000000002</ele>
        <time>2018-09-17T09:35:35Z</time>
      </trkpt>
      <trkpt lat="47.150311963632703" lon="10.913879983127117">
        <ele>961.46000000000004</ele>
        <time>2018-09-17T09:35:47Z</time>
      </trkpt>
      <trkpt lat="47.148878993466496" lon="10.91483099386096">
        <ele>969.14999999999998</ele>
        <time>2018-09-17T09:35:58Z</time>
      </trkpt>
      <trkpt lat="47.147907027974725" lon="10.915535995736718">
        <ele>976.36000000000001</ele>
        <time>2018-09-17T09:36:06Z</time>
      </trkpt>
      <trkpt lat="47.146712020039558" lon="10.916182994842529">
        <ele>981.63999999999999</ele>
        <time>2018-09-17T09:36:14Z</time>
      </trkpt>
      <trkpt lat="47.144776973873377" lon="10.917053958401084">
        <ele>992.22000000000003</ele>
        <time>2018-09-17T09:36:27Z</time>
      </trkpt>
      <trkpt lat="47.143786987289786" lon="10.917756026610732">
        <ele>997.50999999999999</ele>
        <time>2018-09-17T09:36:35Z</time>
      </trkpt>
      <trkpt lat="47.142979977652431" lon="10.918884985148907">
        <ele>1000.87</ele>
        <time>2018-09-17T09:36:42Z</time>
      </trkpt>
      <trkpt lat="47.141974987462163" lon="10.920390961691737">
        <ele>1005.6799999999999</ele>
        <time>2018-09-17T09:36:51Z</time>
      </trkpt>
      <trkpt lat="47.141135958954692" lon="10.921832984313369">
        <ele>1013.37</ele>
        <time>2018-09-17T09:37:00Z</time>
      </trkpt>
      <trkpt lat="47.140350993722677" lon="10.923450021073222">
        <ele>1020.58</ele>
        <time>2018-09-17T09:37:10Z</time>
      </trkpt>
      <trkpt lat="47.139565022662282" lon="10.924656009301543">
        <ele>1027.3099999999999</ele>
        <time>2018-09-17T09:37:17Z</time>
      </trkpt>
      <trkpt lat="47.138506975024939" lon="10.925417002290487">
        <ele>1036.4400000000001</ele>
        <time>2018-09-17T09:37:25Z</time>
      </trkpt>
      <trkpt lat="47.137353960424662" lon="10.925871971994638">
        <ele>1045.0899999999999</ele>
        <time>2018-09-17T09:37:34Z</time>
      </trkpt>
      <trkpt lat="47.135981004685163" lon="10.926085961982608">
        <ele>1050.8599999999999</ele>
        <time>2018-09-17T09:37:42Z</time>
      </trkpt>
      <trkpt lat="47.134453989565372" lon="10.925906002521515">
        <ele>1056.1500000000001</ele>
        <time>2018-09-17T09:37:51Z</time>
      </trkpt>
      <trkpt lat="47.13318002410233" lon="10.925102010369301">
        <ele>1057.1099999999999</ele>
        <time>2018-09-17T09:38:00Z</time>
      </trkpt>
      <trkpt lat="47.132334038615227" lon="10.92409199103713">
        <ele>1056.1500000000001</ele>
        <time>2018-09-17T09:38:06Z</time>
      </trkpt>
      <trkpt lat="47.131679998710752" lon="10.923319011926651">
        <ele>1054.22</ele>
        <time>2018-09-17T09:38:11Z</time>
      </trkpt>
      <trkpt lat="47.131559969857335" lon="10.923207029700279">
        <ele>1054.22</ele>
        <time>2018-09-17T09:38:12Z</time>
      </trkpt>
      <trkpt lat="47.131438013166189" lon="10.923092029988766">
        <ele>1053.74</ele>
        <time>2018-09-17T09:38:13Z</time>
      </trkpt>
      <trkpt lat="47.131022019311786" lon="10.922923972830176">
        <ele>1052.78</ele>
        <time>2018-09-17T09:38:16Z</time>
      </trkpt>
      <trkpt lat="47.13088396936655" lon="10.922898994758725">
        <ele>1052.78</ele>
        <time>2018-09-17T09:38:17Z</time>
      </trkpt>
      <trkpt lat="47.130748014897108" lon="10.922898994758725">
        <ele>1052.3</ele>
        <time>2018-09-17T09:38:18Z</time>
      </trkpt>
      <trkpt lat="47.130604013800621" lon="10.922935958951712">
        <ele>1051.8199999999999</ele>
        <time>2018-09-17T09:38:19Z</time>
      </trkpt>
      <trkpt lat="47.130471998825669" lon="10.922997985035181">
        <ele>1051.8199999999999</ele>
        <time>2018-09-17T09:38:20Z</time>
      </trkpt>
      <trkpt lat="47.130334032699466" lon="10.92307903803885">
        <ele>1051.3399999999999</ele>
        <time>2018-09-17T09:38:21Z</time>
      </trkpt>
      <trkpt lat="47.130203023552895" lon="10.923217004165053">
        <ele>1050.8599999999999</ele>
        <time>2018-09-17T09:38:22Z</time>
      </trkpt>
      <trkpt lat="47.130045024678111" lon="10.923384977504611">
        <ele>1050.3800000000001</ele>
        <time>2018-09-17T09:38:23Z</time>
      </trkpt>
      <trkpt lat="47.129886019974947" lon="10.923622017726302">
        <ele>1049.9000000000001</ele>
        <time>2018-09-17T09:38:24Z</time>
      </trkpt>
      <trkpt lat="47.129419986158609" lon="10.924379993230104">
        <ele>1047.01</ele>
        <time>2018-09-17T09:38:27Z</time>
      </trkpt>
      <trkpt lat="47.129229968413711" lon="10.924581997096539">
        <ele>1045.5699999999999</ele>
        <time>2018-09-17T09:38:28Z</time>
      </trkpt>
      <trkpt lat="47.129023019224405" lon="10.924716023728251">
        <ele>1044.6099999999999</ele>
        <time>2018-09-17T09:38:29Z</time>
      </trkpt>
      <trkpt lat="47.128800982609391" lon="10.92482197098434">
        <ele>1043.1700000000001</ele>
        <time>2018-09-17T09:38:30Z</time>
      </trkpt>
      <trkpt lat="47.128574000671506" lon="10.924860024824739">
        <ele>1042.21</ele>
        <time>2018-09-17T09:38:31Z</time>
      </trkpt>
      <trkpt lat="47.128344001248479" lon="10.924895983189344">
        <ele>1041.25</ele>
        <time>2018-09-17T09:38:32Z</time>
      </trkpt>
      <trkpt lat="47.128108972683549" lon="10.924906963482499">
        <ele>1040.28</ele>
        <time>2018-09-17T09:38:33Z</time>
      </trkpt>
      <trkpt lat="47.127211019396782" lon="10.924990028142929">
        <ele>1036.4400000000001</ele>
        <time>2018-09-17T09:38:37Z</time>
      </trkpt>
      <trkpt lat="47.127021001651883" lon="10.925074014812708">
        <ele>1035.48</ele>
        <time>2018-09-17T09:38:38Z</time>
      </trkpt>
      <trkpt lat="47.12682100944221" lon="10.925174010917544">
        <ele>1035</ele>
        <time>2018-09-17T09:38:39Z</time>
      </trkpt>
      <trkpt lat="47.126678014174104" lon="10.925328992307186">
        <ele>1034.04</ele>
        <time>2018-09-17T09:38:40Z</time>
      </trkpt>
      <trkpt lat="47.126538036391139" lon="10.925520015880466">
        <ele>1033.0699999999999</ele>
        <time>2018-09-17T09:38:41Z</time>
      </trkpt>
      <trkpt lat="47.1264139842242" lon="10.925754960626364">
        <ele>1032.1099999999999</ele>
        <time>2018-09-17T09:38:42Z</time>
      </trkpt>
      <trkpt lat="47.126323962584138" lon="10.926030976697803">
        <ele>1031.6300000000001</ele>
        <time>2018-09-17T09:38:43Z</time>
      </trkpt>
      <trkpt lat="47.126237964257598" lon="10.926329037174582">
        <ele>1030.6700000000001</ele>
        <time>2018-09-17T09:38:44Z</time>
      </trkpt>
      <trkpt lat="47.126058004796505" lon="10.926942005753517">
        <ele>1029.23</ele>
        <time>2018-09-17T09:38:46Z</time>
      </trkpt>
      <trkpt lat="47.125463979318738" lon="10.92800198122859">
        <ele>1026.3399999999999</ele>
        <time>2018-09-17T09:38:50Z</time>
      </trkpt>
      <trkpt lat="47.125278990715742" lon="10.928219994530082">
        <ele>1025.8599999999999</ele>
        <time>2018-09-17T09:38:51Z</time>
      </trkpt>
      <trkpt lat="47.125084027647972" lon="10.928410012274981">
        <ele>1025.3800000000001</ele>
        <time>2018-09-17T09:38:52Z</time>
      </trkpt>
      <trkpt lat="47.124869031831622" lon="10.928564993664622">
        <ele>1024.4200000000001</ele>
        <time>2018-09-17T09:38:53Z</time>
      </trkpt>
      <trkpt lat="47.124652024358511" lon="10.928719975054264">
        <ele>1024.4200000000001</ele>
        <time>2018-09-17T09:38:54Z</time>
      </trkpt>
      <trkpt lat="47.122659981250763" lon="10.930413035675883">
        <ele>1028.75</ele>
        <time>2018-09-17T09:39:04Z</time>
      </trkpt>
      <trkpt lat="47.1211919747293" lon="10.931753972545266">
        <ele>1035.96</ele>
        <time>2018-09-17T09:39:11Z</time>
      </trkpt>
      <trkpt lat="47.119145030155778" lon="10.933905020356178">
        <ele>1049.4200000000001</ele>
        <time>2018-09-17T09:39:21Z</time>
      </trkpt>
      <trkpt lat="47.117737038061023" lon="10.935369003564119">
        <ele>1058.55</ele>
        <time>2018-09-17T09:39:29Z</time>
      </trkpt>
      <trkpt lat="47.116866996511817" lon="10.9359070379287">
        <ele>1064.3199999999999</ele>
        <time>2018-09-17T09:39:35Z</time>
      </trkpt>
      <trkpt lat="47.116716038435698" lon="10.935959005728364">
        <ele>1065.28</ele>
        <time>2018-09-17T09:39:36Z</time>
      </trkpt>
      <trkpt lat="47.116559967398643" lon="10.935993958264589">
        <ele>1066.24</ele>
        <time>2018-09-17T09:39:37Z</time>
      </trkpt>
      <trkpt lat="47.115897964686155" lon="10.936115998774767">
        <ele>1072.97</ele>
        <time>2018-09-17T09:39:43Z</time>
      </trkpt>
      <trkpt lat="47.115808026865125" lon="10.936131002381444">
        <ele>1073.9300000000001</ele>
        <time>2018-09-17T09:39:44Z</time>
      </trkpt>
      <trkpt lat="47.115716999396682" lon="10.936147011816502">
        <ele>1075.3699999999999</ele>
        <time>2018-09-17T09:39:45Z</time>
      </trkpt>
      <trkpt lat="47.115615997463465" lon="10.936192022636533">
        <ele>1076.8099999999999</ele>
        <time>2018-09-17T09:39:46Z</time>
      </trkpt>
      <trkpt lat="47.115547014400363" lon="10.936278020963073">
        <ele>1078.26</ele>
        <time>2018-09-17T09:39:47Z</time>
      </trkpt>
      <trkpt lat="47.115479959174991" lon="10.936361001804471">
        <ele>1080.1800000000001</ele>
        <time>2018-09-17T09:39:48Z</time>
      </trkpt>
      <trkpt lat="47.115413993597031" lon="10.936443982645869">
        <ele>1081.6199999999999</ele>
        <time>2018-09-17T09:39:49Z</time>
      </trkpt>
      <trkpt lat="47.115359008312225" lon="10.93659401871264">
        <ele>1082.5799999999999</ele>
        <time>2018-09-17T09:39:50Z</time>
      </trkpt>
      <trkpt lat="47.115323971956968" lon="10.936750005930662">
        <ele>1084.02</ele>
        <time>2018-09-17T09:39:51Z</time>
      </trkpt>
      <trkpt lat="47.115293964743614" lon="10.936885960400105">
        <ele>1084.99</ele>
        <time>2018-09-17T09:39:52Z</time>
      </trkpt>
      <trkpt lat="47.115268986672163" lon="10.936999032273889">
        <ele>1085.95</ele>
        <time>2018-09-17T09:39:53Z</time>
      </trkpt>
      <trkpt lat="47.115248031914234" lon="10.937104979529977">
        <ele>1086.9100000000001</ele>
        <time>2018-09-17T09:39:54Z</time>
      </trkpt>
      <trkpt lat="47.115216013044119" lon="10.937315030023456">
        <ele>1088.8299999999999</ele>
        <time>2018-09-17T09:39:56Z</time>
      </trkpt>
      <trkpt lat="47.115182988345623" lon="10.937407985329628">
        <ele>1089.3099999999999</ele>
        <time>2018-09-17T09:39:57Z</time>
      </trkpt>
      <trkpt lat="47.115140995010734" lon="10.937506975606084">
        <ele>1090.27</ele>
        <time>2018-09-17T09:39:58Z</time>
      </trkpt>
      <trkpt lat="47.115099001675844" lon="10.93760403804481">
        <ele>1090.75</ele>
        <time>2018-09-17T09:39:59Z</time>
      </trkpt>
      <trkpt lat="47.115059019997716" lon="10.937696993350983">
        <ele>1090.75</ele>
        <time>2018-09-17T09:40:00Z</time>
      </trkpt>
      <trkpt lat="47.115020966157317" lon="10.937785003334284">
        <ele>1091.23</ele>
        <time>2018-09-17T09:40:01Z</time>
      </trkpt>
      <trkpt lat="47.114986013621092" lon="10.937872007489204">
        <ele>1092.2</ele>
        <time>2018-09-17T09:40:02Z</time>
      </trkpt>
      <trkpt lat="47.114933039993048" lon="10.938006034120917">
        <ele>1092.6800000000001</ele>
        <time>2018-09-17T09:40:03Z</time>
      </trkpt>
      <trkpt lat="47.114925999194384" lon="10.938065964728594">
        <ele>1093.1600000000001</ele>
        <time>2018-09-17T09:40:04Z</time>
      </trkpt>
      <trkpt lat="47.114914013072848" lon="10.938166966661811">
        <ele>1093.6400000000001</ele>
        <time>2018-09-17T09:40:05Z</time>
      </trkpt>
      <trkpt lat="47.114856010302901" lon="10.938643980771303">
        <ele>1096.52</ele>
        <time>2018-09-17T09:40:09Z</time>
      </trkpt>
      <trkpt lat="47.114827008917928" lon="10.938756968826056">
        <ele>1097.48</ele>
        <time>2018-09-17T09:40:10Z</time>
      </trkpt>
      <trkpt lat="47.114777974784374" lon="10.938859982416034">
        <ele>1098.4400000000001</ele>
        <time>2018-09-17T09:40:11Z</time>
      </trkpt>
      <trkpt lat="47.114731958135962" lon="10.938957966864109">
        <ele>1098.9200000000001</ele>
        <time>2018-09-17T09:40:12Z</time>
      </trkpt>
      <trkpt lat="47.114675967022777" lon="10.939077995717525">
        <ele>1099.4000000000001</ele>
        <time>2018-09-17T09:40:13Z</time>
      </trkpt>
      <trkpt lat="47.11459499783814" lon="10.939125018194318">
        <ele>1099.8900000000001</ele>
        <time>2018-09-17T09:40:14Z</time>
      </trkpt>
      <trkpt lat="47.114507993683219" lon="10.939175980165601">
        <ele>1100.3699999999999</ele>
        <time>2018-09-17T09:40:15Z</time>
      </trkpt>
      <trkpt lat="47.114406991750002" lon="10.939230965450406">
        <ele>1100.8499999999999</ele>
        <time>2018-09-17T09:40:16Z</time>
      </trkpt>
      <trkpt lat="47.11427497677505" lon="10.93925803899765">
        <ele>1101.8099999999999</ele>
        <time>2018-09-17T09:40:17Z</time>
      </trkpt>
      <trkpt lat="47.113594030961394" lon="10.939400028437376">
        <ele>1105.6500000000001</ele>
        <time>2018-09-17T09:40:21Z</time>
      </trkpt>
      <trkpt lat="47.113420022651553" lon="10.939436992630363">
        <ele>1107.0999999999999</ele>
        <time>2018-09-17T09:40:22Z</time>
      </trkpt>
      <trkpt lat="47.113282978534698" lon="10.939542017877102">
        <ele>1108.0599999999999</ele>
        <time>2018-09-17T09:40:23Z</time>
      </trkpt>
      <trkpt lat="47.113159010186791" lon="10.939659029245377">
        <ele>1109.5</ele>
        <time>2018-09-17T09:40:24Z</time>
      </trkpt>
      <trkpt lat="47.113046022132039" lon="10.939765982329845">
        <ele>1110.46</ele>
        <time>2018-09-17T09:40:25Z</time>
      </trkpt>
      <trkpt lat="47.112975027412176" lon="10.939910989254713">
        <ele>1111.4200000000001</ele>
        <time>2018-09-17T09:40:26Z</time>
      </trkpt>
      <trkpt lat="47.112908978015184" lon="10.940078962594271">
        <ele>1112.3800000000001</ele>
        <time>2018-09-17T09:40:27Z</time>
      </trkpt>
      <trkpt lat="47.112830020487309" lon="10.940279960632324">
        <ele>1113.3399999999999</ele>
        <time>2018-09-17T09:40:28Z</time>
      </trkpt>
      <trkpt lat="47.112780986353755" lon="10.940455980598927">
        <ele>1113.8199999999999</ele>
        <time>2018-09-17T09:40:29Z</time>
      </trkpt>
      <trkpt lat="47.112502036616206" lon="10.941343037411571">
        <ele>1116.71</ele>
        <time>2018-09-17T09:40:33Z</time>
      </trkpt>
      <trkpt lat="47.112396005541086" lon="10.941538000479341">
        <ele>1117.1900000000001</ele>
        <time>2018-09-17T09:40:34Z</time>
      </trkpt>
      <trkpt lat="47.112258039414883" lon="10.941705973818898">
        <ele>1117.6700000000001</ele>
        <time>2018-09-17T09:40:35Z</time>
      </trkpt>
      <trkpt lat="47.112090988084674" lon="10.941807981580496">
        <ele>1118.1500000000001</ele>
        <time>2018-09-17T09:40:36Z</time>
      </trkpt>
      <trkpt lat="47.111928965896368" lon="10.941889034584165">
        <ele>1118.1500000000001</ele>
        <time>2018-09-17T09:40:37Z</time>
      </trkpt>
      <trkpt lat="47.111746994778514" lon="10.941904960200191">
        <ele>1118.6300000000001</ele>
        <time>2018-09-17T09:40:38Z</time>
      </trkpt>
      <trkpt lat="47.111556977033615" lon="10.941871013492346">
        <ele>1119.1099999999999</ele>
        <time>2018-09-17T09:40:39Z</time>
      </trkpt>
      <trkpt lat="47.111360002309084" lon="10.941834971308708">
        <ele>1120.0699999999999</ele>
        <time>2018-09-17T09:40:40Z</time>
      </trkpt>
      <trkpt lat="47.111166967079043" lon="10.941789960488677">
        <ele>1120.55</ele>
        <time>2018-09-17T09:40:41Z</time>
      </trkpt>
      <trkpt lat="47.11096303537488" lon="10.941738998517394">
        <ele>1121.52</ele>
        <time>2018-09-17T09:40:42Z</time>
      </trkpt>
      <trkpt lat="47.110778968781233" lon="10.941770011559129">
        <ele>1122.48</ele>
        <time>2018-09-17T09:40:43Z</time>
      </trkpt>
      <trkpt lat="47.110598003491759" lon="10.941861039027572">
        <ele>1123.4400000000001</ele>
        <time>2018-09-17T09:40:44Z</time>
      </trkpt>
      <trkpt lat="47.110429024323821" lon="10.941982995718718">
        <ele>1124.4000000000001</ele>
        <time>2018-09-17T09:40:45Z</time>
      </trkpt>
      <trkpt lat="47.110233977437019" lon="10.942124985158443">
        <ele>1125.8399999999999</ele>
        <time>2018-09-17T09:40:46Z</time>
      </trkpt>
      <trkpt lat="47.110127024352551" lon="10.942276027053595">
        <ele>1126.8</ele>
        <time>2018-09-17T09:40:47Z</time>
      </trkpt>
      <trkpt lat="47.110013030469418" lon="10.942534022033215">
        <ele>1128.24</ele>
        <time>2018-09-17T09:40:48Z</time>
      </trkpt>
      <trkpt lat="47.109904987737536" lon="10.942778019234538">
        <ele>1129.21</ele>
        <time>2018-09-17T09:40:49Z</time>
      </trkpt>
      <trkpt lat="47.109842961654067" lon="10.943071972578764">
        <ele>1130.6500000000001</ele>
        <time>2018-09-17T09:40:50Z</time>
      </trkpt>
      <trkpt lat="47.109783031046391" lon="10.943380007520318">
        <ele>1131.6099999999999</ele>
        <time>2018-09-17T09:40:51Z</time>
      </trkpt>
      <trkpt lat="47.109126979485154" lon="10.945824002847075">
        <ele>1135.9400000000001</ele>
        <time>2018-09-17T09:40:58Z</time>
      </trkpt>
      <trkpt lat="47.108030961826444" lon="10.948146041482687">
        <ele>1140.74</ele>
        <time>2018-09-17T09:41:05Z</time>
      </trkpt>
      <trkpt lat="47.107769027352333" lon="10.9487359598279">
        <ele>1142.6600000000001</ele>
        <time>2018-09-17T09:41:07Z</time>
      </trkpt>
      <trkpt lat="47.107656039297581" lon="10.949019016698003">
        <ele>1143.6300000000001</ele>
        <time>2018-09-17T09:41:08Z</time>
      </trkpt>
      <trkpt lat="47.107619997113943" lon="10.949319005012512">
        <ele>1144.5899999999999</ele>
        <time>2018-09-17T09:41:09Z</time>
      </trkpt>
      <trkpt lat="47.107582027092576" lon="10.949642965570092">
        <ele>1145.0699999999999</ele>
        <time>2018-09-17T09:41:10Z</time>
      </trkpt>
      <trkpt lat="47.107542967423797" lon="10.949972039088607">
        <ele>1145.55</ele>
        <time>2018-09-17T09:41:11Z</time>
      </trkpt>
      <trkpt lat="47.107497034594417" lon="10.95030496828258">
        <ele>1146.03</ele>
        <time>2018-09-17T09:41:12Z</time>
      </trkpt>
      <trkpt lat="47.107414975762367" lon="10.950637981295586">
        <ele>1146.51</ele>
        <time>2018-09-17T09:41:13Z</time>
      </trkpt>
      <trkpt lat="47.10709503851831" lon="10.95236498862505">
        <ele>1149.8699999999999</ele>
        <time>2018-09-17T09:41:18Z</time>
      </trkpt>
      <trkpt lat="47.107022032141685" lon="10.952652990818024">
        <ele>1150.3499999999999</ele>
        <time>2018-09-17T09:41:19Z</time>
      </trkpt>
      <trkpt lat="47.106906026601791" lon="10.95290201716125">
        <ele>1150.8399999999999</ele>
        <time>2018-09-17T09:41:20Z</time>
      </trkpt>
      <trkpt lat="47.10677501745522" lon="10.953136961907148">
        <ele>1151.3199999999999</ele>
        <time>2018-09-17T09:41:21Z</time>
      </trkpt>
      <trkpt lat="47.106607966125011" lon="10.953304013237357">
        <ele>1151.3199999999999</ele>
        <time>2018-09-17T09:41:22Z</time>
      </trkpt>
      <trkpt lat="47.106433035805821" lon="10.953458994626999">
        <ele>1151.3199999999999</ele>
        <time>2018-09-17T09:41:23Z</time>
      </trkpt>
      <trkpt lat="47.1062389947474" lon="10.953563014045358">
        <ele>1151.3199999999999</ele>
        <time>2018-09-17T09:41:24Z</time>
      </trkpt>
      <trkpt lat="47.106036990880966" lon="10.953602995723486">
        <ele>1150.8399999999999</ele>
        <time>2018-09-17T09:41:25Z</time>
      </trkpt>
      <trkpt lat="47.105840016156435" lon="10.953573994338512">
        <ele>1150.8399999999999</ele>
        <time>2018-09-17T09:41:26Z</time>
      </trkpt>
      <trkpt lat="47.105642035603523" lon="10.953540969640017">
        <ele>1150.8399999999999</ele>
        <time>2018-09-17T09:41:27Z</time>
      </trkpt>
      <trkpt lat="47.105471966788173" lon="10.953437034040689">
        <ele>1150.3499999999999</ele>
        <time>2018-09-17T09:41:28Z</time>
      </trkpt>
      <trkpt lat="47.105287984013557" lon="10.953285992145538">
        <ele>1150.3499999999999</ele>
        <time>2018-09-17T09:41:29Z</time>
      </trkpt>
      <trkpt lat="47.105117999017239" lon="10.95309597440064">
        <ele>1150.3499999999999</ele>
        <time>2018-09-17T09:41:30Z</time>
      </trkpt>
      <trkpt lat="47.104942984879017" lon="10.95290101133287">
        <ele>1150.3499999999999</ele>
        <time>2018-09-17T09:41:31Z</time>
      </trkpt>
      <trkpt lat="47.10460502654314" lon="10.952529022470117">
        <ele>1150.8399999999999</ele>
        <time>2018-09-17T09:41:33Z</time>
      </trkpt>
      <trkpt lat="47.10441299714148" lon="10.952427014708519">
        <ele>1150.8399999999999</ele>
        <time>2018-09-17T09:41:34Z</time>
      </trkpt>
      <trkpt lat="47.10422096773982" lon="10.952332969754934">
        <ele>1150.8399999999999</ele>
        <time>2018-09-17T09:41:35Z</time>
      </trkpt>
      <trkpt lat="47.104017036035657" lon="10.952285025268793">
        <ele>1151.3199999999999</ele>
        <time>2018-09-17T09:41:36Z</time>
      </trkpt>
      <trkpt lat="47.103797011077404" lon="10.952231967821717">
        <ele>1151.3199999999999</ele>
        <time>2018-09-17T09:41:37Z</time>
      </trkpt>
      <trkpt lat="47.103610010817647" lon="10.952244959771633">
        <ele>1151.3199999999999</ele>
        <time>2018-09-17T09:41:38Z</time>
      </trkpt>
      <trkpt lat="47.103408006951213" lon="10.952282007783651">
        <ele>1151.8</ele>
        <time>2018-09-17T09:41:39Z</time>
      </trkpt>
      <trkpt lat="47.103209020569921" lon="10.952346967533231">
        <ele>1151.8</ele>
        <time>2018-09-17T09:41:40Z</time>
      </trkpt>
      <trkpt lat="47.103011040017009" lon="10.952412011101842">
        <ele>1152.28</ele>
        <time>2018-09-17T09:41:41Z</time>
      </trkpt>
      <trkpt lat="47.10131898522377" lon="10.952977035194635">
        <ele>1153.72</ele>
        <time>2018-09-17T09:41:50Z</time>
      </trkpt>
      <trkpt lat="47.100233025848866" lon="10.953350029885769">
        <ele>1157.0799999999999</ele>
        <time>2018-09-17T09:41:59Z</time>
      </trkpt>
      <trkpt lat="47.10011400282383" lon="10.953387999907136">
        <ele>1157.0799999999999</ele>
        <time>2018-09-17T09:42:00Z</time>
      </trkpt>
      <trkpt lat="47.098669968545437" lon="10.953559996560216">
        <ele>1158.53</ele>
        <time>2018-09-17T09:42:12Z</time>
      </trkpt>
      <trkpt lat="47.09751402027905" lon="10.953607019037008">
        <ele>1159.01</ele>
        <time>2018-09-17T09:42:21Z</time>
      </trkpt>
      <trkpt lat="47.097379993647337" lon="10.953617999330163">
        <ele>1158.53</ele>
        <time>2018-09-17T09:42:22Z</time>
      </trkpt>
      <trkpt lat="47.096300991252065" lon="10.953824026510119">
        <ele>1159.01</ele>
        <time>2018-09-17T09:42:28Z</time>
      </trkpt>
      <trkpt lat="47.094534002244473" lon="10.954606980085373">
        <ele>1160.45</ele>
        <time>2018-09-17T09:42:38Z</time>
      </trkpt>
      <trkpt lat="47.093168003484607" lon="10.955757983028889">
        <ele>1162.3699999999999</ele>
        <time>2018-09-17T09:42:48Z</time>
      </trkpt>
      <trkpt lat="47.092056982219219" lon="10.957038989290595">
        <ele>1164.29</ele>
        <time>2018-09-17T09:42:57Z</time>
      </trkpt>
      <trkpt lat="47.090522004291415" lon="10.95900303684175">
        <ele>1166.7</ele>
        <time>2018-09-17T09:43:08Z</time>
      </trkpt>
      <trkpt lat="47.089526988565922" lon="10.959768975153565">
        <ele>1166.22</ele>
        <time>2018-09-17T09:43:14Z</time>
      </trkpt>
      <trkpt lat="47.087695961818099" lon="10.960225034505129">
        <ele>1166.7</ele>
        <time>2018-09-17T09:43:24Z</time>
      </trkpt>
      <trkpt lat="47.086179004982114" lon="10.96096096560359">
        <ele>1167.6600000000001</ele>
        <time>2018-09-17T09:43:32Z</time>
      </trkpt>
      <trkpt lat="47.084321994334459" lon="10.962225962430239">
        <ele>1168.6199999999999</ele>
        <time>2018-09-17T09:43:39Z</time>
      </trkpt>
      <trkpt lat="47.082256022840738" lon="10.963395992293954">
        <ele>1169.0999999999999</ele>
        <time>2018-09-17T09:43:47Z</time>
      </trkpt>
      <trkpt lat="47.082062987610698" lon="10.963573018088937">
        <ele>1169.0999999999999</ele>
        <time>2018-09-17T09:43:48Z</time>
      </trkpt>
      <trkpt lat="47.081887973472476" lon="10.963733028620481">
        <ele>1169.5799999999999</ele>
        <time>2018-09-17T09:43:49Z</time>
      </trkpt>
      <trkpt lat="47.081733997911215" lon="10.96396503970027">
        <ele>1169.5799999999999</ele>
        <time>2018-09-17T09:43:50Z</time>
      </trkpt>
      <trkpt lat="47.081585973501205" lon="10.964186992496252">
        <ele>1169.5799999999999</ele>
        <time>2018-09-17T09:43:51Z</time>
      </trkpt>
      <trkpt lat="47.081439038738608" lon="10.964412968605757">
        <ele>1169.5799999999999</ele>
        <time>2018-09-17T09:43:52Z</time>
      </trkpt>
      <trkpt lat="47.081304006278515" lon="10.964655037969351">
        <ele>1169.5799999999999</ele>
        <time>2018-09-17T09:43:53Z</time>
      </trkpt>
      <trkpt lat="47.08090796135366" lon="10.965343024581671">
        <ele>1170.0599999999999</ele>
        <time>2018-09-17T09:43:56Z</time>
      </trkpt>
      <trkpt lat="47.080749962478876" lon="10.965532958507538">
        <ele>1170.0599999999999</ele>
        <time>2018-09-17T09:43:57Z</time>
      </trkpt>
      <trkpt lat="47.080587018281221" lon="10.96572800539434">
        <ele>1170.0599999999999</ele>
        <time>2018-09-17T09:43:58Z</time>
      </trkpt>
      <trkpt lat="47.080404963344336" lon="10.965907964855433">
        <ele>1170.0599999999999</ele>
        <time>2018-09-17T09:43:59Z</time>
      </trkpt>
      <trkpt lat="47.080214023590088" lon="10.9660719987005">
        <ele>1170.0599999999999</ele>
        <time>2018-09-17T09:44:00Z</time>
      </trkpt>
      <trkpt lat="47.079157987609506" lon="10.966973975300789">
        <ele>1170.54</ele>
        <time>2018-09-17T09:44:07Z</time>
      </trkpt>
      <trkpt lat="47.078464971855283" lon="10.967546040192246">
        <ele>1170.54</ele>
        <time>2018-09-17T09:44:14Z</time>
      </trkpt>
      <trkpt lat="47.077370965853333" lon="10.968311978504062">
        <ele>1173.9100000000001</ele>
        <time>2018-09-17T09:44:24Z</time>
      </trkpt>
      <trkpt lat="47.076612990349531" lon="10.968781029805541">
        <ele>1177.75</ele>
        <time>2018-09-17T09:44:31Z</time>
      </trkpt>
      <trkpt lat="47.076514000073075" lon="10.968881025910378">
        <ele>1178.23</ele>
        <time>2018-09-17T09:44:32Z</time>
      </trkpt>
      <trkpt lat="47.075805980712175" lon="10.96951100975275">
        <ele>1184.96</ele>
        <time>2018-09-17T09:44:40Z</time>
      </trkpt>
      <trkpt lat="47.075735991820693" lon="10.96955400891602">
        <ele>1185.4400000000001</ele>
        <time>2018-09-17T09:44:41Z</time>
      </trkpt>
      <trkpt lat="47.07564395852387" lon="10.969590973109007">
        <ele>1185.9200000000001</ele>
        <time>2018-09-17T09:44:43Z</time>
      </trkpt>
      <trkpt lat="47.07551496103406" lon="10.969719970598817">
        <ele>1186.4000000000001</ele>
        <time>2018-09-17T09:44:44Z</time>
      </trkpt>
      <trkpt lat="47.075331984087825" lon="10.969794988632202">
        <ele>1186.8800000000001</ele>
        <time>2018-09-17T09:44:46Z</time>
      </trkpt>
      <trkpt lat="47.075223019346595" lon="10.969839999452233">
        <ele>1187.3699999999999</ele>
        <time>2018-09-17T09:44:47Z</time>
      </trkpt>
      <trkpt lat="47.074398994445801" lon="10.970058012753725">
        <ele>1187.8499999999999</ele>
        <time>2018-09-17T09:44:54Z</time>
      </trkpt>
      <trkpt lat="47.074275026097894" lon="10.97008902579546">
        <ele>1188.3299999999999</ele>
        <time>2018-09-17T09:44:55Z</time>
      </trkpt>
      <trkpt lat="47.073274981230497" lon="10.970354983583093">
        <ele>1192.6500000000001</ele>
        <time>2018-09-17T09:45:05Z</time>
      </trkpt>
      <trkpt lat="47.07315101288259" lon="10.97039395943284">
        <ele>1194.0899999999999</ele>
        <time>2018-09-17T09:45:08Z</time>
      </trkpt>
      <trkpt lat="47.073106002062559" lon="10.970408963039517">
        <ele>1194.5799999999999</ele>
        <time>2018-09-17T09:45:09Z</time>
      </trkpt>
      <trkpt lat="47.072695037350059" lon="10.97064801491797">
        <ele>1196.5</ele>
        <time>2018-09-17T09:45:16Z</time>
      </trkpt>
      <trkpt lat="47.072594035416842" lon="10.970720015466213">
        <ele>1196.5</ele>
        <time>2018-09-17T09:45:18Z</time>
      </trkpt>
      <trkpt lat="47.072552964091301" lon="10.970750022679567">
        <ele>1196.98</ele>
        <time>2018-09-17T09:45:19Z</time>
      </trkpt>
      <trkpt lat="47.072512982413173" lon="10.970779024064541">
        <ele>1196.98</ele>
        <time>2018-09-17T09:45:20Z</time>
      </trkpt>
      <trkpt lat="47.072428995743394" lon="10.970839038491249">
        <ele>1197.46</ele>
        <time>2018-09-17T09:45:22Z</time>
      </trkpt>
      <trkpt lat="47.072105035185814" lon="10.971008017659187">
        <ele>1197.46</ele>
        <time>2018-09-17T09:45:27Z</time>
      </trkpt>
      <trkpt lat="47.072014007717371" lon="10.971028972417116">
        <ele>1196.98</ele>
        <time>2018-09-17T09:45:28Z</time>
      </trkpt>
      <trkpt lat="47.071933960542083" lon="10.971028972417116">
        <ele>1196.98</ele>
        <time>2018-09-17T09:45:29Z</time>
      </trkpt>
      <trkpt lat="47.071851985529065" lon="10.971009023487568">
        <ele>1196.5</ele>
        <time>2018-09-17T09:45:30Z</time>
      </trkpt>
      <trkpt lat="47.071780990809202" lon="10.970969963818789">
        <ele>1196.5</ele>
        <time>2018-09-17T09:45:31Z</time>
      </trkpt>
      <trkpt lat="47.071700021624565" lon="10.970925036817789">
        <ele>1196.5</ele>
        <time>2018-09-17T09:45:32Z</time>
      </trkpt>
      <trkpt lat="47.071615029126406" lon="10.970878014340997">
        <ele>1196.02</ele>
        <time>2018-09-17T09:45:33Z</time>
      </trkpt>
      <trkpt lat="47.071529030799866" lon="10.970830991864204">
        <ele>1195.54</ele>
        <time>2018-09-17T09:45:34Z</time>
      </trkpt>
      <trkpt lat="47.070665024220943" lon="10.970286000519991">
        <ele>1192.6500000000001</ele>
        <time>2018-09-17T09:45:44Z</time>
      </trkpt>
      <trkpt lat="47.070586988702416" lon="10.970235038548708">
        <ele>1192.1700000000001</ele>
        <time>2018-09-17T09:45:45Z</time>
      </trkpt>
      <trkpt lat="47.070506019517779" lon="10.970181981101632">
        <ele>1191.6900000000001</ele>
        <time>2018-09-17T09:45:46Z</time>
      </trkpt>
      <trkpt lat="47.070351960137486" lon="10.970081984996796">
        <ele>1190.73</ele>
        <time>2018-09-17T09:45:48Z</time>
      </trkpt>
      <trkpt lat="47.070265039801598" lon="10.970024988055229">
        <ele>1190.73</ele>
        <time>2018-09-17T09:45:49Z</time>
      </trkpt>
      <trkpt lat="47.069526007398963" lon="10.969654005020857">
        <ele>1188.3299999999999</ele>
        <time>2018-09-17T09:45:56Z</time>
      </trkpt>
      <trkpt lat="47.068576002493501" lon="10.969225019216537">
        <ele>1185.4400000000001</ele>
        <time>2018-09-17T09:46:06Z</time>
      </trkpt>
      <trkpt lat="47.067481996491551" lon="10.968547007068992">
        <ele>1181.1199999999999</ele>
        <time>2018-09-17T09:46:17Z</time>
      </trkpt>
      <trkpt lat="47.066451022401452" lon="10.96787603572011">
        <ele>1179.1900000000001</ele>
        <time>2018-09-17T09:46:28Z</time>
      </trkpt>
      <trkpt lat="47.066133012995124" lon="10.967661961913109">
        <ele>1178.71</ele>
        <time>2018-09-17T09:46:32Z</time>
      </trkpt>
      <trkpt lat="47.066079033538699" lon="10.967616029083729">
        <ele>1178.23</ele>
        <time>2018-09-17T09:46:33Z</time>
      </trkpt>
      <trkpt lat="47.066031005233526" lon="10.96757504157722">
        <ele>1178.23</ele>
        <time>2018-09-17T09:46:34Z</time>
      </trkpt>
      <trkpt lat="47.066009966656566" lon="10.967423999682069">
        <ele>1177.75</ele>
        <time>2018-09-17T09:46:35Z</time>
      </trkpt>
      <trkpt lat="47.065966967493296" lon="10.967402961105108">
        <ele>1177.75</ele>
        <time>2018-09-17T09:46:36Z</time>
      </trkpt>
      <trkpt lat="47.065879041329026" lon="10.967419976368546">
        <ele>1177.75</ele>
        <time>2018-09-17T09:46:37Z</time>
      </trkpt>
      <trkpt lat="47.065809974446893" lon="10.967509998008609">
        <ele>1177.27</ele>
        <time>2018-09-17T09:46:38Z</time>
      </trkpt>
      <trkpt lat="47.065718024969101" lon="10.967514021322131">
        <ele>1177.27</ele>
        <time>2018-09-17T09:46:39Z</time>
      </trkpt>
      <trkpt lat="47.065607970580459" lon="10.967445960268378">
        <ele>1177.27</ele>
        <time>2018-09-17T09:46:40Z</time>
      </trkpt>
      <trkpt lat="47.065482996404171" lon="10.967445960268378">
        <ele>1177.75</ele>
        <time>2018-09-17T09:46:41Z</time>
      </trkpt>
      <trkpt lat="47.065345030277967" lon="10.967436991631985">
        <ele>1178.23</ele>
        <time>2018-09-17T09:46:42Z</time>
      </trkpt>
      <trkpt lat="47.063937038183212" lon="10.967169022187591">
        <ele>1179.1900000000001</ele>
        <time>2018-09-17T09:46:50Z</time>
      </trkpt>
      <trkpt lat="47.062589982524514" lon="10.966536020860076">
        <ele>1180.6400000000001</ele>
        <time>2018-09-17T09:46:57Z</time>
      </trkpt>
      <trkpt lat="47.060956014320254" lon="10.965694980695844">
        <ele>1182.0799999999999</ele>
        <time>2018-09-17T09:47:07Z</time>
      </trkpt>
      <trkpt lat="47.059331014752388" lon="10.965075977146626">
        <ele>1184.48</ele>
        <time>2018-09-17T09:47:17Z</time>
      </trkpt>
      <trkpt lat="47.057840963825583" lon="10.965226013213396">
        <ele>1186.4000000000001</ele>
        <time>2018-09-17T09:47:27Z</time>
      </trkpt>
      <trkpt lat="47.056095013394952" lon="10.96570503897965">
        <ele>1188.8099999999999</ele>
        <time>2018-09-17T09:47:36Z</time>
      </trkpt>
      <trkpt lat="47.054119985550642" lon="10.966257993131876">
        <ele>1191.6900000000001</ele>
        <time>2018-09-17T09:47:43Z</time>
      </trkpt>
      <trkpt lat="47.052666982635856" lon="10.966194039210677">
        <ele>1194.0899999999999</ele>
        <time>2018-09-17T09:47:49Z</time>
      </trkpt>
      <trkpt lat="47.051398968324065" lon="10.96588097512722">
        <ele>1196.5</ele>
        <time>2018-09-17T09:47:56Z</time>
      </trkpt>
      <trkpt lat="47.050296999514103" lon="10.96613897010684">
        <ele>1197.9400000000001</ele>
        <time>2018-09-17T09:48:03Z</time>
      </trkpt>
      <trkpt lat="47.049248004332185" lon="10.966928964480758">
        <ele>1197.46</ele>
        <time>2018-09-17T09:48:09Z</time>
      </trkpt>
      <trkpt lat="47.046776013448834" lon="10.968856969848275">
        <ele>1196.98</ele>
        <time>2018-09-17T09:48:21Z</time>
      </trkpt>
      <trkpt lat="47.044954039156437" lon="10.97054298967123">
        <ele>1196.98</ele>
        <time>2018-09-17T09:48:31Z</time>
      </trkpt>
      <trkpt lat="47.043478991836309" lon="10.972680039703846">
        <ele>1197.46</ele>
        <time>2018-09-17T09:48:40Z</time>
      </trkpt>
      <trkpt lat="47.041708985343575" lon="10.975588979199529">
        <ele>1199.3800000000001</ele>
        <time>2018-09-17T09:48:51Z</time>
      </trkpt>
      <trkpt lat="47.040912033990026" lon="10.977883022278547">
        <ele>1201.3</ele>
        <time>2018-09-17T09:48:58Z</time>
      </trkpt>
      <trkpt lat="47.040011985227466" lon="10.981128998100758">
        <ele>1204.6700000000001</ele>
        <time>2018-09-17T09:49:08Z</time>
      </trkpt>
      <trkpt lat="47.039906959980726" lon="10.981422029435635">
        <ele>1205.1500000000001</ele>
        <time>2018-09-17T09:49:09Z</time>
      </trkpt>
      <trkpt lat="47.039777962490916" lon="10.981711037456989">
        <ele>1205.6300000000001</ele>
        <time>2018-09-17T09:49:10Z</time>
      </trkpt>
      <trkpt lat="47.039642008021474" lon="10.981997027993202">
        <ele>1206.1099999999999</ele>
        <time>2018-09-17T09:49:11Z</time>
      </trkpt>
      <trkpt lat="47.039488032460213" lon="10.982267009094357">
        <ele>1207.0699999999999</ele>
        <time>2018-09-17T09:49:12Z</time>
      </trkpt>
      <trkpt lat="47.038442976772785" lon="10.984198031947017">
        <ele>1209.96</ele>
        <time>2018-09-17T09:49:19Z</time>
      </trkpt>
      <trkpt lat="47.038295958191156" lon="10.984458960592747">
        <ele>1209.96</ele>
        <time>2018-09-17T09:49:20Z</time>
      </trkpt>
      <trkpt lat="47.03812999650836" lon="10.984690971672535">
        <ele>1210.4400000000001</ele>
        <time>2018-09-17T09:49:21Z</time>
      </trkpt>
      <trkpt lat="47.037938972935081" lon="10.984880989417434">
        <ele>1210.9200000000001</ele>
        <time>2018-09-17T09:49:22Z</time>
      </trkpt>
      <trkpt lat="47.037735963240266" lon="10.985025996342301">
        <ele>1211.4000000000001</ele>
        <time>2018-09-17T09:49:23Z</time>
      </trkpt>
      <trkpt lat="47.037521973252296" lon="10.985113000497222">
        <ele>1211.8800000000001</ele>
        <time>2018-09-17T09:49:24Z</time>
      </trkpt>
      <trkpt lat="47.037289962172508" lon="10.985185001045465">
        <ele>1212.3599999999999</ele>
        <time>2018-09-17T09:49:25Z</time>
      </trkpt>
      <trkpt lat="47.037050994113088" lon="10.985261024907231">
        <ele>1212.8399999999999</ele>
        <time>2018-09-17T09:49:26Z</time>
      </trkpt>
      <trkpt lat="47.036351021379232" lon="10.985574005171657">
        <ele>1215.24</ele>
        <time>2018-09-17T09:49:29Z</time>
      </trkpt>
      <trkpt lat="47.035709973424673" lon="10.98611899651587">
        <ele>1216.6900000000001</ele>
        <time>2018-09-17T09:49:32Z</time>
      </trkpt>
      <trkpt lat="47.034879997372627" lon="10.987324984744191">
        <ele>1217.1700000000001</ele>
        <time>2018-09-17T09:49:37Z</time>
      </trkpt>
      <trkpt lat="47.034757034853101" lon="10.987591026350856">
        <ele>1217.1700000000001</ele>
        <time>2018-09-17T09:49:38Z</time>
      </trkpt>
      <trkpt lat="47.034168038517237" lon="10.989136984571815">
        <ele>1216.6900000000001</ele>
        <time>2018-09-17T09:49:44Z</time>
      </trkpt>
      <trkpt lat="47.033971985802054" lon="10.989570999518037">
        <ele>1216.21</ele>
        <time>2018-09-17T09:49:46Z</time>
      </trkpt>
      <trkpt lat="47.033756989985704" lon="10.989941982552409">
        <ele>1216.21</ele>
        <time>2018-09-17T09:49:48Z</time>
      </trkpt>
      <trkpt lat="47.033625980839133" lon="10.990089001134038">
        <ele>1216.21</ele>
        <time>2018-09-17T09:49:49Z</time>
      </trkpt>
      <trkpt lat="47.03348902054131" lon="10.990241970866919">
        <ele>1216.21</ele>
        <time>2018-09-17T09:49:50Z</time>
      </trkpt>
      <trkpt lat="47.032442959025502" lon="10.990997012704611">
        <ele>1217.1700000000001</ele>
        <time>2018-09-17T09:49:57Z</time>
      </trkpt>
      <trkpt lat="47.032022019848228" lon="10.991399008780718">
        <ele>1217.1700000000001</ele>
        <time>2018-09-17T09:50:00Z</time>
      </trkpt>
      <trkpt lat="47.031210986897349" lon="10.991844004020095">
        <ele>1214.28</ele>
        <time>2018-09-17T09:50:05Z</time>
      </trkpt>
      <trkpt lat="47.031025998294353" lon="10.991869987919927">
        <ele>1213.8</ele>
        <time>2018-09-17T09:50:06Z</time>
      </trkpt>
      <trkpt lat="47.029168987646699" lon="10.992243988439441">
        <ele>1212.8399999999999</ele>
        <time>2018-09-17T09:50:16Z</time>
      </trkpt>
      <trkpt lat="47.027797037735581" lon="10.993047980591655">
        <ele>1215.72</ele>
        <time>2018-09-17T09:50:24Z</time>
      </trkpt>
      <trkpt lat="47.026588032022119" lon="10.993715012446046">
        <ele>1217.6500000000001</ele>
        <time>2018-09-17T09:50:32Z</time>
      </trkpt>
      <trkpt lat="47.025261009112" lon="10.994032016023993">
        <ele>1219.0899999999999</ele>
        <time>2018-09-17T09:50:40Z</time>
      </trkpt>
      <trkpt lat="47.023823009803891" lon="10.994344996288419">
        <ele>1222.9300000000001</ele>
        <time>2018-09-17T09:50:48Z</time>
      </trkpt>
      <trkpt lat="47.023296039551497" lon="10.994487991556525">
        <ele>1223.4200000000001</ele>
        <time>2018-09-17T09:50:51Z</time>
      </trkpt>
      <trkpt lat="47.02180297113955" lon="10.995002975687385">
        <ele>1224.8599999999999</ele>
        <time>2018-09-17T09:50:59Z</time>
      </trkpt>
      <trkpt lat="47.020753975957632" lon="10.99522702395916">
        <ele>1226.78</ele>
        <time>2018-09-17T09:51:06Z</time>
      </trkpt>
      <trkpt lat="47.020492041483521" lon="10.99524999037385">
        <ele>1227.74</ele>
        <time>2018-09-17T09:51:08Z</time>
      </trkpt>
      <trkpt lat="47.020368995144963" lon="10.995260970667005">
        <ele>1227.74</ele>
        <time>2018-09-17T09:51:09Z</time>
      </trkpt>
      <trkpt lat="47.019171975553036" lon="10.995480995625257">
        <ele>1230.6199999999999</ele>
        <time>2018-09-17T09:51:18Z</time>
      </trkpt>
      <trkpt lat="47.019049013033509" lon="10.995569005608559">
        <ele>1230.6199999999999</ele>
        <time>2018-09-17T09:51:19Z</time>
      </trkpt>
      <trkpt lat="47.018929990008473" lon="10.995670007541776">
        <ele>1231.1099999999999</ele>
        <time>2018-09-17T09:51:20Z</time>
      </trkpt>
      <trkpt lat="47.018819013610482" lon="10.995785007253289">
        <ele>1231.5899999999999</ele>
        <time>2018-09-17T09:51:21Z</time>
      </trkpt>
      <trkpt lat="47.018713988363743" lon="10.995923979207873">
        <ele>1232.0699999999999</ele>
        <time>2018-09-17T09:51:22Z</time>
      </trkpt>
      <trkpt lat="47.018617009744048" lon="10.996108967810869">
        <ele>1232.55</ele>
        <time>2018-09-17T09:51:23Z</time>
      </trkpt>
      <trkpt lat="47.018508967012167" lon="10.996317006647587">
        <ele>1233.03</ele>
        <time>2018-09-17T09:51:24Z</time>
      </trkpt>
      <trkpt lat="47.018419029191136" lon="10.996567038819194">
        <ele>1233.99</ele>
        <time>2018-09-17T09:51:25Z</time>
      </trkpt>
      <trkpt lat="47.018349962309003" lon="10.99686099216342">
        <ele>1233.99</ele>
        <time>2018-09-17T09:51:26Z</time>
      </trkpt>
      <trkpt lat="47.01829900033772" lon="10.997184030711651">
        <ele>1234.95</ele>
        <time>2018-09-17T09:51:27Z</time>
      </trkpt>
      <trkpt lat="47.018208978697658" lon="10.997759029269218">
        <ele>1235.9100000000001</ele>
        <time>2018-09-17T09:51:29Z</time>
      </trkpt>
      <trkpt lat="47.018124992027879" lon="10.998053988441825">
        <ele>1236.3900000000001</ele>
        <time>2018-09-17T09:51:30Z</time>
      </trkpt>
      <trkpt lat="47.018021978437901" lon="10.998273007571697">
        <ele>1236.3900000000001</ele>
        <time>2018-09-17T09:51:31Z</time>
      </trkpt>
      <trkpt lat="47.017822992056608" lon="10.998442992568016">
        <ele>1236.3900000000001</ele>
        <time>2018-09-17T09:51:32Z</time>
      </trkpt>
      <trkpt lat="47.017656024545431" lon="10.998570984229445">
        <ele>1236.3900000000001</ele>
        <time>2018-09-17T09:51:33Z</time>
      </trkpt>
      <trkpt lat="47.017469024285674" lon="10.998681960627437">
        <ele>1236.8699999999999</ele>
        <time>2018-09-17T09:51:34Z</time>
      </trkpt>
      <trkpt lat="47.016253983601928" lon="10.999515037983656">
        <ele>1240.72</ele>
        <time>2018-09-17T09:51:41Z</time>
      </trkpt>
      <trkpt lat="47.015486033633351" lon="11.000185003504157">
        <ele>1245.53</ele>
        <time>2018-09-17T09:51:47Z</time>
      </trkpt>
      <trkpt lat="47.015375979244709" lon="11.000268990173936">
        <ele>1246.49</ele>
        <time>2018-09-17T09:51:48Z</time>
      </trkpt>
      <trkpt lat="47.014028001576662" lon="11.001252019777894">
        <ele>1273.4000000000001</ele>
        <time>2018-09-17T09:51:57Z</time>
      </trkpt>
      <trkpt lat="47.012941958382726" lon="11.001799022778869">
        <ele>1267.6400000000001</ele>
        <time>2018-09-17T09:52:04Z</time>
      </trkpt>
      <trkpt lat="47.01277700252831" lon="11.001799022778869">
        <ele>1267.6400000000001</ele>
        <time>2018-09-17T09:52:05Z</time>
      </trkpt>
      <trkpt lat="47.012623026967049" lon="11.001799022778869">
        <ele>1266.6700000000001</ele>
        <time>2018-09-17T09:52:06Z</time>
      </trkpt>
      <trkpt lat="47.012429991737008" lon="11.001702966168523">
        <ele>1266.6700000000001</ele>
        <time>2018-09-17T09:52:07Z</time>
      </trkpt>
      <trkpt lat="47.012227987870574" lon="11.001606993377209">
        <ele>1267.6400000000001</ele>
        <time>2018-09-17T09:52:08Z</time>
      </trkpt>
      <trkpt lat="47.012020032852888" lon="11.001508003100753">
        <ele>1268.5999999999999</ele>
        <time>2018-09-17T09:52:09Z</time>
      </trkpt>
      <trkpt lat="47.011154014617205" lon="11.001166021451354">
        <ele>1272.4400000000001</ele>
        <time>2018-09-17T09:52:13Z</time>
      </trkpt>
      <trkpt lat="47.010933989658952" lon="11.001155963167548">
        <ele>1272.9200000000001</ele>
        <time>2018-09-17T09:52:14Z</time>
      </trkpt>
      <trkpt lat="47.010716982185841" lon="11.001184964552522">
        <ele>1272.9200000000001</ele>
        <time>2018-09-17T09:52:15Z</time>
      </trkpt>
      <trkpt lat="47.010509027168155" lon="11.001238021999598">
        <ele>1273.8800000000001</ele>
        <time>2018-09-17T09:52:16Z</time>
      </trkpt>
      <trkpt lat="47.010316997766495" lon="11.001345980912447">
        <ele>1273.8800000000001</ele>
        <time>2018-09-17T09:52:17Z</time>
      </trkpt>
      <trkpt lat="47.010133014991879" lon="11.001451006159186">
        <ele>1274.3599999999999</ele>
        <time>2018-09-17T09:52:18Z</time>
      </trkpt>
      <trkpt lat="47.009975016117096" lon="11.001592995598912">
        <ele>1275.3299999999999</ele>
        <time>2018-09-17T09:52:19Z</time>
      </trkpt>
      <trkpt lat="47.009841995313764" lon="11.001763986423612">
        <ele>1276.29</ele>
        <time>2018-09-17T09:52:20Z</time>
      </trkpt>
      <trkpt lat="47.009728001430631" lon="11.001960961148143">
        <ele>1276.77</ele>
        <time>2018-09-17T09:52:21Z</time>
      </trkpt>
      <trkpt lat="47.009664969518781" lon="11.002201018854976">
        <ele>1277.25</ele>
        <time>2018-09-17T09:52:22Z</time>
      </trkpt>
      <trkpt lat="47.00959799811244" lon="11.002452978864312">
        <ele>1278.21</ele>
        <time>2018-09-17T09:52:23Z</time>
      </trkpt>
      <trkpt lat="47.009533038362861" lon="11.002699993550777">
        <ele>1278.6900000000001</ele>
        <time>2018-09-17T09:52:24Z</time>
      </trkpt>
      <trkpt lat="47.009533038362861" lon="11.002699993550777">
        <ele>1279.6500000000001</ele>
        <time>2018-09-17T09:52:25Z</time>
      </trkpt>
      <trkpt lat="47.009393982589245" lon="11.003203997388482">
        <ele>1280.6099999999999</ele>
        <time>2018-09-17T09:52:26Z</time>
      </trkpt>
      <trkpt lat="47.009307984262705" lon="11.003447994589806">
        <ele>1281.5699999999999</ele>
        <time>2018-09-17T09:52:27Z</time>
      </trkpt>
      <trkpt lat="47.009090976789594" lon="11.003900030627847">
        <ele>1283.98</ele>
        <time>2018-09-17T09:52:29Z</time>
      </trkpt>
      <trkpt lat="47.008962985128164" lon="11.004111003130674">
        <ele>1285.4200000000001</ele>
        <time>2018-09-17T09:52:30Z</time>
      </trkpt>
      <trkpt lat="47.008053967729211" lon="11.005274998024106">
        <ele>1293.1099999999999</ele>
        <time>2018-09-17T09:52:36Z</time>
      </trkpt>
      <trkpt lat="47.007884988561273" lon="11.00541103631258">
        <ele>1294.0699999999999</ele>
        <time>2018-09-17T09:52:37Z</time>
      </trkpt>
      <trkpt lat="47.007119972258806" lon="11.005739020183682">
        <ele>1297.4400000000001</ele>
        <time>2018-09-17T09:52:41Z</time>
      </trkpt>
      <trkpt lat="47.00693397782743" lon="11.005851002410054">
        <ele>1298.4000000000001</ele>
        <time>2018-09-17T09:52:42Z</time>
      </trkpt>
      <trkpt lat="47.005768977105618" lon="11.006831014528871">
        <ele>1305.6099999999999</ele>
        <time>2018-09-17T09:52:49Z</time>
      </trkpt>
      <trkpt lat="47.005646014586091" lon="11.006950959563255">
        <ele>1307.53</ele>
        <time>2018-09-17T09:52:50Z</time>
      </trkpt>
      <trkpt lat="47.005564039573073" lon="11.007105018943548">
        <ele>1308.49</ele>
        <time>2018-09-17T09:52:51Z</time>
      </trkpt>
      <trkpt lat="47.005493966862559" lon="11.007294030860066">
        <ele>1309.9300000000001</ele>
        <time>2018-09-17T09:52:52Z</time>
      </trkpt>
      <trkpt lat="47.005443004891276" lon="11.007503997534513">
        <ele>1311.3800000000001</ele>
        <time>2018-09-17T09:52:53Z</time>
      </trkpt>
      <trkpt lat="47.005390031263232" lon="11.007721005007625">
        <ele>1312.3399999999999</ele>
        <time>2018-09-17T09:52:54Z</time>
      </trkpt>
      <trkpt lat="47.005338985472918" lon="11.007931977510452">
        <ele>1313.3</ele>
        <time>2018-09-17T09:52:55Z</time>
      </trkpt>
      <trkpt lat="47.005265979096293" lon="11.008117971941829">
        <ele>1314.26</ele>
        <time>2018-09-17T09:52:56Z</time>
      </trkpt>
      <trkpt lat="47.005181992426515" lon="11.008304972201586">
        <ele>1315.22</ele>
        <time>2018-09-17T09:52:57Z</time>
      </trkpt>
      <trkpt lat="47.005079984664917" lon="11.008469006046653">
        <ele>1316.1800000000001</ele>
        <time>2018-09-17T09:52:58Z</time>
      </trkpt>
      <trkpt lat="47.004960961639881" lon="11.008621975779533">
        <ele>1316.6600000000001</ele>
        <time>2018-09-17T09:52:59Z</time>
      </trkpt>
      <trkpt lat="47.004821989685297" lon="11.008751979097724">
        <ele>1317.6199999999999</ele>
        <time>2018-09-17T09:53:00Z</time>
      </trkpt>
      <trkpt lat="47.004684023559093" lon="11.008879970759153">
        <ele>1318.0999999999999</ele>
        <time>2018-09-17T09:53:01Z</time>
      </trkpt>
      <trkpt lat="47.004512026906013" lon="11.008953982964158">
        <ele>1319.0699999999999</ele>
        <time>2018-09-17T09:53:02Z</time>
      </trkpt>
      <trkpt lat="47.004327960312366" lon="11.009033024311066">
        <ele>1319.55</ele>
        <time>2018-09-17T09:53:03Z</time>
      </trkpt>
      <trkpt lat="47.004140038043261" lon="11.009113993495703">
        <ele>1320.51</ele>
        <time>2018-09-17T09:53:04Z</time>
      </trkpt>
      <trkpt lat="47.003955971449614" lon="11.00919303484261">
        <ele>1320.99</ele>
        <time>2018-09-17T09:53:05Z</time>
      </trkpt>
      <trkpt lat="47.003781041130424" lon="11.009268974885345">
        <ele>1321.95</ele>
        <time>2018-09-17T09:53:06Z</time>
      </trkpt>
      <trkpt lat="47.003617007285357" lon="11.009339969605207">
        <ele>1322.4300000000001</ele>
        <time>2018-09-17T09:53:07Z</time>
      </trkpt>
      <trkpt lat="47.00343101285398" lon="11.009414987638593">
        <ele>1322.9100000000001</ele>
        <time>2018-09-17T09:53:08Z</time>
      </trkpt>
      <trkpt lat="47.003242000937462" lon="11.00936402566731">
        <ele>1322.9100000000001</ele>
        <time>2018-09-17T09:53:09Z</time>
      </trkpt>
      <trkpt lat="47.002458963543177" lon="11.009181970730424">
        <ele>1324.3499999999999</ele>
        <time>2018-09-17T09:53:13Z</time>
      </trkpt>
      <trkpt lat="47.002104995772243" lon="11.009144000709057">
        <ele>1324.8299999999999</ele>
        <time>2018-09-17T09:53:15Z</time>
      </trkpt>
      <trkpt lat="47.001941967755556" lon="11.009081974625587">
        <ele>1325.3099999999999</ele>
        <time>2018-09-17T09:53:16Z</time>
      </trkpt>
      <trkpt lat="47.001643991097808" lon="11.008919030427933">
        <ele>1326.28</ele>
        <time>2018-09-17T09:53:18Z</time>
      </trkpt>
      <trkpt lat="47.001482974737883" lon="11.008909977972507">
        <ele>1326.76</ele>
        <time>2018-09-17T09:53:19Z</time>
      </trkpt>
      <trkpt lat="47.001316007226706" lon="11.008965969085693">
        <ele>1326.76</ele>
        <time>2018-09-17T09:53:20Z</time>
      </trkpt>
      <trkpt lat="47.000584015622735" lon="11.00914902985096">
        <ele>1328.6800000000001</ele>
        <time>2018-09-17T09:53:24Z</time>
      </trkpt>
      <trkpt lat="47.000383017584682" lon="11.009135032072663">
        <ele>1329.6400000000001</ele>
        <time>2018-09-17T09:53:25Z</time>
      </trkpt>
      <trkpt lat="46.999631999060512" lon="11.009133020415902">
        <ele>1333.01</ele>
        <time>2018-09-17T09:53:29Z</time>
      </trkpt>
      <trkpt lat="46.999464025720954" lon="11.009194040670991">
        <ele>1333.97</ele>
        <time>2018-09-17T09:53:30Z</time>
      </trkpt>
      <trkpt lat="46.99930896051228" lon="11.009307028725743">
        <ele>1334.9300000000001</ele>
        <time>2018-09-17T09:53:31Z</time>
      </trkpt>
      <trkpt lat="46.998503962531686" lon="11.009894013404846">
        <ele>1338.77</ele>
        <time>2018-09-17T09:53:36Z</time>
      </trkpt>
      <trkpt lat="46.998358033597469" lon="11.0099240206182">
        <ele>1339.25</ele>
        <time>2018-09-17T09:53:37Z</time>
      </trkpt>
      <trkpt lat="46.998202968388796" lon="11.009942041710019">
        <ele>1340.22</ele>
        <time>2018-09-17T09:53:38Z</time>
      </trkpt>
      <trkpt lat="46.997363017871976" lon="11.010037008672953">
        <ele>1344.54</ele>
        <time>2018-09-17T09:53:43Z</time>
      </trkpt>
      <trkpt lat="46.997268972918391" lon="11.010046983137727">
        <ele>1345.02</ele>
        <time>2018-09-17T09:53:44Z</time>
      </trkpt>
      <trkpt lat="46.997151961550117" lon="11.010059975087643">
        <ele>1345.5</ele>
        <time>2018-09-17T09:53:45Z</time>
      </trkpt>
      <trkpt lat="46.9970060326159" lon="11.010103980079293">
        <ele>1345.98</ele>
        <time>2018-09-17T09:53:47Z</time>
      </trkpt>
      <trkpt lat="46.996604036539793" lon="11.010223003104329">
        <ele>1346.46</ele>
        <time>2018-09-17T09:53:49Z</time>
      </trkpt>
      <trkpt lat="46.996386023238301" lon="11.010288968682289">
        <ele>1346.9400000000001</ele>
        <time>2018-09-17T09:53:50Z</time>
      </trkpt>
      <trkpt lat="46.995489997789264" lon="11.010360969230533">
        <ele>1349.3499999999999</ele>
        <time>2018-09-17T09:53:54Z</time>
      </trkpt>
      <trkpt lat="46.995273996144533" lon="11.010377984493971">
        <ele>1349.8299999999999</ele>
        <time>2018-09-17T09:53:55Z</time>
      </trkpt>
      <trkpt lat="46.994341006502509" lon="11.010683001950383">
        <ele>1351.75</ele>
        <time>2018-09-17T09:53:59Z</time>
      </trkpt>
      <trkpt lat="46.994103966280818" lon="11.010721977800131">
        <ele>1351.27</ele>
        <time>2018-09-17T09:54:00Z</time>
      </trkpt>
      <trkpt lat="46.992683988064528" lon="11.010985001921654">
        <ele>1351.27</ele>
        <time>2018-09-17T09:54:07Z</time>
      </trkpt>
      <trkpt lat="46.991528961807489" lon="11.010987013578415">
        <ele>1351.27</ele>
        <time>2018-09-17T09:54:13Z</time>
      </trkpt>
      <trkpt lat="46.990984976291656" lon="11.011001011356711">
        <ele>1352.23</ele>
        <time>2018-09-17T09:54:16Z</time>
      </trkpt>
      <trkpt lat="46.990544004365802" lon="11.011182982474566">
        <ele>1352.23</ele>
        <time>2018-09-17T09:54:19Z</time>
      </trkpt>
      <trkpt lat="46.990422969684005" lon="11.011254983022809">
        <ele>1352.23</ele>
        <time>2018-09-17T09:54:20Z</time>
      </trkpt>
      <trkpt lat="46.99030595831573" lon="11.011323966085911">
        <ele>1352.71</ele>
        <time>2018-09-17T09:54:21Z</time>
      </trkpt>
      <trkpt lat="46.990190958604217" lon="11.011392027139664">
        <ele>1352.71</ele>
        <time>2018-09-17T09:54:22Z</time>
      </trkpt>
      <trkpt lat="46.990048969164491" lon="11.011477019637823">
        <ele>1353.1900000000001</ele>
        <time>2018-09-17T09:54:23Z</time>
      </trkpt>
      <trkpt lat="46.990032959729433" lon="11.011484982445836">
        <ele>1353.6700000000001</ele>
        <time>2018-09-17T09:54:24Z</time>
      </trkpt>
      <trkpt lat="46.989967999979854" lon="11.011518007144332">
        <ele>1353.6700000000001</ele>
        <time>2018-09-17T09:54:25Z</time>
      </trkpt>
      <trkpt lat="46.989491991698742" lon="11.011755969375372">
        <ele>1353.6700000000001</ele>
        <time>2018-09-17T09:54:31Z</time>
      </trkpt>
      <trkpt lat="46.989362994208932" lon="11.01175001822412">
        <ele>1354.1500000000001</ele>
        <time>2018-09-17T09:54:32Z</time>
      </trkpt>
      <trkpt lat="46.988769974559546" lon="11.011666031554341">
        <ele>1355.5999999999999</ele>
        <time>2018-09-17T09:54:36Z</time>
      </trkpt>
      <trkpt lat="46.987423002719879" lon="11.011287001892924">
        <ele>1356.5599999999999</ele>
        <time>2018-09-17T09:54:42Z</time>
      </trkpt>
      <trkpt lat="46.987153021618724" lon="11.011219024658203">
        <ele>1356.5599999999999</ele>
        <time>2018-09-17T09:54:43Z</time>
      </trkpt>
      <trkpt lat="46.986708026379347" lon="11.011174013838172">
        <ele>1357.04</ele>
        <time>2018-09-17T09:54:45Z</time>
      </trkpt>
      <trkpt lat="46.986279040575027" lon="11.011131014674902">
        <ele>1357.52</ele>
        <time>2018-09-17T09:54:47Z</time>
      </trkpt>
      <trkpt lat="46.986034037545323" lon="11.011106036603451">
        <ele>1357.52</ele>
        <time>2018-09-17T09:54:48Z</time>
      </trkpt>
      <trkpt lat="46.985672023147345" lon="11.011068988591433">
        <ele>1358</ele>
        <time>2018-09-17T09:54:49Z</time>
      </trkpt>
      <trkpt lat="46.985562974587083" lon="11.011101007461548">
        <ele>1358</ele>
        <time>2018-09-17T09:54:50Z</time>
      </trkpt>
      <trkpt lat="46.985282013192773" lon="11.011198991909623">
        <ele>1358</ele>
        <time>2018-09-17T09:54:51Z</time>
      </trkpt>
      <trkpt lat="46.985096018761396" lon="11.011370988562703">
        <ele>1357.52</ele>
        <time>2018-09-17T09:54:52Z</time>
      </trkpt>
      <trkpt lat="46.984911030158401" lon="11.011551031842828">
        <ele>1356.5599999999999</ele>
        <time>2018-09-17T09:54:53Z</time>
      </trkpt>
      <trkpt lat="46.984752025455236" lon="11.011710036545992">
        <ele>1356.0799999999999</ele>
        <time>2018-09-17T09:54:54Z</time>
      </trkpt>
      <trkpt lat="46.984587991610169" lon="11.011823024600744">
        <ele>1355.5999999999999</ele>
        <time>2018-09-17T09:54:55Z</time>
      </trkpt>
      <trkpt lat="46.98439403437078" lon="11.011914974078536">
        <ele>1355.1199999999999</ele>
        <time>2018-09-17T09:54:56Z</time>
      </trkpt>
      <trkpt lat="46.984190018847585" lon="11.011978005990386">
        <ele>1354.1500000000001</ele>
        <time>2018-09-17T09:54:57Z</time>
      </trkpt>
      <trkpt lat="46.983982985839248" lon="11.011997032910585">
        <ele>1354.1500000000001</ele>
        <time>2018-09-17T09:54:58Z</time>
      </trkpt>
      <trkpt lat="46.983561040833592" lon="11.012035002931952">
        <ele>1353.1900000000001</ele>
        <time>2018-09-17T09:55:00Z</time>
      </trkpt>
      <trkpt lat="46.983349984511733" lon="11.012054029852152">
        <ele>1353.1900000000001</ele>
        <time>2018-09-17T09:55:01Z</time>
      </trkpt>
      <trkpt lat="46.982512967661023" lon="11.012129969894886">
        <ele>1351.75</ele>
        <time>2018-09-17T09:55:05Z</time>
      </trkpt>
      <trkpt lat="46.982326973229647" lon="11.012113960459828">
        <ele>1351.75</ele>
        <time>2018-09-17T09:55:06Z</time>
      </trkpt>
      <trkpt lat="46.982155982404947" lon="11.012012958526611">
        <ele>1350.79</ele>
        <time>2018-09-17T09:55:07Z</time>
      </trkpt>
      <trkpt lat="46.982017010450363" lon="11.011864012107253">
        <ele>1350.3099999999999</ele>
        <time>2018-09-17T09:55:08Z</time>
      </trkpt>
      <trkpt lat="46.981870997697115" lon="11.011694027110934">
        <ele>1350.3099999999999</ele>
        <time>2018-09-17T09:55:09Z</time>
      </trkpt>
      <trkpt lat="46.981740994378924" lon="11.011487999930978">
        <ele>1349.8299999999999</ele>
        <time>2018-09-17T09:55:10Z</time>
      </trkpt>
      <trkpt lat="46.980796018615365" lon="11.010013036429882">
        <ele>1346.9400000000001</ele>
        <time>2018-09-17T09:55:17Z</time>
      </trkpt>
      <trkpt lat="46.980650005862117" lon="11.009866017848253">
        <ele>1346.46</ele>
        <time>2018-09-17T09:55:18Z</time>
      </trkpt>
      <trkpt lat="46.980508016422391" lon="11.009757975116372">
        <ele>1345.98</ele>
        <time>2018-09-17T09:55:19Z</time>
      </trkpt>
      <trkpt lat="46.980341970920563" lon="11.00968899205327">
        <ele>1345.5</ele>
        <time>2018-09-17T09:55:20Z</time>
      </trkpt>
      <trkpt lat="46.980180032551289" lon="11.009663008153439">
        <ele>1344.54</ele>
        <time>2018-09-17T09:55:21Z</time>
      </trkpt>
      <trkpt lat="46.980011975392699" lon="11.009673988446593">
        <ele>1344.54</ele>
        <time>2018-09-17T09:55:22Z</time>
      </trkpt>
      <trkpt lat="46.979836961254478" lon="11.009736014530063">
        <ele>1344.0599999999999</ele>
        <time>2018-09-17T09:55:23Z</time>
      </trkpt>
      <trkpt lat="46.979678962379694" lon="11.009815977886319">
        <ele>1343.5799999999999</ele>
        <time>2018-09-17T09:55:24Z</time>
      </trkpt>
      <trkpt lat="46.979530015960336" lon="11.009908011183143">
        <ele>1343.0999999999999</ele>
        <time>2018-09-17T09:55:25Z</time>
      </trkpt>
      <trkpt lat="46.978584034368396" lon="11.010613013058901">
        <ele>1340.7</ele>
        <time>2018-09-17T09:55:33Z</time>
      </trkpt>
      <trkpt lat="46.977395983412862" lon="11.011208966374397">
        <ele>1341.1800000000001</ele>
        <time>2018-09-17T09:55:43Z</time>
      </trkpt>
      <trkpt lat="46.976312035694718" lon="11.011293958872557">
        <ele>1341.6600000000001</ele>
        <time>2018-09-17T09:55:52Z</time>
      </trkpt>
      <trkpt lat="46.975247031077743" lon="11.011122968047857">
        <ele>1342.1400000000001</ele>
        <time>2018-09-17T09:56:01Z</time>
      </trkpt>
      <trkpt lat="46.973970970138907" lon="11.010622987523675">
        <ele>1343.5799999999999</ele>
        <time>2018-09-17T09:56:12Z</time>
      </trkpt>
      <trkpt lat="46.972497012466192" lon="11.009901976212859">
        <ele>1348.3900000000001</ele>
        <time>2018-09-17T09:56:25Z</time>
      </trkpt>
      <trkpt lat="46.972046988084912" lon="11.009630989283323">
        <ele>1349.3499999999999</ele>
        <time>2018-09-17T09:56:29Z</time>
      </trkpt>
      <trkpt lat="46.971941962838173" lon="11.009541973471642">
        <ele>1349.8299999999999</ele>
        <time>2018-09-17T09:56:30Z</time>
      </trkpt>
      <trkpt lat="46.97184800170362" lon="11.009461004287004">
        <ele>1350.79</ele>
        <time>2018-09-17T09:56:31Z</time>
      </trkpt>
      <trkpt lat="46.971755968406796" lon="11.009381962940097">
        <ele>1351.27</ele>
        <time>2018-09-17T09:56:32Z</time>
      </trkpt>
      <trkpt lat="46.971664018929005" lon="11.009303005412221">
        <ele>1351.75</ele>
        <time>2018-09-17T09:56:33Z</time>
      </trkpt>
      <trkpt lat="46.971576008945704" lon="11.009227987378836">
        <ele>1352.23</ele>
        <time>2018-09-17T09:56:34Z</time>
      </trkpt>
      <trkpt lat="46.971487998962402" lon="11.00915296934545">
        <ele>1353.1900000000001</ele>
        <time>2018-09-17T09:56:35Z</time>
      </trkpt>
      <trkpt lat="46.971380962058902" lon="11.009051967412233">
        <ele>1353.6700000000001</ele>
        <time>2018-09-17T09:56:36Z</time>
      </trkpt>
      <trkpt lat="46.971304016187787" lon="11.008998993784189">
        <ele>1354.6300000000001</ele>
        <time>2018-09-17T09:56:37Z</time>
      </trkpt>
      <trkpt lat="46.971211982890964" lon="11.008935961872339">
        <ele>1355.1199999999999</ele>
        <time>2018-09-17T09:56:38Z</time>
      </trkpt>
      <trkpt lat="46.971026994287968" lon="11.008809981867671">
        <ele>1356.5599999999999</ele>
        <time>2018-09-17T09:56:40Z</time>
      </trkpt>
      <trkpt lat="46.970511004328728" lon="11.008750973269343">
        <ele>1358</ele>
        <time>2018-09-17T09:56:45Z</time>
      </trkpt>
      <trkpt lat="46.97040799073875" lon="11.008748039603233">
        <ele>1358</ele>
        <time>2018-09-17T09:56:46Z</time>
      </trkpt>
      <trkpt lat="46.970299025997519" lon="11.008745022118092">
        <ele>1358.48</ele>
        <time>2018-09-17T09:56:47Z</time>
      </trkpt>
      <trkpt lat="46.970184026286006" lon="11.008740998804569">
        <ele>1358.48</ele>
        <time>2018-09-17T09:56:48Z</time>
      </trkpt>
      <trkpt lat="46.970071038231254" lon="11.008736975491047">
        <ele>1358.96</ele>
        <time>2018-09-17T09:56:49Z</time>
      </trkpt>
      <trkpt lat="46.96995603851974" lon="11.008734041824937">
        <ele>1358.96</ele>
        <time>2018-09-17T09:56:50Z</time>
      </trkpt>
      <trkpt lat="46.968895979225636" lon="11.008302960544825">
        <ele>1357.52</ele>
        <time>2018-09-17T09:56:59Z</time>
      </trkpt>
      <trkpt lat="46.968052005395293" lon="11.007931977510452">
        <ele>1357.04</ele>
        <time>2018-09-17T09:57:07Z</time>
      </trkpt>
      <trkpt lat="46.966763958334923" lon="11.007427973672748">
        <ele>1356.0799999999999</ele>
        <time>2018-09-17T09:57:20Z</time>
      </trkpt>
      <trkpt lat="46.965987961739302" lon="11.007373994216323">
        <ele>1355.1199999999999</ele>
        <time>2018-09-17T09:57:28Z</time>
      </trkpt>
      <trkpt lat="46.964997975155711" lon="11.007553031668067">
        <ele>1355.5999999999999</ele>
        <time>2018-09-17T09:57:39Z</time>
      </trkpt>
      <trkpt lat="46.964106978848577" lon="11.007743971422315">
        <ele>1358</ele>
        <time>2018-09-17T09:57:49Z</time>
      </trkpt>
      <trkpt lat="46.964015029370785" lon="11.007766015827656">
        <ele>1358.48</ele>
        <time>2018-09-17T09:57:50Z</time>
      </trkpt>
      <trkpt lat="46.96314599364996" lon="11.007930971682072">
        <ele>1362.3299999999999</ele>
        <time>2018-09-17T09:57:59Z</time>
      </trkpt>
      <trkpt lat="46.961784018203616" lon="11.008110009133816">
        <ele>1364.73</ele>
        <time>2018-09-17T09:58:10Z</time>
      </trkpt>
      <trkpt lat="46.960373008623719" lon="11.008321987465024">
        <ele>1365.6900000000001</ele>
        <time>2018-09-17T09:58:22Z</time>
      </trkpt>
      <trkpt lat="46.960260020568967" lon="11.00837898440659">
        <ele>1365.6900000000001</ele>
        <time>2018-09-17T09:58:24Z</time>
      </trkpt>
      <trkpt lat="46.96024501696229" lon="11.008386025205255">
        <ele>1365.21</ele>
        <time>2018-09-17T09:58:25Z</time>
      </trkpt>
      <trkpt lat="46.96024501696229" lon="11.008386025205255">
        <ele>1365.21</ele>
        <time>2018-09-17T09:58:37Z</time>
      </trkpt>
      <trkpt lat="46.96024501696229" lon="11.008386025205255">
        <ele>1365.21</ele>
        <time>2018-09-17T09:59:08Z</time>
      </trkpt>
      <trkpt lat="46.96005298756063" lon="11.008481997996569">
        <ele>1360.8800000000001</ele>
        <time>2018-09-17T09:59:28Z</time>
      </trkpt>
      <trkpt lat="46.95934203453362" lon="11.008947025984526">
        <ele>1359.9200000000001</ele>
        <time>2018-09-17T09:59:36Z</time>
      </trkpt>
      <trkpt lat="46.958150966092944" lon="11.009858977049589">
        <ele>1363.77</ele>
        <time>2018-09-17T09:59:47Z</time>
      </trkpt>
      <trkpt lat="46.956834001466632" lon="11.010792972519994">
        <ele>1367.6099999999999</ele>
        <time>2018-09-17T09:59:58Z</time>
      </trkpt>
      <trkpt lat="46.956702992320061" lon="11.010814011096954">
        <ele>1368.5699999999999</ele>
        <time>2018-09-17T09:59:59Z</time>
      </trkpt>
      <trkpt lat="46.95657298900187" lon="11.010833960026503">
        <ele>1369.54</ele>
        <time>2018-09-17T10:00:00Z</time>
      </trkpt>
      <trkpt lat="46.956447008997202" lon="11.010853992775083">
        <ele>1370.5</ele>
        <time>2018-09-17T10:00:01Z</time>
      </trkpt>
      <trkpt lat="46.956318011507392" lon="11.010808981955051">
        <ele>1371.46</ele>
        <time>2018-09-17T10:00:02Z</time>
      </trkpt>
      <trkpt lat="46.956181973218918" lon="11.01076003164053">
        <ele>1372.4200000000001</ele>
        <time>2018-09-17T10:00:03Z</time>
      </trkpt>
      <trkpt lat="46.956043001264334" lon="11.010709991678596">
        <ele>1373.3800000000001</ele>
        <time>2018-09-17T10:00:04Z</time>
      </trkpt>
      <trkpt lat="46.955764973536134" lon="11.010645031929016">
        <ele>1375.78</ele>
        <time>2018-09-17T10:00:06Z</time>
      </trkpt>
      <trkpt lat="46.955631030723453" lon="11.01065500639379">
        <ele>1376.75</ele>
        <time>2018-09-17T10:00:07Z</time>
      </trkpt>
      <trkpt lat="46.95549800992012" lon="11.010703034698963">
        <ele>1378.1900000000001</ele>
        <time>2018-09-17T10:00:08Z</time>
      </trkpt>
      <trkpt lat="46.955384016036987" lon="11.010801019147038">
        <ele>1379.1500000000001</ele>
        <time>2018-09-17T10:00:09Z</time>
      </trkpt>
      <trkpt lat="46.955272033810616" lon="11.010897997766733">
        <ele>1380.1099999999999</ele>
        <time>2018-09-17T10:00:10Z</time>
      </trkpt>
      <trkpt lat="46.955177988857031" lon="11.011043004691601">
        <ele>1381.55</ele>
        <time>2018-09-17T10:00:11Z</time>
      </trkpt>
      <trkpt lat="46.955104982480407" lon="11.011207038536668">
        <ele>1382.99</ele>
        <time>2018-09-17T10:00:12Z</time>
      </trkpt>
      <trkpt lat="46.955029964447021" lon="11.011375011876225">
        <ele>1383.96</ele>
        <time>2018-09-17T10:00:13Z</time>
      </trkpt>
      <trkpt lat="46.954672979190946" lon="11.01220297627151">
        <ele>1389.72</ele>
        <time>2018-09-17T10:00:18Z</time>
      </trkpt>
      <trkpt lat="46.954601984471083" lon="11.012317975983024">
        <ele>1390.6800000000001</ele>
        <time>2018-09-17T10:00:19Z</time>
      </trkpt>
      <trkpt lat="46.95451196283102" lon="11.01241696625948">
        <ele>1391.6500000000001</ele>
        <time>2018-09-17T10:00:20Z</time>
      </trkpt>
      <trkpt lat="46.954424036666751" lon="11.012491984292865">
        <ele>1392.6099999999999</ele>
        <time>2018-09-17T10:00:21Z</time>
      </trkpt>
      <trkpt lat="46.954313982278109" lon="11.012518974021077">
        <ele>1394.05</ele>
        <time>2018-09-17T10:00:22Z</time>
      </trkpt>
      <trkpt lat="46.954206023365259" lon="11.012500030919909">
        <ele>1395.01</ele>
        <time>2018-09-17T10:00:23Z</time>
      </trkpt>
      <trkpt lat="46.954099992290139" lon="11.012458959594369">
        <ele>1396.45</ele>
        <time>2018-09-17T10:00:24Z</time>
      </trkpt>
      <trkpt lat="46.953980969265103" lon="11.012389976531267">
        <ele>1397.4100000000001</ele>
        <time>2018-09-17T10:00:25Z</time>
      </trkpt>
      <trkpt lat="46.953892959281802" lon="11.012246981263161">
        <ele>1398.8599999999999</ele>
        <time>2018-09-17T10:00:26Z</time>
      </trkpt>
      <trkpt lat="46.953840991482139" lon="11.012084037065506">
        <ele>1400.3</ele>
        <time>2018-09-17T10:00:27Z</time>
      </trkpt>
      <trkpt lat="46.953790029510856" lon="11.01192100904882">
        <ele>1401.74</ele>
        <time>2018-09-17T10:00:28Z</time>
      </trkpt>
      <trkpt lat="46.953755998983979" lon="11.011743983253837">
        <ele>1403.6600000000001</ele>
        <time>2018-09-17T10:00:29Z</time>
      </trkpt>
      <trkpt lat="46.953744012862444" lon="11.011607022956014">
        <ele>1405.5799999999999</ele>
        <time>2018-09-17T10:00:30Z</time>
      </trkpt>
      <trkpt lat="46.953733032569289" lon="11.011476013809443">
        <ele>1407.03</ele>
        <time>2018-09-17T10:00:31Z</time>
      </trkpt>
      <trkpt lat="46.953721968457103" lon="11.011349027976394">
        <ele>1408.47</ele>
        <time>2018-09-17T10:00:32Z</time>
      </trkpt>
      <trkpt lat="46.953706964850426" lon="11.0112330224365">
        <ele>1409.9100000000001</ele>
        <time>2018-09-17T10:00:33Z</time>
      </trkpt>
      <trkpt lat="46.953688021749258" lon="11.01112699136138">
        <ele>1411.3499999999999</ele>
        <time>2018-09-17T10:00:34Z</time>
      </trkpt>
      <trkpt lat="46.953566987067461" lon="11.010652994737029">
        <ele>1415.6800000000001</ele>
        <time>2018-09-17T10:00:38Z</time>
      </trkpt>
      <trkpt lat="46.953508984297514" lon="11.01054897531867">
        <ele>1416.6400000000001</ele>
        <time>2018-09-17T10:00:39Z</time>
      </trkpt>
      <trkpt lat="46.953446958214045" lon="11.010445039719343">
        <ele>1417.5999999999999</ele>
        <time>2018-09-17T10:00:40Z</time>
      </trkpt>
      <trkpt lat="46.953369006514549" lon="11.010361975058913">
        <ele>1418.5599999999999</ele>
        <time>2018-09-17T10:00:41Z</time>
      </trkpt>
      <trkpt lat="46.953274039551616" lon="11.010298021137714">
        <ele>1419.52</ele>
        <time>2018-09-17T10:00:42Z</time>
      </trkpt>
      <trkpt lat="46.953142024576664" lon="11.010211016982794">
        <ele>1420.49</ele>
        <time>2018-09-17T10:00:43Z</time>
      </trkpt>
      <trkpt lat="46.953061977401376" lon="11.010190984234214">
        <ele>1420.97</ele>
        <time>2018-09-17T10:00:44Z</time>
      </trkpt>
      <trkpt lat="46.952944966033101" lon="11.010162988677621">
        <ele>1421.9300000000001</ele>
        <time>2018-09-17T10:00:45Z</time>
      </trkpt>
      <trkpt lat="46.951991021633148" lon="11.009950004518032">
        <ele>1429.1400000000001</ele>
        <time>2018-09-17T10:00:52Z</time>
      </trkpt>
      <trkpt lat="46.951752975583076" lon="11.009910022839904">
        <ele>1431.54</ele>
        <time>2018-09-17T10:00:54Z</time>
      </trkpt>
      <trkpt lat="46.951639987528324" lon="11.009910022839904">
        <ele>1432.5</ele>
        <time>2018-09-17T10:00:55Z</time>
      </trkpt>
      <trkpt lat="46.951509984210134" lon="11.009974982589483">
        <ele>1433.9400000000001</ele>
        <time>2018-09-17T10:00:56Z</time>
      </trkpt>
      <trkpt lat="46.951391967013478" lon="11.010033991187811">
        <ele>1435.3900000000001</ele>
        <time>2018-09-17T10:00:57Z</time>
      </trkpt>
      <trkpt lat="46.951279984787107" lon="11.010102974250913">
        <ele>1436.3499999999999</ele>
        <time>2018-09-17T10:00:58Z</time>
      </trkpt>
      <trkpt lat="46.951197003945708" lon="11.010206993669271">
        <ele>1436.8299999999999</ele>
        <time>2018-09-17T10:00:59Z</time>
      </trkpt>
      <trkpt lat="46.951120980083942" lon="11.010301960632205">
        <ele>1437.79</ele>
        <time>2018-09-17T10:01:00Z</time>
      </trkpt>
      <trkpt lat="46.951049985364079" lon="11.010390976443887">
        <ele>1438.27</ele>
        <time>2018-09-17T10:01:01Z</time>
      </trkpt>
      <trkpt lat="46.950328974053264" lon="11.011092960834503">
        <ele>1445</ele>
        <time>2018-09-17T10:01:09Z</time>
      </trkpt>
      <trkpt lat="46.950236018747091" lon="11.011168984696269">
        <ele>1445.96</ele>
        <time>2018-09-17T10:01:10Z</time>
      </trkpt>
      <trkpt lat="46.950168963521719" lon="11.011222964152694">
        <ele>1446.9200000000001</ele>
        <time>2018-09-17T10:01:11Z</time>
      </trkpt>
      <trkpt lat="46.95004097186029" lon="11.011350033804774">
        <ele>1450.77</ele>
        <time>2018-09-17T10:01:18Z</time>
      </trkpt>
      <trkpt lat="46.949994033202529" lon="11.011407030746341">
        <ele>1452.21</ele>
        <time>2018-09-17T10:01:23Z</time>
      </trkpt>
      <trkpt lat="46.949948016554117" lon="11.011464027687907">
        <ele>1452.6900000000001</ele>
        <time>2018-09-17T10:01:24Z</time>
      </trkpt>
      <trkpt lat="46.949895964935422" lon="11.011551031842828">
        <ele>1453.1700000000001</ele>
        <time>2018-09-17T10:01:25Z</time>
      </trkpt>
      <trkpt lat="46.949872998520732" lon="11.011667959392071">
        <ele>1453.6500000000001</ele>
        <time>2018-09-17T10:01:26Z</time>
      </trkpt>
      <trkpt lat="46.949851959943771" lon="11.011800980195403">
        <ele>1454.6099999999999</ele>
        <time>2018-09-17T10:01:27Z</time>
      </trkpt>
      <trkpt lat="46.949835028499365" lon="11.011954033747315">
        <ele>1455.0899999999999</ele>
        <time>2018-09-17T10:01:28Z</time>
      </trkpt>
      <trkpt lat="46.949816001579165" lon="11.012129969894886">
        <ele>1455.5699999999999</ele>
        <time>2018-09-17T10:01:29Z</time>
      </trkpt>
      <trkpt lat="46.949795968830585" lon="11.012314036488533">
        <ele>1456.05</ele>
        <time>2018-09-17T10:01:30Z</time>
      </trkpt>
      <trkpt lat="46.949751963838935" lon="11.012720977887511">
        <ele>1457.02</ele>
        <time>2018-09-17T10:01:32Z</time>
      </trkpt>
      <trkpt lat="46.949699996039271" lon="11.012906972318888">
        <ele>1457.5</ele>
        <time>2018-09-17T10:01:33Z</time>
      </trkpt>
      <trkpt lat="46.949639981612563" lon="11.013121968135238">
        <ele>1458.46</ele>
        <time>2018-09-17T10:01:34Z</time>
      </trkpt>
      <trkpt lat="46.949348039925098" lon="11.014074990525842">
        <ele>1461.3399999999999</ele>
        <time>2018-09-17T10:01:38Z</time>
      </trkpt>
      <trkpt lat="46.948352018371224" lon="11.016280017793179">
        <ele>1472.4000000000001</ele>
        <time>2018-09-17T10:01:48Z</time>
      </trkpt>
      <trkpt lat="46.947766039520502" lon="11.017899988219142">
        <ele>1482.01</ele>
        <time>2018-09-17T10:01:55Z</time>
      </trkpt>
      <trkpt lat="46.947737960144877" lon="11.01810903288424">
        <ele>1483.45</ele>
        <time>2018-09-17T10:01:56Z</time>
      </trkpt>
      <trkpt lat="46.947714993730187" lon="11.018311958760023">
        <ele>1484.4100000000001</ele>
        <time>2018-09-17T10:01:57Z</time>
      </trkpt>
      <trkpt lat="46.94774298928678" lon="11.018508011475205">
        <ele>1485.3699999999999</ele>
        <time>2018-09-17T10:01:58Z</time>
      </trkpt>
      <trkpt lat="46.947772996500134" lon="11.018715966492891">
        <ele>1486.3399999999999</ele>
        <time>2018-09-17T10:01:59Z</time>
      </trkpt>
      <trkpt lat="46.947804009541869" lon="11.018932973966002">
        <ele>1486.8199999999999</ele>
        <time>2018-09-17T10:02:00Z</time>
      </trkpt>
      <trkpt lat="46.947861006483436" lon="11.019151993095875">
        <ele>1488.26</ele>
        <time>2018-09-17T10:02:01Z</time>
      </trkpt>
      <trkpt lat="46.947944993153214" lon="11.019361037760973">
        <ele>1489.22</ele>
        <time>2018-09-17T10:02:02Z</time>
      </trkpt>
      <trkpt lat="46.948040965944529" lon="11.019566981121898">
        <ele>1490.1800000000001</ele>
        <time>2018-09-17T10:02:03Z</time>
      </trkpt>
      <trkpt lat="46.94815001450479" lon="11.019762028008699">
        <ele>1491.1400000000001</ele>
        <time>2018-09-17T10:02:04Z</time>
      </trkpt>
      <trkpt lat="46.948434999212623" lon="11.020305007696152">
        <ele>1493.55</ele>
        <time>2018-09-17T10:02:07Z</time>
      </trkpt>
      <trkpt lat="46.94849400781095" lon="11.020514974370599">
        <ele>1494.03</ele>
        <time>2018-09-17T10:02:08Z</time>
      </trkpt>
      <trkpt lat="46.94851596839726" lon="11.020716978237033">
        <ele>1494.51</ele>
        <time>2018-09-17T10:02:09Z</time>
      </trkpt>
      <trkpt lat="46.948524015024304" lon="11.022599972784519">
        <ele>1494.03</ele>
        <time>2018-09-17T10:02:17Z</time>
      </trkpt>
      <trkpt lat="46.948456959798932" lon="11.023042034357786">
        <ele>1493.0599999999999</ele>
        <time>2018-09-17T10:02:19Z</time>
      </trkpt>
      <trkpt lat="46.948425024747849" lon="11.023258036002517">
        <ele>1492.0999999999999</ele>
        <time>2018-09-17T10:02:20Z</time>
      </trkpt>
      <trkpt lat="46.948346989229321" lon="11.023448975756764">
        <ele>1491.6199999999999</ele>
        <time>2018-09-17T10:02:21Z</time>
      </trkpt>
      <trkpt lat="46.948266020044684" lon="11.023635976016521">
        <ele>1491.1400000000001</ele>
        <time>2018-09-17T10:02:22Z</time>
      </trkpt>
      <trkpt lat="46.948182033374906" lon="11.023821970447898">
        <ele>1490.1800000000001</ele>
        <time>2018-09-17T10:02:23Z</time>
      </trkpt>
      <trkpt lat="46.947697978466749" lon="11.024710033088923">
        <ele>1485.8499999999999</ele>
        <time>2018-09-17T10:02:28Z</time>
      </trkpt>
      <trkpt lat="46.9475709926337" lon="11.024805000051856">
        <ele>1485.3699999999999</ele>
        <time>2018-09-17T10:02:29Z</time>
      </trkpt>
      <trkpt lat="46.947451969608665" lon="11.024884963408113">
        <ele>1484.8900000000001</ele>
        <time>2018-09-17T10:02:30Z</time>
      </trkpt>
      <trkpt lat="46.947337975725532" lon="11.02496299892664">
        <ele>1483.9300000000001</ele>
        <time>2018-09-17T10:02:31Z</time>
      </trkpt>
      <trkpt lat="46.947218030691147" lon="11.025043968111277">
        <ele>1483.45</ele>
        <time>2018-09-17T10:02:32Z</time>
      </trkpt>
      <trkpt lat="46.947091966867447" lon="11.025128960609436">
        <ele>1482.97</ele>
        <time>2018-09-17T10:02:33Z</time>
      </trkpt>
      <trkpt lat="46.946960035711527" lon="11.025217976421118">
        <ele>1482.49</ele>
        <time>2018-09-17T10:02:34Z</time>
      </trkpt>
      <trkpt lat="46.946832966059446" lon="11.025346973910928">
        <ele>1481.53</ele>
        <time>2018-09-17T10:02:35Z</time>
      </trkpt>
      <trkpt lat="46.946707991883159" lon="11.02547999471426">
        <ele>1481.05</ele>
        <time>2018-09-17T10:02:36Z</time>
      </trkpt>
      <trkpt lat="46.94658201187849" lon="11.025615027174354">
        <ele>1479.6099999999999</ele>
        <time>2018-09-17T10:02:37Z</time>
      </trkpt>
      <trkpt lat="46.946340026333928" lon="11.025875033810735">
        <ele>1477.6800000000001</ele>
        <time>2018-09-17T10:02:39Z</time>
      </trkpt>
      <trkpt lat="46.946184961125255" lon="11.025946028530598">
        <ele>1476.24</ele>
        <time>2018-09-17T10:02:40Z</time>
      </trkpt>
      <trkpt lat="46.946035008877516" lon="11.026015011593699">
        <ele>1474.8</ele>
        <time>2018-09-17T10:02:41Z</time>
      </trkpt>
      <trkpt lat="46.945871980860829" lon="11.026089023798704">
        <ele>1473.3599999999999</ele>
        <time>2018-09-17T10:02:42Z</time>
      </trkpt>
      <trkpt lat="46.945709958672523" lon="11.026205029338598">
        <ele>1472.4000000000001</ele>
        <time>2018-09-17T10:02:43Z</time>
      </trkpt>
      <trkpt lat="46.945551037788391" lon="11.026335032656789">
        <ele>1470.95</ele>
        <time>2018-09-17T10:02:44Z</time>
      </trkpt>
      <trkpt lat="46.945383986458182" lon="11.026469981297851">
        <ele>1469.99</ele>
        <time>2018-09-17T10:02:45Z</time>
      </trkpt>
      <trkpt lat="46.945215007290244" lon="11.026608031243086">
        <ele>1468.55</ele>
        <time>2018-09-17T10:02:46Z</time>
      </trkpt>
      <trkpt lat="46.945046028122306" lon="11.026745997369289">
        <ele>1467.1099999999999</ele>
        <time>2018-09-17T10:02:47Z</time>
      </trkpt>
      <trkpt lat="46.944847963750362" lon="11.026827972382307">
        <ele>1466.1500000000001</ele>
        <time>2018-09-17T10:02:48Z</time>
      </trkpt>
      <trkpt lat="46.942977039143443" lon="11.027386039495468">
        <ele>1455.0899999999999</ele>
        <time>2018-09-17T10:02:57Z</time>
      </trkpt>
      <trkpt lat="46.941665019840002" lon="11.027419986203313">
        <ele>1449.8099999999999</ele>
        <time>2018-09-17T10:03:04Z</time>
      </trkpt>
      <trkpt lat="46.941484976559877" lon="11.027405988425016">
        <ele>1449.3199999999999</ele>
        <time>2018-09-17T10:03:05Z</time>
      </trkpt>
      <trkpt lat="46.941155986860394" lon="11.027357038110495">
        <ele>1448.8399999999999</ele>
        <time>2018-09-17T10:03:07Z</time>
      </trkpt>
      <trkpt lat="46.940993964672089" lon="11.027312027290463">
        <ele>1448.3599999999999</ele>
        <time>2018-09-17T10:03:08Z</time>
      </trkpt>
      <trkpt lat="46.940835965797305" lon="11.027266010642052">
        <ele>1447.8800000000001</ele>
        <time>2018-09-17T10:03:09Z</time>
      </trkpt>
      <trkpt lat="46.940682996064425" lon="11.027223011478782">
        <ele>1447.8800000000001</ele>
        <time>2018-09-17T10:03:10Z</time>
      </trkpt>
      <trkpt lat="46.940535977482796" lon="11.027185963466763">
        <ele>1447.8800000000001</ele>
        <time>2018-09-17T10:03:11Z</time>
      </trkpt>
      <trkpt lat="46.940353000536561" lon="11.027141036465764">
        <ele>1447.8800000000001</ele>
        <time>2018-09-17T10:03:12Z</time>
      </trkpt>
      <trkpt lat="46.940251998603344" lon="11.027160985395312">
        <ele>1448.3599999999999</ele>
        <time>2018-09-17T10:03:13Z</time>
      </trkpt>
      <trkpt lat="46.940120989456773" lon="11.027203984558582">
        <ele>1448.3599999999999</ele>
        <time>2018-09-17T10:03:14Z</time>
      </trkpt>
      <trkpt lat="46.939998026937246" lon="11.027242038398981">
        <ele>1448.8399999999999</ele>
        <time>2018-09-17T10:03:15Z</time>
      </trkpt>
      <trkpt lat="46.938839983195066" lon="11.027450999245048">
        <ele>1449.3199999999999</ele>
        <time>2018-09-17T10:03:25Z</time>
      </trkpt>
      <trkpt lat="46.938498001545668" lon="11.027490980923176">
        <ele>1451.73</ele>
        <time>2018-09-17T10:03:28Z</time>
      </trkpt>
      <trkpt lat="46.938371015712619" lon="11.027501961216331">
        <ele>1452.21</ele>
        <time>2018-09-17T10:03:29Z</time>
      </trkpt>
      <trkpt lat="46.938258027657866" lon="11.027447981759906">
        <ele>1453.1700000000001</ele>
        <time>2018-09-17T10:03:30Z</time>
      </trkpt>
      <trkpt lat="46.93704198114574" lon="11.026920005679131">
        <ele>1458.9400000000001</ele>
        <time>2018-09-17T10:03:39Z</time>
      </trkpt>
      <trkpt lat="46.935599958524108" lon="11.026322962716222">
        <ele>1467.5899999999999</ele>
        <time>2018-09-17T10:03:49Z</time>
      </trkpt>
      <trkpt lat="46.934665963053703" lon="11.025616033002734">
        <ele>1476.72</ele>
        <time>2018-09-17T10:03:55Z</time>
      </trkpt>
      <trkpt lat="46.934302020817995" lon="11.025210013613105">
        <ele>1483.45</ele>
        <time>2018-09-17T10:03:58Z</time>
      </trkpt>
      <trkpt lat="46.93424804136157" lon="11.025068024173379">
        <ele>1485.3699999999999</ele>
        <time>2018-09-17T10:03:59Z</time>
      </trkpt>
      <trkpt lat="46.934100016951561" lon="11.024682959541678">
        <ele>1492.5799999999999</ele>
        <time>2018-09-17T10:04:03Z</time>
      </trkpt>
      <trkpt lat="46.934088030830026" lon="11.024652030318975">
        <ele>1494.03</ele>
        <time>2018-09-17T10:04:04Z</time>
      </trkpt>
      <trkpt lat="46.934088030830026" lon="11.024652030318975">
        <ele>1501.72</ele>
        <time>2018-09-17T10:04:10Z</time>
      </trkpt>
      <trkpt lat="46.934088030830026" lon="11.024652030318975">
        <ele>1502.6800000000001</ele>
        <time>2018-09-17T10:04:11Z</time>
      </trkpt>
      <trkpt lat="46.934088030830026" lon="11.024652030318975">
        <ele>1503.6400000000001</ele>
        <time>2018-09-17T10:04:12Z</time>
      </trkpt>
      <trkpt lat="46.934088030830026" lon="11.024652030318975">
        <ele>1504.5999999999999</ele>
        <time>2018-09-17T10:04:25Z</time>
      </trkpt>
      <trkpt lat="46.934088030830026" lon="11.024652030318975">
        <ele>1504.5999999999999</ele>
        <time>2018-09-17T10:04:30Z</time>
      </trkpt>
      <trkpt lat="46.933994991704822" lon="11.024652030318975">
        <ele>1506.04</ele>
        <time>2018-09-17T10:04:31Z</time>
      </trkpt>
      <trkpt lat="46.933993985876441" lon="11.024652030318975">
        <ele>1506.52</ele>
        <time>2018-09-17T10:04:32Z</time>
      </trkpt>
      <trkpt lat="46.934004966169596" lon="11.024652030318975">
        <ele>1507</ele>
        <time>2018-09-17T10:04:33Z</time>
      </trkpt>
      <trkpt lat="46.934004966169596" lon="11.024652030318975">
        <ele>1507.48</ele>
        <time>2018-09-17T10:04:47Z</time>
      </trkpt>
      <trkpt lat="46.934004966169596" lon="11.024652030318975">
        <ele>1508.9300000000001</ele>
        <time>2018-09-17T10:05:39Z</time>
      </trkpt>
      <trkpt lat="46.933937994763255" lon="11.024801982566714">
        <ele>1510.8499999999999</ele>
        <time>2018-09-17T10:06:04Z</time>
      </trkpt>
      <trkpt lat="46.933950986713171" lon="11.024711960926652">
        <ele>1509.8900000000001</ele>
        <time>2018-09-17T10:06:06Z</time>
      </trkpt>
      <trkpt lat="46.933941012248397" lon="11.024774992838502">
        <ele>1509.8900000000001</ele>
        <time>2018-09-17T10:06:07Z</time>
      </trkpt>
      <trkpt lat="46.933937994763255" lon="11.024801982566714">
        <ele>1509.8900000000001</ele>
        <time>2018-09-17T10:06:09Z</time>
      </trkpt>
      <trkpt lat="46.934041008353233" lon="11.025058971717954">
        <ele>1509.8900000000001</ele>
        <time>2018-09-17T10:06:10Z</time>
      </trkpt>
      <trkpt lat="46.934091970324516" lon="11.025186963379383">
        <ele>1509.8900000000001</ele>
        <time>2018-09-17T10:06:11Z</time>
      </trkpt>
      <trkpt lat="46.934213005006313" lon="11.025488963350654">
        <ele>1510.3699999999999</ele>
        <time>2018-09-17T10:06:13Z</time>
      </trkpt>
      <trkpt lat="46.934345019981265" lon="11.025820970535278">
        <ele>1510.3699999999999</ele>
        <time>2018-09-17T10:06:15Z</time>
      </trkpt>
      <trkpt lat="46.934393970295787" lon="11.02603898383677">
        <ele>1510.3699999999999</ele>
        <time>2018-09-17T10:06:16Z</time>
      </trkpt>
      <trkpt lat="46.934538977220654" lon="11.026634015142918">
        <ele>1510.8499999999999</ele>
        <time>2018-09-17T10:06:19Z</time>
      </trkpt>
      <trkpt lat="46.934610977768898" lon="11.026840964332223">
        <ele>1511.3299999999999</ele>
        <time>2018-09-17T10:06:20Z</time>
      </trkpt>
      <trkpt lat="46.934823961928487" lon="11.027487041428685">
        <ele>1514.21</ele>
        <time>2018-09-17T10:06:23Z</time>
      </trkpt>
      <trkpt lat="46.935253031551838" lon="11.028547016903758">
        <ele>1520.9400000000001</ele>
        <time>2018-09-17T10:06:28Z</time>
      </trkpt>
      <trkpt lat="46.935336012393236" lon="11.028756983578205">
        <ele>1522.3900000000001</ele>
        <time>2018-09-17T10:06:29Z</time>
      </trkpt>
      <trkpt lat="46.935415975749493" lon="11.0289609991014">
        <ele>1524.3099999999999</ele>
        <time>2018-09-17T10:06:30Z</time>
      </trkpt>
      <trkpt lat="46.935490993782878" lon="11.02915202267468">
        <ele>1525.75</ele>
        <time>2018-09-17T10:06:31Z</time>
      </trkpt>
      <trkpt lat="46.935564000159502" lon="11.029337011277676">
        <ele>1527.6700000000001</ele>
        <time>2018-09-17T10:06:32Z</time>
      </trkpt>
      <trkpt lat="46.935622002929449" lon="11.029549995437264">
        <ele>1529.1099999999999</ele>
        <time>2018-09-17T10:06:33Z</time>
      </trkpt>
      <trkpt lat="46.935647986829281" lon="11.029759962111712">
        <ele>1530.5599999999999</ele>
        <time>2018-09-17T10:06:34Z</time>
      </trkpt>
      <trkpt lat="46.935674976557493" lon="11.029983004555106">
        <ele>1532</ele>
        <time>2018-09-17T10:06:35Z</time>
      </trkpt>
      <trkpt lat="46.935702972114086" lon="11.030210992321372">
        <ele>1533.9200000000001</ele>
        <time>2018-09-17T10:06:36Z</time>
      </trkpt>
      <trkpt lat="46.935743037611246" lon="11.03041903115809">
        <ele>1535.3599999999999</ele>
        <time>2018-09-17T10:06:37Z</time>
      </trkpt>
      <trkpt lat="46.935803974047303" lon="11.030620029196143">
        <ele>1537.29</ele>
        <time>2018-09-17T10:06:38Z</time>
      </trkpt>
      <trkpt lat="46.93586097098887" lon="11.0308070294559">
        <ele>1538.73</ele>
        <time>2018-09-17T10:06:39Z</time>
      </trkpt>
      <trkpt lat="46.935914028435946" lon="11.03098195977509">
        <ele>1539.6900000000001</ele>
        <time>2018-09-17T10:06:40Z</time>
      </trkpt>
      <trkpt lat="46.935922997072339" lon="11.031186981126666">
        <ele>1540.6500000000001</ele>
        <time>2018-09-17T10:06:41Z</time>
      </trkpt>
      <trkpt lat="46.935908999294043" lon="11.031393008306623">
        <ele>1541.6099999999999</ele>
        <time>2018-09-17T10:06:42Z</time>
      </trkpt>
      <trkpt lat="46.935893995687366" lon="11.031614039093256">
        <ele>1543.05</ele>
        <time>2018-09-17T10:06:43Z</time>
      </trkpt>
      <trkpt lat="46.935846973210573" lon="11.03207697160542">
        <ele>1545.46</ele>
        <time>2018-09-17T10:06:45Z</time>
      </trkpt>
      <trkpt lat="46.935799028724432" lon="11.032318035140634">
        <ele>1546.9000000000001</ele>
        <time>2018-09-17T10:06:46Z</time>
      </trkpt>
      <trkpt lat="46.935725016519427" lon="11.032793959602714">
        <ele>1549.78</ele>
        <time>2018-09-17T10:06:48Z</time>
      </trkpt>
      <trkpt lat="46.935698026791215" lon="11.03299998678267">
        <ele>1551.71</ele>
        <time>2018-09-17T10:06:49Z</time>
      </trkpt>
      <trkpt lat="46.935675982385874" lon="11.033179024234414">
        <ele>1553.6300000000001</ele>
        <time>2018-09-17T10:06:50Z</time>
      </trkpt>
      <trkpt lat="46.935641029849648" lon="11.033446993678808">
        <ele>1556.51</ele>
        <time>2018-09-17T10:06:52Z</time>
      </trkpt>
      <trkpt lat="46.935632983222604" lon="11.033513965085149">
        <ele>1557.95</ele>
        <time>2018-09-17T10:06:53Z</time>
      </trkpt>
      <trkpt lat="46.935600964352489" lon="11.033529974520206">
        <ele>1558.9200000000001</ele>
        <time>2018-09-17T10:06:54Z</time>
      </trkpt>
      <trkpt lat="46.935566011816263" lon="11.033546989783645">
        <ele>1560.3599999999999</ele>
        <time>2018-09-17T10:06:55Z</time>
      </trkpt>
      <trkpt lat="46.935546984896064" lon="11.033555958420038">
        <ele>1561.8</ele>
        <time>2018-09-17T10:06:56Z</time>
      </trkpt>
      <trkpt lat="46.935481019318104" lon="11.033463003113866">
        <ele>1562.76</ele>
        <time>2018-09-17T10:06:57Z</time>
      </trkpt>
      <trkpt lat="46.93547498434782" lon="11.033329982310534">
        <ele>1564.2</ele>
        <time>2018-09-17T10:06:58Z</time>
      </trkpt>
      <trkpt lat="46.935466015711427" lon="11.033169971778989">
        <ele>1565.1600000000001</ele>
        <time>2018-09-17T10:06:59Z</time>
      </trkpt>
      <trkpt lat="46.935453023761511" lon="11.032995963469148">
        <ele>1566.6099999999999</ele>
        <time>2018-09-17T10:07:00Z</time>
      </trkpt>
      <trkpt lat="46.935429973527789" lon="11.032799994572997">
        <ele>1568.05</ele>
        <time>2018-09-17T10:07:01Z</time>
      </trkpt>
      <trkpt lat="46.935350010171533" lon="11.032132962718606">
        <ele>1572.8499999999999</ele>
        <time>2018-09-17T10:07:04Z</time>
      </trkpt>
      <trkpt lat="46.935327965766191" lon="11.03194797411561">
        <ele>1574.78</ele>
        <time>2018-09-17T10:07:05Z</time>
      </trkpt>
      <trkpt lat="46.935311034321785" lon="11.031801961362362">
        <ele>1576.7</ele>
        <time>2018-09-17T10:07:06Z</time>
      </trkpt>
      <trkpt lat="46.935297036543489" lon="11.0316860396415">
        <ele>1578.6199999999999</ele>
        <time>2018-09-17T10:07:07Z</time>
      </trkpt>
      <trkpt lat="46.935282032936811" lon="11.031617978587747">
        <ele>1580.0599999999999</ele>
        <time>2018-09-17T10:07:08Z</time>
      </trkpt>
      <trkpt lat="46.935221012681723" lon="11.031562993302941">
        <ele>1581.03</ele>
        <time>2018-09-17T10:07:09Z</time>
      </trkpt>
      <trkpt lat="46.935163009911776" lon="11.031591994687915">
        <ele>1581.99</ele>
        <time>2018-09-17T10:07:10Z</time>
      </trkpt>
      <trkpt lat="46.935128979384899" lon="11.031738007441163">
        <ele>1582.95</ele>
        <time>2018-09-17T10:07:11Z</time>
      </trkpt>
      <trkpt lat="46.935117999091744" lon="11.031883014366031">
        <ele>1584.3900000000001</ele>
        <time>2018-09-17T10:07:12Z</time>
      </trkpt>
      <trkpt lat="46.935105007141829" lon="11.032055011019111">
        <ele>1585.3499999999999</ele>
        <time>2018-09-17T10:07:13Z</time>
      </trkpt>
      <trkpt lat="46.935056978836656" lon="11.032459018751979">
        <ele>1587.75</ele>
        <time>2018-09-17T10:07:15Z</time>
      </trkpt>
      <trkpt lat="46.935026971623302" lon="11.032682983204722">
        <ele>1588.72</ele>
        <time>2018-09-17T10:07:16Z</time>
      </trkpt>
      <trkpt lat="46.934473011642694" lon="11.034681983292103">
        <ele>1602.1700000000001</ele>
        <time>2018-09-17T10:07:24Z</time>
      </trkpt>
      <trkpt lat="46.934300009161234" lon="11.035193027928472">
        <ele>1606.5</ele>
        <time>2018-09-17T10:07:26Z</time>
      </trkpt>
      <trkpt lat="46.933425022289157" lon="11.036664973944426">
        <ele>1621.8800000000001</ele>
        <time>2018-09-17T10:07:33Z</time>
      </trkpt>
      <trkpt lat="46.931953998282552" lon="11.03783299215138">
        <ele>1638.22</ele>
        <time>2018-09-17T10:07:42Z</time>
      </trkpt>
      <trkpt lat="46.930396975949407" lon="11.039254982024431">
        <ele>1646.8800000000001</ele>
        <time>2018-09-17T10:07:51Z</time>
      </trkpt>
      <trkpt lat="46.930235959589481" lon="11.03942203335464">
        <ele>1647.3599999999999</ele>
        <time>2018-09-17T10:07:52Z</time>
      </trkpt>
      <trkpt lat="46.930061029270291" lon="11.039552958682179">
        <ele>1647.8399999999999</ele>
        <time>2018-09-17T10:07:53Z</time>
      </trkpt>
      <trkpt lat="46.928653959184885" lon="11.040206998586655">
        <ele>1650.24</ele>
        <time>2018-09-17T10:08:00Z</time>
      </trkpt>
      <trkpt lat="46.927629020065069" lon="11.041450034826994">
        <ele>1650.72</ele>
        <time>2018-09-17T10:08:06Z</time>
      </trkpt>
      <trkpt lat="46.926480028778315" lon="11.043033041059971">
        <ele>1650.72</ele>
        <time>2018-09-17T10:08:13Z</time>
      </trkpt>
      <trkpt lat="46.926310965791345" lon="11.04318399913609">
        <ele>1651.2</ele>
        <time>2018-09-17T10:08:14Z</time>
      </trkpt>
      <trkpt lat="46.926126983016729" lon="11.043285001069307">
        <ele>1651.2</ele>
        <time>2018-09-17T10:08:15Z</time>
      </trkpt>
      <trkpt lat="46.925932019948959" lon="11.043363036587834">
        <ele>1651.2</ele>
        <time>2018-09-17T10:08:16Z</time>
      </trkpt>
      <trkpt lat="46.925729010254145" lon="11.043406035751104">
        <ele>1651.6800000000001</ele>
        <time>2018-09-17T10:08:17Z</time>
      </trkpt>
      <trkpt lat="46.925508985295892" lon="11.043406035751104">
        <ele>1651.6800000000001</ele>
        <time>2018-09-17T10:08:18Z</time>
      </trkpt>
      <trkpt lat="46.925302958115935" lon="11.043406035751104">
        <ele>1651.6800000000001</ele>
        <time>2018-09-17T10:08:19Z</time>
      </trkpt>
      <trkpt lat="46.92511604167521" lon="11.043426990509033">
        <ele>1651.6800000000001</ele>
        <time>2018-09-17T10:08:20Z</time>
      </trkpt>
      <trkpt lat="46.924934992566705" lon="11.043485999107361">
        <ele>1651.6800000000001</ele>
        <time>2018-09-17T10:08:21Z</time>
      </trkpt>
      <trkpt lat="46.924756960943341" lon="11.043544001877308">
        <ele>1652.1600000000001</ele>
        <time>2018-09-17T10:08:22Z</time>
      </trkpt>
      <trkpt lat="46.924419002607465" lon="11.043653972446918">
        <ele>1652.1600000000001</ele>
        <time>2018-09-17T10:08:24Z</time>
      </trkpt>
      <trkpt lat="46.924233008176088" lon="11.043700994923711">
        <ele>1652.1600000000001</ele>
        <time>2018-09-17T10:08:25Z</time>
      </trkpt>
      <trkpt lat="46.923422981053591" lon="11.043557999655604">
        <ele>1654.0899999999999</ele>
        <time>2018-09-17T10:08:29Z</time>
      </trkpt>
      <trkpt lat="46.92159597761929" lon="11.043682973831892">
        <ele>1659.8499999999999</ele>
        <time>2018-09-17T10:08:37Z</time>
      </trkpt>
      <trkpt lat="46.920193014666438" lon="11.043264968320727">
        <ele>1666.0999999999999</ele>
        <time>2018-09-17T10:08:43Z</time>
      </trkpt>
      <trkpt lat="46.919302018359303" lon="11.042981995269656">
        <ele>1669.95</ele>
        <time>2018-09-17T10:08:47Z</time>
      </trkpt>
      <trkpt lat="46.919109988957644" lon="11.042933966964483">
        <ele>1670.4300000000001</ele>
        <time>2018-09-17T10:08:48Z</time>
      </trkpt>
      <trkpt lat="46.918928017839789" lon="11.042888034135103">
        <ele>1671.3900000000001</ele>
        <time>2018-09-17T10:08:49Z</time>
      </trkpt>
      <trkpt lat="46.917463028803468" lon="11.042726011946797">
        <ele>1679.5599999999999</ele>
        <time>2018-09-17T10:08:58Z</time>
      </trkpt>
      <trkpt lat="46.916538001969457" lon="11.042585028335452">
        <ele>1683.8900000000001</ele>
        <time>2018-09-17T10:09:03Z</time>
      </trkpt>
      <trkpt lat="46.916327029466629" lon="11.042523002251983">
        <ele>1684.8499999999999</ele>
        <time>2018-09-17T10:09:04Z</time>
      </trkpt>
      <trkpt lat="46.914685014635324" lon="11.041781958192587">
        <ele>1691.5799999999999</ele>
        <time>2018-09-17T10:09:11Z</time>
      </trkpt>
      <trkpt lat="46.912867985665798" lon="11.040960028767586">
        <ele>1698.79</ele>
        <time>2018-09-17T10:09:19Z</time>
      </trkpt>
      <trkpt lat="46.911752019077539" lon="11.040934966877103">
        <ele>1698.3099999999999</ele>
        <time>2018-09-17T10:09:24Z</time>
      </trkpt>
      <trkpt lat="46.911562001332641" lon="11.041029011830688">
        <ele>1698.3099999999999</ele>
        <time>2018-09-17T10:09:25Z</time>
      </trkpt>
      <trkpt lat="46.910775024443865" lon="11.041473001241684">
        <ele>1697.3399999999999</ele>
        <time>2018-09-17T10:09:29Z</time>
      </trkpt>
      <trkpt lat="46.910048983991146" lon="11.041867034509778">
        <ele>1698.3099999999999</ele>
        <time>2018-09-17T10:09:33Z</time>
      </trkpt>
      <trkpt lat="46.909861983731389" lon="11.041925037279725">
        <ele>1699.75</ele>
        <time>2018-09-17T10:09:34Z</time>
      </trkpt>
      <trkpt lat="46.909689987078309" lon="11.041934005916119">
        <ele>1701.1900000000001</ele>
        <time>2018-09-17T10:09:35Z</time>
      </trkpt>
      <trkpt lat="46.909515978768468" lon="11.041942974552512">
        <ele>1702.6300000000001</ele>
        <time>2018-09-17T10:09:36Z</time>
      </trkpt>
      <trkpt lat="46.909335013478994" lon="11.041892012581229">
        <ele>1703.5899999999999</ele>
        <time>2018-09-17T10:09:37Z</time>
      </trkpt>
      <trkpt lat="46.909151030704379" lon="11.04180802591145">
        <ele>1704.55</ele>
        <time>2018-09-17T10:09:38Z</time>
      </trkpt>
      <trkpt lat="46.907441960647702" lon="11.040677977725863">
        <ele>1710.8</ele>
        <time>2018-09-17T10:09:47Z</time>
      </trkpt>
      <trkpt lat="46.905728029087186" lon="11.039908016100526">
        <ele>1717.53</ele>
        <time>2018-09-17T10:09:55Z</time>
      </trkpt>
      <trkpt lat="46.903689969331026" lon="11.039365958422422">
        <ele>1721.3800000000001</ele>
        <time>2018-09-17T10:10:07Z</time>
      </trkpt>
      <trkpt lat="46.903660967946053" lon="11.039414992555976">
        <ele>1724.26</ele>
        <time>2018-09-17T10:10:08Z</time>
      </trkpt>
      <trkpt lat="46.903634984046221" lon="11.039511971175671">
        <ele>1726.1800000000001</ele>
        <time>2018-09-17T10:10:09Z</time>
      </trkpt>
      <trkpt lat="46.903586033731699" lon="11.039694026112556">
        <ele>1727.1500000000001</ele>
        <time>2018-09-17T10:10:10Z</time>
      </trkpt>
      <trkpt lat="46.90356801263988" lon="11.039877003058791">
        <ele>1728.5899999999999</ele>
        <time>2018-09-17T10:10:11Z</time>
      </trkpt>
      <trkpt lat="46.903558038175106" lon="11.040079006925225">
        <ele>1730.03</ele>
        <time>2018-09-17T10:10:12Z</time>
      </trkpt>
      <trkpt lat="46.903572035953403" lon="11.040267013013363">
        <ele>1731.47</ele>
        <time>2018-09-17T10:10:13Z</time>
      </trkpt>
      <trkpt lat="46.903607994318008" lon="11.040458958595991">
        <ele>1734.3599999999999</ele>
        <time>2018-09-17T10:10:14Z</time>
      </trkpt>
      <trkpt lat="46.903636995702982" lon="11.040617963299155">
        <ele>1736.28</ele>
        <time>2018-09-17T10:10:15Z</time>
      </trkpt>
      <trkpt lat="46.903660967946053" lon="11.040745032951236">
        <ele>1737.24</ele>
        <time>2018-09-17T10:10:16Z</time>
      </trkpt>
      <trkpt lat="46.903617968782783" lon="11.040851986035705">
        <ele>1741.5699999999999</ele>
        <time>2018-09-17T10:10:20Z</time>
      </trkpt>
      <trkpt lat="46.903617968782783" lon="11.040851986035705">
        <ele>1741.5699999999999</ele>
        <time>2018-09-17T10:10:21Z</time>
      </trkpt>
      <trkpt lat="46.9035670068115" lon="11.040831031277776">
        <ele>1742.05</ele>
        <time>2018-09-17T10:10:22Z</time>
      </trkpt>
      <trkpt lat="46.903421999886632" lon="11.040701027959585">
        <ele>1743.01</ele>
        <time>2018-09-17T10:10:23Z</time>
      </trkpt>
      <trkpt lat="46.903338013216853" lon="11.04054001159966">
        <ele>1743.49</ele>
        <time>2018-09-17T10:10:24Z</time>
      </trkpt>
      <trkpt lat="46.903210021555424" lon="11.040294002741575">
        <ele>1744.45</ele>
        <time>2018-09-17T10:10:25Z</time>
      </trkpt>
      <trkpt lat="46.903111031278968" lon="11.040185960009694">
        <ele>1745.4100000000001</ele>
        <time>2018-09-17T10:10:26Z</time>
      </trkpt>
      <trkpt lat="46.902956971898675" lon="11.04002402164042">
        <ele>1746.3699999999999</ele>
        <time>2018-09-17T10:10:27Z</time>
      </trkpt>
      <trkpt lat="46.902786986902356" lon="11.039893012493849">
        <ele>1747.8099999999999</ele>
        <time>2018-09-17T10:10:28Z</time>
      </trkpt>
      <trkpt lat="46.902595041319728" lon="11.039754962548614">
        <ele>1748.78</ele>
        <time>2018-09-17T10:10:29Z</time>
      </trkpt>
      <trkpt lat="46.902399994432926" lon="11.039710035547614">
        <ele>1750.22</ele>
        <time>2018-09-17T10:10:30Z</time>
      </trkpt>
      <trkpt lat="46.902201008051634" lon="11.039665024727583">
        <ele>1751.1800000000001</ele>
        <time>2018-09-17T10:10:31Z</time>
      </trkpt>
      <trkpt lat="46.901971008628607" lon="11.039681034162641">
        <ele>1752.1400000000001</ele>
        <time>2018-09-17T10:10:32Z</time>
      </trkpt>
      <trkpt lat="46.900528986006975" lon="11.039880020543933">
        <ele>1755.99</ele>
        <time>2018-09-17T10:10:40Z</time>
      </trkpt>
      <trkpt lat="46.899162987247109" lon="11.040013041347265">
        <ele>1762.23</ele>
        <time>2018-09-17T10:10:51Z</time>
      </trkpt>
      <trkpt lat="46.897576963528991" lon="11.040159976109862">
        <ele>1768</ele>
        <time>2018-09-17T10:11:04Z</time>
      </trkpt>
      <trkpt lat="46.896122032776475" lon="11.040302971377969">
        <ele>1772.8099999999999</ele>
        <time>2018-09-17T10:11:14Z</time>
      </trkpt>
      <trkpt lat="46.89445998519659" lon="11.040165005251765">
        <ele>1779.0599999999999</ele>
        <time>2018-09-17T10:11:24Z</time>
      </trkpt>
      <trkpt lat="46.892662988975644" lon="11.039792010560632">
        <ele>1788.6700000000001</ele>
        <time>2018-09-17T10:11:36Z</time>
      </trkpt>
      <trkpt lat="46.890750993043184" lon="11.039493028074503">
        <ele>1797.8</ele>
        <time>2018-09-17T10:11:48Z</time>
      </trkpt>
      <trkpt lat="46.889249961823225" lon="11.039404012262821">
        <ele>1804.05</ele>
        <time>2018-09-17T10:11:56Z</time>
      </trkpt>
      <trkpt lat="46.887538963928819" lon="11.039326982572675">
        <ele>1815.1099999999999</ele>
        <time>2018-09-17T10:12:05Z</time>
      </trkpt>
      <trkpt lat="46.887385994195938" lon="11.03929303586483">
        <ele>1816.0699999999999</ele>
        <time>2018-09-17T10:12:06Z</time>
      </trkpt>
      <trkpt lat="46.887242998927832" lon="11.039261016994715">
        <ele>1817.51</ele>
        <time>2018-09-17T10:12:07Z</time>
      </trkpt>
      <trkpt lat="46.887108972296119" lon="11.039197985082865">
        <ele>1818.47</ele>
        <time>2018-09-17T10:12:08Z</time>
      </trkpt>
      <trkpt lat="46.886990033090115" lon="11.039092037826777">
        <ele>1819.9100000000001</ele>
        <time>2018-09-17T10:12:09Z</time>
      </trkpt>
      <trkpt lat="46.886881990358233" lon="11.038940995931625">
        <ele>1820.8699999999999</ele>
        <time>2018-09-17T10:12:10Z</time>
      </trkpt>
      <trkpt lat="46.886790040880442" lon="11.038798000663519">
        <ele>1821.8399999999999</ele>
        <time>2018-09-17T10:12:11Z</time>
      </trkpt>
      <trkpt lat="46.886704964563251" lon="11.038643019273877">
        <ele>1823.28</ele>
        <time>2018-09-17T10:12:12Z</time>
      </trkpt>
      <trkpt lat="46.886640004813671" lon="11.038483008742332">
        <ele>1824.24</ele>
        <time>2018-09-17T10:12:13Z</time>
      </trkpt>
      <trkpt lat="46.886578984558582" lon="11.038332972675562">
        <ele>1825.2</ele>
        <time>2018-09-17T10:12:14Z</time>
      </trkpt>
      <trkpt lat="46.886519975960255" lon="11.038188971579075">
        <ele>1826.1600000000001</ele>
        <time>2018-09-17T10:12:15Z</time>
      </trkpt>
      <trkpt lat="46.886432971805334" lon="11.038087969645858">
        <ele>1827.1199999999999</ele>
        <time>2018-09-17T10:12:16Z</time>
      </trkpt>
      <trkpt lat="46.886338004842401" lon="11.038027033209801">
        <ele>1828.0799999999999</ele>
        <time>2018-09-17T10:12:17Z</time>
      </trkpt>
      <trkpt lat="46.886249994859099" lon="11.037977999076247">
        <ele>1829.05</ele>
        <time>2018-09-17T10:12:18Z</time>
      </trkpt>
      <trkpt lat="46.886159973219037" lon="11.037990991026163">
        <ele>1830.01</ele>
        <time>2018-09-17T10:12:19Z</time>
      </trkpt>
      <trkpt lat="46.886072969064116" lon="11.038015969097614">
        <ele>1831.45</ele>
        <time>2018-09-17T10:12:20Z</time>
      </trkpt>
      <trkpt lat="46.885989988222718" lon="11.038057040423155">
        <ele>1832.4100000000001</ele>
        <time>2018-09-17T10:12:21Z</time>
      </trkpt>
      <trkpt lat="46.885900972411036" lon="11.038143960759044">
        <ele>1833.3699999999999</ele>
        <time>2018-09-17T10:12:22Z</time>
      </trkpt>
      <trkpt lat="46.885831989347935" lon="11.038258960470557">
        <ele>1834.3299999999999</ele>
        <time>2018-09-17T10:12:23Z</time>
      </trkpt>
      <trkpt lat="46.885773986577988" lon="11.038400027900934">
        <ele>1835.29</ele>
        <time>2018-09-17T10:12:24Z</time>
      </trkpt>
      <trkpt lat="46.885720007121563" lon="11.03856397792697">
        <ele>1836.26</ele>
        <time>2018-09-17T10:12:25Z</time>
      </trkpt>
      <trkpt lat="46.885663010179996" lon="11.038733962923288">
        <ele>1836.74</ele>
        <time>2018-09-17T10:12:26Z</time>
      </trkpt>
      <trkpt lat="46.885630991309881" lon="11.038924986496568">
        <ele>1837.7</ele>
        <time>2018-09-17T10:12:27Z</time>
      </trkpt>
      <trkpt lat="46.885621016845107" lon="11.039120033383369">
        <ele>1839.1400000000001</ele>
        <time>2018-09-17T10:12:28Z</time>
      </trkpt>
      <trkpt lat="46.885633002966642" lon="11.039322037249804">
        <ele>1841.0599999999999</ele>
        <time>2018-09-17T10:12:29Z</time>
      </trkpt>
      <trkpt lat="46.885674996301532" lon="11.039503002539277">
        <ele>1842.5</ele>
        <time>2018-09-17T10:12:30Z</time>
      </trkpt>
      <trkpt lat="46.88575797714293" lon="11.039666030555964">
        <ele>1843.95</ele>
        <time>2018-09-17T10:12:31Z</time>
      </trkpt>
      <trkpt lat="46.88586400821805" lon="11.039798967540264">
        <ele>1845.3900000000001</ele>
        <time>2018-09-17T10:12:32Z</time>
      </trkpt>
      <trkpt lat="46.885987976565957" lon="11.039889995008707">
        <ele>1846.8299999999999</ele>
        <time>2018-09-17T10:12:33Z</time>
      </trkpt>
      <trkpt lat="46.886114962399006" lon="11.039983034133911">
        <ele>1848.27</ele>
        <time>2018-09-17T10:12:34Z</time>
      </trkpt>
      <trkpt lat="46.886237002909184" lon="11.040014969184995">
        <ele>1849.71</ele>
        <time>2018-09-17T10:12:35Z</time>
      </trkpt>
      <trkpt lat="46.886416040360928" lon="11.040014969184995">
        <ele>1851.1600000000001</ele>
        <time>2018-09-17T10:12:36Z</time>
      </trkpt>
      <trkpt lat="46.886585019528866" lon="11.040014969184995">
        <ele>1852.5999999999999</ele>
        <time>2018-09-17T10:12:37Z</time>
      </trkpt>
      <trkpt lat="46.886761039495468" lon="11.040028966963291">
        <ele>1854.04</ele>
        <time>2018-09-17T10:12:38Z</time>
      </trkpt>
      <trkpt lat="46.886929012835026" lon="11.040053023025393">
        <ele>1855.48</ele>
        <time>2018-09-17T10:12:39Z</time>
      </trkpt>
      <trkpt lat="46.88708902336657" lon="11.040133992210031">
        <ele>1856.9200000000001</ele>
        <time>2018-09-17T10:12:40Z</time>
      </trkpt>
      <trkpt lat="46.887245010584593" lon="11.040229965001345">
        <ele>1858.3699999999999</ele>
        <time>2018-09-17T10:12:41Z</time>
      </trkpt>
      <trkpt lat="46.887400997802615" lon="11.040326021611691">
        <ele>1859.8099999999999</ele>
        <time>2018-09-17T10:12:42Z</time>
      </trkpt>
      <trkpt lat="46.887730993330479" lon="11.040530037134886">
        <ele>1864.1300000000001</ele>
        <time>2018-09-17T10:12:44Z</time>
      </trkpt>
      <trkpt lat="46.887902989983559" lon="11.040635984390974">
        <ele>1866.0599999999999</ele>
        <time>2018-09-17T10:12:45Z</time>
      </trkpt>
      <trkpt lat="46.888079009950161" lon="11.040719971060753">
        <ele>1867.98</ele>
        <time>2018-09-17T10:12:46Z</time>
      </trkpt>
      <trkpt lat="46.888456027954817" lon="11.04086497798562">
        <ele>1871.8199999999999</ele>
        <time>2018-09-17T10:12:48Z</time>
      </trkpt>
      <trkpt lat="46.888649985194206" lon="11.040938990190625">
        <ele>1873.75</ele>
        <time>2018-09-17T10:12:49Z</time>
      </trkpt>
      <trkpt lat="46.890104999765754" lon="11.04154902510345">
        <ele>1889.6099999999999</ele>
        <time>2018-09-17T10:12:57Z</time>
      </trkpt>
      <trkpt lat="46.891496982425451" lon="11.042332984507084">
        <ele>1906.9100000000001</ele>
        <time>2018-09-17T10:13:05Z</time>
      </trkpt>
      <trkpt lat="46.892899023368955" lon="11.043121973052621">
        <ele>1920.3699999999999</ele>
        <time>2018-09-17T10:13:13Z</time>
      </trkpt>
      <trkpt lat="46.893247961997986" lon="11.04333596304059">
        <ele>1926.1400000000001</ele>
        <time>2018-09-17T10:13:17Z</time>
      </trkpt>
      <trkpt lat="46.893287021666765" lon="11.043374016880989">
        <ele>1927.0999999999999</ele>
        <time>2018-09-17T10:13:18Z</time>
      </trkpt>
      <trkpt lat="46.89332096837461" lon="11.043408969417214">
        <ele>1928.54</ele>
        <time>2018-09-17T10:13:19Z</time>
      </trkpt>
      <trkpt lat="46.89336103387177" lon="11.043449034914374">
        <ele>1929.5</ele>
        <time>2018-09-17T10:13:20Z</time>
      </trkpt>
      <trkpt lat="46.89336103387177" lon="11.04350502602756">
        <ele>1930.46</ele>
        <time>2018-09-17T10:13:21Z</time>
      </trkpt>
      <trkpt lat="46.893267994746566" lon="11.043574009090662">
        <ele>1930.95</ele>
        <time>2018-09-17T10:13:22Z</time>
      </trkpt>
      <trkpt lat="46.893194988369942" lon="11.043551964685321">
        <ele>1930.95</ele>
        <time>2018-09-17T10:13:23Z</time>
      </trkpt>
      <trkpt lat="46.893121981993318" lon="11.043520029634237">
        <ele>1931.9100000000001</ele>
        <time>2018-09-17T10:13:24Z</time>
      </trkpt>
      <trkpt lat="46.893039001151919" lon="11.0434839874506">
        <ele>1932.3900000000001</ele>
        <time>2018-09-17T10:13:25Z</time>
      </trkpt>
      <trkpt lat="46.892950991168618" lon="11.043446017429233">
        <ele>1933.3499999999999</ele>
        <time>2018-09-17T10:13:26Z</time>
      </trkpt>
      <trkpt lat="46.892853006720543" lon="11.043403018265963">
        <ele>1934.3099999999999</ele>
        <time>2018-09-17T10:13:27Z</time>
      </trkpt>
      <trkpt lat="46.891904007643461" lon="11.043281983584166">
        <ele>1942.48</ele>
        <time>2018-09-17T10:13:34Z</time>
      </trkpt>
      <trkpt lat="46.891234964132309" lon="11.043199002742767">
        <ele>1948.73</ele>
        <time>2018-09-17T10:13:38Z</time>
      </trkpt>
      <trkpt lat="46.890385961160064" lon="11.043174024671316">
        <ele>1959.78</ele>
        <time>2018-09-17T10:13:44Z</time>
      </trkpt>
      <trkpt lat="46.890336005017161" lon="11.043170001357794">
        <ele>1961.23</ele>
        <time>2018-09-17T10:13:45Z</time>
      </trkpt>
      <trkpt lat="46.890273978933692" lon="11.04324602521956">
        <ele>1962.6700000000001</ele>
        <time>2018-09-17T10:13:46Z</time>
      </trkpt>
      <trkpt lat="46.890250006690621" lon="11.043277038261294">
        <ele>1963.6300000000001</ele>
        <time>2018-09-17T10:13:47Z</time>
      </trkpt>
      <trkpt lat="46.890258975327015" lon="11.043305033817887">
        <ele>1964.5899999999999</ele>
        <time>2018-09-17T10:13:48Z</time>
      </trkpt>
      <trkpt lat="46.89029099419713" lon="11.043352978304029">
        <ele>1965.55</ele>
        <time>2018-09-17T10:13:49Z</time>
      </trkpt>
      <trkpt lat="46.890379004180431" lon="11.043406035751104">
        <ele>1966.03</ele>
        <time>2018-09-17T10:13:50Z</time>
      </trkpt>
      <trkpt lat="46.890459973365068" lon="11.043422967195511">
        <ele>1966.99</ele>
        <time>2018-09-17T10:13:51Z</time>
      </trkpt>
      <trkpt lat="46.890577990561724" lon="11.043449034914374">
        <ele>1968.4400000000001</ele>
        <time>2018-09-17T10:13:52Z</time>
      </trkpt>
      <trkpt lat="46.890704976394773" lon="11.043476024642587">
        <ele>1969.4000000000001</ele>
        <time>2018-09-17T10:13:53Z</time>
      </trkpt>
      <trkpt lat="46.890837997198105" lon="11.04350502602756">
        <ele>1970.3599999999999</ele>
        <time>2018-09-17T10:13:54Z</time>
      </trkpt>
      <trkpt lat="46.891934014856815" lon="11.044246992096305">
        <ele>1982.8599999999999</ele>
        <time>2018-09-17T10:14:01Z</time>
      </trkpt>
      <trkpt lat="46.893173027783632" lon="11.044872030615807">
        <ele>2001.1199999999999</ele>
        <time>2018-09-17T10:14:08Z</time>
      </trkpt>
      <trkpt lat="46.893457006663084" lon="11.04513798840344">
        <ele>2006.4100000000001</ele>
        <time>2018-09-17T10:14:10Z</time>
      </trkpt>
      <trkpt lat="46.893572006374598" lon="11.045279977843165">
        <ele>2008.8099999999999</ele>
        <time>2018-09-17T10:14:11Z</time>
      </trkpt>
      <trkpt lat="46.894254963845015" lon="11.046113977208734">
        <ele>2021.79</ele>
        <time>2018-09-17T10:14:17Z</time>
      </trkpt>
      <trkpt lat="46.89439301379025" lon="11.046181032434106">
        <ele>2024.1900000000001</ele>
        <time>2018-09-17T10:14:18Z</time>
      </trkpt>
      <trkpt lat="46.894527962431312" lon="11.046244986355305">
        <ele>2026.1199999999999</ele>
        <time>2018-09-17T10:14:19Z</time>
      </trkpt>
      <trkpt lat="46.894656959921122" lon="11.046307012438774">
        <ele>2028.04</ele>
        <time>2018-09-17T10:14:20Z</time>
      </trkpt>
      <trkpt lat="46.894771037623286" lon="11.046382030472159">
        <ele>2029.96</ele>
        <time>2018-09-17T10:14:21Z</time>
      </trkpt>
      <trkpt lat="46.894868016242981" lon="11.046453025192022">
        <ele>2031.4000000000001</ele>
        <time>2018-09-17T10:14:22Z</time>
      </trkpt>
      <trkpt lat="46.895162975415587" lon="11.046709008514881">
        <ele>2036.6900000000001</ele>
        <time>2018-09-17T10:14:26Z</time>
      </trkpt>
      <trkpt lat="46.895206980407238" lon="11.046754019334912">
        <ele>2038.1300000000001</ele>
        <time>2018-09-17T10:14:27Z</time>
      </trkpt>
      <trkpt lat="46.895228018984199" lon="11.046801963821054">
        <ele>2039.0899999999999</ele>
        <time>2018-09-17T10:14:28Z</time>
      </trkpt>
      <trkpt lat="46.895228018984199" lon="11.046854015439749">
        <ele>2040.05</ele>
        <time>2018-09-17T10:14:29Z</time>
      </trkpt>
      <trkpt lat="46.895193988457322" lon="11.046887040138245">
        <ele>2041.02</ele>
        <time>2018-09-17T10:14:30Z</time>
      </trkpt>
      <trkpt lat="46.895119976252317" lon="11.046900032088161">
        <ele>2041.02</ele>
        <time>2018-09-17T10:14:31Z</time>
      </trkpt>
      <trkpt lat="46.895025009289384" lon="11.046839011833072">
        <ele>2041.98</ele>
        <time>2018-09-17T10:14:32Z</time>
      </trkpt>
      <trkpt lat="46.894948985427618" lon="11.046774974092841">
        <ele>2042.46</ele>
        <time>2018-09-17T10:14:33Z</time>
      </trkpt>
      <trkpt lat="46.894838009029627" lon="11.046738009899855">
        <ele>2043.4200000000001</ele>
        <time>2018-09-17T10:14:34Z</time>
      </trkpt>
      <trkpt lat="46.894709011539817" lon="11.046694004908204">
        <ele>2043.9000000000001</ele>
        <time>2018-09-17T10:14:35Z</time>
      </trkpt>
      <trkpt lat="46.894581019878387" lon="11.046714037656784">
        <ele>2044.3800000000001</ele>
        <time>2018-09-17T10:14:36Z</time>
      </trkpt>
      <trkpt lat="46.894435007125139" lon="11.046747984364629">
        <ele>2044.8599999999999</ele>
        <time>2018-09-17T10:14:37Z</time>
      </trkpt>
      <trkpt lat="46.894280025735497" lon="11.046783020719886">
        <ele>2046.3</ele>
        <time>2018-09-17T10:14:38Z</time>
      </trkpt>
      <trkpt lat="46.894104005768895" lon="11.046812022104859">
        <ele>2047.75</ele>
        <time>2018-09-17T10:14:39Z</time>
      </trkpt>
      <trkpt lat="46.893950030207634" lon="11.046784026548266">
        <ele>2049.1900000000001</ele>
        <time>2018-09-17T10:14:40Z</time>
      </trkpt>
      <trkpt lat="46.893812986090779" lon="11.046717977151275">
        <ele>2050.1500000000001</ele>
        <time>2018-09-17T10:14:41Z</time>
      </trkpt>
      <trkpt lat="46.89370796084404" lon="11.046647988259792">
        <ele>2051.5900000000001</ele>
        <time>2018-09-17T10:14:42Z</time>
      </trkpt>
      <trkpt lat="46.893618023023009" lon="11.046587973833084">
        <ele>2053.0300000000002</ele>
        <time>2018-09-17T10:14:43Z</time>
      </trkpt>
      <trkpt lat="46.89357602968812" lon="11.046559978276491">
        <ele>2053.9899999999998</ele>
        <time>2018-09-17T10:14:44Z</time>
      </trkpt>
      <trkpt lat="46.893504029139876" lon="11.04657799936831">
        <ele>2054.4699999999998</ele>
        <time>2018-09-17T10:14:45Z</time>
      </trkpt>
      <trkpt lat="46.89349003136158" lon="11.046581016853452">
        <ele>2055.4400000000001</ele>
        <time>2018-09-17T10:14:46Z</time>
      </trkpt>
      <trkpt lat="46.89349003136158" lon="11.046581016853452">
        <ele>2055.9200000000001</ele>
        <time>2018-09-17T10:14:47Z</time>
      </trkpt>
      <trkpt lat="46.893478967249393" lon="11.046644970774651">
        <ele>2056.4000000000001</ele>
        <time>2018-09-17T10:14:48Z</time>
      </trkpt>
      <trkpt lat="46.893471004441381" lon="11.046713031828403">
        <ele>2057.3600000000001</ele>
        <time>2018-09-17T10:14:49Z</time>
      </trkpt>
      <trkpt lat="46.893548034131527" lon="11.046820990741253">
        <ele>2057.3600000000001</ele>
        <time>2018-09-17T10:14:50Z</time>
      </trkpt>
      <trkpt lat="46.893645012751222" lon="11.046919981017709">
        <ele>2058.3200000000002</ele>
        <time>2018-09-17T10:14:51Z</time>
      </trkpt>
      <trkpt lat="46.894512958824635" lon="11.047549964860082">
        <ele>2066.4899999999998</ele>
        <time>2018-09-17T10:14:57Z</time>
      </trkpt>
      <trkpt lat="46.894983015954494" lon="11.047748029232025">
        <ele>2073.6999999999998</ele>
        <time>2018-09-17T10:15:00Z</time>
      </trkpt>
      <trkpt lat="46.895128022879362" lon="11.047740988433361">
        <ele>2075.6199999999999</ele>
        <time>2018-09-17T10:15:01Z</time>
      </trkpt>
      <trkpt lat="46.895565977320075" lon="11.047692038118839">
        <ele>2081.8699999999999</ele>
        <time>2018-09-17T10:15:04Z</time>
      </trkpt>
      <trkpt lat="46.895678965374827" lon="11.04773998260498">
        <ele>2084.2800000000002</ele>
        <time>2018-09-17T10:15:05Z</time>
      </trkpt>
      <trkpt lat="46.895831013098359" lon="11.047842996194959">
        <ele>2085.7199999999998</ele>
        <time>2018-09-17T10:15:06Z</time>
      </trkpt>
      <trkpt lat="46.895954981446266" lon="11.047926982864738">
        <ele>2087.1599999999999</ele>
        <time>2018-09-17T10:15:07Z</time>
      </trkpt>
      <trkpt lat="46.89606998115778" lon="11.048005018383265">
        <ele>2088.5999999999999</ele>
        <time>2018-09-17T10:15:08Z</time>
      </trkpt>
      <trkpt lat="46.896182969212532" lon="11.048081964254379">
        <ele>2090.04</ele>
        <time>2018-09-17T10:15:09Z</time>
      </trkpt>
      <trkpt lat="46.896291011944413" lon="11.048154970631003">
        <ele>2091</ele>
        <time>2018-09-17T10:15:10Z</time>
      </trkpt>
      <trkpt lat="46.896395031362772" lon="11.048191012814641">
        <ele>2091.9699999999998</ele>
        <time>2018-09-17T10:15:11Z</time>
      </trkpt>
      <trkpt lat="46.896503996104002" lon="11.048191012814641">
        <ele>2092.9299999999998</ele>
        <time>2018-09-17T10:15:12Z</time>
      </trkpt>
      <trkpt lat="46.896614972501993" lon="11.048181960359216">
        <ele>2093.8899999999999</ele>
        <time>2018-09-17T10:15:13Z</time>
      </trkpt>
      <trkpt lat="46.896730978041887" lon="11.048153964802623">
        <ele>2094.3699999999999</ele>
        <time>2018-09-17T10:15:14Z</time>
      </trkpt>
      <trkpt lat="46.897339001297951" lon="11.04808297008276">
        <ele>2099.1799999999998</ele>
        <time>2018-09-17T10:15:19Z</time>
      </trkpt>
      <trkpt lat="46.897440003231168" lon="11.048114988952875">
        <ele>2100.1399999999999</ele>
        <time>2018-09-17T10:15:20Z</time>
      </trkpt>
      <trkpt lat="46.897561037912965" lon="11.04816603474319">
        <ele>2101.5799999999999</ele>
        <time>2018-09-17T10:15:21Z</time>
      </trkpt>
      <trkpt lat="46.89765902236104" lon="11.048280028626323">
        <ele>2102.54</ele>
        <time>2018-09-17T10:15:22Z</time>
      </trkpt>
      <trkpt lat="46.897762035951018" lon="11.048400979489088">
        <ele>2103.5</ele>
        <time>2018-09-17T10:15:23Z</time>
      </trkpt>
      <trkpt lat="46.897867983207107" lon="11.048524025827646">
        <ele>2104.46</ele>
        <time>2018-09-17T10:15:24Z</time>
      </trkpt>
      <trkpt lat="46.897970996797085" lon="11.04866199195385">
        <ele>2104.9400000000001</ele>
        <time>2018-09-17T10:15:25Z</time>
      </trkpt>
      <trkpt lat="46.898055989295244" lon="11.048800041899085">
        <ele>2105.4200000000001</ele>
        <time>2018-09-17T10:15:26Z</time>
      </trkpt>
      <trkpt lat="46.89884296618402" lon="11.049837972968817">
        <ele>2107.8299999999999</ele>
        <time>2018-09-17T10:15:35Z</time>
      </trkpt>
      <trkpt lat="46.89894899725914" lon="11.049922965466976">
        <ele>2108.3099999999999</ele>
        <time>2018-09-17T10:15:36Z</time>
      </trkpt>
      <trkpt lat="46.899060979485512" lon="11.049975017085671">
        <ele>2108.79</ele>
        <time>2018-09-17T10:15:37Z</time>
      </trkpt>
      <trkpt lat="46.899684006348252" lon="11.050099991261959">
        <ele>2111.6700000000001</ele>
        <time>2018-09-17T10:15:42Z</time>
      </trkpt>
      <trkpt lat="46.899805963039398" lon="11.050062021240592">
        <ele>2112.1500000000001</ele>
        <time>2018-09-17T10:15:43Z</time>
      </trkpt>
      <trkpt lat="46.900198990479112" lon="11.049916008487344">
        <ele>2113.5999999999999</ele>
        <time>2018-09-17T10:15:46Z</time>
      </trkpt>
      <trkpt lat="46.901488965377212" lon="11.049147974699736">
        <ele>2117.9200000000001</ele>
        <time>2018-09-17T10:15:55Z</time>
      </trkpt>
      <trkpt lat="46.901630032807589" lon="11.049116961658001">
        <ele>2118.4000000000001</ele>
        <time>2018-09-17T10:15:56Z</time>
      </trkpt>
      <trkpt lat="46.901759030297399" lon="11.049139006063342">
        <ele>2118.8800000000001</ele>
        <time>2018-09-17T10:15:57Z</time>
      </trkpt>
      <trkpt lat="46.901891967281699" lon="11.049168007448316">
        <ele>2119.8400000000001</ele>
        <time>2018-09-17T10:15:58Z</time>
      </trkpt>
      <trkpt lat="46.902026999741793" lon="11.04919801466167">
        <ele>2120.3200000000002</ele>
        <time>2018-09-17T10:15:59Z</time>
      </trkpt>
      <trkpt lat="46.90214803442359" lon="11.049273032695055">
        <ele>2121.29</ele>
        <time>2018-09-17T10:16:00Z</time>
      </trkpt>
      <trkpt lat="46.9022770319134" lon="11.049354001879692">
        <ele>2121.77</ele>
        <time>2018-09-17T10:16:01Z</time>
      </trkpt>
      <trkpt lat="46.902396976947784" lon="11.049449974671006">
        <ele>2122.25</ele>
        <time>2018-09-17T10:16:02Z</time>
      </trkpt>
      <trkpt lat="46.902500996366143" lon="11.049609985202551">
        <ele>2122.73</ele>
        <time>2018-09-17T10:16:03Z</time>
      </trkpt>
      <trkpt lat="46.902608033269644" lon="11.049775024875998">
        <ele>2123.6900000000001</ele>
        <time>2018-09-17T10:16:04Z</time>
      </trkpt>
      <trkpt lat="46.902695037424564" lon="11.049966970458627">
        <ele>2124.1700000000001</ele>
        <time>2018-09-17T10:16:05Z</time>
      </trkpt>
      <trkpt lat="46.902769971638918" lon="11.05018699541688">
        <ele>2125.1300000000001</ele>
        <time>2018-09-17T10:16:06Z</time>
      </trkpt>
      <trkpt lat="46.902849012985826" lon="11.050416994839907">
        <ele>2125.6100000000001</ele>
        <time>2018-09-17T10:16:07Z</time>
      </trkpt>
      <trkpt lat="46.903390986844897" lon="11.051998995244503">
        <ele>2133.3000000000002</ele>
        <time>2018-09-17T10:16:14Z</time>
      </trkpt>
      <trkpt lat="46.903462987393141" lon="11.052179960533977">
        <ele>2134.2600000000002</ele>
        <time>2018-09-17T10:16:15Z</time>
      </trkpt>
      <trkpt lat="46.903581004589796" lon="11.052313987165689">
        <ele>2135.23</ele>
        <time>2018-09-17T10:16:16Z</time>
      </trkpt>
      <trkpt lat="46.903717964887619" lon="11.052379030734301">
        <ele>2136.1900000000001</ele>
        <time>2018-09-17T10:16:17Z</time>
      </trkpt>
      <trkpt lat="46.903863977640867" lon="11.052436027675867">
        <ele>2137.1500000000001</ele>
        <time>2018-09-17T10:16:18Z</time>
      </trkpt>
      <trkpt lat="46.904001021757722" lon="11.052475003525615">
        <ele>2138.5900000000001</ele>
        <time>2018-09-17T10:16:19Z</time>
      </trkpt>
      <trkpt lat="46.904142005369067" lon="11.052420018240809">
        <ele>2139.5500000000002</ele>
        <time>2018-09-17T10:16:20Z</time>
      </trkpt>
      <trkpt lat="46.904285000637174" lon="11.052364027127624">
        <ele>2140.9899999999998</ele>
        <time>2018-09-17T10:16:21Z</time>
      </trkpt>
      <trkpt lat="46.904412992298603" lon="11.052278028801084">
        <ele>2142.4400000000001</ele>
        <time>2018-09-17T10:16:22Z</time>
      </trkpt>
      <trkpt lat="46.904532015323639" lon="11.052132016047835">
        <ele>2143.4000000000001</ele>
        <time>2018-09-17T10:16:23Z</time>
      </trkpt>
      <trkpt lat="46.904651038348675" lon="11.051986003294587">
        <ele>2144.3600000000001</ele>
        <time>2018-09-17T10:16:24Z</time>
      </trkpt>
      <trkpt lat="46.904905010014772" lon="11.051722979173064">
        <ele>2146.2800000000002</ele>
        <time>2018-09-17T10:16:26Z</time>
      </trkpt>
      <trkpt lat="46.905042976140976" lon="11.051657013595104">
        <ele>2147.2399999999998</ele>
        <time>2018-09-17T10:16:27Z</time>
      </trkpt>
      <trkpt lat="46.905180020257831" lon="11.051591970026493">
        <ele>2148.1999999999998</ele>
        <time>2018-09-17T10:16:28Z</time>
      </trkpt>
      <trkpt lat="46.905327038839459" lon="11.051569003611803">
        <ele>2148.6799999999998</ele>
        <time>2018-09-17T10:16:29Z</time>
      </trkpt>
      <trkpt lat="46.90548000857234" lon="11.051588030532002">
        <ele>2149.6500000000001</ele>
        <time>2018-09-17T10:16:30Z</time>
      </trkpt>
      <trkpt lat="46.905643036589026" lon="11.051608985289931">
        <ele>2150.6100000000001</ele>
        <time>2018-09-17T10:16:31Z</time>
      </trkpt>
      <trkpt lat="46.907124035060406" lon="11.051969993859529">
        <ele>2155.8899999999999</ele>
        <time>2018-09-17T10:16:39Z</time>
      </trkpt>
      <trkpt lat="46.908195996657014" lon="11.052396968007088">
        <ele>2162.6199999999999</ele>
        <time>2018-09-17T10:16:46Z</time>
      </trkpt>
      <trkpt lat="46.908718021586537" lon="11.052631996572018">
        <ele>2166.4699999999998</ele>
        <time>2018-09-17T10:16:53Z</time>
      </trkpt>
      <trkpt lat="46.908813994377851" lon="11.052677007392049">
        <ele>2166.9499999999998</ele>
        <time>2018-09-17T10:16:55Z</time>
      </trkpt>
      <trkpt lat="46.908860011026263" lon="11.052699973806739">
        <ele>2167.9099999999999</ele>
        <time>2018-09-17T10:16:56Z</time>
      </trkpt>
      <trkpt lat="46.908904016017914" lon="11.05272201821208">
        <ele>2168.3899999999999</ele>
        <time>2018-09-17T10:16:57Z</time>
      </trkpt>
      <trkpt lat="46.908950032666326" lon="11.05274498462677">
        <ele>2168.8699999999999</ele>
        <time>2018-09-17T10:16:58Z</time>
      </trkpt>
      <trkpt lat="46.908992026001215" lon="11.052766023203731">
        <ele>2169.3499999999999</ele>
        <time>2018-09-17T10:16:59Z</time>
      </trkpt>
      <trkpt lat="46.909027984365821" lon="11.052783960476518">
        <ele>2169.8299999999999</ele>
        <time>2018-09-17T10:17:00Z</time>
      </trkpt>
      <trkpt lat="46.909251026809216" lon="11.052892003208399">
        <ele>2173.1999999999998</ele>
        <time>2018-09-17T10:17:09Z</time>
      </trkpt>
      <trkpt lat="46.909263012930751" lon="11.052898038178682">
        <ele>2173.6799999999998</ele>
        <time>2018-09-17T10:17:11Z</time>
      </trkpt>
      <trkpt lat="46.909531988203526" lon="11.053004991263151">
        <ele>2176.0799999999999</ele>
        <time>2018-09-17T10:17:19Z</time>
      </trkpt>
      <trkpt lat="46.909578004851937" lon="11.053012032061815">
        <ele>2176.0799999999999</ele>
        <time>2018-09-17T10:17:29Z</time>
      </trkpt>
      <trkpt lat="46.909578004851937" lon="11.053012032061815">
        <ele>2171.27</ele>
        <time>2018-09-17T10:17:52Z</time>
      </trkpt>
      <trkpt lat="46.910103969275951" lon="11.053033992648125">
        <ele>2159.2600000000002</ele>
        <time>2018-09-17T10:18:06Z</time>
      </trkpt>
      <trkpt lat="46.910146968439221" lon="11.053032986819744">
        <ele>2157.8200000000002</ele>
        <time>2018-09-17T10:18:07Z</time>
      </trkpt>
      <trkpt lat="46.910262973979115" lon="11.053030975162983">
        <ele>2148.6799999999998</ele>
        <time>2018-09-17T10:18:17Z</time>
      </trkpt>
      <trkpt lat="46.910262973979115" lon="11.053030975162983">
        <ele>2147.2399999999998</ele>
        <time>2018-09-17T10:18:45Z</time>
      </trkpt>
      <trkpt lat="46.90988402813673" lon="11.053038015961647">
        <ele>2139.0700000000002</ele>
        <time>2018-09-17T10:18:48Z</time>
      </trkpt>
      <trkpt lat="46.909837005659938" lon="11.053039021790028">
        <ele>2137.1500000000001</ele>
        <time>2018-09-17T10:18:49Z</time>
      </trkpt>
      <trkpt lat="46.91012199036777" lon="11.053032986819744">
        <ele>2131.3800000000001</ele>
        <time>2018-09-17T10:19:02Z</time>
      </trkpt>
      <trkpt lat="46.91012199036777" lon="11.053032986819744">
        <ele>2130.4200000000001</ele>
        <time>2018-09-17T10:19:15Z</time>
      </trkpt>
      <trkpt lat="46.91012199036777" lon="11.053032986819744">
        <ele>2129.46</ele>
        <time>2018-09-17T10:19:54Z</time>
      </trkpt>
      <trkpt lat="46.91012199036777" lon="11.053032986819744">
        <ele>2130.9000000000001</ele>
        <time>2018-09-17T10:20:40Z</time>
      </trkpt>
      <trkpt lat="46.91012199036777" lon="11.053032986819744">
        <ele>2130.9000000000001</ele>
        <time>2018-09-17T10:21:32Z</time>
      </trkpt>
      <trkpt lat="46.91012199036777" lon="11.053032986819744">
        <ele>2132.3400000000001</ele>
        <time>2018-09-17T10:21:38Z</time>
      </trkpt>
      <trkpt lat="46.910222992300987" lon="11.053031980991364">
        <ele>2133.7800000000002</ele>
        <time>2018-09-17T10:21:39Z</time>
      </trkpt>
      <trkpt lat="46.910260962322354" lon="11.053030975162983">
        <ele>2135.23</ele>
        <time>2018-09-17T10:21:40Z</time>
      </trkpt>
      <trkpt lat="46.910299016162753" lon="11.053029969334602">
        <ele>2136.6700000000001</ele>
        <time>2018-09-17T10:21:41Z</time>
      </trkpt>
      <trkpt lat="46.910340003669262" lon="11.053028963506222">
        <ele>2137.6300000000001</ele>
        <time>2018-09-17T10:21:42Z</time>
      </trkpt>
      <trkpt lat="46.910418039187789" lon="11.053028041496873">
        <ele>2140.5100000000002</ele>
        <time>2018-09-17T10:21:44Z</time>
      </trkpt>
      <trkpt lat="46.910472018644214" lon="11.053027035668492">
        <ele>2140.5100000000002</ele>
        <time>2018-09-17T10:21:45Z</time>
      </trkpt>
      <trkpt lat="46.910539995878935" lon="11.053025024011731">
        <ele>2141.9499999999998</ele>
        <time>2018-09-17T10:21:46Z</time>
      </trkpt>
      <trkpt lat="46.911349017173052" lon="11.052949000149965">
        <ele>2144.3600000000001</ele>
        <time>2018-09-17T10:21:55Z</time>
      </trkpt>
      <trkpt lat="46.912477975711226" lon="11.053089983761311">
        <ele>2142.4400000000001</ele>
        <time>2018-09-17T10:22:03Z</time>
      </trkpt>
      <trkpt lat="46.913154982030392" lon="11.053411010652781">
        <ele>2140.0300000000002</ele>
        <time>2018-09-17T10:22:08Z</time>
      </trkpt>
      <trkpt lat="46.913270987570286" lon="11.053433977067471">
        <ele>2139.5500000000002</ele>
        <time>2018-09-17T10:22:09Z</time>
      </trkpt>
      <trkpt lat="46.913369977846742" lon="11.053433977067471">
        <ele>2138.5900000000001</ele>
        <time>2018-09-17T10:22:10Z</time>
      </trkpt>
      <trkpt lat="46.913482965901494" lon="11.053382009267807">
        <ele>2137.6300000000001</ele>
        <time>2018-09-17T10:22:11Z</time>
      </trkpt>
      <trkpt lat="46.913574999198318" lon="11.053339010104537">
        <ele>2136.6700000000001</ele>
        <time>2018-09-17T10:22:12Z</time>
      </trkpt>
      <trkpt lat="46.913654962554574" lon="11.053241025656462">
        <ele>2135.23</ele>
        <time>2018-09-17T10:22:13Z</time>
      </trkpt>
      <trkpt lat="46.913729980587959" lon="11.053148992359638">
        <ele>2134.2600000000002</ele>
        <time>2018-09-17T10:22:14Z</time>
      </trkpt>
      <trkpt lat="46.913802986964583" lon="11.053059976547956">
        <ele>2133.3000000000002</ele>
        <time>2018-09-17T10:22:15Z</time>
      </trkpt>
      <trkpt lat="46.913879010826349" lon="11.052966015413404">
        <ele>2132.3400000000001</ele>
        <time>2018-09-17T10:22:16Z</time>
      </trkpt>
      <trkpt lat="46.913956962525845" lon="11.052870964631438">
        <ele>2131.3800000000001</ele>
        <time>2018-09-17T10:22:17Z</time>
      </trkpt>
      <trkpt lat="46.914071962237358" lon="11.052761999890208">
        <ele>2129.9400000000001</ele>
        <time>2018-09-17T10:22:18Z</time>
      </trkpt>
      <trkpt lat="46.914189979434013" lon="11.052768034860492">
        <ele>2128.5</ele>
        <time>2018-09-17T10:22:19Z</time>
      </trkpt>
      <trkpt lat="46.914317971095443" lon="11.052773986011744">
        <ele>2127.5300000000002</ele>
        <time>2018-09-17T10:22:20Z</time>
      </trkpt>
      <trkpt lat="46.914457026869059" lon="11.052781026810408">
        <ele>2126.0900000000001</ele>
        <time>2018-09-17T10:22:21Z</time>
      </trkpt>
      <trkpt lat="46.915606018155813" lon="11.052832994610071">
        <ele>2116</ele>
        <time>2018-09-17T10:22:28Z</time>
      </trkpt>
      <trkpt lat="46.917215008288622" lon="11.052888985723257">
        <ele>2098.6999999999998</ele>
        <time>2018-09-17T10:22:38Z</time>
      </trkpt>
      <trkpt lat="46.917585991322994" lon="11.052910024300218">
        <ele>2093.4099999999999</ele>
        <time>2018-09-17T10:22:42Z</time>
      </trkpt>
      <trkpt lat="46.917666960507631" lon="11.052947994321585">
        <ele>2092.4499999999998</ele>
        <time>2018-09-17T10:22:43Z</time>
      </trkpt>
      <trkpt lat="46.91774700768292" lon="11.052998034283519">
        <ele>2091.4899999999998</ele>
        <time>2018-09-17T10:22:44Z</time>
      </trkpt>
      <trkpt lat="46.917839040979743" lon="11.053032986819744">
        <ele>2090.52</ele>
        <time>2018-09-17T10:22:45Z</time>
      </trkpt>
      <trkpt lat="46.91794297657907" lon="11.053056959062815">
        <ele>2090.04</ele>
        <time>2018-09-17T10:22:46Z</time>
      </trkpt>
      <trkpt lat="46.918054958805442" lon="11.053083026781678">
        <ele>2089.0799999999999</ele>
        <time>2018-09-17T10:22:47Z</time>
      </trkpt>
      <trkpt lat="46.918171970173717" lon="11.053100964054465">
        <ele>2088.1199999999999</ele>
        <time>2018-09-17T10:22:48Z</time>
      </trkpt>
      <trkpt lat="46.918302979320288" lon="11.053082020953298">
        <ele>2087.6399999999999</ele>
        <time>2018-09-17T10:22:49Z</time>
      </trkpt>
      <trkpt lat="46.919691022485495" lon="11.052898038178682">
        <ele>2077.0700000000002</ele>
        <time>2018-09-17T10:22:57Z</time>
      </trkpt>
      <trkpt lat="46.920784022659063" lon="11.052831988781691">
        <ele>2068.8899999999999</ele>
        <time>2018-09-17T10:23:04Z</time>
      </trkpt>
      <trkpt lat="46.920890975743532" lon="11.052826037630439">
        <ele>2068.4099999999999</ele>
        <time>2018-09-17T10:23:05Z</time>
      </trkpt>
      <trkpt lat="46.920990971848369" lon="11.052880017086864">
        <ele>2067.4499999999998</ele>
        <time>2018-09-17T10:23:06Z</time>
      </trkpt>
      <trkpt lat="46.921087028458714" lon="11.052932990714908">
        <ele>2066.9699999999998</ele>
        <time>2018-09-17T10:23:07Z</time>
      </trkpt>
      <trkpt lat="46.921181995421648" lon="11.052985964342952">
        <ele>2066.4899999999998</ele>
        <time>2018-09-17T10:23:08Z</time>
      </trkpt>
      <trkpt lat="46.921274028718472" lon="11.053036004304886">
        <ele>2066.0100000000002</ele>
        <time>2018-09-17T10:23:09Z</time>
      </trkpt>
      <trkpt lat="46.921359021216631" lon="11.053115967661142">
        <ele>2065.5300000000002</ele>
        <time>2018-09-17T10:23:10Z</time>
      </trkpt>
      <trkpt lat="46.921437978744507" lon="11.053229039534926">
        <ele>2065.0500000000002</ele>
        <time>2018-09-17T10:23:11Z</time>
      </trkpt>
      <trkpt lat="46.921497993171215" lon="11.053379997611046">
        <ele>2064.5700000000002</ele>
        <time>2018-09-17T10:23:12Z</time>
      </trkpt>
      <trkpt lat="46.921537974849343" lon="11.053532967343926">
        <ele>2064.5700000000002</ele>
        <time>2018-09-17T10:23:13Z</time>
      </trkpt>
      <trkpt lat="46.921578962355852" lon="11.053691972047091">
        <ele>2064.0900000000001</ele>
        <time>2018-09-17T10:23:14Z</time>
      </trkpt>
      <trkpt lat="46.921604024246335" lon="11.053872015327215">
        <ele>2063.6100000000001</ele>
        <time>2018-09-17T10:23:15Z</time>
      </trkpt>
      <trkpt lat="46.921612992882729" lon="11.054058009758592">
        <ele>2063.1300000000001</ele>
        <time>2018-09-17T10:23:16Z</time>
      </trkpt>
      <trkpt lat="46.921621961519122" lon="11.054254984483123">
        <ele>2063.1300000000001</ele>
        <time>2018-09-17T10:23:17Z</time>
      </trkpt>
      <trkpt lat="46.921670995652676" lon="11.055840002372861">
        <ele>2057.3600000000001</ele>
        <time>2018-09-17T10:23:24Z</time>
      </trkpt>
      <trkpt lat="46.921653980389237" lon="11.056065978482366">
        <ele>2056.4000000000001</ele>
        <time>2018-09-17T10:23:25Z</time>
      </trkpt>
      <trkpt lat="46.921559013426304" lon="11.057825004681945">
        <ele>2047.75</ele>
        <time>2018-09-17T10:23:32Z</time>
      </trkpt>
      <trkpt lat="46.921385005116463" lon="11.059890976175666">
        <ele>2038.1300000000001</ele>
        <time>2018-09-17T10:23:40Z</time>
      </trkpt>
      <trkpt lat="46.920835990458727" lon="11.063232002779841">
        <ele>2028.04</ele>
        <time>2018-09-17T10:23:53Z</time>
      </trkpt>
      <trkpt lat="46.920525021851063" lon="11.065118014812469">
        <ele>2032.3599999999999</ele>
        <time>2018-09-17T10:24:02Z</time>
      </trkpt>
      <trkpt lat="46.920215981081128" lon="11.067000003531575">
        <ele>2045.3399999999999</ele>
        <time>2018-09-17T10:24:11Z</time>
      </trkpt>
      <trkpt lat="46.919700996950269" lon="11.068776967003942">
        <ele>2064.0900000000001</ele>
        <time>2018-09-17T10:24:20Z</time>
      </trkpt>
      <trkpt lat="46.919534029439092" lon="11.069406028836966">
        <ele>2070.3400000000001</ele>
        <time>2018-09-17T10:24:23Z</time>
      </trkpt>
      <trkpt lat="46.919384999200702" lon="11.071466971188784">
        <ele>2084.7600000000002</ele>
        <time>2018-09-17T10:24:32Z</time>
      </trkpt>
      <trkpt lat="46.919210990890861" lon="11.073251981288195">
        <ele>2097.73</ele>
        <time>2018-09-17T10:24:40Z</time>
      </trkpt>
      <trkpt lat="46.919133039191365" lon="11.07347703538835">
        <ele>2098.6999999999998</ele>
        <time>2018-09-17T10:24:41Z</time>
      </trkpt>
      <trkpt lat="46.918428037315607" lon="11.075522974133492">
        <ele>2113.1199999999999</ele>
        <time>2018-09-17T10:24:49Z</time>
      </trkpt>
      <trkpt lat="46.917507033795118" lon="11.077791033312678">
        <ele>2128.02</ele>
        <time>2018-09-17T10:24:57Z</time>
      </trkpt>
      <trkpt lat="46.91632904112339" lon="11.079922970384359">
        <ele>2145.8000000000002</ele>
        <time>2018-09-17T10:25:05Z</time>
      </trkpt>
      <trkpt lat="46.916210018098354" lon="11.080198986455798">
        <ele>2148.1999999999998</ele>
        <time>2018-09-17T10:25:06Z</time>
      </trkpt>
      <trkpt lat="46.916105998679996" lon="11.08048103749752">
        <ele>2150.6100000000001</ele>
        <time>2018-09-17T10:25:07Z</time>
      </trkpt>
      <trkpt lat="46.915816990658641" lon="11.081626005470753">
        <ele>2158.7800000000002</ele>
        <time>2018-09-17T10:25:11Z</time>
      </trkpt>
      <trkpt lat="46.915716994553804" lon="11.081876959651709">
        <ele>2160.6999999999998</ele>
        <time>2018-09-17T10:25:12Z</time>
      </trkpt>
      <trkpt lat="46.915613980963826" lon="11.08213403262198">
        <ele>2162.6199999999999</ele>
        <time>2018-09-17T10:25:13Z</time>
      </trkpt>
      <trkpt lat="46.914486028254032" lon="11.084139989688993">
        <ele>2179.4499999999998</ele>
        <time>2018-09-17T10:25:21Z</time>
      </trkpt>
      <trkpt lat="46.913327984511852" lon="11.085736993700266">
        <ele>2197.23</ele>
        <time>2018-09-17T10:25:28Z</time>
      </trkpt>
      <trkpt lat="46.912182010710239" lon="11.086921021342278">
        <ele>2214.0500000000002</ele>
        <time>2018-09-17T10:25:34Z</time>
      </trkpt>
      <trkpt lat="46.910360958427191" lon="11.087821992114186">
        <ele>2236.6399999999999</ele>
        <time>2018-09-17T10:25:42Z</time>
      </trkpt>
      <trkpt lat="46.909485971555114" lon="11.088091973215342">
        <ele>2250.0999999999999</ele>
        <time>2018-09-17T10:25:47Z</time>
      </trkpt>
      <trkpt lat="46.909314980730414" lon="11.088132038712502">
        <ele>2253.9499999999998</ele>
        <time>2018-09-17T10:25:49Z</time>
      </trkpt>
      <trkpt lat="46.90926100127399" lon="11.088145030662417">
        <ele>2255.3899999999999</ele>
        <time>2018-09-17T10:25:50Z</time>
      </trkpt>
      <trkpt lat="46.909253960475326" lon="11.088209990411997">
        <ele>2257.3099999999999</ele>
        <time>2018-09-17T10:25:51Z</time>
      </trkpt>
      <trkpt lat="46.909239962697029" lon="11.088338987901807">
        <ele>2258.75</ele>
        <time>2018-09-17T10:25:52Z</time>
      </trkpt>
      <trkpt lat="46.909282961860299" lon="11.088509978726506">
        <ele>2260.6799999999998</ele>
        <time>2018-09-17T10:25:53Z</time>
      </trkpt>
      <trkpt lat="46.9093709718436" lon="11.0886450111866">
        <ele>2262.1199999999999</ele>
        <time>2018-09-17T10:25:54Z</time>
      </trkpt>
      <trkpt lat="46.909469040110707" lon="11.088795969262719">
        <ele>2264.04</ele>
        <time>2018-09-17T10:25:55Z</time>
      </trkpt>
      <trkpt lat="46.909584039822221" lon="11.088954973965883">
        <ele>2265.96</ele>
        <time>2018-09-17T10:25:56Z</time>
      </trkpt>
      <trkpt lat="46.909719994291663" lon="11.089053964242339">
        <ele>2267.4099999999999</ele>
        <time>2018-09-17T10:25:57Z</time>
      </trkpt>
      <trkpt lat="46.909855026751757" lon="11.089110961183906">
        <ele>2269.3299999999999</ele>
        <time>2018-09-17T10:25:58Z</time>
      </trkpt>
      <trkpt lat="46.909974971786141" lon="11.089110961183906">
        <ele>2271.25</ele>
        <time>2018-09-17T10:25:59Z</time>
      </trkpt>
      <trkpt lat="46.910081002861261" lon="11.089110961183906">
        <ele>2273.1700000000001</ele>
        <time>2018-09-17T10:26:00Z</time>
      </trkpt>
      <trkpt lat="46.910175969824195" lon="11.089110961183906">
        <ele>2274.6199999999999</ele>
        <time>2018-09-17T10:26:01Z</time>
      </trkpt>
      <trkpt lat="46.910252999514341" lon="11.089110961183906">
        <ele>2276.0599999999999</ele>
        <time>2018-09-17T10:26:02Z</time>
      </trkpt>
      <trkpt lat="46.910317037254572" lon="11.089110961183906">
        <ele>2277.5</ele>
        <time>2018-09-17T10:26:03Z</time>
      </trkpt>
      <trkpt lat="46.91035601310432" lon="11.089145997539163">
        <ele>2278.46</ele>
        <time>2018-09-17T10:26:04Z</time>
      </trkpt>
      <trkpt lat="46.910386020317674" lon="11.089196959510446">
        <ele>2279.9000000000001</ele>
        <time>2018-09-17T10:26:05Z</time>
      </trkpt>
      <trkpt lat="46.910373028367758" lon="11.08926803804934">
        <ele>2280.8699999999999</ele>
        <time>2018-09-17T10:26:06Z</time>
      </trkpt>
      <trkpt lat="46.910316031426191" lon="11.089315982535481">
        <ele>2281.8299999999999</ele>
        <time>2018-09-17T10:26:07Z</time>
      </trkpt>
      <trkpt lat="46.910234978422523" lon="11.089342972263694">
        <ele>2282.79</ele>
        <time>2018-09-17T10:26:08Z</time>
      </trkpt>
      <trkpt lat="46.910147974267602" lon="11.089370967820287">
        <ele>2283.75</ele>
        <time>2018-09-17T10:26:09Z</time>
      </trkpt>
      <trkpt lat="46.910045966506004" lon="11.089403992518783">
        <ele>2284.71</ele>
        <time>2018-09-17T10:26:10Z</time>
      </trkpt>
      <trkpt lat="46.909181037917733" lon="11.089731976389885">
        <ele>2292.8800000000001</ele>
        <time>2018-09-17T10:26:16Z</time>
      </trkpt>
      <trkpt lat="46.907681012526155" lon="11.090247966349125">
        <ele>2307.7800000000002</ele>
        <time>2018-09-17T10:26:24Z</time>
      </trkpt>
      <trkpt lat="46.906094988808036" lon="11.090941987931728">
        <ele>2325.5700000000002</ele>
        <time>2018-09-17T10:26:32Z</time>
      </trkpt>
      <trkpt lat="46.904736030846834" lon="11.090994039550424">
        <ele>2340.9499999999998</ele>
        <time>2018-09-17T10:26:39Z</time>
      </trkpt>
      <trkpt lat="46.904519023373723" lon="11.091063022613525">
        <ele>2344.79</ele>
        <time>2018-09-17T10:26:42Z</time>
      </trkpt>
      <trkpt lat="46.904519023373723" lon="11.091063022613525">
        <ele>2345.27</ele>
        <time>2018-09-17T10:26:43Z</time>
      </trkpt>
      <trkpt lat="46.904519023373723" lon="11.091134017333388">
        <ele>2346.23</ele>
        <time>2018-09-17T10:26:44Z</time>
      </trkpt>
      <trkpt lat="46.904519023373723" lon="11.091169975697994">
        <ele>2347.1999999999998</ele>
        <time>2018-09-17T10:26:45Z</time>
      </trkpt>
      <trkpt lat="46.904573002830148" lon="11.091199982911348">
        <ele>2347.6799999999998</ele>
        <time>2018-09-17T10:26:46Z</time>
      </trkpt>
      <trkpt lat="46.904668975621462" lon="11.091253040358424">
        <ele>2348.6399999999999</ele>
        <time>2018-09-17T10:26:47Z</time>
      </trkpt>
      <trkpt lat="46.904782969504595" lon="11.091292016208172">
        <ele>2349.1199999999999</ele>
        <time>2018-09-17T10:26:48Z</time>
      </trkpt>
      <trkpt lat="46.905209021642804" lon="11.091381032019854">
        <ele>2351.52</ele>
        <time>2018-09-17T10:26:52Z</time>
      </trkpt>
      <trkpt lat="46.905270041897893" lon="11.091441968455911">
        <ele>2352</ele>
        <time>2018-09-17T10:26:53Z</time>
      </trkpt>
      <trkpt lat="46.905278004705906" lon="11.091512041166425">
        <ele>2352.48</ele>
        <time>2018-09-17T10:26:54Z</time>
      </trkpt>
      <trkpt lat="46.905257971957326" lon="11.091570965945721">
        <ele>2352.48</ele>
        <time>2018-09-17T10:26:55Z</time>
      </trkpt>
      <trkpt lat="46.905249003320932" lon="11.091599967330694">
        <ele>2352.96</ele>
        <time>2018-09-17T10:26:56Z</time>
      </trkpt>
      <trkpt lat="46.905192006379366" lon="11.091597033664584">
        <ele>2353.4400000000001</ele>
        <time>2018-09-17T10:26:57Z</time>
      </trkpt>
      <trkpt lat="46.905110031366348" lon="11.091593010351062">
        <ele>2353.9299999999998</ele>
        <time>2018-09-17T10:26:58Z</time>
      </trkpt>
      <trkpt lat="46.904604015871882" lon="11.091624023392797">
        <ele>2356.3299999999999</ele>
        <time>2018-09-17T10:27:02Z</time>
      </trkpt>
      <trkpt lat="46.904456997290254" lon="11.091662999242544">
        <ele>2357.77</ele>
        <time>2018-09-17T10:27:03Z</time>
      </trkpt>
      <trkpt lat="46.903963973745704" lon="11.091795014217496">
        <ele>2361.1399999999999</ele>
        <time>2018-09-17T10:27:06Z</time>
      </trkpt>
      <trkpt lat="46.903784014284611" lon="11.091832984238863">
        <ele>2363.0599999999999</ele>
        <time>2018-09-17T10:27:07Z</time>
      </trkpt>
      <trkpt lat="46.902308966964483" lon="11.091970028355718">
        <ele>2378.9200000000001</ele>
        <time>2018-09-17T10:27:15Z</time>
      </trkpt>
      <trkpt lat="46.901170033961535" lon="11.092244032770395">
        <ele>2392.8600000000001</ele>
        <time>2018-09-17T10:27:22Z</time>
      </trkpt>
      <trkpt lat="46.901085963472724" lon="11.092264987528324">
        <ele>2394.3000000000002</ele>
        <time>2018-09-17T10:27:23Z</time>
      </trkpt>
      <trkpt lat="46.901056040078402" lon="11.092334976419806">
        <ele>2395.2600000000002</ele>
        <time>2018-09-17T10:27:24Z</time>
      </trkpt>
      <trkpt lat="46.901022009551525" lon="11.092413011938334">
        <ele>2396.2199999999998</ele>
        <time>2018-09-17T10:27:25Z</time>
      </trkpt>
      <trkpt lat="46.901048999279737" lon="11.092461962252855">
        <ele>2397.1799999999998</ele>
        <time>2018-09-17T10:27:26Z</time>
      </trkpt>
      <trkpt lat="46.901107002049685" lon="11.092564975842834">
        <ele>2397.6700000000001</ele>
        <time>2018-09-17T10:27:27Z</time>
      </trkpt>
      <trkpt lat="46.901194006204605" lon="11.092611998319626">
        <ele>2398.6300000000001</ele>
        <time>2018-09-17T10:27:28Z</time>
      </trkpt>
      <trkpt lat="46.901316968724132" lon="11.092677963897586">
        <ele>2399.1100000000001</ele>
        <time>2018-09-17T10:27:29Z</time>
      </trkpt>
      <trkpt lat="46.902303015813231" lon="11.093209041282535">
        <ele>2406.8000000000002</ele>
        <time>2018-09-17T10:27:35Z</time>
      </trkpt>
      <trkpt lat="46.902825040742755" lon="11.093513974919915">
        <ele>2412.5700000000002</ele>
        <time>2018-09-17T10:27:38Z</time>
      </trkpt>
      <trkpt lat="46.902962001040578" lon="11.093663005158305">
        <ele>2414.4899999999998</ele>
        <time>2018-09-17T10:27:39Z</time>
      </trkpt>
      <trkpt lat="46.903101978823543" lon="11.093815974891186">
        <ele>2416.4099999999999</ele>
        <time>2018-09-17T10:27:40Z</time>
      </trkpt>
      <trkpt lat="46.903367014601827" lon="11.09410397708416">
        <ele>2420.2600000000002</ele>
        <time>2018-09-17T10:27:42Z</time>
      </trkpt>
      <trkpt lat="46.903511015698314" lon="11.094259964302182">
        <ele>2422.1799999999998</ele>
        <time>2018-09-17T10:27:43Z</time>
      </trkpt>
      <trkpt lat="46.903638001531363" lon="11.09431997872889">
        <ele>2424.0999999999999</ele>
        <time>2018-09-17T10:27:44Z</time>
      </trkpt>
      <trkpt lat="46.903788959607482" lon="11.094389967620373">
        <ele>2425.54</ele>
        <time>2018-09-17T10:27:45Z</time>
      </trkpt>
      <trkpt lat="46.903946036472917" lon="11.094407988712192">
        <ele>2427.4699999999998</ele>
        <time>2018-09-17T10:27:46Z</time>
      </trkpt>
      <trkpt lat="46.90410302951932" lon="11.09440497122705">
        <ele>2428.9099999999999</ele>
        <time>2018-09-17T10:27:47Z</time>
      </trkpt>
      <trkpt lat="46.904257005080581" lon="11.09440203756094">
        <ele>2430.3499999999999</ele>
        <time>2018-09-17T10:27:48Z</time>
      </trkpt>
      <trkpt lat="46.904840972274542" lon="11.094388961791992">
        <ele>2438.52</ele>
        <time>2018-09-17T10:27:54Z</time>
      </trkpt>
      <trkpt lat="46.904864022508264" lon="11.0944489762187">
        <ele>2439.48</ele>
        <time>2018-09-17T10:27:55Z</time>
      </trkpt>
      <trkpt lat="46.904896041378379" lon="11.094535980373621">
        <ele>2440.4400000000001</ele>
        <time>2018-09-17T10:27:56Z</time>
      </trkpt>
      <trkpt lat="46.904891012236476" lon="11.094589037820697">
        <ele>2441.4099999999999</ele>
        <time>2018-09-17T10:27:57Z</time>
      </trkpt>
      <trkpt lat="46.904838960617781" lon="11.094693979248405">
        <ele>2442.8499999999999</ele>
        <time>2018-09-17T10:27:58Z</time>
      </trkpt>
      <trkpt lat="46.904767965897918" lon="11.09476899728179">
        <ele>2443.8099999999999</ele>
        <time>2018-09-17T10:27:59Z</time>
      </trkpt>
      <trkpt lat="46.904662018641829" lon="11.094844015315175">
        <ele>2445.25</ele>
        <time>2018-09-17T10:28:00Z</time>
      </trkpt>
      <trkpt lat="46.903862971812487" lon="11.095319017767906">
        <ele>2453.9000000000001</ele>
        <time>2018-09-17T10:28:06Z</time>
      </trkpt>
    </trkseg>
  </trk>

  <trk>
    <name>Track vom: 2018-09-17 12:40</name>
    <extensions>
      <gpxx:TrackExtension>
        <gpxx:DisplayColor>DarkGray</gpxx:DisplayColor>
      </gpxx:TrackExtension>
    </extensions>
    <trkseg>
      <trkpt lat="46.904881037771702" lon="11.096518971025944">
        <ele>2479.8600000000001</ele>
        <time>2018-09-17T10:40:53Z</time>
      </trkpt>
      <trkpt lat="46.904826974496245" lon="11.09666096046567">
        <ele>2469.7600000000002</ele>
        <time>2018-09-17T10:41:39Z</time>
      </trkpt>
      <trkpt lat="46.904824040830135" lon="11.09666096046567">
        <ele>2466.8800000000001</ele>
        <time>2018-09-17T10:42:20Z</time>
      </trkpt>
      <trkpt lat="46.905051022768021" lon="11.096663977950811">
        <ele>2467.3600000000001</ele>
        <time>2018-09-17T10:42:33Z</time>
      </trkpt>
      <trkpt lat="46.905127968639135" lon="11.096664983779192">
        <ele>2467.8400000000001</ele>
        <time>2018-09-17T10:42:34Z</time>
      </trkpt>
      <trkpt lat="46.905195023864508" lon="11.096677975729108">
        <ele>2468.3200000000002</ele>
        <time>2018-09-17T10:42:35Z</time>
      </trkpt>
      <trkpt lat="46.905260989442468" lon="11.096738995984197">
        <ele>2468.8000000000002</ele>
        <time>2018-09-17T10:42:36Z</time>
      </trkpt>
      <trkpt lat="46.905302982777357" lon="11.096805967390537">
        <ele>2468.8000000000002</ele>
        <time>2018-09-17T10:42:37Z</time>
      </trkpt>
      <trkpt lat="46.905335001647472" lon="11.096857013180852">
        <ele>2469.2800000000002</ele>
        <time>2018-09-17T10:42:38Z</time>
      </trkpt>
      <trkpt lat="46.905341958627105" lon="11.096978969871998">
        <ele>2469.7600000000002</ele>
        <time>2018-09-17T10:42:39Z</time>
      </trkpt>
      <trkpt lat="46.905346987769008" lon="11.097075026482344">
        <ele>2469.7600000000002</ele>
        <time>2018-09-17T10:42:40Z</time>
      </trkpt>
      <trkpt lat="46.905356040224433" lon="11.097221961244941">
        <ele>2469.7600000000002</ele>
        <time>2018-09-17T10:42:41Z</time>
      </trkpt>
      <trkpt lat="46.905344976112247" lon="11.097297985106707">
        <ele>2469.7600000000002</ele>
        <time>2018-09-17T10:42:42Z</time>
      </trkpt>
      <trkpt lat="46.905327960848808" lon="11.097419019788504">
        <ele>2469.7600000000002</ele>
        <time>2018-09-17T10:42:43Z</time>
      </trkpt>
      <trkpt lat="46.905313041061163" lon="11.097522033378482">
        <ele>2469.7600000000002</ele>
        <time>2018-09-17T10:42:44Z</time>
      </trkpt>
      <trkpt lat="46.90524498000741" lon="11.097649019211531">
        <ele>2469.2800000000002</ele>
        <time>2018-09-17T10:42:45Z</time>
      </trkpt>
      <trkpt lat="46.905193012207747" lon="11.097744992002845">
        <ele>2469.2800000000002</ele>
        <time>2018-09-17T10:42:46Z</time>
      </trkpt>
      <trkpt lat="46.90513601526618" lon="11.097824033349752">
        <ele>2468.8000000000002</ele>
        <time>2018-09-17T10:42:47Z</time>
      </trkpt>
      <trkpt lat="46.905063008889556" lon="11.097887987270951">
        <ele>2468.8000000000002</ele>
        <time>2018-09-17T10:42:48Z</time>
      </trkpt>
      <trkpt lat="46.904981033876538" lon="11.097952025011182">
        <ele>2468.8000000000002</ele>
        <time>2018-09-17T10:42:49Z</time>
      </trkpt>
      <trkpt lat="46.904894029721618" lon="11.097965016961098">
        <ele>2468.3200000000002</ele>
        <time>2018-09-17T10:42:50Z</time>
      </trkpt>
      <trkpt lat="46.904800990596414" lon="11.097968034446239">
        <ele>2467.8400000000001</ele>
        <time>2018-09-17T10:42:51Z</time>
      </trkpt>
      <trkpt lat="46.904703006148338" lon="11.097956970334053">
        <ele>2467.3600000000001</ele>
        <time>2018-09-17T10:42:52Z</time>
      </trkpt>
      <trkpt lat="46.904595969244838" lon="11.097944984212518">
        <ele>2466.8800000000001</ele>
        <time>2018-09-17T10:42:53Z</time>
      </trkpt>
      <trkpt lat="46.904480969533324" lon="11.097932998090982">
        <ele>2466.4000000000001</ele>
        <time>2018-09-17T10:42:54Z</time>
      </trkpt>
      <trkpt lat="46.904365969821811" lon="11.097953030839562">
        <ele>2465.4400000000001</ele>
        <time>2018-09-17T10:42:55Z</time>
      </trkpt>
      <trkpt lat="46.90425499342382" lon="11.097983038052917">
        <ele>2464.96</ele>
        <time>2018-09-17T10:42:56Z</time>
      </trkpt>
      <trkpt lat="46.904148040339351" lon="11.098011033609509">
        <ele>2464</ele>
        <time>2018-09-17T10:42:57Z</time>
      </trkpt>
      <trkpt lat="46.90406396985054" lon="11.098110023885965">
        <ele>2463.52</ele>
        <time>2018-09-17T10:42:58Z</time>
      </trkpt>
      <trkpt lat="46.903995992615819" lon="11.098202979192138">
        <ele>2462.5500000000002</ele>
        <time>2018-09-17T10:42:59Z</time>
      </trkpt>
      <trkpt lat="46.903961040079594" lon="11.098345974460244">
        <ele>2462.0700000000002</ele>
        <time>2018-09-17T10:43:00Z</time>
      </trkpt>
      <trkpt lat="46.903961040079594" lon="11.098484024405479">
        <ele>2461.5900000000001</ele>
        <time>2018-09-17T10:43:01Z</time>
      </trkpt>
      <trkpt lat="46.903986018151045" lon="11.098630037158728">
        <ele>2460.6300000000001</ele>
        <time>2018-09-17T10:43:02Z</time>
      </trkpt>
      <trkpt lat="46.904023988172412" lon="11.098782001063228">
        <ele>2460.1500000000001</ele>
        <time>2018-09-17T10:43:03Z</time>
      </trkpt>
      <trkpt lat="46.904110992327332" lon="11.099131023511291">
        <ele>2459.1900000000001</ele>
        <time>2018-09-17T10:43:05Z</time>
      </trkpt>
      <trkpt lat="46.904110992327332" lon="11.099300002679229">
        <ele>2457.75</ele>
        <time>2018-09-17T10:43:06Z</time>
      </trkpt>
      <trkpt lat="46.904093977063894" lon="11.099491026252508">
        <ele>2456.79</ele>
        <time>2018-09-17T10:43:07Z</time>
      </trkpt>
      <trkpt lat="46.90406296402216" lon="11.099679032340646">
        <ele>2455.8200000000002</ele>
        <time>2018-09-17T10:43:08Z</time>
      </trkpt>
      <trkpt lat="46.90401996485889" lon="11.099868966266513">
        <ele>2454.3800000000001</ele>
        <time>2018-09-17T10:43:09Z</time>
      </trkpt>
      <trkpt lat="46.903963973745704" lon="11.100057978183031">
        <ele>2452.9400000000001</ele>
        <time>2018-09-17T10:43:10Z</time>
      </trkpt>
      <trkpt lat="46.903854003176093" lon="11.100430972874165">
        <ele>2450.54</ele>
        <time>2018-09-17T10:43:12Z</time>
      </trkpt>
      <trkpt lat="46.903778985142708" lon="11.100594000890851">
        <ele>2449.0999999999999</ele>
        <time>2018-09-17T10:43:13Z</time>
      </trkpt>
      <trkpt lat="46.903677983209491" lon="11.100743031129241">
        <ele>2448.1300000000001</ele>
        <time>2018-09-17T10:43:14Z</time>
      </trkpt>
      <trkpt lat="46.903554014861584" lon="11.100853001698852">
        <ele>2447.1700000000001</ele>
        <time>2018-09-17T10:43:15Z</time>
      </trkpt>
      <trkpt lat="46.903428034856915" lon="11.100966995581985">
        <ele>2446.21</ele>
        <time>2018-09-17T10:43:16Z</time>
      </trkpt>
      <trkpt lat="46.903299037367105" lon="11.101084006950259">
        <ele>2445.73</ele>
        <time>2018-09-17T10:43:17Z</time>
      </trkpt>
      <trkpt lat="46.903042970225215" lon="11.101318029686809">
        <ele>2444.77</ele>
        <time>2018-09-17T10:43:19Z</time>
      </trkpt>
      <trkpt lat="46.902929982170463" lon="11.10145197249949">
        <ele>2444.29</ele>
        <time>2018-09-17T10:43:20Z</time>
      </trkpt>
      <trkpt lat="46.902722027152777" lon="11.101699993014336">
        <ele>2443.8099999999999</ele>
        <time>2018-09-17T10:43:22Z</time>
      </trkpt>
      <trkpt lat="46.902593029662967" lon="11.101764030754566">
        <ele>2443.8099999999999</ele>
        <time>2018-09-17T10:43:23Z</time>
      </trkpt>
      <trkpt lat="46.902462020516396" lon="11.101825973019004">
        <ele>2443.8099999999999</ele>
        <time>2018-09-17T10:43:24Z</time>
      </trkpt>
      <trkpt lat="46.902319025248289" lon="11.101880958303809">
        <ele>2443.3299999999999</ele>
        <time>2018-09-17T10:43:25Z</time>
      </trkpt>
      <trkpt lat="46.90217100083828" lon="11.101895961910486">
        <ele>2443.3299999999999</ele>
        <time>2018-09-17T10:43:26Z</time>
      </trkpt>
      <trkpt lat="46.902016019448638" lon="11.101854974403977">
        <ele>2443.3299999999999</ele>
        <time>2018-09-17T10:43:27Z</time>
      </trkpt>
      <trkpt lat="46.90187000669539" lon="11.101790014654398">
        <ele>2443.3299999999999</ele>
        <time>2018-09-17T10:43:28Z</time>
      </trkpt>
      <trkpt lat="46.901737991720438" lon="11.101691024377942">
        <ele>2443.3299999999999</ele>
        <time>2018-09-17T10:43:29Z</time>
      </trkpt>
      <trkpt lat="46.901474967598915" lon="11.101591028273106">
        <ele>2442.8499999999999</ele>
        <time>2018-09-17T10:43:31Z</time>
      </trkpt>
      <trkpt lat="46.901350999251008" lon="11.101568983867764">
        <ele>2442.8499999999999</ele>
        <time>2018-09-17T10:43:32Z</time>
      </trkpt>
      <trkpt lat="46.901257038116455" lon="11.101572001352906">
        <ele>2442.8499999999999</ele>
        <time>2018-09-17T10:43:33Z</time>
      </trkpt>
      <trkpt lat="46.901171039789915" lon="11.101636961102486">
        <ele>2442.3699999999999</ele>
        <time>2018-09-17T10:43:34Z</time>
      </trkpt>
      <trkpt lat="46.901098033413291" lon="11.101700998842716">
        <ele>2442.3699999999999</ele>
        <time>2018-09-17T10:43:35Z</time>
      </trkpt>
      <trkpt lat="46.901030978187919" lon="11.101823961362243">
        <ele>2441.8899999999999</ele>
        <time>2018-09-17T10:43:36Z</time>
      </trkpt>
      <trkpt lat="46.900958977639675" lon="11.101954970508814">
        <ele>2441.4099999999999</ele>
        <time>2018-09-17T10:43:37Z</time>
      </trkpt>
      <trkpt lat="46.900886977091432" lon="11.102084973827004">
        <ele>2440.9200000000001</ele>
        <time>2018-09-17T10:43:38Z</time>
      </trkpt>
      <trkpt lat="46.900781029835343" lon="11.102171977981925">
        <ele>2440.9200000000001</ele>
        <time>2018-09-17T10:43:39Z</time>
      </trkpt>
      <trkpt lat="46.900663012638688" lon="11.102248001843691">
        <ele>2440.9200000000001</ele>
        <time>2018-09-17T10:43:40Z</time>
      </trkpt>
      <trkpt lat="46.900529991835356" lon="11.10231002792716">
        <ele>2440.9200000000001</ele>
        <time>2018-09-17T10:43:41Z</time>
      </trkpt>
      <trkpt lat="46.900383979082108" lon="11.102320002391934">
        <ele>2440.4400000000001</ele>
        <time>2018-09-17T10:43:42Z</time>
      </trkpt>
      <trkpt lat="46.900233021005988" lon="11.102312039583921">
        <ele>2439.96</ele>
        <time>2018-09-17T10:43:43Z</time>
      </trkpt>
      <trkpt lat="46.900091031566262" lon="11.102251019328833">
        <ele>2439.96</ele>
        <time>2018-09-17T10:43:44Z</time>
      </trkpt>
      <trkpt lat="46.899940995499492" lon="11.102184969931841">
        <ele>2439.48</ele>
        <time>2018-09-17T10:43:45Z</time>
      </trkpt>
      <trkpt lat="46.899787019938231" lon="11.1021179985255">
        <ele>2439.48</ele>
        <time>2018-09-17T10:43:46Z</time>
      </trkpt>
      <trkpt lat="46.899631032720208" lon="11.102113975211978">
        <ele>2439.48</ele>
        <time>2018-09-17T10:43:47Z</time>
      </trkpt>
      <trkpt lat="46.899482002481818" lon="11.102149011567235">
        <ele>2439</ele>
        <time>2018-09-17T10:43:48Z</time>
      </trkpt>
      <trkpt lat="46.899329032748938" lon="11.10220299102366">
        <ele>2438.52</ele>
        <time>2018-09-17T10:43:49Z</time>
      </trkpt>
      <trkpt lat="46.899155024439096" lon="11.102264011278749">
        <ele>2438.04</ele>
        <time>2018-09-17T10:43:50Z</time>
      </trkpt>
      <trkpt lat="46.899036001414061" lon="11.102349003776908">
        <ele>2437.5599999999999</ele>
        <time>2018-09-17T10:43:51Z</time>
      </trkpt>
      <trkpt lat="46.89892896451056" lon="11.102480012923479">
        <ele>2437.0799999999999</ele>
        <time>2018-09-17T10:43:52Z</time>
      </trkpt>
      <trkpt lat="46.898831985890865" lon="11.102620996534824">
        <ele>2436.5999999999999</ele>
        <time>2018-09-17T10:43:53Z</time>
      </trkpt>
      <trkpt lat="46.898761996999383" lon="11.102777989581227">
        <ele>2435.6399999999999</ele>
        <time>2018-09-17T10:43:54Z</time>
      </trkpt>
      <trkpt lat="46.898694019764662" lon="11.102953003719449">
        <ele>2435.1599999999999</ele>
        <time>2018-09-17T10:43:55Z</time>
      </trkpt>
      <trkpt lat="46.898368969559669" lon="11.103787003085017">
        <ele>2430.8299999999999</ele>
        <time>2018-09-17T10:44:00Z</time>
      </trkpt>
      <trkpt lat="46.898309960961342" lon="11.10383695922792">
        <ele>2430.3499999999999</ele>
        <time>2018-09-17T10:44:01Z</time>
      </trkpt>
      <trkpt lat="46.898264028131962" lon="11.103861015290022">
        <ele>2429.8699999999999</ele>
        <time>2018-09-17T10:44:02Z</time>
      </trkpt>
      <trkpt lat="46.898098988458514" lon="11.103951958939433">
        <ele>2428.9099999999999</ele>
        <time>2018-09-17T10:44:05Z</time>
      </trkpt>
      <trkpt lat="46.89750999212265" lon="11.104272985830903">
        <ele>2427.9499999999998</ele>
        <time>2018-09-17T10:44:11Z</time>
      </trkpt>
      <trkpt lat="46.897413013502955" lon="11.104327971115708">
        <ele>2427.9499999999998</ele>
        <time>2018-09-17T10:44:12Z</time>
      </trkpt>
      <trkpt lat="46.897178990766406" lon="11.104570962488651">
        <ele>2427.9499999999998</ele>
        <time>2018-09-17T10:44:13Z</time>
      </trkpt>
      <trkpt lat="46.897010011598468" lon="11.104812026023865">
        <ele>2426.9899999999998</ele>
        <time>2018-09-17T10:44:15Z</time>
      </trkpt>
      <trkpt lat="46.896901968866587" lon="11.104968013241887">
        <ele>2426.9899999999998</ele>
        <time>2018-09-17T10:44:16Z</time>
      </trkpt>
      <trkpt lat="46.896711029112339" lon="11.105076977983117">
        <ele>2426.5</ele>
        <time>2018-09-17T10:44:18Z</time>
      </trkpt>
      <trkpt lat="46.896630981937051" lon="11.105121988803148">
        <ele>2426.02</ele>
        <time>2018-09-17T10:44:19Z</time>
      </trkpt>
      <trkpt lat="46.896483041346073" lon="11.105206981301308">
        <ele>2425.54</ele>
        <time>2018-09-17T10:44:21Z</time>
      </trkpt>
      <trkpt lat="46.895933020859957" lon="11.105566984042525">
        <ele>2426.9899999999998</ele>
        <time>2018-09-17T10:44:27Z</time>
      </trkpt>
      <trkpt lat="46.895292978733778" lon="11.106511959806085">
        <ele>2427.4699999999998</ele>
        <time>2018-09-17T10:44:32Z</time>
      </trkpt>
      <trkpt lat="46.895220978185534" lon="11.106676999479532">
        <ele>2426.9899999999998</ele>
        <time>2018-09-17T10:44:33Z</time>
      </trkpt>
      <trkpt lat="46.895184013992548" lon="11.106876991689205">
        <ele>2426.5</ele>
        <time>2018-09-17T10:44:34Z</time>
      </trkpt>
      <trkpt lat="46.894970024004579" lon="11.108015002682805">
        <ele>2425.0599999999999</ele>
        <time>2018-09-17T10:44:40Z</time>
      </trkpt>
      <trkpt lat="46.894885031506419" lon="11.108136037364602">
        <ele>2425.0599999999999</ele>
        <time>2018-09-17T10:44:41Z</time>
      </trkpt>
      <trkpt lat="46.894819987937808" lon="11.108228992670774">
        <ele>2425.0599999999999</ele>
        <time>2018-09-17T10:44:42Z</time>
      </trkpt>
      <trkpt lat="46.894728960469365" lon="11.108299987390637">
        <ele>2425.0599999999999</ele>
        <time>2018-09-17T10:44:43Z</time>
      </trkpt>
      <trkpt lat="46.894647991284728" lon="11.108363019302487">
        <ele>2425.54</ele>
        <time>2018-09-17T10:44:44Z</time>
      </trkpt>
      <trkpt lat="46.892798021435738" lon="11.109674032777548">
        <ele>2427.4699999999998</ele>
        <time>2018-09-17T10:45:18Z</time>
      </trkpt>
      <trkpt lat="46.889916993677616" lon="11.111578987911344">
        <ele>2420.7399999999998</ele>
        <time>2018-09-17T10:45:23Z</time>
      </trkpt>
      <trkpt lat="46.88988103531301" lon="11.111551998183131">
        <ele>2412.0900000000001</ele>
        <time>2018-09-17T10:45:24Z</time>
      </trkpt>
      <trkpt lat="46.889824960380793" lon="11.111511010676622">
        <ele>2408.2399999999998</ele>
        <time>2018-09-17T10:45:25Z</time>
      </trkpt>
      <trkpt lat="46.88908701762557" lon="11.110940035432577">
        <ele>2395.2600000000002</ele>
        <time>2018-09-17T10:45:33Z</time>
      </trkpt>
      <trkpt lat="46.888058977201581" lon="11.110320026054978">
        <ele>2382.7600000000002</ele>
        <time>2018-09-17T10:45:43Z</time>
      </trkpt>
      <trkpt lat="46.887860996648669" lon="11.110255988314748">
        <ele>2380.8400000000001</ele>
        <time>2018-09-17T10:45:45Z</time>
      </trkpt>
      <trkpt lat="46.887762006372213" lon="11.110224975273013">
        <ele>2379.8800000000001</ele>
        <time>2018-09-17T10:45:46Z</time>
      </trkpt>
      <trkpt lat="46.887314999476075" lon="11.110185999423265">
        <ele>2375.0700000000002</ele>
        <time>2018-09-17T10:45:51Z</time>
      </trkpt>
      <trkpt lat="46.887206034734845" lon="11.110176024958491">
        <ele>2373.6300000000001</ele>
        <time>2018-09-17T10:45:53Z</time>
      </trkpt>
      <trkpt lat="46.88715498894453" lon="11.110172001644969">
        <ele>2372.6700000000001</ele>
        <time>2018-09-17T10:45:54Z</time>
      </trkpt>
      <trkpt lat="46.887104026973248" lon="11.110166972503066">
        <ele>2371.71</ele>
        <time>2018-09-17T10:45:55Z</time>
      </trkpt>
      <trkpt lat="46.887059016153216" lon="11.110163033008575">
        <ele>2371.23</ele>
        <time>2018-09-17T10:45:56Z</time>
      </trkpt>
      <trkpt lat="46.887031020596623" lon="11.110160015523434">
        <ele>2370.27</ele>
        <time>2018-09-17T10:45:57Z</time>
      </trkpt>
      <trkpt lat="46.887031020596623" lon="11.110160015523434">
        <ele>2369.79</ele>
        <time>2018-09-17T10:45:58Z</time>
      </trkpt>
      <trkpt lat="46.887031020596623" lon="11.110182981938124">
        <ele>2368.3499999999999</ele>
        <time>2018-09-17T10:45:59Z</time>
      </trkpt>
      <trkpt lat="46.887031020596623" lon="11.110218018293381">
        <ele>2367.3800000000001</ele>
        <time>2018-09-17T10:46:00Z</time>
      </trkpt>
      <trkpt lat="46.887031020596623" lon="11.110254982486367">
        <ele>2366.9000000000001</ele>
        <time>2018-09-17T10:46:01Z</time>
      </trkpt>
      <trkpt lat="46.887031020596623" lon="11.110267974436283">
        <ele>2365.9400000000001</ele>
        <time>2018-09-17T10:46:02Z</time>
      </trkpt>
      <trkpt lat="46.887049041688442" lon="11.110279960557818">
        <ele>2364.98</ele>
        <time>2018-09-17T10:46:03Z</time>
      </trkpt>
      <trkpt lat="46.887095980346203" lon="11.110310973599553">
        <ele>2364.5</ele>
        <time>2018-09-17T10:46:04Z</time>
      </trkpt>
      <trkpt lat="46.887120958417654" lon="11.110321031883359">
        <ele>2363.54</ele>
        <time>2018-09-17T10:46:05Z</time>
      </trkpt>
      <trkpt lat="46.887667961418629" lon="11.110550025478005">
        <ele>2358.73</ele>
        <time>2018-09-17T10:46:11Z</time>
      </trkpt>
      <trkpt lat="46.888417974114418" lon="11.111239017918706">
        <ele>2350.0799999999999</ele>
        <time>2018-09-17T10:46:18Z</time>
      </trkpt>
      <trkpt lat="46.889124987646937" lon="11.112122973427176">
        <ele>2339.5100000000002</ele>
        <time>2018-09-17T10:46:26Z</time>
      </trkpt>
      <trkpt lat="46.889189025387168" lon="11.112179970368743">
        <ele>2338.54</ele>
        <time>2018-09-17T10:46:27Z</time>
      </trkpt>
      <trkpt lat="46.889284998178482" lon="11.112267980352044">
        <ele>2337.0999999999999</ele>
        <time>2018-09-17T10:46:29Z</time>
      </trkpt>
      <trkpt lat="46.88932104036212" lon="11.11230100505054">
        <ele>2336.6199999999999</ele>
        <time>2018-09-17T10:46:30Z</time>
      </trkpt>
      <trkpt lat="46.889326991513371" lon="11.112306034192443">
        <ele>2336.1399999999999</ele>
        <time>2018-09-17T10:46:31Z</time>
      </trkpt>
      <trkpt lat="46.88934400677681" lon="11.1123669706285">
        <ele>2335.6599999999999</ele>
        <time>2018-09-17T10:46:32Z</time>
      </trkpt>
      <trkpt lat="46.889355992898345" lon="11.11240703612566">
        <ele>2334.6999999999998</ele>
        <time>2018-09-17T10:46:33Z</time>
      </trkpt>
      <trkpt lat="46.889368984848261" lon="11.112451041117311">
        <ele>2334.2199999999998</ele>
        <time>2018-09-17T10:46:34Z</time>
      </trkpt>
      <trkpt lat="46.889369990676641" lon="11.112455986440182">
        <ele>2333.2600000000002</ele>
        <time>2018-09-17T10:46:35Z</time>
      </trkpt>
      <trkpt lat="46.889369990676641" lon="11.112455986440182">
        <ele>2332.7800000000002</ele>
        <time>2018-09-17T10:46:36Z</time>
      </trkpt>
      <trkpt lat="46.889369990676641" lon="11.112455986440182">
        <ele>2332.3000000000002</ele>
        <time>2018-09-17T10:46:37Z</time>
      </trkpt>
      <trkpt lat="46.889369990676641" lon="11.112455986440182">
        <ele>2331.8099999999999</ele>
        <time>2018-09-17T10:46:38Z</time>
      </trkpt>
      <trkpt lat="46.889369990676641" lon="11.112455986440182">
        <ele>2329.8899999999999</ele>
        <time>2018-09-17T10:46:52Z</time>
      </trkpt>
      <trkpt lat="46.889263037592173" lon="11.112521030008793">
        <ele>2331.8099999999999</ele>
        <time>2018-09-17T10:47:00Z</time>
      </trkpt>
      <trkpt lat="46.889263037592173" lon="11.112521030008793">
        <ele>2331.8099999999999</ele>
        <time>2018-09-17T10:47:01Z</time>
      </trkpt>
      <trkpt lat="46.888880990445614" lon="11.112105036154389">
        <ele>2328.9299999999998</ele>
        <time>2018-09-17T10:47:06Z</time>
      </trkpt>
      <trkpt lat="46.888342034071684" lon="11.111740004271269">
        <ele>2323.1599999999999</ele>
        <time>2018-09-17T10:47:10Z</time>
      </trkpt>
      <trkpt lat="46.887934003025293" lon="11.111574964597821">
        <ele>2318.8400000000001</ele>
        <time>2018-09-17T10:47:13Z</time>
      </trkpt>
      <trkpt lat="46.886397013440728" lon="11.111153019592166">
        <ele>2302.98</ele>
        <time>2018-09-17T10:47:24Z</time>
      </trkpt>
      <trkpt lat="46.886258041486144" lon="11.11116299405694">
        <ele>2301.0500000000002</ele>
        <time>2018-09-17T10:47:25Z</time>
      </trkpt>
      <trkpt lat="46.885799970477819" lon="11.11114002764225">
        <ele>2294.8000000000002</ele>
        <time>2018-09-17T10:47:29Z</time>
      </trkpt>
      <trkpt lat="46.885732999071479" lon="11.111094010993838">
        <ele>2293.3600000000001</ele>
        <time>2018-09-17T10:47:30Z</time>
      </trkpt>
      <trkpt lat="46.885673990473151" lon="11.111053023487329">
        <ele>2291.9200000000001</ele>
        <time>2018-09-17T10:47:31Z</time>
      </trkpt>
      <trkpt lat="46.885622022673488" lon="11.111016981303692">
        <ele>2290.48</ele>
        <time>2018-09-17T10:47:32Z</time>
      </trkpt>
      <trkpt lat="46.885573994368315" lon="11.110983034595847">
        <ele>2289.04</ele>
        <time>2018-09-17T10:47:33Z</time>
      </trkpt>
      <trkpt lat="46.885529989376664" lon="11.110950009897351">
        <ele>2287.5900000000001</ele>
        <time>2018-09-17T10:47:34Z</time>
      </trkpt>
      <trkpt lat="46.885508028790355" lon="11.110932994633913">
        <ele>2286.6300000000001</ele>
        <time>2018-09-17T10:47:35Z</time>
      </trkpt>
      <trkpt lat="46.885508028790355" lon="11.110932994633913">
        <ele>2285.1900000000001</ele>
        <time>2018-09-17T10:47:36Z</time>
      </trkpt>
      <trkpt lat="46.885508028790355" lon="11.110932994633913">
        <ele>2280.8699999999999</ele>
        <time>2018-09-17T10:47:47Z</time>
      </trkpt>
      <trkpt lat="46.885469974949956" lon="11.111027961596847">
        <ele>2280.3800000000001</ele>
        <time>2018-09-17T10:47:55Z</time>
      </trkpt>
      <trkpt lat="46.885465029627085" lon="11.111040031537414">
        <ele>2280.3800000000001</ele>
        <time>2018-09-17T10:47:56Z</time>
      </trkpt>
      <trkpt lat="46.885482966899872" lon="11.111060986295342">
        <ele>2279.9000000000001</ele>
        <time>2018-09-17T10:47:57Z</time>
      </trkpt>
      <trkpt lat="46.885510962456465" lon="11.111090993508697">
        <ele>2280.3800000000001</ele>
        <time>2018-09-17T10:47:58Z</time>
      </trkpt>
      <trkpt lat="46.885536024346948" lon="11.111118989065289">
        <ele>2279.9000000000001</ele>
        <time>2018-09-17T10:47:59Z</time>
      </trkpt>
      <trkpt lat="46.885638032108545" lon="11.111230971291661">
        <ele>2279.9000000000001</ele>
        <time>2018-09-17T10:48:06Z</time>
      </trkpt>
      <trkpt lat="46.885638032108545" lon="11.111230971291661">
        <ele>2279.9000000000001</ele>
        <time>2018-09-17T10:48:07Z</time>
      </trkpt>
      <trkpt lat="46.885638032108545" lon="11.111230971291661">
        <ele>2279.9000000000001</ele>
        <time>2018-09-17T10:48:23Z</time>
      </trkpt>
      <trkpt lat="46.885638032108545" lon="11.111230971291661">
        <ele>2279.4200000000001</ele>
        <time>2018-09-17T10:49:10Z</time>
      </trkpt>
      <trkpt lat="46.885638032108545" lon="11.111230971291661">
        <ele>2278.9400000000001</ele>
        <time>2018-09-17T10:50:00Z</time>
      </trkpt>
      <trkpt lat="46.885779015719891" lon="11.111357035115361">
        <ele>2280.3800000000001</ele>
        <time>2018-09-17T10:50:20Z</time>
      </trkpt>
      <trkpt lat="46.886320989578962" lon="11.111714020371437">
        <ele>2279.9000000000001</ele>
        <time>2018-09-17T10:50:26Z</time>
      </trkpt>
      <trkpt lat="46.887480961158872" lon="11.112276026979089">
        <ele>2271.25</ele>
        <time>2018-09-17T10:50:33Z</time>
      </trkpt>
      <trkpt lat="46.888726009055972" lon="11.113228965550661">
        <ele>2256.8299999999999</ele>
        <time>2018-09-17T10:50:41Z</time>
      </trkpt>
      <trkpt lat="46.888855006545782" lon="11.113387970253825">
        <ele>2254.9099999999999</ele>
        <time>2018-09-17T10:50:42Z</time>
      </trkpt>
      <trkpt lat="46.888932958245277" lon="11.113578993827105">
        <ele>2252.9899999999998</ele>
        <time>2018-09-17T10:50:43Z</time>
      </trkpt>
      <trkpt lat="46.889027003198862" lon="11.113807987421751">
        <ele>2251.0599999999999</ele>
        <time>2018-09-17T10:50:44Z</time>
      </trkpt>
      <trkpt lat="46.889082994312048" lon="11.11402097158134">
        <ele>2249.6199999999999</ele>
        <time>2018-09-17T10:50:45Z</time>
      </trkpt>
      <trkpt lat="46.889637960121036" lon="11.116322977468371">
        <ele>2232.3200000000002</ele>
        <time>2018-09-17T10:50:54Z</time>
      </trkpt>
      <trkpt lat="46.889768969267607" lon="11.1169190146029">
        <ele>2227.5100000000002</ele>
        <time>2018-09-17T10:50:57Z</time>
      </trkpt>
      <trkpt lat="46.889843987300992" lon="11.117056980729103">
        <ele>2225.5900000000001</ele>
        <time>2018-09-17T10:50:58Z</time>
      </trkpt>
      <trkpt lat="46.889928979799151" lon="11.117180027067661">
        <ele>2224.6300000000001</ele>
        <time>2018-09-17T10:50:59Z</time>
      </trkpt>
      <trkpt lat="46.890595005825162" lon="11.117885028943419">
        <ele>2215.5</ele>
        <time>2018-09-17T10:51:05Z</time>
      </trkpt>
      <trkpt lat="46.89071998000145" lon="11.117982007563114">
        <ele>2214.0500000000002</ele>
        <time>2018-09-17T10:51:06Z</time>
      </trkpt>
      <trkpt lat="46.890845960006118" lon="11.118063982576132">
        <ele>2212.6100000000001</ele>
        <time>2018-09-17T10:51:07Z</time>
      </trkpt>
      <trkpt lat="46.890965988859534" lon="11.118141012266278">
        <ele>2211.6500000000001</ele>
        <time>2018-09-17T10:51:08Z</time>
      </trkpt>
      <trkpt lat="46.89106397330761" lon="11.118262968957424">
        <ele>2210.21</ele>
        <time>2018-09-17T10:51:09Z</time>
      </trkpt>
      <trkpt lat="46.891153994947672" lon="11.11840202473104">
        <ele>2208.77</ele>
        <time>2018-09-17T10:51:10Z</time>
      </trkpt>
      <trkpt lat="46.891332026571035" lon="11.118678962811828">
        <ele>2205.8800000000001</ele>
        <time>2018-09-17T10:51:12Z</time>
      </trkpt>
      <trkpt lat="46.891436967998743" lon="11.118798991665244">
        <ele>2204.4400000000001</ele>
        <time>2018-09-17T10:51:13Z</time>
      </trkpt>
      <trkpt lat="46.892226962372661" lon="11.119351023808122">
        <ele>2195.79</ele>
        <time>2018-09-17T10:51:19Z</time>
      </trkpt>
      <trkpt lat="46.892416980117559" lon="11.119558978825808">
        <ele>2193.3899999999999</ele>
        <time>2018-09-17T10:51:21Z</time>
      </trkpt>
      <trkpt lat="46.892525022849441" lon="11.119600972160697">
        <ele>2191.9400000000001</ele>
        <time>2018-09-17T10:51:22Z</time>
      </trkpt>
      <trkpt lat="46.892625018954277" lon="11.119639026001096">
        <ele>2190.98</ele>
        <time>2018-09-17T10:51:23Z</time>
      </trkpt>
      <trkpt lat="46.89310303889215" lon="11.119817979633808">
        <ele>2185.21</ele>
        <time>2018-09-17T10:51:28Z</time>
      </trkpt>
      <trkpt lat="46.89318903721869" lon="11.119877994060516">
        <ele>2184.25</ele>
        <time>2018-09-17T10:51:29Z</time>
      </trkpt>
      <trkpt lat="46.893270006403327" lon="11.119943037629128">
        <ele>2182.8099999999999</ele>
        <time>2018-09-17T10:51:30Z</time>
      </trkpt>
      <trkpt lat="46.893335971981287" lon="11.120023000985384">
        <ele>2181.8499999999999</ele>
        <time>2018-09-17T10:51:31Z</time>
      </trkpt>
      <trkpt lat="46.893387017771602" lon="11.120141018182039">
        <ele>2180.8899999999999</ele>
        <time>2018-09-17T10:51:32Z</time>
      </trkpt>
      <trkpt lat="46.893418030813336" lon="11.120247971266508">
        <ele>2179.9299999999998</ele>
        <time>2018-09-17T10:51:33Z</time>
      </trkpt>
      <trkpt lat="46.893451977521181" lon="11.120362970978022">
        <ele>2178.9699999999998</ele>
        <time>2018-09-17T10:51:34Z</time>
      </trkpt>
      <trkpt lat="46.893489025533199" lon="11.120490962639451">
        <ele>2178</ele>
        <time>2018-09-17T10:51:35Z</time>
      </trkpt>
      <trkpt lat="46.893544010818005" lon="11.120617026463151">
        <ele>2177.04</ele>
        <time>2018-09-17T10:51:36Z</time>
      </trkpt>
      <trkpt lat="46.893623974174261" lon="11.120735965669155">
        <ele>2176.0799999999999</ele>
        <time>2018-09-17T10:51:37Z</time>
      </trkpt>
      <trkpt lat="46.893720030784607" lon="11.120848031714559">
        <ele>2175.1199999999999</ele>
        <time>2018-09-17T10:51:38Z</time>
      </trkpt>
      <trkpt lat="46.893827989697456" lon="11.120964959263802">
        <ele>2173.6799999999998</ele>
        <time>2018-09-17T10:51:39Z</time>
      </trkpt>
      <trkpt lat="46.894170977175236" lon="11.121322028338909">
        <ele>2169.8299999999999</ele>
        <time>2018-09-17T10:51:42Z</time>
      </trkpt>
      <trkpt lat="46.894411034882069" lon="11.121482038870454">
        <ele>2167.4299999999998</ele>
        <time>2018-09-17T10:51:44Z</time>
      </trkpt>
      <trkpt lat="46.894507007673383" lon="11.121592009440064">
        <ele>2166.4699999999998</ele>
        <time>2018-09-17T10:51:45Z</time>
      </trkpt>
      <trkpt lat="46.894661989063025" lon="11.121822008863091">
        <ele>2163.5799999999999</ele>
        <time>2018-09-17T10:51:47Z</time>
      </trkpt>
      <trkpt lat="46.894753016531467" lon="11.121884034946561">
        <ele>2162.6199999999999</ele>
        <time>2018-09-17T10:51:48Z</time>
      </trkpt>
      <trkpt lat="46.894843960180879" lon="11.12194798886776">
        <ele>2161.1799999999998</ele>
        <time>2018-09-17T10:51:49Z</time>
      </trkpt>
      <trkpt lat="46.895074965432286" lon="11.122109005227685">
        <ele>2157.3400000000001</ele>
        <time>2018-09-17T10:51:52Z</time>
      </trkpt>
      <trkpt lat="46.89512399956584" lon="11.122142029926181">
        <ele>2156.3699999999999</ele>
        <time>2018-09-17T10:51:53Z</time>
      </trkpt>
      <trkpt lat="46.89514797180891" lon="11.122187962755561">
        <ele>2154.9299999999998</ele>
        <time>2018-09-17T10:51:54Z</time>
      </trkpt>
      <trkpt lat="46.895163981243968" lon="11.122284019365907">
        <ele>2153.9699999999998</ele>
        <time>2018-09-17T10:51:55Z</time>
      </trkpt>
      <trkpt lat="46.8951450381428" lon="11.122321989387274">
        <ele>2153.0100000000002</ele>
        <time>2018-09-17T10:51:56Z</time>
      </trkpt>
      <trkpt lat="46.8950380012393" lon="11.122290976345539">
        <ele>2152.0500000000002</ele>
        <time>2018-09-17T10:51:57Z</time>
      </trkpt>
      <trkpt lat="46.894967006519437" lon="11.122265998274088">
        <ele>2151.5700000000002</ele>
        <time>2018-09-17T10:51:58Z</time>
      </trkpt>
      <trkpt lat="46.894622007384896" lon="11.122130965813994">
        <ele>2149.6500000000001</ele>
        <time>2018-09-17T10:52:01Z</time>
      </trkpt>
      <trkpt lat="46.894202996045351" lon="11.121823014691472">
        <ele>2146.7600000000002</ele>
        <time>2018-09-17T10:52:04Z</time>
      </trkpt>
      <trkpt lat="46.892892988398671" lon="11.121319010853767">
        <ele>2135.71</ele>
        <time>2018-09-17T10:52:11Z</time>
      </trkpt>
      <trkpt lat="46.892355959862471" lon="11.12106503918767">
        <ele>2129.9400000000001</ele>
        <time>2018-09-17T10:52:14Z</time>
      </trkpt>
      <trkpt lat="46.892178012058139" lon="11.120980968698859">
        <ele>2127.5300000000002</ele>
        <time>2018-09-17T10:52:15Z</time>
      </trkpt>
      <trkpt lat="46.892002997919917" lon="11.12089698202908">
        <ele>2125.6100000000001</ele>
        <time>2018-09-17T10:52:16Z</time>
      </trkpt>
      <trkpt lat="46.891501005738974" lon="11.120652984827757">
        <ele>2119.3600000000001</ele>
        <time>2018-09-17T10:52:19Z</time>
      </trkpt>
      <trkpt lat="46.89132196828723" lon="11.120643010362983">
        <ele>2117.4400000000001</ele>
        <time>2018-09-17T10:52:20Z</time>
      </trkpt>
      <trkpt lat="46.889913976192474" lon="11.120461961254478">
        <ele>2101.0999999999999</ele>
        <time>2018-09-17T10:52:28Z</time>
      </trkpt>
      <trkpt lat="46.889786990359426" lon="11.120370011776686">
        <ele>2099.1799999999998</ele>
        <time>2018-09-17T10:52:29Z</time>
      </trkpt>
      <trkpt lat="46.889293966814876" lon="11.119978995993733">
        <ele>2091.4899999999998</ele>
        <time>2018-09-17T10:52:33Z</time>
      </trkpt>
      <trkpt lat="46.889206040650606" lon="11.119855027645826">
        <ele>2090.04</ele>
        <time>2018-09-17T10:52:34Z</time>
      </trkpt>
      <trkpt lat="46.889124987646937" lon="11.119700968265533">
        <ele>2088.5999999999999</ele>
        <time>2018-09-17T10:52:35Z</time>
      </trkpt>
      <trkpt lat="46.889027003198862" lon="11.119515979662538">
        <ele>2087.1599999999999</ele>
        <time>2018-09-17T10:52:36Z</time>
      </trkpt>
      <trkpt lat="46.888905968517065" lon="11.119378013536334">
        <ele>2085.2399999999998</ele>
        <time>2018-09-17T10:52:37Z</time>
      </trkpt>
      <trkpt lat="46.888654008507729" lon="11.119087999686599">
        <ele>2083.3099999999999</ele>
        <time>2018-09-17T10:52:39Z</time>
      </trkpt>
      <trkpt lat="46.888542026281357" lon="11.118922960013151">
        <ele>2081.8699999999999</ele>
        <time>2018-09-17T10:52:40Z</time>
      </trkpt>
      <trkpt lat="46.8883359991014" lon="11.118548959493637">
        <ele>2078.9899999999998</ele>
        <time>2018-09-17T10:52:42Z</time>
      </trkpt>
      <trkpt lat="46.88822602853179" lon="11.118377968668938">
        <ele>2077.5500000000002</ele>
        <time>2018-09-17T10:52:43Z</time>
      </trkpt>
      <trkpt lat="46.888079009950161" lon="11.118261963129044">
        <ele>2075.6199999999999</ele>
        <time>2018-09-17T10:52:44Z</time>
      </trkpt>
      <trkpt lat="46.887187007814646" lon="11.117367027327418">
        <ele>2066.0100000000002</ele>
        <time>2018-09-17T10:52:50Z</time>
      </trkpt>
      <trkpt lat="46.886462979018688" lon="11.116432026028633">
        <ele>2058.3200000000002</ele>
        <time>2018-09-17T10:52:55Z</time>
      </trkpt>
      <trkpt lat="46.886291988193989" lon="11.116311997175217">
        <ele>2056.4000000000001</ele>
        <time>2018-09-17T10:52:56Z</time>
      </trkpt>
      <trkpt lat="46.886118985712528" lon="11.11619096249342">
        <ele>2054.96</ele>
        <time>2018-09-17T10:52:57Z</time>
      </trkpt>
      <trkpt lat="46.885105026885867" lon="11.11573901027441">
        <ele>2048.71</ele>
        <time>2018-09-17T10:53:03Z</time>
      </trkpt>
      <trkpt lat="46.884971000254154" lon="11.11573901027441">
        <ele>2047.75</ele>
        <time>2018-09-17T10:53:04Z</time>
      </trkpt>
      <trkpt lat="46.884837979450822" lon="11.115773040801287">
        <ele>2047.26</ele>
        <time>2018-09-17T10:53:05Z</time>
      </trkpt>
      <trkpt lat="46.884478982537985" lon="11.115861972793937">
        <ele>2044.8599999999999</ele>
        <time>2018-09-17T10:53:08Z</time>
      </trkpt>
      <trkpt lat="46.884364988654852" lon="11.115820985287428">
        <ele>2044.3800000000001</ele>
        <time>2018-09-17T10:53:09Z</time>
      </trkpt>
      <trkpt lat="46.884257029742002" lon="11.115763988345861">
        <ele>2043.9000000000001</ele>
        <time>2018-09-17T10:53:10Z</time>
      </trkpt>
      <trkpt lat="46.884028958156705" lon="11.115643959492445">
        <ele>2042.9400000000001</ele>
        <time>2018-09-17T10:53:12Z</time>
      </trkpt>
      <trkpt lat="46.88390800729394" lon="11.115627028048038">
        <ele>2041.98</ele>
        <time>2018-09-17T10:53:13Z</time>
      </trkpt>
      <trkpt lat="46.88367297872901" lon="11.115613030269742">
        <ele>2041.02</ele>
        <time>2018-09-17T10:53:15Z</time>
      </trkpt>
      <trkpt lat="46.883557979017496" lon="11.115539018064737">
        <ele>2040.05</ele>
        <time>2018-09-17T10:53:16Z</time>
      </trkpt>
      <trkpt lat="46.883450020104647" lon="11.115443967282772">
        <ele>2039.5699999999999</ele>
        <time>2018-09-17T10:53:17Z</time>
      </trkpt>
      <trkpt lat="46.882969988510013" lon="11.115024033933878">
        <ele>2037.1700000000001</ele>
        <time>2018-09-17T10:53:22Z</time>
      </trkpt>
      <trkpt lat="46.882921038195491" lon="11.114911967888474">
        <ele>2036.6900000000001</ele>
        <time>2018-09-17T10:53:23Z</time>
      </trkpt>
      <trkpt lat="46.882886001840234" lon="11.114800991490483">
        <ele>2036.21</ele>
        <time>2018-09-17T10:53:24Z</time>
      </trkpt>
      <trkpt lat="46.88285599462688" lon="11.114682974293828">
        <ele>2035.73</ele>
        <time>2018-09-17T10:53:25Z</time>
      </trkpt>
      <trkpt lat="46.882823975756764" lon="11.114560011774302">
        <ele>2035.25</ele>
        <time>2018-09-17T10:53:26Z</time>
      </trkpt>
      <trkpt lat="46.882586013525724" lon="11.113610006868839">
        <ele>2029.96</ele>
        <time>2018-09-17T10:53:34Z</time>
      </trkpt>
      <trkpt lat="46.882561035454273" lon="11.113414959982038">
        <ele>2029.48</ele>
        <time>2018-09-17T10:53:35Z</time>
      </trkpt>
      <trkpt lat="46.882316032424569" lon="11.112260017544031">
        <ele>2025.1500000000001</ele>
        <time>2018-09-17T10:53:41Z</time>
      </trkpt>
      <trkpt lat="46.882256017997861" lon="11.11214904114604">
        <ele>2024.6700000000001</ele>
        <time>2018-09-17T10:53:42Z</time>
      </trkpt>
      <trkpt lat="46.882203966379166" lon="11.112059019505978">
        <ele>2024.1900000000001</ele>
        <time>2018-09-17T10:53:43Z</time>
      </trkpt>
      <trkpt lat="46.882161973044276" lon="11.111987018957734">
        <ele>2024.1900000000001</ele>
        <time>2018-09-17T10:53:44Z</time>
      </trkpt>
      <trkpt lat="46.882117968052626" lon="11.112001016736031">
        <ele>2023.71</ele>
        <time>2018-09-17T10:53:45Z</time>
      </trkpt>
      <trkpt lat="46.882073963060975" lon="11.112019037827849">
        <ele>2023.71</ele>
        <time>2018-09-17T10:53:46Z</time>
      </trkpt>
      <trkpt lat="46.882063988596201" lon="11.112064970657229">
        <ele>2023.71</ele>
        <time>2018-09-17T10:53:47Z</time>
      </trkpt>
      <trkpt lat="46.882086033001542" lon="11.112137977033854">
        <ele>2023.71</ele>
        <time>2018-09-17T10:53:48Z</time>
      </trkpt>
      <trkpt lat="46.882113022729754" lon="11.112230010330677">
        <ele>2023.71</ele>
        <time>2018-09-17T10:53:49Z</time>
      </trkpt>
      <trkpt lat="46.882143029943109" lon="11.112331012263894">
        <ele>2023.23</ele>
        <time>2018-09-17T10:53:50Z</time>
      </trkpt>
      <trkpt lat="46.882173959165812" lon="11.112437965348363">
        <ele>2022.75</ele>
        <time>2018-09-17T10:53:51Z</time>
      </trkpt>
      <trkpt lat="46.882259035483003" lon="11.112725967541337">
        <ele>2020.8299999999999</ele>
        <time>2018-09-17T10:53:53Z</time>
      </trkpt>
      <trkpt lat="46.882312009111047" lon="11.112903999164701">
        <ele>2019.3900000000001</ele>
        <time>2018-09-17T10:53:54Z</time>
      </trkpt>
      <trkpt lat="46.882337993010879" lon="11.113115977495909">
        <ele>2018.4300000000001</ele>
        <time>2018-09-17T10:53:55Z</time>
      </trkpt>
      <trkpt lat="46.882370011880994" lon="11.113809999078512">
        <ele>2013.6199999999999</ele>
        <time>2018-09-17T10:53:58Z</time>
      </trkpt>
      <trkpt lat="46.882397001609206" lon="11.114027006551623">
        <ele>2012.1800000000001</ele>
        <time>2018-09-17T10:53:59Z</time>
      </trkpt>
      <trkpt lat="46.882436983287334" lon="11.114225992932916">
        <ele>2010.73</ele>
        <time>2018-09-17T10:54:00Z</time>
      </trkpt>
      <trkpt lat="46.882546031847596" lon="11.11477299593389">
        <ele>2003.52</ele>
        <time>2018-09-17T10:54:04Z</time>
      </trkpt>
      <trkpt lat="46.882530022412539" lon="11.114839967340231">
        <ele>2002.0799999999999</ele>
        <time>2018-09-17T10:54:05Z</time>
      </trkpt>
      <trkpt lat="46.882515018805861" lon="11.11490098759532">
        <ele>2000.6400000000001</ele>
        <time>2018-09-17T10:54:06Z</time>
      </trkpt>
      <trkpt lat="46.882504960522056" lon="11.114939963445067">
        <ele>1999.6800000000001</ele>
        <time>2018-09-17T10:54:07Z</time>
      </trkpt>
      <trkpt lat="46.88249297440052" lon="11.114926971495152">
        <ele>1998.72</ele>
        <time>2018-09-17T10:54:08Z</time>
      </trkpt>
      <trkpt lat="46.882472019642591" lon="11.114890007302165">
        <ele>1997.76</ele>
        <time>2018-09-17T10:54:09Z</time>
      </trkpt>
      <trkpt lat="46.882418040186167" lon="11.114795040339231">
        <ele>1996.8</ele>
        <time>2018-09-17T10:54:10Z</time>
      </trkpt>
      <trkpt lat="46.882408987730742" lon="11.114758998155594">
        <ele>1996.3199999999999</ele>
        <time>2018-09-17T10:54:11Z</time>
      </trkpt>
      <trkpt lat="46.882220981642604" lon="11.113992976024747">
        <ele>1990.55</ele>
        <time>2018-09-17T10:54:17Z</time>
      </trkpt>
      <trkpt lat="46.881830971688032" lon="11.112894024699926">
        <ele>1981.4100000000001</ele>
        <time>2018-09-17T10:54:25Z</time>
      </trkpt>
      <trkpt lat="46.88178202137351" lon="11.11283702775836">
        <ele>1980.45</ele>
        <time>2018-09-17T10:54:26Z</time>
      </trkpt>
      <trkpt lat="46.881730975583196" lon="11.112778019160032">
        <ele>1979.49</ele>
        <time>2018-09-17T10:54:27Z</time>
      </trkpt>
      <trkpt lat="46.881703985854983" lon="11.112792016938329">
        <ele>1979.01</ele>
        <time>2018-09-17T10:54:28Z</time>
      </trkpt>
      <trkpt lat="46.881682025268674" lon="11.11283803358674">
        <ele>1978.05</ele>
        <time>2018-09-17T10:54:29Z</time>
      </trkpt>
      <trkpt lat="46.881672972813249" lon="11.112891007214785">
        <ele>1977.0899999999999</ele>
        <time>2018-09-17T10:54:30Z</time>
      </trkpt>
      <trkpt lat="46.881667021661997" lon="11.112929983064532">
        <ele>1976.6099999999999</ele>
        <time>2018-09-17T10:54:31Z</time>
      </trkpt>
      <trkpt lat="46.881686970591545" lon="11.112983962520957">
        <ele>1975.6500000000001</ele>
        <time>2018-09-17T10:54:32Z</time>
      </trkpt>
      <trkpt lat="46.881707003340125" lon="11.113039031624794">
        <ele>1975.1700000000001</ele>
        <time>2018-09-17T10:54:33Z</time>
      </trkpt>
      <trkpt lat="46.881727036088705" lon="11.11309502273798">
        <ele>1974.6900000000001</ele>
        <time>2018-09-17T10:54:34Z</time>
      </trkpt>
      <trkpt lat="46.881748996675014" lon="11.113154031336308">
        <ele>1974.2</ele>
        <time>2018-09-17T10:54:35Z</time>
      </trkpt>
      <trkpt lat="46.881770035251975" lon="11.113213961943984">
        <ele>1973.72</ele>
        <time>2018-09-17T10:54:36Z</time>
      </trkpt>
      <trkpt lat="46.881796019151807" lon="11.113285040482879">
        <ele>1973.24</ele>
        <time>2018-09-17T10:54:37Z</time>
      </trkpt>
      <trkpt lat="46.881866008043289" lon="11.113475980237126">
        <ele>1972.28</ele>
        <time>2018-09-17T10:54:39Z</time>
      </trkpt>
      <trkpt lat="46.881908001378179" lon="11.11359198577702">
        <ele>1971.3199999999999</ele>
        <time>2018-09-17T10:54:40Z</time>
      </trkpt>
      <trkpt lat="46.882047979161143" lon="11.114828987047076">
        <ele>1962.1900000000001</ele>
        <time>2018-09-17T10:54:48Z</time>
      </trkpt>
      <trkpt lat="46.882070023566484" lon="11.114948010072112">
        <ele>1960.75</ele>
        <time>2018-09-17T10:54:49Z</time>
      </trkpt>
      <trkpt lat="46.882101036608219" lon="11.115066027268767">
        <ele>1960.27</ele>
        <time>2018-09-17T10:54:50Z</time>
      </trkpt>
      <trkpt lat="46.882156021893024" lon="11.115276999771595">
        <ele>1958.3399999999999</ele>
        <time>2018-09-17T10:54:52Z</time>
      </trkpt>
      <trkpt lat="46.882175970822573" lon="11.11535201780498">
        <ele>1957.3800000000001</ele>
        <time>2018-09-17T10:54:53Z</time>
      </trkpt>
      <trkpt lat="46.882165996357799" lon="11.115407003089786">
        <ele>1956.4200000000001</ele>
        <time>2018-09-17T10:54:54Z</time>
      </trkpt>
      <trkpt lat="46.882128026336432" lon="11.115455031394958">
        <ele>1955.46</ele>
        <time>2018-09-17T10:54:55Z</time>
      </trkpt>
      <trkpt lat="46.882096007466316" lon="11.115439021959901">
        <ele>1954.98</ele>
        <time>2018-09-17T10:54:56Z</time>
      </trkpt>
      <trkpt lat="46.882070023566484" lon="11.115362998098135">
        <ele>1954.5</ele>
        <time>2018-09-17T10:54:57Z</time>
      </trkpt>
      <trkpt lat="46.882036998867989" lon="11.115268031135201">
        <ele>1954.02</ele>
        <time>2018-09-17T10:54:58Z</time>
      </trkpt>
      <trkpt lat="46.881995005533099" lon="11.115146996453404">
        <ele>1953.54</ele>
        <time>2018-09-17T10:54:59Z</time>
      </trkpt>
      <trkpt lat="46.88165201805532" lon="11.114187017083168">
        <ele>1948.73</ele>
        <time>2018-09-17T10:55:06Z</time>
      </trkpt>
      <trkpt lat="46.881613964214921" lon="11.114109987393022">
        <ele>1948.25</ele>
        <time>2018-09-17T10:55:07Z</time>
      </trkpt>
      <trkpt lat="46.881577000021935" lon="11.11410403624177">
        <ele>1947.77</ele>
        <time>2018-09-17T10:55:08Z</time>
      </trkpt>
      <trkpt lat="46.881538024172187" lon="11.114130020141602">
        <ele>1947.77</ele>
        <time>2018-09-17T10:55:09Z</time>
      </trkpt>
      <trkpt lat="46.881551016122103" lon="11.114182993769646">
        <ele>1947.29</ele>
        <time>2018-09-17T10:55:10Z</time>
      </trkpt>
      <trkpt lat="46.881574988365173" lon="11.114277960732579">
        <ele>1946.3299999999999</ele>
        <time>2018-09-17T10:55:11Z</time>
      </trkpt>
      <trkpt lat="46.881606001406908" lon="11.114402012899518">
        <ele>1945.8499999999999</ele>
        <time>2018-09-17T10:55:12Z</time>
      </trkpt>
      <trkpt lat="46.88186801970005" lon="11.115457965061069">
        <ele>1939.1199999999999</ele>
        <time>2018-09-17T10:55:18Z</time>
      </trkpt>
      <trkpt lat="46.881926022469997" lon="11.115538012236357">
        <ele>1937.6700000000001</ele>
        <time>2018-09-17T10:55:19Z</time>
      </trkpt>
      <trkpt lat="46.882013026624918" lon="11.115602971985936">
        <ele>1936.71</ele>
        <time>2018-09-17T10:55:20Z</time>
      </trkpt>
      <trkpt lat="46.882218969985843" lon="11.115758959203959">
        <ele>1934.79</ele>
        <time>2018-09-17T10:55:22Z</time>
      </trkpt>
      <trkpt lat="46.882344027981162" lon="11.115854009985924">
        <ele>1933.8299999999999</ele>
        <time>2018-09-17T10:55:23Z</time>
      </trkpt>
      <trkpt lat="46.882475959137082" lon="11.11595300026238">
        <ele>1932.3900000000001</ele>
        <time>2018-09-17T10:55:24Z</time>
      </trkpt>
      <trkpt lat="46.882609985768795" lon="11.116049978882074">
        <ele>1930.95</ele>
        <time>2018-09-17T10:55:25Z</time>
      </trkpt>
      <trkpt lat="46.882751975208521" lon="11.116118039935827">
        <ele>1929.98</ele>
        <time>2018-09-17T10:55:26Z</time>
      </trkpt>
      <trkpt lat="46.882890025153756" lon="11.116184005513787">
        <ele>1928.54</ele>
        <time>2018-09-17T10:55:27Z</time>
      </trkpt>
      <trkpt lat="46.883020028471947" lon="11.116247037425637">
        <ele>1927.0999999999999</ele>
        <time>2018-09-17T10:55:28Z</time>
      </trkpt>
      <trkpt lat="46.883140979334712" lon="11.116305040195584">
        <ele>1925.6600000000001</ele>
        <time>2018-09-17T10:55:29Z</time>
      </trkpt>
      <trkpt lat="46.883240975439548" lon="11.11642599105835">
        <ele>1924.22</ele>
        <time>2018-09-17T10:55:30Z</time>
      </trkpt>
      <trkpt lat="46.883326973766088" lon="11.116557000204921">
        <ele>1923.25</ele>
        <time>2018-09-17T10:55:31Z</time>
      </trkpt>
      <trkpt lat="46.883395034819841" lon="11.116717010736465">
        <ele>1921.3299999999999</ele>
        <time>2018-09-17T10:55:32Z</time>
      </trkpt>
      <trkpt lat="46.883422024548054" lon="11.116901999339461">
        <ele>1920.3699999999999</ele>
        <time>2018-09-17T10:55:33Z</time>
      </trkpt>
      <trkpt lat="46.883450020104647" lon="11.117088999599218">
        <ele>1918.9300000000001</ele>
        <time>2018-09-17T10:55:34Z</time>
      </trkpt>
      <trkpt lat="46.883477009832859" lon="11.117271976545453">
        <ele>1917.49</ele>
        <time>2018-09-17T10:55:35Z</time>
      </trkpt>
      <trkpt lat="46.883523026481271" lon="11.117580011487007">
        <ele>1914.5999999999999</ele>
        <time>2018-09-17T10:55:37Z</time>
      </trkpt>
      <trkpt lat="46.883576000109315" lon="11.117699034512043">
        <ele>1913.1600000000001</ele>
        <time>2018-09-17T10:55:38Z</time>
      </trkpt>
      <trkpt lat="46.883659986779094" lon="11.117797018960118">
        <ele>1912.2</ele>
        <time>2018-09-17T10:55:39Z</time>
      </trkpt>
      <trkpt lat="46.883752020075917" lon="11.117904977872968">
        <ele>1910.76</ele>
        <time>2018-09-17T10:55:40Z</time>
      </trkpt>
      <trkpt lat="46.883867019787431" lon="11.117991982027888">
        <ele>1909.3199999999999</ele>
        <time>2018-09-17T10:55:41Z</time>
      </trkpt>
      <trkpt lat="46.883999034762383" lon="11.118065994232893">
        <ele>1907.8699999999999</ele>
        <time>2018-09-17T10:55:42Z</time>
      </trkpt>
      <trkpt lat="46.88414303585887" lon="11.118151992559433">
        <ele>1906.4300000000001</ele>
        <time>2018-09-17T10:55:43Z</time>
      </trkpt>
      <trkpt lat="46.884270021691918" lon="11.118286019191146">
        <ele>1904.51</ele>
        <time>2018-09-17T10:55:44Z</time>
      </trkpt>
      <trkpt lat="46.885197982192039" lon="11.119072996079922">
        <ele>1891.53</ele>
        <time>2018-09-17T10:55:51Z</time>
      </trkpt>
      <trkpt lat="46.88526201993227" lon="11.119122030213475">
        <ele>1890.0899999999999</ele>
        <time>2018-09-17T10:55:52Z</time>
      </trkpt>
      <trkpt lat="46.885310970246792" lon="11.119106020778418">
        <ele>1888.6500000000001</ele>
        <time>2018-09-17T10:55:53Z</time>
      </trkpt>
      <trkpt lat="46.885366961359978" lon="11.119070984423161">
        <ele>1887.6900000000001</ele>
        <time>2018-09-17T10:55:54Z</time>
      </trkpt>
      <trkpt lat="46.88543401658535" lon="11.119029996916652">
        <ele>1886.24</ele>
        <time>2018-09-17T10:55:55Z</time>
      </trkpt>
      <trkpt lat="46.885504005476832" lon="11.118986997753382">
        <ele>1885.28</ele>
        <time>2018-09-17T10:55:56Z</time>
      </trkpt>
      <trkpt lat="46.885578017681837" lon="11.118974005803466">
        <ele>1884.3199999999999</ele>
        <time>2018-09-17T10:55:57Z</time>
      </trkpt>
      <trkpt lat="46.8856490124017" lon="11.119013987481594">
        <ele>1882.8800000000001</ele>
        <time>2018-09-17T10:55:58Z</time>
      </trkpt>
      <trkpt lat="46.885719001293182" lon="11.119080958887935">
        <ele>1881.9200000000001</ele>
        <time>2018-09-17T10:55:59Z</time>
      </trkpt>
      <trkpt lat="46.885773986577988" lon="11.119191013276577">
        <ele>1880.96</ele>
        <time>2018-09-17T10:56:00Z</time>
      </trkpt>
      <trkpt lat="46.885851016268134" lon="11.119343983009458">
        <ele>1880</ele>
        <time>2018-09-17T10:56:01Z</time>
      </trkpt>
      <trkpt lat="46.88588697463274" lon="11.119471974670887">
        <ele>1879.03</ele>
        <time>2018-09-17T10:56:02Z</time>
      </trkpt>
      <trkpt lat="46.885928967967629" lon="11.119623016566038">
        <ele>1878.0699999999999</ele>
        <time>2018-09-17T10:56:03Z</time>
      </trkpt>
      <trkpt lat="46.885967021808028" lon="11.119760982692242">
        <ele>1877.1099999999999</ele>
        <time>2018-09-17T10:56:04Z</time>
      </trkpt>
      <trkpt lat="46.886008009314537" lon="11.119891991838813">
        <ele>1876.1500000000001</ele>
        <time>2018-09-17T10:56:05Z</time>
      </trkpt>
      <trkpt lat="46.886587031185627" lon="11.120884995907545">
        <ele>1867.98</ele>
        <time>2018-09-17T10:56:12Z</time>
      </trkpt>
      <trkpt lat="46.886718040332198" lon="11.121220020577312">
        <ele>1863.1700000000001</ele>
        <time>2018-09-17T10:56:15Z</time>
      </trkpt>
      <trkpt lat="46.886774031445384" lon="11.121361004188657">
        <ele>1861.73</ele>
        <time>2018-09-17T10:56:16Z</time>
      </trkpt>
      <trkpt lat="46.886760033667088" lon="11.1213259678334">
        <ele>1860.77</ele>
        <time>2018-09-17T10:56:17Z</time>
      </trkpt>
      <trkpt lat="46.886774031445384" lon="11.121361004188657">
        <ele>1859.3299999999999</ele>
        <time>2018-09-17T10:56:18Z</time>
      </trkpt>
      <trkpt lat="46.886774031445384" lon="11.121361004188657">
        <ele>1858.3699999999999</ele>
        <time>2018-09-17T10:56:19Z</time>
      </trkpt>
      <trkpt lat="46.886892970651388" lon="11.121510034427047">
        <ele>1856.9200000000001</ele>
        <time>2018-09-17T10:56:20Z</time>
      </trkpt>
      <trkpt lat="46.886996990069747" lon="11.121640959754586">
        <ele>1855.96</ele>
        <time>2018-09-17T10:56:21Z</time>
      </trkpt>
      <trkpt lat="46.887103021144867" lon="11.121772974729538">
        <ele>1854.04</ele>
        <time>2018-09-17T10:56:22Z</time>
      </trkpt>
      <trkpt lat="46.887246016412973" lon="11.121961986646056">
        <ele>1851.6400000000001</ele>
        <time>2018-09-17T10:56:23Z</time>
      </trkpt>
      <trkpt lat="46.887277029454708" lon="11.12210095860064">
        <ele>1849.71</ele>
        <time>2018-09-17T10:56:24Z</time>
      </trkpt>
      <trkpt lat="46.887318016961217" lon="11.122287958860397">
        <ele>1847.79</ele>
        <time>2018-09-17T10:56:25Z</time>
      </trkpt>
      <trkpt lat="46.887363027781248" lon="11.122491974383593">
        <ele>1846.3499999999999</ele>
        <time>2018-09-17T10:56:26Z</time>
      </trkpt>
      <trkpt lat="46.887620016932487" lon="11.123850010335445">
        <ele>1834.8099999999999</ele>
        <time>2018-09-17T10:56:34Z</time>
      </trkpt>
      <trkpt lat="46.887702997773886" lon="11.124305985867977">
        <ele>1828.0799999999999</ele>
        <time>2018-09-17T10:56:41Z</time>
      </trkpt>
      <trkpt lat="46.887718001380563" lon="11.124387038871646">
        <ele>1827.1199999999999</ele>
        <time>2018-09-17T10:56:42Z</time>
      </trkpt>
      <trkpt lat="46.887724958360195" lon="11.124438000842929">
        <ele>1823.28</ele>
        <time>2018-09-17T10:56:53Z</time>
      </trkpt>
      <trkpt lat="46.887724958360195" lon="11.124438000842929">
        <ele>1823.28</ele>
        <time>2018-09-17T10:57:24Z</time>
      </trkpt>
      <trkpt lat="46.887765023857355" lon="11.124712005257607">
        <ele>1821.3499999999999</ele>
        <time>2018-09-17T10:57:47Z</time>
      </trkpt>
      <trkpt lat="46.887873988598585" lon="11.125460006296635">
        <ele>1817.99</ele>
        <time>2018-09-17T10:57:52Z</time>
      </trkpt>
      <trkpt lat="46.887881029397249" lon="11.125624040141702">
        <ele>1817.51</ele>
        <time>2018-09-17T10:57:53Z</time>
      </trkpt>
      <trkpt lat="46.887809028849006" lon="11.126215970143676">
        <ele>1814.6300000000001</ele>
        <time>2018-09-17T10:57:57Z</time>
      </trkpt>
      <trkpt lat="46.887815985828638" lon="11.126313032582402">
        <ele>1814.1500000000001</ele>
        <time>2018-09-17T10:57:58Z</time>
      </trkpt>
      <trkpt lat="46.887822020798922" lon="11.126389978453517">
        <ele>1813.1800000000001</ele>
        <time>2018-09-17T10:57:59Z</time>
      </trkpt>
      <trkpt lat="46.887836018577218" lon="11.126441024243832">
        <ele>1812.7</ele>
        <time>2018-09-17T10:58:00Z</time>
      </trkpt>
      <trkpt lat="46.887858984991908" lon="11.126472037285566">
        <ele>1811.74</ele>
        <time>2018-09-17T10:58:01Z</time>
      </trkpt>
      <trkpt lat="46.887880023568869" lon="11.12650103867054">
        <ele>1811.26</ele>
        <time>2018-09-17T10:58:02Z</time>
      </trkpt>
      <trkpt lat="46.887915981933475" lon="11.126550994813442">
        <ele>1811.26</ele>
        <time>2018-09-17T10:58:03Z</time>
      </trkpt>
      <trkpt lat="46.887997034937143" lon="11.126660965383053">
        <ele>1810.3</ele>
        <time>2018-09-17T10:58:04Z</time>
      </trkpt>
      <trkpt lat="46.888036010786891" lon="11.126683009788394">
        <ele>1809.8199999999999</ele>
        <time>2018-09-17T10:58:05Z</time>
      </trkpt>
      <trkpt lat="46.888118991628289" lon="11.126728020608425">
        <ele>1809.8199999999999</ele>
        <time>2018-09-17T10:58:06Z</time>
      </trkpt>
      <trkpt lat="46.888204989954829" lon="11.126774959266186">
        <ele>1809.8199999999999</ele>
        <time>2018-09-17T10:58:07Z</time>
      </trkpt>
      <trkpt lat="46.888707987964153" lon="11.127048963680863">
        <ele>1809.3399999999999</ele>
        <time>2018-09-17T10:58:12Z</time>
      </trkpt>
      <trkpt lat="46.888820976018906" lon="11.127110989764333">
        <ele>1809.3399999999999</ele>
        <time>2018-09-17T10:58:13Z</time>
      </trkpt>
      <trkpt lat="46.888920972123742" lon="11.127165975049138">
        <ele>1809.8199999999999</ele>
        <time>2018-09-17T10:58:14Z</time>
      </trkpt>
      <trkpt lat="46.888965982943773" lon="11.12719003111124">
        <ele>1810.3</ele>
        <time>2018-09-17T10:58:15Z</time>
      </trkpt>
      <trkpt lat="46.889042006805539" lon="11.127231018617749">
        <ele>1809.8199999999999</ele>
        <time>2018-09-17T10:58:16Z</time>
      </trkpt>
      <trkpt lat="46.88923797570169" lon="11.127294972538948">
        <ele>1809.3399999999999</ele>
        <time>2018-09-17T10:58:17Z</time>
      </trkpt>
      <trkpt lat="46.889354987069964" lon="11.1272750236094">
        <ele>1808.8599999999999</ele>
        <time>2018-09-17T10:58:18Z</time>
      </trkpt>
      <trkpt lat="46.889477027580142" lon="11.127253985032439">
        <ele>1808.3800000000001</ele>
        <time>2018-09-17T10:58:19Z</time>
      </trkpt>
      <trkpt lat="46.889895033091307" lon="11.127182990312576">
        <ele>1805.49</ele>
        <time>2018-09-17T10:58:22Z</time>
      </trkpt>
      <trkpt lat="46.890056971460581" lon="11.127154994755983">
        <ele>1805.01</ele>
        <time>2018-09-17T10:58:23Z</time>
      </trkpt>
      <trkpt lat="46.891312999650836" lon="11.127352975308895">
        <ele>1799.73</ele>
        <time>2018-09-17T10:58:32Z</time>
      </trkpt>
      <trkpt lat="46.891440991312265" lon="11.127376025542617">
        <ele>1799.24</ele>
        <time>2018-09-17T10:58:33Z</time>
      </trkpt>
      <trkpt lat="46.891577029600739" lon="11.127430004999042">
        <ele>1798.76</ele>
        <time>2018-09-17T10:58:34Z</time>
      </trkpt>
      <trkpt lat="46.891848016530275" lon="11.127605019137263">
        <ele>1797.3199999999999</ele>
        <time>2018-09-17T10:58:36Z</time>
      </trkpt>
      <trkpt lat="46.89201096072793" lon="11.127709960564971">
        <ele>1796.8399999999999</ele>
        <time>2018-09-17T10:58:37Z</time>
      </trkpt>
      <trkpt lat="46.892170971259475" lon="11.127812974154949">
        <ele>1795.8800000000001</ele>
        <time>2018-09-17T10:58:38Z</time>
      </trkpt>
      <trkpt lat="46.892322013154626" lon="11.127910036593676">
        <ele>1795.4000000000001</ele>
        <time>2018-09-17T10:58:39Z</time>
      </trkpt>
      <trkpt lat="46.89248101785779" lon="11.128012966364622">
        <ele>1795.4000000000001</ele>
        <time>2018-09-17T10:58:40Z</time>
      </trkpt>
      <trkpt lat="46.892585037276149" lon="11.12805001437664">
        <ele>1794.9200000000001</ele>
        <time>2018-09-17T10:58:41Z</time>
      </trkpt>
      <trkpt lat="46.894081961363554" lon="11.128385961055756">
        <ele>1782.9000000000001</ele>
        <time>2018-09-17T10:58:50Z</time>
      </trkpt>
      <trkpt lat="46.895083012059331" lon="11.12863196991384">
        <ele>1773.77</ele>
        <time>2018-09-17T10:58:56Z</time>
      </trkpt>
      <trkpt lat="46.89523296430707" lon="11.128708999603987">
        <ele>1772.3299999999999</ele>
        <time>2018-09-17T10:58:57Z</time>
      </trkpt>
      <trkpt lat="46.896186992526054" lon="11.129262959584594">
        <ele>1761.27</ele>
        <time>2018-09-17T10:59:04Z</time>
      </trkpt>
      <trkpt lat="46.896276008337736" lon="11.12931601703167">
        <ele>1759.8299999999999</ele>
        <time>2018-09-17T10:59:05Z</time>
      </trkpt>
      <trkpt lat="46.896358989179134" lon="11.129390029236674">
        <ele>1758.8699999999999</ele>
        <time>2018-09-17T10:59:06Z</time>
      </trkpt>
      <trkpt lat="46.896408023312688" lon="11.129524977877736">
        <ele>1758.3900000000001</ele>
        <time>2018-09-17T10:59:07Z</time>
      </trkpt>
      <trkpt lat="46.896408023312688" lon="11.129620028659701">
        <ele>1756.95</ele>
        <time>2018-09-17T10:59:08Z</time>
      </trkpt>
      <trkpt lat="46.896408023312688" lon="11.129708038643003">
        <ele>1756.47</ele>
        <time>2018-09-17T10:59:09Z</time>
      </trkpt>
      <trkpt lat="46.896382039412856" lon="11.129825972020626">
        <ele>1755.5</ele>
        <time>2018-09-17T10:59:10Z</time>
      </trkpt>
      <trkpt lat="46.896365024149418" lon="11.129901995882392">
        <ele>1755.02</ele>
        <time>2018-09-17T10:59:11Z</time>
      </trkpt>
      <trkpt lat="46.896312972530723" lon="11.129947006702423">
        <ele>1754.0599999999999</ele>
        <time>2018-09-17T10:59:12Z</time>
      </trkpt>
      <trkpt lat="46.896255975589156" lon="11.129995035007596">
        <ele>1753.5799999999999</ele>
        <time>2018-09-17T10:59:13Z</time>
      </trkpt>
      <trkpt lat="46.896205013617873" lon="11.130024958401918">
        <ele>1752.6199999999999</ele>
        <time>2018-09-17T10:59:14Z</time>
      </trkpt>
      <trkpt lat="46.89611398614943" lon="11.129980031400919">
        <ele>1751.6600000000001</ele>
        <time>2018-09-17T10:59:15Z</time>
      </trkpt>
      <trkpt lat="46.895994041115046" lon="11.129920016974211">
        <ele>1750.7</ele>
        <time>2018-09-17T10:59:16Z</time>
      </trkpt>
      <trkpt lat="46.895615011453629" lon="11.129751037806273">
        <ele>1746.8499999999999</ele>
        <time>2018-09-17T10:59:19Z</time>
      </trkpt>
      <trkpt lat="46.895506968721747" lon="11.129751037806273">
        <ele>1745.4100000000001</ele>
        <time>2018-09-17T10:59:20Z</time>
      </trkpt>
      <trkpt lat="46.895375959575176" lon="11.129800993949175">
        <ele>1744.45</ele>
        <time>2018-09-17T10:59:21Z</time>
      </trkpt>
      <trkpt lat="46.894638016819954" lon="11.130138030275702">
        <ele>1738.2</ele>
        <time>2018-09-17T10:59:26Z</time>
      </trkpt>
      <trkpt lat="46.894485969096422" lon="11.130254035815597">
        <ele>1737.24</ele>
        <time>2018-09-17T10:59:27Z</time>
      </trkpt>
      <trkpt lat="46.893564965575933" lon="11.130942022427917">
        <ele>1730.51</ele>
        <time>2018-09-17T10:59:33Z</time>
      </trkpt>
      <trkpt lat="46.893425993621349" lon="11.130972029641271">
        <ele>1729.55</ele>
        <time>2018-09-17T10:59:34Z</time>
      </trkpt>
      <trkpt lat="46.89327796921134" lon="11.130963983014226">
        <ele>1729.0699999999999</ele>
        <time>2018-09-17T10:59:35Z</time>
      </trkpt>
      <trkpt lat="46.89207399263978" lon="11.130996001884341">
        <ele>1722.8199999999999</ele>
        <time>2018-09-17T10:59:42Z</time>
      </trkpt>
      <trkpt lat="46.891929991543293" lon="11.130964988842607">
        <ele>1722.3399999999999</ele>
        <time>2018-09-17T10:59:43Z</time>
      </trkpt>
      <trkpt lat="46.891179978847504" lon="11.130805984139442">
        <ele>1718.97</ele>
        <time>2018-09-17T10:59:48Z</time>
      </trkpt>
      <trkpt lat="46.891035977751017" lon="11.130793998017907">
        <ele>1718.01</ele>
        <time>2018-09-17T10:59:49Z</time>
      </trkpt>
      <trkpt lat="46.890920978039503" lon="11.130846971645951">
        <ele>1717.53</ele>
        <time>2018-09-17T10:59:50Z</time>
      </trkpt>
      <trkpt lat="46.890807989984751" lon="11.130922995507717">
        <ele>1717.05</ele>
        <time>2018-09-17T10:59:51Z</time>
      </trkpt>
      <trkpt lat="46.890728026628494" lon="11.131054004654288">
        <ele>1717.05</ele>
        <time>2018-09-17T10:59:52Z</time>
      </trkpt>
      <trkpt lat="46.890638004988432" lon="11.131200017407537">
        <ele>1717.05</ele>
        <time>2018-09-17T10:59:53Z</time>
      </trkpt>
      <trkpt lat="46.890444969758391" lon="11.131516015157104">
        <ele>1718.01</ele>
        <time>2018-09-17T10:59:55Z</time>
      </trkpt>
      <trkpt lat="46.890373975038528" lon="11.131696980446577">
        <ele>1717.53</ele>
        <time>2018-09-17T10:59:56Z</time>
      </trkpt>
      <trkpt lat="46.89031396061182" lon="11.131876017898321">
        <ele>1717.53</ele>
        <time>2018-09-17T10:59:57Z</time>
      </trkpt>
      <trkpt lat="46.890280013903975" lon="11.132075004279613">
        <ele>1717.05</ele>
        <time>2018-09-17T10:59:58Z</time>
      </trkpt>
      <trkpt lat="46.890278002247214" lon="11.13228103145957">
        <ele>1716.5699999999999</ele>
        <time>2018-09-17T10:59:59Z</time>
      </trkpt>
      <trkpt lat="46.890293005853891" lon="11.132498038932681">
        <ele>1716.0899999999999</ele>
        <time>2018-09-17T11:00:00Z</time>
      </trkpt>
      <trkpt lat="46.890345979481936" lon="11.13271202892065">
        <ele>1715.6099999999999</ele>
        <time>2018-09-17T11:00:01Z</time>
      </trkpt>
      <trkpt lat="46.890404988080263" lon="11.132945967838168">
        <ele>1715.1300000000001</ele>
        <time>2018-09-17T11:00:02Z</time>
      </trkpt>
      <trkpt lat="46.890474976971745" lon="11.133177978917956">
        <ele>1715.1300000000001</ele>
        <time>2018-09-17T11:00:03Z</time>
      </trkpt>
      <trkpt lat="46.89054898917675" lon="11.133406972512603">
        <ele>1714.6500000000001</ele>
        <time>2018-09-17T11:00:04Z</time>
      </trkpt>
      <trkpt lat="46.890617972239852" lon="11.133620040491223">
        <ele>1714.6500000000001</ele>
        <time>2018-09-17T11:00:05Z</time>
      </trkpt>
      <trkpt lat="46.890692990273237" lon="11.133826989680529">
        <ele>1714.6500000000001</ele>
        <time>2018-09-17T11:00:06Z</time>
      </trkpt>
      <trkpt lat="46.890885019674897" lon="11.13410702906549">
        <ele>1714.6500000000001</ele>
        <time>2018-09-17T11:00:08Z</time>
      </trkpt>
      <trkpt lat="46.890969006344676" lon="11.134224040433764">
        <ele>1714.6500000000001</ele>
        <time>2018-09-17T11:00:09Z</time>
      </trkpt>
      <trkpt lat="46.891133040189743" lon="11.134357983246446">
        <ele>1713.6900000000001</ele>
        <time>2018-09-17T11:00:11Z</time>
      </trkpt>
      <trkpt lat="46.8911939766258" lon="11.13440802320838">
        <ele>1713.6900000000001</ele>
        <time>2018-09-17T11:00:12Z</time>
      </trkpt>
      <trkpt lat="46.891217026859522" lon="11.134506007656455">
        <ele>1713.21</ele>
        <time>2018-09-17T11:00:13Z</time>
      </trkpt>
      <trkpt lat="46.891239993274212" lon="11.134607009589672">
        <ele>1712.73</ele>
        <time>2018-09-17T11:00:14Z</time>
      </trkpt>
      <trkpt lat="46.89123596996069" lon="11.134730977937579">
        <ele>1712.25</ele>
        <time>2018-09-17T11:00:15Z</time>
      </trkpt>
      <trkpt lat="46.891186013817787" lon="11.134830974042416">
        <ele>1712.25</ele>
        <time>2018-09-17T11:00:16Z</time>
      </trkpt>
      <trkpt lat="46.891101021319628" lon="11.134943962097168">
        <ele>1712.25</ele>
        <time>2018-09-17T11:00:17Z</time>
      </trkpt>
      <trkpt lat="46.890615960583091" lon="11.135349981486797">
        <ele>1713.6900000000001</ele>
        <time>2018-09-17T11:00:21Z</time>
      </trkpt>
      <trkpt lat="46.89046299085021" lon="11.13541997037828">
        <ele>1714.6500000000001</ele>
        <time>2018-09-17T11:00:22Z</time>
      </trkpt>
      <trkpt lat="46.889781961217523" lon="11.135737979784608">
        <ele>1716.0899999999999</ele>
        <time>2018-09-17T11:00:27Z</time>
      </trkpt>
      <trkpt lat="46.889679031446576" lon="11.135831018909812">
        <ele>1716.0899999999999</ele>
        <time>2018-09-17T11:00:28Z</time>
      </trkpt>
      <trkpt lat="46.88958196900785" lon="11.135958004742861">
        <ele>1716.0899999999999</ele>
        <time>2018-09-17T11:00:29Z</time>
      </trkpt>
      <trkpt lat="46.889500999823213" lon="11.136120026931167">
        <ele>1716.0899999999999</ele>
        <time>2018-09-17T11:00:30Z</time>
      </trkpt>
      <trkpt lat="46.889418018981814" lon="11.136301998049021">
        <ele>1715.6099999999999</ele>
        <time>2018-09-17T11:00:31Z</time>
      </trkpt>
      <trkpt lat="46.88913001678884" lon="11.137098027393222">
        <ele>1715.6099999999999</ele>
        <time>2018-09-17T11:00:35Z</time>
      </trkpt>
      <trkpt lat="46.889024991542101" lon="11.137258959934115">
        <ele>1715.6099999999999</ele>
        <time>2018-09-17T11:00:36Z</time>
      </trkpt>
      <trkpt lat="46.888916026800871" lon="11.137427017092705">
        <ele>1716.0899999999999</ele>
        <time>2018-09-17T11:00:37Z</time>
      </trkpt>
      <trkpt lat="46.888768002390862" lon="11.137558026239276">
        <ele>1716.5699999999999</ele>
        <time>2018-09-17T11:00:38Z</time>
      </trkpt>
      <trkpt lat="46.888612015172839" lon="11.137675037607551">
        <ele>1716.5699999999999</ele>
        <time>2018-09-17T11:00:39Z</time>
      </trkpt>
      <trkpt lat="46.88715498894453" lon="11.138558993116021">
        <ele>1718.49</ele>
        <time>2018-09-17T11:00:48Z</time>
      </trkpt>
      <trkpt lat="46.88577800989151" lon="11.139235999435186">
        <ele>1717.53</ele>
        <time>2018-09-17T11:00:57Z</time>
      </trkpt>
      <trkpt lat="46.885664016008377" lon="11.139338007196784">
        <ele>1717.53</ele>
        <time>2018-09-17T11:00:58Z</time>
      </trkpt>
      <trkpt lat="46.885567037388682" lon="11.139488965272903">
        <ele>1717.53</ele>
        <time>2018-09-17T11:00:59Z</time>
      </trkpt>
      <trkpt lat="46.885461006313562" lon="11.139660961925983">
        <ele>1717.53</ele>
        <time>2018-09-17T11:01:00Z</time>
      </trkpt>
      <trkpt lat="46.885345000773668" lon="11.13984796218574">
        <ele>1717.53</ele>
        <time>2018-09-17T11:01:01Z</time>
      </trkpt>
      <trkpt lat="46.885223966091871" lon="11.140042003244162">
        <ele>1717.53</ele>
        <time>2018-09-17T11:01:02Z</time>
      </trkpt>
      <trkpt lat="46.885102009400725" lon="11.140238977968693">
        <ele>1717.53</ele>
        <time>2018-09-17T11:01:03Z</time>
      </trkpt>
      <trkpt lat="46.88453296199441" lon="11.141402972862124">
        <ele>1716.0899999999999</ele>
        <time>2018-09-17T11:01:09Z</time>
      </trkpt>
      <trkpt lat="46.884502032771707" lon="11.141554014757276">
        <ele>1715.6099999999999</ele>
        <time>2018-09-17T11:01:10Z</time>
      </trkpt>
      <trkpt lat="46.884512007236481" lon="11.141722993925214">
        <ele>1714.6500000000001</ele>
        <time>2018-09-17T11:01:11Z</time>
      </trkpt>
      <trkpt lat="46.884524999186397" lon="11.141889039427042">
        <ele>1714.1700000000001</ele>
        <time>2018-09-17T11:01:12Z</time>
      </trkpt>
      <trkpt lat="46.884579984471202" lon="11.142062041908503">
        <ele>1713.6900000000001</ele>
        <time>2018-09-17T11:01:13Z</time>
      </trkpt>
      <trkpt lat="46.88463899306953" lon="11.142246024683118">
        <ele>1713.21</ele>
        <time>2018-09-17T11:01:14Z</time>
      </trkpt>
      <trkpt lat="46.884975023567677" lon="11.143343970179558">
        <ele>1710.3199999999999</ele>
        <time>2018-09-17T11:01:20Z</time>
      </trkpt>
      <trkpt lat="46.88498399220407" lon="11.14347598515451">
        <ele>1709.8399999999999</ele>
        <time>2018-09-17T11:01:21Z</time>
      </trkpt>
      <trkpt lat="46.884984998032451" lon="11.143613029271364">
        <ele>1709.3599999999999</ele>
        <time>2018-09-17T11:01:22Z</time>
      </trkpt>
      <trkpt lat="46.884938981384039" lon="11.143752001225948">
        <ele>1709.3599999999999</ele>
        <time>2018-09-17T11:01:23Z</time>
      </trkpt>
      <trkpt lat="46.884866980835795" lon="11.143893990665674">
        <ele>1708.8800000000001</ele>
        <time>2018-09-17T11:01:24Z</time>
      </trkpt>
      <trkpt lat="46.884786011651158" lon="11.144036985933781">
        <ele>1708.4000000000001</ele>
        <time>2018-09-17T11:01:25Z</time>
      </trkpt>
      <trkpt lat="46.884693978354335" lon="11.144173024222255">
        <ele>1707.9200000000001</ele>
        <time>2018-09-17T11:01:26Z</time>
      </trkpt>
      <trkpt lat="46.884588031098247" lon="11.144288023933768">
        <ele>1707.4400000000001</ele>
        <time>2018-09-17T11:01:27Z</time>
      </trkpt>
      <trkpt lat="46.884477976709604" lon="11.144407968968153">
        <ele>1706.96</ele>
        <time>2018-09-17T11:01:28Z</time>
      </trkpt>
      <trkpt lat="46.883933991193771" lon="11.145052034407854">
        <ele>1704.55</ele>
        <time>2018-09-17T11:01:34Z</time>
      </trkpt>
      <trkpt lat="46.883876994252205" lon="11.145157981663942">
        <ele>1704.55</ele>
        <time>2018-09-17T11:01:35Z</time>
      </trkpt>
      <trkpt lat="46.883837012574077" lon="11.145330984145403">
        <ele>1704.55</ele>
        <time>2018-09-17T11:01:36Z</time>
      </trkpt>
      <trkpt lat="46.883794013410807" lon="11.145515972748399">
        <ele>1704.55</ele>
        <time>2018-09-17T11:01:37Z</time>
      </trkpt>
      <trkpt lat="46.883747996762395" lon="11.145714959129691">
        <ele>1704.0699999999999</ele>
        <time>2018-09-17T11:01:38Z</time>
      </trkpt>
      <trkpt lat="46.883563008159399" lon="11.14642096683383">
        <ele>1702.6300000000001</ele>
        <time>2018-09-17T11:01:42Z</time>
      </trkpt>
      <trkpt lat="46.883519003167748" lon="11.146534038707614">
        <ele>1702.6300000000001</ele>
        <time>2018-09-17T11:01:43Z</time>
      </trkpt>
      <trkpt lat="46.883428981527686" lon="11.146597992628813">
        <ele>1702.1500000000001</ele>
        <time>2018-09-17T11:01:44Z</time>
      </trkpt>
      <trkpt lat="46.88332999125123" lon="11.146651972085238">
        <ele>1701.6700000000001</ele>
        <time>2018-09-17T11:01:45Z</time>
      </trkpt>
      <trkpt lat="46.883219014853239" lon="11.146711986511946">
        <ele>1701.6700000000001</ele>
        <time>2018-09-17T11:01:46Z</time>
      </trkpt>
      <trkpt lat="46.883103009313345" lon="11.146775018423796">
        <ele>1701.1900000000001</ele>
        <time>2018-09-17T11:01:47Z</time>
      </trkpt>
      <trkpt lat="46.882994966581464" lon="11.146865962073207">
        <ele>1701.1900000000001</ele>
        <time>2018-09-17T11:01:48Z</time>
      </trkpt>
      <trkpt lat="46.882895976305008" lon="11.146988002583385">
        <ele>1700.71</ele>
        <time>2018-09-17T11:01:49Z</time>
      </trkpt>
      <trkpt lat="46.882795980200171" lon="11.147112976759672">
        <ele>1700.23</ele>
        <time>2018-09-17T11:01:50Z</time>
      </trkpt>
      <trkpt lat="46.882564974948764" lon="11.147466022521257">
        <ele>1699.27</ele>
        <time>2018-09-17T11:01:53Z</time>
      </trkpt>
      <trkpt lat="46.882527004927397" lon="11.147616980597377">
        <ele>1699.27</ele>
        <time>2018-09-17T11:01:54Z</time>
      </trkpt>
      <trkpt lat="46.882461039349437" lon="11.148012019693851">
        <ele>1698.79</ele>
        <time>2018-09-17T11:01:56Z</time>
      </trkpt>
      <trkpt lat="46.882409993559122" lon="11.148149985820055">
        <ele>1698.79</ele>
        <time>2018-09-17T11:01:57Z</time>
      </trkpt>
      <trkpt lat="46.882309997454286" lon="11.14841996692121">
        <ele>1698.3099999999999</ele>
        <time>2018-09-17T11:01:59Z</time>
      </trkpt>
      <trkpt lat="46.88231703825295" lon="11.148645021021366">
        <ele>1697.8299999999999</ele>
        <time>2018-09-17T11:02:00Z</time>
      </trkpt>
      <trkpt lat="46.882322989404202" lon="11.148838978260756">
        <ele>1697.8299999999999</ele>
        <time>2018-09-17T11:02:01Z</time>
      </trkpt>
      <trkpt lat="46.882328018546104" lon="11.149031007662416">
        <ele>1697.3399999999999</ele>
        <time>2018-09-17T11:02:02Z</time>
      </trkpt>
      <trkpt lat="46.882309997454286" lon="11.149230999872088">
        <ele>1696.8599999999999</ele>
        <time>2018-09-17T11:02:03Z</time>
      </trkpt>
      <trkpt lat="46.882261969149113" lon="11.149407019838691">
        <ele>1696.3800000000001</ele>
        <time>2018-09-17T11:02:04Z</time>
      </trkpt>
      <trkpt lat="46.88221100717783" lon="11.149591002613306">
        <ele>1695.9000000000001</ele>
        <time>2018-09-17T11:02:05Z</time>
      </trkpt>
      <trkpt lat="46.882162978872657" lon="11.149768028408289">
        <ele>1695.4200000000001</ele>
        <time>2018-09-17T11:02:06Z</time>
      </trkpt>
      <trkpt lat="46.882134983316064" lon="11.14994497038424">
        <ele>1694.46</ele>
        <time>2018-09-17T11:02:07Z</time>
      </trkpt>
      <trkpt lat="46.882128026336432" lon="11.15011696703732">
        <ele>1693.98</ele>
        <time>2018-09-17T11:02:08Z</time>
      </trkpt>
      <trkpt lat="46.882121991366148" lon="11.150272032245994">
        <ele>1693.5</ele>
        <time>2018-09-17T11:02:09Z</time>
      </trkpt>
      <trkpt lat="46.882116962224245" lon="11.15039398893714">
        <ele>1693.02</ele>
        <time>2018-09-17T11:02:10Z</time>
      </trkpt>
      <trkpt lat="46.882070023566484" lon="11.150512006133795">
        <ele>1692.0599999999999</ele>
        <time>2018-09-17T11:02:11Z</time>
      </trkpt>
      <trkpt lat="46.882025012746453" lon="11.150615019723773">
        <ele>1691.5799999999999</ele>
        <time>2018-09-17T11:02:12Z</time>
      </trkpt>
      <trkpt lat="46.881946977227926" lon="11.150678973644972">
        <ele>1690.6199999999999</ele>
        <time>2018-09-17T11:02:13Z</time>
      </trkpt>
      <trkpt lat="46.881845975294709" lon="11.150713004171848">
        <ele>1689.6500000000001</ele>
        <time>2018-09-17T11:02:14Z</time>
      </trkpt>
      <trkpt lat="46.881730975583196" lon="11.150750974193215">
        <ele>1689.1700000000001</ele>
        <time>2018-09-17T11:02:15Z</time>
      </trkpt>
      <trkpt lat="46.881601978093386" lon="11.150793973356485">
        <ele>1688.21</ele>
        <time>2018-09-17T11:02:16Z</time>
      </trkpt>
      <trkpt lat="46.881466023623943" lon="11.150869997218251">
        <ele>1687.73</ele>
        <time>2018-09-17T11:02:17Z</time>
      </trkpt>
      <trkpt lat="46.880560023710132" lon="11.151334019377828">
        <ele>1684.3699999999999</ele>
        <time>2018-09-17T11:02:23Z</time>
      </trkpt>
      <trkpt lat="46.88042800873518" lon="11.15138397552073">
        <ele>1683.4100000000001</ele>
        <time>2018-09-17T11:02:24Z</time>
      </trkpt>
      <trkpt lat="46.880318038165569" lon="11.151426974684">
        <ele>1682.9300000000001</ele>
        <time>2018-09-17T11:02:25Z</time>
      </trkpt>
      <trkpt lat="46.880227010697126" lon="11.151513978838921">
        <ele>1681.96</ele>
        <time>2018-09-17T11:02:26Z</time>
      </trkpt>
      <trkpt lat="46.880160961300135" lon="11.151613974943757">
        <ele>1681.96</ele>
        <time>2018-09-17T11:02:27Z</time>
      </trkpt>
      <trkpt lat="46.880092984065413" lon="11.151716988533735">
        <ele>1681</ele>
        <time>2018-09-17T11:02:28Z</time>
      </trkpt>
      <trkpt lat="46.879942025989294" lon="11.151947993785143">
        <ele>1680.52</ele>
        <time>2018-09-17T11:02:30Z</time>
      </trkpt>
      <trkpt lat="46.879866002127528" lon="11.152062993496656">
        <ele>1680.52</ele>
        <time>2018-09-17T11:02:31Z</time>
      </trkpt>
      <trkpt lat="46.87969702295959" lon="11.152151003479958">
        <ele>1680.52</ele>
        <time>2018-09-17T11:02:32Z</time>
      </trkpt>
      <trkpt lat="46.87956802546978" lon="11.152171036228538">
        <ele>1681</ele>
        <time>2018-09-17T11:02:33Z</time>
      </trkpt>
      <trkpt lat="46.879433998838067" lon="11.152191990986466">
        <ele>1681.48</ele>
        <time>2018-09-17T11:02:34Z</time>
      </trkpt>
      <trkpt lat="46.879185978323221" lon="11.152230966836214">
        <ele>1682.4400000000001</ele>
        <time>2018-09-17T11:02:36Z</time>
      </trkpt>
      <trkpt lat="46.879084976390004" lon="11.152275977656245">
        <ele>1682.4400000000001</ele>
        <time>2018-09-17T11:02:37Z</time>
      </trkpt>
      <trkpt lat="46.878994032740593" lon="11.152344038709998">
        <ele>1682.9300000000001</ele>
        <time>2018-09-17T11:02:38Z</time>
      </trkpt>
      <trkpt lat="46.878910968080163" lon="11.152406986802816">
        <ele>1682.9300000000001</ele>
        <time>2018-09-17T11:02:39Z</time>
      </trkpt>
      <trkpt lat="46.878850031644106" lon="11.152537995949388">
        <ele>1682.9300000000001</ele>
        <time>2018-09-17T11:02:40Z</time>
      </trkpt>
      <trkpt lat="46.878806026652455" lon="11.152712004259229">
        <ele>1682.4400000000001</ele>
        <time>2018-09-17T11:02:41Z</time>
      </trkpt>
      <trkpt lat="46.878765039145947" lon="11.152872014790773">
        <ele>1681.96</ele>
        <time>2018-09-17T11:02:42Z</time>
      </trkpt>
      <trkpt lat="46.878723967820406" lon="11.153034036979079">
        <ele>1681.48</ele>
        <time>2018-09-17T11:02:43Z</time>
      </trkpt>
      <trkpt lat="46.878679962828755" lon="11.153206033632159">
        <ele>1681</ele>
        <time>2018-09-17T11:02:44Z</time>
      </trkpt>
      <trkpt lat="46.878633024170995" lon="11.153388004750013">
        <ele>1680.52</ele>
        <time>2018-09-17T11:02:45Z</time>
      </trkpt>
      <trkpt lat="46.878362037241459" lon="11.154588963836432">
        <ele>1679.5599999999999</ele>
        <time>2018-09-17T11:02:52Z</time>
      </trkpt>
      <trkpt lat="46.878368994221091" lon="11.154801025986671">
        <ele>1679.5599999999999</ele>
        <time>2018-09-17T11:02:53Z</time>
      </trkpt>
      <trkpt lat="46.878411993384361" lon="11.154986014589667">
        <ele>1679.5599999999999</ele>
        <time>2018-09-17T11:02:54Z</time>
      </trkpt>
      <trkpt lat="46.878453986719251" lon="11.155167985707521">
        <ele>1679.0799999999999</ele>
        <time>2018-09-17T11:02:55Z</time>
      </trkpt>
      <trkpt lat="46.878491034731269" lon="11.155329002067447">
        <ele>1679.0799999999999</ele>
        <time>2018-09-17T11:02:56Z</time>
      </trkpt>
      <trkpt lat="46.878491034731269" lon="11.155512984842062">
        <ele>1679.0799999999999</ele>
        <time>2018-09-17T11:02:57Z</time>
      </trkpt>
      <trkpt lat="46.878465972840786" lon="11.155666038393974">
        <ele>1678.5999999999999</ele>
        <time>2018-09-17T11:02:58Z</time>
      </trkpt>
      <trkpt lat="46.878426996991038" lon="11.155822025611997">
        <ele>1678.5999999999999</ele>
        <time>2018-09-17T11:02:59Z</time>
      </trkpt>
      <trkpt lat="46.878385003656149" lon="11.155987987294793">
        <ele>1678.5999999999999</ele>
        <time>2018-09-17T11:03:00Z</time>
      </trkpt>
      <trkpt lat="46.878319038078189" lon="11.156252017244697">
        <ele>1679.0799999999999</ele>
        <time>2018-09-17T11:03:01Z</time>
      </trkpt>
      <trkpt lat="46.878288025036454" lon="11.156315971165895">
        <ele>1679.0799999999999</ele>
        <time>2018-09-17T11:03:02Z</time>
      </trkpt>
      <trkpt lat="46.878032963722944" lon="11.156837996095419">
        <ele>1679.5599999999999</ele>
        <time>2018-09-17T11:03:06Z</time>
      </trkpt>
      <trkpt lat="46.877900026738644" lon="11.157109988853335">
        <ele>1679.0799999999999</ele>
        <time>2018-09-17T11:03:08Z</time>
      </trkpt>
      <trkpt lat="46.877859961241484" lon="11.157240997999907">
        <ele>1678.5999999999999</ele>
        <time>2018-09-17T11:03:09Z</time>
      </trkpt>
      <trkpt lat="46.877841018140316" lon="11.157383993268013">
        <ele>1678.5999999999999</ele>
        <time>2018-09-17T11:03:10Z</time>
      </trkpt>
      <trkpt lat="46.877832971513271" lon="11.157523971050978">
        <ele>1678.1199999999999</ele>
        <time>2018-09-17T11:03:11Z</time>
      </trkpt>
      <trkpt lat="46.877869013696909" lon="11.157667972147465">
        <ele>1678.1199999999999</ele>
        <time>2018-09-17T11:03:12Z</time>
      </trkpt>
      <trkpt lat="46.877942020073533" lon="11.157807027921081">
        <ele>1677.1600000000001</ele>
        <time>2018-09-17T11:03:13Z</time>
      </trkpt>
      <trkpt lat="46.878027012571692" lon="11.157968966290355">
        <ele>1676.6800000000001</ele>
        <time>2018-09-17T11:03:14Z</time>
      </trkpt>
      <trkpt lat="46.878118962049484" lon="11.158144986256957">
        <ele>1675.72</ele>
        <time>2018-09-17T11:03:15Z</time>
      </trkpt>
      <trkpt lat="46.878219963982701" lon="11.158337015658617">
        <ele>1675.23</ele>
        <time>2018-09-17T11:03:16Z</time>
      </trkpt>
      <trkpt lat="46.879068966954947" lon="11.159915998578072">
        <ele>1675.23</ele>
        <time>2018-09-17T11:03:24Z</time>
      </trkpt>
      <trkpt lat="46.879478003829718" lon="11.160967005416751">
        <ele>1673.79</ele>
        <time>2018-09-17T11:03:29Z</time>
      </trkpt>
      <trkpt lat="46.879842029884458" lon="11.161744007840753">
        <ele>1671.3900000000001</ele>
        <time>2018-09-17T11:03:33Z</time>
      </trkpt>
      <trkpt lat="46.880380986258388" lon="11.16360797546804">
        <ele>1670.4300000000001</ele>
        <time>2018-09-17T11:03:42Z</time>
      </trkpt>
      <trkpt lat="46.880421973764896" lon="11.163739990442991">
        <ele>1670.9100000000001</ele>
        <time>2018-09-17T11:03:43Z</time>
      </trkpt>
      <trkpt lat="46.880432032048702" lon="11.163875022903085">
        <ele>1671.3900000000001</ele>
        <time>2018-09-17T11:03:44Z</time>
      </trkpt>
      <trkpt lat="46.880439994856715" lon="11.163992034271359">
        <ele>1671.3900000000001</ele>
        <time>2018-09-17T11:03:45Z</time>
      </trkpt>
      <trkpt lat="46.8804079759866" lon="11.164091024547815">
        <ele>1671.3900000000001</ele>
        <time>2018-09-17T11:03:46Z</time>
      </trkpt>
      <trkpt lat="46.880353996530175" lon="11.164166964590549">
        <ele>1670.9100000000001</ele>
        <time>2018-09-17T11:03:47Z</time>
      </trkpt>
      <trkpt lat="46.880273027345538" lon="11.164198983460665">
        <ele>1670.9100000000001</ele>
        <time>2018-09-17T11:03:48Z</time>
      </trkpt>
      <trkpt lat="46.880164984613657" lon="11.164211975410581">
        <ele>1670.9100000000001</ele>
        <time>2018-09-17T11:03:49Z</time>
      </trkpt>
      <trkpt lat="46.880044033750892" lon="11.164159001782537">
        <ele>1670.4300000000001</ele>
        <time>2018-09-17T11:03:50Z</time>
      </trkpt>
      <trkpt lat="46.879903972148895" lon="11.164096975699067">
        <ele>1670.4300000000001</ele>
        <time>2018-09-17T11:03:51Z</time>
      </trkpt>
      <trkpt lat="46.87946199439466" lon="11.163900000974536">
        <ele>1671.3900000000001</ele>
        <time>2018-09-17T11:03:54Z</time>
      </trkpt>
      <trkpt lat="46.879354035481811" lon="11.163805034011602">
        <ele>1671.3900000000001</ele>
        <time>2018-09-17T11:03:55Z</time>
      </trkpt>
      <trkpt lat="46.879282034933567" lon="11.163685005158186">
        <ele>1671.8699999999999</ele>
        <time>2018-09-17T11:03:56Z</time>
      </trkpt>
      <trkpt lat="46.879215985536575" lon="11.163575034588575">
        <ele>1672.3499999999999</ele>
        <time>2018-09-17T11:03:57Z</time>
      </trkpt>
      <trkpt lat="46.879153959453106" lon="11.163472020998597">
        <ele>1672.3499999999999</ele>
        <time>2018-09-17T11:03:58Z</time>
      </trkpt>
      <trkpt lat="46.879006018862128" lon="11.163225006312132">
        <ele>1672.8299999999999</ele>
        <time>2018-09-17T11:04:01Z</time>
      </trkpt>
      <trkpt lat="46.878900993615389" lon="11.163147976621985">
        <ele>1672.8299999999999</ele>
        <time>2018-09-17T11:04:02Z</time>
      </trkpt>
      <trkpt lat="46.878794962540269" lon="11.163071030750871">
        <ele>1672.3499999999999</ele>
        <time>2018-09-17T11:04:03Z</time>
      </trkpt>
      <trkpt lat="46.87853797338903" lon="11.162923006340861">
        <ele>1672.3499999999999</ele>
        <time>2018-09-17T11:04:05Z</time>
      </trkpt>
      <trkpt lat="46.878392966464162" lon="11.16285796277225">
        <ele>1672.3499999999999</ele>
        <time>2018-09-17T11:04:06Z</time>
      </trkpt>
      <trkpt lat="46.877808999270201" lon="11.16263902746141">
        <ele>1670.9100000000001</ele>
        <time>2018-09-17T11:04:10Z</time>
      </trkpt>
      <trkpt lat="46.877511022612453" lon="11.162611031904817">
        <ele>1669.95</ele>
        <time>2018-09-17T11:04:12Z</time>
      </trkpt>
      <trkpt lat="46.876252982765436" lon="11.162679009139538">
        <ele>1666.0999999999999</ele>
        <time>2018-09-17T11:04:20Z</time>
      </trkpt>
      <trkpt lat="46.874873992055655" lon="11.162602985277772">
        <ele>1658.8900000000001</ele>
        <time>2018-09-17T11:04:28Z</time>
      </trkpt>
      <trkpt lat="46.874212995171547" lon="11.162558980286121">
        <ele>1652.6400000000001</ele>
        <time>2018-09-17T11:04:33Z</time>
      </trkpt>
      <trkpt lat="46.874139988794923" lon="11.162601979449391">
        <ele>1651.6800000000001</ele>
        <time>2018-09-17T11:04:34Z</time>
      </trkpt>
      <trkpt lat="46.873989030718803" lon="11.162688983604312">
        <ele>1649.28</ele>
        <time>2018-09-17T11:04:36Z</time>
      </trkpt>
      <trkpt lat="46.873900014907122" lon="11.162740029394627">
        <ele>1647.8399999999999</ele>
        <time>2018-09-17T11:04:37Z</time>
      </trkpt>
      <trkpt lat="46.873805969953537" lon="11.16272502578795">
        <ele>1646.4000000000001</ele>
        <time>2018-09-17T11:04:38Z</time>
      </trkpt>
      <trkpt lat="46.873698011040688" lon="11.162681020796299">
        <ele>1644.95</ele>
        <time>2018-09-17T11:04:39Z</time>
      </trkpt>
      <trkpt lat="46.873602960258722" lon="11.162595022469759">
        <ele>1643.03</ele>
        <time>2018-09-17T11:04:40Z</time>
      </trkpt>
      <trkpt lat="46.873518973588943" lon="11.162494020536542">
        <ele>1641.1099999999999</ele>
        <time>2018-09-17T11:04:41Z</time>
      </trkpt>
      <trkpt lat="46.873341025784612" lon="11.162281036376953">
        <ele>1637.26</ele>
        <time>2018-09-17T11:04:43Z</time>
      </trkpt>
      <trkpt lat="46.873256033286452" lon="11.16225304082036">
        <ele>1635.3399999999999</ele>
        <time>2018-09-17T11:04:44Z</time>
      </trkpt>
      <trkpt lat="46.872408958151937" lon="11.162119014188647">
        <ele>1624.77</ele>
        <time>2018-09-17T11:04:50Z</time>
      </trkpt>
      <trkpt lat="46.872254982590675" lon="11.162127982825041">
        <ele>1622.8399999999999</ele>
        <time>2018-09-17T11:04:51Z</time>
      </trkpt>
      <trkpt lat="46.871861033141613" lon="11.162195038050413">
        <ele>1617.0699999999999</ele>
        <time>2018-09-17T11:04:54Z</time>
      </trkpt>
      <trkpt lat="46.871785009279847" lon="11.162164025008678">
        <ele>1615.6300000000001</ele>
        <time>2018-09-17T11:04:55Z</time>
      </trkpt>
      <trkpt lat="46.871521985158324" lon="11.162007031962276">
        <ele>1610.3499999999999</ele>
        <time>2018-09-17T11:04:58Z</time>
      </trkpt>
      <trkpt lat="46.871455013751984" lon="11.16190804168582">
        <ele>1608.4200000000001</ele>
        <time>2018-09-17T11:04:59Z</time>
      </trkpt>
      <trkpt lat="46.871401034295559" lon="11.161767980083823">
        <ele>1606.98</ele>
        <time>2018-09-17T11:05:00Z</time>
      </trkpt>
      <trkpt lat="46.871299026533961" lon="11.161504033952951">
        <ele>1604.5799999999999</ele>
        <time>2018-09-17T11:05:02Z</time>
      </trkpt>
      <trkpt lat="46.871252004057169" lon="11.161398002877831">
        <ele>1604.0999999999999</ele>
        <time>2018-09-17T11:05:03Z</time>
      </trkpt>
      <trkpt lat="46.871174974367023" lon="11.161366989836097">
        <ele>1602.6600000000001</ele>
        <time>2018-09-17T11:05:04Z</time>
      </trkpt>
      <trkpt lat="46.871085036545992" lon="11.16133002564311">
        <ele>1601.6900000000001</ele>
        <time>2018-09-17T11:05:05Z</time>
      </trkpt>
      <trkpt lat="46.870985962450504" lon="11.16128996014595">
        <ele>1600.25</ele>
        <time>2018-09-17T11:05:06Z</time>
      </trkpt>
      <trkpt lat="46.870883032679558" lon="11.16124696098268">
        <ele>1599.29</ele>
        <time>2018-09-17T11:05:07Z</time>
      </trkpt>
      <trkpt lat="46.87078102491796" lon="11.16120002232492">
        <ele>1598.3299999999999</ele>
        <time>2018-09-17T11:05:08Z</time>
      </trkpt>
      <trkpt lat="46.870689997449517" lon="11.1610749643296">
        <ele>1597.3699999999999</ele>
        <time>2018-09-17T11:05:09Z</time>
      </trkpt>
      <trkpt lat="46.870598969981074" lon="11.160949990153313">
        <ele>1596.4100000000001</ele>
        <time>2018-09-17T11:05:10Z</time>
      </trkpt>
      <trkpt lat="46.870510959997773" lon="11.160829961299896">
        <ele>1595.45</ele>
        <time>2018-09-17T11:05:11Z</time>
      </trkpt>
      <trkpt lat="46.870430996641517" lon="11.160719990730286">
        <ele>1594.96</ele>
        <time>2018-09-17T11:05:12Z</time>
      </trkpt>
      <trkpt lat="46.870333012193441" lon="11.160633992403746">
        <ele>1594</ele>
        <time>2018-09-17T11:05:13Z</time>
      </trkpt>
      <trkpt lat="46.870212983340025" lon="11.160591999068856">
        <ele>1593.04</ele>
        <time>2018-09-17T11:05:14Z</time>
      </trkpt>
      <trkpt lat="46.869714008644223" lon="11.160436011850834">
        <ele>1588.72</ele>
        <time>2018-09-17T11:05:18Z</time>
      </trkpt>
      <trkpt lat="46.869610995054245" lon="11.160366022959352">
        <ele>1588.24</ele>
        <time>2018-09-17T11:05:19Z</time>
      </trkpt>
      <trkpt lat="46.869509993121028" lon="11.160282036289573">
        <ele>1587.27</ele>
        <time>2018-09-17T11:05:20Z</time>
      </trkpt>
      <trkpt lat="46.869438998401165" lon="11.160124959424138">
        <ele>1586.79</ele>
        <time>2018-09-17T11:05:21Z</time>
      </trkpt>
      <trkpt lat="46.869369009509683" lon="11.159949023276567">
        <ele>1586.3099999999999</ele>
        <time>2018-09-17T11:05:22Z</time>
      </trkpt>
      <trkpt lat="46.869301032274961" lon="11.15976202301681">
        <ele>1585.8299999999999</ele>
        <time>2018-09-17T11:05:23Z</time>
      </trkpt>
      <trkpt lat="46.869217967614532" lon="11.159576028585434">
        <ele>1585.3499999999999</ele>
        <time>2018-09-17T11:05:24Z</time>
      </trkpt>
      <trkpt lat="46.868965001776814" lon="11.159103037789464">
        <ele>1582.47</ele>
        <time>2018-09-17T11:05:27Z</time>
      </trkpt>
      <trkpt lat="46.868893001228571" lon="11.15896800532937">
        <ele>1581.51</ele>
        <time>2018-09-17T11:05:28Z</time>
      </trkpt>
      <trkpt lat="46.868827035650611" lon="11.158844958990812">
        <ele>1580.54</ele>
        <time>2018-09-17T11:05:29Z</time>
      </trkpt>
      <trkpt lat="46.868768027052283" lon="11.158732976764441">
        <ele>1579.5799999999999</ele>
        <time>2018-09-17T11:05:30Z</time>
      </trkpt>
      <trkpt lat="46.868680017068982" lon="11.158676985651255">
        <ele>1579.0999999999999</ele>
        <time>2018-09-17T11:05:31Z</time>
      </trkpt>
      <trkpt lat="46.868587983772159" lon="11.158648990094662">
        <ele>1578.1400000000001</ele>
        <time>2018-09-17T11:05:32Z</time>
      </trkpt>
      <trkpt lat="46.868486981838942" lon="11.158658964559436">
        <ele>1576.7</ele>
        <time>2018-09-17T11:05:33Z</time>
      </trkpt>
      <trkpt lat="46.868383968248963" lon="11.158715039491653">
        <ele>1575.74</ele>
        <time>2018-09-17T11:05:34Z</time>
      </trkpt>
      <trkpt lat="46.868267962709069" lon="11.158777987584472">
        <ele>1574.78</ele>
        <time>2018-09-17T11:05:35Z</time>
      </trkpt>
      <trkpt lat="46.86813997104764" lon="11.158846970647573">
        <ele>1573.8199999999999</ele>
        <time>2018-09-17T11:05:36Z</time>
      </trkpt>
      <trkpt lat="46.868006028234959" lon="11.158917965367436">
        <ele>1572.3699999999999</ele>
        <time>2018-09-17T11:05:37Z</time>
      </trkpt>
      <trkpt lat="46.867865966632962" lon="11.158975968137383">
        <ele>1570.45</ele>
        <time>2018-09-17T11:05:38Z</time>
      </trkpt>
      <trkpt lat="46.867707967758179" lon="11.159041011705995">
        <ele>1568.53</ele>
        <time>2018-09-17T11:05:39Z</time>
      </trkpt>
      <trkpt lat="46.867327010259032" lon="11.159198004752398">
        <ele>1567.0899999999999</ele>
        <time>2018-09-17T11:05:41Z</time>
      </trkpt>
      <trkpt lat="46.865508975461125" lon="11.159341000020504">
        <ele>1566.1199999999999</ele>
        <time>2018-09-17T11:05:52Z</time>
      </trkpt>
      <trkpt lat="46.865508975461125" lon="11.159341000020504">
        <ele>1566.6099999999999</ele>
        <time>2018-09-17T11:05:53Z</time>
      </trkpt>
      <trkpt lat="46.865508975461125" lon="11.159341000020504">
        <ele>1567.0899999999999</ele>
        <time>2018-09-17T11:05:54Z</time>
      </trkpt>
      <trkpt lat="46.865415014326572" lon="11.159421969205141">
        <ele>1567.0899999999999</ele>
        <time>2018-09-17T11:05:55Z</time>
      </trkpt>
      <trkpt lat="46.865338990464807" lon="11.159487012773752">
        <ele>1567.0899999999999</ele>
        <time>2018-09-17T11:05:56Z</time>
      </trkpt>
      <trkpt lat="46.865253997966647" lon="11.159560019150376">
        <ele>1567.0899999999999</ele>
        <time>2018-09-17T11:05:57Z</time>
      </trkpt>
      <trkpt lat="46.865060040727258" lon="11.159524982795119">
        <ele>1567.5699999999999</ele>
        <time>2018-09-17T11:05:58Z</time>
      </trkpt>
      <trkpt lat="46.864991979673505" lon="11.159467985853553">
        <ele>1567.5699999999999</ele>
        <time>2018-09-17T11:05:59Z</time>
      </trkpt>
      <trkpt lat="46.864949986338615" lon="11.159425992518663">
        <ele>1567.0899999999999</ele>
        <time>2018-09-17T11:06:00Z</time>
      </trkpt>
      <trkpt lat="46.864905981346965" lon="11.159381987527013">
        <ele>1566.6099999999999</ele>
        <time>2018-09-17T11:06:01Z</time>
      </trkpt>
      <trkpt lat="46.864838004112244" lon="11.159315016120672">
        <ele>1566.1199999999999</ele>
        <time>2018-09-17T11:06:02Z</time>
      </trkpt>
      <trkpt lat="46.864761980250478" lon="11.159237986430526">
        <ele>1566.1199999999999</ele>
        <time>2018-09-17T11:06:03Z</time>
      </trkpt>
      <trkpt lat="46.864698026329279" lon="11.159174032509327">
        <ele>1565.6400000000001</ele>
        <time>2018-09-17T11:06:04Z</time>
      </trkpt>
      <trkpt lat="46.864585960283875" lon="11.159062972292304">
        <ele>1565.6400000000001</ele>
        <time>2018-09-17T11:06:05Z</time>
      </trkpt>
      <trkpt lat="46.864579003304243" lon="11.159061966463923">
        <ele>1565.1600000000001</ele>
        <time>2018-09-17T11:06:06Z</time>
      </trkpt>
      <trkpt lat="46.864478001371026" lon="11.159055009484291">
        <ele>1565.1600000000001</ele>
        <time>2018-09-17T11:06:07Z</time>
      </trkpt>
      <trkpt lat="46.864363001659513" lon="11.159046962857246">
        <ele>1564.6800000000001</ele>
        <time>2018-09-17T11:06:08Z</time>
      </trkpt>
      <trkpt lat="46.864242972806096" lon="11.159017961472273">
        <ele>1564.2</ele>
        <time>2018-09-17T11:06:09Z</time>
      </trkpt>
      <trkpt lat="46.864133002236485" lon="11.158958030864596">
        <ele>1563.24</ele>
        <time>2018-09-17T11:06:10Z</time>
      </trkpt>
      <trkpt lat="46.864030994474888" lon="11.15890396758914">
        <ele>1562.76</ele>
        <time>2018-09-17T11:06:11Z</time>
      </trkpt>
      <trkpt lat="46.863917000591755" lon="11.158890975639224">
        <ele>1561.8</ele>
        <time>2018-09-17T11:06:12Z</time>
      </trkpt>
      <trkpt lat="46.863807030022144" lon="11.158890975639224">
        <ele>1560.8399999999999</ele>
        <time>2018-09-17T11:06:13Z</time>
      </trkpt>
      <trkpt lat="46.863577030599117" lon="11.158942021429539">
        <ele>1558.4300000000001</ele>
        <time>2018-09-17T11:06:15Z</time>
      </trkpt>
      <trkpt lat="46.863336972892284" lon="11.159000024199486">
        <ele>1557.47</ele>
        <time>2018-09-17T11:06:17Z</time>
      </trkpt>
      <trkpt lat="46.862461986020207" lon="11.158332992345095">
        <ele>1554.1099999999999</ele>
        <time>2018-09-17T11:06:25Z</time>
      </trkpt>
      <trkpt lat="46.862366013228893" lon="11.158292004838586">
        <ele>1552.6700000000001</ele>
        <time>2018-09-17T11:06:26Z</time>
      </trkpt>
      <trkpt lat="46.862301975488663" lon="11.158270966261625">
        <ele>1551.71</ele>
        <time>2018-09-17T11:06:27Z</time>
      </trkpt>
      <trkpt lat="46.862196028232574" lon="11.158297033980489">
        <ele>1550.74</ele>
        <time>2018-09-17T11:06:28Z</time>
      </trkpt>
      <trkpt lat="46.862056972458959" lon="11.158325029537082">
        <ele>1549.78</ele>
        <time>2018-09-17T11:06:29Z</time>
      </trkpt>
      <trkpt lat="46.861899979412556" lon="11.158350007608533">
        <ele>1549.3</ele>
        <time>2018-09-17T11:06:30Z</time>
      </trkpt>
      <trkpt lat="46.861616000533104" lon="11.158396024256945">
        <ele>1548.8199999999999</ele>
        <time>2018-09-17T11:06:32Z</time>
      </trkpt>
      <trkpt lat="46.859328998252749" lon="11.159084010869265">
        <ele>1547.8599999999999</ele>
        <time>2018-09-17T11:06:50Z</time>
      </trkpt>
      <trkpt lat="46.859388006851077" lon="11.158821992576122">
        <ele>1547.8599999999999</ele>
        <time>2018-09-17T11:06:51Z</time>
      </trkpt>
      <trkpt lat="46.859475011005998" lon="11.158376997336745">
        <ele>1546.9000000000001</ele>
        <time>2018-09-17T11:06:52Z</time>
      </trkpt>
      <trkpt lat="46.859457995742559" lon="11.158203994855285">
        <ele>1545.9400000000001</ele>
        <time>2018-09-17T11:06:53Z</time>
      </trkpt>
      <trkpt lat="46.859449027106166" lon="11.157976007089019">
        <ele>1545.46</ele>
        <time>2018-09-17T11:06:54Z</time>
      </trkpt>
      <trkpt lat="46.859582969918847" lon="11.157734021544456">
        <ele>1544.5</ele>
        <time>2018-09-17T11:06:55Z</time>
      </trkpt>
      <trkpt lat="46.859537037089467" lon="11.157368989661336">
        <ele>1541.6099999999999</ele>
        <time>2018-09-17T11:06:57Z</time>
      </trkpt>
      <trkpt lat="46.859574001282454" lon="11.15724896080792">
        <ele>1540.1700000000001</ele>
        <time>2018-09-17T11:06:58Z</time>
      </trkpt>
      <trkpt lat="46.859652036800981" lon="11.157003035768867">
        <ele>1538.25</ele>
        <time>2018-09-17T11:06:59Z</time>
      </trkpt>
      <trkpt lat="46.85963099822402" lon="11.157067995518446">
        <ele>1537.29</ele>
        <time>2018-09-17T11:07:00Z</time>
      </trkpt>
      <trkpt lat="46.859800983220339" lon="11.157152988016605">
        <ele>1536.3199999999999</ele>
        <time>2018-09-17T11:07:01Z</time>
      </trkpt>
      <trkpt lat="46.859757984057069" lon="11.157003035768867">
        <ele>1534.4000000000001</ele>
        <time>2018-09-17T11:07:02Z</time>
      </trkpt>
      <trkpt lat="46.859757984057069" lon="11.157003035768867">
        <ele>1532.48</ele>
        <time>2018-09-17T11:07:03Z</time>
      </trkpt>
      <trkpt lat="46.859671985730529" lon="11.157003035768867">
        <ele>1531.04</ele>
        <time>2018-09-17T11:07:04Z</time>
      </trkpt>
      <trkpt lat="46.8596510309726" lon="11.157003035768867">
        <ele>1529.1099999999999</ele>
        <time>2018-09-17T11:07:05Z</time>
      </trkpt>
      <trkpt lat="46.859629992395639" lon="11.157069001346827">
        <ele>1527.6700000000001</ele>
        <time>2018-09-17T11:07:06Z</time>
      </trkpt>
      <trkpt lat="46.859592022374272" lon="11.157190036028624">
        <ele>1525.27</ele>
        <time>2018-09-17T11:07:07Z</time>
      </trkpt>
      <trkpt lat="46.859551034867764" lon="11.157323978841305">
        <ele>1522.8699999999999</ele>
        <time>2018-09-17T11:07:08Z</time>
      </trkpt>
      <trkpt lat="46.859506024047732" lon="11.157466974109411">
        <ele>1519.98</ele>
        <time>2018-09-17T11:07:09Z</time>
      </trkpt>
      <trkpt lat="46.859461013227701" lon="11.157610975205898">
        <ele>1518.0599999999999</ele>
        <time>2018-09-17T11:07:10Z</time>
      </trkpt>
      <trkpt lat="46.859439974650741" lon="11.157768974080682">
        <ele>1516.1400000000001</ele>
        <time>2018-09-17T11:07:11Z</time>
      </trkpt>
      <trkpt lat="46.859448021277785" lon="11.157953962683678">
        <ele>1514.21</ele>
        <time>2018-09-17T11:07:12Z</time>
      </trkpt>
      <trkpt lat="46.859454978257418" lon="11.158141968771815">
        <ele>1511.8099999999999</ele>
        <time>2018-09-17T11:07:13Z</time>
      </trkpt>
      <trkpt lat="46.859468976035714" lon="11.158314971253276">
        <ele>1509.8900000000001</ele>
        <time>2018-09-17T11:07:14Z</time>
      </trkpt>
      <trkpt lat="46.859462019056082" lon="11.158497026190162">
        <ele>1507.97</ele>
        <time>2018-09-17T11:07:15Z</time>
      </trkpt>
      <trkpt lat="46.859423965215683" lon="11.1586660053581">
        <ele>1506.52</ele>
        <time>2018-09-17T11:07:16Z</time>
      </trkpt>
      <trkpt lat="46.859382977709174" lon="11.158844958990812">
        <ele>1504.5999999999999</ele>
        <time>2018-09-17T11:07:17Z</time>
      </trkpt>
      <trkpt lat="46.859340984374285" lon="11.15903103724122">
        <ele>1502.6800000000001</ele>
        <time>2018-09-17T11:07:18Z</time>
      </trkpt>
      <trkpt lat="46.858817031607032" lon="11.16044900380075">
        <ele>1487.78</ele>
        <time>2018-09-17T11:07:25Z</time>
      </trkpt>
      <trkpt lat="46.858568005263805" lon="11.16128996014595">
        <ele>1482.49</ele>
        <time>2018-09-17T11:07:29Z</time>
      </trkpt>
      <trkpt lat="46.858516037464142" lon="11.161564970389009">
        <ele>1479.1300000000001</ele>
        <time>2018-09-17T11:07:31Z</time>
      </trkpt>
      <trkpt lat="46.858479995280504" lon="11.161606963723898">
        <ele>1477.2</ele>
        <time>2018-09-17T11:07:32Z</time>
      </trkpt>
      <trkpt lat="46.858403971418738" lon="11.161681981757283">
        <ele>1475.28</ele>
        <time>2018-09-17T11:07:33Z</time>
      </trkpt>
      <trkpt lat="46.858324008062482" lon="11.161727998405695">
        <ele>1473.8399999999999</ele>
        <time>2018-09-17T11:07:34Z</time>
      </trkpt>
      <trkpt lat="46.858227029442787" lon="11.161764962598681">
        <ele>1471.9200000000001</ele>
        <time>2018-09-17T11:07:35Z</time>
      </trkpt>
      <trkpt lat="46.85810498893261" lon="11.161749036982656">
        <ele>1469.99</ele>
        <time>2018-09-17T11:07:36Z</time>
      </trkpt>
      <trkpt lat="46.857982026413083" lon="11.161732021719217">
        <ele>1468.0699999999999</ele>
        <time>2018-09-17T11:07:37Z</time>
      </trkpt>
      <trkpt lat="46.857873983681202" lon="11.16171701811254">
        <ele>1465.6700000000001</ele>
        <time>2018-09-17T11:07:38Z</time>
      </trkpt>
      <trkpt lat="46.85773903504014" lon="11.161724980920553">
        <ele>1463.26</ele>
        <time>2018-09-17T11:07:39Z</time>
      </trkpt>
      <trkpt lat="46.8576530367136" lon="11.161811985075474">
        <ele>1461.3399999999999</ele>
        <time>2018-09-17T11:07:40Z</time>
      </trkpt>
      <trkpt lat="46.857558991760015" lon="11.161906030029058">
        <ele>1459.9000000000001</ele>
        <time>2018-09-17T11:07:41Z</time>
      </trkpt>
      <trkpt lat="46.857458995655179" lon="11.162006026133895">
        <ele>1457.98</ele>
        <time>2018-09-17T11:07:42Z</time>
      </trkpt>
      <trkpt lat="46.857361011207104" lon="11.16210300475359">
        <ele>1456.53</ele>
        <time>2018-09-17T11:07:43Z</time>
      </trkpt>
      <trkpt lat="46.857265960425138" lon="11.162160001695156">
        <ele>1455.0899999999999</ele>
        <time>2018-09-17T11:07:44Z</time>
      </trkpt>
      <trkpt lat="46.857183985412121" lon="11.162195038050413">
        <ele>1453.1700000000001</ele>
        <time>2018-09-17T11:07:45Z</time>
      </trkpt>
      <trkpt lat="46.857048030942678" lon="11.162117002531886">
        <ele>1450.77</ele>
        <time>2018-09-17T11:07:46Z</time>
      </trkpt>
      <trkpt lat="46.856906963512301" lon="11.162035027518868">
        <ele>1447.8800000000001</ele>
        <time>2018-09-17T11:07:47Z</time>
      </trkpt>
      <trkpt lat="46.856793975457549" lon="11.161969983950257">
        <ele>1445</ele>
        <time>2018-09-17T11:07:48Z</time>
      </trkpt>
      <trkpt lat="46.856684004887938" lon="11.161906030029058">
        <ele>1442.1099999999999</ele>
        <time>2018-09-17T11:07:49Z</time>
      </trkpt>
      <trkpt lat="46.856575040146708" lon="11.161842998117208">
        <ele>1439.71</ele>
        <time>2018-09-17T11:07:50Z</time>
      </trkpt>
      <trkpt lat="46.85647202655673" lon="11.1617829836905">
        <ele>1437.3099999999999</ele>
        <time>2018-09-17T11:07:51Z</time>
      </trkpt>
      <trkpt lat="46.856368007138371" lon="11.161722969263792">
        <ele>1435.3900000000001</ele>
        <time>2018-09-17T11:07:52Z</time>
      </trkpt>
      <trkpt lat="46.856187963858247" lon="11.161519037559628">
        <ele>1431.54</ele>
        <time>2018-09-17T11:07:54Z</time>
      </trkpt>
      <trkpt lat="46.855759983882308" lon="11.161006987094879">
        <ele>1426.25</ele>
        <time>2018-09-17T11:07:59Z</time>
      </trkpt>
      <trkpt lat="46.855679014697671" lon="11.160901039838791">
        <ele>1425.29</ele>
        <time>2018-09-17T11:08:00Z</time>
      </trkpt>
      <trkpt lat="46.855596033856273" lon="11.160799032077193">
        <ele>1423.8499999999999</ele>
        <time>2018-09-17T11:08:01Z</time>
      </trkpt>
      <trkpt lat="46.855510035529733" lon="11.160693001002073">
        <ele>1422.4100000000001</ele>
        <time>2018-09-17T11:08:02Z</time>
      </trkpt>
      <trkpt lat="46.855410961434245" lon="11.160660982131958">
        <ele>1420.97</ele>
        <time>2018-09-17T11:08:03Z</time>
      </trkpt>
      <trkpt lat="46.855298979207873" lon="11.160623012110591">
        <ele>1420</ele>
        <time>2018-09-17T11:08:04Z</time>
      </trkpt>
      <trkpt lat="46.855157995596528" lon="11.160591999068856">
        <ele>1418.5599999999999</ele>
        <time>2018-09-17T11:08:05Z</time>
      </trkpt>
      <trkpt lat="46.855031009763479" lon="11.160616977140307">
        <ele>1416.6400000000001</ele>
        <time>2018-09-17T11:08:06Z</time>
      </trkpt>
      <trkpt lat="46.854761028662324" lon="11.160756032913923">
        <ele>1414.24</ele>
        <time>2018-09-17T11:08:08Z</time>
      </trkpt>
      <trkpt lat="46.854642005637288" lon="11.160829961299896">
        <ele>1413.28</ele>
        <time>2018-09-17T11:08:09Z</time>
      </trkpt>
      <trkpt lat="46.854544021189213" lon="11.160915959626436">
        <ele>1412.3099999999999</ele>
        <time>2018-09-17T11:08:10Z</time>
      </trkpt>
      <trkpt lat="46.854440001770854" lon="11.161024002358317">
        <ele>1411.8299999999999</ele>
        <time>2018-09-17T11:08:11Z</time>
      </trkpt>
      <trkpt lat="46.854341011494398" lon="11.161152999848127">
        <ele>1411.3499999999999</ele>
        <time>2018-09-17T11:08:12Z</time>
      </trkpt>
      <trkpt lat="46.854143030941486" lon="11.161410994827747">
        <ele>1410.3900000000001</ele>
        <time>2018-09-17T11:08:14Z</time>
      </trkpt>
      <trkpt lat="46.854041023179889" lon="11.161534963175654">
        <ele>1409.4300000000001</ele>
        <time>2018-09-17T11:08:15Z</time>
      </trkpt>
      <trkpt lat="46.853900039568543" lon="11.161605035886168">
        <ele>1408.47</ele>
        <time>2018-09-17T11:08:16Z</time>
      </trkpt>
      <trkpt lat="46.852752976119518" lon="11.162205012515187">
        <ele>1397.8900000000001</ele>
        <time>2018-09-17T11:08:23Z</time>
      </trkpt>
      <trkpt lat="46.852141013368964" lon="11.162645984441042">
        <ele>1391.1700000000001</ele>
        <time>2018-09-17T11:08:28Z</time>
      </trkpt>
      <trkpt lat="46.852069012820721" lon="11.162717984989285">
        <ele>1390.2</ele>
        <time>2018-09-17T11:08:29Z</time>
      </trkpt>
      <trkpt lat="46.851901039481163" lon="11.162885036319494">
        <ele>1389.72</ele>
        <time>2018-09-17T11:08:31Z</time>
      </trkpt>
      <trkpt lat="46.851787967607379" lon="11.162998024374247">
        <ele>1388.76</ele>
        <time>2018-09-17T11:08:32Z</time>
      </trkpt>
      <trkpt lat="46.851650001481175" lon="11.163101037964225">
        <ele>1387.8</ele>
        <time>2018-09-17T11:08:33Z</time>
      </trkpt>
      <trkpt lat="46.850923039019108" lon="11.163513008505106">
        <ele>1382.03</ele>
        <time>2018-09-17T11:08:38Z</time>
      </trkpt>
      <trkpt lat="46.850785994902253" lon="11.163600012660027">
        <ele>1381.0699999999999</ele>
        <time>2018-09-17T11:08:39Z</time>
      </trkpt>
      <trkpt lat="46.850631013512611" lon="11.163618033751845">
        <ele>1380.1099999999999</ele>
        <time>2018-09-17T11:08:40Z</time>
      </trkpt>
      <trkpt lat="46.850234968587756" lon="11.163674024865031">
        <ele>1377.23</ele>
        <time>2018-09-17T11:08:43Z</time>
      </trkpt>
      <trkpt lat="46.850114017724991" lon="11.163734961301088">
        <ele>1376.26</ele>
        <time>2018-09-17T11:08:44Z</time>
      </trkpt>
      <trkpt lat="46.850022990256548" lon="11.163867982104421">
        <ele>1374.8199999999999</ele>
        <time>2018-09-17T11:08:45Z</time>
      </trkpt>
      <trkpt lat="46.849917965009809" lon="11.164035033434629">
        <ele>1374.3399999999999</ele>
        <time>2018-09-17T11:08:46Z</time>
      </trkpt>
      <trkpt lat="46.849803971126676" lon="11.164218010380864">
        <ele>1373.8599999999999</ele>
        <time>2018-09-17T11:08:47Z</time>
      </trkpt>
      <trkpt lat="46.84908002614975" lon="11.165445959195495">
        <ele>1371.46</ele>
        <time>2018-09-17T11:08:54Z</time>
      </trkpt>
      <trkpt lat="46.849009031429887" lon="11.165578979998827">
        <ele>1370.98</ele>
        <time>2018-09-17T11:08:55Z</time>
      </trkpt>
      <trkpt lat="46.848943987861276" lon="11.165699008852243">
        <ele>1370.5</ele>
        <time>2018-09-17T11:08:56Z</time>
      </trkpt>
      <trkpt lat="46.848854972049594" lon="11.165804034098983">
        <ele>1370.02</ele>
        <time>2018-09-17T11:08:57Z</time>
      </trkpt>
      <trkpt lat="46.848740978166461" lon="11.165867988020182">
        <ele>1369.54</ele>
        <time>2018-09-17T11:08:58Z</time>
      </trkpt>
      <trkpt lat="46.84861097484827" lon="11.165939988568425">
        <ele>1369.54</ele>
        <time>2018-09-17T11:08:59Z</time>
      </trkpt>
      <trkpt lat="46.848469991236925" lon="11.166019029915333">
        <ele>1369.05</ele>
        <time>2018-09-17T11:09:00Z</time>
      </trkpt>
      <trkpt lat="46.848311992362142" lon="11.166107039898634">
        <ele>1368.5699999999999</ele>
        <time>2018-09-17T11:09:01Z</time>
      </trkpt>
      <trkpt lat="46.848143013194203" lon="11.166201001033187">
        <ele>1368.5699999999999</ele>
        <time>2018-09-17T11:09:02Z</time>
      </trkpt>
      <trkpt lat="46.847970010712743" lon="11.166297979652882">
        <ele>1368.0899999999999</ele>
        <time>2018-09-17T11:09:03Z</time>
      </trkpt>
      <trkpt lat="46.847806982696056" lon="11.166389007121325">
        <ele>1366.6500000000001</ele>
        <time>2018-09-17T11:09:04Z</time>
      </trkpt>
      <trkpt lat="46.847334997728467" lon="11.166604002937675">
        <ele>1362.8099999999999</ele>
        <time>2018-09-17T11:09:07Z</time>
      </trkpt>
      <trkpt lat="46.847181022167206" lon="11.166715985164046">
        <ele>1362.3299999999999</ele>
        <time>2018-09-17T11:09:08Z</time>
      </trkpt>
      <trkpt lat="46.846368983387947" lon="11.16732400842011">
        <ele>1356.5599999999999</ele>
        <time>2018-09-17T11:09:14Z</time>
      </trkpt>
      <trkpt lat="46.846261024475098" lon="11.167444959282875">
        <ele>1355.5999999999999</ele>
        <time>2018-09-17T11:09:15Z</time>
      </trkpt>
      <trkpt lat="46.846056003123522" lon="11.167675964534283">
        <ele>1353.6700000000001</ele>
        <time>2018-09-17T11:09:17Z</time>
      </trkpt>
      <trkpt lat="46.845928011462092" lon="11.167730027809739">
        <ele>1352.71</ele>
        <time>2018-09-17T11:09:18Z</time>
      </trkpt>
      <trkpt lat="46.845788033679128" lon="11.167760035023093">
        <ele>1352.23</ele>
        <time>2018-09-17T11:09:19Z</time>
      </trkpt>
      <trkpt lat="46.845617964863777" lon="11.167795993387699">
        <ele>1351.75</ele>
        <time>2018-09-17T11:09:20Z</time>
      </trkpt>
      <trkpt lat="46.845487961545587" lon="11.167805967852473">
        <ele>1351.27</ele>
        <time>2018-09-17T11:09:21Z</time>
      </trkpt>
      <trkpt lat="46.845330968499184" lon="11.16781803779304">
        <ele>1350.79</ele>
        <time>2018-09-17T11:09:22Z</time>
      </trkpt>
      <trkpt lat="46.845176992937922" lon="11.167830023914576">
        <ele>1350.3099999999999</ele>
        <time>2018-09-17T11:09:23Z</time>
      </trkpt>
      <trkpt lat="46.845044977962971" lon="11.167847961187363">
        <ele>1349.8299999999999</ele>
        <time>2018-09-17T11:09:24Z</time>
      </trkpt>
      <trkpt lat="46.844917992129922" lon="11.167930020019412">
        <ele>1349.8299999999999</ele>
        <time>2018-09-17T11:09:25Z</time>
      </trkpt>
      <trkpt lat="46.844759993255138" lon="11.16803202778101">
        <ele>1349.3499999999999</ele>
        <time>2018-09-17T11:09:26Z</time>
      </trkpt>
      <trkpt lat="46.844670977443457" lon="11.168129006400704">
        <ele>1348.8699999999999</ele>
        <time>2018-09-17T11:09:27Z</time>
      </trkpt>
      <trkpt lat="46.844557989388704" lon="11.168254986405373">
        <ele>1348.3900000000001</ele>
        <time>2018-09-17T11:09:28Z</time>
      </trkpt>
      <trkpt lat="46.844447012990713" lon="11.16837702691555">
        <ele>1347.4300000000001</ele>
        <time>2018-09-17T11:09:29Z</time>
      </trkpt>
      <trkpt lat="46.844325978308916" lon="11.168492026627064">
        <ele>1346.9400000000001</ele>
        <time>2018-09-17T11:09:30Z</time>
      </trkpt>
      <trkpt lat="46.844195974990726" lon="11.168539971113205">
        <ele>1345.98</ele>
        <time>2018-09-17T11:09:31Z</time>
      </trkpt>
      <trkpt lat="46.843680990859866" lon="11.168744992464781">
        <ele>1343.0999999999999</ele>
        <time>2018-09-17T11:09:35Z</time>
      </trkpt>
      <trkpt lat="46.843474041670561" lon="11.168854963034391">
        <ele>1341.6600000000001</ele>
        <time>2018-09-17T11:09:37Z</time>
      </trkpt>
      <trkpt lat="46.843382008373737" lon="11.168873989954591">
        <ele>1341.1800000000001</ele>
        <time>2018-09-17T11:09:38Z</time>
      </trkpt>
      <trkpt lat="46.843290980905294" lon="11.168819004669785">
        <ele>1340.7</ele>
        <time>2018-09-17T11:09:39Z</time>
      </trkpt>
      <trkpt lat="46.843176987022161" lon="11.168749015778303">
        <ele>1340.22</ele>
        <time>2018-09-17T11:09:40Z</time>
      </trkpt>
      <trkpt lat="46.843051007017493" lon="11.168671986088157">
        <ele>1339.73</ele>
        <time>2018-09-17T11:09:41Z</time>
      </trkpt>
      <trkpt lat="46.842945981770754" lon="11.168537037447095">
        <ele>1338.77</ele>
        <time>2018-09-17T11:09:42Z</time>
      </trkpt>
      <trkpt lat="46.842855960130692" lon="11.168395970016718">
        <ele>1337.3299999999999</ele>
        <time>2018-09-17T11:09:43Z</time>
      </trkpt>
      <trkpt lat="46.84267801232636" lon="11.16811802610755">
        <ele>1335.4100000000001</ele>
        <time>2018-09-17T11:09:45Z</time>
      </trkpt>
      <trkpt lat="46.842441977933049" lon="11.16786003112793">
        <ele>1332.52</ele>
        <time>2018-09-17T11:09:47Z</time>
      </trkpt>
      <trkpt lat="46.84233795851469" lon="11.167790964245796">
        <ele>1331.0799999999999</ele>
        <time>2018-09-17T11:09:48Z</time>
      </trkpt>
      <trkpt lat="46.842190017923713" lon="11.167752994224429">
        <ele>1329.1600000000001</ele>
        <time>2018-09-17T11:09:49Z</time>
      </trkpt>
      <trkpt lat="46.84130203910172" lon="11.167607987299562">
        <ele>1318.5899999999999</ele>
        <time>2018-09-17T11:09:54Z</time>
      </trkpt>
      <trkpt lat="46.841129958629608" lon="11.167649980634451">
        <ele>1316.6600000000001</ele>
        <time>2018-09-17T11:09:55Z</time>
      </trkpt>
      <trkpt lat="46.840502992272377" lon="11.167767997831106">
        <ele>1307.53</ele>
        <time>2018-09-17T11:09:59Z</time>
      </trkpt>
      <trkpt lat="46.840267041698098" lon="11.167756011709571">
        <ele>1304.1700000000001</ele>
        <time>2018-09-17T11:10:01Z</time>
      </trkpt>
      <trkpt lat="46.840139972046018" lon="11.167832035571337">
        <ele>1302.24</ele>
        <time>2018-09-17T11:10:02Z</time>
      </trkpt>
      <trkpt lat="46.840051040053368" lon="11.167931025847793">
        <ele>1300.8</ele>
        <time>2018-09-17T11:10:03Z</time>
      </trkpt>
      <trkpt lat="46.839950960129499" lon="11.168043008074164">
        <ele>1298.8800000000001</ele>
        <time>2018-09-17T11:10:04Z</time>
      </trkpt>
      <trkpt lat="46.839846018701792" lon="11.16816102527082">
        <ele>1297.4400000000001</ele>
        <time>2018-09-17T11:10:05Z</time>
      </trkpt>
      <trkpt lat="46.839696988463402" lon="11.168220033869147">
        <ele>1295.51</ele>
        <time>2018-09-17T11:10:06Z</time>
      </trkpt>
      <trkpt lat="46.839541001245379" lon="11.168281976133585">
        <ele>1293.5899999999999</ele>
        <time>2018-09-17T11:10:07Z</time>
      </trkpt>
      <trkpt lat="46.839394988492131" lon="11.168382978066802">
        <ele>1292.1500000000001</ele>
        <time>2018-09-17T11:10:08Z</time>
      </trkpt>
      <trkpt lat="46.839261967688799" lon="11.168480962514877">
        <ele>1290.71</ele>
        <time>2018-09-17T11:10:09Z</time>
      </trkpt>
      <trkpt lat="46.839128024876118" lon="11.168543994426727">
        <ele>1288.78</ele>
        <time>2018-09-17T11:10:10Z</time>
      </trkpt>
      <trkpt lat="46.838991986587644" lon="11.168580036610365">
        <ele>1287.3399999999999</ele>
        <time>2018-09-17T11:10:11Z</time>
      </trkpt>
      <trkpt lat="46.838615974411368" lon="11.168680032715201">
        <ele>1282.54</ele>
        <time>2018-09-17T11:10:14Z</time>
      </trkpt>
      <trkpt lat="46.838507009670138" lon="11.168751027435064">
        <ele>1280.6099999999999</ele>
        <time>2018-09-17T11:10:15Z</time>
      </trkpt>
      <trkpt lat="46.83840299025178" lon="11.168819004669785">
        <ele>1279.1700000000001</ele>
        <time>2018-09-17T11:10:16Z</time>
      </trkpt>
      <trkpt lat="46.838116999715567" lon="11.169018996879458">
        <ele>1274.3599999999999</ele>
        <time>2018-09-17T11:10:19Z</time>
      </trkpt>
      <trkpt lat="46.838054973632097" lon="11.16913097910583">
        <ele>1272.4400000000001</ele>
        <time>2018-09-17T11:10:20Z</time>
      </trkpt>
      <trkpt lat="46.838006023317575" lon="11.169263999909163">
        <ele>1271</ele>
        <time>2018-09-17T11:10:21Z</time>
      </trkpt>
      <trkpt lat="46.837971992790699" lon="11.169421998783946">
        <ele>1269.0799999999999</ele>
        <time>2018-09-17T11:10:22Z</time>
      </trkpt>
      <trkpt lat="46.837938968092203" lon="11.169575974345207">
        <ele>1267.6400000000001</ele>
        <time>2018-09-17T11:10:23Z</time>
      </trkpt>
      <trkpt lat="46.83790703304112" lon="11.169728022068739">
        <ele>1265.71</ele>
        <time>2018-09-17T11:10:24Z</time>
      </trkpt>
      <trkpt lat="46.837842995300889" lon="11.169849978759885">
        <ele>1263.79</ele>
        <time>2018-09-17T11:10:25Z</time>
      </trkpt>
      <trkpt lat="46.83775800280273" lon="11.169948969036341">
        <ele>1261.8699999999999</ele>
        <time>2018-09-17T11:10:26Z</time>
      </trkpt>
      <trkpt lat="46.837676027789712" lon="11.170044019818306">
        <ele>1259.9400000000001</ele>
        <time>2018-09-17T11:10:27Z</time>
      </trkpt>
      <trkpt lat="46.837583994492888" lon="11.170087018981576">
        <ele>1258.5</ele>
        <time>2018-09-17T11:10:28Z</time>
      </trkpt>
      <trkpt lat="46.837483998388052" lon="11.17007696069777">
        <ele>1257.0599999999999</ele>
        <time>2018-09-17T11:10:29Z</time>
      </trkpt>
      <trkpt lat="46.837378973141313" lon="11.170051982626319">
        <ele>1256.0999999999999</ele>
        <time>2018-09-17T11:10:30Z</time>
      </trkpt>
      <trkpt lat="46.837275959551334" lon="11.170006971806288">
        <ele>1255.1400000000001</ele>
        <time>2018-09-17T11:10:31Z</time>
      </trkpt>
      <trkpt lat="46.837172023952007" lon="11.169961960986257">
        <ele>1253.7</ele>
        <time>2018-09-17T11:10:32Z</time>
      </trkpt>
      <trkpt lat="46.837077978998423" lon="11.169919967651367">
        <ele>1252.74</ele>
        <time>2018-09-17T11:10:33Z</time>
      </trkpt>
      <trkpt lat="46.836977982893586" lon="11.169964978471398">
        <ele>1251.77</ele>
        <time>2018-09-17T11:10:34Z</time>
      </trkpt>
      <trkpt lat="46.83687798678875" lon="11.17000998929143">
        <ele>1250.8099999999999</ele>
        <time>2018-09-17T11:10:35Z</time>
      </trkpt>
      <trkpt lat="46.836775979027152" lon="11.170056005939841">
        <ele>1249.8499999999999</ele>
        <time>2018-09-17T11:10:36Z</time>
      </trkpt>
      <trkpt lat="46.836671037599444" lon="11.170103028416634">
        <ele>1248.4100000000001</ele>
        <time>2018-09-17T11:10:37Z</time>
      </trkpt>
      <trkpt lat="46.836547991260886" lon="11.170093975961208">
        <ele>1246.49</ele>
        <time>2018-09-17T11:10:38Z</time>
      </trkpt>
      <trkpt lat="46.836422011256218" lon="11.170070003718138">
        <ele>1245.04</ele>
        <time>2018-09-17T11:10:39Z</time>
      </trkpt>
      <trkpt lat="46.836286978796124" lon="11.170044019818306">
        <ele>1243.1199999999999</ele>
        <time>2018-09-17T11:10:40Z</time>
      </trkpt>
      <trkpt lat="46.836155969649553" lon="11.170019041746855">
        <ele>1241.2</ele>
        <time>2018-09-17T11:10:41Z</time>
      </trkpt>
      <trkpt lat="46.836047004908323" lon="11.169962966814637">
        <ele>1238.8</ele>
        <time>2018-09-17T11:10:42Z</time>
      </trkpt>
      <trkpt lat="46.835939968004823" lon="11.169856013730168">
        <ele>1236.8699999999999</ele>
        <time>2018-09-17T11:10:43Z</time>
      </trkpt>
      <trkpt lat="46.835881965234876" lon="11.169768003746867">
        <ele>1235.4300000000001</ele>
        <time>2018-09-17T11:10:44Z</time>
      </trkpt>
      <trkpt lat="46.835805019363761" lon="11.169651998206973">
        <ele>1233.51</ele>
        <time>2018-09-17T11:10:45Z</time>
      </trkpt>
      <trkpt lat="46.835712986066937" lon="11.169529035687447">
        <ele>1231.5899999999999</ele>
        <time>2018-09-17T11:10:46Z</time>
      </trkpt>
      <trkpt lat="46.835593963041902" lon="11.169483019039035">
        <ele>1230.1400000000001</ele>
        <time>2018-09-17T11:10:47Z</time>
      </trkpt>
      <trkpt lat="46.835447028279305" lon="11.169427027925849">
        <ele>1228.7</ele>
        <time>2018-09-17T11:10:48Z</time>
      </trkpt>
      <trkpt lat="46.835320964455605" lon="11.169445971027017">
        <ele>1227.26</ele>
        <time>2018-09-17T11:10:49Z</time>
      </trkpt>
      <trkpt lat="46.835164977237582" lon="11.169470027089119">
        <ele>1225.8199999999999</ele>
        <time>2018-09-17T11:10:50Z</time>
      </trkpt>
      <trkpt lat="46.835015024989843" lon="11.169532975181937">
        <ele>1223.9000000000001</ele>
        <time>2018-09-17T11:10:51Z</time>
      </trkpt>
      <trkpt lat="46.834425022825599" lon="11.169840004295111">
        <ele>1218.6099999999999</ele>
        <time>2018-09-17T11:10:55Z</time>
      </trkpt>
      <trkpt lat="46.83429803699255" lon="11.169959027320147">
        <ele>1217.1700000000001</ele>
        <time>2018-09-17T11:10:56Z</time>
      </trkpt>
      <trkpt lat="46.834177002310753" lon="11.17009598761797">
        <ele>1215.72</ele>
        <time>2018-09-17T11:10:57Z</time>
      </trkpt>
      <trkpt lat="46.834089998155832" lon="11.170259015634656">
        <ele>1213.8</ele>
        <time>2018-09-17T11:10:58Z</time>
      </trkpt>
      <trkpt lat="46.834009028971195" lon="11.170422965660691">
        <ele>1212.3599999999999</ele>
        <time>2018-09-17T11:10:59Z</time>
      </trkpt>
      <trkpt lat="46.833923030644655" lon="11.170627987012267">
        <ele>1210.4400000000001</ele>
        <time>2018-09-17T11:11:00Z</time>
      </trkpt>
      <trkpt lat="46.833800990134478" lon="11.170737035572529">
        <ele>1209</ele>
        <time>2018-09-17T11:11:01Z</time>
      </trkpt>
      <trkpt lat="46.833666041493416" lon="11.170823033899069">
        <ele>1207.55</ele>
        <time>2018-09-17T11:11:02Z</time>
      </trkpt>
      <trkpt lat="46.833534026518464" lon="11.170907020568848">
        <ele>1206.1099999999999</ele>
        <time>2018-09-17T11:11:03Z</time>
      </trkpt>
      <trkpt lat="46.833308972418308" lon="11.171050015836954">
        <ele>1203.23</ele>
        <time>2018-09-17T11:11:05Z</time>
      </trkpt>
      <trkpt lat="46.833167988806963" lon="11.171140037477016">
        <ele>1200.8199999999999</ele>
        <time>2018-09-17T11:11:07Z</time>
      </trkpt>
      <trkpt lat="46.833129012957215" lon="11.171165015548468">
        <ele>1199.3800000000001</ele>
        <time>2018-09-17T11:11:08Z</time>
      </trkpt>
      <trkpt lat="46.83311702683568" lon="11.171152023598552">
        <ele>1197.9400000000001</ele>
        <time>2018-09-17T11:11:09Z</time>
      </trkpt>
      <trkpt lat="46.833100011572242" lon="11.171096032485366">
        <ele>1196.5</ele>
        <time>2018-09-17T11:11:10Z</time>
      </trkpt>
      <trkpt lat="46.833123983815312" lon="11.171046998351812">
        <ele>1195.0599999999999</ele>
        <time>2018-09-17T11:11:11Z</time>
      </trkpt>
      <trkpt lat="46.833192966878414" lon="11.170978015288711">
        <ele>1193.6099999999999</ele>
        <time>2018-09-17T11:11:12Z</time>
      </trkpt>
      <trkpt lat="46.833279971033335" lon="11.170896962285042">
        <ele>1192.1700000000001</ele>
        <time>2018-09-17T11:11:13Z</time>
      </trkpt>
      <trkpt lat="46.833378039300442" lon="11.170806018635631">
        <ele>1190.73</ele>
        <time>2018-09-17T11:11:14Z</time>
      </trkpt>
      <trkpt lat="46.833488009870052" lon="11.170704010874033">
        <ele>1189.29</ele>
        <time>2018-09-17T11:11:15Z</time>
      </trkpt>
      <trkpt lat="46.833597980439663" lon="11.170602003112435">
        <ele>1187.8499999999999</ele>
        <time>2018-09-17T11:11:16Z</time>
      </trkpt>
      <trkpt lat="46.833709040656686" lon="11.170498989522457">
        <ele>1186.8800000000001</ele>
        <time>2018-09-17T11:11:17Z</time>
      </trkpt>
      <trkpt lat="46.833753967657685" lon="11.170319030061364">
        <ele>1184.96</ele>
        <time>2018-09-17T11:11:18Z</time>
      </trkpt>
      <trkpt lat="46.833805013448" lon="11.170113002881408">
        <ele>1183.52</ele>
        <time>2018-09-17T11:11:19Z</time>
      </trkpt>
      <trkpt lat="46.833872990682721" lon="11.169900018721819">
        <ele>1182.5599999999999</ele>
        <time>2018-09-17T11:11:20Z</time>
      </trkpt>
      <trkpt lat="46.833953959867358" lon="11.16970899514854">
        <ele>1181.1199999999999</ele>
        <time>2018-09-17T11:11:21Z</time>
      </trkpt>
      <trkpt lat="46.834031995385885" lon="11.169525012373924">
        <ele>1179.6700000000001</ele>
        <time>2018-09-17T11:11:22Z</time>
      </trkpt>
      <trkpt lat="46.834126962348819" lon="11.169377993792295">
        <ele>1178.23</ele>
        <time>2018-09-17T11:11:23Z</time>
      </trkpt>
      <trkpt lat="46.834239028394222" lon="11.169275986030698">
        <ele>1176.3099999999999</ele>
        <time>2018-09-17T11:11:24Z</time>
      </trkpt>
      <trkpt lat="46.834350004792213" lon="11.1691739782691">
        <ele>1174.8699999999999</ele>
        <time>2018-09-17T11:11:25Z</time>
      </trkpt>
      <trkpt lat="46.834467016160488" lon="11.169067025184631">
        <ele>1173.4300000000001</ele>
        <time>2018-09-17T11:11:26Z</time>
      </trkpt>
      <trkpt lat="46.834567012265325" lon="11.168975997716188">
        <ele>1171.98</ele>
        <time>2018-09-17T11:11:27Z</time>
      </trkpt>
      <trkpt lat="46.83468896895647" lon="11.168854963034391">
        <ele>1169.5799999999999</ele>
        <time>2018-09-17T11:11:28Z</time>
      </trkpt>
      <trkpt lat="46.834789970889688" lon="11.168753039091825">
        <ele>1166.7</ele>
        <time>2018-09-17T11:11:29Z</time>
      </trkpt>
      <trkpt lat="46.834973031654954" lon="11.168569978326559">
        <ele>1162.3699999999999</ele>
        <time>2018-09-17T11:11:31Z</time>
      </trkpt>
      <trkpt lat="46.835046960040927" lon="11.168518010526896">
        <ele>1159.97</ele>
        <time>2018-09-17T11:11:32Z</time>
      </trkpt>
      <trkpt lat="46.835678033530712" lon="11.168350959196687">
        <ele>1152.28</ele>
        <time>2018-09-17T11:11:37Z</time>
      </trkpt>
      <trkpt lat="46.835905015468597" lon="11.16829102858901">
        <ele>1149.3900000000001</ele>
        <time>2018-09-17T11:11:39Z</time>
      </trkpt>
      <trkpt lat="46.835993025451899" lon="11.168267978355289">
        <ele>1147.95</ele>
        <time>2018-09-17T11:11:40Z</time>
      </trkpt>
      <trkpt lat="46.836066031828523" lon="11.16824802942574">
        <ele>1146.99</ele>
        <time>2018-09-17T11:11:41Z</time>
      </trkpt>
      <trkpt lat="46.836154963821173" lon="11.168224979192019">
        <ele>1146.99</ele>
        <time>2018-09-17T11:11:42Z</time>
      </trkpt>
      <trkpt lat="46.836171979084611" lon="11.168192038312554">
        <ele>1146.51</ele>
        <time>2018-09-17T11:11:43Z</time>
      </trkpt>
      <trkpt lat="46.836130991578102" lon="11.16812095977366">
        <ele>1146.99</ele>
        <time>2018-09-17T11:11:44Z</time>
      </trkpt>
      <trkpt lat="46.836077012121677" lon="11.168106039986014">
        <ele>1146.99</ele>
        <time>2018-09-17T11:11:45Z</time>
      </trkpt>
      <trkpt lat="46.835999982431531" lon="11.168085001409054">
        <ele>1146.99</ele>
        <time>2018-09-17T11:11:46Z</time>
      </trkpt>
      <trkpt lat="46.835903003811836" lon="11.168083995580673">
        <ele>1147.47</ele>
        <time>2018-09-17T11:11:47Z</time>
      </trkpt>
      <trkpt lat="46.835270002484322" lon="11.168173011392355">
        <ele>1147.47</ele>
        <time>2018-09-17T11:11:52Z</time>
      </trkpt>
      <trkpt lat="46.835135975852609" lon="11.168129006400704">
        <ele>1146.51</ele>
        <time>2018-09-17T11:11:53Z</time>
      </trkpt>
      <trkpt lat="46.835007984191179" lon="11.168086007237434">
        <ele>1146.03</ele>
        <time>2018-09-17T11:11:54Z</time>
      </trkpt>
      <trkpt lat="46.834782008081675" lon="11.168009983375669">
        <ele>1144.1099999999999</ele>
        <time>2018-09-17T11:11:56Z</time>
      </trkpt>
      <trkpt lat="46.83468502946198" lon="11.168009983375669">
        <ele>1143.1400000000001</ele>
        <time>2018-09-17T11:11:57Z</time>
      </trkpt>
      <trkpt lat="46.83460003696382" lon="11.168053988367319">
        <ele>1142.1800000000001</ele>
        <time>2018-09-17T11:11:58Z</time>
      </trkpt>
      <trkpt lat="46.834530970081687" lon="11.168149961158633">
        <ele>1141.22</ele>
        <time>2018-09-17T11:11:59Z</time>
      </trkpt>
      <trkpt lat="46.834448995068669" lon="11.168263033032417">
        <ele>1139.78</ele>
        <time>2018-09-17T11:12:00Z</time>
      </trkpt>
      <trkpt lat="46.834246991202235" lon="11.168460007756948">
        <ele>1136.4200000000001</ele>
        <time>2018-09-17T11:12:02Z</time>
      </trkpt>
      <trkpt lat="46.834130985662341" lon="11.168493032455444">
        <ele>1134.97</ele>
        <time>2018-09-17T11:12:03Z</time>
      </trkpt>
      <trkpt lat="46.834009028971195" lon="11.16852798499167">
        <ele>1133.53</ele>
        <time>2018-09-17T11:12:04Z</time>
      </trkpt>
      <trkpt lat="46.833895035088062" lon="11.168589005246758">
        <ele>1131.6099999999999</ele>
        <time>2018-09-17T11:12:05Z</time>
      </trkpt>
      <trkpt lat="46.833798978477716" lon="11.168667962774634">
        <ele>1130.6500000000001</ele>
        <time>2018-09-17T11:12:06Z</time>
      </trkpt>
      <trkpt lat="46.833686996251345" lon="11.168761001899838">
        <ele>1130.1700000000001</ele>
        <time>2018-09-17T11:12:07Z</time>
      </trkpt>
      <trkpt lat="46.833616001531482" lon="11.16884901188314">
        <ele>1129.21</ele>
        <time>2018-09-17T11:12:08Z</time>
      </trkpt>
      <trkpt lat="46.833521034568548" lon="11.168966023251414">
        <ele>1128.73</ele>
        <time>2018-09-17T11:12:09Z</time>
      </trkpt>
      <trkpt lat="46.833154996857047" lon="11.169416969642043">
        <ele>1124.4000000000001</ele>
        <time>2018-09-17T11:12:13Z</time>
      </trkpt>
      <trkpt lat="46.833037985488772" lon="11.169475978240371">
        <ele>1122.96</ele>
        <time>2018-09-17T11:12:14Z</time>
      </trkpt>
      <trkpt lat="46.832937989383936" lon="11.169507997110486">
        <ele>1122</ele>
        <time>2018-09-17T11:12:15Z</time>
      </trkpt>
      <trkpt lat="46.83283899910748" lon="11.169539010152221">
        <ele>1121.52</ele>
        <time>2018-09-17T11:12:16Z</time>
      </trkpt>
      <trkpt lat="46.832731962203979" lon="11.16956097073853">
        <ele>1121.03</ele>
        <time>2018-09-17T11:12:17Z</time>
      </trkpt>
      <trkpt lat="46.832629032433033" lon="11.169571029022336">
        <ele>1120.0699999999999</ele>
        <time>2018-09-17T11:12:18Z</time>
      </trkpt>
      <trkpt lat="46.832536999136209" lon="11.169601958245039">
        <ele>1119.5899999999999</ele>
        <time>2018-09-17T11:12:19Z</time>
      </trkpt>
      <trkpt lat="46.832420993596315" lon="11.169684017077088">
        <ele>1119.1099999999999</ele>
        <time>2018-09-17T11:12:20Z</time>
      </trkpt>
      <trkpt lat="46.832349998876452" lon="11.169765992090106">
        <ele>1118.6300000000001</ele>
        <time>2018-09-17T11:12:21Z</time>
      </trkpt>
      <trkpt lat="46.832257965579629" lon="11.169878980144858">
        <ele>1118.1500000000001</ele>
        <time>2018-09-17T11:12:22Z</time>
      </trkpt>
      <trkpt lat="46.83217297308147" lon="11.170029016211629">
        <ele>1117.6700000000001</ele>
        <time>2018-09-17T11:12:23Z</time>
      </trkpt>
      <trkpt lat="46.831988990306854" lon="11.170351970940828">
        <ele>1116.71</ele>
        <time>2018-09-17T11:12:25Z</time>
      </trkpt>
      <trkpt lat="46.831821016967297" lon="11.170650031417608">
        <ele>1115.27</ele>
        <time>2018-09-17T11:12:27Z</time>
      </trkpt>
      <trkpt lat="46.831689001992345" lon="11.170770982280374">
        <ele>1114.3099999999999</ele>
        <time>2018-09-17T11:12:28Z</time>
      </trkpt>
      <trkpt lat="46.831575008109212" lon="11.170877013355494">
        <ele>1113.3399999999999</ele>
        <time>2018-09-17T11:12:29Z</time>
      </trkpt>
      <trkpt lat="46.831454979255795" lon="11.170971980318427">
        <ele>1112.3800000000001</ele>
        <time>2018-09-17T11:12:30Z</time>
      </trkpt>
      <trkpt lat="46.831340985372663" lon="11.171056972816586">
        <ele>1110.9400000000001</ele>
        <time>2018-09-17T11:12:31Z</time>
      </trkpt>
      <trkpt lat="46.831213999539614" lon="11.171124028041959">
        <ele>1109.98</ele>
        <time>2018-09-17T11:12:32Z</time>
      </trkpt>
      <trkpt lat="46.831096988171339" lon="11.171161998063326">
        <ele>1108.54</ele>
        <time>2018-09-17T11:12:33Z</time>
      </trkpt>
      <trkpt lat="46.830954998731613" lon="11.171174990013242">
        <ele>1107.0999999999999</ele>
        <time>2018-09-17T11:12:34Z</time>
      </trkpt>
      <trkpt lat="46.830719970166683" lon="11.171139031648636">
        <ele>1105.1700000000001</ele>
        <time>2018-09-17T11:12:36Z</time>
      </trkpt>
      <trkpt lat="46.830613017082214" lon="11.171123022213578">
        <ele>1104.21</ele>
        <time>2018-09-17T11:12:37Z</time>
      </trkpt>
      <trkpt lat="46.83051997795701" lon="11.171108018606901">
        <ele>1103.73</ele>
        <time>2018-09-17T11:12:38Z</time>
      </trkpt>
      <trkpt lat="46.830429034307599" lon="11.171122016385198">
        <ele>1102.77</ele>
        <time>2018-09-17T11:12:39Z</time>
      </trkpt>
      <trkpt lat="46.83036700822413" lon="11.171156968921423">
        <ele>1101.8099999999999</ele>
        <time>2018-09-17T11:12:40Z</time>
      </trkpt>
      <trkpt lat="46.830319985747337" lon="11.171182030811906">
        <ele>1101.3299999999999</ele>
        <time>2018-09-17T11:12:41Z</time>
      </trkpt>
      <trkpt lat="46.830267012119293" lon="11.171186976134777">
        <ele>1100.8499999999999</ele>
        <time>2018-09-17T11:12:42Z</time>
      </trkpt>
      <trkpt lat="46.830255025997758" lon="11.171156968921423">
        <ele>1100.3699999999999</ele>
        <time>2018-09-17T11:12:43Z</time>
      </trkpt>
      <trkpt lat="46.830298025161028" lon="11.171045992523432">
        <ele>1099.4000000000001</ele>
        <time>2018-09-17T11:12:44Z</time>
      </trkpt>
      <trkpt lat="46.830335995182395" lon="11.171013973653316">
        <ele>1098.9200000000001</ele>
        <time>2018-09-17T11:12:45Z</time>
      </trkpt>
      <trkpt lat="46.83038997463882" lon="11.170984972268343">
        <ele>1097.96</ele>
        <time>2018-09-17T11:12:46Z</time>
      </trkpt>
      <trkpt lat="46.830449989065528" lon="11.170968962833285">
        <ele>1097.48</ele>
        <time>2018-09-17T11:12:47Z</time>
      </trkpt>
      <trkpt lat="46.830521989613771" lon="11.170950019732118">
        <ele>1096.52</ele>
        <time>2018-09-17T11:12:48Z</time>
      </trkpt>
      <trkpt lat="46.830921974033117" lon="11.170840971171856">
        <ele>1094.1199999999999</ele>
        <time>2018-09-17T11:12:52Z</time>
      </trkpt>
      <trkpt lat="46.831043008714914" lon="11.170761007815599">
        <ele>1093.1600000000001</ele>
        <time>2018-09-17T11:12:53Z</time>
      </trkpt>
      <trkpt lat="46.831172006204724" lon="11.170675009489059">
        <ele>1092.6800000000001</ele>
        <time>2018-09-17T11:12:54Z</time>
      </trkpt>
      <trkpt lat="46.831281976774335" lon="11.170544000342488">
        <ele>1091.71</ele>
        <time>2018-09-17T11:12:55Z</time>
      </trkpt>
      <trkpt lat="46.831402005627751" lon="11.170398993417621">
        <ele>1090.75</ele>
        <time>2018-09-17T11:12:56Z</time>
      </trkpt>
      <trkpt lat="46.831884970888495" lon="11.169831035658717">
        <ele>1085.47</ele>
        <time>2018-09-17T11:13:00Z</time>
      </trkpt>
      <trkpt lat="46.831987984478474" lon="11.169669013470411">
        <ele>1084.02</ele>
        <time>2018-09-17T11:13:01Z</time>
      </trkpt>
      <trkpt lat="46.832082029432058" lon="11.169520989060402">
        <ele>1082.0999999999999</ele>
        <time>2018-09-17T11:13:02Z</time>
      </trkpt>
      <trkpt lat="46.832176996394992" lon="11.169391991570592">
        <ele>1080.1800000000001</ele>
        <time>2018-09-17T11:13:03Z</time>
      </trkpt>
      <trkpt lat="46.832287972792983" lon="11.169281015172601">
        <ele>1078.26</ele>
        <time>2018-09-17T11:13:04Z</time>
      </trkpt>
      <trkpt lat="46.832583015784621" lon="11.168930986896157">
        <ele>1072.97</ele>
        <time>2018-09-17T11:13:07Z</time>
      </trkpt>
      <trkpt lat="46.832650993019342" lon="11.168796960264444">
        <ele>1071.05</ele>
        <time>2018-09-17T11:13:08Z</time>
      </trkpt>
      <trkpt lat="46.832685023546219" lon="11.168646002188325">
        <ele>1069.5999999999999</ele>
        <time>2018-09-17T11:13:09Z</time>
      </trkpt>
      <trkpt lat="46.832716036587954" lon="11.168491020798683">
        <ele>1067.6800000000001</ele>
        <time>2018-09-17T11:13:10Z</time>
      </trkpt>
      <trkpt lat="46.832758029922843" lon="11.168338973075151">
        <ele>1066.24</ele>
        <time>2018-09-17T11:13:11Z</time>
      </trkpt>
      <trkpt lat="46.832800023257732" lon="11.168195977807045">
        <ele>1064.8</ele>
        <time>2018-09-17T11:13:12Z</time>
      </trkpt>
      <trkpt lat="46.832973025739193" lon="11.167311016470194">
        <ele>1057.5899999999999</ele>
        <time>2018-09-17T11:13:18Z</time>
      </trkpt>
      <trkpt lat="46.833009989932179" lon="11.167177995666862">
        <ele>1056.6300000000001</ele>
        <time>2018-09-17T11:13:19Z</time>
      </trkpt>
      <trkpt lat="46.833044020459056" lon="11.167064001783729">
        <ele>1055.6700000000001</ele>
        <time>2018-09-17T11:13:20Z</time>
      </trkpt>
      <trkpt lat="46.833100011572242" lon="11.166879013180733">
        <ele>1053.74</ele>
        <time>2018-09-17T11:13:22Z</time>
      </trkpt>
      <trkpt lat="46.833044020459056" lon="11.16680902428925">
        <ele>1053.26</ele>
        <time>2018-09-17T11:13:23Z</time>
      </trkpt>
      <trkpt lat="46.833107974380255" lon="11.16685202345252">
        <ele>1052.78</ele>
        <time>2018-09-17T11:13:24Z</time>
      </trkpt>
      <trkpt lat="46.833084002137184" lon="11.166836014017463">
        <ele>1052.78</ele>
        <time>2018-09-17T11:13:25Z</time>
      </trkpt>
      <trkpt lat="46.833044020459056" lon="11.16680902428925">
        <ele>1052.78</ele>
        <time>2018-09-17T11:13:26Z</time>
      </trkpt>
      <trkpt lat="46.833018036559224" lon="11.166870966553688">
        <ele>1053.26</ele>
        <time>2018-09-17T11:13:27Z</time>
      </trkpt>
      <trkpt lat="46.832979982718825" lon="11.166962999850512">
        <ele>1053.26</ele>
        <time>2018-09-17T11:13:28Z</time>
      </trkpt>
      <trkpt lat="46.832931032404304" lon="11.167081017047167">
        <ele>1052.78</ele>
        <time>2018-09-17T11:13:29Z</time>
      </trkpt>
      <trkpt lat="46.832626014947891" lon="11.16782097145915">
        <ele>1049.4200000000001</ele>
        <time>2018-09-17T11:13:34Z</time>
      </trkpt>
      <trkpt lat="46.832564994692802" lon="11.167967990040779">
        <ele>1048.45</ele>
        <time>2018-09-17T11:13:35Z</time>
      </trkpt>
      <trkpt lat="46.832318985834718" lon="11.168350959196687">
        <ele>1045.5699999999999</ele>
        <time>2018-09-17T11:13:38Z</time>
      </trkpt>
      <trkpt lat="46.832113964483142" lon="11.16852798499167">
        <ele>1043.1700000000001</ele>
        <time>2018-09-17T11:13:40Z</time>
      </trkpt>
      <trkpt lat="46.832010028883815" lon="11.168562015518546">
        <ele>1041.73</ele>
        <time>2018-09-17T11:13:41Z</time>
      </trkpt>
      <trkpt lat="46.831326987594366" lon="11.168668968603015">
        <ele>1035.48</ele>
        <time>2018-09-17T11:13:47Z</time>
      </trkpt>
      <trkpt lat="46.831217017024755" lon="11.168712973594666">
        <ele>1035</ele>
        <time>2018-09-17T11:13:48Z</time>
      </trkpt>
      <trkpt lat="46.831111991778016" lon="11.168769970536232">
        <ele>1034.04</ele>
        <time>2018-09-17T11:13:49Z</time>
      </trkpt>
      <trkpt lat="46.830459041520953" lon="11.169099966064095">
        <ele>1025.8599999999999</ele>
        <time>2018-09-17T11:13:57Z</time>
      </trkpt>
      <trkpt lat="46.830407995730639" lon="11.169119998812675">
        <ele>1025.3800000000001</ele>
        <time>2018-09-17T11:13:58Z</time>
      </trkpt>
      <trkpt lat="46.830361979082227" lon="11.169139025732875">
        <ele>1024.9000000000001</ele>
        <time>2018-09-17T11:13:59Z</time>
      </trkpt>
      <trkpt lat="46.830326020717621" lon="11.169161992147565">
        <ele>1024.4200000000001</ele>
        <time>2018-09-17T11:14:00Z</time>
      </trkpt>
      <trkpt lat="46.830274974927306" lon="11.16921303793788">
        <ele>1023.9400000000001</ele>
        <time>2018-09-17T11:14:01Z</time>
      </trkpt>
      <trkpt lat="46.830213032662868" lon="11.169274980202317">
        <ele>1023.46</ele>
        <time>2018-09-17T11:14:02Z</time>
      </trkpt>
      <trkpt lat="46.830144971609116" lon="11.16934597492218">
        <ele>1022.98</ele>
        <time>2018-09-17T11:14:03Z</time>
      </trkpt>
      <trkpt lat="46.830105995759368" lon="11.16947497241199">
        <ele>1022.5</ele>
        <time>2018-09-17T11:14:04Z</time>
      </trkpt>
      <trkpt lat="46.830080011859536" lon="11.169608999043703">
        <ele>1021.54</ele>
        <time>2018-09-17T11:14:05Z</time>
      </trkpt>
      <trkpt lat="46.830073976889253" lon="11.16975199431181">
        <ele>1021.0599999999999</ele>
        <time>2018-09-17T11:14:06Z</time>
      </trkpt>
      <trkpt lat="46.830033995211124" lon="11.170200007036328">
        <ele>1018.17</ele>
        <time>2018-09-17T11:14:09Z</time>
      </trkpt>
      <trkpt lat="46.829995019361377" lon="11.170361023396254">
        <ele>1017.21</ele>
        <time>2018-09-17T11:14:10Z</time>
      </trkpt>
      <trkpt lat="46.829936010763049" lon="11.17050401866436">
        <ele>1015.77</ele>
        <time>2018-09-17T11:14:11Z</time>
      </trkpt>
      <trkpt lat="46.829857975244522" lon="11.170648019760847">
        <ele>1014.8099999999999</ele>
        <time>2018-09-17T11:14:12Z</time>
      </trkpt>
      <trkpt lat="46.829773988574743" lon="11.170783974230289">
        <ele>1013.85</ele>
        <time>2018-09-17T11:14:13Z</time>
      </trkpt>
      <trkpt lat="46.829686984419823" lon="11.170924035832286">
        <ele>1012.41</ele>
        <time>2018-09-17T11:14:14Z</time>
      </trkpt>
      <trkpt lat="46.829612972214818" lon="11.171041969209909">
        <ele>1011.9299999999999</ele>
        <time>2018-09-17T11:14:15Z</time>
      </trkpt>
      <trkpt lat="46.829366963356733" lon="11.171437008306384">
        <ele>1008.08</ele>
        <time>2018-09-17T11:14:19Z</time>
      </trkpt>
      <trkpt lat="46.829294040799141" lon="11.171555025503039">
        <ele>1007.6</ele>
        <time>2018-09-17T11:14:20Z</time>
      </trkpt>
      <trkpt lat="46.829203013330698" lon="11.171701038256288">
        <ele>1006.64</ele>
        <time>2018-09-17T11:14:21Z</time>
      </trkpt>
      <trkpt lat="46.829098993912339" lon="11.171801034361124">
        <ele>1005.2</ele>
        <time>2018-09-17T11:14:22Z</time>
      </trkpt>
      <trkpt lat="46.828892966732383" lon="11.172000020742416">
        <ele>1002.79</ele>
        <time>2018-09-17T11:14:23Z</time>
      </trkpt>
      <trkpt lat="46.828336995095015" lon="11.172536965459585">
        <ele>997.01999999999998</ele>
        <time>2018-09-17T11:14:27Z</time>
      </trkpt>
      <trkpt lat="46.828018985688686" lon="11.172842988744378">
        <ele>994.13999999999999</ele>
        <time>2018-09-17T11:14:30Z</time>
      </trkpt>
      <trkpt lat="46.827953020110726" lon="11.172948013991117">
        <ele>993.17999999999995</ele>
        <time>2018-09-17T11:14:31Z</time>
      </trkpt>
      <trkpt lat="46.827899040654302" lon="11.17308396846056">
        <ele>992.22000000000003</ele>
        <time>2018-09-17T11:14:32Z</time>
      </trkpt>
      <trkpt lat="46.827779011800885" lon="11.173962978646159">
        <ele>989.33000000000004</ele>
        <time>2018-09-17T11:14:36Z</time>
      </trkpt>
      <trkpt lat="46.827700976282358" lon="11.175845973193645">
        <ele>984.52999999999997</ele>
        <time>2018-09-17T11:14:43Z</time>
      </trkpt>
      <trkpt lat="46.827700976282358" lon="11.176362968981266">
        <ele>982.60000000000002</ele>
        <time>2018-09-17T11:14:45Z</time>
      </trkpt>
      <trkpt lat="46.827673986554146" lon="11.176565978676081">
        <ele>982.12</ele>
        <time>2018-09-17T11:14:46Z</time>
      </trkpt>
      <trkpt lat="46.827599974349141" lon="11.176724983379245">
        <ele>981.15999999999997</ele>
        <time>2018-09-17T11:14:47Z</time>
      </trkpt>
      <trkpt lat="46.827522022649646" lon="11.176893962547183">
        <ele>980.20000000000005</ele>
        <time>2018-09-17T11:14:48Z</time>
      </trkpt>
      <trkpt lat="46.827442981302738" lon="11.177067970857024">
        <ele>979.24000000000001</ele>
        <time>2018-09-17T11:14:49Z</time>
      </trkpt>
      <trkpt lat="46.827387996017933" lon="11.177271986380219">
        <ele>978.27999999999997</ele>
        <time>2018-09-17T11:14:50Z</time>
      </trkpt>
      <trkpt lat="46.827205019071698" lon="11.178008001297712">
        <ele>974.90999999999997</ele>
        <time>2018-09-17T11:14:54Z</time>
      </trkpt>
      <trkpt lat="46.827064035460353" lon="11.179799968376756">
        <ele>966.74000000000001</ele>
        <time>2018-09-17T11:15:03Z</time>
      </trkpt>
      <trkpt lat="46.827074009925127" lon="11.180573031306267">
        <ele>965.29999999999995</ele>
        <time>2018-09-17T11:15:07Z</time>
      </trkpt>
      <trkpt lat="46.827048026025295" lon="11.180737987160683">
        <ele>965.77999999999997</ele>
        <time>2018-09-17T11:15:08Z</time>
      </trkpt>
      <trkpt lat="46.827020030468702" lon="11.180922975763679">
        <ele>966.25999999999999</ele>
        <time>2018-09-17T11:15:09Z</time>
      </trkpt>
      <trkpt lat="46.826991029083729" lon="11.181112993508577">
        <ele>966.25999999999999</ele>
        <time>2018-09-17T11:15:10Z</time>
      </trkpt>
      <trkpt lat="46.826963033527136" lon="11.181298987939954">
        <ele>966.74000000000001</ele>
        <time>2018-09-17T11:15:11Z</time>
      </trkpt>
      <trkpt lat="46.826934032142162" lon="11.181482970714569">
        <ele>967.22000000000003</ele>
        <time>2018-09-17T11:15:12Z</time>
      </trkpt>
      <trkpt lat="46.826878041028976" lon="11.181853031739593">
        <ele>967.22000000000003</ele>
        <time>2018-09-17T11:15:14Z</time>
      </trkpt>
      <trkpt lat="46.826746026054025" lon="11.182682001963258">
        <ele>969.14999999999998</ele>
        <time>2018-09-17T11:15:19Z</time>
      </trkpt>
      <trkpt lat="46.826591966673732" lon="11.183212995529175">
        <ele>971.07000000000005</ele>
        <time>2018-09-17T11:15:22Z</time>
      </trkpt>
      <trkpt lat="46.826176978647709" lon="11.183974994346499">
        <ele>965.77999999999997</ele>
        <time>2018-09-17T11:15:25Z</time>
      </trkpt>
      <trkpt lat="46.826099026948214" lon="11.184198958799243">
        <ele>963.38</ele>
        <time>2018-09-17T11:15:26Z</time>
      </trkpt>
      <trkpt lat="46.826021997258067" lon="11.184415966272354">
        <ele>961.46000000000004</ele>
        <time>2018-09-17T11:15:27Z</time>
      </trkpt>
      <trkpt lat="46.825369969010353" lon="11.18629602715373">
        <ele>945.11000000000001</ele>
        <time>2018-09-17T11:15:35Z</time>
      </trkpt>
      <trkpt lat="46.825155979022384" lon="11.186949983239174">
        <ele>937.41999999999996</ele>
        <time>2018-09-17T11:15:38Z</time>
      </trkpt>
      <trkpt lat="46.825118009001017" lon="11.187143018469214">
        <ele>935.01999999999998</ele>
        <time>2018-09-17T11:15:39Z</time>
      </trkpt>
      <trkpt lat="46.825099987909198" lon="11.187379974871874">
        <ele>932.13999999999999</ele>
        <time>2018-09-17T11:15:40Z</time>
      </trkpt>
      <trkpt lat="46.825079033151269" lon="11.187638975679874">
        <ele>929.25</ele>
        <time>2018-09-17T11:15:41Z</time>
      </trkpt>
      <trkpt lat="46.825057994574308" lon="11.187917003408074">
        <ele>926.37</ele>
        <time>2018-09-17T11:15:42Z</time>
      </trkpt>
      <trkpt lat="46.825034022331238" lon="11.188215985894203">
        <ele>923.48000000000002</ele>
        <time>2018-09-17T11:15:43Z</time>
      </trkpt>
      <trkpt lat="46.824788013473153" lon="11.190469041466713">
        <ele>905.22000000000003</ele>
        <time>2018-09-17T11:15:51Z</time>
      </trkpt>
      <trkpt lat="46.82480201125145" lon="11.190688982605934">
        <ele>903.29999999999995</ele>
        <time>2018-09-17T11:15:52Z</time>
      </trkpt>
      <trkpt lat="46.824823971837759" lon="11.190912025049329">
        <ele>901.85000000000002</ele>
        <time>2018-09-17T11:15:53Z</time>
      </trkpt>
      <trkpt lat="46.824851967394352" lon="11.191128026694059">
        <ele>899.92999999999995</ele>
        <time>2018-09-17T11:15:54Z</time>
      </trkpt>
      <trkpt lat="46.824853979051113" lon="11.191357020288706">
        <ele>898.00999999999999</ele>
        <time>2018-09-17T11:15:55Z</time>
      </trkpt>
      <trkpt lat="46.82482598349452" lon="11.191576039418578">
        <ele>896.09000000000003</ele>
        <time>2018-09-17T11:15:56Z</time>
      </trkpt>
      <trkpt lat="46.824817014858127" lon="11.191997984424233">
        <ele>892.72000000000003</ele>
        <time>2018-09-17T11:15:58Z</time>
      </trkpt>
      <trkpt lat="46.824809974059463" lon="11.192180039361119">
        <ele>890.79999999999995</ele>
        <time>2018-09-17T11:15:59Z</time>
      </trkpt>
      <trkpt lat="46.824733028188348" lon="11.192335020750761">
        <ele>889.36000000000001</ele>
        <time>2018-09-17T11:16:00Z</time>
      </trkpt>
      <trkpt lat="46.824554996564984" lon="11.192691000178456">
        <ele>886.95000000000005</ele>
        <time>2018-09-17T11:16:02Z</time>
      </trkpt>
      <trkpt lat="46.824490958824754" lon="11.192910019308329">
        <ele>885.99000000000001</ele>
        <time>2018-09-17T11:16:03Z</time>
      </trkpt>
      <trkpt lat="46.824431028217077" lon="11.193126020953059">
        <ele>884.54999999999995</ele>
        <time>2018-09-17T11:16:04Z</time>
      </trkpt>
      <trkpt lat="46.824375037103891" lon="11.193330036476254">
        <ele>883.11000000000001</ele>
        <time>2018-09-17T11:16:05Z</time>
      </trkpt>
      <trkpt lat="46.824251990765333" lon="11.193498009815812">
        <ele>882.14999999999998</ele>
        <time>2018-09-17T11:16:06Z</time>
      </trkpt>
      <trkpt lat="46.824132967740297" lon="11.193660032004118">
        <ele>881.66999999999996</ele>
        <time>2018-09-17T11:16:07Z</time>
      </trkpt>
      <trkpt lat="46.824010005220771" lon="11.193826999515295">
        <ele>880.71000000000004</ele>
        <time>2018-09-17T11:16:08Z</time>
      </trkpt>
      <trkpt lat="46.82390296831727" lon="11.193974018096924">
        <ele>879.74000000000001</ele>
        <time>2018-09-17T11:16:09Z</time>
      </trkpt>
      <trkpt lat="46.823757961392403" lon="11.194112990051508">
        <ele>878.77999999999997</ele>
        <time>2018-09-17T11:16:10Z</time>
      </trkpt>
      <trkpt lat="46.823638016358018" lon="11.194228995591402">
        <ele>878.29999999999995</ele>
        <time>2018-09-17T11:16:11Z</time>
      </trkpt>
      <trkpt lat="46.823282958939672" lon="11.194581035524607">
        <ele>876.86000000000001</ele>
        <time>2018-09-17T11:16:14Z</time>
      </trkpt>
      <trkpt lat="46.82319100946188" lon="11.194713972508907">
        <ele>876.86000000000001</ele>
        <time>2018-09-17T11:16:15Z</time>
      </trkpt>
      <trkpt lat="46.823109034448862" lon="11.194832995533943">
        <ele>876.86000000000001</ele>
        <time>2018-09-17T11:16:16Z</time>
      </trkpt>
      <trkpt lat="46.822897978127003" lon="11.195140024647117">
        <ele>876.86000000000001</ele>
        <time>2018-09-17T11:16:19Z</time>
      </trkpt>
      <trkpt lat="46.822851039469242" lon="11.195260975509882">
        <ele>876.86000000000001</ele>
        <time>2018-09-17T11:16:20Z</time>
      </trkpt>
      <trkpt lat="46.82259296067059" lon="11.196276023983955">
        <ele>877.34000000000003</ele>
        <time>2018-09-17T11:16:26Z</time>
      </trkpt>
      <trkpt lat="46.822545016184449" lon="11.196476016193628">
        <ele>876.38</ele>
        <time>2018-09-17T11:16:27Z</time>
      </trkpt>
      <trkpt lat="46.822507968172431" lon="11.196698974817991">
        <ele>875.89999999999998</ele>
        <time>2018-09-17T11:16:28Z</time>
      </trkpt>
      <trkpt lat="46.822476033121347" lon="11.197316972538829">
        <ele>873.00999999999999</ele>
        <time>2018-09-17T11:16:31Z</time>
      </trkpt>
      <trkpt lat="46.82237503118813" lon="11.197907980531454">
        <ele>869.64999999999998</ele>
        <time>2018-09-17T11:16:34Z</time>
      </trkpt>
      <trkpt lat="46.822360027581453" lon="11.19811300188303">
        <ele>868.21000000000004</ele>
        <time>2018-09-17T11:16:35Z</time>
      </trkpt>
      <trkpt lat="46.82237503118813" lon="11.198756983503699">
        <ele>864.36000000000001</ele>
        <time>2018-09-17T11:16:38Z</time>
      </trkpt>
      <trkpt lat="46.822358015924692" lon="11.199000980705023">
        <ele>862.91999999999996</ele>
        <time>2018-09-17T11:16:39Z</time>
      </trkpt>
      <trkpt lat="46.82224603369832" lon="11.199451005086303">
        <ele>859.55999999999995</ele>
        <time>2018-09-17T11:16:41Z</time>
      </trkpt>
      <trkpt lat="46.822234969586134" lon="11.199678992852569">
        <ele>857.63</ele>
        <time>2018-09-17T11:16:42Z</time>
      </trkpt>
      <trkpt lat="46.82220202870667" lon="11.199903041124344">
        <ele>855.23000000000002</ele>
        <time>2018-09-17T11:16:43Z</time>
      </trkpt>
      <trkpt lat="46.82185803540051" lon="11.201820988208055">
        <ele>841.28999999999996</ele>
        <time>2018-09-17T11:16:51Z</time>
      </trkpt>
      <trkpt lat="46.821772959083319" lon="11.202039001509547">
        <ele>839.85000000000002</ele>
        <time>2018-09-17T11:16:52Z</time>
      </trkpt>
      <trkpt lat="46.821349002420902" lon="11.203372981399298">
        <ele>831.67999999999995</ele>
        <time>2018-09-17T11:16:58Z</time>
      </trkpt>
      <trkpt lat="46.821330981329083" lon="11.203595018014312">
        <ele>830.24000000000001</ele>
        <time>2018-09-17T11:16:59Z</time>
      </trkpt>
      <trkpt lat="46.821312038227916" lon="11.203829040750861">
        <ele>828.30999999999995</ele>
        <time>2018-09-17T11:17:00Z</time>
      </trkpt>
      <trkpt lat="46.8212800193578" lon="11.204337989911437">
        <ele>824.95000000000005</ele>
        <time>2018-09-17T11:17:02Z</time>
      </trkpt>
      <trkpt lat="46.821317989379168" lon="11.206609988585114">
        <ele>810.04999999999995</ele>
        <time>2018-09-17T11:17:11Z</time>
      </trkpt>
      <trkpt lat="46.821331987157464" lon="11.206839988008142">
        <ele>808.61000000000001</ele>
        <time>2018-09-17T11:17:12Z</time>
      </trkpt>
      <trkpt lat="46.821343973278999" lon="11.207063030451536">
        <ele>807.15999999999997</ele>
        <time>2018-09-17T11:17:13Z</time>
      </trkpt>
      <trkpt lat="46.821386972442269" lon="11.207285989075899">
        <ele>805.24000000000001</ele>
        <time>2018-09-17T11:17:14Z</time>
      </trkpt>
      <trkpt lat="46.821447992697358" lon="11.207504002377391">
        <ele>803.32000000000005</ele>
        <time>2018-09-17T11:17:15Z</time>
      </trkpt>
      <trkpt lat="46.821505995467305" lon="11.207730984315276">
        <ele>801.39999999999998</ele>
        <time>2018-09-17T11:17:16Z</time>
      </trkpt>
      <trkpt lat="46.821628035977483" lon="11.208876958116889">
        <ele>794.19000000000005</ele>
        <time>2018-09-17T11:17:21Z</time>
      </trkpt>
      <trkpt lat="46.821661982685328" lon="11.209101006388664">
        <ele>792.74000000000001</ele>
        <time>2018-09-17T11:17:22Z</time>
      </trkpt>
      <trkpt lat="46.821729959920049" lon="11.209313990548253">
        <ele>790.82000000000005</ele>
        <time>2018-09-17T11:17:23Z</time>
      </trkpt>
      <trkpt lat="46.822022991254926" lon="11.210163999348879">
        <ele>783.61000000000001</ele>
        <time>2018-09-17T11:17:27Z</time>
      </trkpt>
      <trkpt lat="46.822121981531382" lon="11.210560966283083">
        <ele>780.25</ele>
        <time>2018-09-17T11:17:29Z</time>
      </trkpt>
      <trkpt lat="46.822079988196492" lon="11.210893979296088">
        <ele>776.88</ele>
        <time>2018-09-17T11:17:31Z</time>
      </trkpt>
      <trkpt lat="46.822078982368112" lon="11.21106899343431">
        <ele>775.44000000000005</ele>
        <time>2018-09-17T11:17:32Z</time>
      </trkpt>
      <trkpt lat="46.822078982368112" lon="11.211231015622616">
        <ele>774</ele>
        <time>2018-09-17T11:17:33Z</time>
      </trkpt>
      <trkpt lat="46.822187025099993" lon="11.212213039398193">
        <ele>769.19000000000005</ele>
        <time>2018-09-17T11:17:40Z</time>
      </trkpt>
      <trkpt lat="46.822201022878289" lon="11.212600031867623">
        <ele>767.26999999999998</ele>
        <time>2018-09-17T11:17:42Z</time>
      </trkpt>
      <trkpt lat="46.822315016761422" lon="11.212814021855593">
        <ele>765.83000000000004</ele>
        <time>2018-09-17T11:17:44Z</time>
      </trkpt>
      <trkpt lat="46.822323985397816" lon="11.212935978546739">
        <ele>765.35000000000002</ele>
        <time>2018-09-17T11:17:45Z</time>
      </trkpt>
      <trkpt lat="46.822335971519351" lon="11.21308702044189">
        <ele>764.87</ele>
        <time>2018-09-17T11:17:46Z</time>
      </trkpt>
      <trkpt lat="46.822321973741055" lon="11.213228004053235">
        <ele>764.38999999999999</ele>
        <time>2018-09-17T11:17:47Z</time>
      </trkpt>
      <trkpt lat="46.822305964305997" lon="11.213378040120006">
        <ele>764.38999999999999</ele>
        <time>2018-09-17T11:17:48Z</time>
      </trkpt>
      <trkpt lat="46.82229096069932" lon="11.213520029559731">
        <ele>764.38999999999999</ele>
        <time>2018-09-17T11:17:49Z</time>
      </trkpt>
      <trkpt lat="46.822276040911674" lon="11.213653972372413">
        <ele>764.38999999999999</ele>
        <time>2018-09-17T11:17:50Z</time>
      </trkpt>
      <trkpt lat="46.822243016213179" lon="11.213771989569068">
        <ele>764.38999999999999</ele>
        <time>2018-09-17T11:17:51Z</time>
      </trkpt>
      <trkpt lat="46.822201022878289" lon="11.213887995108962">
        <ele>764.87</ele>
        <time>2018-09-17T11:17:52Z</time>
      </trkpt>
      <trkpt lat="46.822161041200161" lon="11.213996037840843">
        <ele>765.35000000000002</ele>
        <time>2018-09-17T11:17:53Z</time>
      </trkpt>
      <trkpt lat="46.822120975703001" lon="11.214103996753693">
        <ele>765.83000000000004</ele>
        <time>2018-09-17T11:17:54Z</time>
      </trkpt>
      <trkpt lat="46.822080994024873" lon="11.214214973151684">
        <ele>766.30999999999995</ele>
        <time>2018-09-17T11:17:55Z</time>
      </trkpt>
      <trkpt lat="46.822035983204842" lon="11.214341958984733">
        <ele>766.30999999999995</ele>
        <time>2018-09-17T11:17:56Z</time>
      </trkpt>
      <trkpt lat="46.822029026225209" lon="11.214498030021787">
        <ele>766.78999999999996</ele>
        <time>2018-09-17T11:17:57Z</time>
      </trkpt>
      <trkpt lat="46.822020979598165" lon="11.214664997532964">
        <ele>766.78999999999996</ele>
        <time>2018-09-17T11:17:58Z</time>
      </trkpt>
      <trkpt lat="46.822014022618532" lon="11.214842023327947">
        <ele>767.26999999999998</ele>
        <time>2018-09-17T11:17:59Z</time>
      </trkpt>
      <trkpt lat="46.822014022618532" lon="11.2152140121907">
        <ele>767.26999999999998</ele>
        <time>2018-09-17T11:18:01Z</time>
      </trkpt>
      <trkpt lat="46.821865998208523" lon="11.216474985703826">
        <ele>768.23000000000002</ele>
        <time>2018-09-17T11:18:08Z</time>
      </trkpt>
      <trkpt lat="46.821884019300342" lon="11.217074962332845">
        <ele>770.14999999999998</ele>
        <time>2018-09-17T11:18:12Z</time>
      </trkpt>
      <trkpt lat="46.821900028735399" lon="11.217207983136177">
        <ele>770.14999999999998</ele>
        <time>2018-09-17T11:18:13Z</time>
      </trkpt>
      <trkpt lat="46.821936992928386" lon="11.217335974797606">
        <ele>770.63</ele>
        <time>2018-09-17T11:18:14Z</time>
      </trkpt>
      <trkpt lat="46.821991978213191" lon="11.217439994215965">
        <ele>771.11000000000001</ele>
        <time>2018-09-17T11:18:15Z</time>
      </trkpt>
      <trkpt lat="46.822044029831886" lon="11.217537978664041">
        <ele>771.11000000000001</ele>
        <time>2018-09-17T11:18:16Z</time>
      </trkpt>
      <trkpt lat="46.822092980146408" lon="11.217630011960864">
        <ele>770.63</ele>
        <time>2018-09-17T11:18:17Z</time>
      </trkpt>
      <trkpt lat="46.822126004844904" lon="11.217743000015616">
        <ele>770.63</ele>
        <time>2018-09-17T11:18:18Z</time>
      </trkpt>
      <trkpt lat="46.822133967652917" lon="11.217865962535143">
        <ele>771.11000000000001</ele>
        <time>2018-09-17T11:18:19Z</time>
      </trkpt>
      <trkpt lat="46.822142014279962" lon="11.217983979731798">
        <ele>771.11000000000001</ele>
        <time>2018-09-17T11:18:20Z</time>
      </trkpt>
      <trkpt lat="46.822106977924705" lon="11.21811599470675">
        <ele>771.60000000000002</ele>
        <time>2018-09-17T11:18:21Z</time>
      </trkpt>
      <trkpt lat="46.822063978761435" lon="11.21824599802494">
        <ele>771.60000000000002</ele>
        <time>2018-09-17T11:18:22Z</time>
      </trkpt>
      <trkpt lat="46.822017962113023" lon="11.218382036313415">
        <ele>771.60000000000002</ele>
        <time>2018-09-17T11:18:23Z</time>
      </trkpt>
      <trkpt lat="46.821971023455262" lon="11.218522014096379">
        <ele>771.60000000000002</ele>
        <time>2018-09-17T11:18:24Z</time>
      </trkpt>
      <trkpt lat="46.821932969614863" lon="11.218684958294034">
        <ele>771.11000000000001</ele>
        <time>2018-09-17T11:18:25Z</time>
      </trkpt>
      <trkpt lat="46.821886030957103" lon="11.218886962160468">
        <ele>770.63</ele>
        <time>2018-09-17T11:18:26Z</time>
      </trkpt>
      <trkpt lat="46.821761978790164" lon="11.219852976500988">
        <ele>767.75</ele>
        <time>2018-09-17T11:18:32Z</time>
      </trkpt>
      <trkpt lat="46.821781005710363" lon="11.2200060300529">
        <ele>767.26999999999998</ele>
        <time>2018-09-17T11:18:33Z</time>
      </trkpt>
      <trkpt lat="46.82181503623724" lon="11.220296965911984">
        <ele>766.30999999999995</ele>
        <time>2018-09-17T11:18:35Z</time>
      </trkpt>
      <trkpt lat="46.821802966296673" lon="11.22043501585722">
        <ele>765.35000000000002</ele>
        <time>2018-09-17T11:18:36Z</time>
      </trkpt>
      <trkpt lat="46.821777988225222" lon="11.220560995861888">
        <ele>764.38999999999999</ele>
        <time>2018-09-17T11:18:37Z</time>
      </trkpt>
      <trkpt lat="46.821724008768797" lon="11.220655040815473">
        <ele>763.89999999999998</ele>
        <time>2018-09-17T11:18:38Z</time>
      </trkpt>
      <trkpt lat="46.821631975471973" lon="11.220735004171729">
        <ele>763.41999999999996</ele>
        <time>2018-09-17T11:18:39Z</time>
      </trkpt>
      <trkpt lat="46.82153801433742" lon="11.220771968364716">
        <ele>763.41999999999996</ele>
        <time>2018-09-17T11:18:40Z</time>
      </trkpt>
      <trkpt lat="46.821447992697358" lon="11.220808010548353">
        <ele>763.89999999999998</ele>
        <time>2018-09-17T11:18:41Z</time>
      </trkpt>
      <trkpt lat="46.821367023512721" lon="11.220842963084579">
        <ele>763.41999999999996</ele>
        <time>2018-09-17T11:18:42Z</time>
      </trkpt>
      <trkpt lat="46.821298962458968" lon="11.220923010259867">
        <ele>763.41999999999996</ele>
        <time>2018-09-17T11:18:43Z</time>
      </trkpt>
      <trkpt lat="46.82123702019453" lon="11.221003979444504">
        <ele>762.94000000000005</ele>
        <time>2018-09-17T11:18:44Z</time>
      </trkpt>
      <trkpt lat="46.821188991889358" lon="11.221139011904597">
        <ele>762.94000000000005</ele>
        <time>2018-09-17T11:18:45Z</time>
      </trkpt>
      <trkpt lat="46.821138029918075" lon="11.221282007172704">
        <ele>762.46000000000004</ele>
        <time>2018-09-17T11:18:46Z</time>
      </trkpt>
      <trkpt lat="46.821083966642618" lon="11.221434976905584">
        <ele>762.46000000000004</ele>
        <time>2018-09-17T11:18:47Z</time>
      </trkpt>
      <trkpt lat="46.820661015808582" lon="11.222684970125556">
        <ele>759.58000000000004</ele>
        <time>2018-09-17T11:18:55Z</time>
      </trkpt>
      <trkpt lat="46.820654980838299" lon="11.222820002585649">
        <ele>759.10000000000002</ele>
        <time>2018-09-17T11:18:56Z</time>
      </trkpt>
      <trkpt lat="46.820646012201905" lon="11.223067017272115">
        <ele>758.62</ele>
        <time>2018-09-17T11:18:58Z</time>
      </trkpt>
      <trkpt lat="46.820625979453325" lon="11.223199032247066">
        <ele>758.13999999999999</ele>
        <time>2018-09-17T11:18:59Z</time>
      </trkpt>
      <trkpt lat="46.820563031360507" lon="11.223287964239717">
        <ele>757.65999999999997</ele>
        <time>2018-09-17T11:19:00Z</time>
      </trkpt>
      <trkpt lat="46.820480972528458" lon="11.223367005586624">
        <ele>757.17999999999995</ele>
        <time>2018-09-17T11:19:01Z</time>
      </trkpt>
      <trkpt lat="46.820394974201918" lon="11.223429031670094">
        <ele>757.17999999999995</ele>
        <time>2018-09-17T11:19:02Z</time>
      </trkpt>
      <trkpt lat="46.820297995582223" lon="11.223500026389956">
        <ele>757.65999999999997</ele>
        <time>2018-09-17T11:19:03Z</time>
      </trkpt>
      <trkpt lat="46.820234963670373" lon="11.223588036373258">
        <ele>757.65999999999997</ele>
        <time>2018-09-17T11:19:04Z</time>
      </trkpt>
      <trkpt lat="46.820110995322466" lon="11.223881989717484">
        <ele>758.13999999999999</ele>
        <time>2018-09-17T11:19:06Z</time>
      </trkpt>
      <trkpt lat="46.819593999534845" lon="11.225371034815907">
        <ele>759.58000000000004</ele>
        <time>2018-09-17T11:19:14Z</time>
      </trkpt>
      <trkpt lat="46.819354025647044" lon="11.226107971742749">
        <ele>759.58000000000004</ele>
        <time>2018-09-17T11:19:19Z</time>
      </trkpt>
      <trkpt lat="46.819348996505141" lon="11.22625800780952">
        <ele>759.58000000000004</ele>
        <time>2018-09-17T11:19:20Z</time>
      </trkpt>
      <trkpt lat="46.81938897818327" lon="11.226383987814188">
        <ele>759.58000000000004</ele>
        <time>2018-09-17T11:19:21Z</time>
      </trkpt>
      <trkpt lat="46.819430971518159" lon="11.22651600278914">
        <ele>759.58000000000004</ele>
        <time>2018-09-17T11:19:22Z</time>
      </trkpt>
      <trkpt lat="46.819471959024668" lon="11.226658998057246">
        <ele>759.58000000000004</ele>
        <time>2018-09-17T11:19:23Z</time>
      </trkpt>
      <trkpt lat="46.819509007036686" lon="11.226812973618507">
        <ele>759.10000000000002</ele>
        <time>2018-09-17T11:19:24Z</time>
      </trkpt>
      <trkpt lat="46.819546977058053" lon="11.226973989978433">
        <ele>759.10000000000002</ele>
        <time>2018-09-17T11:19:25Z</time>
      </trkpt>
      <trkpt lat="46.819571033120155" lon="11.227144980803132">
        <ele>759.10000000000002</ele>
        <time>2018-09-17T11:19:26Z</time>
      </trkpt>
      <trkpt lat="46.819577990099788" lon="11.22731395997107">
        <ele>759.10000000000002</ele>
        <time>2018-09-17T11:19:27Z</time>
      </trkpt>
      <trkpt lat="46.819589976221323" lon="11.227640016004443">
        <ele>759.10000000000002</ele>
        <time>2018-09-17T11:19:29Z</time>
      </trkpt>
      <trkpt lat="46.819630963727832" lon="11.228267988190055">
        <ele>757.17999999999995</ele>
        <time>2018-09-17T11:19:33Z</time>
      </trkpt>
      <trkpt lat="46.819673962891102" lon="11.228414000943303">
        <ele>756.69000000000005</ele>
        <time>2018-09-17T11:19:34Z</time>
      </trkpt>
      <trkpt lat="46.819715034216642" lon="11.228554984554648">
        <ele>755.73000000000002</ele>
        <time>2018-09-17T11:19:35Z</time>
      </trkpt>
      <trkpt lat="46.819755015894771" lon="11.228694040328264">
        <ele>754.76999999999998</ele>
        <time>2018-09-17T11:19:36Z</time>
      </trkpt>
      <trkpt lat="46.819735988974571" lon="11.228847010061145">
        <ele>754.76999999999998</ele>
        <time>2018-09-17T11:19:37Z</time>
      </trkpt>
      <trkpt lat="46.819699024781585" lon="11.229044990614057">
        <ele>754.28999999999996</ele>
        <time>2018-09-17T11:19:38Z</time>
      </trkpt>
      <trkpt lat="46.819653008133173" lon="11.229289993643761">
        <ele>753.33000000000004</ele>
        <time>2018-09-17T11:19:39Z</time>
      </trkpt>
      <trkpt lat="46.819601040333509" lon="11.229570033028722">
        <ele>752.85000000000002</ele>
        <time>2018-09-17T11:19:40Z</time>
      </trkpt>
      <trkpt lat="46.819372968748212" lon="11.230454994365573">
        <ele>750.92999999999995</ele>
        <time>2018-09-17T11:19:44Z</time>
      </trkpt>
      <trkpt lat="46.819308008998632" lon="11.230561025440693">
        <ele>750.92999999999995</ele>
        <time>2018-09-17T11:19:45Z</time>
      </trkpt>
      <trkpt lat="46.819219999015331" lon="11.230605030432343">
        <ele>750.92999999999995</ele>
        <time>2018-09-17T11:19:46Z</time>
      </trkpt>
      <trkpt lat="46.81913198903203" lon="11.230649035423994">
        <ele>750.45000000000005</ele>
        <time>2018-09-17T11:19:47Z</time>
      </trkpt>
      <trkpt lat="46.819034004583955" lon="11.230697985738516">
        <ele>750.45000000000005</ele>
        <time>2018-09-17T11:19:48Z</time>
      </trkpt>
      <trkpt lat="46.818954041227698" lon="11.230787001550198">
        <ele>750.45000000000005</ele>
        <time>2018-09-17T11:19:49Z</time>
      </trkpt>
      <trkpt lat="46.818839041516185" lon="11.230946006253362">
        <ele>750.45000000000005</ele>
        <time>2018-09-17T11:19:50Z</time>
      </trkpt>
      <trkpt lat="46.818773997947574" lon="11.231095958501101">
        <ele>749.97000000000003</ele>
        <time>2018-09-17T11:19:51Z</time>
      </trkpt>
      <trkpt lat="46.818172009661794" lon="11.232605036348104">
        <ele>744.67999999999995</ele>
        <time>2018-09-17T11:19:57Z</time>
      </trkpt>
      <trkpt lat="46.818088022992015" lon="11.232870994135737">
        <ele>743.72000000000003</ele>
        <time>2018-09-17T11:19:58Z</time>
      </trkpt>
      <trkpt lat="46.817994983866811" lon="11.233115997165442">
        <ele>743.24000000000001</ele>
        <time>2018-09-17T11:19:59Z</time>
      </trkpt>
      <trkpt lat="46.817898005247116" lon="11.233353037387133">
        <ele>742.75999999999999</ele>
        <time>2018-09-17T11:20:00Z</time>
      </trkpt>
      <trkpt lat="46.817568009719253" lon="11.234305975958705">
        <ele>738.42999999999995</ele>
        <time>2018-09-17T11:20:05Z</time>
      </trkpt>
      <trkpt lat="46.817552000284195" lon="11.234452994540334">
        <ele>737.47000000000003</ele>
        <time>2018-09-17T11:20:06Z</time>
      </trkpt>
      <trkpt lat="46.81756398640573" lon="11.234630020335317">
        <ele>736.99000000000001</ele>
        <time>2018-09-17T11:20:07Z</time>
      </trkpt>
      <trkpt lat="46.817576978355646" lon="11.23483001254499">
        <ele>736.02999999999997</ele>
        <time>2018-09-17T11:20:08Z</time>
      </trkpt>
      <trkpt lat="46.817591981962323" lon="11.235050959512591">
        <ele>735.07000000000005</ele>
        <time>2018-09-17T11:20:09Z</time>
      </trkpt>
      <trkpt lat="46.817606985569" lon="11.235280958935618">
        <ele>734.10000000000002</ele>
        <time>2018-09-17T11:20:10Z</time>
      </trkpt>
      <trkpt lat="46.817642021924257" lon="11.235520010814071">
        <ele>733.13999999999999</ele>
        <time>2018-09-17T11:20:11Z</time>
      </trkpt>
      <trkpt lat="46.817700024694204" lon="11.235768031328917">
        <ele>732.17999999999995</ele>
        <time>2018-09-17T11:20:12Z</time>
      </trkpt>
      <trkpt lat="46.817990960553288" lon="11.236901013180614">
        <ele>726.40999999999997</ele>
        <time>2018-09-17T11:20:17Z</time>
      </trkpt>
      <trkpt lat="46.818002024665475" lon="11.237117014825344">
        <ele>724.97000000000003</ele>
        <time>2018-09-17T11:20:18Z</time>
      </trkpt>
      <trkpt lat="46.818002024665475" lon="11.237332010641694">
        <ele>723.52999999999997</ele>
        <time>2018-09-17T11:20:19Z</time>
      </trkpt>
      <trkpt lat="46.817986015230417" lon="11.237538037821651">
        <ele>722.57000000000005</ele>
        <time>2018-09-17T11:20:20Z</time>
      </trkpt>
      <trkpt lat="46.817959025502205" lon="11.237725038081408">
        <ele>721.13</ele>
        <time>2018-09-17T11:20:21Z</time>
      </trkpt>
      <trkpt lat="46.817936981096864" lon="11.237877001985908">
        <ele>720.15999999999997</ele>
        <time>2018-09-17T11:20:22Z</time>
      </trkpt>
      <trkpt lat="46.817831033840775" lon="11.238002981990576">
        <ele>718.72000000000003</ele>
        <time>2018-09-17T11:20:23Z</time>
      </trkpt>
      <trkpt lat="46.817752998322248" lon="11.238095015287399">
        <ele>717.27999999999997</ele>
        <time>2018-09-17T11:20:24Z</time>
      </trkpt>
      <trkpt lat="46.817675968632102" lon="11.238186964765191">
        <ele>715.36000000000001</ele>
        <time>2018-09-17T11:20:25Z</time>
      </trkpt>
      <trkpt lat="46.817593993619084" lon="11.238284027203918">
        <ele>714.39999999999998</ele>
        <time>2018-09-17T11:20:26Z</time>
      </trkpt>
      <trkpt lat="46.817550994455814" lon="11.238413024693727">
        <ele>712.47000000000003</ele>
        <time>2018-09-17T11:20:27Z</time>
      </trkpt>
      <trkpt lat="46.817544959485531" lon="11.238583009690046">
        <ele>711.50999999999999</ele>
        <time>2018-09-17T11:20:28Z</time>
      </trkpt>
      <trkpt lat="46.817539008334279" lon="11.238751988857985">
        <ele>710.07000000000005</ele>
        <time>2018-09-17T11:20:29Z</time>
      </trkpt>
      <trkpt lat="46.817532973363996" lon="11.238919962197542">
        <ele>708.63</ele>
        <time>2018-09-17T11:20:30Z</time>
      </trkpt>
      <trkpt lat="46.817518975585699" lon="11.239076033234596">
        <ele>707.19000000000005</ele>
        <time>2018-09-17T11:20:31Z</time>
      </trkpt>
      <trkpt lat="46.817493997514248" lon="11.239225985482335">
        <ele>705.75</ele>
        <time>2018-09-17T11:20:32Z</time>
      </trkpt>
      <trkpt lat="46.817440018057823" lon="11.239373004063964">
        <ele>704.29999999999995</ele>
        <time>2018-09-17T11:20:33Z</time>
      </trkpt>
      <trkpt lat="46.817314038053155" lon="11.239689001813531">
        <ele>701.89999999999998</ele>
        <time>2018-09-17T11:20:35Z</time>
      </trkpt>
      <trkpt lat="46.817257041111588" lon="11.239869967103004">
        <ele>700.46000000000004</ele>
        <time>2018-09-17T11:20:36Z</time>
      </trkpt>
      <trkpt lat="46.817195015028119" lon="11.240050010383129">
        <ele>699.5</ele>
        <time>2018-09-17T11:20:37Z</time>
      </trkpt>
      <trkpt lat="46.817127959802747" lon="11.240232987329364">
        <ele>698.04999999999995</ele>
        <time>2018-09-17T11:20:38Z</time>
      </trkpt>
      <trkpt lat="46.817056965082884" lon="11.240414036437869">
        <ele>697.09000000000003</ele>
        <time>2018-09-17T11:20:39Z</time>
      </trkpt>
      <trkpt lat="46.816350035369396" lon="11.241987990215421">
        <ele>687</ele>
        <time>2018-09-17T11:20:49Z</time>
      </trkpt>
      <trkpt lat="46.816008975729346" lon="11.242617974057794">
        <ele>684.12</ele>
        <time>2018-09-17T11:20:54Z</time>
      </trkpt>
      <trkpt lat="46.815925994887948" lon="11.242684023454785">
        <ele>684.12</ele>
        <time>2018-09-17T11:20:55Z</time>
      </trkpt>
      <trkpt lat="46.815831027925014" lon="11.242718975991011">
        <ele>684.12</ele>
        <time>2018-09-17T11:20:56Z</time>
      </trkpt>
      <trkpt lat="46.815617959946394" lon="11.242806985974312">
        <ele>684.12</ele>
        <time>2018-09-17T11:20:58Z</time>
      </trkpt>
      <trkpt lat="46.815502038225532" lon="11.242888038977981">
        <ele>684.60000000000002</ele>
        <time>2018-09-17T11:20:59Z</time>
      </trkpt>
      <trkpt lat="46.815391983836889" lon="11.242988035082817">
        <ele>685.08000000000004</ele>
        <time>2018-09-17T11:21:00Z</time>
      </trkpt>
      <trkpt lat="46.815296011045575" lon="11.243118960410357">
        <ele>685.55999999999995</ele>
        <time>2018-09-17T11:21:01Z</time>
      </trkpt>
      <trkpt lat="46.815200038254261" lon="11.243249969556928">
        <ele>686.03999999999996</ele>
        <time>2018-09-17T11:21:02Z</time>
      </trkpt>
      <trkpt lat="46.815105993300676" lon="11.243377039209008">
        <ele>686.03999999999996</ele>
        <time>2018-09-17T11:21:03Z</time>
      </trkpt>
      <trkpt lat="46.814930979162455" lon="11.243607960641384">
        <ele>685.55999999999995</ele>
        <time>2018-09-17T11:21:05Z</time>
      </trkpt>
      <trkpt lat="46.814836012199521" lon="11.243703011423349">
        <ele>685.08000000000004</ele>
        <time>2018-09-17T11:21:06Z</time>
      </trkpt>
      <trkpt lat="46.81472503580153" lon="11.243785992264748">
        <ele>684.60000000000002</ele>
        <time>2018-09-17T11:21:07Z</time>
      </trkpt>
      <trkpt lat="46.814607018604875" lon="11.243811976164579">
        <ele>684.12</ele>
        <time>2018-09-17T11:21:08Z</time>
      </trkpt>
      <trkpt lat="46.814483972266316" lon="11.243839971721172">
        <ele>683.63</ele>
        <time>2018-09-17T11:21:09Z</time>
      </trkpt>
      <trkpt lat="46.814356986433268" lon="11.243868973106146">
        <ele>683.14999999999998</ele>
        <time>2018-09-17T11:21:10Z</time>
      </trkpt>
      <trkpt lat="46.814228994771838" lon="11.24387601390481">
        <ele>683.14999999999998</ele>
        <time>2018-09-17T11:21:11Z</time>
      </trkpt>
      <trkpt lat="46.814106032252312" lon="11.243858998641372">
        <ele>683.14999999999998</ele>
        <time>2018-09-17T11:21:12Z</time>
      </trkpt>
      <trkpt lat="46.813990026712418" lon="11.243841983377934">
        <ele>682.66999999999996</ele>
        <time>2018-09-17T11:21:13Z</time>
      </trkpt>
      <trkpt lat="46.813889024779201" lon="11.243804013356566">
        <ele>682.19000000000005</ele>
        <time>2018-09-17T11:21:14Z</time>
      </trkpt>
      <trkpt lat="46.813799003139138" lon="11.243740981444716">
        <ele>681.71000000000004</ele>
        <time>2018-09-17T11:21:15Z</time>
      </trkpt>
      <trkpt lat="46.813746029511094" lon="11.243633022531867">
        <ele>681.71000000000004</ele>
        <time>2018-09-17T11:21:16Z</time>
      </trkpt>
      <trkpt lat="46.813698001205921" lon="11.243506958708167">
        <ele>681.23000000000002</ele>
        <time>2018-09-17T11:21:17Z</time>
      </trkpt>
      <trkpt lat="46.813667993992567" lon="11.243353988975286">
        <ele>680.75</ele>
        <time>2018-09-17T11:21:18Z</time>
      </trkpt>
      <trkpt lat="46.813674028962851" lon="11.243216022849083">
        <ele>680.75</ele>
        <time>2018-09-17T11:21:19Z</time>
      </trkpt>
      <trkpt lat="46.813679980114102" lon="11.243087025359273">
        <ele>681.23000000000002</ele>
        <time>2018-09-17T11:21:20Z</time>
      </trkpt>
      <trkpt lat="46.813685009256005" lon="11.242974037304521">
        <ele>681.71000000000004</ele>
        <time>2018-09-17T11:21:21Z</time>
      </trkpt>
      <trkpt lat="46.813689032569528" lon="11.242898013442755">
        <ele>681.71000000000004</ele>
        <time>2018-09-17T11:21:22Z</time>
      </trkpt>
      <trkpt lat="46.813689032569528" lon="11.242898013442755">
        <ele>681.71000000000004</ele>
        <time>2018-09-17T11:21:23Z</time>
      </trkpt>
      <trkpt lat="46.813709987327456" lon="11.242683017626405">
        <ele>681.71000000000004</ele>
        <time>2018-09-17T11:21:24Z</time>
      </trkpt>
      <trkpt lat="46.813709987327456" lon="11.242683017626405">
        <ele>682.19000000000005</ele>
        <time>2018-09-17T11:21:25Z</time>
      </trkpt>
      <trkpt lat="46.813709987327456" lon="11.242537004873157">
        <ele>682.19000000000005</ele>
        <time>2018-09-17T11:21:27Z</time>
      </trkpt>
      <trkpt lat="46.813690038397908" lon="11.242484031245112">
        <ele>682.19000000000005</ele>
        <time>2018-09-17T11:21:28Z</time>
      </trkpt>
      <trkpt lat="46.813653996214271" lon="11.24243700876832">
        <ele>681.71000000000004</ele>
        <time>2018-09-17T11:21:29Z</time>
      </trkpt>
      <trkpt lat="46.813613008707762" lon="11.242436002939939">
        <ele>682.19000000000005</ele>
        <time>2018-09-17T11:21:30Z</time>
      </trkpt>
      <trkpt lat="46.813567997887731" lon="11.242451006546617">
        <ele>681.71000000000004</ele>
        <time>2018-09-17T11:21:31Z</time>
      </trkpt>
      <trkpt lat="46.813519969582558" lon="11.242467015981674">
        <ele>681.71000000000004</ele>
        <time>2018-09-17T11:21:32Z</time>
      </trkpt>
      <trkpt lat="46.813517035916448" lon="11.242468021810055">
        <ele>681.23000000000002</ele>
        <time>2018-09-17T11:21:33Z</time>
      </trkpt>
      <trkpt lat="46.813419973477721" lon="11.242618979886174">
        <ele>681.23000000000002</ele>
        <time>2018-09-17T11:21:34Z</time>
      </trkpt>
      <trkpt lat="46.813346967101097" lon="11.242618979886174">
        <ele>681.23000000000002</ele>
        <time>2018-09-17T11:21:35Z</time>
      </trkpt>
      <trkpt lat="46.813275972381234" lon="11.242647981271148">
        <ele>681.23000000000002</ele>
        <time>2018-09-17T11:21:36Z</time>
      </trkpt>
      <trkpt lat="46.813193997368217" lon="11.242699027061462">
        <ele>681.23000000000002</ele>
        <time>2018-09-17T11:21:37Z</time>
      </trkpt>
      <trkpt lat="46.813102969899774" lon="11.242755018174648">
        <ele>681.23000000000002</ele>
        <time>2018-09-17T11:21:38Z</time>
      </trkpt>
      <trkpt lat="46.813003979623318" lon="11.242814026772976">
        <ele>681.23000000000002</ele>
        <time>2018-09-17T11:21:39Z</time>
      </trkpt>
      <trkpt lat="46.812905995175242" lon="11.242870017886162">
        <ele>681.23000000000002</ele>
        <time>2018-09-17T11:21:40Z</time>
      </trkpt>
      <trkpt lat="46.81281597353518" lon="11.242920979857445">
        <ele>681.23000000000002</ele>
        <time>2018-09-17T11:21:41Z</time>
      </trkpt>
      <trkpt lat="46.812744978815317" lon="11.242961967363954">
        <ele>681.71000000000004</ele>
        <time>2018-09-17T11:21:42Z</time>
      </trkpt>
      <trkpt lat="46.812712037935853" lon="11.243060035631061">
        <ele>681.71000000000004</ele>
        <time>2018-09-17T11:21:43Z</time>
      </trkpt>
      <trkpt lat="46.812712037935853" lon="11.243117032572627">
        <ele>682.19000000000005</ele>
        <time>2018-09-17T11:21:44Z</time>
      </trkpt>
      <trkpt lat="46.812745984643698" lon="11.243206970393658">
        <ele>682.19000000000005</ele>
        <time>2018-09-17T11:21:45Z</time>
      </trkpt>
      <trkpt lat="46.812784038484097" lon="11.243306966498494">
        <ele>682.19000000000005</ele>
        <time>2018-09-17T11:21:46Z</time>
      </trkpt>
      <trkpt lat="46.812827037647367" lon="11.243420960381627">
        <ele>682.19000000000005</ele>
        <time>2018-09-17T11:21:47Z</time>
      </trkpt>
      <trkpt lat="46.812874982133508" lon="11.243546018376946">
        <ele>682.19000000000005</ele>
        <time>2018-09-17T11:21:48Z</time>
      </trkpt>
      <trkpt lat="46.812938014045358" lon="11.243712985888124">
        <ele>682.19000000000005</ele>
        <time>2018-09-17T11:21:49Z</time>
      </trkpt>
      <trkpt lat="46.812957962974906" lon="11.243853969499469">
        <ele>681.71000000000004</ele>
        <time>2018-09-17T11:21:50Z</time>
      </trkpt>
      <trkpt lat="46.813027029857039" lon="11.244336012750864">
        <ele>682.19000000000005</ele>
        <time>2018-09-17T11:21:53Z</time>
      </trkpt>
      <trkpt lat="46.813043039292097" lon="11.244494011625648">
        <ele>682.66999999999996</ele>
        <time>2018-09-17T11:21:54Z</time>
      </trkpt>
      <trkpt lat="46.813034992665052" lon="11.24464999884367">
        <ele>682.66999999999996</ele>
        <time>2018-09-17T11:21:55Z</time>
      </trkpt>
      <trkpt lat="46.812957962974906" lon="11.245405962690711">
        <ele>684.60000000000002</ele>
        <time>2018-09-17T11:22:00Z</time>
      </trkpt>
      <trkpt lat="46.81294497102499" lon="11.245520962402225">
        <ele>685.08000000000004</ele>
        <time>2018-09-17T11:22:01Z</time>
      </trkpt>
      <trkpt lat="46.812920998781919" lon="11.245627999305725">
        <ele>685.55999999999995</ele>
        <time>2018-09-17T11:22:02Z</time>
      </trkpt>
      <trkpt lat="46.812889985740185" lon="11.245711985975504">
        <ele>686.03999999999996</ele>
        <time>2018-09-17T11:22:03Z</time>
      </trkpt>
      <trkpt lat="46.812862996011972" lon="11.24578800983727">
        <ele>686.51999999999998</ele>
        <time>2018-09-17T11:22:04Z</time>
      </trkpt>
      <trkpt lat="46.812816979363561" lon="11.245934022590518">
        <ele>687.96000000000004</ele>
        <time>2018-09-17T11:22:06Z</time>
      </trkpt>
      <trkpt lat="46.812800969928503" lon="11.245999988168478">
        <ele>688.44000000000005</ele>
        <time>2018-09-17T11:22:07Z</time>
      </trkpt>
      <trkpt lat="46.812773980200291" lon="11.246080035343766">
        <ele>688.91999999999996</ele>
        <time>2018-09-17T11:22:08Z</time>
      </trkpt>
      <trkpt lat="46.812787977978587" lon="11.246052039787173">
        <ele>689.39999999999998</ele>
        <time>2018-09-17T11:22:09Z</time>
      </trkpt>
      <trkpt lat="46.812753025442362" lon="11.246146000921726">
        <ele>689.39999999999998</ele>
        <time>2018-09-17T11:22:10Z</time>
      </trkpt>
      <trkpt lat="46.812784038484097" lon="11.246177013963461">
        <ele>689.39999999999998</ele>
        <time>2018-09-17T11:22:11Z</time>
      </trkpt>
      <trkpt lat="46.812805999070406" lon="11.246162010356784">
        <ele>689.39999999999998</ele>
        <time>2018-09-17T11:22:12Z</time>
      </trkpt>
      <trkpt lat="46.812838017940521" lon="11.246124040335417">
        <ele>689.88</ele>
        <time>2018-09-17T11:22:13Z</time>
      </trkpt>
      <trkpt lat="46.812874982133508" lon="11.246050028130412">
        <ele>689.88</ele>
        <time>2018-09-17T11:22:14Z</time>
      </trkpt>
      <trkpt lat="46.812938014045358" lon="11.245922958478332">
        <ele>690.36000000000001</ele>
        <time>2018-09-17T11:22:15Z</time>
      </trkpt>
      <trkpt lat="46.812959974631667" lon="11.245824974030256">
        <ele>690.84000000000003</ele>
        <time>2018-09-17T11:22:16Z</time>
      </trkpt>
      <trkpt lat="46.8130739685148" lon="11.245306972414255">
        <ele>692.28999999999996</ele>
        <time>2018-09-17T11:22:19Z</time>
      </trkpt>
      <trkpt lat="46.813214030116796" lon="11.244427040219307">
        <ele>694.69000000000005</ele>
        <time>2018-09-17T11:22:24Z</time>
      </trkpt>
      <trkpt lat="46.813259962946177" lon="11.244313968345523">
        <ele>695.16999999999996</ele>
        <time>2018-09-17T11:22:25Z</time>
      </trkpt>
      <trkpt lat="46.813321989029646" lon="11.244277004152536">
        <ele>695.64999999999998</ele>
        <time>2018-09-17T11:22:26Z</time>
      </trkpt>
      <trkpt lat="46.813401030376554" lon="11.244299970567226">
        <ele>696.61000000000001</ele>
        <time>2018-09-17T11:22:27Z</time>
      </trkpt>
      <trkpt lat="46.813500020653009" lon="11.244329977780581">
        <ele>697.09000000000003</ele>
        <time>2018-09-17T11:22:28Z</time>
      </trkpt>
      <trkpt lat="46.813620971515775" lon="11.244366019964218">
        <ele>698.04999999999995</ele>
        <time>2018-09-17T11:22:29Z</time>
      </trkpt>
      <trkpt lat="46.813750974833965" lon="11.244404995813966">
        <ele>699.5</ele>
        <time>2018-09-17T11:22:30Z</time>
      </trkpt>
      <trkpt lat="46.814281968399882" lon="11.244561988860369">
        <ele>704.77999999999997</ele>
        <time>2018-09-17T11:22:36Z</time>
      </trkpt>
      <trkpt lat="46.814438961446285" lon="11.2446069996804">
        <ele>708.14999999999998</ele>
        <time>2018-09-17T11:22:41Z</time>
      </trkpt>
      <trkpt lat="46.814978001639247" lon="11.244814032688737">
        <ele>714.39999999999998</ele>
        <time>2018-09-17T11:22:50Z</time>
      </trkpt>
      <trkpt lat="46.815041033551097" lon="11.244858959689736">
        <ele>714.88</ele>
        <time>2018-09-17T11:22:51Z</time>
      </trkpt>
      <trkpt lat="46.815098030492663" lon="11.244900031015277">
        <ele>715.36000000000001</ele>
        <time>2018-09-17T11:22:52Z</time>
      </trkpt>
      <trkpt lat="46.815268015488982" lon="11.245016036555171">
        <ele>716.79999999999995</ele>
        <time>2018-09-17T11:22:55Z</time>
      </trkpt>
      <trkpt lat="46.815304979681969" lon="11.245041014626622">
        <ele>717.27999999999997</ele>
        <time>2018-09-17T11:22:56Z</time>
      </trkpt>
      <trkpt lat="46.815525004640222" lon="11.245177974924445">
        <ele>718.24000000000001</ele>
        <time>2018-09-17T11:23:01Z</time>
      </trkpt>
      <trkpt lat="46.815574960783124" lon="11.245203036814928">
        <ele>718.72000000000003</ele>
        <time>2018-09-17T11:23:02Z</time>
      </trkpt>
      <trkpt lat="46.815641010180116" lon="11.245236983522773">
        <ele>718.72000000000003</ele>
        <time>2018-09-17T11:23:03Z</time>
      </trkpt>
      <trkpt lat="46.815663976594806" lon="11.24523296020925">
        <ele>719.20000000000005</ele>
        <time>2018-09-17T11:23:04Z</time>
      </trkpt>
      <trkpt lat="46.815716028213501" lon="11.245226003229618">
        <ele>719.67999999999995</ele>
        <time>2018-09-17T11:23:05Z</time>
      </trkpt>
      <trkpt lat="46.815794985741377" lon="11.245213011279702">
        <ele>720.15999999999997</ele>
        <time>2018-09-17T11:23:06Z</time>
      </trkpt>
      <trkpt lat="46.815872015431523" lon="11.245150985196233">
        <ele>721.13</ele>
        <time>2018-09-17T11:23:07Z</time>
      </trkpt>
      <trkpt lat="46.815963964909315" lon="11.245076972991228">
        <ele>721.61000000000001</ele>
        <time>2018-09-17T11:23:08Z</time>
      </trkpt>
      <trkpt lat="46.816263031214476" lon="11.244891984388232">
        <ele>723.52999999999997</ele>
        <time>2018-09-17T11:23:11Z</time>
      </trkpt>
      <trkpt lat="46.816452965140343" lon="11.244809003546834">
        <ele>725.92999999999995</ele>
        <time>2018-09-17T11:23:13Z</time>
      </trkpt>
      <trkpt lat="46.81653200648725" lon="11.244731973856688">
        <ele>726.40999999999997</ele>
        <time>2018-09-17T11:23:14Z</time>
      </trkpt>
      <trkpt lat="46.816607024520636" lon="11.244657039642334">
        <ele>727.37</ele>
        <time>2018-09-17T11:23:15Z</time>
      </trkpt>
      <trkpt lat="46.816796958446503" lon="11.244482025504112">
        <ele>728.82000000000005</ele>
        <time>2018-09-17T11:23:18Z</time>
      </trkpt>
      <trkpt lat="46.81685496121645" lon="11.244428968057036">
        <ele>729.29999999999995</ele>
        <time>2018-09-17T11:23:19Z</time>
      </trkpt>
      <trkpt lat="46.816915981471539" lon="11.244398960843682">
        <ele>729.77999999999997</ele>
        <time>2018-09-17T11:23:20Z</time>
      </trkpt>
      <trkpt lat="46.816988987848163" lon="11.244395021349192">
        <ele>730.25999999999999</ele>
        <time>2018-09-17T11:23:21Z</time>
      </trkpt>
      <trkpt lat="46.817064005881548" lon="11.24439200386405">
        <ele>731.22000000000003</ele>
        <time>2018-09-17T11:23:22Z</time>
      </trkpt>
      <trkpt lat="46.817138018086553" lon="11.244388986378908">
        <ele>731.70000000000005</ele>
        <time>2018-09-17T11:23:23Z</time>
      </trkpt>
      <trkpt lat="46.817437000572681" lon="11.244359984993935">
        <ele>735.07000000000005</ele>
        <time>2018-09-17T11:23:27Z</time>
      </trkpt>
      <trkpt lat="46.817506989464164" lon="11.244325032457709">
        <ele>736.02999999999997</ele>
        <time>2018-09-17T11:23:28Z</time>
      </trkpt>
      <trkpt lat="46.817578990012407" lon="11.244288990274072">
        <ele>736.50999999999999</ele>
        <time>2018-09-17T11:23:29Z</time>
      </trkpt>
      <trkpt lat="46.817651996389031" lon="11.244253031909466">
        <ele>737.47000000000003</ele>
        <time>2018-09-17T11:23:30Z</time>
      </trkpt>
      <trkpt lat="46.817716034129262" lon="11.244202991947532">
        <ele>738.42999999999995</ele>
        <time>2018-09-17T11:23:31Z</time>
      </trkpt>
      <trkpt lat="46.817766996100545" lon="11.244114981964231">
        <ele>739.38999999999999</ele>
        <time>2018-09-17T11:23:32Z</time>
      </trkpt>
      <trkpt lat="46.81781804189086" lon="11.244025966152549">
        <ele>740.35000000000002</ele>
        <time>2018-09-17T11:23:33Z</time>
      </trkpt>
      <trkpt lat="46.817873027175665" lon="11.243932005017996">
        <ele>741.30999999999995</ele>
        <time>2018-09-17T11:23:34Z</time>
      </trkpt>
      <trkpt lat="46.818034965544939" lon="11.243439987301826">
        <ele>745.15999999999997</ele>
        <time>2018-09-17T11:23:37Z</time>
      </trkpt>
      <trkpt lat="46.818092968314886" lon="11.243216022849083">
        <ele>746.12</ele>
        <time>2018-09-17T11:23:38Z</time>
      </trkpt>
      <trkpt lat="46.818152982741594" lon="11.242985017597675">
        <ele>747.08000000000004</ele>
        <time>2018-09-17T11:23:39Z</time>
      </trkpt>
      <trkpt lat="46.818257002159953" lon="11.242581009864807">
        <ele>748.03999999999996</ele>
        <time>2018-09-17T11:23:41Z</time>
      </trkpt>
      <trkpt lat="46.818274017423391" lon="11.242404989898205">
        <ele>748.51999999999998</ele>
        <time>2018-09-17T11:23:42Z</time>
      </trkpt>
      <trkpt lat="46.818258007988334" lon="11.242228969931602">
        <ele>749.49000000000001</ele>
        <time>2018-09-17T11:23:43Z</time>
      </trkpt>
      <trkpt lat="46.81822800077498" lon="11.241873996332288">
        <ele>750.92999999999995</ele>
        <time>2018-09-17T11:23:45Z</time>
      </trkpt>
      <trkpt lat="46.81822900660336" lon="11.241693031042814">
        <ele>751.88999999999999</ele>
        <time>2018-09-17T11:23:46Z</time>
      </trkpt>
      <trkpt lat="46.818269994109869" lon="11.241540983319283">
        <ele>752.37</ele>
        <time>2018-09-17T11:23:47Z</time>
      </trkpt>
      <trkpt lat="46.818329002708197" lon="11.241399999707937">
        <ele>752.85000000000002</ele>
        <time>2018-09-17T11:23:48Z</time>
      </trkpt>
      <trkpt lat="46.818393040448427" lon="11.241263039410114">
        <ele>753.80999999999995</ele>
        <time>2018-09-17T11:23:49Z</time>
      </trkpt>
      <trkpt lat="46.81842296384275" lon="11.241094982251525">
        <ele>754.76999999999998</ele>
        <time>2018-09-17T11:23:50Z</time>
      </trkpt>
      <trkpt lat="46.818408966064453" lon="11.240927008911967">
        <ele>755.73000000000002</ele>
        <time>2018-09-17T11:23:51Z</time>
      </trkpt>
      <trkpt lat="46.818393040448427" lon="11.240747971460223">
        <ele>757.17999999999995</ele>
        <time>2018-09-17T11:23:52Z</time>
      </trkpt>
      <trkpt lat="46.81837703101337" lon="11.240572035312653">
        <ele>758.13999999999999</ele>
        <time>2018-09-17T11:23:53Z</time>
      </trkpt>
      <trkpt lat="46.818381976336241" lon="11.240383023396134">
        <ele>759.10000000000002</ele>
        <time>2018-09-17T11:23:54Z</time>
      </trkpt>
      <trkpt lat="46.818419024348259" lon="11.240209015086293">
        <ele>760.53999999999996</ele>
        <time>2018-09-17T11:23:55Z</time>
      </trkpt>
      <trkpt lat="46.818490019068122" lon="11.239434024319053">
        <ele>765.83000000000004</ele>
        <time>2018-09-17T11:23:59Z</time>
      </trkpt>
      <trkpt lat="46.818493958562613" lon="11.239264039322734">
        <ele>766.78999999999996</ele>
        <time>2018-09-17T11:24:00Z</time>
      </trkpt>
      <trkpt lat="46.818465040996671" lon="11.239118026569486">
        <ele>768.23000000000002</ele>
        <time>2018-09-17T11:24:01Z</time>
      </trkpt>
      <trkpt lat="46.818418018519878" lon="11.238886015489697">
        <ele>770.14999999999998</ele>
        <time>2018-09-17T11:24:03Z</time>
      </trkpt>
      <trkpt lat="46.818432016298175" lon="11.238798005506396">
        <ele>770.63</ele>
        <time>2018-09-17T11:24:04Z</time>
      </trkpt>
      <trkpt lat="46.818465040996671" lon="11.238731034100056">
        <ele>771.60000000000002</ele>
        <time>2018-09-17T11:24:05Z</time>
      </trkpt>
      <trkpt lat="46.818512985482812" lon="11.238713013008237">
        <ele>771.60000000000002</ele>
        <time>2018-09-17T11:24:06Z</time>
      </trkpt>
      <trkpt lat="46.818555984646082" lon="11.238749977201223">
        <ele>772.08000000000004</ele>
        <time>2018-09-17T11:24:07Z</time>
      </trkpt>
      <trkpt lat="46.818590015172958" lon="11.238817032426596">
        <ele>772.55999999999995</ele>
        <time>2018-09-17T11:24:08Z</time>
      </trkpt>
      <trkpt lat="46.818596972152591" lon="11.238924991339445">
        <ele>773.03999999999996</ele>
        <time>2018-09-17T11:24:09Z</time>
      </trkpt>
      <trkpt lat="46.818589009344578" lon="11.239040996879339">
        <ele>773.51999999999998</ele>
        <time>2018-09-17T11:24:10Z</time>
      </trkpt>
      <trkpt lat="46.818582974374294" lon="11.239174017682672">
        <ele>774</ele>
        <time>2018-09-17T11:24:11Z</time>
      </trkpt>
      <trkpt lat="46.818608036264777" lon="11.239336039870977">
        <ele>774.48000000000002</ele>
        <time>2018-09-17T11:24:12Z</time>
      </trkpt>
      <trkpt lat="46.818637037649751" lon="11.239519016817212">
        <ele>774.96000000000004</ele>
        <time>2018-09-17T11:24:13Z</time>
      </trkpt>
      <trkpt lat="46.818736027926207" lon="11.240763980895281">
        <ele>782.16999999999996</ele>
        <time>2018-09-17T11:24:20Z</time>
      </trkpt>
      <trkpt lat="46.818758994340897" lon="11.240851990878582">
        <ele>782.64999999999998</ele>
        <time>2018-09-17T11:24:21Z</time>
      </trkpt>
      <trkpt lat="46.818785984069109" lon="11.240950981155038">
        <ele>783.61000000000001</ele>
        <time>2018-09-17T11:24:22Z</time>
      </trkpt>
      <trkpt lat="46.81885002180934" lon="11.24119196087122">
        <ele>785.04999999999995</ele>
        <time>2018-09-17T11:24:24Z</time>
      </trkpt>
      <trkpt lat="46.818879023194313" lon="11.241337973624468">
        <ele>786.01999999999998</ele>
        <time>2018-09-17T11:24:25Z</time>
      </trkpt>
      <trkpt lat="46.818865025416017" lon="11.241472000256181">
        <ele>786.5</ele>
        <time>2018-09-17T11:24:26Z</time>
      </trkpt>
      <trkpt lat="46.81885396130383" lon="11.241586999967694">
        <ele>787.46000000000004</ele>
        <time>2018-09-17T11:24:27Z</time>
      </trkpt>
      <trkpt lat="46.818844992667437" lon="11.241670986637473">
        <ele>788.41999999999996</ele>
        <time>2018-09-17T11:24:28Z</time>
      </trkpt>
      <trkpt lat="46.818852033466101" lon="11.241752039641142">
        <ele>788.89999999999998</ele>
        <time>2018-09-17T11:24:29Z</time>
      </trkpt>
      <trkpt lat="46.818910036236048" lon="11.241809958592057">
        <ele>789.38</ele>
        <time>2018-09-17T11:24:30Z</time>
      </trkpt>
      <trkpt lat="46.818978013470769" lon="11.24187801964581">
        <ele>789.86000000000001</ele>
        <time>2018-09-17T11:24:31Z</time>
      </trkpt>
      <trkpt lat="46.819053031504154" lon="11.241953037679195">
        <ele>790.34000000000003</ele>
        <time>2018-09-17T11:24:32Z</time>
      </trkpt>
      <trkpt lat="46.81913098320365" lon="11.242030989378691">
        <ele>790.82000000000005</ele>
        <time>2018-09-17T11:24:33Z</time>
      </trkpt>
      <trkpt lat="46.819188985973597" lon="11.242116987705231">
        <ele>791.29999999999995</ele>
        <time>2018-09-17T11:24:34Z</time>
      </trkpt>
      <trkpt lat="46.819245982915163" lon="11.242236010730267">
        <ele>792.25999999999999</ele>
        <time>2018-09-17T11:24:35Z</time>
      </trkpt>
      <trkpt lat="46.819231985136867" lon="11.24235101044178">
        <ele>792.74000000000001</ele>
        <time>2018-09-17T11:24:36Z</time>
      </trkpt>
      <trkpt lat="46.81921798735857" lon="11.242473972961307">
        <ele>793.71000000000004</ele>
        <time>2018-09-17T11:24:37Z</time>
      </trkpt>
      <trkpt lat="46.819201977923512" lon="11.242606993764639">
        <ele>794.19000000000005</ele>
        <time>2018-09-17T11:24:38Z</time>
      </trkpt>
      <trkpt lat="46.819184962660074" lon="11.242753006517887">
        <ele>795.14999999999998</ele>
        <time>2018-09-17T11:24:39Z</time>
      </trkpt>
      <trkpt lat="46.819169037044048" lon="11.242891978472471">
        <ele>795.63</ele>
        <time>2018-09-17T11:24:40Z</time>
      </trkpt>
      <trkpt lat="46.819150010123849" lon="11.243014018982649">
        <ele>796.11000000000001</ele>
        <time>2018-09-17T11:24:41Z</time>
      </trkpt>
      <trkpt lat="46.819085972383618" lon="11.243107980117202">
        <ele>797.07000000000005</ele>
        <time>2018-09-17T11:24:42Z</time>
      </trkpt>
      <trkpt lat="46.819003997370601" lon="11.24316799454391">
        <ele>798.50999999999999</ele>
        <time>2018-09-17T11:24:43Z</time>
      </trkpt>
      <trkpt lat="46.818902995437384" lon="11.243241000920534">
        <ele>799.47000000000003</ele>
        <time>2018-09-17T11:24:44Z</time>
      </trkpt>
      <trkpt lat="46.818859996274114" lon="11.243371004238725">
        <ele>800.44000000000005</ele>
        <time>2018-09-17T11:24:45Z</time>
      </trkpt>
      <trkpt lat="46.818811967968941" lon="11.243512993678451">
        <ele>801.88</ele>
        <time>2018-09-17T11:24:46Z</time>
      </trkpt>
      <trkpt lat="46.818795958533883" lon="11.243653977289796">
        <ele>802.36000000000001</ele>
        <time>2018-09-17T11:24:47Z</time>
      </trkpt>
      <trkpt lat="46.818804005160928" lon="11.243785992264748">
        <ele>802.84000000000003</ele>
        <time>2018-09-17T11:24:48Z</time>
      </trkpt>
      <trkpt lat="46.818839041516185" lon="11.243913983926177">
        <ele>803.79999999999995</ele>
        <time>2018-09-17T11:24:49Z</time>
      </trkpt>
      <trkpt lat="46.818876005709171" lon="11.244051028043032">
        <ele>803.79999999999995</ele>
        <time>2018-09-17T11:24:50Z</time>
      </trkpt>
      <trkpt lat="46.818909030407667" lon="11.244172984734178">
        <ele>804.27999999999997</ele>
        <time>2018-09-17T11:24:51Z</time>
      </trkpt>
      <trkpt lat="46.818919004872441" lon="11.244294019415975">
        <ele>804.27999999999997</ele>
        <time>2018-09-17T11:24:52Z</time>
      </trkpt>
      <trkpt lat="46.818911964073777" lon="11.244394015520811">
        <ele>804.75999999999999</ele>
        <time>2018-09-17T11:24:53Z</time>
      </trkpt>
      <trkpt lat="46.818902995437384" lon="11.244507003575563">
        <ele>804.75999999999999</ele>
        <time>2018-09-17T11:24:54Z</time>
      </trkpt>
      <trkpt lat="46.818870976567268" lon="11.244546985253692">
        <ele>805.24000000000001</ele>
        <time>2018-09-17T11:24:55Z</time>
      </trkpt>
      <trkpt lat="46.818802999332547" lon="11.244617979973555">
        <ele>805.72000000000003</ele>
        <time>2018-09-17T11:24:56Z</time>
      </trkpt>
      <trkpt lat="46.818711971864104" lon="11.244631977751851">
        <ele>806.20000000000005</ele>
        <time>2018-09-17T11:24:57Z</time>
      </trkpt>
      <trkpt lat="46.81861599907279" lon="11.244610017165542">
        <ele>806.67999999999995</ele>
        <time>2018-09-17T11:24:58Z</time>
      </trkpt>
      <trkpt lat="46.818345012143254" lon="11.244550002738833">
        <ele>808.13</ele>
        <time>2018-09-17T11:25:01Z</time>
      </trkpt>
      <trkpt lat="46.818298995494843" lon="11.244614962488413">
        <ele>808.61000000000001</ele>
        <time>2018-09-17T11:25:02Z</time>
      </trkpt>
      <trkpt lat="46.818236969411373" lon="11.244705989956856">
        <ele>809.09000000000003</ele>
        <time>2018-09-17T11:25:03Z</time>
      </trkpt>
      <trkpt lat="46.818219032138586" lon="11.24484596773982">
        <ele>810.04999999999995</ele>
        <time>2018-09-17T11:25:04Z</time>
      </trkpt>
      <trkpt lat="46.818195981904864" lon="11.245018970221281">
        <ele>810.52999999999997</ele>
        <time>2018-09-17T11:25:05Z</time>
      </trkpt>
      <trkpt lat="46.818169998005033" lon="11.245214017108083">
        <ele>811.49000000000001</ele>
        <time>2018-09-17T11:25:06Z</time>
      </trkpt>
      <trkpt lat="46.817873027175665" lon="11.247039008885622">
        <ele>822.54999999999995</ele>
        <time>2018-09-17T11:25:14Z</time>
      </trkpt>
      <trkpt lat="46.817775964736938" lon="11.247222991660237">
        <ele>824.47000000000003</ele>
        <time>2018-09-17T11:25:15Z</time>
      </trkpt>
      <trkpt lat="46.817688038572669" lon="11.247389037162066">
        <ele>826.38999999999999</ele>
        <time>2018-09-17T11:25:16Z</time>
      </trkpt>
      <trkpt lat="46.817679991945624" lon="11.247704029083252">
        <ele>828.30999999999995</ele>
        <time>2018-09-17T11:25:17Z</time>
      </trkpt>
      <trkpt lat="46.817654008045793" lon="11.247824979946017">
        <ele>830.24000000000001</ele>
        <time>2018-09-17T11:25:18Z</time>
      </trkpt>
      <trkpt lat="46.817614026367664" lon="11.248010974377394">
        <ele>831.67999999999995</ele>
        <time>2018-09-17T11:25:19Z</time>
      </trkpt>
      <trkpt lat="46.81756298057735" lon="11.248197974637151">
        <ele>833.60000000000002</ele>
        <time>2018-09-17T11:25:20Z</time>
      </trkpt>
      <trkpt lat="46.817514030262828" lon="11.248380029574037">
        <ele>835.03999999999996</ele>
        <time>2018-09-17T11:25:21Z</time>
      </trkpt>
      <trkpt lat="46.817471031099558" lon="11.248540040105581">
        <ele>836.96000000000004</ele>
        <time>2018-09-17T11:25:22Z</time>
      </trkpt>
      <trkpt lat="46.81743398308754" lon="11.248675994575024">
        <ele>837.92999999999995</ele>
        <time>2018-09-17T11:25:23Z</time>
      </trkpt>
      <trkpt lat="46.817388972267509" lon="11.248802980408072">
        <ele>839.37</ele>
        <time>2018-09-17T11:25:24Z</time>
      </trkpt>
      <trkpt lat="46.817309008911252" lon="11.24883801676333">
        <ele>840.80999999999995</ele>
        <time>2018-09-17T11:25:25Z</time>
      </trkpt>
      <trkpt lat="46.817186968401074" lon="11.248830975964665">
        <ele>842.25</ele>
        <time>2018-09-17T11:25:26Z</time>
      </trkpt>
      <trkpt lat="46.817079009488225" lon="11.248776996508241">
        <ele>843.21000000000004</ele>
        <time>2018-09-17T11:25:27Z</time>
      </trkpt>
      <trkpt lat="46.816979013383389" lon="11.248786970973015">
        <ele>844.17999999999995</ele>
        <time>2018-09-17T11:25:28Z</time>
      </trkpt>
      <trkpt lat="46.816870970651507" lon="11.248798035085201">
        <ele>845.62</ele>
        <time>2018-09-17T11:25:29Z</time>
      </trkpt>
      <trkpt lat="46.816800981760025" lon="11.248845979571342">
        <ele>846.10000000000002</ele>
        <time>2018-09-17T11:25:30Z</time>
      </trkpt>
      <trkpt lat="46.816752031445503" lon="11.248910017311573">
        <ele>845.62</ele>
        <time>2018-09-17T11:25:31Z</time>
      </trkpt>
      <trkpt lat="46.816693022847176" lon="11.249012025073171">
        <ele>845.62</ele>
        <time>2018-09-17T11:25:32Z</time>
      </trkpt>
      <trkpt lat="46.81670299731195" lon="11.249102968722582">
        <ele>845.13999999999999</ele>
        <time>2018-09-17T11:25:33Z</time>
      </trkpt>
      <trkpt lat="46.816720012575388" lon="11.249260967597365">
        <ele>844.65999999999997</ele>
        <time>2018-09-17T11:25:34Z</time>
      </trkpt>
      <trkpt lat="46.816739039495587" lon="11.249431958422065">
        <ele>844.65999999999997</ele>
        <time>2018-09-17T11:25:35Z</time>
      </trkpt>
      <trkpt lat="46.816779021173716" lon="11.249797996133566">
        <ele>844.65999999999997</ele>
        <time>2018-09-17T11:25:37Z</time>
      </trkpt>
      <trkpt lat="46.816798970103264" lon="11.249984996393323">
        <ele>844.65999999999997</ele>
        <time>2018-09-17T11:25:38Z</time>
      </trkpt>
      <trkpt lat="46.816822020336986" lon="11.250193035230041">
        <ele>845.13999999999999</ele>
        <time>2018-09-17T11:25:39Z</time>
      </trkpt>
      <trkpt lat="46.816782960668206" lon="11.250360002741218">
        <ele>846.10000000000002</ele>
        <time>2018-09-17T11:25:40Z</time>
      </trkpt>
      <trkpt lat="46.816730992868543" lon="11.250533005222678">
        <ele>846.58000000000004</ele>
        <time>2018-09-17T11:25:41Z</time>
      </trkpt>
      <trkpt lat="46.816668966785073" lon="11.250679017975926">
        <ele>847.53999999999996</ele>
        <time>2018-09-17T11:25:42Z</time>
      </trkpt>
      <trkpt lat="46.816611969843507" lon="11.250810027122498">
        <ele>848.98000000000002</ele>
        <time>2018-09-17T11:25:43Z</time>
      </trkpt>
      <trkpt lat="46.816564025357366" lon="11.250939024612308">
        <ele>849.94000000000005</ele>
        <time>2018-09-17T11:25:44Z</time>
      </trkpt>
      <trkpt lat="46.816564025357366" lon="11.25105301849544">
        <ele>851.38</ele>
        <time>2018-09-17T11:25:45Z</time>
      </trkpt>
      <trkpt lat="46.81661800481379" lon="11.251147985458374">
        <ele>852.35000000000002</ele>
        <time>2018-09-17T11:25:46Z</time>
      </trkpt>
      <trkpt lat="46.816676007583737" lon="11.251226020976901">
        <ele>853.30999999999995</ele>
        <time>2018-09-17T11:25:47Z</time>
      </trkpt>
      <trkpt lat="46.816768040880561" lon="11.251278994604945">
        <ele>854.75</ele>
        <time>2018-09-17T11:25:48Z</time>
      </trkpt>
      <trkpt lat="46.816868958994746" lon="11.251338003203273">
        <ele>855.71000000000004</ele>
        <time>2018-09-17T11:25:49Z</time>
      </trkpt>
      <trkpt lat="46.817054031416774" lon="11.251445040106773">
        <ele>856.66999999999996</ele>
        <time>2018-09-17T11:25:51Z</time>
      </trkpt>
      <trkpt lat="46.817108010873199" lon="11.251516034826636">
        <ele>857.14999999999998</ele>
        <time>2018-09-17T11:25:52Z</time>
      </trkpt>
      <trkpt lat="46.817138018086553" lon="11.25163204036653">
        <ele>858.11000000000001</ele>
        <time>2018-09-17T11:25:53Z</time>
      </trkpt>
      <trkpt lat="46.817123014479876" lon="11.251769000664353">
        <ele>859.08000000000004</ele>
        <time>2018-09-17T11:25:54Z</time>
      </trkpt>
      <trkpt lat="46.817140029743314" lon="11.25191300176084">
        <ele>860.03999999999996</ele>
        <time>2018-09-17T11:25:55Z</time>
      </trkpt>
      <trkpt lat="46.817165007814765" lon="11.252123974263668">
        <ele>861</ele>
        <time>2018-09-17T11:25:56Z</time>
      </trkpt>
      <trkpt lat="46.817191997542977" lon="11.252239979803562">
        <ele>861.96000000000004</ele>
        <time>2018-09-17T11:25:57Z</time>
      </trkpt>
      <trkpt lat="46.817228039726615" lon="11.252391021698713">
        <ele>862.91999999999996</ele>
        <time>2018-09-17T11:25:58Z</time>
      </trkpt>
      <trkpt lat="46.817251006141305" lon="11.252522030845284">
        <ele>863.88</ele>
        <time>2018-09-17T11:25:59Z</time>
      </trkpt>
      <trkpt lat="46.817251006141305" lon="11.252639964222908">
        <ele>864.84000000000003</ele>
        <time>2018-09-17T11:26:00Z</time>
      </trkpt>
      <trkpt lat="46.817251006141305" lon="11.252745995298028">
        <ele>865.79999999999995</ele>
        <time>2018-09-17T11:26:01Z</time>
      </trkpt>
      <trkpt lat="46.817251006141305" lon="11.252832999452949">
        <ele>866.28999999999996</ele>
        <time>2018-09-17T11:26:02Z</time>
      </trkpt>
      <trkpt lat="46.817315965890884" lon="11.252854038029909">
        <ele>867.25</ele>
        <time>2018-09-17T11:26:03Z</time>
      </trkpt>
      <trkpt lat="46.817380003631115" lon="11.252874992787838">
        <ele>867.73000000000002</ele>
        <time>2018-09-17T11:26:04Z</time>
      </trkpt>
      <trkpt lat="46.817417973652482" lon="11.252798968926072">
        <ele>868.21000000000004</ele>
        <time>2018-09-17T11:26:05Z</time>
      </trkpt>
      <trkpt lat="46.81741101667285" lon="11.252734009176493">
        <ele>869.16999999999996</ele>
        <time>2018-09-17T11:26:06Z</time>
      </trkpt>
      <trkpt lat="46.817392995581031" lon="11.25264298170805">
        <ele>870.13</ele>
        <time>2018-09-17T11:26:07Z</time>
      </trkpt>
      <trkpt lat="46.817372040823102" lon="11.2525350227952">
        <ele>871.09000000000003</ele>
        <time>2018-09-17T11:26:08Z</time>
      </trkpt>
      <trkpt lat="46.817337004467845" lon="11.252360008656979">
        <ele>872.04999999999995</ele>
        <time>2018-09-17T11:26:09Z</time>
      </trkpt>
      <trkpt lat="46.817337004467845" lon="11.252205027267337">
        <ele>873.00999999999999</ele>
        <time>2018-09-17T11:26:10Z</time>
      </trkpt>
      <trkpt lat="46.817342033609748" lon="11.25126801431179">
        <ele>878.29999999999995</ele>
        <time>2018-09-17T11:26:15Z</time>
      </trkpt>
      <trkpt lat="46.817294005304575" lon="11.251148991286755">
        <ele>879.74000000000001</ele>
        <time>2018-09-17T11:26:16Z</time>
      </trkpt>
      <trkpt lat="46.817252011969686" lon="11.251043966040015">
        <ele>880.71000000000004</ele>
        <time>2018-09-17T11:26:17Z</time>
      </trkpt>
      <trkpt lat="46.817213036119938" lon="11.250946987420321">
        <ele>882.14999999999998</ele>
        <time>2018-09-17T11:26:18Z</time>
      </trkpt>
      <trkpt lat="46.817198032513261" lon="11.250808015465736">
        <ele>883.11000000000001</ele>
        <time>2018-09-17T11:26:19Z</time>
      </trkpt>
      <trkpt lat="46.81724002584815" lon="11.250668037682772">
        <ele>884.54999999999995</ele>
        <time>2018-09-17T11:26:20Z</time>
      </trkpt>
      <trkpt lat="46.817297022789717" lon="11.250521019101143">
        <ele>885.99000000000001</ele>
        <time>2018-09-17T11:26:21Z</time>
      </trkpt>
      <trkpt lat="46.817401964217424" lon="11.250181971117854">
        <ele>888.88</ele>
        <time>2018-09-17T11:26:23Z</time>
      </trkpt>
      <trkpt lat="46.817442029714584" lon="11.250012991949916">
        <ele>889.84000000000003</ele>
        <time>2018-09-17T11:26:24Z</time>
      </trkpt>
      <trkpt lat="46.817479999735951" lon="11.249855998903513">
        <ele>890.79999999999995</ele>
        <time>2018-09-17T11:26:25Z</time>
      </trkpt>
      <trkpt lat="46.817570021376014" lon="11.249759020283818">
        <ele>891.75999999999999</ele>
        <time>2018-09-17T11:26:26Z</time>
      </trkpt>
      <trkpt lat="46.817662976682186" lon="11.249681990593672">
        <ele>892.72000000000003</ele>
        <time>2018-09-17T11:26:27Z</time>
      </trkpt>
      <trkpt lat="46.817763978615403" lon="11.249596998095512">
        <ele>893.67999999999995</ele>
        <time>2018-09-17T11:26:28Z</time>
      </trkpt>
      <trkpt lat="46.817871015518904" lon="11.249507982283831">
        <ele>894.63999999999999</ele>
        <time>2018-09-17T11:26:29Z</time>
      </trkpt>
      <trkpt lat="46.817939998582006" lon="11.249350989237428">
        <ele>895.61000000000001</ele>
        <time>2018-09-17T11:26:30Z</time>
      </trkpt>
      <trkpt lat="46.81870199739933" lon="11.247634962201118">
        <ele>906.17999999999995</ele>
        <time>2018-09-17T11:26:39Z</time>
      </trkpt>
      <trkpt lat="46.819304991513491" lon="11.24639100395143">
        <ele>915.30999999999995</ele>
        <time>2018-09-17T11:26:46Z</time>
      </trkpt>
      <trkpt lat="46.819430971518159" lon="11.246013985946774">
        <ele>919.63999999999999</ele>
        <time>2018-09-17T11:26:49Z</time>
      </trkpt>
      <trkpt lat="46.819459972903132" lon="11.245926981791854">
        <ele>920.60000000000002</ele>
        <time>2018-09-17T11:26:50Z</time>
      </trkpt>
      <trkpt lat="46.819500960409641" lon="11.245873002335429">
        <ele>921.08000000000004</ele>
        <time>2018-09-17T11:26:51Z</time>
      </trkpt>
      <trkpt lat="46.819553012028337" lon="11.245817011222243">
        <ele>922.03999999999996</ele>
        <time>2018-09-17T11:26:52Z</time>
      </trkpt>
      <trkpt lat="46.819640016183257" lon="11.245876019820571">
        <ele>922.51999999999998</ele>
        <time>2018-09-17T11:26:53Z</time>
      </trkpt>
      <trkpt lat="46.819654013961554" lon="11.245942991226912">
        <ele>923.48000000000002</ele>
        <time>2018-09-17T11:26:54Z</time>
      </trkpt>
      <trkpt lat="46.819598022848368" lon="11.246044998988509">
        <ele>924.45000000000005</ele>
        <time>2018-09-17T11:26:55Z</time>
      </trkpt>
      <trkpt lat="46.819548988714814" lon="11.246134014800191">
        <ele>925.88999999999999</ele>
        <time>2018-09-17T11:26:56Z</time>
      </trkpt>
      <trkpt lat="46.819487968459725" lon="11.246242979541421">
        <ele>926.85000000000002</ele>
        <time>2018-09-17T11:26:57Z</time>
      </trkpt>
      <trkpt lat="46.819429965689778" lon="11.24636996537447">
        <ele>927.80999999999995</ele>
        <time>2018-09-17T11:26:58Z</time>
      </trkpt>
      <trkpt lat="46.81938998401165" lon="11.246536010876298">
        <ele>928.76999999999998</ele>
        <time>2018-09-17T11:26:59Z</time>
      </trkpt>
      <trkpt lat="46.819347990676761" lon="11.24671102501452">
        <ele>929.73000000000002</ele>
        <time>2018-09-17T11:27:00Z</time>
      </trkpt>
      <trkpt lat="46.819297028705478" lon="11.246901964768767">
        <ele>930.69000000000005</ele>
        <time>2018-09-17T11:27:01Z</time>
      </trkpt>
      <trkpt lat="46.819219999015331" lon="11.247089970856905">
        <ele>931.16999999999996</ele>
        <time>2018-09-17T11:27:02Z</time>
      </trkpt>
      <trkpt lat="46.819138024002314" lon="11.247289963066578">
        <ele>931.64999999999998</ele>
        <time>2018-09-17T11:27:03Z</time>
      </trkpt>
      <trkpt lat="46.819059988483787" lon="11.247493978589773">
        <ele>932.62</ele>
        <time>2018-09-17T11:27:04Z</time>
      </trkpt>
      <trkpt lat="46.818993017077446" lon="11.247710986062884">
        <ele>933.10000000000002</ele>
        <time>2018-09-17T11:27:05Z</time>
      </trkpt>
      <trkpt lat="46.818925039842725" lon="11.247931011021137">
        <ele>934.05999999999995</ele>
        <time>2018-09-17T11:27:06Z</time>
      </trkpt>
      <trkpt lat="46.818857984617352" lon="11.248148018494248">
        <ele>935.01999999999998</ele>
        <time>2018-09-17T11:27:07Z</time>
      </trkpt>
      <trkpt lat="46.818727981299162" lon="11.248567029833794">
        <ele>936.94000000000005</ele>
        <time>2018-09-17T11:27:09Z</time>
      </trkpt>
      <trkpt lat="46.818695040419698" lon="11.248788982629776">
        <ele>937.89999999999998</ele>
        <time>2018-09-17T11:27:10Z</time>
      </trkpt>
      <trkpt lat="46.818675007671118" lon="11.249014036729932">
        <ele>938.86000000000001</ele>
        <time>2018-09-17T11:27:11Z</time>
      </trkpt>
      <trkpt lat="46.818619016557932" lon="11.249468000605702">
        <ele>941.26999999999998</ele>
        <time>2018-09-17T11:27:13Z</time>
      </trkpt>
      <trkpt lat="46.818577023223042" lon="11.249679978936911">
        <ele>942.71000000000004</ele>
        <time>2018-09-17T11:27:14Z</time>
      </trkpt>
      <trkpt lat="46.818537963554263" lon="11.249874019995332">
        <ele>944.14999999999998</ele>
        <time>2018-09-17T11:27:15Z</time>
      </trkpt>
      <trkpt lat="46.818387005478144" lon="11.250332007184625">
        <ele>948.96000000000004</ele>
        <time>2018-09-17T11:27:18Z</time>
      </trkpt>
      <trkpt lat="46.818366972729564" lon="11.25047299079597">
        <ele>950.39999999999998</ele>
        <time>2018-09-17T11:27:19Z</time>
      </trkpt>
      <trkpt lat="46.818366972729564" lon="11.250634007155895">
        <ele>951.36000000000001</ele>
        <time>2018-09-17T11:27:20Z</time>
      </trkpt>
      <trkpt lat="46.818366972729564" lon="11.25083701685071">
        <ele>952.32000000000005</ele>
        <time>2018-09-17T11:27:21Z</time>
      </trkpt>
      <trkpt lat="46.818395974114537" lon="11.250981017947197">
        <ele>953.76999999999998</ele>
        <time>2018-09-17T11:27:22Z</time>
      </trkpt>
      <trkpt lat="46.818435033783317" lon="11.251173969358206">
        <ele>954.73000000000002</ele>
        <time>2018-09-17T11:27:23Z</time>
      </trkpt>
      <trkpt lat="46.818519020453095" lon="11.251582000404596">
        <ele>957.61000000000001</ele>
        <time>2018-09-17T11:27:25Z</time>
      </trkpt>
      <trkpt lat="46.818562019616365" lon="11.251792972907424">
        <ele>958.57000000000005</ele>
        <time>2018-09-17T11:27:26Z</time>
      </trkpt>
      <trkpt lat="46.818591021001339" lon="11.252024983987212">
        <ele>960.00999999999999</ele>
        <time>2018-09-17T11:27:27Z</time>
      </trkpt>
      <trkpt lat="46.818622034043074" lon="11.252477020025253">
        <ele>962.41999999999996</ele>
        <time>2018-09-17T11:27:29Z</time>
      </trkpt>
      <trkpt lat="46.818637037649751" lon="11.252688998356462">
        <ele>963.86000000000001</ele>
        <time>2018-09-17T11:27:30Z</time>
      </trkpt>
      <trkpt lat="46.818666961044073" lon="11.253111027181149">
        <ele>966.74000000000001</ele>
        <time>2018-09-17T11:27:32Z</time>
      </trkpt>
      <trkpt lat="46.818719012662768" lon="11.253327028825879">
        <ele>968.17999999999995</ele>
        <time>2018-09-17T11:27:33Z</time>
      </trkpt>
      <trkpt lat="46.819164007902145" lon="11.255201976746321">
        <ele>977.79999999999995</ele>
        <time>2018-09-17T11:27:41Z</time>
      </trkpt>
      <trkpt lat="46.819288982078433" lon="11.255749985575676">
        <ele>980.67999999999995</ele>
        <time>2018-09-17T11:27:44Z</time>
      </trkpt>
      <trkpt lat="46.819627024233341" lon="11.256760004907846">
        <ele>989.80999999999995</ele>
        <time>2018-09-17T11:27:50Z</time>
      </trkpt>
      <trkpt lat="46.819662982597947" lon="11.256898976862431">
        <ele>992.22000000000003</ele>
        <time>2018-09-17T11:27:51Z</time>
      </trkpt>
      <trkpt lat="46.819681003689766" lon="11.257044989615679">
        <ele>994.13999999999999</ele>
        <time>2018-09-17T11:27:52Z</time>
      </trkpt>
      <trkpt lat="46.819782005622983" lon="11.257862979546189">
        <ele>1002.79</ele>
        <time>2018-09-17T11:27:58Z</time>
      </trkpt>
      <trkpt lat="46.819803966209292" lon="11.258046962320805">
        <ele>1004.72</ele>
        <time>2018-09-17T11:28:00Z</time>
      </trkpt>
      <trkpt lat="46.819868003949523" lon="11.25807898119092">
        <ele>1006.16</ele>
        <time>2018-09-17T11:28:01Z</time>
      </trkpt>
      <trkpt lat="46.819927012547851" lon="11.258107982575893">
        <ele>1006.64</ele>
        <time>2018-09-17T11:28:02Z</time>
      </trkpt>
      <trkpt lat="46.819956013932824" lon="11.258058026432991">
        <ele>1007.6</ele>
        <time>2018-09-17T11:28:03Z</time>
      </trkpt>
      <trkpt lat="46.819986021146178" lon="11.257988037541509">
        <ele>1009.04</ele>
        <time>2018-09-17T11:28:04Z</time>
      </trkpt>
      <trkpt lat="46.819997001439333" lon="11.257960963994265">
        <ele>1010</ele>
        <time>2018-09-17T11:28:05Z</time>
      </trkpt>
      <trkpt lat="46.819962970912457" lon="11.257888963446021">
        <ele>1010.96</ele>
        <time>2018-09-17T11:28:06Z</time>
      </trkpt>
      <trkpt lat="46.819917960092425" lon="11.257792990654707">
        <ele>1011.9299999999999</ele>
        <time>2018-09-17T11:28:07Z</time>
      </trkpt>
      <trkpt lat="46.819826010614634" lon="11.257596015930176">
        <ele>1012.89</ele>
        <time>2018-09-17T11:28:08Z</time>
      </trkpt>
      <trkpt lat="46.819810001179576" lon="11.257405998185277">
        <ele>1013.37</ele>
        <time>2018-09-17T11:28:09Z</time>
      </trkpt>
      <trkpt lat="46.819792985916138" lon="11.257192008197308">
        <ele>1014.33</ele>
        <time>2018-09-17T11:28:10Z</time>
      </trkpt>
      <trkpt lat="46.819773958995938" lon="11.256955973803997">
        <ele>1015.29</ele>
        <time>2018-09-17T11:28:11Z</time>
      </trkpt>
      <trkpt lat="46.819746969267726" lon="11.256707031279802">
        <ele>1016.25</ele>
        <time>2018-09-17T11:28:12Z</time>
      </trkpt>
      <trkpt lat="46.819663988426328" lon="11.256162961944938">
        <ele>1018.17</ele>
        <time>2018-09-17T11:28:14Z</time>
      </trkpt>
      <trkpt lat="46.819447986781597" lon="11.253998000174761">
        <ele>1027.79</ele>
        <time>2018-09-17T11:28:21Z</time>
      </trkpt>
      <trkpt lat="46.819313960149884" lon="11.252752030268312">
        <ele>1034.52</ele>
        <time>2018-09-17T11:28:26Z</time>
      </trkpt>
      <trkpt lat="46.819328041747212" lon="11.25251499004662">
        <ele>1035.96</ele>
        <time>2018-09-17T11:28:27Z</time>
      </trkpt>
      <trkpt lat="46.81934597902" lon="11.252290019765496">
        <ele>1036.9200000000001</ele>
        <time>2018-09-17T11:28:28Z</time>
      </trkpt>
      <trkpt lat="46.819365005940199" lon="11.252054991200566">
        <ele>1037.8800000000001</ele>
        <time>2018-09-17T11:28:29Z</time>
      </trkpt>
      <trkpt lat="46.819426026195288" lon="11.251307995989919">
        <ele>1040.76</ele>
        <time>2018-09-17T11:28:32Z</time>
      </trkpt>
      <trkpt lat="46.819778988137841" lon="11.249533966183662">
        <ele>1049.4200000000001</ele>
        <time>2018-09-17T11:28:40Z</time>
      </trkpt>
      <trkpt lat="46.81986004114151" lon="11.249336991459131">
        <ele>1050.8599999999999</ele>
        <time>2018-09-17T11:28:41Z</time>
      </trkpt>
      <trkpt lat="46.820580968633294" lon="11.247746022418141">
        <ele>1062.3900000000001</ele>
        <time>2018-09-17T11:28:49Z</time>
      </trkpt>
      <trkpt lat="46.820666966959834" lon="11.247589029371738">
        <ele>1064.3199999999999</ele>
        <time>2018-09-17T11:28:50Z</time>
      </trkpt>
      <trkpt lat="46.8207429908216" lon="11.247451985254884">
        <ele>1065.28</ele>
        <time>2018-09-17T11:28:51Z</time>
      </trkpt>
      <trkpt lat="46.820793030783534" lon="11.247300021350384">
        <ele>1066.72</ele>
        <time>2018-09-17T11:28:52Z</time>
      </trkpt>
      <trkpt lat="46.820823037996888" lon="11.247172029688954">
        <ele>1068.1600000000001</ele>
        <time>2018-09-17T11:28:53Z</time>
      </trkpt>
      <trkpt lat="46.820850027725101" lon="11.247054012492299">
        <ele>1069.1199999999999</ele>
        <time>2018-09-17T11:28:54Z</time>
      </trkpt>
      <trkpt lat="46.820872994139791" lon="11.246950998902321">
        <ele>1070.5699999999999</ele>
        <time>2018-09-17T11:28:55Z</time>
      </trkpt>
      <trkpt lat="46.820911969989538" lon="11.246782019734383">
        <ele>1072.49</ele>
        <time>2018-09-17T11:28:57Z</time>
      </trkpt>
      <trkpt lat="46.820928985252976" lon="11.246707001700997">
        <ele>1073.45</ele>
        <time>2018-09-17T11:28:58Z</time>
      </trkpt>
      <trkpt lat="46.820941977202892" lon="11.246653022244573">
        <ele>1073.9300000000001</ele>
        <time>2018-09-17T11:28:59Z</time>
      </trkpt>
      <trkpt lat="46.820979025214911" lon="11.246646987274289">
        <ele>1074.8900000000001</ele>
        <time>2018-09-17T11:29:00Z</time>
      </trkpt>
      <trkpt lat="46.8210210185498" lon="11.246641036123037">
        <ele>1075.3699999999999</ele>
        <time>2018-09-17T11:29:01Z</time>
      </trkpt>
      <trkpt lat="46.821114979684353" lon="11.246700966730714">
        <ele>1075.8499999999999</ele>
        <time>2018-09-17T11:29:02Z</time>
      </trkpt>
      <trkpt lat="46.821092013269663" lon="11.246867012232542">
        <ele>1076.8099999999999</ele>
        <time>2018-09-17T11:29:03Z</time>
      </trkpt>
      <trkpt lat="46.821038033813238" lon="11.246981006115675">
        <ele>1077.78</ele>
        <time>2018-09-17T11:29:04Z</time>
      </trkpt>
      <trkpt lat="46.820980031043291" lon="11.247106986120343">
        <ele>1078.26</ele>
        <time>2018-09-17T11:29:05Z</time>
      </trkpt>
      <trkpt lat="46.820755982771516" lon="11.247585006058216">
        <ele>1079.7</ele>
        <time>2018-09-17T11:29:08Z</time>
      </trkpt>
      <trkpt lat="46.820674007758498" lon="11.247759014368057">
        <ele>1080.6600000000001</ele>
        <time>2018-09-17T11:29:09Z</time>
      </trkpt>
      <trkpt lat="46.820604018867016" lon="11.247946014627814">
        <ele>1081.6199999999999</ele>
        <time>2018-09-17T11:29:10Z</time>
      </trkpt>
      <trkpt lat="46.820555990561843" lon="11.248163022100925">
        <ele>1083.0599999999999</ele>
        <time>2018-09-17T11:29:11Z</time>
      </trkpt>
      <trkpt lat="46.82050502859056" lon="11.248393021523952">
        <ele>1084.5</ele>
        <time>2018-09-17T11:29:12Z</time>
      </trkpt>
      <trkpt lat="46.820435039699078" lon="11.248636012896895">
        <ele>1085.95</ele>
        <time>2018-09-17T11:29:13Z</time>
      </trkpt>
      <trkpt lat="46.819950984790921" lon="11.25038699246943">
        <ele>1095.5599999999999</ele>
        <time>2018-09-17T11:29:20Z</time>
      </trkpt>
      <trkpt lat="46.819942016154528" lon="11.250642975792289">
        <ele>1097</ele>
        <time>2018-09-17T11:29:21Z</time>
      </trkpt>
      <trkpt lat="46.819933969527483" lon="11.250903988257051">
        <ele>1098.9200000000001</ele>
        <time>2018-09-17T11:29:22Z</time>
      </trkpt>
      <trkpt lat="46.819962970912457" lon="11.251431964337826">
        <ele>1102.77</ele>
        <time>2018-09-17T11:29:24Z</time>
      </trkpt>
      <trkpt lat="46.820231024175882" lon="11.253495002165437">
        <ele>1116.71</ele>
        <time>2018-09-17T11:29:32Z</time>
      </trkpt>
      <trkpt lat="46.82037603110075" lon="11.253947960212827">
        <ele>1120.0699999999999</ele>
        <time>2018-09-17T11:29:34Z</time>
      </trkpt>
      <trkpt lat="46.820862013846636" lon="11.255741016939282">
        <ele>1130.6500000000001</ele>
        <time>2018-09-17T11:29:41Z</time>
      </trkpt>
      <trkpt lat="46.821227967739105" lon="11.256667971611023">
        <ele>1134.97</ele>
        <time>2018-09-17T11:29:45Z</time>
      </trkpt>
      <trkpt lat="46.82168603874743" lon="11.257664998993278">
        <ele>1139.78</ele>
        <time>2018-09-17T11:29:50Z</time>
      </trkpt>
      <trkpt lat="46.822098009288311" lon="11.259526032954454">
        <ele>1146.51</ele>
        <time>2018-09-17T11:29:58Z</time>
      </trkpt>
      <trkpt lat="46.82256898842752" lon="11.26136401668191">
        <ele>1151.3199999999999</ele>
        <time>2018-09-17T11:30:05Z</time>
      </trkpt>
      <trkpt lat="46.823374992236495" lon="11.263637021183968">
        <ele>1160.9300000000001</ele>
        <time>2018-09-17T11:30:14Z</time>
      </trkpt>
      <trkpt lat="46.823524022474885" lon="11.264057038351893">
        <ele>1163.3299999999999</ele>
        <time>2018-09-17T11:30:16Z</time>
      </trkpt>
      <trkpt lat="46.823585964739323" lon="11.264263987541199">
        <ele>1164.29</ele>
        <time>2018-09-17T11:30:17Z</time>
      </trkpt>
      <trkpt lat="46.823647990822792" lon="11.264472026377916">
        <ele>1165.74</ele>
        <time>2018-09-17T11:30:18Z</time>
      </trkpt>
      <trkpt lat="46.823709011077881" lon="11.264675036072731">
        <ele>1167.1800000000001</ele>
        <time>2018-09-17T11:30:19Z</time>
      </trkpt>
      <trkpt lat="46.823765002191067" lon="11.264861030504107">
        <ele>1168.1400000000001</ele>
        <time>2018-09-17T11:30:20Z</time>
      </trkpt>
      <trkpt lat="46.82385602965951" lon="11.265210974961519">
        <ele>1170.0599999999999</ele>
        <time>2018-09-17T11:30:22Z</time>
      </trkpt>
      <trkpt lat="46.823867009952664" lon="11.265413984656334">
        <ele>1171.02</ele>
        <time>2018-09-17T11:30:23Z</time>
      </trkpt>
      <trkpt lat="46.82390003465116" lon="11.265881024301052">
        <ele>1172.95</ele>
        <time>2018-09-17T11:30:25Z</time>
      </trkpt>
      <trkpt lat="46.82428702712059" lon="11.267969962209463">
        <ele>1180.1600000000001</ele>
        <time>2018-09-17T11:30:33Z</time>
      </trkpt>
      <trkpt lat="46.824577040970325" lon="11.269064974039793">
        <ele>1184.48</ele>
        <time>2018-09-17T11:30:38Z</time>
      </trkpt>
      <trkpt lat="46.82461098767817" lon="11.269182991236448">
        <ele>1185.4400000000001</ele>
        <time>2018-09-17T11:30:39Z</time>
      </trkpt>
      <trkpt lat="46.824725987389684" lon="11.269329003989697">
        <ele>1185.9200000000001</ele>
        <time>2018-09-17T11:30:40Z</time>
      </trkpt>
      <trkpt lat="46.824821960180998" lon="11.269449032843113">
        <ele>1186.4000000000001</ele>
        <time>2018-09-17T11:30:41Z</time>
      </trkpt>
      <trkpt lat="46.824922040104866" lon="11.269576018676162">
        <ele>1186.8800000000001</ele>
        <time>2018-09-17T11:30:42Z</time>
      </trkpt>
      <trkpt lat="46.825026981532574" lon="11.269706021994352">
        <ele>1187.3699999999999</ele>
        <time>2018-09-17T11:30:43Z</time>
      </trkpt>
      <trkpt lat="46.825154973194003" lon="11.269822027534246">
        <ele>1187.8499999999999</ele>
        <time>2018-09-17T11:30:44Z</time>
      </trkpt>
      <trkpt lat="46.826155018061399" lon="11.270743031054735">
        <ele>1190.25</ele>
        <time>2018-09-17T11:30:51Z</time>
      </trkpt>
      <trkpt lat="46.825965000316501" lon="11.272793998941779">
        <ele>1190.73</ele>
        <time>2018-09-17T11:31:00Z</time>
      </trkpt>
      <trkpt lat="46.827585976570845" lon="11.271963017061353">
        <ele>1192.1700000000001</ele>
        <time>2018-09-17T11:31:03Z</time>
      </trkpt>
      <trkpt lat="46.826771004125476" lon="11.272769020870328">
        <ele>1193.6099999999999</ele>
        <time>2018-09-17T11:31:06Z</time>
      </trkpt>
      <trkpt lat="46.826005987823009" lon="11.273561026901007">
        <ele>1195.54</ele>
        <time>2018-09-17T11:31:10Z</time>
      </trkpt>
      <trkpt lat="46.826005987823009" lon="11.273561026901007">
        <ele>1196.02</ele>
        <time>2018-09-17T11:31:11Z</time>
      </trkpt>
      <trkpt lat="46.826005987823009" lon="11.273561026901007">
        <ele>1196.5</ele>
        <time>2018-09-17T11:31:12Z</time>
      </trkpt>
      <trkpt lat="46.826005987823009" lon="11.2737219594419">
        <ele>1197.46</ele>
        <time>2018-09-17T11:31:13Z</time>
      </trkpt>
      <trkpt lat="46.826005987823009" lon="11.273796977475286">
        <ele>1198.4200000000001</ele>
        <time>2018-09-17T11:31:14Z</time>
      </trkpt>
      <trkpt lat="46.826005987823009" lon="11.273796977475286">
        <ele>1199.3800000000001</ele>
        <time>2018-09-17T11:31:15Z</time>
      </trkpt>
      <trkpt lat="46.825923006981611" lon="11.27391298301518">
        <ele>1200.8199999999999</ele>
        <time>2018-09-17T11:31:16Z</time>
      </trkpt>
      <trkpt lat="46.825830973684788" lon="11.274040974676609">
        <ele>1201.3</ele>
        <time>2018-09-17T11:31:17Z</time>
      </trkpt>
      <trkpt lat="46.825501983985305" lon="11.274714963510633">
        <ele>1207.55</ele>
        <time>2018-09-17T11:31:22Z</time>
      </trkpt>
      <trkpt lat="46.825506007298827" lon="11.274810014292598">
        <ele>1208.51</ele>
        <time>2018-09-17T11:31:23Z</time>
      </trkpt>
      <trkpt lat="46.825525034219027" lon="11.274895006790757">
        <ele>1209.48</ele>
        <time>2018-09-17T11:31:24Z</time>
      </trkpt>
      <trkpt lat="46.825549006462097" lon="11.274967007339001">
        <ele>1210.9200000000001</ele>
        <time>2018-09-17T11:31:25Z</time>
      </trkpt>
      <trkpt lat="46.82559602893889" lon="11.275067003443837">
        <ele>1211.8800000000001</ele>
        <time>2018-09-17T11:31:26Z</time>
      </trkpt>
      <trkpt lat="46.825644979253411" lon="11.275170017033815">
        <ele>1212.8399999999999</ele>
        <time>2018-09-17T11:31:27Z</time>
      </trkpt>
      <trkpt lat="46.82570499368012" lon="11.275299014523625">
        <ele>1214.28</ele>
        <time>2018-09-17T11:31:28Z</time>
      </trkpt>
      <trkpt lat="46.825762996450067" lon="11.27537596039474">
        <ele>1215.24</ele>
        <time>2018-09-17T11:31:29Z</time>
      </trkpt>
      <trkpt lat="46.825819993391633" lon="11.275451984256506">
        <ele>1216.21</ele>
        <time>2018-09-17T11:31:30Z</time>
      </trkpt>
      <trkpt lat="46.82589802891016" lon="11.275556003674865">
        <ele>1216.6900000000001</ele>
        <time>2018-09-17T11:31:31Z</time>
      </trkpt>
      <trkpt lat="46.825911020860076" lon="11.275655999779701">
        <ele>1217.1700000000001</ele>
        <time>2018-09-17T11:31:32Z</time>
      </trkpt>
      <trkpt lat="46.825856035575271" lon="11.275823973119259">
        <ele>1218.1300000000001</ele>
        <time>2018-09-17T11:31:33Z</time>
      </trkpt>
      <trkpt lat="46.825775988399982" lon="11.275904020294547">
        <ele>1218.6099999999999</ele>
        <time>2018-09-17T11:31:34Z</time>
      </trkpt>
      <trkpt lat="46.825697030872107" lon="11.275967974215746">
        <ele>1220.05</ele>
        <time>2018-09-17T11:31:35Z</time>
      </trkpt>
      <trkpt lat="46.82533903978765" lon="11.276259999722242">
        <ele>1223.9000000000001</ele>
        <time>2018-09-17T11:31:39Z</time>
      </trkpt>
      <trkpt lat="46.825266033411026" lon="11.27631900832057">
        <ele>1225.3399999999999</ele>
        <time>2018-09-17T11:31:40Z</time>
      </trkpt>
      <trkpt lat="46.825251029804349" lon="11.276372987776995">
        <ele>1225.8199999999999</ele>
        <time>2018-09-17T11:31:41Z</time>
      </trkpt>
      <trkpt lat="46.825240971520543" lon="11.276493016630411">
        <ele>1226.78</ele>
        <time>2018-09-17T11:31:42Z</time>
      </trkpt>
      <trkpt lat="46.82523300871253" lon="11.276585971936584">
        <ele>1227.26</ele>
        <time>2018-09-17T11:31:43Z</time>
      </trkpt>
      <trkpt lat="46.825266033411026" lon="11.276702983304858">
        <ele>1227.74</ele>
        <time>2018-09-17T11:31:44Z</time>
      </trkpt>
      <trkpt lat="46.825301991775632" lon="11.276826029643416">
        <ele>1228.7</ele>
        <time>2018-09-17T11:31:45Z</time>
      </trkpt>
      <trkpt lat="46.82531900703907" lon="11.276962989941239">
        <ele>1229.1800000000001</ele>
        <time>2018-09-17T11:31:46Z</time>
      </trkpt>
      <trkpt lat="46.825293023139238" lon="11.277133980765939">
        <ele>1229.6600000000001</ele>
        <time>2018-09-17T11:31:47Z</time>
      </trkpt>
      <trkpt lat="46.825229991227388" lon="11.277216039597988">
        <ele>1230.1400000000001</ele>
        <time>2018-09-17T11:31:48Z</time>
      </trkpt>
      <trkpt lat="46.825154973194003" lon="11.277312012389302">
        <ele>1230.6199999999999</ele>
        <time>2018-09-17T11:31:49Z</time>
      </trkpt>
      <trkpt lat="46.825075009837747" lon="11.2774140201509">
        <ele>1231.5899999999999</ele>
        <time>2018-09-17T11:31:50Z</time>
      </trkpt>
      <trkpt lat="46.82501801289618" lon="11.277487026527524">
        <ele>1232.55</ele>
        <time>2018-09-17T11:31:51Z</time>
      </trkpt>
      <trkpt lat="46.824988005682826" lon="11.277615018188953">
        <ele>1233.51</ele>
        <time>2018-09-17T11:31:52Z</time>
      </trkpt>
      <trkpt lat="46.824957998469472" lon="11.277742004022002">
        <ele>1234.47</ele>
        <time>2018-09-17T11:31:53Z</time>
      </trkpt>
      <trkpt lat="46.824928997084498" lon="11.277862032875419">
        <ele>1235.4300000000001</ele>
        <time>2018-09-17T11:31:54Z</time>
      </trkpt>
      <trkpt lat="46.824855990707874" lon="11.27795297652483">
        <ele>1235.9100000000001</ele>
        <time>2018-09-17T11:31:55Z</time>
      </trkpt>
      <trkpt lat="46.824775021523237" lon="11.27797401510179">
        <ele>1236.8699999999999</ele>
        <time>2018-09-17T11:31:56Z</time>
      </trkpt>
      <trkpt lat="46.824686005711555" lon="11.277997987344861">
        <ele>1238.3199999999999</ele>
        <time>2018-09-17T11:31:57Z</time>
      </trkpt>
      <trkpt lat="46.824604030698538" lon="11.278020031750202">
        <ele>1239.28</ele>
        <time>2018-09-17T11:31:58Z</time>
      </trkpt>
      <trkpt lat="46.824576035141945" lon="11.278076022863388">
        <ele>1240.24</ele>
        <time>2018-09-17T11:31:59Z</time>
      </trkpt>
      <trkpt lat="46.8245679885149" lon="11.278109969571233">
        <ele>1241.2</ele>
        <time>2018-09-17T11:32:00Z</time>
      </trkpt>
      <trkpt lat="46.824580980464816" lon="11.27825103700161">
        <ele>1242.1600000000001</ele>
        <time>2018-09-17T11:32:01Z</time>
      </trkpt>
      <trkpt lat="46.824593972414732" lon="11.278393026441336">
        <ele>1243.1199999999999</ele>
        <time>2018-09-17T11:32:02Z</time>
      </trkpt>
      <trkpt lat="46.824607970193028" lon="11.278551025316119">
        <ele>1243.5999999999999</ele>
        <time>2018-09-17T11:32:03Z</time>
      </trkpt>
      <trkpt lat="46.824591038748622" lon="11.278722016140819">
        <ele>1244.5599999999999</ele>
        <time>2018-09-17T11:32:04Z</time>
      </trkpt>
      <trkpt lat="46.824571006000042" lon="11.278870040550828">
        <ele>1245.04</ele>
        <time>2018-09-17T11:32:05Z</time>
      </trkpt>
      <trkpt lat="46.824550973251462" lon="11.279015969485044">
        <ele>1246.01</ele>
        <time>2018-09-17T11:32:06Z</time>
      </trkpt>
      <trkpt lat="46.82452498935163" lon="11.279203975573182">
        <ele>1246.49</ele>
        <time>2018-09-17T11:32:07Z</time>
      </trkpt>
      <trkpt lat="46.824534963816404" lon="11.279322998598218">
        <ele>1247.45</ele>
        <time>2018-09-17T11:32:08Z</time>
      </trkpt>
      <trkpt lat="46.824551979079843" lon="11.279513016343117">
        <ele>1248.4100000000001</ele>
        <time>2018-09-17T11:32:09Z</time>
      </trkpt>
      <trkpt lat="46.82482497766614" lon="11.281058974564075">
        <ele>1255.6199999999999</ele>
        <time>2018-09-17T11:32:16Z</time>
      </trkpt>
      <trkpt lat="46.82495104148984" lon="11.281524002552032">
        <ele>1258.5</ele>
        <time>2018-09-17T11:32:18Z</time>
      </trkpt>
      <trkpt lat="46.825535008683801" lon="11.283035008236766">
        <ele>1268.5999999999999</ele>
        <time>2018-09-17T11:32:25Z</time>
      </trkpt>
      <trkpt lat="46.825600974261761" lon="11.283201975747943">
        <ele>1269.5599999999999</ele>
        <time>2018-09-17T11:32:26Z</time>
      </trkpt>
      <trkpt lat="46.825668029487133" lon="11.283336002379656">
        <ele>1271</ele>
        <time>2018-09-17T11:32:27Z</time>
      </trkpt>
      <trkpt lat="46.825751010328531" lon="11.283441027626395">
        <ele>1271.96</ele>
        <time>2018-09-17T11:32:28Z</time>
      </trkpt>
      <trkpt lat="46.825830973684788" lon="11.283540017902851">
        <ele>1272.9200000000001</ele>
        <time>2018-09-17T11:32:29Z</time>
      </trkpt>
      <trkpt lat="46.825904985889792" lon="11.283632973209023">
        <ele>1274.3599999999999</ele>
        <time>2018-09-17T11:32:30Z</time>
      </trkpt>
      <trkpt lat="46.825968017801642" lon="11.283711008727551">
        <ele>1275.8099999999999</ele>
        <time>2018-09-17T11:32:31Z</time>
      </trkpt>
      <trkpt lat="46.826052004471421" lon="11.28381603397429">
        <ele>1278.6900000000001</ele>
        <time>2018-09-17T11:32:33Z</time>
      </trkpt>
      <trkpt lat="46.82607002556324" lon="11.283891974017024">
        <ele>1279.6500000000001</ele>
        <time>2018-09-17T11:32:34Z</time>
      </trkpt>
      <trkpt lat="46.82607002556324" lon="11.283963974565268">
        <ele>1281.0899999999999</ele>
        <time>2018-09-17T11:32:35Z</time>
      </trkpt>
      <trkpt lat="46.826044041663408" lon="11.284047039225698">
        <ele>1282.0599999999999</ele>
        <time>2018-09-17T11:32:36Z</time>
      </trkpt>
      <trkpt lat="46.826013028621674" lon="11.284138988703489">
        <ele>1283.02</ele>
        <time>2018-09-17T11:32:37Z</time>
      </trkpt>
      <trkpt lat="46.8259840272367" lon="11.284258011728525">
        <ele>1284.46</ele>
        <time>2018-09-17T11:32:38Z</time>
      </trkpt>
      <trkpt lat="46.825998025014997" lon="11.284402012825012">
        <ele>1285.4200000000001</ele>
        <time>2018-09-17T11:32:39Z</time>
      </trkpt>
      <trkpt lat="46.826041024178267" lon="11.284556994214654">
        <ele>1286.3800000000001</ele>
        <time>2018-09-17T11:32:40Z</time>
      </trkpt>
      <trkpt lat="46.826089974492788" lon="11.284731002524495">
        <ele>1287.3399999999999</ele>
        <time>2018-09-17T11:32:41Z</time>
      </trkpt>
      <trkpt lat="46.826461041346192" lon="11.286369999870658">
        <ele>1292.6300000000001</ele>
        <time>2018-09-17T11:32:49Z</time>
      </trkpt>
      <trkpt lat="46.826516026630998" lon="11.286541996523738">
        <ele>1293.5899999999999</ele>
        <time>2018-09-17T11:32:50Z</time>
      </trkpt>
      <trkpt lat="46.826582998037338" lon="11.286691026762128">
        <ele>1294.0699999999999</ele>
        <time>2018-09-17T11:32:51Z</time>
      </trkpt>
      <trkpt lat="46.826688023284078" lon="11.286964025348425">
        <ele>1295.51</ele>
        <time>2018-09-17T11:32:53Z</time>
      </trkpt>
      <trkpt lat="46.826714007183909" lon="11.287079025059938">
        <ele>1296.48</ele>
        <time>2018-09-17T11:32:54Z</time>
      </trkpt>
      <trkpt lat="46.826695986092091" lon="11.287201987579465">
        <ele>1296.96</ele>
        <time>2018-09-17T11:32:55Z</time>
      </trkpt>
      <trkpt lat="46.826644018292427" lon="11.287291003391147">
        <ele>1297.4400000000001</ele>
        <time>2018-09-17T11:32:56Z</time>
      </trkpt>
      <trkpt lat="46.826570006087422" lon="11.287386976182461">
        <ele>1297.9200000000001</ele>
        <time>2018-09-17T11:32:57Z</time>
      </trkpt>
      <trkpt lat="46.826489036902785" lon="11.287493007257581">
        <ele>1298.4000000000001</ele>
        <time>2018-09-17T11:32:58Z</time>
      </trkpt>
      <trkpt lat="46.826427010819316" lon="11.287622004747391">
        <ele>1299.3599999999999</ele>
        <time>2018-09-17T11:32:59Z</time>
      </trkpt>
      <trkpt lat="46.826364984735847" lon="11.287759970873594">
        <ele>1299.8399999999999</ele>
        <time>2018-09-17T11:33:00Z</time>
      </trkpt>
      <trkpt lat="46.826305976137519" lon="11.28789802081883">
        <ele>1300.3199999999999</ele>
        <time>2018-09-17T11:33:01Z</time>
      </trkpt>
      <trkpt lat="46.826296001672745" lon="11.28807001747191">
        <ele>1301.28</ele>
        <time>2018-09-17T11:33:02Z</time>
      </trkpt>
      <trkpt lat="46.826286027207971" lon="11.288250982761383">
        <ele>1302.24</ele>
        <time>2018-09-17T11:33:03Z</time>
      </trkpt>
      <trkpt lat="46.826274963095784" lon="11.288432031869888">
        <ele>1302.72</ele>
        <time>2018-09-17T11:33:04Z</time>
      </trkpt>
      <trkpt lat="46.826262976974249" lon="11.288645016029477">
        <ele>1303.6900000000001</ele>
        <time>2018-09-17T11:33:05Z</time>
      </trkpt>
      <trkpt lat="46.826304970309138" lon="11.288797985762358">
        <ele>1304.6500000000001</ele>
        <time>2018-09-17T11:33:06Z</time>
      </trkpt>
      <trkpt lat="46.826355010271072" lon="11.288980040699244">
        <ele>1305.1300000000001</ele>
        <time>2018-09-17T11:33:07Z</time>
      </trkpt>
      <trkpt lat="46.826440002769232" lon="11.289351023733616">
        <ele>1307.05</ele>
        <time>2018-09-17T11:33:09Z</time>
      </trkpt>
      <trkpt lat="46.826454000547528" lon="11.289541963487864">
        <ele>1308.01</ele>
        <time>2018-09-17T11:33:10Z</time>
      </trkpt>
      <trkpt lat="46.826465986669064" lon="11.289728041738272">
        <ele>1308.97</ele>
        <time>2018-09-17T11:33:11Z</time>
      </trkpt>
      <trkpt lat="46.826484007760882" lon="11.289910012856126">
        <ele>1309.9300000000001</ele>
        <time>2018-09-17T11:33:12Z</time>
      </trkpt>
      <trkpt lat="46.826544022187591" lon="11.290096007287502">
        <ele>1310.4100000000001</ele>
        <time>2018-09-17T11:33:13Z</time>
      </trkpt>
      <trkpt lat="46.82660898193717" lon="11.290299016982317">
        <ele>1310.9000000000001</ele>
        <time>2018-09-17T11:33:14Z</time>
      </trkpt>
      <trkpt lat="46.826671008020639" lon="11.290490962564945">
        <ele>1311.8599999999999</ele>
        <time>2018-09-17T11:33:15Z</time>
      </trkpt>
      <trkpt lat="46.826724987477064" lon="11.290734959766269">
        <ele>1312.8199999999999</ele>
        <time>2018-09-17T11:33:16Z</time>
      </trkpt>
      <trkpt lat="46.826757006347179" lon="11.290968982502818">
        <ele>1313.78</ele>
        <time>2018-09-17T11:33:17Z</time>
      </trkpt>
      <trkpt lat="46.827007038518786" lon="11.292891958728433">
        <ele>1323.8699999999999</ele>
        <time>2018-09-17T11:33:25Z</time>
      </trkpt>
      <trkpt lat="46.8269959744066" lon="11.293112989515066">
        <ele>1325.3099999999999</ele>
        <time>2018-09-17T11:33:26Z</time>
      </trkpt>
      <trkpt lat="46.826975019648671" lon="11.293328991159797">
        <ele>1326.76</ele>
        <time>2018-09-17T11:33:27Z</time>
      </trkpt>
      <trkpt lat="46.826936965808272" lon="11.293709026649594">
        <ele>1329.1600000000001</ele>
        <time>2018-09-17T11:33:29Z</time>
      </trkpt>
      <trkpt lat="46.826937971636653" lon="11.293878005817533">
        <ele>1330.5999999999999</ele>
        <time>2018-09-17T11:33:30Z</time>
      </trkpt>
      <trkpt lat="46.826959010213614" lon="11.294059976935387">
        <ele>1332.04</ele>
        <time>2018-09-17T11:33:31Z</time>
      </trkpt>
      <trkpt lat="46.826980970799923" lon="11.294256029650569">
        <ele>1333.01</ele>
        <time>2018-09-17T11:33:32Z</time>
      </trkpt>
      <trkpt lat="46.826996980234981" lon="11.294462978839874">
        <ele>1334.45</ele>
        <time>2018-09-17T11:33:33Z</time>
      </trkpt>
      <trkpt lat="46.827006032690406" lon="11.294677974656224">
        <ele>1336.3699999999999</ele>
        <time>2018-09-17T11:33:34Z</time>
      </trkpt>
      <trkpt lat="46.827058000490069" lon="11.295125987380743">
        <ele>1339.25</ele>
        <time>2018-09-17T11:33:36Z</time>
      </trkpt>
      <trkpt lat="46.827121032401919" lon="11.295540975406766">
        <ele>1342.1400000000001</ele>
        <time>2018-09-17T11:33:38Z</time>
      </trkpt>
      <trkpt lat="46.827121032401919" lon="11.295730993151665">
        <ele>1343.5799999999999</ele>
        <time>2018-09-17T11:33:39Z</time>
      </trkpt>
      <trkpt lat="46.827121032401919" lon="11.295922016724944">
        <ele>1345.5</ele>
        <time>2018-09-17T11:33:40Z</time>
      </trkpt>
      <trkpt lat="46.827103011310101" lon="11.296315966174006">
        <ele>1348.8699999999999</ele>
        <time>2018-09-17T11:33:42Z</time>
      </trkpt>
      <trkpt lat="46.827035034075379" lon="11.296725003048778">
        <ele>1351.75</ele>
        <time>2018-09-17T11:33:44Z</time>
      </trkpt>
      <trkpt lat="46.827035034075379" lon="11.296939998865128">
        <ele>1353.1900000000001</ele>
        <time>2018-09-17T11:33:45Z</time>
      </trkpt>
      <trkpt lat="46.826898995786905" lon="11.298745041713119">
        <ele>1364.25</ele>
        <time>2018-09-17T11:33:53Z</time>
      </trkpt>
      <trkpt lat="46.826892960816622" lon="11.298954002559185">
        <ele>1365.21</ele>
        <time>2018-09-17T11:33:54Z</time>
      </trkpt>
      <trkpt lat="46.826916011050344" lon="11.299187019467354">
        <ele>1366.6500000000001</ele>
        <time>2018-09-17T11:33:55Z</time>
      </trkpt>
      <trkpt lat="46.827122960239649" lon="11.301050987094641">
        <ele>1377.71</ele>
        <time>2018-09-17T11:34:03Z</time>
      </trkpt>
      <trkpt lat="46.827186997979879" lon="11.301362039521337">
        <ele>1380.1099999999999</ele>
        <time>2018-09-17T11:34:05Z</time>
      </trkpt>
      <trkpt lat="46.827222034335136" lon="11.301492964848876">
        <ele>1381.0699999999999</ele>
        <time>2018-09-17T11:34:06Z</time>
      </trkpt>
      <trkpt lat="46.827280959114432" lon="11.301711983978748">
        <ele>1382.99</ele>
        <time>2018-09-17T11:34:08Z</time>
      </trkpt>
      <trkpt lat="46.827265033498406" lon="11.301805023103952">
        <ele>1383.96</ele>
        <time>2018-09-17T11:34:09Z</time>
      </trkpt>
      <trkpt lat="46.827215999364853" lon="11.301892027258873">
        <ele>1384.9200000000001</ele>
        <time>2018-09-17T11:34:10Z</time>
      </trkpt>
      <trkpt lat="46.827103011310101" lon="11.302094031125307">
        <ele>1386.8399999999999</ele>
        <time>2018-09-17T11:34:12Z</time>
      </trkpt>
      <trkpt lat="46.827071998268366" lon="11.302221016958356">
        <ele>1388.28</ele>
        <time>2018-09-17T11:34:13Z</time>
      </trkpt>
      <trkpt lat="46.827041991055012" lon="11.302351020276546">
        <ele>1389.24</ele>
        <time>2018-09-17T11:34:14Z</time>
      </trkpt>
      <trkpt lat="46.827056994661689" lon="11.302502984181046">
        <ele>1390.2</ele>
        <time>2018-09-17T11:34:15Z</time>
      </trkpt>
      <trkpt lat="46.827088007703424" lon="11.302686966955662">
        <ele>1391.1700000000001</ele>
        <time>2018-09-17T11:34:16Z</time>
      </trkpt>
      <trkpt lat="46.827127989381552" lon="11.302914032712579">
        <ele>1392.1300000000001</ele>
        <time>2018-09-17T11:34:17Z</time>
      </trkpt>
      <trkpt lat="46.827258998528123" lon="11.303679971024394">
        <ele>1395.49</ele>
        <time>2018-09-17T11:34:20Z</time>
      </trkpt>
      <trkpt lat="46.827255981042981" lon="11.303897984325886">
        <ele>1396.9300000000001</ele>
        <time>2018-09-17T11:34:21Z</time>
      </trkpt>
      <trkpt lat="46.827228991314769" lon="11.304328981786966">
        <ele>1399.8199999999999</ele>
        <time>2018-09-17T11:34:23Z</time>
      </trkpt>
      <trkpt lat="46.827228991314769" lon="11.304780011996627">
        <ele>1402.22</ele>
        <time>2018-09-17T11:34:25Z</time>
      </trkpt>
      <trkpt lat="46.827213987708092" lon="11.305001964792609">
        <ele>1403.6600000000001</ele>
        <time>2018-09-17T11:34:26Z</time>
      </trkpt>
      <trkpt lat="46.827163025736809" lon="11.305230958387256">
        <ele>1404.6199999999999</ele>
        <time>2018-09-17T11:34:27Z</time>
      </trkpt>
      <trkpt lat="46.827031010761857" lon="11.305611999705434">
        <ele>1407.99</ele>
        <time>2018-09-17T11:34:29Z</time>
      </trkpt>
      <trkpt lat="46.826944006606936" lon="11.305757006630301">
        <ele>1409.4300000000001</ele>
        <time>2018-09-17T11:34:30Z</time>
      </trkpt>
      <trkpt lat="46.826773015782237" lon="11.305988011881709">
        <ele>1412.3099999999999</ele>
        <time>2018-09-17T11:34:32Z</time>
      </trkpt>
      <trkpt lat="46.826700009405613" lon="11.306122960522771">
        <ele>1414.24</ele>
        <time>2018-09-17T11:34:33Z</time>
      </trkpt>
      <trkpt lat="46.82665198110044" lon="11.306314989924431">
        <ele>1415.6800000000001</ele>
        <time>2018-09-17T11:34:34Z</time>
      </trkpt>
      <trkpt lat="46.826601019129157" lon="11.306519005447626">
        <ele>1417.1199999999999</ele>
        <time>2018-09-17T11:34:35Z</time>
      </trkpt>
      <trkpt lat="46.826575035229325" lon="11.306737018749118">
        <ele>1418.5599999999999</ele>
        <time>2018-09-17T11:34:36Z</time>
      </trkpt>
      <trkpt lat="46.826559025794268" lon="11.306970035657287">
        <ele>1420</ele>
        <time>2018-09-17T11:34:37Z</time>
      </trkpt>
      <trkpt lat="46.82654301635921" lon="11.307212021201849">
        <ele>1421.45</ele>
        <time>2018-09-17T11:34:38Z</time>
      </trkpt>
      <trkpt lat="46.826232969760895" lon="11.309452001005411">
        <ele>1435.8699999999999</ele>
        <time>2018-09-17T11:34:47Z</time>
      </trkpt>
      <trkpt lat="46.826129034161568" lon="11.310068992897868">
        <ele>1440.1900000000001</ele>
        <time>2018-09-17T11:34:50Z</time>
      </trkpt>
      <trkpt lat="46.826043035835028" lon="11.310279965400696">
        <ele>1442.5999999999999</ele>
        <time>2018-09-17T11:34:52Z</time>
      </trkpt>
      <trkpt lat="46.826041024178267" lon="11.310328999534249">
        <ele>1444.04</ele>
        <time>2018-09-17T11:34:53Z</time>
      </trkpt>
      <trkpt lat="46.82609299197793" lon="11.310370992869139">
        <ele>1445.48</ele>
        <time>2018-09-17T11:34:54Z</time>
      </trkpt>
      <trkpt lat="46.826133979484439" lon="11.310403011739254">
        <ele>1446.4400000000001</ele>
        <time>2018-09-17T11:34:55Z</time>
      </trkpt>
      <trkpt lat="46.826190976426005" lon="11.310346014797688">
        <ele>1447.4000000000001</ele>
        <time>2018-09-17T11:34:56Z</time>
      </trkpt>
      <trkpt lat="46.826226012781262" lon="11.310275020077825">
        <ele>1448.3599999999999</ele>
        <time>2018-09-17T11:34:57Z</time>
      </trkpt>
      <trkpt lat="46.826248979195952" lon="11.310123978182673">
        <ele>1449.3199999999999</ele>
        <time>2018-09-17T11:34:58Z</time>
      </trkpt>
      <trkpt lat="46.826276974752545" lon="11.309935972094536">
        <ele>1450.77</ele>
        <time>2018-09-17T11:34:59Z</time>
      </trkpt>
      <trkpt lat="46.826346041634679" lon="11.309727011248469">
        <ele>1451.73</ele>
        <time>2018-09-17T11:35:00Z</time>
      </trkpt>
      <trkpt lat="46.826426004990935" lon="11.309516038745642">
        <ele>1452.6900000000001</ele>
        <time>2018-09-17T11:35:01Z</time>
      </trkpt>
      <trkpt lat="46.827109968289733" lon="11.308078961446881">
        <ele>1461.3399999999999</ele>
        <time>2018-09-17T11:35:07Z</time>
      </trkpt>
      <trkpt lat="46.828029965981841" lon="11.306315995752811">
        <ele>1473.8399999999999</ele>
        <time>2018-09-17T11:35:15Z</time>
      </trkpt>
      <trkpt lat="46.828101966530085" lon="11.306261010468006">
        <ele>1475.28</ele>
        <time>2018-09-17T11:35:16Z</time>
      </trkpt>
      <trkpt lat="46.82817698456347" lon="11.306261010468006">
        <ele>1476.24</ele>
        <time>2018-09-17T11:35:17Z</time>
      </trkpt>
      <trkpt lat="46.828253008425236" lon="11.306295040994883">
        <ele>1477.6800000000001</ele>
        <time>2018-09-17T11:35:18Z</time>
      </trkpt>
      <trkpt lat="46.828345041722059" lon="11.306335022673011">
        <ele>1478.6500000000001</ele>
        <time>2018-09-17T11:35:19Z</time>
      </trkpt>
      <trkpt lat="46.828432967886329" lon="11.306372992694378">
        <ele>1480.0899999999999</ele>
        <time>2018-09-17T11:35:20Z</time>
      </trkpt>
      <trkpt lat="46.828522989526391" lon="11.306366035714746">
        <ele>1481.53</ele>
        <time>2018-09-17T11:35:21Z</time>
      </trkpt>
      <trkpt lat="46.828595995903015" lon="11.306275008246303">
        <ele>1482.97</ele>
        <time>2018-09-17T11:35:22Z</time>
      </trkpt>
      <trkpt lat="46.828618040308356" lon="11.306143999099731">
        <ele>1483.9300000000001</ele>
        <time>2018-09-17T11:35:23Z</time>
      </trkpt>
      <trkpt lat="46.82860798202455" lon="11.305997986346483">
        <ele>1484.8900000000001</ele>
        <time>2018-09-17T11:35:24Z</time>
      </trkpt>
      <trkpt lat="46.828594990074635" lon="11.305820038542151">
        <ele>1485.8499999999999</ele>
        <time>2018-09-17T11:35:25Z</time>
      </trkpt>
      <trkpt lat="46.828579986467957" lon="11.305614011362195">
        <ele>1486.8199999999999</ele>
        <time>2018-09-17T11:35:26Z</time>
      </trkpt>
      <trkpt lat="46.8285639770329" lon="11.305389041081071">
        <ele>1487.3</ele>
        <time>2018-09-17T11:35:27Z</time>
      </trkpt>
      <trkpt lat="46.828678976744413" lon="11.303921034559608">
        <ele>1493.0599999999999</ele>
        <time>2018-09-17T11:35:33Z</time>
      </trkpt>
      <trkpt lat="46.828737985342741" lon="11.303739985451102">
        <ele>1494.03</ele>
        <time>2018-09-17T11:35:34Z</time>
      </trkpt>
      <trkpt lat="46.82879900559783" lon="11.303550973534584">
        <ele>1494.99</ele>
        <time>2018-09-17T11:35:35Z</time>
      </trkpt>
      <trkpt lat="46.828875029459596" lon="11.303361961618066">
        <ele>1496.4300000000001</ele>
        <time>2018-09-17T11:35:36Z</time>
      </trkpt>
      <trkpt lat="46.828969996422529" lon="11.303187031298876">
        <ele>1497.8699999999999</ele>
        <time>2018-09-17T11:35:37Z</time>
      </trkpt>
      <trkpt lat="46.829223968088627" lon="11.302722003310919">
        <ele>1501.24</ele>
        <time>2018-09-17T11:35:40Z</time>
      </trkpt>
      <trkpt lat="46.829223968088627" lon="11.302550006657839">
        <ele>1502.2</ele>
        <time>2018-09-17T11:35:41Z</time>
      </trkpt>
      <trkpt lat="46.829205024987459" lon="11.302399970591068">
        <ele>1503.1600000000001</ele>
        <time>2018-09-17T11:35:42Z</time>
      </trkpt>
      <trkpt lat="46.82918599806726" lon="11.302244989201427">
        <ele>1504.1199999999999</ele>
        <time>2018-09-17T11:35:43Z</time>
      </trkpt>
      <trkpt lat="46.829231008887291" lon="11.302077015861869">
        <ele>1505.5599999999999</ele>
        <time>2018-09-17T11:35:44Z</time>
      </trkpt>
      <trkpt lat="46.829289011657238" lon="11.301923040300608">
        <ele>1507</ele>
        <time>2018-09-17T11:35:45Z</time>
      </trkpt>
      <trkpt lat="46.829350031912327" lon="11.301763029769063">
        <ele>1507.97</ele>
        <time>2018-09-17T11:35:46Z</time>
      </trkpt>
      <trkpt lat="46.829352965578437" lon="11.301559014245868">
        <ele>1509.4100000000001</ele>
        <time>2018-09-17T11:35:47Z</time>
      </trkpt>
      <trkpt lat="46.829331004992127" lon="11.301388023421168">
        <ele>1511.3299999999999</ele>
        <time>2018-09-17T11:35:48Z</time>
      </trkpt>
      <trkpt lat="46.829298986122012" lon="11.301228012889624">
        <ele>1512.77</ele>
        <time>2018-09-17T11:35:49Z</time>
      </trkpt>
      <trkpt lat="46.829268978908658" lon="11.301079988479614">
        <ele>1514.6900000000001</ele>
        <time>2018-09-17T11:35:50Z</time>
      </trkpt>
      <trkpt lat="46.829281970858574" lon="11.300929030403495">
        <ele>1516.1400000000001</ele>
        <time>2018-09-17T11:35:51Z</time>
      </trkpt>
      <trkpt lat="46.829297980293632" lon="11.30076801404357">
        <ele>1517.5799999999999</ele>
        <time>2018-09-17T11:35:52Z</time>
      </trkpt>
      <trkpt lat="46.82931600138545" lon="11.30059601739049">
        <ele>1519.02</ele>
        <time>2018-09-17T11:35:53Z</time>
      </trkpt>
      <trkpt lat="46.829311978071928" lon="11.300413040444255">
        <ele>1520.46</ele>
        <time>2018-09-17T11:35:54Z</time>
      </trkpt>
      <trkpt lat="46.829239977523685" lon="11.300285970792174">
        <ele>1521.4200000000001</ele>
        <time>2018-09-17T11:35:55Z</time>
      </trkpt>
      <trkpt lat="46.829164959490299" lon="11.300153033807874">
        <ele>1522.3900000000001</ele>
        <time>2018-09-17T11:35:56Z</time>
      </trkpt>
      <trkpt lat="46.829087007790804" lon="11.300014983862638">
        <ele>1523.8299999999999</ele>
        <time>2018-09-17T11:35:57Z</time>
      </trkpt>
      <trkpt lat="46.82903503999114" lon="11.299858996644616">
        <ele>1525.27</ele>
        <time>2018-09-17T11:35:58Z</time>
      </trkpt>
      <trkpt lat="46.829009978100657" lon="11.299718013033271">
        <ele>1526.71</ele>
        <time>2018-09-17T11:35:59Z</time>
      </trkpt>
      <trkpt lat="46.829022970050573" lon="11.29952103830874">
        <ele>1528.6300000000001</ele>
        <time>2018-09-17T11:36:00Z</time>
      </trkpt>
      <trkpt lat="46.829046020284295" lon="11.299369996413589">
        <ele>1529.5899999999999</ele>
        <time>2018-09-17T11:36:01Z</time>
      </trkpt>
      <trkpt lat="46.829125983640552" lon="11.299233958125114">
        <ele>1531.04</ele>
        <time>2018-09-17T11:36:02Z</time>
      </trkpt>
      <trkpt lat="46.82920997031033" lon="11.299091968685389">
        <ele>1532</ele>
        <time>2018-09-17T11:36:03Z</time>
      </trkpt>
      <trkpt lat="46.829303009435534" lon="11.298961965367198">
        <ele>1532.96</ele>
        <time>2018-09-17T11:36:04Z</time>
      </trkpt>
      <trkpt lat="46.82940099388361" lon="11.298844031989574">
        <ele>1533.9200000000001</ele>
        <time>2018-09-17T11:36:05Z</time>
      </trkpt>
      <trkpt lat="46.829481963068247" lon="11.298720985651016">
        <ele>1533.9200000000001</ele>
        <time>2018-09-17T11:36:06Z</time>
      </trkpt>
      <trkpt lat="46.829533008858562" lon="11.298595005646348">
        <ele>1534.4000000000001</ele>
        <time>2018-09-17T11:36:07Z</time>
      </trkpt>
      <trkpt lat="46.829581037163734" lon="11.298479000106454">
        <ele>1534.4000000000001</ele>
        <time>2018-09-17T11:36:08Z</time>
      </trkpt>
      <trkpt lat="46.829624036327004" lon="11.298371963202953">
        <ele>1534.4000000000001</ele>
        <time>2018-09-17T11:36:09Z</time>
      </trkpt>
      <trkpt lat="46.8296829611063" lon="11.298289988189936">
        <ele>1534.8800000000001</ele>
        <time>2018-09-17T11:36:10Z</time>
      </trkpt>
      <trkpt lat="46.829771976917982" lon="11.298268027603626">
        <ele>1534.8800000000001</ele>
        <time>2018-09-17T11:36:11Z</time>
      </trkpt>
      <trkpt lat="46.829828973859549" lon="11.298313038423657">
        <ele>1535.3599999999999</ele>
        <time>2018-09-17T11:36:12Z</time>
      </trkpt>
      <trkpt lat="46.829868033528328" lon="11.298452010378242">
        <ele>1535.8399999999999</ele>
        <time>2018-09-17T11:36:13Z</time>
      </trkpt>
      <trkpt lat="46.829834003001451" lon="11.298566004261374">
        <ele>1535.8399999999999</ele>
        <time>2018-09-17T11:36:14Z</time>
      </trkpt>
      <trkpt lat="46.829797038808465" lon="11.298690978437662">
        <ele>1535.8399999999999</ele>
        <time>2018-09-17T11:36:15Z</time>
      </trkpt>
      <trkpt lat="46.829757979139686" lon="11.298842020332813">
        <ele>1536.3199999999999</ele>
        <time>2018-09-17T11:36:16Z</time>
      </trkpt>
      <trkpt lat="46.829740041866899" lon="11.299014016985893">
        <ele>1536.3199999999999</ele>
        <time>2018-09-17T11:36:17Z</time>
      </trkpt>
      <trkpt lat="46.829720009118319" lon="11.29920001141727">
        <ele>1536.3199999999999</ele>
        <time>2018-09-17T11:36:18Z</time>
      </trkpt>
      <trkpt lat="46.829750016331673" lon="11.299392962828279">
        <ele>1536.8</ele>
        <time>2018-09-17T11:36:19Z</time>
      </trkpt>
      <trkpt lat="46.829786980524659" lon="11.299583986401558">
        <ele>1537.29</ele>
        <time>2018-09-17T11:36:20Z</time>
      </trkpt>
      <trkpt lat="46.829826962202787" lon="11.299784984439611">
        <ele>1538.25</ele>
        <time>2018-09-17T11:36:21Z</time>
      </trkpt>
      <trkpt lat="46.829929975792766" lon="11.299915993586183">
        <ele>1539.21</ele>
        <time>2018-09-17T11:36:22Z</time>
      </trkpt>
      <trkpt lat="46.830031983554363" lon="11.300048008561134">
        <ele>1539.6900000000001</ele>
        <time>2018-09-17T11:36:23Z</time>
      </trkpt>
      <trkpt lat="46.830133991315961" lon="11.300213970243931">
        <ele>1540.6500000000001</ele>
        <time>2018-09-17T11:36:24Z</time>
      </trkpt>
      <trkpt lat="46.830170033499599" lon="11.30040499381721">
        <ele>1541.6099999999999</ele>
        <time>2018-09-17T11:36:25Z</time>
      </trkpt>
      <trkpt lat="46.830168021842837" lon="11.300615966320038">
        <ele>1542.5699999999999</ele>
        <time>2018-09-17T11:36:26Z</time>
      </trkpt>
      <trkpt lat="46.830128962174058" lon="11.300809001550078">
        <ele>1543.53</ele>
        <time>2018-09-17T11:36:27Z</time>
      </trkpt>
      <trkpt lat="46.830087974667549" lon="11.301004970446229">
        <ele>1544.5</ele>
        <time>2018-09-17T11:36:28Z</time>
      </trkpt>
      <trkpt lat="46.830031983554363" lon="11.301490031182766">
        <ele>1547.3800000000001</ele>
        <time>2018-09-17T11:36:31Z</time>
      </trkpt>
      <trkpt lat="46.830028966069221" lon="11.301606958732009">
        <ele>1548.3399999999999</ele>
        <time>2018-09-17T11:36:32Z</time>
      </trkpt>
      <trkpt lat="46.830000970512629" lon="11.302060000598431">
        <ele>1552.6700000000001</ele>
        <time>2018-09-17T11:36:37Z</time>
      </trkpt>
      <trkpt lat="46.829966017976403" lon="11.302241971716285">
        <ele>1554.5899999999999</ele>
        <time>2018-09-17T11:36:39Z</time>
      </trkpt>
      <trkpt lat="46.829946991056204" lon="11.302338028326631">
        <ele>1555.0699999999999</ele>
        <time>2018-09-17T11:36:40Z</time>
      </trkpt>
      <trkpt lat="46.829926958307624" lon="11.30244598723948">
        <ele>1556.03</ele>
        <time>2018-09-17T11:36:41Z</time>
      </trkpt>
      <trkpt lat="46.829911032691598" lon="11.302528968080878">
        <ele>1556.51</ele>
        <time>2018-09-17T11:36:42Z</time>
      </trkpt>
      <trkpt lat="46.829935004934669" lon="11.302680009976029">
        <ele>1556.99</ele>
        <time>2018-09-17T11:36:43Z</time>
      </trkpt>
      <trkpt lat="46.829954031854868" lon="11.302800038829446">
        <ele>1557.47</ele>
        <time>2018-09-17T11:36:44Z</time>
      </trkpt>
      <trkpt lat="46.829972974956036" lon="11.302921995520592">
        <ele>1557.47</ele>
        <time>2018-09-17T11:36:45Z</time>
      </trkpt>
      <trkpt lat="46.829910026863217" lon="11.303042024374008">
        <ele>1557.95</ele>
        <time>2018-09-17T11:36:46Z</time>
      </trkpt>
      <trkpt lat="46.829842971637845" lon="11.303150989115238">
        <ele>1558.9200000000001</ele>
        <time>2018-09-17T11:36:47Z</time>
      </trkpt>
      <trkpt lat="46.829764014109969" lon="11.303278980776668">
        <ele>1559.8800000000001</ele>
        <time>2018-09-17T11:36:48Z</time>
      </trkpt>
      <trkpt lat="46.829681033268571" lon="11.303414013236761">
        <ele>1560.8399999999999</ele>
        <time>2018-09-17T11:36:49Z</time>
      </trkpt>
      <trkpt lat="46.829620013013482" lon="11.303567988798022">
        <ele>1562.28</ele>
        <time>2018-09-17T11:36:50Z</time>
      </trkpt>
      <trkpt lat="46.829596040770411" lon="11.303710984066129">
        <ele>1563.24</ele>
        <time>2018-09-17T11:36:51Z</time>
      </trkpt>
      <trkpt lat="46.829610038548708" lon="11.303866971284151">
        <ele>1564.2</ele>
        <time>2018-09-17T11:36:52Z</time>
      </trkpt>
      <trkpt lat="46.829639039933681" lon="11.304032010957599">
        <ele>1564.6800000000001</ele>
        <time>2018-09-17T11:36:53Z</time>
      </trkpt>
      <trkpt lat="46.829671980813146" lon="11.304214987903833">
        <ele>1565.6400000000001</ele>
        <time>2018-09-17T11:36:54Z</time>
      </trkpt>
      <trkpt lat="46.829911032691598" lon="11.305555002763867">
        <ele>1569.01</ele>
        <time>2018-09-17T11:37:00Z</time>
      </trkpt>
      <trkpt lat="46.830042963847518" lon="11.306283976882696">
        <ele>1569.49</ele>
        <time>2018-09-17T11:37:03Z</time>
      </trkpt>
      <trkpt lat="46.830060984939337" lon="11.306698964908719">
        <ele>1568.53</ele>
        <time>2018-09-17T11:37:05Z</time>
      </trkpt>
      <trkpt lat="46.830051010474563" lon="11.306862998753786">
        <ele>1568.05</ele>
        <time>2018-09-17T11:37:06Z</time>
      </trkpt>
      <trkpt lat="46.830007005482912" lon="11.307143960148096">
        <ele>1567.5699999999999</ele>
        <time>2018-09-17T11:37:08Z</time>
      </trkpt>
      <trkpt lat="46.830019997432828" lon="11.307270023971796">
        <ele>1567.5699999999999</ele>
        <time>2018-09-17T11:37:09Z</time>
      </trkpt>
      <trkpt lat="46.830069031566381" lon="11.307402038946748">
        <ele>1567.5699999999999</ele>
        <time>2018-09-17T11:37:10Z</time>
      </trkpt>
      <trkpt lat="46.830115970224142" lon="11.307531036436558">
        <ele>1567.0899999999999</ele>
        <time>2018-09-17T11:37:11Z</time>
      </trkpt>
      <trkpt lat="46.830142037943006" lon="11.307650981470942">
        <ele>1566.6099999999999</ele>
        <time>2018-09-17T11:37:12Z</time>
      </trkpt>
      <trkpt lat="46.830128040164709" lon="11.307763969525695">
        <ele>1566.6099999999999</ele>
        <time>2018-09-17T11:37:13Z</time>
      </trkpt>
      <trkpt lat="46.830081017687917" lon="11.307873018085957">
        <ele>1567.0899999999999</ele>
        <time>2018-09-17T11:37:14Z</time>
      </trkpt>
      <trkpt lat="46.83002402074635" lon="11.30798801779747">
        <ele>1567.5699999999999</ele>
        <time>2018-09-17T11:37:15Z</time>
      </trkpt>
      <trkpt lat="46.82993802241981" lon="11.308102011680603">
        <ele>1568.05</ele>
        <time>2018-09-17T11:37:16Z</time>
      </trkpt>
      <trkpt lat="46.829838026314974" lon="11.308202007785439">
        <ele>1568.53</ele>
        <time>2018-09-17T11:37:17Z</time>
      </trkpt>
      <trkpt lat="46.829705005511642" lon="11.308236038312316">
        <ele>1569.01</ele>
        <time>2018-09-17T11:37:18Z</time>
      </trkpt>
      <trkpt lat="46.829575002193451" lon="11.308257998898625">
        <ele>1569.97</ele>
        <time>2018-09-17T11:37:19Z</time>
      </trkpt>
      <trkpt lat="46.829349026083946" lon="11.308296974748373">
        <ele>1571.4100000000001</ele>
        <time>2018-09-17T11:37:21Z</time>
      </trkpt>
      <trkpt lat="46.829262021929026" lon="11.308360006660223">
        <ele>1572.3699999999999</ele>
        <time>2018-09-17T11:37:22Z</time>
      </trkpt>
      <trkpt lat="46.829172000288963" lon="11.308452961966395">
        <ele>1573.3299999999999</ele>
        <time>2018-09-17T11:37:23Z</time>
      </trkpt>
      <trkpt lat="46.82912296615541" lon="11.308583971112967">
        <ele>1574.3</ele>
        <time>2018-09-17T11:37:24Z</time>
      </trkpt>
      <trkpt lat="46.829093964770436" lon="11.308759991079569">
        <ele>1575.26</ele>
        <time>2018-09-17T11:37:25Z</time>
      </trkpt>
      <trkpt lat="46.829067980870605" lon="11.308944979682565">
        <ele>1576.22</ele>
        <time>2018-09-17T11:37:26Z</time>
      </trkpt>
      <trkpt lat="46.829039985314012" lon="11.309141032397747">
        <ele>1577.1800000000001</ele>
        <time>2018-09-17T11:37:27Z</time>
      </trkpt>
      <trkpt lat="46.829011989757419" lon="11.309338007122278">
        <ele>1578.1400000000001</ele>
        <time>2018-09-17T11:37:28Z</time>
      </trkpt>
      <trkpt lat="46.828947030007839" lon="11.309515032917261">
        <ele>1579.5799999999999</ele>
        <time>2018-09-17T11:37:29Z</time>
      </trkpt>
      <trkpt lat="46.828747959807515" lon="11.31003001704812">
        <ele>1582.47</ele>
        <time>2018-09-17T11:37:32Z</time>
      </trkpt>
      <trkpt lat="46.82873697951436" lon="11.310161026194692">
        <ele>1583.4300000000001</ele>
        <time>2018-09-17T11:37:33Z</time>
      </trkpt>
      <trkpt lat="46.828763969242573" lon="11.310312990099192">
        <ele>1584.3900000000001</ele>
        <time>2018-09-17T11:37:34Z</time>
      </trkpt>
      <trkpt lat="46.828817026689649" lon="11.310445005074143">
        <ele>1584.8699999999999</ele>
        <time>2018-09-17T11:37:35Z</time>
      </trkpt>
      <trkpt lat="46.828877041116357" lon="11.310591017827392">
        <ele>1585.3499999999999</ele>
        <time>2018-09-17T11:37:36Z</time>
      </trkpt>
      <trkpt lat="46.828939989209175" lon="11.310745999217033">
        <ele>1586.3099999999999</ele>
        <time>2018-09-17T11:37:37Z</time>
      </trkpt>
      <trkpt lat="46.828981982544065" lon="11.310916990041733">
        <ele>1586.79</ele>
        <time>2018-09-17T11:37:38Z</time>
      </trkpt>
      <trkpt lat="46.828981982544065" lon="11.311108013615012">
        <ele>1587.75</ele>
        <time>2018-09-17T11:37:39Z</time>
      </trkpt>
      <trkpt lat="46.828967984765768" lon="11.311506992205977">
        <ele>1588.72</ele>
        <time>2018-09-17T11:37:41Z</time>
      </trkpt>
      <trkpt lat="46.828995980322361" lon="11.311675971373916">
        <ele>1589.2</ele>
        <time>2018-09-17T11:37:42Z</time>
      </trkpt>
      <trkpt lat="46.829025987535715" lon="11.31185500882566">
        <ele>1589.6800000000001</ele>
        <time>2018-09-17T11:37:43Z</time>
      </trkpt>
      <trkpt lat="46.829048031941056" lon="11.312041003257036">
        <ele>1589.6800000000001</ele>
        <time>2018-09-17T11:37:44Z</time>
      </trkpt>
      <trkpt lat="46.829017018899322" lon="11.312244012951851">
        <ele>1590.6400000000001</ele>
        <time>2018-09-17T11:37:45Z</time>
      </trkpt>
      <trkpt lat="46.828983994200826" lon="11.31245800293982">
        <ele>1591.5999999999999</ele>
        <time>2018-09-17T11:37:46Z</time>
      </trkpt>
      <trkpt lat="46.828944012522697" lon="11.312642991542816">
        <ele>1593.04</ele>
        <time>2018-09-17T11:37:47Z</time>
      </trkpt>
      <trkpt lat="46.828896990045905" lon="11.312794033437967">
        <ele>1594.96</ele>
        <time>2018-09-17T11:37:48Z</time>
      </trkpt>
      <trkpt lat="46.828824989497662" lon="11.312939040362835">
        <ele>1596.4100000000001</ele>
        <time>2018-09-17T11:37:49Z</time>
      </trkpt>
      <trkpt lat="46.82873304001987" lon="11.313007017597556">
        <ele>1597.8499999999999</ele>
        <time>2018-09-17T11:37:50Z</time>
      </trkpt>
      <trkpt lat="46.828631032258272" lon="11.313082035630941">
        <ele>1599.29</ele>
        <time>2018-09-17T11:37:51Z</time>
      </trkpt>
      <trkpt lat="46.82852198369801" lon="11.313161998987198">
        <ele>1600.25</ele>
        <time>2018-09-17T11:37:52Z</time>
      </trkpt>
      <trkpt lat="46.828441014513373" lon="11.31323198787868">
        <ele>1600.73</ele>
        <time>2018-09-17T11:37:53Z</time>
      </trkpt>
      <trkpt lat="46.828358033671975" lon="11.313368026167154">
        <ele>1602.1700000000001</ele>
        <time>2018-09-17T11:37:54Z</time>
      </trkpt>
      <trkpt lat="46.828276980668306" lon="11.313500041142106">
        <ele>1603.1400000000001</ele>
        <time>2018-09-17T11:37:55Z</time>
      </trkpt>
      <trkpt lat="46.828207997605205" lon="11.313613029196858">
        <ele>1604.0999999999999</ele>
        <time>2018-09-17T11:37:56Z</time>
      </trkpt>
      <trkpt lat="46.828149994835258" lon="11.313707996159792">
        <ele>1604.0999999999999</ele>
        <time>2018-09-17T11:37:57Z</time>
      </trkpt>
      <trkpt lat="46.828094003722072" lon="11.313800029456615">
        <ele>1604.5799999999999</ele>
        <time>2018-09-17T11:37:58Z</time>
      </trkpt>
      <trkpt lat="46.828039018437266" lon="11.313889967277646">
        <ele>1604.5799999999999</ele>
        <time>2018-09-17T11:37:59Z</time>
      </trkpt>
      <trkpt lat="46.827980009838939" lon="11.313987029716372">
        <ele>1605.0599999999999</ele>
        <time>2018-09-17T11:38:00Z</time>
      </trkpt>
      <trkpt lat="46.827972969040275" lon="11.314042015001178">
        <ele>1605.54</ele>
        <time>2018-09-17T11:38:01Z</time>
      </trkpt>
      <trkpt lat="46.827960982918739" lon="11.314136981964111">
        <ele>1606.02</ele>
        <time>2018-09-17T11:38:02Z</time>
      </trkpt>
      <trkpt lat="46.827947990968823" lon="11.31424100138247">
        <ele>1606.02</ele>
        <time>2018-09-17T11:38:03Z</time>
      </trkpt>
      <trkpt lat="46.827933993190527" lon="11.3143499661237">
        <ele>1606.02</ele>
        <time>2018-09-17T11:38:04Z</time>
      </trkpt>
      <trkpt lat="46.827921001240611" lon="11.314453985542059">
        <ele>1606.02</ele>
        <time>2018-09-17T11:38:05Z</time>
      </trkpt>
      <trkpt lat="46.827936004847288" lon="11.314536966383457">
        <ele>1606.02</ele>
        <time>2018-09-17T11:38:06Z</time>
      </trkpt>
      <trkpt lat="46.827969029545784" lon="11.314592035487294">
        <ele>1606.02</ele>
        <time>2018-09-17T11:38:07Z</time>
      </trkpt>
      <trkpt lat="46.828033989295363" lon="11.314608966931701">
        <ele>1606.5</ele>
        <time>2018-09-17T11:38:08Z</time>
      </trkpt>
      <trkpt lat="46.828077994287014" lon="11.31454098969698">
        <ele>1606.5</ele>
        <time>2018-09-17T11:38:09Z</time>
      </trkpt>
      <trkpt lat="46.828084029257298" lon="11.314488016068935">
        <ele>1606.5</ele>
        <time>2018-09-17T11:38:10Z</time>
      </trkpt>
      <trkpt lat="46.828076988458633" lon="11.314395982772112">
        <ele>1606.5</ele>
        <time>2018-09-17T11:38:11Z</time>
      </trkpt>
      <trkpt lat="46.828067013993859" lon="11.314259022474289">
        <ele>1606.5</ele>
        <time>2018-09-17T11:38:12Z</time>
      </trkpt>
      <trkpt lat="46.828094003722072" lon="11.314102029427886">
        <ele>1606.5</ele>
        <time>2018-09-17T11:38:13Z</time>
      </trkpt>
      <trkpt lat="46.828156029805541" lon="11.313979988917708">
        <ele>1606.5</ele>
        <time>2018-09-17T11:38:14Z</time>
      </trkpt>
      <trkpt lat="46.828230964019895" lon="11.313901031389832">
        <ele>1606.5</ele>
        <time>2018-09-17T11:38:15Z</time>
      </trkpt>
      <trkpt lat="46.828325008973479" lon="11.313802963122725">
        <ele>1606.98</ele>
        <time>2018-09-17T11:38:16Z</time>
      </trkpt>
      <trkpt lat="46.828429028391838" lon="11.313693998381495">
        <ele>1607.46</ele>
        <time>2018-09-17T11:38:17Z</time>
      </trkpt>
      <trkpt lat="46.828534975647926" lon="11.313583021983504">
        <ele>1608.4200000000001</ele>
        <time>2018-09-17T11:38:18Z</time>
      </trkpt>
      <trkpt lat="46.828658021986485" lon="11.313505992293358">
        <ele>1609.3800000000001</ele>
        <time>2018-09-17T11:38:19Z</time>
      </trkpt>
      <trkpt lat="46.828790036961436" lon="11.313438015058637">
        <ele>1610.3499999999999</ele>
        <time>2018-09-17T11:38:20Z</time>
      </trkpt>
      <trkpt lat="46.828923979774117" lon="11.313368026167154">
        <ele>1610.8299999999999</ele>
        <time>2018-09-17T11:38:21Z</time>
      </trkpt>
      <trkpt lat="46.829054988920689" lon="11.313299965113401">
        <ele>1611.79</ele>
        <time>2018-09-17T11:38:22Z</time>
      </trkpt>
      <trkpt lat="46.829172000288963" lon="11.313201980665326">
        <ele>1612.75</ele>
        <time>2018-09-17T11:38:23Z</time>
      </trkpt>
      <trkpt lat="46.82925196364522" lon="11.313065020367503">
        <ele>1613.71</ele>
        <time>2018-09-17T11:38:24Z</time>
      </trkpt>
      <trkpt lat="46.829300997778773" lon="11.312921019271016">
        <ele>1614.6700000000001</ele>
        <time>2018-09-17T11:38:25Z</time>
      </trkpt>
      <trkpt lat="46.82935799472034" lon="11.312755979597569">
        <ele>1615.6300000000001</ele>
        <time>2018-09-17T11:38:26Z</time>
      </trkpt>
      <trkpt lat="46.829441981390119" lon="11.312605021521449">
        <ele>1616.1099999999999</ele>
        <time>2018-09-17T11:38:27Z</time>
      </trkpt>
      <trkpt lat="46.829524040222168" lon="11.31245699711144">
        <ele>1616.5899999999999</ele>
        <time>2018-09-17T11:38:28Z</time>
      </trkpt>
      <trkpt lat="46.829606015235186" lon="11.312310984358191">
        <ele>1617.5599999999999</ele>
        <time>2018-09-17T11:38:29Z</time>
      </trkpt>
      <trkpt lat="46.829760996624827" lon="11.312033962458372">
        <ele>1619.48</ele>
        <time>2018-09-17T11:38:31Z</time>
      </trkpt>
      <trkpt lat="46.829760996624827" lon="11.311849979683757">
        <ele>1620.9200000000001</ele>
        <time>2018-09-17T11:38:32Z</time>
      </trkpt>
      <trkpt lat="46.829760996624827" lon="11.311674965545535">
        <ele>1622.3599999999999</ele>
        <time>2018-09-17T11:38:33Z</time>
      </trkpt>
      <trkpt lat="46.829748004674911" lon="11.311514033004642">
        <ele>1623.3199999999999</ele>
        <time>2018-09-17T11:38:34Z</time>
      </trkpt>
      <trkpt lat="46.829710034653544" lon="11.311373971402645">
        <ele>1624.77</ele>
        <time>2018-09-17T11:38:35Z</time>
      </trkpt>
      <trkpt lat="46.829677009955049" lon="11.311247991397977">
        <ele>1625.73</ele>
        <time>2018-09-17T11:38:36Z</time>
      </trkpt>
      <trkpt lat="46.829698970541358" lon="11.311095021665096">
        <ele>1626.6900000000001</ele>
        <time>2018-09-17T11:38:37Z</time>
      </trkpt>
      <trkpt lat="46.829735012724996" lon="11.310958983376622">
        <ele>1628.1300000000001</ele>
        <time>2018-09-17T11:38:38Z</time>
      </trkpt>
      <trkpt lat="46.829817993566394" lon="11.310885976999998">
        <ele>1629.0899999999999</ele>
        <time>2018-09-17T11:38:39Z</time>
      </trkpt>
      <trkpt lat="46.829914972186089" lon="11.310856975615025">
        <ele>1630.05</ele>
        <time>2018-09-17T11:38:40Z</time>
      </trkpt>
      <trkpt lat="46.830028966069221" lon="11.31082302890718">
        <ele>1631.01</ele>
        <time>2018-09-17T11:38:41Z</time>
      </trkpt>
      <trkpt lat="46.830138014629483" lon="11.310790004208684">
        <ele>1631.98</ele>
        <time>2018-09-17T11:38:42Z</time>
      </trkpt>
      <trkpt lat="46.830225018784404" lon="11.31074097007513">
        <ele>1632.9400000000001</ele>
        <time>2018-09-17T11:38:43Z</time>
      </trkpt>
      <trkpt lat="46.83028100989759" lon="11.310614990070462">
        <ele>1633.9000000000001</ele>
        <time>2018-09-17T11:38:44Z</time>
      </trkpt>
      <trkpt lat="46.830315040424466" lon="11.310451962053776">
        <ele>1635.3399999999999</ele>
        <time>2018-09-17T11:38:45Z</time>
      </trkpt>
      <trkpt lat="46.830352004617453" lon="11.310278037562966">
        <ele>1636.78</ele>
        <time>2018-09-17T11:38:46Z</time>
      </trkpt>
      <trkpt lat="46.830413024872541" lon="11.310110986232758">
        <ele>1638.22</ele>
        <time>2018-09-17T11:38:47Z</time>
      </trkpt>
      <trkpt lat="46.830489970743656" lon="11.309931026771665">
        <ele>1639.1900000000001</ele>
        <time>2018-09-17T11:38:48Z</time>
      </trkpt>
      <trkpt lat="46.830591978505254" lon="11.309843016788363">
        <ele>1640.1500000000001</ele>
        <time>2018-09-17T11:38:49Z</time>
      </trkpt>
      <trkpt lat="46.830721981823444" lon="11.309765987098217">
        <ele>1641.5899999999999</ele>
        <time>2018-09-17T11:38:50Z</time>
      </trkpt>
      <trkpt lat="46.83086103759706" lon="11.309729022905231">
        <ele>1643.03</ele>
        <time>2018-09-17T11:38:51Z</time>
      </trkpt>
      <trkpt lat="46.831004032865167" lon="11.309690969064832">
        <ele>1643.99</ele>
        <time>2018-09-17T11:38:52Z</time>
      </trkpt>
      <trkpt lat="46.831134036183357" lon="11.309712007641792">
        <ele>1644.95</ele>
        <time>2018-09-17T11:38:53Z</time>
      </trkpt>
      <trkpt lat="46.831243000924587" lon="11.309775961562991">
        <ele>1645.9100000000001</ele>
        <time>2018-09-17T11:38:54Z</time>
      </trkpt>
      <trkpt lat="46.831350959837437" lon="11.309838993474841">
        <ele>1646.4000000000001</ele>
        <time>2018-09-17T11:38:55Z</time>
      </trkpt>
      <trkpt lat="46.831434024497867" lon="11.309888027608395">
        <ele>1647.8399999999999</ele>
        <time>2018-09-17T11:38:56Z</time>
      </trkpt>
      <trkpt lat="46.831554975360632" lon="11.309839999303222">
        <ele>1649.28</ele>
        <time>2018-09-17T11:38:57Z</time>
      </trkpt>
      <trkpt lat="46.83163502253592" lon="11.309807980433106">
        <ele>1650.24</ele>
        <time>2018-09-17T11:38:58Z</time>
      </trkpt>
      <trkpt lat="46.83165798895061" lon="11.309676971286535">
        <ele>1651.6800000000001</ele>
        <time>2018-09-17T11:38:59Z</time>
      </trkpt>
      <trkpt lat="46.831667963415384" lon="11.309525007382035">
        <ele>1652.6400000000001</ele>
        <time>2018-09-17T11:39:00Z</time>
      </trkpt>
      <trkpt lat="46.831679027527571" lon="11.309358961880207">
        <ele>1654.0899999999999</ele>
        <time>2018-09-17T11:39:01Z</time>
      </trkpt>
      <trkpt lat="46.831692019477487" lon="11.309180008247495">
        <ele>1654.5699999999999</ele>
        <time>2018-09-17T11:39:02Z</time>
      </trkpt>
      <trkpt lat="46.831784974783659" lon="11.309017986059189">
        <ele>1655.53</ele>
        <time>2018-09-17T11:39:03Z</time>
      </trkpt>
      <trkpt lat="46.831879019737244" lon="11.308852024376392">
        <ele>1656.49</ele>
        <time>2018-09-17T11:39:04Z</time>
      </trkpt>
      <trkpt lat="46.831980021670461" lon="11.30867600440979">
        <ele>1657.45</ele>
        <time>2018-09-17T11:39:05Z</time>
      </trkpt>
      <trkpt lat="46.83206400834024" lon="11.308493027463555">
        <ele>1658.4100000000001</ele>
        <time>2018-09-17T11:39:06Z</time>
      </trkpt>
      <trkpt lat="46.832104995846748" lon="11.308290017768741">
        <ele>1658.8900000000001</ele>
        <time>2018-09-17T11:39:07Z</time>
      </trkpt>
      <trkpt lat="46.832116981968284" lon="11.308075021952391">
        <ele>1659.8499999999999</ele>
        <time>2018-09-17T11:39:08Z</time>
      </trkpt>
      <trkpt lat="46.83213097974658" lon="11.30783898755908">
        <ele>1660.8099999999999</ele>
        <time>2018-09-17T11:39:09Z</time>
      </trkpt>
      <trkpt lat="46.83215000666678" lon="11.307592978700995">
        <ele>1662.26</ele>
        <time>2018-09-17T11:39:10Z</time>
      </trkpt>
      <trkpt lat="46.832318985834718" lon="11.306637022644281">
        <ele>1668.02</ele>
        <time>2018-09-17T11:39:14Z</time>
      </trkpt>
      <trkpt lat="46.83232200331986" lon="11.306428983807564">
        <ele>1669.47</ele>
        <time>2018-09-17T11:39:15Z</time>
      </trkpt>
      <trkpt lat="46.832298031076789" lon="11.306242989376187">
        <ele>1670.4300000000001</ele>
        <time>2018-09-17T11:39:16Z</time>
      </trkpt>
      <trkpt lat="46.832277998328209" lon="11.306079961359501">
        <ele>1671.3900000000001</ele>
        <time>2018-09-17T11:39:17Z</time>
      </trkpt>
      <trkpt lat="46.832277998328209" lon="11.305934032425284">
        <ele>1672.3499999999999</ele>
        <time>2018-09-17T11:39:18Z</time>
      </trkpt>
      <trkpt lat="46.832288978621364" lon="11.305798999965191">
        <ele>1672.8299999999999</ele>
        <time>2018-09-17T11:39:19Z</time>
      </trkpt>
      <trkpt lat="46.832331977784634" lon="11.3056880235672">
        <ele>1673.79</ele>
        <time>2018-09-17T11:39:20Z</time>
      </trkpt>
      <trkpt lat="46.832384029403329" lon="11.305609988048673">
        <ele>1673.79</ele>
        <time>2018-09-17T11:39:21Z</time>
      </trkpt>
      <trkpt lat="46.832455024123192" lon="11.305543016642332">
        <ele>1674.27</ele>
        <time>2018-09-17T11:39:22Z</time>
      </trkpt>
      <trkpt lat="46.8325599655509" lon="11.30555902607739">
        <ele>1674.75</ele>
        <time>2018-09-17T11:39:23Z</time>
      </trkpt>
      <trkpt lat="46.832669014111161" lon="11.305596996098757">
        <ele>1675.23</ele>
        <time>2018-09-17T11:39:24Z</time>
      </trkpt>
      <trkpt lat="46.832794994115829" lon="11.305642006918788">
        <ele>1675.72</ele>
        <time>2018-09-17T11:39:25Z</time>
      </trkpt>
      <trkpt lat="46.832928014919162" lon="11.305639995262027">
        <ele>1676.6800000000001</ele>
        <time>2018-09-17T11:39:26Z</time>
      </trkpt>
      <trkpt lat="46.833056006580591" lon="11.30560495890677">
        <ele>1677.6400000000001</ele>
        <time>2018-09-17T11:39:27Z</time>
      </trkpt>
      <trkpt lat="46.833168994635344" lon="11.305575035512447">
        <ele>1678.5999999999999</ele>
        <time>2018-09-17T11:39:28Z</time>
      </trkpt>
      <trkpt lat="46.833263961598277" lon="11.305548967793584">
        <ele>1680.04</ele>
        <time>2018-09-17T11:39:29Z</time>
      </trkpt>
      <trkpt lat="46.83333202265203" lon="11.305488031357527">
        <ele>1681.48</ele>
        <time>2018-09-17T11:39:30Z</time>
      </trkpt>
      <trkpt lat="46.833360018208623" lon="11.305360039696097">
        <ele>1683.4100000000001</ele>
        <time>2018-09-17T11:39:31Z</time>
      </trkpt>
      <trkpt lat="46.833393964916468" lon="11.305206986144185">
        <ele>1684.8499999999999</ele>
        <time>2018-09-17T11:39:32Z</time>
      </trkpt>
      <trkpt lat="46.833431012928486" lon="11.305037001147866">
        <ele>1686.29</ele>
        <time>2018-09-17T11:39:33Z</time>
      </trkpt>
      <trkpt lat="46.833535032346845" lon="11.304748998954892">
        <ele>1688.21</ele>
        <time>2018-09-17T11:39:35Z</time>
      </trkpt>
      <trkpt lat="46.833605021238327" lon="11.304640034213662">
        <ele>1689.1700000000001</ele>
        <time>2018-09-17T11:39:36Z</time>
      </trkpt>
      <trkpt lat="46.83367601595819" lon="11.304512964561582">
        <ele>1690.6199999999999</ele>
        <time>2018-09-17T11:39:37Z</time>
      </trkpt>
      <trkpt lat="46.833715997636318" lon="11.30437801592052">
        <ele>1691.5799999999999</ele>
        <time>2018-09-17T11:39:38Z</time>
      </trkpt>
      <trkpt lat="46.833699988201261" lon="11.304198978468776">
        <ele>1692.0599999999999</ele>
        <time>2018-09-17T11:39:39Z</time>
      </trkpt>
      <trkpt lat="46.833664029836655" lon="11.304039973765612">
        <ele>1693.5</ele>
        <time>2018-09-17T11:39:40Z</time>
      </trkpt>
      <trkpt lat="46.833624970167875" lon="11.303867977112532">
        <ele>1694.46</ele>
        <time>2018-09-17T11:39:41Z</time>
      </trkpt>
      <trkpt lat="46.833614995703101" lon="11.303675025701523">
        <ele>1695.4200000000001</ele>
        <time>2018-09-17T11:39:42Z</time>
      </trkpt>
      <trkpt lat="46.833606027066708" lon="11.303486013785005">
        <ele>1696.8599999999999</ele>
        <time>2018-09-17T11:39:43Z</time>
      </trkpt>
      <trkpt lat="46.833568979054689" lon="11.303316028788686">
        <ele>1698.3099999999999</ele>
        <time>2018-09-17T11:39:44Z</time>
      </trkpt>
      <trkpt lat="46.833507958799601" lon="11.303179990500212">
        <ele>1699.75</ele>
        <time>2018-09-17T11:39:45Z</time>
      </trkpt>
      <trkpt lat="46.833450039848685" lon="11.303054010495543">
        <ele>1700.71</ele>
        <time>2018-09-17T11:39:46Z</time>
      </trkpt>
      <trkpt lat="46.833406034857035" lon="11.302957031875849">
        <ele>1702.1500000000001</ele>
        <time>2018-09-17T11:39:47Z</time>
      </trkpt>
      <trkpt lat="46.833392037078738" lon="11.302844965830445">
        <ele>1703.5899999999999</ele>
        <time>2018-09-17T11:39:48Z</time>
      </trkpt>
      <trkpt lat="46.833398994058371" lon="11.302739018574357">
        <ele>1704.55</ele>
        <time>2018-09-17T11:39:49Z</time>
      </trkpt>
      <trkpt lat="46.833411986008286" lon="11.302611026912928">
        <ele>1705.52</ele>
        <time>2018-09-17T11:39:50Z</time>
      </trkpt>
      <trkpt lat="46.83348398655653" lon="11.302575990557671">
        <ele>1706</ele>
        <time>2018-09-17T11:39:51Z</time>
      </trkpt>
      <trkpt lat="46.833542995154858" lon="11.302584037184715">
        <ele>1706.48</ele>
        <time>2018-09-17T11:39:52Z</time>
      </trkpt>
      <trkpt lat="46.833607032895088" lon="11.302625024691224">
        <ele>1707.4400000000001</ele>
        <time>2018-09-17T11:39:53Z</time>
      </trkpt>
      <trkpt lat="46.833623964339495" lon="11.302736001089215">
        <ele>1707.9200000000001</ele>
        <time>2018-09-17T11:39:54Z</time>
      </trkpt>
      <trkpt lat="46.833649026229978" lon="11.302887964993715">
        <ele>1708.8800000000001</ele>
        <time>2018-09-17T11:39:55Z</time>
      </trkpt>
      <trkpt lat="46.833731001242995" lon="11.303247967734933">
        <ele>1710.3199999999999</ele>
        <time>2018-09-17T11:39:57Z</time>
      </trkpt>
      <trkpt lat="46.834270041435957" lon="11.304743969812989">
        <ele>1718.49</ele>
        <time>2018-09-17T11:40:04Z</time>
      </trkpt>
      <trkpt lat="46.834390992298722" lon="11.305873012170196">
        <ele>1727.1500000000001</ele>
        <time>2018-09-17T11:40:09Z</time>
      </trkpt>
      <trkpt lat="46.834360985085368" lon="11.306089013814926">
        <ele>1729.0699999999999</ele>
        <time>2018-09-17T11:40:10Z</time>
      </trkpt>
      <trkpt lat="46.834326032549143" lon="11.306256987154484">
        <ele>1730.51</ele>
        <time>2018-09-17T11:40:11Z</time>
      </trkpt>
      <trkpt lat="46.834295019507408" lon="11.306406017392874">
        <ele>1732.4300000000001</ele>
        <time>2018-09-17T11:40:12Z</time>
      </trkpt>
      <trkpt lat="46.834266018122435" lon="11.306550018489361">
        <ele>1733.8800000000001</ele>
        <time>2018-09-17T11:40:13Z</time>
      </trkpt>
      <trkpt lat="46.834194017574191" lon="11.306707011535764">
        <ele>1735.8</ele>
        <time>2018-09-17T11:40:14Z</time>
      </trkpt>
      <trkpt lat="46.83410600759089" lon="11.3068070076406">
        <ele>1737.24</ele>
        <time>2018-09-17T11:40:15Z</time>
      </trkpt>
      <trkpt lat="46.833976004272699" lon="11.306835003197193">
        <ele>1738.6800000000001</ele>
        <time>2018-09-17T11:40:16Z</time>
      </trkpt>
      <trkpt lat="46.833865027874708" lon="11.30684900097549">
        <ele>1740.1199999999999</ele>
        <time>2018-09-17T11:40:17Z</time>
      </trkpt>
      <trkpt lat="46.833774000406265" lon="11.306859981268644">
        <ele>1742.05</ele>
        <time>2018-09-17T11:40:18Z</time>
      </trkpt>
      <trkpt lat="46.833704011514783" lon="11.306911027058959">
        <ele>1743.01</ele>
        <time>2018-09-17T11:40:19Z</time>
      </trkpt>
      <trkpt lat="46.833640979602933" lon="11.30700197070837">
        <ele>1743.97</ele>
        <time>2018-09-17T11:40:20Z</time>
      </trkpt>
      <trkpt lat="46.833626981824636" lon="11.307139014825225">
        <ele>1744.45</ele>
        <time>2018-09-17T11:40:21Z</time>
      </trkpt>
      <trkpt lat="46.833611978217959" lon="11.307283015921712">
        <ele>1744.9300000000001</ele>
        <time>2018-09-17T11:40:22Z</time>
      </trkpt>
      <trkpt lat="46.833617007359862" lon="11.307415030896664">
        <ele>1745.4100000000001</ele>
        <time>2018-09-17T11:40:23Z</time>
      </trkpt>
      <trkpt lat="46.83367601595819" lon="11.307560037821531">
        <ele>1745.8900000000001</ele>
        <time>2018-09-17T11:40:24Z</time>
      </trkpt>
      <trkpt lat="46.833742987364531" lon="11.307721976190805">
        <ele>1746.8499999999999</ele>
        <time>2018-09-17T11:40:25Z</time>
      </trkpt>
      <trkpt lat="46.833880031481385" lon="11.308021964505315">
        <ele>1748.78</ele>
        <time>2018-09-17T11:40:27Z</time>
      </trkpt>
      <trkpt lat="46.833896962925792" lon="11.308236038312316">
        <ele>1749.74</ele>
        <time>2018-09-17T11:40:28Z</time>
      </trkpt>
      <trkpt lat="46.833875002339482" lon="11.308401999995112">
        <ele>1750.7</ele>
        <time>2018-09-17T11:40:29Z</time>
      </trkpt>
      <trkpt lat="46.833830997347832" lon="11.308570979163051">
        <ele>1751.6600000000001</ele>
        <time>2018-09-17T11:40:30Z</time>
      </trkpt>
      <trkpt lat="46.83378498069942" lon="11.308745993301272">
        <ele>1753.0999999999999</ele>
        <time>2018-09-17T11:40:31Z</time>
      </trkpt>
      <trkpt lat="46.833737958222628" lon="11.308925030753016">
        <ele>1754.0599999999999</ele>
        <time>2018-09-17T11:40:32Z</time>
      </trkpt>
      <trkpt lat="46.833686996251345" lon="11.309128040447831">
        <ele>1755.5</ele>
        <time>2018-09-17T11:40:33Z</time>
      </trkpt>
      <trkpt lat="46.833686996251345" lon="11.30934395827353">
        <ele>1757.4300000000001</ele>
        <time>2018-09-17T11:40:34Z</time>
      </trkpt>
      <trkpt lat="46.833686996251345" lon="11.309563983231783">
        <ele>1758.3900000000001</ele>
        <time>2018-09-17T11:40:35Z</time>
      </trkpt>
      <trkpt lat="46.833710968494415" lon="11.309992969036102">
        <ele>1760.79</ele>
        <time>2018-09-17T11:40:37Z</time>
      </trkpt>
      <trkpt lat="46.833964018151164" lon="11.311524007469416">
        <ele>1773.77</ele>
        <time>2018-09-17T11:40:44Z</time>
      </trkpt>
      <trkpt lat="46.833951026201248" lon="11.311750989407301">
        <ele>1775.6900000000001</ele>
        <time>2018-09-17T11:40:45Z</time>
      </trkpt>
      <trkpt lat="46.833936022594571" lon="11.31196397356689">
        <ele>1777.1300000000001</ele>
        <time>2018-09-17T11:40:46Z</time>
      </trkpt>
      <trkpt lat="46.833921018987894" lon="11.312153991311789">
        <ele>1779.0599999999999</ele>
        <time>2018-09-17T11:40:47Z</time>
      </trkpt>
      <trkpt lat="46.833886988461018" lon="11.312320958822966">
        <ele>1780.5</ele>
        <time>2018-09-17T11:40:48Z</time>
      </trkpt>
      <trkpt lat="46.833838038146496" lon="11.312489015981555">
        <ele>1781.9400000000001</ele>
        <time>2018-09-17T11:40:49Z</time>
      </trkpt>
      <trkpt lat="46.833772994577885" lon="11.312570990994573">
        <ele>1782.9000000000001</ele>
        <time>2018-09-17T11:40:50Z</time>
      </trkpt>
      <trkpt lat="46.833627987653017" lon="11.312605021521449">
        <ele>1784.3399999999999</ele>
        <time>2018-09-17T11:40:51Z</time>
      </trkpt>
      <trkpt lat="46.833505025133491" lon="11.312634022906423">
        <ele>1785.3099999999999</ele>
        <time>2018-09-17T11:40:52Z</time>
      </trkpt>
      <trkpt lat="46.833254992961884" lon="11.31273896433413">
        <ele>1787.23</ele>
        <time>2018-09-17T11:40:54Z</time>
      </trkpt>
      <trkpt lat="46.833140999078751" lon="11.312841977924109">
        <ele>1787.71</ele>
        <time>2018-09-17T11:40:55Z</time>
      </trkpt>
      <trkpt lat="46.83305399492383" lon="11.312970975413918">
        <ele>1788.1900000000001</ele>
        <time>2018-09-17T11:40:56Z</time>
      </trkpt>
      <trkpt lat="46.832958022132516" lon="11.313150012865663">
        <ele>1788.6700000000001</ele>
        <time>2018-09-17T11:40:57Z</time>
      </trkpt>
      <trkpt lat="46.832921979948878" lon="11.313265012577176">
        <ele>1788.6700000000001</ele>
        <time>2018-09-17T11:40:58Z</time>
      </trkpt>
      <trkpt lat="46.832871017977595" lon="11.313428962603211">
        <ele>1789.1500000000001</ele>
        <time>2018-09-17T11:40:59Z</time>
      </trkpt>
      <trkpt lat="46.832791976630688" lon="11.313560977578163">
        <ele>1789.1500000000001</ele>
        <time>2018-09-17T11:41:00Z</time>
      </trkpt>
      <trkpt lat="46.832591984421015" lon="11.313792988657951">
        <ele>1789.6300000000001</ele>
        <time>2018-09-17T11:41:02Z</time>
      </trkpt>
      <trkpt lat="46.832499029114842" lon="11.313900025561452">
        <ele>1789.6300000000001</ele>
        <time>2018-09-17T11:41:03Z</time>
      </trkpt>
      <trkpt lat="46.832402972504497" lon="11.314036985859275">
        <ele>1790.1099999999999</ele>
        <time>2018-09-17T11:41:04Z</time>
      </trkpt>
      <trkpt lat="46.831966023892164" lon="11.314938962459564">
        <ele>1793.48</ele>
        <time>2018-09-17T11:41:09Z</time>
      </trkpt>
      <trkpt lat="46.831911038607359" lon="11.315116994082928">
        <ele>1794.9200000000001</ele>
        <time>2018-09-17T11:41:10Z</time>
      </trkpt>
      <trkpt lat="46.831824034452438" lon="11.315521001815796">
        <ele>1798.28</ele>
        <time>2018-09-17T11:41:13Z</time>
      </trkpt>
      <trkpt lat="46.831793021410704" lon="11.315671037882566">
        <ele>1801.1700000000001</ele>
        <time>2018-09-17T11:41:15Z</time>
      </trkpt>
      <trkpt lat="46.831779023632407" lon="11.315740020945668">
        <ele>1802.1300000000001</ele>
        <time>2018-09-17T11:41:16Z</time>
      </trkpt>
      <trkpt lat="46.831798972561955" lon="11.315800035372376">
        <ele>1803.0899999999999</ele>
        <time>2018-09-17T11:41:17Z</time>
      </trkpt>
      <trkpt lat="46.831837026402354" lon="11.315845968201756">
        <ele>1804.05</ele>
        <time>2018-09-17T11:41:18Z</time>
      </trkpt>
      <trkpt lat="46.83189301751554" lon="11.315817972645164">
        <ele>1805.49</ele>
        <time>2018-09-17T11:41:19Z</time>
      </trkpt>
      <trkpt lat="46.831940962001681" lon="11.315759969875216">
        <ele>1806.45</ele>
        <time>2018-09-17T11:41:20Z</time>
      </trkpt>
      <trkpt lat="46.831968035548925" lon="11.315665002912283">
        <ele>1807.4200000000001</ele>
        <time>2018-09-17T11:41:21Z</time>
      </trkpt>
      <trkpt lat="46.831997036933899" lon="11.315539022907615">
        <ele>1807.9000000000001</ele>
        <time>2018-09-17T11:41:22Z</time>
      </trkpt>
      <trkpt lat="46.832026960328221" lon="11.315404996275902">
        <ele>1808.3800000000001</ele>
        <time>2018-09-17T11:41:23Z</time>
      </trkpt>
      <trkpt lat="46.83208404108882" lon="11.315158987417817">
        <ele>1808.8599999999999</ele>
        <time>2018-09-17T11:41:25Z</time>
      </trkpt>
      <trkpt lat="46.832106001675129" lon="11.315061002969742">
        <ele>1809.3399999999999</ele>
        <time>2018-09-17T11:41:26Z</time>
      </trkpt>
      <trkpt lat="46.832168027758598" lon="11.314917001873255">
        <ele>1810.3</ele>
        <time>2018-09-17T11:41:28Z</time>
      </trkpt>
      <trkpt lat="46.832224018871784" lon="11.314823962748051">
        <ele>1810.78</ele>
        <time>2018-09-17T11:41:30Z</time>
      </trkpt>
      <trkpt lat="46.832291996106505" lon="11.314739976078272">
        <ele>1811.26</ele>
        <time>2018-09-17T11:41:32Z</time>
      </trkpt>
      <trkpt lat="46.832334995269775" lon="11.314698988571763">
        <ele>1811.74</ele>
        <time>2018-09-17T11:41:33Z</time>
      </trkpt>
      <trkpt lat="46.832375982776284" lon="11.314660012722015">
        <ele>1812.22</ele>
        <time>2018-09-17T11:41:34Z</time>
      </trkpt>
      <trkpt lat="46.832459969446063" lon="11.314578959718347">
        <ele>1813.1800000000001</ele>
        <time>2018-09-17T11:41:36Z</time>
      </trkpt>
      <trkpt lat="46.832501962780952" lon="11.314537972211838">
        <ele>1813.6600000000001</ele>
        <time>2018-09-17T11:41:37Z</time>
      </trkpt>
      <trkpt lat="46.832543034106493" lon="11.31449799053371">
        <ele>1814.1500000000001</ele>
        <time>2018-09-17T11:41:38Z</time>
      </trkpt>
      <trkpt lat="46.832587039098144" lon="11.314457003027201">
        <ele>1814.1500000000001</ele>
        <time>2018-09-17T11:41:39Z</time>
      </trkpt>
      <trkpt lat="46.832633977755904" lon="11.31441199220717">
        <ele>1814.6300000000001</ele>
        <time>2018-09-17T11:41:40Z</time>
      </trkpt>
      <trkpt lat="46.832684017717838" lon="11.314363963901997">
        <ele>1815.1099999999999</ele>
        <time>2018-09-17T11:41:41Z</time>
      </trkpt>
      <trkpt lat="46.83273296803236" lon="11.314316019415855">
        <ele>1815.5899999999999</ele>
        <time>2018-09-17T11:41:42Z</time>
      </trkpt>
      <trkpt lat="46.832837993279099" lon="11.31422096863389">
        <ele>1816.0699999999999</ele>
        <time>2018-09-17T11:41:44Z</time>
      </trkpt>
      <trkpt lat="46.832890966907144" lon="11.31417796947062">
        <ele>1816.55</ele>
        <time>2018-09-17T11:41:45Z</time>
      </trkpt>
      <trkpt lat="46.832944024354219" lon="11.314136981964111">
        <ele>1817.03</ele>
        <time>2018-09-17T11:41:46Z</time>
      </trkpt>
      <trkpt lat="46.833000015467405" lon="11.314092976972461">
        <ele>1817.51</ele>
        <time>2018-09-17T11:41:47Z</time>
      </trkpt>
      <trkpt lat="46.83305399492383" lon="11.314050983637571">
        <ele>1817.99</ele>
        <time>2018-09-17T11:41:48Z</time>
      </trkpt>
      <trkpt lat="46.833099005743861" lon="11.314015025272965">
        <ele>1818.95</ele>
        <time>2018-09-17T11:41:49Z</time>
      </trkpt>
      <trkpt lat="46.833291035145521" lon="11.313863983377814">
        <ele>1823.28</ele>
        <time>2018-09-17T11:41:53Z</time>
      </trkpt>
      <trkpt lat="46.833565961569548" lon="11.313678994774818">
        <ele>1827.1199999999999</ele>
        <time>2018-09-17T11:41:58Z</time>
      </trkpt>
      <trkpt lat="46.833617007359862" lon="11.313670026138425">
        <ele>1827.5999999999999</ele>
        <time>2018-09-17T11:41:59Z</time>
      </trkpt>
      <trkpt lat="46.833663024008274" lon="11.313662985339761">
        <ele>1827.5999999999999</ele>
        <time>2018-09-17T11:42:00Z</time>
      </trkpt>
      <trkpt lat="46.833824040368199" lon="11.313637001439929">
        <ele>1828.5599999999999</ele>
        <time>2018-09-17T11:42:04Z</time>
      </trkpt>
      <trkpt lat="46.833872990682721" lon="11.313629038631916">
        <ele>1829.05</ele>
        <time>2018-09-17T11:42:05Z</time>
      </trkpt>
      <trkpt lat="46.834481013938785" lon="11.313570030033588">
        <ele>1836.74</ele>
        <time>2018-09-17T11:42:14Z</time>
      </trkpt>
      <trkpt lat="46.834864988923073" lon="11.313599031418562">
        <ele>1843.47</ele>
        <time>2018-09-17T11:42:20Z</time>
      </trkpt>
      <trkpt lat="46.834927015006542" lon="11.313588973134756">
        <ele>1844.9100000000001</ele>
        <time>2018-09-17T11:42:21Z</time>
      </trkpt>
      <trkpt lat="46.834999015554786" lon="11.313566006720066">
        <ele>1845.8699999999999</ele>
        <time>2018-09-17T11:42:22Z</time>
      </trkpt>
      <trkpt lat="46.835079984739423" lon="11.313541028648615">
        <ele>1847.3099999999999</ele>
        <time>2018-09-17T11:42:23Z</time>
      </trkpt>
      <trkpt lat="46.835164977237582" lon="11.313514038920403">
        <ele>1848.27</ele>
        <time>2018-09-17T11:42:24Z</time>
      </trkpt>
      <trkpt lat="46.835592035204172" lon="11.31338001228869">
        <ele>1853.5599999999999</ele>
        <time>2018-09-17T11:42:28Z</time>
      </trkpt>
      <trkpt lat="46.835704017430544" lon="11.31327498704195">
        <ele>1855</ele>
        <time>2018-09-17T11:42:29Z</time>
      </trkpt>
      <trkpt lat="46.835780963301659" lon="11.31312302313745">
        <ele>1856.9200000000001</ele>
        <time>2018-09-17T11:42:30Z</time>
      </trkpt>
      <trkpt lat="46.835903003811836" lon="11.312794033437967">
        <ele>1860.29</ele>
        <time>2018-09-17T11:42:32Z</time>
      </trkpt>
      <trkpt lat="46.835973998531699" lon="11.312622958794236">
        <ele>1861.73</ele>
        <time>2018-09-17T11:42:33Z</time>
      </trkpt>
      <trkpt lat="46.836080029606819" lon="11.312517011538148">
        <ele>1863.1700000000001</ele>
        <time>2018-09-17T11:42:34Z</time>
      </trkpt>
      <trkpt lat="46.836174996569753" lon="11.312421960756183">
        <ele>1864.6099999999999</ele>
        <time>2018-09-17T11:42:35Z</time>
      </trkpt>
      <trkpt lat="46.83625596575439" lon="11.312323976308107">
        <ele>1866.54</ele>
        <time>2018-09-17T11:42:36Z</time>
      </trkpt>
      <trkpt lat="46.836327966302633" lon="11.312218029052019">
        <ele>1867.98</ele>
        <time>2018-09-17T11:42:37Z</time>
      </trkpt>
      <trkpt lat="46.836395021528006" lon="11.312119038775563">
        <ele>1868.9400000000001</ele>
        <time>2018-09-17T11:42:38Z</time>
      </trkpt>
      <trkpt lat="46.836504992097616" lon="11.311958022415638">
        <ele>1871.3399999999999</ele>
        <time>2018-09-17T11:42:40Z</time>
      </trkpt>
      <trkpt lat="46.836584033444524" lon="11.311841011047363">
        <ele>1872.3</ele>
        <time>2018-09-17T11:42:41Z</time>
      </trkpt>
      <trkpt lat="46.836634995415807" lon="11.311831036582589">
        <ele>1872.79</ele>
        <time>2018-09-17T11:42:42Z</time>
      </trkpt>
      <trkpt lat="46.836724011227489" lon="11.311826007440686">
        <ele>1873.75</ele>
        <time>2018-09-17T11:42:43Z</time>
      </trkpt>
      <trkpt lat="46.83681202121079" lon="11.311842016875744">
        <ele>1874.71</ele>
        <time>2018-09-17T11:42:44Z</time>
      </trkpt>
      <trkpt lat="46.836901037022471" lon="11.311859032139182">
        <ele>1875.6700000000001</ele>
        <time>2018-09-17T11:42:45Z</time>
      </trkpt>
      <trkpt lat="46.836990974843502" lon="11.311875963583589">
        <ele>1876.6300000000001</ele>
        <time>2018-09-17T11:42:46Z</time>
      </trkpt>
      <trkpt lat="46.837069010362029" lon="11.311871018260717">
        <ele>1877.5899999999999</ele>
        <time>2018-09-17T11:42:47Z</time>
      </trkpt>
      <trkpt lat="46.837141010910273" lon="11.311844028532505">
        <ele>1878.55</ele>
        <time>2018-09-17T11:42:48Z</time>
      </trkpt>
      <trkpt lat="46.837365981191397" lon="11.311760041862726">
        <ele>1880.96</ele>
        <time>2018-09-17T11:42:51Z</time>
      </trkpt>
      <trkpt lat="46.837442005053163" lon="11.311672031879425">
        <ele>1881.9200000000001</ele>
        <time>2018-09-17T11:42:52Z</time>
      </trkpt>
      <trkpt lat="46.83752004057169" lon="11.311570024117827">
        <ele>1882.8800000000001</ele>
        <time>2018-09-17T11:42:53Z</time>
      </trkpt>
      <trkpt lat="46.83760997839272" lon="11.311452006921172">
        <ele>1883.3599999999999</ele>
        <time>2018-09-17T11:42:54Z</time>
      </trkpt>
      <trkpt lat="46.837731013074517" lon="11.311338013038039">
        <ele>1884.3199999999999</ele>
        <time>2018-09-17T11:42:55Z</time>
      </trkpt>
      <trkpt lat="46.838159998878837" lon="11.310922019183636">
        <ele>1886.72</ele>
        <time>2018-09-17T11:42:59Z</time>
      </trkpt>
      <trkpt lat="46.838214984163642" lon="11.310853958129883">
        <ele>1887.6900000000001</ele>
        <time>2018-09-17T11:43:00Z</time>
      </trkpt>
      <trkpt lat="46.838344987481833" lon="11.310511976480484">
        <ele>1889.1300000000001</ele>
        <time>2018-09-17T11:43:02Z</time>
      </trkpt>
      <trkpt lat="46.838410031050444" lon="11.309956004843116">
        <ele>1891.05</ele>
        <time>2018-09-17T11:43:06Z</time>
      </trkpt>
      <trkpt lat="46.838414976373315" lon="11.309859026223421">
        <ele>1889.1300000000001</ele>
        <time>2018-09-17T11:43:07Z</time>
      </trkpt>
      <trkpt lat="46.838441966101527" lon="11.309328032657504">
        <ele>1888.1700000000001</ele>
        <time>2018-09-17T11:43:10Z</time>
      </trkpt>
      <trkpt lat="46.838449006900191" lon="11.30768702365458">
        <ele>1895.3800000000001</ele>
        <time>2018-09-17T11:43:17Z</time>
      </trkpt>
      <trkpt lat="46.838417993858457" lon="11.305812997743487">
        <ele>1909.3199999999999</ele>
        <time>2018-09-17T11:43:24Z</time>
      </trkpt>
      <trkpt lat="46.838374994695187" lon="11.30558299832046">
        <ele>1911.24</ele>
        <time>2018-09-17T11:43:25Z</time>
      </trkpt>
      <trkpt lat="46.838138038292527" lon="11.303921034559608">
        <ele>1927.0999999999999</ele>
        <time>2018-09-17T11:43:33Z</time>
      </trkpt>
      <trkpt lat="46.837921030819416" lon="11.302453028038144">
        <ele>1938.6400000000001</ele>
        <time>2018-09-17T11:43:40Z</time>
      </trkpt>
      <trkpt lat="46.837893035262823" lon="11.302313972264528">
        <ele>1940.0799999999999</ele>
        <time>2018-09-17T11:43:41Z</time>
      </trkpt>
      <trkpt lat="46.837906027212739" lon="11.302143987268209">
        <ele>1941.52</ele>
        <time>2018-09-17T11:43:42Z</time>
      </trkpt>
      <trkpt lat="46.837926981970668" lon="11.30199302919209">
        <ele>1942.48</ele>
        <time>2018-09-17T11:43:43Z</time>
      </trkpt>
      <trkpt lat="46.838076012209058" lon="11.301341000944376">
        <ele>1946.8099999999999</ele>
        <time>2018-09-17T11:43:46Z</time>
      </trkpt>
      <trkpt lat="46.838085986673832" lon="11.301064984872937">
        <ele>1948.73</ele>
        <time>2018-09-17T11:43:47Z</time>
      </trkpt>
      <trkpt lat="46.838090009987354" lon="11.299107978120446">
        <ele>1960.27</ele>
        <time>2018-09-17T11:43:54Z</time>
      </trkpt>
      <trkpt lat="46.838108031079173" lon="11.298945033922791">
        <ele>1961.71</ele>
        <time>2018-09-17T11:43:55Z</time>
      </trkpt>
      <trkpt lat="46.838083975017071" lon="11.298781000077724">
        <ele>1963.1500000000001</ele>
        <time>2018-09-17T11:43:56Z</time>
      </trkpt>
      <trkpt lat="46.838071988895535" lon="11.298625012859702">
        <ele>1965.55</ele>
        <time>2018-09-17T11:43:58Z</time>
      </trkpt>
      <trkpt lat="46.838091015815735" lon="11.29857899621129">
        <ele>1966.51</ele>
        <time>2018-09-17T11:43:59Z</time>
      </trkpt>
      <trkpt lat="46.838149018585682" lon="11.298554018139839">
        <ele>1967.48</ele>
        <time>2018-09-17T11:44:00Z</time>
      </trkpt>
      <trkpt lat="46.838181037455797" lon="11.298566004261374">
        <ele>1968.4400000000001</ele>
        <time>2018-09-17T11:44:01Z</time>
      </trkpt>
      <trkpt lat="46.838236022740602" lon="11.29868796095252">
        <ele>1969.4000000000001</ele>
        <time>2018-09-17T11:44:02Z</time>
      </trkpt>
      <trkpt lat="46.838225964456797" lon="11.298882002010942">
        <ele>1970.3599999999999</ele>
        <time>2018-09-17T11:44:03Z</time>
      </trkpt>
      <trkpt lat="46.838196041062474" lon="11.299463035538793">
        <ele>1972.76</ele>
        <time>2018-09-17T11:44:06Z</time>
      </trkpt>
      <trkpt lat="46.838225964456797" lon="11.299670990556479">
        <ele>1973.72</ele>
        <time>2018-09-17T11:44:07Z</time>
      </trkpt>
      <trkpt lat="46.838271981105208" lon="11.299907024949789">
        <ele>1975.1700000000001</ele>
        <time>2018-09-17T11:44:08Z</time>
      </trkpt>
      <trkpt lat="46.83838002383709" lon="11.300423014909029">
        <ele>1978.05</ele>
        <time>2018-09-17T11:44:10Z</time>
      </trkpt>
      <trkpt lat="46.838439032435417" lon="11.300685033202171">
        <ele>1979.49</ele>
        <time>2018-09-17T11:44:11Z</time>
      </trkpt>
      <trkpt lat="46.838514972478151" lon="11.301416018977761">
        <ele>1983.8199999999999</ele>
        <time>2018-09-17T11:44:14Z</time>
      </trkpt>
      <trkpt lat="46.838496029376984" lon="11.301601007580757">
        <ele>1984.78</ele>
        <time>2018-09-17T11:44:15Z</time>
      </trkpt>
      <trkpt lat="46.838444983586669" lon="11.30177996121347">
        <ele>1985.74</ele>
        <time>2018-09-17T11:44:16Z</time>
      </trkpt>
      <trkpt lat="46.838392009958625" lon="11.301948018372059">
        <ele>1987.1800000000001</ele>
        <time>2018-09-17T11:44:17Z</time>
      </trkpt>
      <trkpt lat="46.838343981653452" lon="11.302115991711617">
        <ele>1988.1400000000001</ele>
        <time>2018-09-17T11:44:18Z</time>
      </trkpt>
      <trkpt lat="46.838353034108877" lon="11.302297040820122">
        <ele>1989.0999999999999</ele>
        <time>2018-09-17T11:44:19Z</time>
      </trkpt>
      <trkpt lat="46.83836099691689" lon="11.302469037473202">
        <ele>1990.0699999999999</ele>
        <time>2018-09-17T11:44:20Z</time>
      </trkpt>
      <trkpt lat="46.838401984423399" lon="11.302627958357334">
        <ele>1990.55</ele>
        <time>2018-09-17T11:44:21Z</time>
      </trkpt>
      <trkpt lat="46.838473984971642" lon="11.302781011909246">
        <ele>1991.51</ele>
        <time>2018-09-17T11:44:22Z</time>
      </trkpt>
      <trkpt lat="46.838737009093165" lon="11.30358399823308">
        <ele>1995.3499999999999</ele>
        <time>2018-09-17T11:44:26Z</time>
      </trkpt>
      <trkpt lat="46.838828036561608" lon="11.303788013756275">
        <ele>1996.8</ele>
        <time>2018-09-17T11:44:27Z</time>
      </trkpt>
      <trkpt lat="46.838997015729547" lon="11.304165031760931">
        <ele>1999.2</ele>
        <time>2018-09-17T11:44:29Z</time>
      </trkpt>
      <trkpt lat="46.839059041813016" lon="11.304355971515179">
        <ele>2000.1600000000001</ele>
        <time>2018-09-17T11:44:30Z</time>
      </trkpt>
      <trkpt lat="46.839084019884467" lon="11.304577002301812">
        <ele>2001.1199999999999</ele>
        <time>2018-09-17T11:44:31Z</time>
      </trkpt>
      <trkpt lat="46.839219974353909" lon="11.306303003802896">
        <ele>2011.22</ele>
        <time>2018-09-17T11:44:38Z</time>
      </trkpt>
      <trkpt lat="46.83926397934556" lon="11.306513976305723">
        <ele>2012.1800000000001</ele>
        <time>2018-09-17T11:44:39Z</time>
      </trkpt>
      <trkpt lat="46.839324999600649" lon="11.306728972122073">
        <ele>2013.6199999999999</ele>
        <time>2018-09-17T11:44:40Z</time>
      </trkpt>
      <trkpt lat="46.839448967948556" lon="11.307167010381818">
        <ele>2016.98</ele>
        <time>2018-09-17T11:44:42Z</time>
      </trkpt>
      <trkpt lat="46.839486015960574" lon="11.307388041168451">
        <ele>2018.4300000000001</ele>
        <time>2018-09-17T11:44:43Z</time>
      </trkpt>
      <trkpt lat="46.839517029002309" lon="11.307591972872615">
        <ele>2020.3499999999999</ele>
        <time>2018-09-17T11:44:44Z</time>
      </trkpt>
      <trkpt lat="46.839543012902141" lon="11.307766987010837">
        <ele>2021.3099999999999</ele>
        <time>2018-09-17T11:44:45Z</time>
      </trkpt>
      <trkpt lat="46.839605960994959" lon="11.307891961187124">
        <ele>2022.75</ele>
        <time>2018-09-17T11:44:46Z</time>
      </trkpt>
      <trkpt lat="46.839683996513486" lon="11.308000003919005">
        <ele>2023.71</ele>
        <time>2018-09-17T11:44:47Z</time>
      </trkpt>
      <trkpt lat="46.839778041467071" lon="11.308113997802138">
        <ele>2024.6700000000001</ele>
        <time>2018-09-17T11:44:48Z</time>
      </trkpt>
      <trkpt lat="46.840099990367889" lon="11.308499984443188">
        <ele>2027.5599999999999</ele>
        <time>2018-09-17T11:44:51Z</time>
      </trkpt>
      <trkpt lat="46.840193029493093" lon="11.308651026338339">
        <ele>2028.04</ele>
        <time>2018-09-17T11:44:52Z</time>
      </trkpt>
      <trkpt lat="46.840252038091421" lon="11.308815982192755">
        <ele>2029</ele>
        <time>2018-09-17T11:44:53Z</time>
      </trkpt>
      <trkpt lat="46.840283973142505" lon="11.309009017422795">
        <ele>2029.96</ele>
        <time>2018-09-17T11:44:54Z</time>
      </trkpt>
      <trkpt lat="46.840297970920801" lon="11.309223007410765">
        <ele>2031.4000000000001</ele>
        <time>2018-09-17T11:44:55Z</time>
      </trkpt>
      <trkpt lat="46.840313980355859" lon="11.309446971863508">
        <ele>2032.3599999999999</ele>
        <time>2018-09-17T11:44:56Z</time>
      </trkpt>
      <trkpt lat="46.840327978134155" lon="11.309662973508239">
        <ele>2033.8099999999999</ele>
        <time>2018-09-17T11:44:57Z</time>
      </trkpt>
      <trkpt lat="46.840347005054355" lon="11.309860032051802">
        <ele>2035.25</ele>
        <time>2018-09-17T11:44:58Z</time>
      </trkpt>
      <trkpt lat="46.840423028916121" lon="11.310227997601032">
        <ele>2038.1300000000001</ele>
        <time>2018-09-17T11:45:00Z</time>
      </trkpt>
      <trkpt lat="46.840440966188908" lon="11.310423966497183">
        <ele>2039.5699999999999</ele>
        <time>2018-09-17T11:45:01Z</time>
      </trkpt>
      <trkpt lat="46.840425040572882" lon="11.310639968141913">
        <ele>2041.02</ele>
        <time>2018-09-17T11:45:02Z</time>
      </trkpt>
      <trkpt lat="46.840376006439328" lon="11.310810958966613">
        <ele>2042.46</ele>
        <time>2018-09-17T11:45:03Z</time>
      </trkpt>
      <trkpt lat="46.840306017547846" lon="11.310992008075118">
        <ele>2043.9000000000001</ele>
        <time>2018-09-17T11:45:04Z</time>
      </trkpt>
      <trkpt lat="46.840214990079403" lon="11.311133997514844">
        <ele>2045.3399999999999</ele>
        <time>2018-09-17T11:45:05Z</time>
      </trkpt>
      <trkpt lat="46.840135026723146" lon="11.311282021924853">
        <ele>2046.78</ele>
        <time>2018-09-17T11:45:06Z</time>
      </trkpt>
      <trkpt lat="46.840085992589593" lon="11.311454018577933">
        <ele>2048.71</ele>
        <time>2018-09-17T11:45:07Z</time>
      </trkpt>
      <trkpt lat="46.840034024789929" lon="11.311639007180929">
        <ele>2050.1500000000001</ele>
        <time>2018-09-17T11:45:08Z</time>
      </trkpt>
      <trkpt lat="46.839983984827995" lon="11.311843022704124">
        <ele>2051.5900000000001</ele>
        <time>2018-09-17T11:45:09Z</time>
      </trkpt>
      <trkpt lat="46.839945008978248" lon="11.312066987156868">
        <ele>2052.5500000000002</ele>
        <time>2018-09-17T11:45:10Z</time>
      </trkpt>
      <trkpt lat="46.839905027300119" lon="11.312293969094753">
        <ele>2053.9899999999998</ele>
        <time>2018-09-17T11:45:11Z</time>
      </trkpt>
      <trkpt lat="46.839866973459721" lon="11.312505025416613">
        <ele>2054.4699999999998</ele>
        <time>2018-09-17T11:45:12Z</time>
      </trkpt>
      <trkpt lat="46.839761026203632" lon="11.312668975442648">
        <ele>2054.96</ele>
        <time>2018-09-17T11:45:13Z</time>
      </trkpt>
      <trkpt lat="46.839654995128512" lon="11.312830997630954">
        <ele>2055.4400000000001</ele>
        <time>2018-09-17T11:45:14Z</time>
      </trkpt>
      <trkpt lat="46.839347966015339" lon="11.313302982598543">
        <ele>2057.3600000000001</ele>
        <time>2018-09-17T11:45:17Z</time>
      </trkpt>
      <trkpt lat="46.839268002659082" lon="11.313426028937101">
        <ele>2058.3200000000002</ele>
        <time>2018-09-17T11:45:18Z</time>
      </trkpt>
      <trkpt lat="46.839227015152574" lon="11.313570030033588">
        <ele>2059.2800000000002</ele>
        <time>2018-09-17T11:45:19Z</time>
      </trkpt>
      <trkpt lat="46.839093994349241" lon="11.314042015001178">
        <ele>2062.1700000000001</ele>
        <time>2018-09-17T11:45:23Z</time>
      </trkpt>
      <trkpt lat="46.839086031541228" lon="11.31417503580451">
        <ele>2062.6500000000001</ele>
        <time>2018-09-17T11:45:24Z</time>
      </trkpt>
      <trkpt lat="46.839116960763931" lon="11.314318031072617">
        <ele>2063.1300000000001</ele>
        <time>2018-09-17T11:45:25Z</time>
      </trkpt>
      <trkpt lat="46.83915501460433" lon="11.314493967220187">
        <ele>2063.6100000000001</ele>
        <time>2018-09-17T11:45:26Z</time>
      </trkpt>
      <trkpt lat="46.8391980137676" lon="11.31469102576375">
        <ele>2064.5700000000002</ele>
        <time>2018-09-17T11:45:27Z</time>
      </trkpt>
      <trkpt lat="46.839245958253741" lon="11.314911972731352">
        <ele>2065.5300000000002</ele>
        <time>2018-09-17T11:45:28Z</time>
      </trkpt>
      <trkpt lat="46.839324999600649" lon="11.315135015174747">
        <ele>2066.4899999999998</ele>
        <time>2018-09-17T11:45:29Z</time>
      </trkpt>
      <trkpt lat="46.839791033416986" lon="11.316750040277839">
        <ele>2075.6199999999999</ele>
        <time>2018-09-17T11:45:36Z</time>
      </trkpt>
      <trkpt lat="46.839991025626659" lon="11.318223997950554">
        <ele>2086.1999999999998</ele>
        <time>2018-09-17T11:45:43Z</time>
      </trkpt>
      <trkpt lat="46.839979039505124" lon="11.318418961018324">
        <ele>2087.6399999999999</ele>
        <time>2018-09-17T11:45:44Z</time>
      </trkpt>
      <trkpt lat="46.839956995099783" lon="11.318591963499784">
        <ele>2089.0799999999999</ele>
        <time>2018-09-17T11:45:45Z</time>
      </trkpt>
      <trkpt lat="46.839826991781592" lon="11.319649005308747">
        <ele>2098.6999999999998</ele>
        <time>2018-09-17T11:45:53Z</time>
      </trkpt>
      <trkpt lat="46.839803019538522" lon="11.319736009463668">
        <ele>2100.1399999999999</ele>
        <time>2018-09-17T11:45:54Z</time>
      </trkpt>
      <trkpt lat="46.839778041467071" lon="11.319813039153814">
        <ele>2101.5799999999999</ele>
        <time>2018-09-17T11:45:55Z</time>
      </trkpt>
      <trkpt lat="46.83975700289011" lon="11.319875987246633">
        <ele>2102.54</ele>
        <time>2018-09-17T11:45:56Z</time>
      </trkpt>
      <trkpt lat="46.839739987626672" lon="11.319927033036947">
        <ele>2103.5</ele>
        <time>2018-09-17T11:45:57Z</time>
      </trkpt>
      <trkpt lat="46.839725989848375" lon="11.319968020543456">
        <ele>2104.46</ele>
        <time>2018-09-17T11:45:58Z</time>
      </trkpt>
      <trkpt lat="46.839712997898459" lon="11.320005990564823">
        <ele>2104.9400000000001</ele>
        <time>2018-09-17T11:45:59Z</time>
      </trkpt>
      <trkpt lat="46.839701011776924" lon="11.320043038576841">
        <ele>2105.9099999999999</ele>
        <time>2018-09-17T11:46:00Z</time>
      </trkpt>
      <trkpt lat="46.839689025655389" lon="11.320081008598208">
        <ele>2106.8699999999999</ele>
        <time>2018-09-17T11:46:01Z</time>
      </trkpt>
      <trkpt lat="46.839677961543202" lon="11.320121996104717">
        <ele>2107.3499999999999</ele>
        <time>2018-09-17T11:46:02Z</time>
      </trkpt>
      <trkpt lat="46.839665975421667" lon="11.320161977782845">
        <ele>2108.3099999999999</ele>
        <time>2018-09-17T11:46:03Z</time>
      </trkpt>
      <trkpt lat="46.839646026492119" lon="11.320232972502708">
        <ele>2109.75</ele>
        <time>2018-09-17T11:46:05Z</time>
      </trkpt>
      <trkpt lat="46.839637979865074" lon="11.320259962230921">
        <ele>2110.23</ele>
        <time>2018-09-17T11:46:06Z</time>
      </trkpt>
      <trkpt lat="46.839633034542203" lon="11.320279994979501">
        <ele>2110.71</ele>
        <time>2018-09-17T11:46:07Z</time>
      </trkpt>
      <trkpt lat="46.839633034542203" lon="11.320279994979501">
        <ele>2110.71</ele>
        <time>2018-09-17T11:46:08Z</time>
      </trkpt>
      <trkpt lat="46.839633034542203" lon="11.320279994979501">
        <ele>2110.71</ele>
        <time>2018-09-17T11:46:24Z</time>
      </trkpt>
      <trkpt lat="46.839576959609985" lon="11.320306984707713">
        <ele>2089.5599999999999</ele>
        <time>2018-09-17T11:53:18Z</time>
      </trkpt>
      <trkpt lat="46.839552987366915" lon="11.320340009406209">
        <ele>2097.73</ele>
        <time>2018-09-17T11:54:22Z</time>
      </trkpt>
      <trkpt lat="46.839575031772256" lon="11.320480993017554">
        <ele>2099.6599999999999</ele>
        <time>2018-09-17T11:55:09Z</time>
      </trkpt>
      <trkpt lat="46.839471012353897" lon="11.320843007415533">
        <ele>2099.6599999999999</ele>
        <time>2018-09-17T11:55:17Z</time>
      </trkpt>
      <trkpt lat="46.839437987655401" lon="11.320961024612188">
        <ele>2099.6599999999999</ele>
        <time>2018-09-17T11:55:18Z</time>
      </trkpt>
      <trkpt lat="46.839467994868755" lon="11.321098990738392">
        <ele>2099.6599999999999</ele>
        <time>2018-09-17T11:55:19Z</time>
      </trkpt>
      <trkpt lat="46.839502025395632" lon="11.321261012926698">
        <ele>2099.1799999999998</ele>
        <time>2018-09-17T11:55:20Z</time>
      </trkpt>
      <trkpt lat="46.839578971266747" lon="11.321399984881282">
        <ele>2099.1799999999998</ele>
        <time>2018-09-17T11:55:21Z</time>
      </trkpt>
      <trkpt lat="46.839653989300132" lon="11.321537028998137">
        <ele>2098.6999999999998</ele>
        <time>2018-09-17T11:55:22Z</time>
      </trkpt>
      <trkpt lat="46.839731018990278" lon="11.321678012609482">
        <ele>2098.21</ele>
        <time>2018-09-17T11:55:23Z</time>
      </trkpt>
      <trkpt lat="46.839803019538522" lon="11.321809021756053">
        <ele>2098.21</ele>
        <time>2018-09-17T11:55:24Z</time>
      </trkpt>
      <trkpt lat="46.839874014258385" lon="11.321969032287598">
        <ele>2097.73</ele>
        <time>2018-09-17T11:55:25Z</time>
      </trkpt>
      <trkpt lat="46.839902009814978" lon="11.322138011455536">
        <ele>2097.25</ele>
        <time>2018-09-17T11:55:26Z</time>
      </trkpt>
      <trkpt lat="46.839917013421655" lon="11.322323000058532">
        <ele>2096.77</ele>
        <time>2018-09-17T11:55:27Z</time>
      </trkpt>
      <trkpt lat="46.839927993714809" lon="11.322518968954682">
        <ele>2095.8099999999999</ele>
        <time>2018-09-17T11:55:28Z</time>
      </trkpt>
      <trkpt lat="46.839938974007964" lon="11.322729019448161">
        <ele>2095.3299999999999</ele>
        <time>2018-09-17T11:55:29Z</time>
      </trkpt>
      <trkpt lat="46.840023966506124" lon="11.324036009609699">
        <ele>2087.1599999999999</ele>
        <time>2018-09-17T11:55:35Z</time>
      </trkpt>
      <trkpt lat="46.840071994811296" lon="11.324191996827722">
        <ele>2085.7199999999998</ele>
        <time>2018-09-17T11:55:36Z</time>
      </trkpt>
      <trkpt lat="46.840151958167553" lon="11.324300039559603">
        <ele>2084.7600000000002</ele>
        <time>2018-09-17T11:55:37Z</time>
      </trkpt>
      <trkpt lat="46.840248014777899" lon="11.324406992644072">
        <ele>2083.3099999999999</ele>
        <time>2018-09-17T11:55:38Z</time>
      </trkpt>
      <trkpt lat="46.840343987569213" lon="11.324514029547572">
        <ele>2082.3499999999999</ele>
        <time>2018-09-17T11:55:39Z</time>
      </trkpt>
      <trkpt lat="46.840438032522798" lon="11.324617965146899">
        <ele>2080.9099999999999</ele>
        <time>2018-09-17T11:55:40Z</time>
      </trkpt>
      <trkpt lat="46.840491006150842" lon="11.324757020920515">
        <ele>2079.4699999999998</ele>
        <time>2018-09-17T11:55:41Z</time>
      </trkpt>
      <trkpt lat="46.84050802141428" lon="11.324885012581944">
        <ele>2078.5100000000002</ele>
        <time>2018-09-17T11:55:42Z</time>
      </trkpt>
      <trkpt lat="46.840497041121125" lon="11.325011998414993">
        <ele>2077.5500000000002</ele>
        <time>2018-09-17T11:55:43Z</time>
      </trkpt>
      <trkpt lat="46.840496035292745" lon="11.325129009783268">
        <ele>2076.5900000000001</ele>
        <time>2018-09-17T11:55:44Z</time>
      </trkpt>
      <trkpt lat="46.840534005314112" lon="11.325203021988273">
        <ele>2075.6199999999999</ele>
        <time>2018-09-17T11:55:45Z</time>
      </trkpt>
      <trkpt lat="46.840574992820621" lon="11.325231017544866">
        <ele>2075.1399999999999</ele>
        <time>2018-09-17T11:55:46Z</time>
      </trkpt>
      <trkpt lat="46.840639030560851" lon="11.325182989239693">
        <ele>2074.6599999999999</ele>
        <time>2018-09-17T11:55:47Z</time>
      </trkpt>
      <trkpt lat="46.84065998531878" lon="11.325140995904803">
        <ele>2073.6999999999998</ele>
        <time>2018-09-17T11:55:48Z</time>
      </trkpt>
      <trkpt lat="46.840657973662019" lon="11.325032031163573">
        <ele>2073.2199999999998</ele>
        <time>2018-09-17T11:55:49Z</time>
      </trkpt>
      <trkpt lat="46.840654034167528" lon="11.324905967339873">
        <ele>2072.7399999999998</ele>
        <time>2018-09-17T11:55:50Z</time>
      </trkpt>
      <trkpt lat="46.840650010854006" lon="11.324761966243386">
        <ele>2071.3000000000002</ele>
        <time>2018-09-17T11:55:51Z</time>
      </trkpt>
      <trkpt lat="46.84061698615551" lon="11.324268020689487">
        <ele>2068.4099999999999</ele>
        <time>2018-09-17T11:55:54Z</time>
      </trkpt>
      <trkpt lat="46.840567030012608" lon="11.32408001460135">
        <ele>2066.9699999999998</ele>
        <time>2018-09-17T11:55:55Z</time>
      </trkpt>
      <trkpt lat="46.840515984222293" lon="11.32388798519969">
        <ele>2065.5300000000002</ele>
        <time>2018-09-17T11:55:56Z</time>
      </trkpt>
      <trkpt lat="46.840466028079391" lon="11.3236940279603">
        <ele>2064.0900000000001</ele>
        <time>2018-09-17T11:55:57Z</time>
      </trkpt>
      <trkpt lat="46.840438032522798" lon="11.323498981073499">
        <ele>2062.1700000000001</ele>
        <time>2018-09-17T11:55:58Z</time>
      </trkpt>
      <trkpt lat="46.840449012815952" lon="11.323298988863826">
        <ele>2060.2399999999998</ele>
        <time>2018-09-17T11:55:59Z</time>
      </trkpt>
      <trkpt lat="46.8404879886657" lon="11.323125986382365">
        <ele>2058.3200000000002</ele>
        <time>2018-09-17T11:56:00Z</time>
      </trkpt>
      <trkpt lat="46.840550014749169" lon="11.32296497002244">
        <ele>2055.9200000000001</ele>
        <time>2018-09-17T11:56:01Z</time>
      </trkpt>
      <trkpt lat="46.840645987540483" lon="11.322825998067856">
        <ele>2053.9899999999998</ele>
        <time>2018-09-17T11:56:02Z</time>
      </trkpt>
      <trkpt lat="46.840756963938475" lon="11.322694988921285">
        <ele>2052.0700000000002</ele>
        <time>2018-09-17T11:56:03Z</time>
      </trkpt>
      <trkpt lat="46.840884033590555" lon="11.322579989209771">
        <ele>2050.6300000000001</ele>
        <time>2018-09-17T11:56:04Z</time>
      </trkpt>
      <trkpt lat="46.841011019423604" lon="11.322467001155019">
        <ele>2049.1900000000001</ele>
        <time>2018-09-17T11:56:05Z</time>
      </trkpt>
      <trkpt lat="46.841124007478356" lon="11.322339009493589">
        <ele>2047.75</ele>
        <time>2018-09-17T11:56:06Z</time>
      </trkpt>
      <trkpt lat="46.841186033561826" lon="11.322152009233832">
        <ele>2046.3</ele>
        <time>2018-09-17T11:56:07Z</time>
      </trkpt>
      <trkpt lat="46.841247975826263" lon="11.321968026459217">
        <ele>2044.8599999999999</ele>
        <time>2018-09-17T11:56:08Z</time>
      </trkpt>
      <trkpt lat="46.841308996081352" lon="11.32178395986557">
        <ele>2042.9400000000001</ele>
        <time>2018-09-17T11:56:09Z</time>
      </trkpt>
      <trkpt lat="46.84139097109437" lon="11.321625960990787">
        <ele>2041.5</ele>
        <time>2018-09-17T11:56:10Z</time>
      </trkpt>
      <trkpt lat="46.841515023261309" lon="11.321527976542711">
        <ele>2040.05</ele>
        <time>2018-09-17T11:56:11Z</time>
      </trkpt>
      <trkpt lat="46.841645026579499" lon="11.321425968781114">
        <ele>2038.1300000000001</ele>
        <time>2018-09-17T11:56:12Z</time>
      </trkpt>
      <trkpt lat="46.841762037947774" lon="11.321290014311671">
        <ele>2036.6900000000001</ele>
        <time>2018-09-17T11:56:13Z</time>
      </trkpt>
      <trkpt lat="46.841849964112043" lon="11.321166967973113">
        <ele>2034.77</ele>
        <time>2018-09-17T11:56:14Z</time>
      </trkpt>
      <trkpt lat="46.841936968266964" lon="11.321093961596489">
        <ele>2033.3299999999999</ele>
        <time>2018-09-17T11:56:15Z</time>
      </trkpt>
      <trkpt lat="46.84201299212873" lon="11.321105025708675">
        <ele>2031.4000000000001</ele>
        <time>2018-09-17T11:56:16Z</time>
      </trkpt>
      <trkpt lat="46.842087004333735" lon="11.321151964366436">
        <ele>2030.4400000000001</ele>
        <time>2018-09-17T11:56:17Z</time>
      </trkpt>
      <trkpt lat="46.842125980183482" lon="11.321277022361755">
        <ele>2029.48</ele>
        <time>2018-09-17T11:56:18Z</time>
      </trkpt>
      <trkpt lat="46.842136960476637" lon="11.321429992094636">
        <ele>2028.04</ele>
        <time>2018-09-17T11:56:19Z</time>
      </trkpt>
      <trkpt lat="46.842150958254933" lon="11.321615986526012">
        <ele>2027.0799999999999</ele>
        <time>2018-09-17T11:56:20Z</time>
      </trkpt>
      <trkpt lat="46.84218498878181" lon="11.322075985372066">
        <ele>2024.6700000000001</ele>
        <time>2018-09-17T11:56:22Z</time>
      </trkpt>
      <trkpt lat="46.842364026233554" lon="11.323145013302565">
        <ele>2018.4300000000001</ele>
        <time>2018-09-17T11:56:26Z</time>
      </trkpt>
      <trkpt lat="46.842379029840231" lon="11.323412982746959">
        <ele>2016.5</ele>
        <time>2018-09-17T11:56:27Z</time>
      </trkpt>
      <trkpt lat="46.842395039275289" lon="11.32367399521172">
        <ele>2015.0599999999999</ele>
        <time>2018-09-17T11:56:28Z</time>
      </trkpt>
      <trkpt lat="46.842449018731713" lon="11.323924027383327">
        <ele>2013.6199999999999</ele>
        <time>2018-09-17T11:56:29Z</time>
      </trkpt>
      <trkpt lat="46.842521019279957" lon="11.324180010706186">
        <ele>2011.7</ele>
        <time>2018-09-17T11:56:30Z</time>
      </trkpt>
      <trkpt lat="46.842596037313342" lon="11.324445968493819">
        <ele>2010.25</ele>
        <time>2018-09-17T11:56:31Z</time>
      </trkpt>
      <trkpt lat="46.842789994552732" lon="11.325228000059724">
        <ele>2004.97</ele>
        <time>2018-09-17T11:56:34Z</time>
      </trkpt>
      <trkpt lat="46.842826036736369" lon="11.325481971725821">
        <ele>2002.5599999999999</ele>
        <time>2018-09-17T11:56:35Z</time>
      </trkpt>
      <trkpt lat="46.842887979000807" lon="11.325927972793579">
        <ele>1999.2</ele>
        <time>2018-09-17T11:56:37Z</time>
      </trkpt>
      <trkpt lat="46.84295897372067" lon="11.326069040223956">
        <ele>1997.76</ele>
        <time>2018-09-17T11:56:38Z</time>
      </trkpt>
      <trkpt lat="46.843037009239197" lon="11.326197031885386">
        <ele>1995.8299999999999</ele>
        <time>2018-09-17T11:56:39Z</time>
      </trkpt>
      <trkpt lat="46.843359963968396" lon="11.326727019622922">
        <ele>1991.03</ele>
        <time>2018-09-17T11:56:43Z</time>
      </trkpt>
      <trkpt lat="46.843430958688259" lon="11.32685299962759">
        <ele>1990.0699999999999</ele>
        <time>2018-09-17T11:56:44Z</time>
      </trkpt>
      <trkpt lat="46.843450991436839" lon="11.326988032087684">
        <ele>1989.5899999999999</ele>
        <time>2018-09-17T11:56:45Z</time>
      </trkpt>
      <trkpt lat="46.843470018357038" lon="11.327112000435591">
        <ele>1988.6199999999999</ele>
        <time>2018-09-17T11:56:46Z</time>
      </trkpt>
      <trkpt lat="46.843486027792096" lon="11.327220965176821">
        <ele>1988.6199999999999</ele>
        <time>2018-09-17T11:56:47Z</time>
      </trkpt>
      <trkpt lat="46.843493990600109" lon="11.327268993481994">
        <ele>1988.1400000000001</ele>
        <time>2018-09-17T11:56:48Z</time>
      </trkpt>
      <trkpt lat="46.843531960621476" lon="11.327373012900352">
        <ele>1988.1400000000001</ele>
        <time>2018-09-17T11:56:49Z</time>
      </trkpt>
      <trkpt lat="46.843555010855198" lon="11.32743202149868">
        <ele>1987.6600000000001</ele>
        <time>2018-09-17T11:56:50Z</time>
      </trkpt>
      <trkpt lat="46.843586023896933" lon="11.327435960993171">
        <ele>1987.1800000000001</ele>
        <time>2018-09-17T11:56:51Z</time>
      </trkpt>
      <trkpt lat="46.84364696033299" lon="11.327425986528397">
        <ele>1987.1800000000001</ele>
        <time>2018-09-17T11:56:52Z</time>
      </trkpt>
      <trkpt lat="46.843695994466543" lon="11.327373012900352">
        <ele>1987.1800000000001</ele>
        <time>2018-09-17T11:56:53Z</time>
      </trkpt>
      <trkpt lat="46.843702029436827" lon="11.327278967946768">
        <ele>1986.7</ele>
        <time>2018-09-17T11:56:54Z</time>
      </trkpt>
      <trkpt lat="46.843681996688247" lon="11.327172014862299">
        <ele>1987.1800000000001</ele>
        <time>2018-09-17T11:56:55Z</time>
      </trkpt>
      <trkpt lat="46.843657018616796" lon="11.327034970745444">
        <ele>1987.1800000000001</ele>
        <time>2018-09-17T11:56:56Z</time>
      </trkpt>
      <trkpt lat="46.843464989215136" lon="11.326189991086721">
        <ele>1985.74</ele>
        <time>2018-09-17T11:57:02Z</time>
      </trkpt>
      <trkpt lat="46.843474041670561" lon="11.326072979718447">
        <ele>1985.26</ele>
        <time>2018-09-17T11:57:03Z</time>
      </trkpt>
      <trkpt lat="46.843533972278237" lon="11.326017994433641">
        <ele>1984.3</ele>
        <time>2018-09-17T11:57:04Z</time>
      </trkpt>
      <trkpt lat="46.843599015846848" lon="11.326007014140487">
        <ele>1983.3399999999999</ele>
        <time>2018-09-17T11:57:05Z</time>
      </trkpt>
      <trkpt lat="46.843660036101937" lon="11.326055964455009">
        <ele>1982.8599999999999</ele>
        <time>2018-09-17T11:57:06Z</time>
      </trkpt>
      <trkpt lat="46.84373002499342" lon="11.326154032722116">
        <ele>1981.9000000000001</ele>
        <time>2018-09-17T11:57:07Z</time>
      </trkpt>
      <trkpt lat="46.843782998621464" lon="11.326313959434628">
        <ele>1981.4100000000001</ele>
        <time>2018-09-17T11:57:08Z</time>
      </trkpt>
      <trkpt lat="46.843846030533314" lon="11.326502971351147">
        <ele>1980.9300000000001</ele>
        <time>2018-09-17T11:57:09Z</time>
      </trkpt>
      <trkpt lat="46.843987014144659" lon="11.326926006004214">
        <ele>1979.01</ele>
        <time>2018-09-17T11:57:11Z</time>
      </trkpt>
      <trkpt lat="46.844102013856173" lon="11.327114012092352">
        <ele>1977.5699999999999</ele>
        <time>2018-09-17T11:57:12Z</time>
      </trkpt>
      <trkpt lat="46.844211984425783" lon="11.327295983210206">
        <ele>1976.1300000000001</ele>
        <time>2018-09-17T11:57:13Z</time>
      </trkpt>
      <trkpt lat="46.844671983271837" lon="11.328053036704659">
        <ele>1971.3199999999999</ele>
        <time>2018-09-17T11:57:17Z</time>
      </trkpt>
      <trkpt lat="46.844767034053802" lon="11.328277001157403">
        <ele>1969.8800000000001</ele>
        <time>2018-09-17T11:57:18Z</time>
      </trkpt>
      <trkpt lat="46.845087977126241" lon="11.329222982749343">
        <ele>1963.6300000000001</ele>
        <time>2018-09-17T11:57:22Z</time>
      </trkpt>
      <trkpt lat="46.845154026523232" lon="11.329418029636145">
        <ele>1961.71</ele>
        <time>2018-09-17T11:57:23Z</time>
      </trkpt>
      <trkpt lat="46.845272965729237" lon="11.329555995762348">
        <ele>1960.27</ele>
        <time>2018-09-17T11:57:24Z</time>
      </trkpt>
      <trkpt lat="46.845411015674472" lon="11.329683987423778">
        <ele>1958.3399999999999</ele>
        <time>2018-09-17T11:57:25Z</time>
      </trkpt>
      <trkpt lat="46.845558034256101" lon="11.329820025712252">
        <ele>1956.9000000000001</ele>
        <time>2018-09-17T11:57:26Z</time>
      </trkpt>
      <trkpt lat="46.846324978396297" lon="11.330460989847779">
        <ele>1948.25</ele>
        <time>2018-09-17T11:57:31Z</time>
      </trkpt>
      <trkpt lat="46.846407037228346" lon="11.330613037571311">
        <ele>1946.3299999999999</ele>
        <time>2018-09-17T11:57:32Z</time>
      </trkpt>
      <trkpt lat="46.846495969220996" lon="11.330775981768966">
        <ele>1944.8800000000001</ele>
        <time>2018-09-17T11:57:33Z</time>
      </trkpt>
      <trkpt lat="46.84708203189075" lon="11.332036033272743">
        <ele>1935.27</ele>
        <time>2018-09-17T11:57:39Z</time>
      </trkpt>
      <trkpt lat="46.847174987196922" lon="11.332187997177243">
        <ele>1933.8299999999999</ele>
        <time>2018-09-17T11:57:40Z</time>
      </trkpt>
      <trkpt lat="46.847270037978888" lon="11.332306014373899">
        <ele>1932.3900000000001</ele>
        <time>2018-09-17T11:57:41Z</time>
      </trkpt>
      <trkpt lat="46.847377996891737" lon="11.332384971901774">
        <ele>1931.4300000000001</ele>
        <time>2018-09-17T11:57:42Z</time>
      </trkpt>
      <trkpt lat="46.847501965239644" lon="11.332423025742173">
        <ele>1930.46</ele>
        <time>2018-09-17T11:57:43Z</time>
      </trkpt>
      <trkpt lat="46.847636997699738" lon="11.332434006035328">
        <ele>1929.02</ele>
        <time>2018-09-17T11:57:44Z</time>
      </trkpt>
      <trkpt lat="46.847782004624605" lon="11.33241799660027">
        <ele>1928.0599999999999</ele>
        <time>2018-09-17T11:57:45Z</time>
      </trkpt>
      <trkpt lat="46.848236974328756" lon="11.332462001591921">
        <ele>1923.74</ele>
        <time>2018-09-17T11:57:48Z</time>
      </trkpt>
      <trkpt lat="46.848495975136757" lon="11.332528972998261">
        <ele>1921.3299999999999</ele>
        <time>2018-09-17T11:57:50Z</time>
      </trkpt>
      <trkpt lat="46.848589014261961" lon="11.332622012123466">
        <ele>1919.4100000000001</ele>
        <time>2018-09-17T11:57:51Z</time>
      </trkpt>
      <trkpt lat="46.848680041730404" lon="11.332768024876714">
        <ele>1917.97</ele>
        <time>2018-09-17T11:57:52Z</time>
      </trkpt>
      <trkpt lat="46.848747013136744" lon="11.332934992387891">
        <ele>1917.01</ele>
        <time>2018-09-17T11:57:53Z</time>
      </trkpt>
      <trkpt lat="46.848814990371466" lon="11.33310598321259">
        <ele>1915.5599999999999</ele>
        <time>2018-09-17T11:57:54Z</time>
      </trkpt>
      <trkpt lat="46.848914986476302" lon="11.333239004015923">
        <ele>1914.1199999999999</ele>
        <time>2018-09-17T11:57:55Z</time>
      </trkpt>
      <trkpt lat="46.849022023379803" lon="11.333369007334113">
        <ele>1913.1600000000001</ele>
        <time>2018-09-17T11:57:56Z</time>
      </trkpt>
      <trkpt lat="46.849173987284303" lon="11.333438996225595">
        <ele>1912.2</ele>
        <time>2018-09-17T11:57:57Z</time>
      </trkpt>
      <trkpt lat="46.849330980330706" lon="11.333510996773839">
        <ele>1910.76</ele>
        <time>2018-09-17T11:57:58Z</time>
      </trkpt>
      <trkpt lat="46.850789012387395" lon="11.33390000090003">
        <ele>1898.26</ele>
        <time>2018-09-17T11:58:06Z</time>
      </trkpt>
      <trkpt lat="46.850952040404081" lon="11.334011983126402">
        <ele>1895.8599999999999</ele>
        <time>2018-09-17T11:58:07Z</time>
      </trkpt>
      <trkpt lat="46.851108027622104" lon="11.334120025858283">
        <ele>1893.9300000000001</ele>
        <time>2018-09-17T11:58:08Z</time>
      </trkpt>
      <trkpt lat="46.851256974041462" lon="11.33422396145761">
        <ele>1892.01</ele>
        <time>2018-09-17T11:58:09Z</time>
      </trkpt>
      <trkpt lat="46.851384965702891" lon="11.33432999253273">
        <ele>1890.5699999999999</ele>
        <time>2018-09-17T11:58:10Z</time>
      </trkpt>
      <trkpt lat="46.851475993171334" lon="11.33443602360785">
        <ele>1889.1300000000001</ele>
        <time>2018-09-17T11:58:11Z</time>
      </trkpt>
      <trkpt lat="46.851538019254804" lon="11.334601985290647">
        <ele>1887.6900000000001</ele>
        <time>2018-09-17T11:58:12Z</time>
      </trkpt>
      <trkpt lat="46.851604990661144" lon="11.334779011085629">
        <ele>1886.24</ele>
        <time>2018-09-17T11:58:13Z</time>
      </trkpt>
      <trkpt lat="46.851604990661144" lon="11.334912031888962">
        <ele>1884.8</ele>
        <time>2018-09-17T11:58:14Z</time>
      </trkpt>
      <trkpt lat="46.851570038124919" lon="11.335083022713661">
        <ele>1883.3599999999999</ele>
        <time>2018-09-17T11:58:15Z</time>
      </trkpt>
      <trkpt lat="46.851527038961649" lon="11.335244961082935">
        <ele>1881.9200000000001</ele>
        <time>2018-09-17T11:58:16Z</time>
      </trkpt>
      <trkpt lat="46.851482028141618" lon="11.335413018241525">
        <ele>1880.48</ele>
        <time>2018-09-17T11:58:17Z</time>
      </trkpt>
      <trkpt lat="46.851437017321587" lon="11.335585014894605">
        <ele>1879.03</ele>
        <time>2018-09-17T11:58:18Z</time>
      </trkpt>
      <trkpt lat="46.851420002058148" lon="11.335757011547685">
        <ele>1878.0699999999999</ele>
        <time>2018-09-17T11:58:19Z</time>
      </trkpt>
      <trkpt lat="46.851443974301219" lon="11.335959015414119">
        <ele>1876.6300000000001</ele>
        <time>2018-09-17T11:58:20Z</time>
      </trkpt>
      <trkpt lat="46.851469036191702" lon="11.336177028715611">
        <ele>1875.6700000000001</ele>
        <time>2018-09-17T11:58:21Z</time>
      </trkpt>
      <trkpt lat="46.851557968184352" lon="11.336877001449466">
        <ele>1871.8199999999999</ele>
        <time>2018-09-17T11:58:24Z</time>
      </trkpt>
      <trkpt lat="46.851610019803047" lon="11.337111024186015">
        <ele>1870.3800000000001</ele>
        <time>2018-09-17T11:58:25Z</time>
      </trkpt>
      <trkpt lat="46.851691994816065" lon="11.337343035265803">
        <ele>1869.4200000000001</ele>
        <time>2018-09-17T11:58:26Z</time>
      </trkpt>
      <trkpt lat="46.852419041097164" lon="11.339214965701103">
        <ele>1857.8900000000001</ele>
        <time>2018-09-17T11:58:34Z</time>
      </trkpt>
      <trkpt lat="46.852510990574956" lon="11.339381011202931">
        <ele>1856.4400000000001</ele>
        <time>2018-09-17T11:58:35Z</time>
      </trkpt>
      <trkpt lat="46.853422019630671" lon="11.340670986101031">
        <ele>1847.3099999999999</ele>
        <time>2018-09-17T11:58:42Z</time>
      </trkpt>
      <trkpt lat="46.854389039799571" lon="11.341496016830206">
        <ele>1840.0999999999999</ele>
        <time>2018-09-17T11:58:48Z</time>
      </trkpt>
      <trkpt lat="46.854576040059328" lon="11.341574974358082">
        <ele>1838.6600000000001</ele>
        <time>2018-09-17T11:58:49Z</time>
      </trkpt>
      <trkpt lat="46.854937970638275" lon="11.341728027909994">
        <ele>1836.26</ele>
        <time>2018-09-17T11:58:51Z</time>
      </trkpt>
      <trkpt lat="46.855102004483342" lon="11.341797010973096">
        <ele>1834.8099999999999</ele>
        <time>2018-09-17T11:58:52Z</time>
      </trkpt>
      <trkpt lat="46.855243993923068" lon="11.341857025399804">
        <ele>1832.8900000000001</ele>
        <time>2018-09-17T11:58:53Z</time>
      </trkpt>
      <trkpt lat="46.855390006676316" lon="11.341830035671592">
        <ele>1830.97</ele>
        <time>2018-09-17T11:58:54Z</time>
      </trkpt>
      <trkpt lat="46.855525961145759" lon="11.341801034286618">
        <ele>1829.05</ele>
        <time>2018-09-17T11:58:55Z</time>
      </trkpt>
      <trkpt lat="46.855651019141078" lon="11.341773038730025">
        <ele>1827.1199999999999</ele>
        <time>2018-09-17T11:58:56Z</time>
      </trkpt>
      <trkpt lat="46.855885041877627" lon="11.341721992939711">
        <ele>1823.76</ele>
        <time>2018-09-17T11:58:58Z</time>
      </trkpt>
      <trkpt lat="46.855985037982464" lon="11.341749988496304">
        <ele>1822.8</ele>
        <time>2018-09-17T11:58:59Z</time>
      </trkpt>
      <trkpt lat="46.856074975803494" lon="11.34182701818645">
        <ele>1821.3499999999999</ele>
        <time>2018-09-17T11:59:00Z</time>
      </trkpt>
      <trkpt lat="46.85614999383688" lon="11.341950986534357">
        <ele>1820.3900000000001</ele>
        <time>2018-09-17T11:59:01Z</time>
      </trkpt>
      <trkpt lat="46.856220988556743" lon="11.342104962095618">
        <ele>1818.95</ele>
        <time>2018-09-17T11:59:02Z</time>
      </trkpt>
      <trkpt lat="46.8562369979918" lon="11.342289028689265">
        <ele>1817.99</ele>
        <time>2018-09-17T11:59:03Z</time>
      </trkpt>
      <trkpt lat="46.856254013255239" lon="11.342482985928655">
        <ele>1817.03</ele>
        <time>2018-09-17T11:59:04Z</time>
      </trkpt>
      <trkpt lat="46.856271028518677" lon="11.342684989795089">
        <ele>1815.5899999999999</ele>
        <time>2018-09-17T11:59:05Z</time>
      </trkpt>
      <trkpt lat="46.856289971619844" lon="11.342899985611439">
        <ele>1814.6300000000001</ele>
        <time>2018-09-17T11:59:06Z</time>
      </trkpt>
      <trkpt lat="46.856310004368424" lon="11.343126967549324">
        <ele>1813.1800000000001</ele>
        <time>2018-09-17T11:59:07Z</time>
      </trkpt>
      <trkpt lat="46.856334982439876" lon="11.343363001942635">
        <ele>1812.22</ele>
        <time>2018-09-17T11:59:08Z</time>
      </trkpt>
      <trkpt lat="46.856500022113323" lon="11.344502018764615">
        <ele>1805.97</ele>
        <time>2018-09-17T11:59:13Z</time>
      </trkpt>
      <trkpt lat="46.856550984084606" lon="11.344701005145907">
        <ele>1804.53</ele>
        <time>2018-09-17T11:59:14Z</time>
      </trkpt>
      <trkpt lat="46.856732033193111" lon="11.345110964030027">
        <ele>1802.1300000000001</ele>
        <time>2018-09-17T11:59:16Z</time>
      </trkpt>
      <trkpt lat="46.857199994847178" lon="11.346221985295415">
        <ele>1794.9200000000001</ele>
        <time>2018-09-17T11:59:21Z</time>
      </trkpt>
      <trkpt lat="46.857241988182068" lon="11.346455002203584">
        <ele>1793.48</ele>
        <time>2018-09-17T11:59:22Z</time>
      </trkpt>
      <trkpt lat="46.857285993173718" lon="11.34670302271843">
        <ele>1791.55</ele>
        <time>2018-09-17T11:59:23Z</time>
      </trkpt>
      <trkpt lat="46.857516998425126" lon="11.347986040636897">
        <ele>1780.98</ele>
        <time>2018-09-17T11:59:28Z</time>
      </trkpt>
      <trkpt lat="46.857596039772034" lon="11.348177986219525">
        <ele>1779.0599999999999</ele>
        <time>2018-09-17T11:59:29Z</time>
      </trkpt>
      <trkpt lat="46.857687989249825" lon="11.348361968994141">
        <ele>1777.1300000000001</ele>
        <time>2018-09-17T11:59:30Z</time>
      </trkpt>
      <trkpt lat="46.858289977535605" lon="11.349651021882892">
        <ele>1768</ele>
        <time>2018-09-17T11:59:36Z</time>
      </trkpt>
      <trkpt lat="46.858475971966982" lon="11.350154019892216">
        <ele>1763.6800000000001</ele>
        <time>2018-09-17T11:59:39Z</time>
      </trkpt>
      <trkpt lat="46.858563981950283" lon="11.3502929918468">
        <ele>1762.71</ele>
        <time>2018-09-17T11:59:40Z</time>
      </trkpt>
      <trkpt lat="46.858655009418726" lon="11.350436992943287">
        <ele>1761.27</ele>
        <time>2018-09-17T11:59:41Z</time>
      </trkpt>
      <trkpt lat="46.858843015506864" lon="11.350745027884841">
        <ele>1758.8699999999999</ele>
        <time>2018-09-17T11:59:43Z</time>
      </trkpt>
      <trkpt lat="46.858907975256443" lon="11.35093797929585">
        <ele>1757.9100000000001</ele>
        <time>2018-09-17T11:59:44Z</time>
      </trkpt>
      <trkpt lat="46.859035966917872" lon="11.351364031434059">
        <ele>1755.5</ele>
        <time>2018-09-17T11:59:46Z</time>
      </trkpt>
      <trkpt lat="46.859063962474465" lon="11.351606016978621">
        <ele>1753.5799999999999</ele>
        <time>2018-09-17T11:59:47Z</time>
      </trkpt>
      <trkpt lat="46.859092963859439" lon="11.351856971159577">
        <ele>1752.1400000000001</ele>
        <time>2018-09-17T11:59:48Z</time>
      </trkpt>
      <trkpt lat="46.859319023787975" lon="11.353752035647631">
        <ele>1739.6400000000001</ele>
        <time>2018-09-17T11:59:55Z</time>
      </trkpt>
      <trkpt lat="46.859500994905829" lon="11.354477992281318">
        <ele>1733.8800000000001</ele>
        <time>2018-09-17T11:59:59Z</time>
      </trkpt>
      <trkpt lat="46.859554974362254" lon="11.355074029415846">
        <ele>1730.03</ele>
        <time>2018-09-17T12:00:02Z</time>
      </trkpt>
      <trkpt lat="46.859572995454073" lon="11.355272009968758">
        <ele>1728.5899999999999</ele>
        <time>2018-09-17T12:00:03Z</time>
      </trkpt>
      <trkpt lat="46.859586993232369" lon="11.355478959158063">
        <ele>1727.1500000000001</ele>
        <time>2018-09-17T12:00:04Z</time>
      </trkpt>
      <trkpt lat="46.859586993232369" lon="11.355683980509639">
        <ele>1725.7</ele>
        <time>2018-09-17T12:00:05Z</time>
      </trkpt>
      <trkpt lat="46.859586993232369" lon="11.355873998254538">
        <ele>1724.26</ele>
        <time>2018-09-17T12:00:06Z</time>
      </trkpt>
      <trkpt lat="46.859586993232369" lon="11.356065021827817">
        <ele>1722.8199999999999</ele>
        <time>2018-09-17T12:00:07Z</time>
      </trkpt>
      <trkpt lat="46.859636027365923" lon="11.356220003217459">
        <ele>1721.3800000000001</ele>
        <time>2018-09-17T12:00:08Z</time>
      </trkpt>
      <trkpt lat="46.859696041792631" lon="11.356403985992074">
        <ele>1719.9400000000001</ele>
        <time>2018-09-17T12:00:09Z</time>
      </trkpt>
      <trkpt lat="46.859764019027352" lon="11.356614036485553">
        <ele>1717.53</ele>
        <time>2018-09-17T12:00:10Z</time>
      </trkpt>
      <trkpt lat="46.859886981546879" lon="11.357088033109903">
        <ele>1713.6900000000001</ele>
        <time>2018-09-17T12:00:12Z</time>
      </trkpt>
      <trkpt lat="46.860169032588601" lon="11.35826401412487">
        <ele>1703.1099999999999</ele>
        <time>2018-09-17T12:00:17Z</time>
      </trkpt>
      <trkpt lat="46.860226029530168" lon="11.35841203853488">
        <ele>1701.6700000000001</ele>
        <time>2018-09-17T12:00:18Z</time>
      </trkpt>
      <trkpt lat="46.860305992886424" lon="11.358562996610999">
        <ele>1700.23</ele>
        <time>2018-09-17T12:00:19Z</time>
      </trkpt>
      <trkpt lat="46.860478995367885" lon="11.35888603515923">
        <ele>1697.3399999999999</ele>
        <time>2018-09-17T12:00:21Z</time>
      </trkpt>
      <trkpt lat="46.860544038936496" lon="11.359047973528504">
        <ele>1696.3800000000001</ele>
        <time>2018-09-17T12:00:22Z</time>
      </trkpt>
      <trkpt lat="46.860574968159199" lon="11.359203960746527">
        <ele>1695.4200000000001</ele>
        <time>2018-09-17T12:00:23Z</time>
      </trkpt>
      <trkpt lat="46.860616961494088" lon="11.359413005411625">
        <ele>1694.46</ele>
        <time>2018-09-17T12:00:24Z</time>
      </trkpt>
      <trkpt lat="46.860593995079398" lon="11.359572010114789">
        <ele>1693.5</ele>
        <time>2018-09-17T12:00:25Z</time>
      </trkpt>
      <trkpt lat="46.860542027279735" lon="11.359780970960855">
        <ele>1692.0599999999999</ele>
        <time>2018-09-17T12:00:26Z</time>
      </trkpt>
      <trkpt lat="46.86046801507473" lon="11.359941987320781">
        <ele>1691.5799999999999</ele>
        <time>2018-09-17T12:00:27Z</time>
      </trkpt>
      <trkpt lat="46.860357960686088" lon="11.360084982588887">
        <ele>1690.6199999999999</ele>
        <time>2018-09-17T12:00:28Z</time>
      </trkpt>
      <trkpt lat="46.860272968187928" lon="11.360173998400569">
        <ele>1689.6500000000001</ele>
        <time>2018-09-17T12:00:29Z</time>
      </trkpt>
      <trkpt lat="46.860200967639685" lon="11.360250022262335">
        <ele>1689.1700000000001</ele>
        <time>2018-09-17T12:00:30Z</time>
      </trkpt>
      <trkpt lat="46.860140031203628" lon="11.360313976183534">
        <ele>1688.6900000000001</ele>
        <time>2018-09-17T12:00:31Z</time>
      </trkpt>
      <trkpt lat="46.860058978199959" lon="11.360399974510074">
        <ele>1687.73</ele>
        <time>2018-09-17T12:00:32Z</time>
      </trkpt>
      <trkpt lat="46.860055960714817" lon="11.360420007258654">
        <ele>1687.25</ele>
        <time>2018-09-17T12:00:33Z</time>
      </trkpt>
      <trkpt lat="46.860076999291778" lon="11.360568031668663">
        <ele>1686.77</ele>
        <time>2018-09-17T12:00:34Z</time>
      </trkpt>
      <trkpt lat="46.860101977363229" lon="11.360593009740114">
        <ele>1686.29</ele>
        <time>2018-09-17T12:00:35Z</time>
      </trkpt>
      <trkpt lat="46.860218988731503" lon="11.360502988100052">
        <ele>1686.29</ele>
        <time>2018-09-17T12:00:36Z</time>
      </trkpt>
      <trkpt lat="46.860287971794605" lon="11.360451020300388">
        <ele>1686.29</ele>
        <time>2018-09-17T12:00:37Z</time>
      </trkpt>
      <trkpt lat="46.860367013141513" lon="11.36039100587368">
        <ele>1686.29</ele>
        <time>2018-09-17T12:00:38Z</time>
      </trkpt>
      <trkpt lat="46.860457034781575" lon="11.360322022810578">
        <ele>1685.8099999999999</ele>
        <time>2018-09-17T12:00:39Z</time>
      </trkpt>
      <trkpt lat="46.860553007572889" lon="11.360249016433954">
        <ele>1685.3299999999999</ele>
        <time>2018-09-17T12:00:40Z</time>
      </trkpt>
      <trkpt lat="46.860884008929133" lon="11.359995966777205">
        <ele>1683.4100000000001</ele>
        <time>2018-09-17T12:00:43Z</time>
      </trkpt>
      <trkpt lat="46.860969001427293" lon="11.359883984550834">
        <ele>1682.9300000000001</ele>
        <time>2018-09-17T12:00:44Z</time>
      </trkpt>
      <trkpt lat="46.861043013632298" lon="11.359761022031307">
        <ele>1682.4400000000001</ele>
        <time>2018-09-17T12:00:45Z</time>
      </trkpt>
      <trkpt lat="46.861081989482045" lon="11.359602017328143">
        <ele>1681.96</ele>
        <time>2018-09-17T12:00:46Z</time>
      </trkpt>
      <trkpt lat="46.861121971160173" lon="11.359433960169554">
        <ele>1681.48</ele>
        <time>2018-09-17T12:00:47Z</time>
      </trkpt>
      <trkpt lat="46.861116020008922" lon="11.359302029013634">
        <ele>1680.52</ele>
        <time>2018-09-17T12:00:48Z</time>
      </trkpt>
      <trkpt lat="46.861088024452329" lon="11.359145035967231">
        <ele>1679.0799999999999</ele>
        <time>2018-09-17T12:00:49Z</time>
      </trkpt>
      <trkpt lat="46.861057011410594" lon="11.35897203348577">
        <ele>1678.5999999999999</ele>
        <time>2018-09-17T12:00:50Z</time>
      </trkpt>
      <trkpt lat="46.861021975055337" lon="11.358773969113827">
        <ele>1677.6400000000001</ele>
        <time>2018-09-17T12:00:51Z</time>
      </trkpt>
      <trkpt lat="46.860982999205589" lon="11.358554027974606">
        <ele>1676.6800000000001</ele>
        <time>2018-09-17T12:00:52Z</time>
      </trkpt>
      <trkpt lat="46.860815025866032" lon="11.35753302834928">
        <ele>1673.3099999999999</ele>
        <time>2018-09-17T12:00:56Z</time>
      </trkpt>
      <trkpt lat="46.86081301420927" lon="11.356557039543986">
        <ele>1668.99</ele>
        <time>2018-09-17T12:01:00Z</time>
      </trkpt>
      <trkpt lat="46.861074026674032" lon="11.354728024452925">
        <ele>1660.3299999999999</ele>
        <time>2018-09-17T12:01:07Z</time>
      </trkpt>
      <trkpt lat="46.861110990867019" lon="11.354463994503021">
        <ele>1658.8900000000001</ele>
        <time>2018-09-17T12:01:08Z</time>
      </trkpt>
      <trkpt lat="46.861131023615599" lon="11.35244102217257">
        <ele>1648.3199999999999</ele>
        <time>2018-09-17T12:01:16Z</time>
      </trkpt>
      <trkpt lat="46.861208975315094" lon="11.351978005841374">
        <ele>1645.9100000000001</ele>
        <time>2018-09-17T12:01:18Z</time>
      </trkpt>
      <trkpt lat="46.861296985298395" lon="11.351758986711502">
        <ele>1644.47</ele>
        <time>2018-09-17T12:01:19Z</time>
      </trkpt>
      <trkpt lat="46.861567972227931" lon="11.350943008437753">
        <ele>1638.7</ele>
        <time>2018-09-17T12:01:23Z</time>
      </trkpt>
      <trkpt lat="46.861604014411569" lon="11.350807975977659">
        <ele>1637.26</ele>
        <time>2018-09-17T12:01:24Z</time>
      </trkpt>
      <trkpt lat="46.861569983884692" lon="11.350620975717902">
        <ele>1635.8199999999999</ele>
        <time>2018-09-17T12:01:25Z</time>
      </trkpt>
      <trkpt lat="46.861548023298383" lon="11.350502958521247">
        <ele>1634.8599999999999</ele>
        <time>2018-09-17T12:01:26Z</time>
      </trkpt>
      <trkpt lat="46.861528996378183" lon="11.350393993780017">
        <ele>1633.4200000000001</ele>
        <time>2018-09-17T12:01:27Z</time>
      </trkpt>
      <trkpt lat="46.861525978893042" lon="11.350306989625096">
        <ele>1632.46</ele>
        <time>2018-09-17T12:01:28Z</time>
      </trkpt>
      <trkpt lat="46.861547017470002" lon="11.350232977420092">
        <ele>1631.98</ele>
        <time>2018-09-17T12:01:29Z</time>
      </trkpt>
      <trkpt lat="46.861576018854976" lon="11.350186038762331">
        <ele>1630.53</ele>
        <time>2018-09-17T12:01:30Z</time>
      </trkpt>
      <trkpt lat="46.861623963341117" lon="11.350186038762331">
        <ele>1629.5699999999999</ele>
        <time>2018-09-17T12:01:31Z</time>
      </trkpt>
      <trkpt lat="46.861676014959812" lon="11.350234989076853">
        <ele>1628.6099999999999</ele>
        <time>2018-09-17T12:01:32Z</time>
      </trkpt>
      <trkpt lat="46.861717002466321" lon="11.35035996325314">
        <ele>1627.6500000000001</ele>
        <time>2018-09-17T12:01:33Z</time>
      </trkpt>
      <trkpt lat="46.861731000244617" lon="11.350514022633433">
        <ele>1626.6900000000001</ele>
        <time>2018-09-17T12:01:34Z</time>
      </trkpt>
      <trkpt lat="46.861747009679675" lon="11.350693982094526">
        <ele>1626.21</ele>
        <time>2018-09-17T12:01:35Z</time>
      </trkpt>
      <trkpt lat="46.861765030771494" lon="11.350888023152947">
        <ele>1625.25</ele>
        <time>2018-09-17T12:01:36Z</time>
      </trkpt>
      <trkpt lat="46.861766958609223" lon="11.35111098177731">
        <ele>1624.28</ele>
        <time>2018-09-17T12:01:37Z</time>
      </trkpt>
      <trkpt lat="46.86165296472609" lon="11.352642020210624">
        <ele>1618.04</ele>
        <time>2018-09-17T12:01:43Z</time>
      </trkpt>
      <trkpt lat="46.861677020788193" lon="11.352841006591916">
        <ele>1617.0699999999999</ele>
        <time>2018-09-17T12:01:44Z</time>
      </trkpt>
      <trkpt lat="46.861698981374502" lon="11.353024989366531">
        <ele>1615.6300000000001</ele>
        <time>2018-09-17T12:01:45Z</time>
      </trkpt>
      <trkpt lat="46.861744998022914" lon="11.353180976584554">
        <ele>1614.6700000000001</ele>
        <time>2018-09-17T12:01:46Z</time>
      </trkpt>
      <trkpt lat="46.861835019662976" lon="11.353330006822944">
        <ele>1613.71</ele>
        <time>2018-09-17T12:01:47Z</time>
      </trkpt>
      <trkpt lat="46.861931998282671" lon="11.353490017354488">
        <ele>1612.27</ele>
        <time>2018-09-17T12:01:48Z</time>
      </trkpt>
      <trkpt lat="46.862126039341092" lon="11.353810960426927">
        <ele>1609.8599999999999</ele>
        <time>2018-09-17T12:01:50Z</time>
      </trkpt>
      <trkpt lat="46.862204996868968" lon="11.353940963745117">
        <ele>1608.9000000000001</ele>
        <time>2018-09-17T12:01:51Z</time>
      </trkpt>
      <trkpt lat="46.862326031550765" lon="11.354003995656967">
        <ele>1608.4200000000001</ele>
        <time>2018-09-17T12:01:52Z</time>
      </trkpt>
      <trkpt lat="46.862443964928389" lon="11.354066021740437">
        <ele>1607.46</ele>
        <time>2018-09-17T12:01:53Z</time>
      </trkpt>
      <trkpt lat="46.862562987953424" lon="11.354127964004874">
        <ele>1606.5</ele>
        <time>2018-09-17T12:01:54Z</time>
      </trkpt>
      <trkpt lat="46.862675976008177" lon="11.354186972603202">
        <ele>1606.02</ele>
        <time>2018-09-17T12:01:55Z</time>
      </trkpt>
      <trkpt lat="46.862759962677956" lon="11.354281017556787">
        <ele>1604.5799999999999</ele>
        <time>2018-09-17T12:01:56Z</time>
      </trkpt>
      <trkpt lat="46.862848978489637" lon="11.354400040581822">
        <ele>1603.6199999999999</ele>
        <time>2018-09-17T12:01:57Z</time>
      </trkpt>
      <trkpt lat="46.862917961552739" lon="11.354554016143084">
        <ele>1602.6600000000001</ele>
        <time>2018-09-17T12:01:58Z</time>
      </trkpt>
      <trkpt lat="46.862971018999815" lon="11.354755014181137">
        <ele>1601.21</ele>
        <time>2018-09-17T12:01:59Z</time>
      </trkpt>
      <trkpt lat="46.863148966804147" lon="11.355420034378767">
        <ele>1597.3699999999999</ele>
        <time>2018-09-17T12:02:02Z</time>
      </trkpt>
      <trkpt lat="46.863202024251223" lon="11.355616003274918">
        <ele>1596.4100000000001</ele>
        <time>2018-09-17T12:02:03Z</time>
      </trkpt>
      <trkpt lat="46.863299002870917" lon="11.355763021856546">
        <ele>1595.45</ele>
        <time>2018-09-17T12:02:04Z</time>
      </trkpt>
      <trkpt lat="46.863396987318993" lon="11.355883972719312">
        <ele>1594.48</ele>
        <time>2018-09-17T12:02:05Z</time>
      </trkpt>
      <trkpt lat="46.863496983423829" lon="11.356012970209122">
        <ele>1593.04</ele>
        <time>2018-09-17T12:02:06Z</time>
      </trkpt>
      <trkpt lat="46.863560015335679" lon="11.35618002153933">
        <ele>1591.5999999999999</ele>
        <time>2018-09-17T12:02:07Z</time>
      </trkpt>
      <trkpt lat="46.863631010055542" lon="11.356367021799088">
        <ele>1590.6400000000001</ele>
        <time>2018-09-17T12:02:08Z</time>
      </trkpt>
      <trkpt lat="46.863693036139011" lon="11.356583023443818">
        <ele>1589.6800000000001</ele>
        <time>2018-09-17T12:02:09Z</time>
      </trkpt>
      <trkpt lat="46.863852962851524" lon="11.357551971450448">
        <ele>1585.3499999999999</ele>
        <time>2018-09-17T12:02:13Z</time>
      </trkpt>
      <trkpt lat="46.863878024742007" lon="11.357824970036745">
        <ele>1583.9100000000001</ele>
        <time>2018-09-17T12:02:14Z</time>
      </trkpt>
      <trkpt lat="46.863794960081577" lon="11.358796013519168">
        <ele>1578.6199999999999</ele>
        <time>2018-09-17T12:02:18Z</time>
      </trkpt>
      <trkpt lat="46.863753972575068" lon="11.35940202511847">
        <ele>1574.78</ele>
        <time>2018-09-17T12:02:21Z</time>
      </trkpt>
      <trkpt lat="46.863765036687255" lon="11.359582990407944">
        <ele>1573.3299999999999</ele>
        <time>2018-09-17T12:02:22Z</time>
      </trkpt>
      <trkpt lat="46.863795965909958" lon="11.359763033688068">
        <ele>1572.3699999999999</ele>
        <time>2018-09-17T12:02:23Z</time>
      </trkpt>
      <trkpt lat="46.863865032792091" lon="11.359957996755838">
        <ele>1570.9300000000001</ele>
        <time>2018-09-17T12:02:24Z</time>
      </trkpt>
      <trkpt lat="46.863936027511954" lon="11.360161006450653">
        <ele>1569.97</ele>
        <time>2018-09-17T12:02:25Z</time>
      </trkpt>
      <trkpt lat="46.864179018884897" lon="11.360849998891354">
        <ele>1565.1600000000001</ele>
        <time>2018-09-17T12:02:29Z</time>
      </trkpt>
      <trkpt lat="46.864162003621459" lon="11.361001040786505">
        <ele>1564.2</ele>
        <time>2018-09-17T12:02:30Z</time>
      </trkpt>
      <trkpt lat="46.864111041650176" lon="11.361101036891341">
        <ele>1563.72</ele>
        <time>2018-09-17T12:02:31Z</time>
      </trkpt>
      <trkpt lat="46.864039041101933" lon="11.361190974712372">
        <ele>1563.24</ele>
        <time>2018-09-17T12:02:32Z</time>
      </trkpt>
      <trkpt lat="46.863959999755025" lon="11.361289964988828">
        <ele>1562.76</ele>
        <time>2018-09-17T12:02:33Z</time>
      </trkpt>
      <trkpt lat="46.863899985328317" lon="11.361364983022213">
        <ele>1562.76</ele>
        <time>2018-09-17T12:02:34Z</time>
      </trkpt>
      <trkpt lat="46.863813987001777" lon="11.361601017415524">
        <ele>1562.28</ele>
        <time>2018-09-17T12:02:35Z</time>
      </trkpt>
      <trkpt lat="46.863818010315299" lon="11.361644016578794">
        <ele>1561.8</ele>
        <time>2018-09-17T12:02:36Z</time>
      </trkpt>
      <trkpt lat="46.863833013921976" lon="11.361788017675281">
        <ele>1561.3199999999999</ele>
        <time>2018-09-17T12:02:37Z</time>
      </trkpt>
      <trkpt lat="46.863867966458201" lon="11.361933024600148">
        <ele>1560.8399999999999</ele>
        <time>2018-09-17T12:02:38Z</time>
      </trkpt>
      <trkpt lat="46.863904008641839" lon="11.362059004604816">
        <ele>1560.3599999999999</ele>
        <time>2018-09-17T12:02:39Z</time>
      </trkpt>
      <trkpt lat="46.863937033340335" lon="11.362180039286613">
        <ele>1559.4000000000001</ele>
        <time>2018-09-17T12:02:40Z</time>
      </trkpt>
      <trkpt lat="46.863967040553689" lon="11.362285986542702">
        <ele>1558.9200000000001</ele>
        <time>2018-09-17T12:02:41Z</time>
      </trkpt>
      <trkpt lat="46.863995958119631" lon="11.362367039546371">
        <ele>1558.4300000000001</ele>
        <time>2018-09-17T12:02:42Z</time>
      </trkpt>
      <trkpt lat="46.864038035273552" lon="11.362422024831176">
        <ele>1557.95</ele>
        <time>2018-09-17T12:02:43Z</time>
      </trkpt>
      <trkpt lat="46.864050021395087" lon="11.362438034266233">
        <ele>1557.47</ele>
        <time>2018-09-17T12:02:44Z</time>
      </trkpt>
      <trkpt lat="46.864088997244835" lon="11.36241196654737">
        <ele>1556.99</ele>
        <time>2018-09-17T12:02:45Z</time>
      </trkpt>
      <trkpt lat="46.864050021395087" lon="11.362438034266233">
        <ele>1556.51</ele>
        <time>2018-09-17T12:02:46Z</time>
      </trkpt>
      <trkpt lat="46.864050021395087" lon="11.362438034266233">
        <ele>1556.03</ele>
        <time>2018-09-17T12:02:47Z</time>
      </trkpt>
      <trkpt lat="46.864113975316286" lon="11.362395035102963">
        <ele>1555.55</ele>
        <time>2018-09-17T12:02:48Z</time>
      </trkpt>
      <trkpt lat="46.864113975316286" lon="11.362395035102963">
        <ele>1555.0699999999999</ele>
        <time>2018-09-17T12:02:50Z</time>
      </trkpt>
      <trkpt lat="46.864113975316286" lon="11.362395035102963">
        <ele>1554.5899999999999</ele>
        <time>2018-09-17T12:02:51Z</time>
      </trkpt>
      <trkpt lat="46.864113975316286" lon="11.362395035102963">
        <ele>1554.1099999999999</ele>
        <time>2018-09-17T12:03:05Z</time>
      </trkpt>
      <trkpt lat="46.864113975316286" lon="11.362395035102963">
        <ele>1553.6300000000001</ele>
        <time>2018-09-17T12:03:36Z</time>
      </trkpt>
      <trkpt lat="46.864117998629808" lon="11.362378019839525">
        <ele>1554.5899999999999</ele>
        <time>2018-09-17T12:04:33Z</time>
      </trkpt>
      <trkpt lat="46.864136019721627" lon="11.362287998199463">
        <ele>1556.03</ele>
        <time>2018-09-17T12:04:34Z</time>
      </trkpt>
      <trkpt lat="46.864135013893247" lon="11.362283974885941">
        <ele>1556.51</ele>
        <time>2018-09-17T12:04:35Z</time>
      </trkpt>
      <trkpt lat="46.864111963659525" lon="11.362184984609485">
        <ele>1556.03</ele>
        <time>2018-09-17T12:04:36Z</time>
      </trkpt>
      <trkpt lat="46.864084973931313" lon="11.362069984897971">
        <ele>1555.55</ele>
        <time>2018-09-17T12:04:37Z</time>
      </trkpt>
      <trkpt lat="46.8640579842031" lon="11.361956996843219">
        <ele>1555.55</ele>
        <time>2018-09-17T12:04:38Z</time>
      </trkpt>
      <trkpt lat="46.864050021395087" lon="11.361848032101989">
        <ele>1554.5899999999999</ele>
        <time>2018-09-17T12:04:39Z</time>
      </trkpt>
      <trkpt lat="46.864059995859861" lon="11.361694978550076">
        <ele>1554.1099999999999</ele>
        <time>2018-09-17T12:04:40Z</time>
      </trkpt>
      <trkpt lat="46.864125961437821" lon="11.361603029072285">
        <ele>1553.1500000000001</ele>
        <time>2018-09-17T12:04:41Z</time>
      </trkpt>
      <trkpt lat="46.864201985299587" lon="11.361525999382138">
        <ele>1552.1900000000001</ele>
        <time>2018-09-17T12:04:42Z</time>
      </trkpt>
      <trkpt lat="46.864284966140985" lon="11.361467996612191">
        <ele>1551.22</ele>
        <time>2018-09-17T12:04:43Z</time>
      </trkpt>
      <trkpt lat="46.864372976124287" lon="11.361404964700341">
        <ele>1550.74</ele>
        <time>2018-09-17T12:04:44Z</time>
      </trkpt>
      <trkpt lat="46.864457968622446" lon="11.361344028264284">
        <ele>1549.78</ele>
        <time>2018-09-17T12:04:45Z</time>
      </trkpt>
      <trkpt lat="46.864528963342309" lon="11.361201032996178">
        <ele>1549.3</ele>
        <time>2018-09-17T12:04:46Z</time>
      </trkpt>
      <trkpt lat="46.864565005525947" lon="11.361129032447934">
        <ele>1548.8199999999999</ele>
        <time>2018-09-17T12:04:47Z</time>
      </trkpt>
      <trkpt lat="46.864600963890553" lon="11.3609270285815">
        <ele>1548.3399999999999</ele>
        <time>2018-09-17T12:04:48Z</time>
      </trkpt>
      <trkpt lat="46.864630971103907" lon="11.360760983079672">
        <ele>1547.8599999999999</ele>
        <time>2018-09-17T12:04:49Z</time>
      </trkpt>
      <trkpt lat="46.864771032705903" lon="11.359973000362515">
        <ele>1544.98</ele>
        <time>2018-09-17T12:04:53Z</time>
      </trkpt>
      <trkpt lat="46.864832974970341" lon="11.35978801175952">
        <ele>1544.01</ele>
        <time>2018-09-17T12:04:54Z</time>
      </trkpt>
      <trkpt lat="46.86489500105381" lon="11.359626995399594">
        <ele>1543.05</ele>
        <time>2018-09-17T12:04:55Z</time>
      </trkpt>
      <trkpt lat="46.864956021308899" lon="11.35946799069643">
        <ele>1542.0899999999999</ele>
        <time>2018-09-17T12:04:56Z</time>
      </trkpt>
      <trkpt lat="46.865004971623421" lon="11.359288031235337">
        <ele>1541.1300000000001</ele>
        <time>2018-09-17T12:04:57Z</time>
      </trkpt>
      <trkpt lat="46.865035984665155" lon="11.359059037640691">
        <ele>1540.1700000000001</ele>
        <time>2018-09-17T12:04:58Z</time>
      </trkpt>
      <trkpt lat="46.865071021020412" lon="11.358803976327181">
        <ele>1539.21</ele>
        <time>2018-09-17T12:04:59Z</time>
      </trkpt>
      <trkpt lat="46.865106979385018" lon="11.35854103602469">
        <ele>1538.25</ele>
        <time>2018-09-17T12:05:00Z</time>
      </trkpt>
      <trkpt lat="46.865346031263471" lon="11.356816040351987">
        <ele>1531.52</ele>
        <time>2018-09-17T12:05:07Z</time>
      </trkpt>
      <trkpt lat="46.865356005728245" lon="11.356598027050495">
        <ele>1530.5599999999999</ele>
        <time>2018-09-17T12:05:08Z</time>
      </trkpt>
      <trkpt lat="46.865338990464807" lon="11.356195025146008">
        <ele>1528.1500000000001</ele>
        <time>2018-09-17T12:05:10Z</time>
      </trkpt>
      <trkpt lat="46.865300014615059" lon="11.356006013229489">
        <ele>1526.71</ele>
        <time>2018-09-17T12:05:11Z</time>
      </trkpt>
      <trkpt lat="46.865213010460138" lon="11.355614997446537">
        <ele>1523.8299999999999</ele>
        <time>2018-09-17T12:05:13Z</time>
      </trkpt>
      <trkpt lat="46.865223990753293" lon="11.355403019115329">
        <ele>1522.3900000000001</ele>
        <time>2018-09-17T12:05:14Z</time>
      </trkpt>
      <trkpt lat="46.86523798853159" lon="11.355229010805488">
        <ele>1520.9400000000001</ele>
        <time>2018-09-17T12:05:15Z</time>
      </trkpt>
      <trkpt lat="46.865251986309886" lon="11.355057014152408">
        <ele>1519.5</ele>
        <time>2018-09-17T12:05:16Z</time>
      </trkpt>
      <trkpt lat="46.865234971046448" lon="11.354923993349075">
        <ele>1518.54</ele>
        <time>2018-09-17T12:05:17Z</time>
      </trkpt>
      <trkpt lat="46.865219967439771" lon="11.354806981980801">
        <ele>1517.5799999999999</ele>
        <time>2018-09-17T12:05:18Z</time>
      </trkpt>
      <trkpt lat="46.865208987146616" lon="11.354714026674628">
        <ele>1516.1400000000001</ele>
        <time>2018-09-17T12:05:19Z</time>
      </trkpt>
      <trkpt lat="46.865260032936931" lon="11.354648983106017">
        <ele>1514.6900000000001</ele>
        <time>2018-09-17T12:05:20Z</time>
      </trkpt>
      <trkpt lat="46.865291967988014" lon="11.354609001427889">
        <ele>1512.77</ele>
        <time>2018-09-17T12:05:21Z</time>
      </trkpt>
      <trkpt lat="46.865361034870148" lon="11.354665998369455">
        <ele>1511.8099999999999</ele>
        <time>2018-09-17T12:05:22Z</time>
      </trkpt>
      <trkpt lat="46.865443009883165" lon="11.354739004746079">
        <ele>1510.3699999999999</ele>
        <time>2018-09-17T12:05:23Z</time>
      </trkpt>
      <trkpt lat="46.865548035129905" lon="11.354806981980801">
        <ele>1509.4100000000001</ele>
        <time>2018-09-17T12:05:24Z</time>
      </trkpt>
      <trkpt lat="46.865670997649431" lon="11.354830032214522">
        <ele>1508.45</ele>
        <time>2018-09-17T12:05:25Z</time>
      </trkpt>
      <trkpt lat="46.865808963775635" lon="11.354856016114354">
        <ele>1507</ele>
        <time>2018-09-17T12:05:26Z</time>
      </trkpt>
      <trkpt lat="46.865948019549251" lon="11.354883005842566">
        <ele>1506.04</ele>
        <time>2018-09-17T12:05:27Z</time>
      </trkpt>
      <trkpt lat="46.866075005382299" lon="11.354911001399159">
        <ele>1505.0799999999999</ele>
        <time>2018-09-17T12:05:28Z</time>
      </trkpt>
      <trkpt lat="46.866186987608671" lon="11.354965986683965">
        <ele>1504.1199999999999</ele>
        <time>2018-09-17T12:05:29Z</time>
      </trkpt>
      <trkpt lat="46.866273991763592" lon="11.355061959475279">
        <ele>1503.1600000000001</ele>
        <time>2018-09-17T12:05:30Z</time>
      </trkpt>
      <trkpt lat="46.866362001746893" lon="11.355214007198811">
        <ele>1502.6800000000001</ele>
        <time>2018-09-17T12:05:31Z</time>
      </trkpt>
      <trkpt lat="46.866408018395305" lon="11.355418022722006">
        <ele>1502.2</ele>
        <time>2018-09-17T12:05:32Z</time>
      </trkpt>
      <trkpt lat="46.866458980366588" lon="11.355645004659891">
        <ele>1501.24</ele>
        <time>2018-09-17T12:05:33Z</time>
      </trkpt>
      <trkpt lat="46.866513965651393" lon="11.355887996032834">
        <ele>1500.76</ele>
        <time>2018-09-17T12:05:34Z</time>
      </trkpt>
      <trkpt lat="46.866568028926849" lon="11.356125958263874">
        <ele>1499.79</ele>
        <time>2018-09-17T12:05:35Z</time>
      </trkpt>
      <trkpt lat="46.866617985069752" lon="11.356346989050508">
        <ele>1499.3099999999999</ele>
        <time>2018-09-17T12:05:36Z</time>
      </trkpt>
      <trkpt lat="46.866666013374925" lon="11.356558967381716">
        <ele>1498.3499999999999</ele>
        <time>2018-09-17T12:05:37Z</time>
      </trkpt>
      <trkpt lat="46.866754023358226" lon="11.356945037841797">
        <ele>1496.4300000000001</ele>
        <time>2018-09-17T12:05:39Z</time>
      </trkpt>
      <trkpt lat="46.866814959794283" lon="11.357098007574677">
        <ele>1495.47</ele>
        <time>2018-09-17T12:05:40Z</time>
      </trkpt>
      <trkpt lat="46.866896012797952" lon="11.357241002842784">
        <ele>1494.99</ele>
        <time>2018-09-17T12:05:41Z</time>
      </trkpt>
      <trkpt lat="46.866995003074408" lon="11.357385003939271">
        <ele>1494.99</ele>
        <time>2018-09-17T12:05:42Z</time>
      </trkpt>
      <trkpt lat="46.867094999179244" lon="11.357564041391015">
        <ele>1494.03</ele>
        <time>2018-09-17T12:05:43Z</time>
      </trkpt>
      <trkpt lat="46.867178985849023" lon="11.357766967266798">
        <ele>1492.5799999999999</ele>
        <time>2018-09-17T12:05:44Z</time>
      </trkpt>
      <trkpt lat="46.867336984723806" lon="11.358171980828047">
        <ele>1490.6600000000001</ele>
        <time>2018-09-17T12:05:46Z</time>
      </trkpt>
      <trkpt lat="46.867418959736824" lon="11.358383037149906">
        <ele>1489.7</ele>
        <time>2018-09-17T12:05:47Z</time>
      </trkpt>
      <trkpt lat="46.867449972778559" lon="11.35858797468245">
        <ele>1488.26</ele>
        <time>2018-09-17T12:05:48Z</time>
      </trkpt>
      <trkpt lat="46.867477968335152" lon="11.358767012134194">
        <ele>1487.3</ele>
        <time>2018-09-17T12:05:49Z</time>
      </trkpt>
      <trkpt lat="46.867505041882396" lon="11.358941020444036">
        <ele>1485.8499999999999</ele>
        <time>2018-09-17T12:05:50Z</time>
      </trkpt>
      <trkpt lat="46.867475034669042" lon="11.359050991013646">
        <ele>1484.4100000000001</ele>
        <time>2018-09-17T12:05:51Z</time>
      </trkpt>
      <trkpt lat="46.86742901802063" lon="11.35918996296823">
        <ele>1482.97</ele>
        <time>2018-09-17T12:05:52Z</time>
      </trkpt>
      <trkpt lat="46.867341008037329" lon="11.35929599404335">
        <ele>1481.53</ele>
        <time>2018-09-17T12:05:53Z</time>
      </trkpt>
      <trkpt lat="46.867246963083744" lon="11.359407976269722">
        <ele>1480.0899999999999</ele>
        <time>2018-09-17T12:05:54Z</time>
      </trkpt>
      <trkpt lat="46.867156019434333" lon="11.359518030658364">
        <ele>1478.6500000000001</ele>
        <time>2018-09-17T12:05:55Z</time>
      </trkpt>
      <trkpt lat="46.867104973644018" lon="11.359649961814284">
        <ele>1477.2</ele>
        <time>2018-09-17T12:05:56Z</time>
      </trkpt>
      <trkpt lat="46.867075972259045" lon="11.359835034236312">
        <ele>1475.76</ele>
        <time>2018-09-17T12:05:57Z</time>
      </trkpt>
      <trkpt lat="46.867047976702452" lon="11.360011976212263">
        <ele>1473.8399999999999</ele>
        <time>2018-09-17T12:05:58Z</time>
      </trkpt>
      <trkpt lat="46.86702199280262" lon="11.36017601005733">
        <ele>1472.4000000000001</ele>
        <time>2018-09-17T12:05:59Z</time>
      </trkpt>
      <trkpt lat="46.867000032216311" lon="11.360314982011914">
        <ele>1470.47</ele>
        <time>2018-09-17T12:06:00Z</time>
      </trkpt>
      <trkpt lat="46.867009000852704" lon="11.360431993380189">
        <ele>1468.55</ele>
        <time>2018-09-17T12:06:01Z</time>
      </trkpt>
      <trkpt lat="46.867075972259045" lon="11.360613964498043">
        <ele>1467.1099999999999</ele>
        <time>2018-09-17T12:06:02Z</time>
      </trkpt>
      <trkpt lat="46.86712902970612" lon="11.360672973096371">
        <ele>1465.1900000000001</ele>
        <time>2018-09-17T12:06:03Z</time>
      </trkpt>
      <trkpt lat="46.867207987233996" lon="11.360758971422911">
        <ele>1463.74</ele>
        <time>2018-09-17T12:06:04Z</time>
      </trkpt>
      <trkpt lat="46.867312006652355" lon="11.360871959477663">
        <ele>1462.3</ele>
        <time>2018-09-17T12:06:05Z</time>
      </trkpt>
      <trkpt lat="46.867312006652355" lon="11.36099299415946">
        <ele>1460.8599999999999</ele>
        <time>2018-09-17T12:06:06Z</time>
      </trkpt>
      <trkpt lat="46.867288034409285" lon="11.361147975549102">
        <ele>1459.4200000000001</ele>
        <time>2018-09-17T12:06:07Z</time>
      </trkpt>
      <trkpt lat="46.867249980568886" lon="11.361286025494337">
        <ele>1457.98</ele>
        <time>2018-09-17T12:06:08Z</time>
      </trkpt>
      <trkpt lat="46.867204969748855" lon="11.361451987177134">
        <ele>1457.02</ele>
        <time>2018-09-17T12:06:09Z</time>
      </trkpt>
      <trkpt lat="46.867250986397266" lon="11.361545026302338">
        <ele>1456.05</ele>
        <time>2018-09-17T12:06:10Z</time>
      </trkpt>
      <trkpt lat="46.8673010263592" lon="11.361646028235555">
        <ele>1455.0899999999999</ele>
        <time>2018-09-17T12:06:11Z</time>
      </trkpt>
      <trkpt lat="46.867412002757192" lon="11.361742001026869">
        <ele>1454.1300000000001</ele>
        <time>2018-09-17T12:06:12Z</time>
      </trkpt>
      <trkpt lat="46.867525996640325" lon="11.361791035160422">
        <ele>1453.1700000000001</ele>
        <time>2018-09-17T12:06:13Z</time>
      </trkpt>
      <trkpt lat="46.867649964988232" lon="11.361839985474944">
        <ele>1452.21</ele>
        <time>2018-09-17T12:06:14Z</time>
      </trkpt>
      <trkpt lat="46.867770999670029" lon="11.361862029880285">
        <ele>1450.77</ele>
        <time>2018-09-17T12:06:15Z</time>
      </trkpt>
      <trkpt lat="46.867889016866684" lon="11.361882984638214">
        <ele>1449.8099999999999</ele>
        <time>2018-09-17T12:06:16Z</time>
      </trkpt>
      <trkpt lat="46.868103006854653" lon="11.361910980194807">
        <ele>1447.4000000000001</ele>
        <time>2018-09-17T12:06:18Z</time>
      </trkpt>
      <trkpt lat="46.868195962160826" lon="11.361931012943387">
        <ele>1445.96</ele>
        <time>2018-09-17T12:06:19Z</time>
      </trkpt>
      <trkpt lat="46.868254970759153" lon="11.362028997391462">
        <ele>1445</ele>
        <time>2018-09-17T12:06:20Z</time>
      </trkpt>
      <trkpt lat="46.868316996842623" lon="11.362150032073259">
        <ele>1443.5599999999999</ele>
        <time>2018-09-17T12:06:21Z</time>
      </trkpt>
      <trkpt lat="46.868292018771172" lon="11.362267965450883">
        <ele>1442.5999999999999</ele>
        <time>2018-09-17T12:06:22Z</time>
      </trkpt>
      <trkpt lat="46.868255976587534" lon="11.362438034266233">
        <ele>1441.6300000000001</ele>
        <time>2018-09-17T12:06:23Z</time>
      </trkpt>
      <trkpt lat="46.868198979645967" lon="11.362541969865561">
        <ele>1440.6700000000001</ele>
        <time>2018-09-17T12:06:24Z</time>
      </trkpt>
      <trkpt lat="46.868126979097724" lon="11.362671973183751">
        <ele>1440.1900000000001</ele>
        <time>2018-09-17T12:06:25Z</time>
      </trkpt>
      <trkpt lat="46.867932016029954" lon="11.363024013116956">
        <ele>1438.27</ele>
        <time>2018-09-17T12:06:28Z</time>
      </trkpt>
      <trkpt lat="46.86790301464498" lon="11.363138007000089">
        <ele>1437.79</ele>
        <time>2018-09-17T12:06:29Z</time>
      </trkpt>
      <trkpt lat="46.867890022695065" lon="11.36324898339808">
        <ele>1437.3099999999999</ele>
        <time>2018-09-17T12:06:30Z</time>
      </trkpt>
      <trkpt lat="46.867877030745149" lon="11.363360965624452">
        <ele>1436.8299999999999</ele>
        <time>2018-09-17T12:06:31Z</time>
      </trkpt>
      <trkpt lat="46.867873007431626" lon="11.363489963114262">
        <ele>1436.3499999999999</ele>
        <time>2018-09-17T12:06:32Z</time>
      </trkpt>
      <trkpt lat="46.867896979674697" lon="11.363897994160652">
        <ele>1433.9400000000001</ele>
        <time>2018-09-17T12:06:35Z</time>
      </trkpt>
      <trkpt lat="46.867915000766516" lon="11.364222960546613">
        <ele>1432.98</ele>
        <time>2018-09-17T12:06:37Z</time>
      </trkpt>
      <trkpt lat="46.867926986888051" lon="11.364419013261795">
        <ele>1432.02</ele>
        <time>2018-09-17T12:06:38Z</time>
      </trkpt>
      <trkpt lat="46.867868984118104" lon="11.365157961845398">
        <ele>1429.1400000000001</ele>
        <time>2018-09-17T12:06:41Z</time>
      </trkpt>
      <trkpt lat="46.867762031033635" lon="11.365872016176581">
        <ele>1426.73</ele>
        <time>2018-09-17T12:06:44Z</time>
      </trkpt>
      <trkpt lat="46.867783991619945" lon="11.366036972030997">
        <ele>1425.77</ele>
        <time>2018-09-17T12:06:45Z</time>
      </trkpt>
      <trkpt lat="46.867824979126453" lon="11.366226989775896">
        <ele>1425.29</ele>
        <time>2018-09-17T12:06:46Z</time>
      </trkpt>
      <trkpt lat="46.867926986888051" lon="11.366348024457693">
        <ele>1424.8099999999999</ele>
        <time>2018-09-17T12:06:47Z</time>
      </trkpt>
      <trkpt lat="46.868045004084706" lon="11.366446008905768">
        <ele>1423.8499999999999</ele>
        <time>2018-09-17T12:06:48Z</time>
      </trkpt>
      <trkpt lat="46.868170984089375" lon="11.366550028324127">
        <ele>1423.8499999999999</ele>
        <time>2018-09-17T12:06:49Z</time>
      </trkpt>
      <trkpt lat="46.868296964094043" lon="11.366653963923454">
        <ele>1423.3699999999999</ele>
        <time>2018-09-17T12:06:50Z</time>
      </trkpt>
      <trkpt lat="46.869175974279642" lon="11.367456028237939">
        <ele>1418.0799999999999</ele>
        <time>2018-09-17T12:06:58Z</time>
      </trkpt>
      <trkpt lat="46.86992104165256" lon="11.368335038423538">
        <ele>1411.3499999999999</ele>
        <time>2018-09-17T12:07:03Z</time>
      </trkpt>
      <trkpt lat="46.870176019147038" lon="11.368676014244556">
        <ele>1408.47</ele>
        <time>2018-09-17T12:07:05Z</time>
      </trkpt>
      <trkpt lat="46.870294036343694" lon="11.368833007290959">
        <ele>1406.55</ele>
        <time>2018-09-17T12:07:06Z</time>
      </trkpt>
      <trkpt lat="46.870341980829835" lon="11.369014978408813">
        <ele>1405.5799999999999</ele>
        <time>2018-09-17T12:07:07Z</time>
      </trkpt>
      <trkpt lat="46.870447006076574" lon="11.369408005848527">
        <ele>1402.7</ele>
        <time>2018-09-17T12:07:09Z</time>
      </trkpt>
      <trkpt lat="46.870530992746353" lon="11.369614033028483">
        <ele>1400.78</ele>
        <time>2018-09-17T12:07:10Z</time>
      </trkpt>
      <trkpt lat="46.870665019378066" lon="11.369773959740996">
        <ele>1399.3399999999999</ele>
        <time>2018-09-17T12:07:11Z</time>
      </trkpt>
      <trkpt lat="46.87080399133265" lon="11.369937993586063">
        <ele>1397.8900000000001</ele>
        <time>2018-09-17T12:07:12Z</time>
      </trkpt>
      <trkpt lat="46.870915973559022" lon="11.370148966088891">
        <ele>1396.45</ele>
        <time>2018-09-17T12:07:13Z</time>
      </trkpt>
      <trkpt lat="46.871011024340987" lon="11.370348958298564">
        <ele>1395.49</ele>
        <time>2018-09-17T12:07:14Z</time>
      </trkpt>
      <trkpt lat="46.87108101323247" lon="11.370556997135282">
        <ele>1393.5699999999999</ele>
        <time>2018-09-17T12:07:15Z</time>
      </trkpt>
      <trkpt lat="46.871133986860514" lon="11.370775010436773">
        <ele>1392.6099999999999</ele>
        <time>2018-09-17T12:07:16Z</time>
      </trkpt>
      <trkpt lat="46.871157037094235" lon="11.371010039001703">
        <ele>1391.6500000000001</ele>
        <time>2018-09-17T12:07:17Z</time>
      </trkpt>
      <trkpt lat="46.871256027370691" lon="11.37201402336359">
        <ele>1386.8399999999999</ele>
        <time>2018-09-17T12:07:21Z</time>
      </trkpt>
      <trkpt lat="46.87123398296535" lon="11.372261960059404">
        <ele>1385.4000000000001</ele>
        <time>2018-09-17T12:07:22Z</time>
      </trkpt>
      <trkpt lat="46.871172040700912" lon="11.37276504188776">
        <ele>1382.99</ele>
        <time>2018-09-17T12:07:24Z</time>
      </trkpt>
      <trkpt lat="46.871091993525624" lon="11.37298196554184">
        <ele>1381.55</ele>
        <time>2018-09-17T12:07:25Z</time>
      </trkpt>
      <trkpt lat="46.871010018512607" lon="11.373200984671712">
        <ele>1380.1099999999999</ele>
        <time>2018-09-17T12:07:26Z</time>
      </trkpt>
      <trkpt lat="46.870922008529305" lon="11.373422015458345">
        <ele>1378.6700000000001</ele>
        <time>2018-09-17T12:07:27Z</time>
      </trkpt>
      <trkpt lat="46.870839027687907" lon="11.373634999617934">
        <ele>1377.23</ele>
        <time>2018-09-17T12:07:28Z</time>
      </trkpt>
      <trkpt lat="46.870785970240831" lon="11.373887965455651">
        <ele>1375.3</ele>
        <time>2018-09-17T12:07:29Z</time>
      </trkpt>
      <trkpt lat="46.870552031323314" lon="11.374918017536402">
        <ele>1369.05</ele>
        <time>2018-09-17T12:07:33Z</time>
      </trkpt>
      <trkpt lat="46.870493022724986" lon="11.375128990039229">
        <ele>1367.6099999999999</ele>
        <time>2018-09-17T12:07:34Z</time>
      </trkpt>
      <trkpt lat="46.870463015511632" lon="11.375328982248902">
        <ele>1366.6500000000001</ele>
        <time>2018-09-17T12:07:35Z</time>
      </trkpt>
      <trkpt lat="46.870455974712968" lon="11.375523023307323">
        <ele>1365.21</ele>
        <time>2018-09-17T12:07:36Z</time>
      </trkpt>
      <trkpt lat="46.870451029390097" lon="11.375701976940036">
        <ele>1363.77</ele>
        <time>2018-09-17T12:07:37Z</time>
      </trkpt>
      <trkpt lat="46.870444994419813" lon="11.375874979421496">
        <ele>1362.3299999999999</ele>
        <time>2018-09-17T12:07:38Z</time>
      </trkpt>
      <trkpt lat="46.870494028553367" lon="11.376000037416816">
        <ele>1361.8399999999999</ele>
        <time>2018-09-17T12:07:39Z</time>
      </trkpt>
      <trkpt lat="46.870550019666553" lon="11.376120988279581">
        <ele>1360.8800000000001</ele>
        <time>2018-09-17T12:07:40Z</time>
      </trkpt>
      <trkpt lat="46.870624031871557" lon="11.376188965514302">
        <ele>1360.4000000000001</ele>
        <time>2018-09-17T12:07:41Z</time>
      </trkpt>
      <trkpt lat="46.870728973299265" lon="11.376227019354701">
        <ele>1359.9200000000001</ele>
        <time>2018-09-17T12:07:42Z</time>
      </trkpt>
      <trkpt lat="46.870853025466204" lon="11.376272030174732">
        <ele>1358.96</ele>
        <time>2018-09-17T12:07:43Z</time>
      </trkpt>
      <trkpt lat="46.871127029880881" lon="11.376361967995763">
        <ele>1357.04</ele>
        <time>2018-09-17T12:07:45Z</time>
      </trkpt>
      <trkpt lat="46.871258961036801" lon="11.376341013237834">
        <ele>1356.5599999999999</ele>
        <time>2018-09-17T12:07:46Z</time>
      </trkpt>
      <trkpt lat="46.871391981840134" lon="11.376318968832493">
        <ele>1355.5999999999999</ele>
        <time>2018-09-17T12:07:47Z</time>
      </trkpt>
      <trkpt lat="46.871516034007072" lon="11.376249985769391">
        <ele>1355.1199999999999</ele>
        <time>2018-09-17T12:07:48Z</time>
      </trkpt>
      <trkpt lat="46.871634973213077" lon="11.37618200853467">
        <ele>1354.1500000000001</ele>
        <time>2018-09-17T12:07:49Z</time>
      </trkpt>
      <trkpt lat="46.87174997292459" lon="11.376116964966059">
        <ele>1353.1900000000001</ele>
        <time>2018-09-17T12:07:50Z</time>
      </trkpt>
      <trkpt lat="46.871859021484852" lon="11.376056028530002">
        <ele>1352.23</ele>
        <time>2018-09-17T12:07:51Z</time>
      </trkpt>
      <trkpt lat="46.871978966519237" lon="11.376086035743356">
        <ele>1350.79</ele>
        <time>2018-09-17T12:07:52Z</time>
      </trkpt>
      <trkpt lat="46.872075023129582" lon="11.376128029078245">
        <ele>1349.8299999999999</ele>
        <time>2018-09-17T12:07:53Z</time>
      </trkpt>
      <trkpt lat="46.872160015627742" lon="11.376256020739675">
        <ele>1348.8699999999999</ele>
        <time>2018-09-17T12:07:54Z</time>
      </trkpt>
      <trkpt lat="46.872215000912547" lon="11.37639700435102">
        <ele>1347.9100000000001</ele>
        <time>2018-09-17T12:07:55Z</time>
      </trkpt>
      <trkpt lat="46.87224299646914" lon="11.376587022095919">
        <ele>1346.46</ele>
        <time>2018-09-17T12:07:56Z</time>
      </trkpt>
      <trkpt lat="46.872276021167636" lon="11.37680796906352">
        <ele>1345.5</ele>
        <time>2018-09-17T12:07:57Z</time>
      </trkpt>
      <trkpt lat="46.872536027804017" lon="11.378948958590627">
        <ele>1334.45</ele>
        <time>2018-09-17T12:08:05Z</time>
      </trkpt>
      <trkpt lat="46.872595036402345" lon="11.379410969093442">
        <ele>1332.04</ele>
        <time>2018-09-17T12:08:07Z</time>
      </trkpt>
      <trkpt lat="46.872640969231725" lon="11.379592018201947">
        <ele>1330.5999999999999</ele>
        <time>2018-09-17T12:08:08Z</time>
      </trkpt>
      <trkpt lat="46.872637029737234" lon="11.379742976278067">
        <ele>1329.1600000000001</ele>
        <time>2018-09-17T12:08:09Z</time>
      </trkpt>
      <trkpt lat="46.872611967846751" lon="11.379883037880063">
        <ele>1327.72</ele>
        <time>2018-09-17T12:08:10Z</time>
      </trkpt>
      <trkpt lat="46.872548013925552" lon="11.379967024549842">
        <ele>1326.76</ele>
        <time>2018-09-17T12:08:11Z</time>
      </trkpt>
      <trkpt lat="46.872466960921884" lon="11.380073977634311">
        <ele>1324.8299999999999</ele>
        <time>2018-09-17T12:08:12Z</time>
      </trkpt>
      <trkpt lat="46.872382974252105" lon="11.380183026194572">
        <ele>1323.3900000000001</ele>
        <time>2018-09-17T12:08:13Z</time>
      </trkpt>
      <trkpt lat="46.872300999239087" lon="11.380290985107422">
        <ele>1321.47</ele>
        <time>2018-09-17T12:08:14Z</time>
      </trkpt>
      <trkpt lat="46.872261017560959" lon="11.380428029224277">
        <ele>1320.03</ele>
        <time>2018-09-17T12:08:15Z</time>
      </trkpt>
      <trkpt lat="46.872250037267804" lon="11.380572030320764">
        <ele>1318.5899999999999</ele>
        <time>2018-09-17T12:08:16Z</time>
      </trkpt>
      <trkpt lat="46.872304016724229" lon="11.380684012547135">
        <ele>1317.1400000000001</ele>
        <time>2018-09-17T12:08:17Z</time>
      </trkpt>
      <trkpt lat="46.872384985908866" lon="11.380786020308733">
        <ele>1316.1800000000001</ele>
        <time>2018-09-17T12:08:18Z</time>
      </trkpt>
      <trkpt lat="46.872480036690831" lon="11.380904037505388">
        <ele>1315.22</ele>
        <time>2018-09-17T12:08:19Z</time>
      </trkpt>
      <trkpt lat="46.872583972290158" lon="11.381034040823579">
        <ele>1314.26</ele>
        <time>2018-09-17T12:08:20Z</time>
      </trkpt>
      <trkpt lat="46.872666031122208" lon="11.381212994456291">
        <ele>1313.3</ele>
        <time>2018-09-17T12:08:21Z</time>
      </trkpt>
      <trkpt lat="46.872730990871787" lon="11.381408041343093">
        <ele>1312.8199999999999</ele>
        <time>2018-09-17T12:08:22Z</time>
      </trkpt>
      <trkpt lat="46.872793016955256" lon="11.381601998582482">
        <ele>1311.8599999999999</ele>
        <time>2018-09-17T12:08:23Z</time>
      </trkpt>
      <trkpt lat="46.872875997796655" lon="11.381767960265279">
        <ele>1310.9000000000001</ele>
        <time>2018-09-17T12:08:24Z</time>
      </trkpt>
      <trkpt lat="46.872985968366265" lon="11.381903998553753">
        <ele>1309.9300000000001</ele>
        <time>2018-09-17T12:08:25Z</time>
      </trkpt>
      <trkpt lat="46.87310297973454" lon="11.382046993821859">
        <ele>1309.45</ele>
        <time>2018-09-17T12:08:26Z</time>
      </trkpt>
      <trkpt lat="46.873439010232687" lon="11.382525013759732">
        <ele>1306.0899999999999</ele>
        <time>2018-09-17T12:08:29Z</time>
      </trkpt>
      <trkpt lat="46.873544035479426" lon="11.382702039554715">
        <ele>1304.6500000000001</ele>
        <time>2018-09-17T12:08:30Z</time>
      </trkpt>
      <trkpt lat="46.873619975522161" lon="11.382903959602118">
        <ele>1303.2</ele>
        <time>2018-09-17T12:08:31Z</time>
      </trkpt>
      <trkpt lat="46.873680995777249" lon="11.383111998438835">
        <ele>1301.76</ele>
        <time>2018-09-17T12:08:32Z</time>
      </trkpt>
      <trkpt lat="46.873703962191939" lon="11.383335962891579">
        <ele>1300.3199999999999</ele>
        <time>2018-09-17T12:08:33Z</time>
      </trkpt>
      <trkpt lat="46.8737250007689" lon="11.383571997284889">
        <ele>1298.8800000000001</ele>
        <time>2018-09-17T12:08:34Z</time>
      </trkpt>
      <trkpt lat="46.87374796718359" lon="11.383819011971354">
        <ele>1297.4400000000001</ele>
        <time>2018-09-17T12:08:35Z</time>
      </trkpt>
      <trkpt lat="46.873770011588931" lon="11.384068038314581">
        <ele>1295.99</ele>
        <time>2018-09-17T12:08:36Z</time>
      </trkpt>
      <trkpt lat="46.873757019639015" lon="11.384300971403718">
        <ele>1294.55</ele>
        <time>2018-09-17T12:08:37Z</time>
      </trkpt>
      <trkpt lat="46.873615030199289" lon="11.385966958478093">
        <ele>1283.5</ele>
        <time>2018-09-17T12:08:44Z</time>
      </trkpt>
      <trkpt lat="46.873554009944201" lon="11.386283962056041">
        <ele>1281.5699999999999</ele>
        <time>2018-09-17T12:08:46Z</time>
      </trkpt>
      <trkpt lat="46.873563984408975" lon="11.386440033093095">
        <ele>1280.6099999999999</ele>
        <time>2018-09-17T12:08:47Z</time>
      </trkpt>
      <trkpt lat="46.873632967472076" lon="11.386566013097763">
        <ele>1279.6500000000001</ele>
        <time>2018-09-17T12:08:48Z</time>
      </trkpt>
      <trkpt lat="46.873797001317143" lon="11.386889973655343">
        <ele>1277.25</ele>
        <time>2018-09-17T12:08:50Z</time>
      </trkpt>
      <trkpt lat="46.87383103184402" lon="11.387092983350158">
        <ele>1276.29</ele>
        <time>2018-09-17T12:08:51Z</time>
      </trkpt>
      <trkpt lat="46.87385500408709" lon="11.387315019965172">
        <ele>1274.8499999999999</ele>
        <time>2018-09-17T12:08:52Z</time>
      </trkpt>
      <trkpt lat="46.873849974945188" lon="11.387550970539451">
        <ele>1273.4000000000001</ele>
        <time>2018-09-17T12:08:53Z</time>
      </trkpt>
      <trkpt lat="46.873845029622316" lon="11.387797985225916">
        <ele>1271.96</ele>
        <time>2018-09-17T12:08:54Z</time>
      </trkpt>
      <trkpt lat="46.873823991045356" lon="11.388455964624882">
        <ele>1267.6400000000001</ele>
        <time>2018-09-17T12:08:57Z</time>
      </trkpt>
      <trkpt lat="46.873775962740183" lon="11.388630978763103">
        <ele>1266.1900000000001</ele>
        <time>2018-09-17T12:08:58Z</time>
      </trkpt>
      <trkpt lat="46.873700022697449" lon="11.388791995123029">
        <ele>1264.27</ele>
        <time>2018-09-17T12:08:59Z</time>
      </trkpt>
      <trkpt lat="46.873619975522161" lon="11.388959968462586">
        <ele>1262.8299999999999</ele>
        <time>2018-09-17T12:09:00Z</time>
      </trkpt>
      <trkpt lat="46.873594997450709" lon="11.389176975935698">
        <ele>1261.3900000000001</ele>
        <time>2018-09-17T12:09:01Z</time>
      </trkpt>
      <trkpt lat="46.873571025207639" lon="11.389381997287273">
        <ele>1259.46</ele>
        <time>2018-09-17T12:09:02Z</time>
      </trkpt>
      <trkpt lat="46.873576976358891" lon="11.389581989496946">
        <ele>1258.02</ele>
        <time>2018-09-17T12:09:03Z</time>
      </trkpt>
      <trkpt lat="46.873630033805966" lon="11.38973998837173">
        <ele>1257.0599999999999</ele>
        <time>2018-09-17T12:09:04Z</time>
      </trkpt>
      <trkpt lat="46.873679989948869" lon="11.389891030266881">
        <ele>1255.6199999999999</ele>
        <time>2018-09-17T12:09:05Z</time>
      </trkpt>
      <trkpt lat="46.873755007982254" lon="11.390010975301266">
        <ele>1255.1400000000001</ele>
        <time>2018-09-17T12:09:06Z</time>
      </trkpt>
      <trkpt lat="46.873857015743852" lon="11.390100996941328">
        <ele>1254.1800000000001</ele>
        <time>2018-09-17T12:09:07Z</time>
      </trkpt>
      <trkpt lat="46.873956006020308" lon="11.390186995267868">
        <ele>1253.7</ele>
        <time>2018-09-17T12:09:08Z</time>
      </trkpt>
      <trkpt lat="46.87404896132648" lon="11.390268970280886">
        <ele>1252.74</ele>
        <time>2018-09-17T12:09:09Z</time>
      </trkpt>
      <trkpt lat="46.874120961874723" lon="11.390382964164019">
        <ele>1251.77</ele>
        <time>2018-09-17T12:09:10Z</time>
      </trkpt>
      <trkpt lat="46.87417502515018" lon="11.390525037422776">
        <ele>1251.29</ele>
        <time>2018-09-17T12:09:11Z</time>
      </trkpt>
      <trkpt lat="46.874217018485069" lon="11.390713965520263">
        <ele>1249.8499999999999</ele>
        <time>2018-09-17T12:09:12Z</time>
      </trkpt>
      <trkpt lat="46.874264040961862" lon="11.390930972993374">
        <ele>1248.8900000000001</ele>
        <time>2018-09-17T12:09:13Z</time>
      </trkpt>
      <trkpt lat="46.874410975724459" lon="11.391643015667796">
        <ele>1245.53</ele>
        <time>2018-09-17T12:09:16Z</time>
      </trkpt>
      <trkpt lat="46.874446012079716" lon="11.391889024525881">
        <ele>1244.5599999999999</ele>
        <time>2018-09-17T12:09:17Z</time>
      </trkpt>
      <trkpt lat="46.874517006799579" lon="11.392387999221683">
        <ele>1242.1600000000001</ele>
        <time>2018-09-17T12:09:19Z</time>
      </trkpt>
      <trkpt lat="46.874566962942481" lon="11.39263803139329">
        <ele>1240.72</ele>
        <time>2018-09-17T12:09:20Z</time>
      </trkpt>
      <trkpt lat="46.874643992632627" lon="11.392869958654046">
        <ele>1239.76</ele>
        <time>2018-09-17T12:09:21Z</time>
      </trkpt>
      <trkpt lat="46.874830992892385" lon="11.393511006608605">
        <ele>1235.4300000000001</ele>
        <time>2018-09-17T12:09:24Z</time>
      </trkpt>
      <trkpt lat="46.874848008155823" lon="11.393694989383221">
        <ele>1233.51</ele>
        <time>2018-09-17T12:09:25Z</time>
      </trkpt>
      <trkpt lat="46.874859994277358" lon="11.393836978822947">
        <ele>1232.0699999999999</ele>
        <time>2018-09-17T12:09:26Z</time>
      </trkpt>
      <trkpt lat="46.874869968742132" lon="11.393948961049318">
        <ele>1231.1099999999999</ele>
        <time>2018-09-17T12:09:27Z</time>
      </trkpt>
      <trkpt lat="46.874879021197557" lon="11.394050968810916">
        <ele>1230.1400000000001</ele>
        <time>2018-09-17T12:09:28Z</time>
      </trkpt>
      <trkpt lat="46.874890001490712" lon="11.394131015986204">
        <ele>1229.6600000000001</ele>
        <time>2018-09-17T12:09:29Z</time>
      </trkpt>
      <trkpt lat="46.87495001591742" lon="11.394131015986204">
        <ele>1228.7</ele>
        <time>2018-09-17T12:09:30Z</time>
      </trkpt>
      <trkpt lat="46.875002989545465" lon="11.394131015986204">
        <ele>1227.74</ele>
        <time>2018-09-17T12:09:31Z</time>
      </trkpt>
      <trkpt lat="46.87503601424396" lon="11.394003024324775">
        <ele>1227.26</ele>
        <time>2018-09-17T12:09:32Z</time>
      </trkpt>
      <trkpt lat="46.875013969838619" lon="11.393884001299739">
        <ele>1226.78</ele>
        <time>2018-09-17T12:09:33Z</time>
      </trkpt>
      <trkpt lat="46.874991003423929" lon="11.393762966617942">
        <ele>1226.3</ele>
        <time>2018-09-17T12:09:34Z</time>
      </trkpt>
      <trkpt lat="46.874968959018588" lon="11.393611002713442">
        <ele>1225.8199999999999</ele>
        <time>2018-09-17T12:09:35Z</time>
      </trkpt>
      <trkpt lat="46.874956972897053" lon="11.393417967483401">
        <ele>1224.8599999999999</ele>
        <time>2018-09-17T12:09:36Z</time>
      </trkpt>
      <trkpt lat="46.874942975118756" lon="11.393199032172561">
        <ele>1224.3800000000001</ele>
        <time>2018-09-17T12:09:37Z</time>
      </trkpt>
      <trkpt lat="46.87492897734046" lon="11.392972972244024">
        <ele>1222.9300000000001</ele>
        <time>2018-09-17T12:09:38Z</time>
      </trkpt>
      <trkpt lat="46.874883966520429" lon="11.3927480019629">
        <ele>1221.97</ele>
        <time>2018-09-17T12:09:39Z</time>
      </trkpt>
      <trkpt lat="46.874830992892385" lon="11.392346005886793">
        <ele>1219.0899999999999</ele>
        <time>2018-09-17T12:09:41Z</time>
      </trkpt>
      <trkpt lat="46.874853037297726" lon="11.392134027555585">
        <ele>1217.6500000000001</ele>
        <time>2018-09-17T12:09:42Z</time>
      </trkpt>
      <trkpt lat="46.874877009540796" lon="11.391900004819036">
        <ele>1216.21</ele>
        <time>2018-09-17T12:09:43Z</time>
      </trkpt>
      <trkpt lat="46.874892013147473" lon="11.391637986525893">
        <ele>1214.28</ele>
        <time>2018-09-17T12:09:44Z</time>
      </trkpt>
      <trkpt lat="46.874901987612247" lon="11.391363982111216">
        <ele>1212.3599999999999</ele>
        <time>2018-09-17T12:09:45Z</time>
      </trkpt>
      <trkpt lat="46.874911962077022" lon="11.391096012666821">
        <ele>1209.96</ele>
        <time>2018-09-17T12:09:46Z</time>
      </trkpt>
      <trkpt lat="46.87492897734046" lon="11.390634002164006">
        <ele>1205.6300000000001</ele>
        <time>2018-09-17T12:09:48Z</time>
      </trkpt>
      <trkpt lat="46.874991003423929" lon="11.390438033267856">
        <ele>1203.71</ele>
        <time>2018-09-17T12:09:49Z</time>
      </trkpt>
      <trkpt lat="46.87505898065865" lon="11.390223959460855">
        <ele>1202.27</ele>
        <time>2018-09-17T12:09:50Z</time>
      </trkpt>
      <trkpt lat="46.875341031700373" lon="11.389292981475592">
        <ele>1195.54</ele>
        <time>2018-09-17T12:09:54Z</time>
      </trkpt>
      <trkpt lat="46.87535997480154" lon="11.389061976224184">
        <ele>1194.0899999999999</ele>
        <time>2018-09-17T12:09:55Z</time>
      </trkpt>
      <trkpt lat="46.875377995893359" lon="11.388830970972776">
        <ele>1193.1300000000001</ele>
        <time>2018-09-17T12:09:56Z</time>
      </trkpt>
      <trkpt lat="46.875397022813559" lon="11.388607006520033">
        <ele>1192.1700000000001</ele>
        <time>2018-09-17T12:09:57Z</time>
      </trkpt>
      <trkpt lat="46.875373972579837" lon="11.388373989611864">
        <ele>1191.6900000000001</ele>
        <time>2018-09-17T12:09:58Z</time>
      </trkpt>
      <trkpt lat="46.875344971194863" lon="11.388177014887333">
        <ele>1190.25</ele>
        <time>2018-09-17T12:09:59Z</time>
      </trkpt>
      <trkpt lat="46.875351006165147" lon="11.387997977435589">
        <ele>1189.29</ele>
        <time>2018-09-17T12:10:00Z</time>
      </trkpt>
      <trkpt lat="46.87540297396481" lon="11.387839978560805">
        <ele>1187.8499999999999</ele>
        <time>2018-09-17T12:10:01Z</time>
      </trkpt>
      <trkpt lat="46.875480003654957" lon="11.387669993564487">
        <ele>1186.4000000000001</ele>
        <time>2018-09-17T12:10:02Z</time>
      </trkpt>
      <trkpt lat="46.875554015859962" lon="11.387491039931774">
        <ele>1184.96</ele>
        <time>2018-09-17T12:10:03Z</time>
      </trkpt>
      <trkpt lat="46.87561503611505" lon="11.387301022186875">
        <ele>1184</ele>
        <time>2018-09-17T12:10:04Z</time>
      </trkpt>
      <trkpt lat="46.875665998086333" lon="11.38707596808672">
        <ele>1182.5599999999999</ele>
        <time>2018-09-17T12:10:05Z</time>
      </trkpt>
      <trkpt lat="46.875721989199519" lon="11.386827025562525">
        <ele>1181.5999999999999</ele>
        <time>2018-09-17T12:10:06Z</time>
      </trkpt>
      <trkpt lat="46.875776974484324" lon="11.386565007269382">
        <ele>1180.1600000000001</ele>
        <time>2018-09-17T12:10:07Z</time>
      </trkpt>
      <trkpt lat="46.875863978639245" lon="11.386067038401961">
        <ele>1177.75</ele>
        <time>2018-09-17T12:10:09Z</time>
      </trkpt>
      <trkpt lat="46.875887028872967" lon="11.385800996795297">
        <ele>1176.3099999999999</ele>
        <time>2018-09-17T12:10:10Z</time>
      </trkpt>
      <trkpt lat="46.876329006627202" lon="11.383798979222775">
        <ele>1164.77</ele>
        <time>2018-09-17T12:10:18Z</time>
      </trkpt>
      <trkpt lat="46.876340992748737" lon="11.383607033640146">
        <ele>1163.3299999999999</ele>
        <time>2018-09-17T12:10:19Z</time>
      </trkpt>
      <trkpt lat="46.876337975263596" lon="11.383430007845163">
        <ele>1162.3699999999999</ele>
        <time>2018-09-17T12:10:20Z</time>
      </trkpt>
      <trkpt lat="46.876310985535383" lon="11.383090959861875">
        <ele>1160.9300000000001</ele>
        <time>2018-09-17T12:10:22Z</time>
      </trkpt>
      <trkpt lat="46.876312997192144" lon="11.38292801566422">
        <ele>1159.97</ele>
        <time>2018-09-17T12:10:23Z</time>
      </trkpt>
      <trkpt lat="46.876348033547401" lon="11.382784014567733">
        <ele>1159.01</ele>
        <time>2018-09-17T12:10:24Z</time>
      </trkpt>
      <trkpt lat="46.876420034095645" lon="11.382485032081604">
        <ele>1158.05</ele>
        <time>2018-09-17T12:10:26Z</time>
      </trkpt>
      <trkpt lat="46.876458004117012" lon="11.382304988801479">
        <ele>1157.5599999999999</ele>
        <time>2018-09-17T12:10:27Z</time>
      </trkpt>
      <trkpt lat="46.876483988016844" lon="11.38209099881351">
        <ele>1157.0799999999999</ele>
        <time>2018-09-17T12:10:28Z</time>
      </trkpt>
      <trkpt lat="46.876619020476937" lon="11.380291990935802">
        <ele>1148.4300000000001</ele>
        <time>2018-09-17T12:10:35Z</time>
      </trkpt>
      <trkpt lat="46.876771990209818" lon="11.379386996850371">
        <ele>1139.78</ele>
        <time>2018-09-17T12:10:40Z</time>
      </trkpt>
      <trkpt lat="46.876812977716327" lon="11.379235032945871">
        <ele>1137.3800000000001</ele>
        <time>2018-09-17T12:10:42Z</time>
      </trkpt>
      <trkpt lat="46.876824041828513" lon="11.379210976883769">
        <ele>1136.4200000000001</ele>
        <time>2018-09-17T12:10:43Z</time>
      </trkpt>
      <trkpt lat="46.876867040991783" lon="11.37916898354888">
        <ele>1135.45</ele>
        <time>2018-09-17T12:10:44Z</time>
      </trkpt>
      <trkpt lat="46.876945998519659" lon="11.379089020192623">
        <ele>1134.49</ele>
        <time>2018-09-17T12:10:45Z</time>
      </trkpt>
      <trkpt lat="46.876982040703297" lon="11.379118021577597">
        <ele>1133.05</ele>
        <time>2018-09-17T12:10:46Z</time>
      </trkpt>
      <trkpt lat="46.87705697491765" lon="11.379210976883769">
        <ele>1132.0899999999999</ele>
        <time>2018-09-17T12:10:47Z</time>
      </trkpt>
      <trkpt lat="46.877068961039186" lon="11.379312984645367">
        <ele>1131.1300000000001</ele>
        <time>2018-09-17T12:10:48Z</time>
      </trkpt>
      <trkpt lat="46.877021016553044" lon="11.379452040418983">
        <ele>1130.1700000000001</ele>
        <time>2018-09-17T12:10:49Z</time>
      </trkpt>
      <trkpt lat="46.876955972984433" lon="11.379553964361548">
        <ele>1129.6900000000001</ele>
        <time>2018-09-17T12:10:50Z</time>
      </trkpt>
      <trkpt lat="46.87688397243619" lon="11.379664018750191">
        <ele>1128.73</ele>
        <time>2018-09-17T12:10:51Z</time>
      </trkpt>
      <trkpt lat="46.876850025728345" lon="11.379787987098098">
        <ele>1128.73</ele>
        <time>2018-09-17T12:10:52Z</time>
      </trkpt>
      <trkpt lat="46.876815995201468" lon="11.379914972931147">
        <ele>1128.24</ele>
        <time>2018-09-17T12:10:53Z</time>
      </trkpt>
      <trkpt lat="46.876848014071584" lon="11.38007003813982">
        <ele>1127.76</ele>
        <time>2018-09-17T12:10:54Z</time>
      </trkpt>
      <trkpt lat="46.87692403793335" lon="11.380185959860682">
        <ele>1127.28</ele>
        <time>2018-09-17T12:10:55Z</time>
      </trkpt>
      <trkpt lat="46.877012969926" lon="11.380321998149157">
        <ele>1126.8</ele>
        <time>2018-09-17T12:10:56Z</time>
      </trkpt>
      <trkpt lat="46.877107014879584" lon="11.380464993417263">
        <ele>1126.3199999999999</ele>
        <time>2018-09-17T12:10:57Z</time>
      </trkpt>
      <trkpt lat="46.87720499932766" lon="11.380617963150144">
        <ele>1125.3599999999999</ele>
        <time>2018-09-17T12:10:58Z</time>
      </trkpt>
      <trkpt lat="46.877260990440845" lon="11.380786020308733">
        <ele>1124.4000000000001</ele>
        <time>2018-09-17T12:10:59Z</time>
      </trkpt>
      <trkpt lat="46.877282029017806" lon="11.380989030003548">
        <ele>1123.4400000000001</ele>
        <time>2018-09-17T12:11:00Z</time>
      </trkpt>
      <trkpt lat="46.877269959077239" lon="11.381201008334756">
        <ele>1122.48</ele>
        <time>2018-09-17T12:11:01Z</time>
      </trkpt>
      <trkpt lat="46.877322010695934" lon="11.382742021232843">
        <ele>1115.27</ele>
        <time>2018-09-17T12:11:07Z</time>
      </trkpt>
      <trkpt lat="46.877497024834156" lon="11.384499035775661">
        <ele>1107.5799999999999</ele>
        <time>2018-09-17T12:11:12Z</time>
      </trkpt>
      <trkpt lat="46.877730041742325" lon="11.386524019762874">
        <ele>1094.5999999999999</ele>
        <time>2018-09-17T12:11:18Z</time>
      </trkpt>
      <trkpt lat="46.877706991508603" lon="11.386781008914113">
        <ele>1092.6800000000001</ele>
        <time>2018-09-17T12:11:19Z</time>
      </trkpt>
      <trkpt lat="46.877668015658855" lon="11.386997010558844">
        <ele>1090.75</ele>
        <time>2018-09-17T12:11:20Z</time>
      </trkpt>
      <trkpt lat="46.877641025930643" lon="11.387194991111755">
        <ele>1088.8299999999999</ele>
        <time>2018-09-17T12:11:21Z</time>
      </trkpt>
      <trkpt lat="46.877625016495585" lon="11.387352989986539">
        <ele>1086.9100000000001</ele>
        <time>2018-09-17T12:11:22Z</time>
      </trkpt>
      <trkpt lat="46.877644965425134" lon="11.387543007731438">
        <ele>1085.47</ele>
        <time>2018-09-17T12:11:23Z</time>
      </trkpt>
      <trkpt lat="46.877715960144997" lon="11.38767602853477">
        <ele>1083.54</ele>
        <time>2018-09-17T12:11:24Z</time>
      </trkpt>
      <trkpt lat="46.87778796069324" lon="11.387826986610889">
        <ele>1082.0999999999999</ele>
        <time>2018-09-17T12:11:25Z</time>
      </trkpt>
      <trkpt lat="46.8778280261904" lon="11.388040976598859">
        <ele>1080.6600000000001</ele>
        <time>2018-09-17T12:11:26Z</time>
      </trkpt>
      <trkpt lat="46.877856021746993" lon="11.388299977406859">
        <ele>1078.74</ele>
        <time>2018-09-17T12:11:27Z</time>
      </trkpt>
      <trkpt lat="46.877917964011431" lon="11.388877993449569">
        <ele>1075.3699999999999</ele>
        <time>2018-09-17T12:11:29Z</time>
      </trkpt>
      <trkpt lat="46.877968003973365" lon="11.389779970049858">
        <ele>1069.1199999999999</ele>
        <time>2018-09-17T12:11:32Z</time>
      </trkpt>
      <trkpt lat="46.877993987873197" lon="11.390606006607413">
        <ele>1063.3599999999999</ele>
        <time>2018-09-17T12:11:35Z</time>
      </trkpt>
      <trkpt lat="46.877988036721945" lon="11.390870036557317">
        <ele>1061.4300000000001</ele>
        <time>2018-09-17T12:11:36Z</time>
      </trkpt>
      <trkpt lat="46.877983007580042" lon="11.391125014051795">
        <ele>1059.99</ele>
        <time>2018-09-17T12:11:37Z</time>
      </trkpt>
      <trkpt lat="46.877977978438139" lon="11.39137202873826">
        <ele>1058.0699999999999</ele>
        <time>2018-09-17T12:11:38Z</time>
      </trkpt>
      <trkpt lat="46.87802198342979" lon="11.391616025939584">
        <ele>1056.6300000000001</ele>
        <time>2018-09-17T12:11:39Z</time>
      </trkpt>
      <trkpt lat="46.878089960664511" lon="11.391863040626049">
        <ele>1054.7</ele>
        <time>2018-09-17T12:11:40Z</time>
      </trkpt>
      <trkpt lat="46.878158021718264" lon="11.392136039212346">
        <ele>1052.78</ele>
        <time>2018-09-17T12:11:41Z</time>
      </trkpt>
      <trkpt lat="46.878207977861166" lon="11.392443990334868">
        <ele>1050.8599999999999</ele>
        <time>2018-09-17T12:11:42Z</time>
      </trkpt>
      <trkpt lat="46.878622965887189" lon="11.394604006782174">
        <ele>1036.4400000000001</ele>
        <time>2018-09-17T12:11:50Z</time>
      </trkpt>
      <trkpt lat="46.878638975322247" lon="11.394881028681993">
        <ele>1034.04</ele>
        <time>2018-09-17T12:11:52Z</time>
      </trkpt>
      <trkpt lat="46.878621038049459" lon="11.394992005079985">
        <ele>1032.5899999999999</ele>
        <time>2018-09-17T12:11:53Z</time>
      </trkpt>
      <trkpt lat="46.878584995865822" lon="11.395113961771131">
        <ele>1031.6300000000001</ele>
        <time>2018-09-17T12:11:54Z</time>
      </trkpt>
      <trkpt lat="46.878546020016074" lon="11.395246982574463">
        <ele>1030.6700000000001</ele>
        <time>2018-09-17T12:11:55Z</time>
      </trkpt>
      <trkpt lat="46.878506960347295" lon="11.395378997549415">
        <ele>1029.71</ele>
        <time>2018-09-17T12:11:56Z</time>
      </trkpt>
      <trkpt lat="46.878469996154308" lon="11.395504977554083">
        <ele>1028.75</ele>
        <time>2018-09-17T12:11:57Z</time>
      </trkpt>
      <trkpt lat="46.878469996154308" lon="11.395655013620853">
        <ele>1027.79</ele>
        <time>2018-09-17T12:11:58Z</time>
      </trkpt>
      <trkpt lat="46.878514001145959" lon="11.395781999453902">
        <ele>1027.3099999999999</ele>
        <time>2018-09-17T12:11:59Z</time>
      </trkpt>
      <trkpt lat="46.878574015572667" lon="11.39594997279346">
        <ele>1026.3399999999999</ele>
        <time>2018-09-17T12:12:00Z</time>
      </trkpt>
      <trkpt lat="46.878658002242446" lon="11.396120963618159">
        <ele>1025.3800000000001</ele>
        <time>2018-09-17T12:12:01Z</time>
      </trkpt>
      <trkpt lat="46.878748023882508" lon="11.396277034655213">
        <ele>1024.4200000000001</ele>
        <time>2018-09-17T12:12:02Z</time>
      </trkpt>
      <trkpt lat="46.87886000610888" lon="11.396388011053205">
        <ele>1023.46</ele>
        <time>2018-09-17T12:12:03Z</time>
      </trkpt>
      <trkpt lat="46.878958996385336" lon="11.396488007158041">
        <ele>1022.5</ele>
        <time>2018-09-17T12:12:04Z</time>
      </trkpt>
      <trkpt lat="46.879039965569973" lon="11.396567970514297">
        <ele>1021.0599999999999</ele>
        <time>2018-09-17T12:12:05Z</time>
      </trkpt>
      <trkpt lat="46.879085982218385" lon="11.396706020459533">
        <ele>1020.1</ele>
        <time>2018-09-17T12:12:06Z</time>
      </trkpt>
      <trkpt lat="46.879109032452106" lon="11.396867036819458">
        <ele>1019.13</ele>
        <time>2018-09-17T12:12:07Z</time>
      </trkpt>
      <trkpt lat="46.879139961674809" lon="11.397078009322286">
        <ele>1018.65</ele>
        <time>2018-09-17T12:12:08Z</time>
      </trkpt>
      <trkpt lat="46.879174998030066" lon="11.397318989038467">
        <ele>1017.6900000000001</ele>
        <time>2018-09-17T12:12:09Z</time>
      </trkpt>
      <trkpt lat="46.879211040213704" lon="11.397564997896552">
        <ele>1016.73</ele>
        <time>2018-09-17T12:12:10Z</time>
      </trkpt>
      <trkpt lat="46.87924699857831" lon="11.398294977843761">
        <ele>1012.89</ele>
        <time>2018-09-17T12:12:13Z</time>
      </trkpt>
      <trkpt lat="46.879223026335239" lon="11.398814991116524">
        <ele>1009.04</ele>
        <time>2018-09-17T12:12:15Z</time>
      </trkpt>
      <trkpt lat="46.879198970273137" lon="11.399345984682441">
        <ele>1005.2</ele>
        <time>2018-09-17T12:12:17Z</time>
      </trkpt>
      <trkpt lat="46.879227971658111" lon="11.399560980498791">
        <ele>1002.79</ele>
        <time>2018-09-17T12:12:18Z</time>
      </trkpt>
      <trkpt lat="46.879255967214704" lon="11.39977203682065">
        <ele>1001.35</ele>
        <time>2018-09-17T12:12:19Z</time>
      </trkpt>
      <trkpt lat="46.879284968599677" lon="11.39998896047473">
        <ele>999.42999999999995</ele>
        <time>2018-09-17T12:12:20Z</time>
      </trkpt>
      <trkpt lat="46.879254039376974" lon="11.400148971006274">
        <ele>997.01999999999998</ele>
        <time>2018-09-17T12:12:21Z</time>
      </trkpt>
      <trkpt lat="46.879219003021717" lon="11.400330020114779">
        <ele>995.10000000000002</ele>
        <time>2018-09-17T12:12:22Z</time>
      </trkpt>
      <trkpt lat="46.87918396666646" lon="11.400508973747492">
        <ele>993.17999999999995</ele>
        <time>2018-09-17T12:12:23Z</time>
      </trkpt>
      <trkpt lat="46.879150019958615" lon="11.400681976228952">
        <ele>990.77999999999997</ele>
        <time>2018-09-17T12:12:24Z</time>
      </trkpt>
      <trkpt lat="46.879145996645093" lon="11.400859002023935">
        <ele>988.85000000000002</ele>
        <time>2018-09-17T12:12:25Z</time>
      </trkpt>
      <trkpt lat="46.879165023565292" lon="11.401029992848635">
        <ele>986.92999999999995</ele>
        <time>2018-09-17T12:12:26Z</time>
      </trkpt>
      <trkpt lat="46.879185978323221" lon="11.401210036128759">
        <ele>985.00999999999999</ele>
        <time>2018-09-17T12:12:27Z</time>
      </trkpt>
      <trkpt lat="46.879208022728562" lon="11.401403993368149">
        <ele>983.57000000000005</ele>
        <time>2018-09-17T12:12:28Z</time>
      </trkpt>
      <trkpt lat="46.879221014678478" lon="11.401607003062963">
        <ele>982.12</ele>
        <time>2018-09-17T12:12:29Z</time>
      </trkpt>
      <trkpt lat="46.879221014678478" lon="11.40181596390903">
        <ele>980.20000000000005</ele>
        <time>2018-09-17T12:12:30Z</time>
      </trkpt>
      <trkpt lat="46.879223026335239" lon="11.402041018009186">
        <ele>978.75999999999999</ele>
        <time>2018-09-17T12:12:31Z</time>
      </trkpt>
      <trkpt lat="46.87926703132689" lon="11.402252996340394">
        <ele>977.79999999999995</ele>
        <time>2018-09-17T12:12:32Z</time>
      </trkpt>
      <trkpt lat="46.879560984671116" lon="11.403885036706924">
        <ele>968.17999999999995</ele>
        <time>2018-09-17T12:12:41Z</time>
      </trkpt>
      <trkpt lat="46.879591997712851" lon="11.40402602031827">
        <ele>967.22000000000003</ele>
        <time>2018-09-17T12:12:42Z</time>
      </trkpt>
      <trkpt lat="46.879651006311178" lon="11.404296001419425">
        <ele>965.29999999999995</ele>
        <time>2018-09-17T12:12:44Z</time>
      </trkpt>
      <trkpt lat="46.879686964675784" lon="11.404417036101222">
        <ele>964.82000000000005</ele>
        <time>2018-09-17T12:12:45Z</time>
      </trkpt>
      <trkpt lat="46.879742033779621" lon="11.40452197752893">
        <ele>964.34000000000003</ele>
        <time>2018-09-17T12:12:46Z</time>
      </trkpt>
      <trkpt lat="46.879796013236046" lon="11.404623985290527">
        <ele>963.86000000000001</ele>
        <time>2018-09-17T12:12:47Z</time>
      </trkpt>
      <trkpt lat="46.879845969378948" lon="11.404718030244112">
        <ele>963.38</ele>
        <time>2018-09-17T12:12:48Z</time>
      </trkpt>
      <trkpt lat="46.87989198602736" lon="11.404798999428749">
        <ele>962.89999999999998</ele>
        <time>2018-09-17T12:12:49Z</time>
      </trkpt>
      <trkpt lat="46.879936996847391" lon="11.404874017462134">
        <ele>962.41999999999996</ele>
        <time>2018-09-17T12:12:50Z</time>
      </trkpt>
      <trkpt lat="46.880024001002312" lon="11.405027993023396">
        <ele>962.41999999999996</ele>
        <time>2018-09-17T12:12:52Z</time>
      </trkpt>
      <trkpt lat="46.880161967128515" lon="11.405247012153268">
        <ele>961.94000000000005</ele>
        <time>2018-09-17T12:12:55Z</time>
      </trkpt>
      <trkpt lat="46.880500009283423" lon="11.405684966593981">
        <ele>960.00999999999999</ele>
        <time>2018-09-17T12:13:01Z</time>
      </trkpt>
      <trkpt lat="46.880621965974569" lon="11.405842965468764">
        <ele>960.00999999999999</ele>
        <time>2018-09-17T12:13:03Z</time>
      </trkpt>
      <trkpt lat="46.881262008100748" lon="11.40671300701797">
        <ele>958.09000000000003</ele>
        <time>2018-09-17T12:13:13Z</time>
      </trkpt>
      <trkpt lat="46.881598960608244" lon="11.407178035005927">
        <ele>956.64999999999998</ele>
        <time>2018-09-17T12:13:20Z</time>
      </trkpt>
      <trkpt lat="46.881646988913417" lon="11.407235031947494">
        <ele>956.16999999999996</ele>
        <time>2018-09-17T12:13:21Z</time>
      </trkpt>
      <trkpt lat="46.881676996126771" lon="11.407386995851994">
        <ele>956.16999999999996</ele>
        <time>2018-09-17T12:13:22Z</time>
      </trkpt>
      <trkpt lat="46.881667021661997" lon="11.407478023320436">
        <ele>955.69000000000005</ele>
        <time>2018-09-17T12:13:23Z</time>
      </trkpt>
      <trkpt lat="46.881730975583196" lon="11.407584976404905">
        <ele>955.69000000000005</ele>
        <time>2018-09-17T12:13:24Z</time>
      </trkpt>
      <trkpt lat="46.881747990846634" lon="11.407601991668344">
        <ele>955.69000000000005</ele>
        <time>2018-09-17T12:13:25Z</time>
      </trkpt>
      <trkpt lat="46.881838012486696" lon="11.407596040517092">
        <ele>955.21000000000004</ele>
        <time>2018-09-17T12:13:26Z</time>
      </trkpt>
      <trkpt lat="46.881908001378179" lon="11.407569972798228">
        <ele>955.21000000000004</ele>
        <time>2018-09-17T12:13:27Z</time>
      </trkpt>
      <trkpt lat="46.881989976391196" lon="11.407672986388206">
        <ele>954.73000000000002</ele>
        <time>2018-09-17T12:13:29Z</time>
      </trkpt>
      <trkpt lat="46.882072035223246" lon="11.407788991928101">
        <ele>952.32000000000005</ele>
        <time>2018-09-17T12:13:36Z</time>
      </trkpt>
      <trkpt lat="46.882072035223246" lon="11.407788991928101">
        <ele>951.84000000000003</ele>
        <time>2018-09-17T12:14:15Z</time>
      </trkpt>
    </trkseg>
  </trk>

  <trk>
    <name>Track vom: 2018-09-17 14:14</name>
    <extensions>
      <gpxx:TrackExtension>
        <gpxx:DisplayColor>DarkGray</gpxx:DisplayColor>
      </gpxx:TrackExtension>
    </extensions>
    <trkseg>
      <trkpt lat="46.882072035223246" lon="11.407788991928101">
        <ele>951.84000000000003</ele>
        <time>2018-09-17T12:14:23Z</time>
      </trkpt>
      <trkpt lat="46.882072035223246" lon="11.407788991928101">
        <ele>951.84000000000003</ele>
        <time>2018-09-17T12:15:27Z</time>
      </trkpt>
      <trkpt lat="46.882085027173162" lon="11.4078080188483">
        <ele>951.84000000000003</ele>
        <time>2018-09-17T12:15:42Z</time>
      </trkpt>
      <trkpt lat="46.882197009399533" lon="11.407965011894703">
        <ele>952.32000000000005</ele>
        <time>2018-09-17T12:15:45Z</time>
      </trkpt>
      <trkpt lat="46.882848031818867" lon="11.408885009586811">
        <ele>953.27999999999997</ele>
        <time>2018-09-17T12:15:54Z</time>
      </trkpt>
      <trkpt lat="46.883611036464572" lon="11.409966023638844">
        <ele>953.76999999999998</ele>
        <time>2018-09-17T12:16:05Z</time>
      </trkpt>
      <trkpt lat="46.883658980950713" lon="11.410038024187088">
        <ele>953.76999999999998</ele>
        <time>2018-09-17T12:16:06Z</time>
      </trkpt>
      <trkpt lat="46.883667027577758" lon="11.410294007509947">
        <ele>953.76999999999998</ele>
        <time>2018-09-17T12:16:08Z</time>
      </trkpt>
      <trkpt lat="46.883711032569408" lon="11.410338012501597">
        <ele>953.76999999999998</ele>
        <time>2018-09-17T12:16:09Z</time>
      </trkpt>
      <trkpt lat="46.883757971227169" lon="11.410384029150009">
        <ele>953.76999999999998</ele>
        <time>2018-09-17T12:16:10Z</time>
      </trkpt>
      <trkpt lat="46.883770041167736" lon="11.410396015271544">
        <ele>953.76999999999998</ele>
        <time>2018-09-17T12:16:11Z</time>
      </trkpt>
      <trkpt lat="46.883907001465559" lon="11.410392997786403">
        <ele>953.76999999999998</ele>
        <time>2018-09-17T12:16:12Z</time>
      </trkpt>
      <trkpt lat="46.883957041427493" lon="11.410457035526633">
        <ele>953.76999999999998</ele>
        <time>2018-09-17T12:16:13Z</time>
      </trkpt>
      <trkpt lat="46.884014960378408" lon="11.410530963912606">
        <ele>953.27999999999997</ele>
        <time>2018-09-17T12:16:14Z</time>
      </trkpt>
      <trkpt lat="46.884785005822778" lon="11.411534026265144">
        <ele>950.39999999999998</ele>
        <time>2018-09-17T12:16:24Z</time>
      </trkpt>
      <trkpt lat="46.885884962975979" lon="11.413035979494452">
        <ele>949.91999999999996</ele>
        <time>2018-09-17T12:16:37Z</time>
      </trkpt>
      <trkpt lat="46.886570015922189" lon="11.414185976609588">
        <ele>948.96000000000004</ele>
        <time>2018-09-17T12:16:47Z</time>
      </trkpt>
      <trkpt lat="46.886902023106813" lon="11.414943030104041">
        <ele>948</ele>
        <time>2018-09-17T12:16:53Z</time>
      </trkpt>
      <trkpt lat="46.886988021433353" lon="11.415137993171811">
        <ele>948</ele>
        <time>2018-09-17T12:16:54Z</time>
      </trkpt>
      <trkpt lat="46.886988021433353" lon="11.415137993171811">
        <ele>948</ele>
        <time>2018-09-17T12:16:55Z</time>
      </trkpt>
      <trkpt lat="46.887008976191282" lon="11.415267996490002">
        <ele>948</ele>
        <time>2018-09-17T12:16:56Z</time>
      </trkpt>
      <trkpt lat="46.887029008939862" lon="11.415399005636573">
        <ele>948.48000000000002</ele>
        <time>2018-09-17T12:16:57Z</time>
      </trkpt>
      <trkpt lat="46.887048035860062" lon="11.415712991729379">
        <ele>948.96000000000004</ele>
        <time>2018-09-17T12:16:59Z</time>
      </trkpt>
      <trkpt lat="46.887031020596623" lon="11.4174560084939">
        <ele>949.91999999999996</ele>
        <time>2018-09-17T12:17:09Z</time>
      </trkpt>
      <trkpt lat="46.887031020596623" lon="11.417706962674856">
        <ele>950.39999999999998</ele>
        <time>2018-09-17T12:17:11Z</time>
      </trkpt>
      <trkpt lat="46.886991960927844" lon="11.417889017611742">
        <ele>950.39999999999998</ele>
        <time>2018-09-17T12:17:12Z</time>
      </trkpt>
      <trkpt lat="46.886931024491787" lon="11.417989013716578">
        <ele>950.88</ele>
        <time>2018-09-17T12:17:14Z</time>
      </trkpt>
      <trkpt lat="46.88696002587676" lon="11.418061014264822">
        <ele>950.88</ele>
        <time>2018-09-17T12:17:15Z</time>
      </trkpt>
      <trkpt lat="46.886982992291451" lon="11.418089009821415">
        <ele>950.88</ele>
        <time>2018-09-17T12:17:16Z</time>
      </trkpt>
      <trkpt lat="46.887031020596623" lon="11.41812102869153">
        <ele>950.88</ele>
        <time>2018-09-17T12:17:17Z</time>
      </trkpt>
      <trkpt lat="46.887057004496455" lon="11.418089009821415">
        <ele>950.88</ele>
        <time>2018-09-17T12:17:18Z</time>
      </trkpt>
      <trkpt lat="46.887158006429672" lon="11.418030001223087">
        <ele>950.88</ele>
        <time>2018-09-17T12:17:19Z</time>
      </trkpt>
      <trkpt lat="46.887225983664393" lon="11.4180569909513">
        <ele>950.88</ele>
        <time>2018-09-17T12:17:20Z</time>
      </trkpt>
      <trkpt lat="46.887299995869398" lon="11.418086998164654">
        <ele>950.88</ele>
        <time>2018-09-17T12:17:21Z</time>
      </trkpt>
      <trkpt lat="46.887377025559545" lon="11.418218007311225">
        <ele>950.88</ele>
        <time>2018-09-17T12:17:22Z</time>
      </trkpt>
      <trkpt lat="46.887423964217305" lon="11.418339964002371">
        <ele>950.88</ele>
        <time>2018-09-17T12:17:23Z</time>
      </trkpt>
      <trkpt lat="46.887476015836" lon="11.418474996462464">
        <ele>950.88</ele>
        <time>2018-09-17T12:17:24Z</time>
      </trkpt>
      <trkpt lat="46.887531001120806" lon="11.418617991730571">
        <ele>951.36000000000001</ele>
        <time>2018-09-17T12:17:25Z</time>
      </trkpt>
      <trkpt lat="46.887653041630983" lon="11.418936001136899">
        <ele>952.79999999999995</ele>
        <time>2018-09-17T12:17:27Z</time>
      </trkpt>
      <trkpt lat="46.887762006372213" lon="11.419662963598967">
        <ele>957.13</ele>
        <time>2018-09-17T12:17:31Z</time>
      </trkpt>
      <trkpt lat="46.88782000914216" lon="11.420251959934831">
        <ele>961.46000000000004</ele>
        <time>2018-09-17T12:17:34Z</time>
      </trkpt>
      <trkpt lat="46.887959986925125" lon="11.421256028115749">
        <ele>970.59000000000003</ele>
        <time>2018-09-17T12:17:39Z</time>
      </trkpt>
      <trkpt lat="46.888237008824944" lon="11.422558994963765">
        <ele>982.12</ele>
        <time>2018-09-17T12:17:46Z</time>
      </trkpt>
      <trkpt lat="46.888242959976196" lon="11.422727974131703">
        <ele>983.57000000000005</ele>
        <time>2018-09-17T12:17:47Z</time>
      </trkpt>
      <trkpt lat="46.88825000077486" lon="11.422906005755067">
        <ele>985.00999999999999</ele>
        <time>2018-09-17T12:17:48Z</time>
      </trkpt>
      <trkpt lat="46.888241032138467" lon="11.42310599796474">
        <ele>986.45000000000005</ele>
        <time>2018-09-17T12:17:49Z</time>
      </trkpt>
      <trkpt lat="46.88820599578321" lon="11.423291992396116">
        <ele>987.88999999999999</ele>
        <time>2018-09-17T12:17:50Z</time>
      </trkpt>
      <trkpt lat="46.888170959427953" lon="11.423476980999112">
        <ele>989.33000000000004</ele>
        <time>2018-09-17T12:17:51Z</time>
      </trkpt>
      <trkpt lat="46.888139024376869" lon="11.423645038157701">
        <ele>990.77999999999997</ele>
        <time>2018-09-17T12:17:52Z</time>
      </trkpt>
      <trkpt lat="46.888103988021612" lon="11.423829020932317">
        <ele>991.74000000000001</ele>
        <time>2018-09-17T12:17:53Z</time>
      </trkpt>
      <trkpt lat="46.888110022991896" lon="11.423885012045503">
        <ele>992.22000000000003</ele>
        <time>2018-09-17T12:17:54Z</time>
      </trkpt>
      <trkpt lat="46.888151010498405" lon="11.424027001485229">
        <ele>993.17999999999995</ele>
        <time>2018-09-17T12:17:55Z</time>
      </trkpt>
      <trkpt lat="46.888208007439971" lon="11.424037981778383">
        <ele>993.65999999999997</ele>
        <time>2018-09-17T12:17:56Z</time>
      </trkpt>
      <trkpt lat="46.888290988281369" lon="11.423927005380392">
        <ele>994.13999999999999</ele>
        <time>2018-09-17T12:17:57Z</time>
      </trkpt>
      <trkpt lat="46.888317978009582" lon="11.423810999840498">
        <ele>994.62</ele>
        <time>2018-09-17T12:17:58Z</time>
      </trkpt>
      <trkpt lat="46.888344967737794" lon="11.423677979037166">
        <ele>995.58000000000004</ele>
        <time>2018-09-17T12:17:59Z</time>
      </trkpt>
      <trkpt lat="46.888375980779529" lon="11.423522997647524">
        <ele>996.05999999999995</ele>
        <time>2018-09-17T12:18:00Z</time>
      </trkpt>
      <trkpt lat="46.888410011306405" lon="11.423348989337683">
        <ele>997.01999999999998</ele>
        <time>2018-09-17T12:18:01Z</time>
      </trkpt>
      <trkpt lat="46.888468014076352" lon="11.423173975199461">
        <ele>997.50999999999999</ele>
        <time>2018-09-17T12:18:02Z</time>
      </trkpt>
      <trkpt lat="46.888546971604228" lon="11.422993009909987">
        <ele>997.99000000000001</ele>
        <time>2018-09-17T12:18:03Z</time>
      </trkpt>
      <trkpt lat="46.888631964102387" lon="11.422799974679947">
        <ele>998.47000000000003</ele>
        <time>2018-09-17T12:18:04Z</time>
      </trkpt>
      <trkpt lat="46.888720979914069" lon="11.422596964985132">
        <ele>998.95000000000005</ele>
        <time>2018-09-17T12:18:05Z</time>
      </trkpt>
      <trkpt lat="46.88878602348268" lon="11.422369983047247">
        <ele>999.42999999999995</ele>
        <time>2018-09-17T12:18:06Z</time>
      </trkpt>
      <trkpt lat="46.888835979625583" lon="11.422150041908026">
        <ele>1000.39</ele>
        <time>2018-09-17T12:18:07Z</time>
      </trkpt>
      <trkpt lat="46.888848971575499" lon="11.421917024999857">
        <ele>1000.87</ele>
        <time>2018-09-17T12:18:08Z</time>
      </trkpt>
      <trkpt lat="46.888847965747118" lon="11.421686019748449">
        <ele>1002.79</ele>
        <time>2018-09-17T12:18:09Z</time>
      </trkpt>
      <trkpt lat="46.888833967968822" lon="11.421445040032268">
        <ele>1004.23</ele>
        <time>2018-09-17T12:18:10Z</time>
      </trkpt>
      <trkpt lat="46.888836985453963" lon="11.419150996953249">
        <ele>1021.0599999999999</ele>
        <time>2018-09-17T12:18:19Z</time>
      </trkpt>
      <trkpt lat="46.889182990416884" lon="11.416690992191434">
        <ele>1038.8399999999999</ele>
        <time>2018-09-17T12:18:28Z</time>
      </trkpt>
      <trkpt lat="46.889327997341752" lon="11.4153509773314">
        <ele>1050.3800000000001</ele>
        <time>2018-09-17T12:18:34Z</time>
      </trkpt>
      <trkpt lat="46.889722030609846" lon="11.413762019947171">
        <ele>1064.8</ele>
        <time>2018-09-17T12:18:43Z</time>
      </trkpt>
      <trkpt lat="46.890348996967077" lon="11.412483025342226">
        <ele>1072.49</ele>
        <time>2018-09-17T12:18:52Z</time>
      </trkpt>
      <trkpt lat="46.890646973624825" lon="11.41182404011488">
        <ele>1078.26</ele>
        <time>2018-09-17T12:18:59Z</time>
      </trkpt>
      <trkpt lat="46.890669018030167" lon="11.411770982667804">
        <ele>1079.22</ele>
        <time>2018-09-17T12:19:00Z</time>
      </trkpt>
      <trkpt lat="46.890781000256538" lon="11.411723960191011">
        <ele>1079.7</ele>
        <time>2018-09-17T12:19:01Z</time>
      </trkpt>
      <trkpt lat="46.890810001641512" lon="11.411763019859791">
        <ele>1080.1800000000001</ele>
        <time>2018-09-17T12:19:03Z</time>
      </trkpt>
      <trkpt lat="46.89089197665453" lon="11.411958988755941">
        <ele>1080.6600000000001</ele>
        <time>2018-09-17T12:19:04Z</time>
      </trkpt>
      <trkpt lat="46.890940004959702" lon="11.412088992074132">
        <ele>1080.6600000000001</ele>
        <time>2018-09-17T12:19:05Z</time>
      </trkpt>
      <trkpt lat="46.891389023512602" lon="11.413293974474072">
        <ele>1079.22</ele>
        <time>2018-09-17T12:19:11Z</time>
      </trkpt>
      <trkpt lat="46.892323018983006" lon="11.415768982842565">
        <ele>1073.45</ele>
        <time>2018-09-17T12:19:22Z</time>
      </trkpt>
      <trkpt lat="46.893134973943233" lon="11.417235983535647">
        <ele>1066.72</ele>
        <time>2018-09-17T12:19:31Z</time>
      </trkpt>
      <trkpt lat="46.894325958564878" lon="11.418962990865111">
        <ele>1051.8199999999999</ele>
        <time>2018-09-17T12:19:41Z</time>
      </trkpt>
      <trkpt lat="46.89469400793314" lon="11.41984099522233">
        <ele>1045.0899999999999</ele>
        <time>2018-09-17T12:19:47Z</time>
      </trkpt>
      <trkpt lat="46.894828034564853" lon="11.420017015188932">
        <ele>1043.1700000000001</ele>
        <time>2018-09-17T12:19:49Z</time>
      </trkpt>
      <trkpt lat="46.895517027005553" lon="11.420925026759505">
        <ele>1034.04</ele>
        <time>2018-09-17T12:19:57Z</time>
      </trkpt>
      <trkpt lat="46.895700003951788" lon="11.421115966513753">
        <ele>1032.1099999999999</ele>
        <time>2018-09-17T12:19:59Z</time>
      </trkpt>
      <trkpt lat="46.895800000056624" lon="11.421211017295718">
        <ele>1031.6300000000001</ele>
        <time>2018-09-17T12:20:00Z</time>
      </trkpt>
      <trkpt lat="46.897265994921327" lon="11.422283984720707">
        <ele>1025.3800000000001</ele>
        <time>2018-09-17T12:20:12Z</time>
      </trkpt>
      <trkpt lat="46.898663006722927" lon="11.423089988529682">
        <ele>1020.1</ele>
        <time>2018-09-17T12:20:21Z</time>
      </trkpt>
      <trkpt lat="46.899733962491155" lon="11.423491984605789">
        <ele>1016.25</ele>
        <time>2018-09-17T12:20:28Z</time>
      </trkpt>
      <trkpt lat="46.900928970426321" lon="11.423996994271874">
        <ele>1016.25</ele>
        <time>2018-09-17T12:20:36Z</time>
      </trkpt>
      <trkpt lat="46.901172967627645" lon="11.423981990665197">
        <ele>1014.33</ele>
        <time>2018-09-17T12:20:39Z</time>
      </trkpt>
      <trkpt lat="46.901214960962534" lon="11.423978973180056">
        <ele>1013.37</ele>
        <time>2018-09-17T12:20:40Z</time>
      </trkpt>
      <trkpt lat="46.901341024786234" lon="11.423950977623463">
        <ele>1011.9299999999999</ele>
        <time>2018-09-17T12:20:42Z</time>
      </trkpt>
      <trkpt lat="46.901416964828968" lon="11.424135966226459">
        <ele>1010.96</ele>
        <time>2018-09-17T12:20:43Z</time>
      </trkpt>
      <trkpt lat="46.901475973427296" lon="11.42418198287487">
        <ele>1010</ele>
        <time>2018-09-17T12:20:44Z</time>
      </trkpt>
      <trkpt lat="46.901532970368862" lon="11.424225987866521">
        <ele>1008.5599999999999</ele>
        <time>2018-09-17T12:20:45Z</time>
      </trkpt>
      <trkpt lat="46.901586027815938" lon="11.42426798120141">
        <ele>1008.08</ele>
        <time>2018-09-17T12:20:46Z</time>
      </trkpt>
      <trkpt lat="46.901608994230628" lon="11.424333024770021">
        <ele>1006.64</ele>
        <time>2018-09-17T12:20:47Z</time>
      </trkpt>
      <trkpt lat="46.901621986180544" lon="11.424419023096561">
        <ele>1005.6799999999999</ele>
        <time>2018-09-17T12:20:48Z</time>
      </trkpt>
      <trkpt lat="46.90163497813046" lon="11.424506027251482">
        <ele>1004.72</ele>
        <time>2018-09-17T12:20:49Z</time>
      </trkpt>
      <trkpt lat="46.901647970080376" lon="11.424594037234783">
        <ele>1004.23</ele>
        <time>2018-09-17T12:20:50Z</time>
      </trkpt>
      <trkpt lat="46.901628021150827" lon="11.424896037206054">
        <ele>1001.35</ele>
        <time>2018-09-17T12:20:53Z</time>
      </trkpt>
      <trkpt lat="46.901608994230628" lon="11.424988992512226">
        <ele>1000.39</ele>
        <time>2018-09-17T12:20:54Z</time>
      </trkpt>
      <trkpt lat="46.901562977582216" lon="11.425208011642098">
        <ele>997.99000000000001</ele>
        <time>2018-09-17T12:20:56Z</time>
      </trkpt>
      <trkpt lat="46.901578987017274" lon="11.425373973324895">
        <ele>996.05999999999995</ele>
        <time>2018-09-17T12:20:57Z</time>
      </trkpt>
      <trkpt lat="46.901577981188893" lon="11.425400041043758">
        <ele>994.13999999999999</ele>
        <time>2018-09-17T12:20:58Z</time>
      </trkpt>
      <trkpt lat="46.901572030037642" lon="11.425496013835073">
        <ele>991.74000000000001</ele>
        <time>2018-09-17T12:20:59Z</time>
      </trkpt>
      <trkpt lat="46.901565995067358" lon="11.425595004111528">
        <ele>989.80999999999995</ele>
        <time>2018-09-17T12:21:00Z</time>
      </trkpt>
      <trkpt lat="46.901559960097075" lon="11.425698017701507">
        <ele>987.88999999999999</ele>
        <time>2018-09-17T12:21:01Z</time>
      </trkpt>
      <trkpt lat="46.901554008945823" lon="11.425805976614356">
        <ele>985.97000000000003</ele>
        <time>2018-09-17T12:21:02Z</time>
      </trkpt>
      <trkpt lat="46.901342030614614" lon="11.426907023414969">
        <ele>971.54999999999995</ele>
        <time>2018-09-17T12:21:12Z</time>
      </trkpt>
      <trkpt lat="46.901317974552512" lon="11.427007019519806">
        <ele>970.59000000000003</ele>
        <time>2018-09-17T12:21:13Z</time>
      </trkpt>
      <trkpt lat="46.901019997894764" lon="11.428231028839946">
        <ele>962.41999999999996</ele>
        <time>2018-09-17T12:21:25Z</time>
      </trkpt>
      <trkpt lat="46.90094699151814" lon="11.42843303270638">
        <ele>961.46000000000004</ele>
        <time>2018-09-17T12:21:27Z</time>
      </trkpt>
      <trkpt lat="46.900906004011631" lon="11.428524982184172">
        <ele>961.46000000000004</ele>
        <time>2018-09-17T12:21:28Z</time>
      </trkpt>
      <trkpt lat="46.900866022333503" lon="11.428615003824234">
        <ele>961.46000000000004</ele>
        <time>2018-09-17T12:21:29Z</time>
      </trkpt>
      <trkpt lat="46.900827968493104" lon="11.428701002150774">
        <ele>961.46000000000004</ele>
        <time>2018-09-17T12:21:30Z</time>
      </trkpt>
      <trkpt lat="46.900791004300117" lon="11.428782977163792">
        <ele>961.46000000000004</ele>
        <time>2018-09-17T12:21:31Z</time>
      </trkpt>
      <trkpt lat="46.90075496211648" lon="11.428865035995841">
        <ele>960.98000000000002</ele>
        <time>2018-09-17T12:21:32Z</time>
      </trkpt>
      <trkpt lat="46.900720009580255" lon="11.428942987695336">
        <ele>960.49000000000001</ele>
        <time>2018-09-17T12:21:33Z</time>
      </trkpt>
      <trkpt lat="46.90068899653852" lon="11.429013982415199">
        <ele>960.49000000000001</ele>
        <time>2018-09-17T12:21:34Z</time>
      </trkpt>
      <trkpt lat="46.900655971840024" lon="11.429087994620204">
        <ele>960.00999999999999</ele>
        <time>2018-09-17T12:21:35Z</time>
      </trkpt>
      <trkpt lat="46.900627976283431" lon="11.429142979905009">
        <ele>960.00999999999999</ele>
        <time>2018-09-17T12:21:36Z</time>
      </trkpt>
      <trkpt lat="46.900608027353883" lon="11.429182961583138">
        <ele>960.00999999999999</ele>
        <time>2018-09-17T12:21:37Z</time>
      </trkpt>
      <trkpt lat="46.900593023747206" lon="11.429213974624872">
        <ele>960.00999999999999</ele>
        <time>2018-09-17T12:21:38Z</time>
      </trkpt>
      <trkpt lat="46.900601992383599" lon="11.429268959909678">
        <ele>960.00999999999999</ele>
        <time>2018-09-17T12:21:39Z</time>
      </trkpt>
      <trkpt lat="46.900649014860392" lon="11.429285975173116">
        <ele>959.52999999999997</ele>
        <time>2018-09-17T12:21:40Z</time>
      </trkpt>
      <trkpt lat="46.900715986266732" lon="11.429311037063599">
        <ele>959.52999999999997</ele>
        <time>2018-09-17T12:21:41Z</time>
      </trkpt>
      <trkpt lat="46.900793015956879" lon="11.429340038448572">
        <ele>959.52999999999997</ele>
        <time>2018-09-17T12:21:42Z</time>
      </trkpt>
      <trkpt lat="46.900975992903113" lon="11.429407009854913">
        <ele>959.52999999999997</ele>
        <time>2018-09-17T12:21:44Z</time>
      </trkpt>
      <trkpt lat="46.901068026199937" lon="11.429441962391138">
        <ele>959.04999999999995</ele>
        <time>2018-09-17T12:21:45Z</time>
      </trkpt>
      <trkpt lat="46.901262989267707" lon="11.429570037871599">
        <ele>958.57000000000005</ele>
        <time>2018-09-17T12:21:47Z</time>
      </trkpt>
      <trkpt lat="46.901357034221292" lon="11.429653018712997">
        <ele>959.04999999999995</ele>
        <time>2018-09-17T12:21:48Z</time>
      </trkpt>
      <trkpt lat="46.901633972302079" lon="11.42989500425756">
        <ele>960.00999999999999</ele>
        <time>2018-09-17T12:21:52Z</time>
      </trkpt>
      <trkpt lat="46.901664985343814" lon="11.429922999814153">
        <ele>960.00999999999999</ele>
        <time>2018-09-17T12:21:53Z</time>
      </trkpt>
      <trkpt lat="46.901815021410584" lon="11.429901039227843">
        <ele>960.98000000000002</ele>
        <time>2018-09-17T12:21:54Z</time>
      </trkpt>
      <trkpt lat="46.901881992816925" lon="11.42991503700614">
        <ele>961.46000000000004</ele>
        <time>2018-09-17T12:21:55Z</time>
      </trkpt>
      <trkpt lat="46.901974026113749" lon="11.429932974278927">
        <ele>961.46000000000004</ele>
        <time>2018-09-17T12:21:56Z</time>
      </trkpt>
      <trkpt lat="46.902140993624926" lon="11.429965998977423">
        <ele>961.94000000000005</ele>
        <time>2018-09-17T12:21:58Z</time>
      </trkpt>
      <trkpt lat="46.902211988344789" lon="11.429979996755719">
        <ele>962.41999999999996</ele>
        <time>2018-09-17T12:21:59Z</time>
      </trkpt>
      <trkpt lat="46.902273008599877" lon="11.429991982877254">
        <ele>962.41999999999996</ele>
        <time>2018-09-17T12:22:00Z</time>
      </trkpt>
      <trkpt lat="46.902313996106386" lon="11.43000103533268">
        <ele>962.89999999999998</ele>
        <time>2018-09-17T12:22:01Z</time>
      </trkpt>
      <trkpt lat="46.90234400331974" lon="11.430006986483932">
        <ele>962.89999999999998</ele>
        <time>2018-09-17T12:22:02Z</time>
      </trkpt>
      <trkpt lat="46.902405023574829" lon="11.430115029215813">
        <ele>963.38</ele>
        <time>2018-09-17T12:22:09Z</time>
      </trkpt>
      <trkpt lat="46.902474006637931" lon="11.430159034207463">
        <ele>963.86000000000001</ele>
        <time>2018-09-17T12:22:10Z</time>
      </trkpt>
      <trkpt lat="46.902549024671316" lon="11.430115029215813">
        <ele>963.86000000000001</ele>
        <time>2018-09-17T12:22:11Z</time>
      </trkpt>
      <trkpt lat="46.903336001560092" lon="11.430140007287264">
        <ele>964.34000000000003</ele>
        <time>2018-09-17T12:22:17Z</time>
      </trkpt>
      <trkpt lat="46.904565962031484" lon="11.430332958698273">
        <ele>965.77999999999997</ele>
        <time>2018-09-17T12:22:26Z</time>
      </trkpt>
      <trkpt lat="46.904779030010104" lon="11.43038903363049">
        <ele>966.25999999999999</ele>
        <time>2018-09-17T12:22:29Z</time>
      </trkpt>
      <trkpt lat="46.904812976717949" lon="11.430398002266884">
        <ele>966.25999999999999</ele>
        <time>2018-09-17T12:22:30Z</time>
      </trkpt>
      <trkpt lat="46.904843989759684" lon="11.430405965074897">
        <ele>966.74000000000001</ele>
        <time>2018-09-17T12:22:31Z</time>
      </trkpt>
      <trkpt lat="46.904945997521281" lon="11.430437983945012">
        <ele>967.70000000000005</ele>
        <time>2018-09-17T12:22:33Z</time>
      </trkpt>
      <trkpt lat="46.905035013332963" lon="11.430467991158366">
        <ele>968.17999999999995</ele>
        <time>2018-09-17T12:22:34Z</time>
      </trkpt>
      <trkpt lat="46.905152024701238" lon="11.430507972836494">
        <ele>968.66999999999996</ele>
        <time>2018-09-17T12:22:35Z</time>
      </trkpt>
      <trkpt lat="46.906192973256111" lon="11.430893037468195">
        <ele>972.02999999999997</ele>
        <time>2018-09-17T12:22:43Z</time>
      </trkpt>
      <trkpt lat="46.907305000349879" lon="11.431953012943268">
        <ele>974.42999999999995</ele>
        <time>2018-09-17T12:22:51Z</time>
      </trkpt>
      <trkpt lat="46.908341003581882" lon="11.433410039171576">
        <ele>974.42999999999995</ele>
        <time>2018-09-17T12:22:57Z</time>
      </trkpt>
      <trkpt lat="46.9092190079391" lon="11.434699008241296">
        <ele>974.42999999999995</ele>
        <time>2018-09-17T12:23:03Z</time>
      </trkpt>
      <trkpt lat="46.910231960937381" lon="11.435980014503002">
        <ele>974.90999999999997</ele>
        <time>2018-09-17T12:23:09Z</time>
      </trkpt>
      <trkpt lat="46.912674028426409" lon="11.438591983169317">
        <ele>980.67999999999995</ele>
        <time>2018-09-17T12:23:22Z</time>
      </trkpt>
      <trkpt lat="46.913222037255764" lon="11.439294973388314">
        <ele>981.63999999999999</ele>
        <time>2018-09-17T12:23:25Z</time>
      </trkpt>
      <trkpt lat="46.913378024473786" lon="11.439556991681457">
        <ele>981.63999999999999</ele>
        <time>2018-09-17T12:23:26Z</time>
      </trkpt>
      <trkpt lat="46.913505010306835" lon="11.439848011359572">
        <ele>981.63999999999999</ele>
        <time>2018-09-17T12:23:27Z</time>
      </trkpt>
      <trkpt lat="46.91362302750349" lon="11.440149005502462">
        <ele>981.63999999999999</ele>
        <time>2018-09-17T12:23:28Z</time>
      </trkpt>
      <trkpt lat="46.913717994466424" lon="11.440474977716804">
        <ele>981.63999999999999</ele>
        <time>2018-09-17T12:23:29Z</time>
      </trkpt>
      <trkpt lat="46.914210012182593" lon="11.441941978409886">
        <ele>982.12</ele>
        <time>2018-09-17T12:23:34Z</time>
      </trkpt>
      <trkpt lat="46.914335992187262" lon="11.442154962569475">
        <ele>982.12</ele>
        <time>2018-09-17T12:23:35Z</time>
      </trkpt>
      <trkpt lat="46.914470018818974" lon="11.442328970879316">
        <ele>982.60000000000002</ele>
        <time>2018-09-17T12:23:36Z</time>
      </trkpt>
      <trkpt lat="46.914632963016629" lon="11.442461991682649">
        <ele>983.09000000000003</ele>
        <time>2018-09-17T12:23:37Z</time>
      </trkpt>
      <trkpt lat="46.914801020175219" lon="11.442597024142742">
        <ele>983.57000000000005</ele>
        <time>2018-09-17T12:23:38Z</time>
      </trkpt>
      <trkpt lat="46.91497603431344" lon="11.442737001925707">
        <ele>984.04999999999995</ele>
        <time>2018-09-17T12:23:39Z</time>
      </trkpt>
      <trkpt lat="46.916396012529731" lon="11.443767976015806">
        <ele>990.77999999999997</ele>
        <time>2018-09-17T12:23:46Z</time>
      </trkpt>
      <trkpt lat="46.916606985032558" lon="11.443862020969391">
        <ele>991.74000000000001</ele>
        <time>2018-09-17T12:23:47Z</time>
      </trkpt>
      <trkpt lat="46.91682499833405" lon="11.443943995982409">
        <ele>992.70000000000005</ele>
        <time>2018-09-17T12:23:48Z</time>
      </trkpt>
      <trkpt lat="46.918460978195071" lon="11.444314979016781">
        <ele>999.90999999999997</ele>
        <time>2018-09-17T12:23:55Z</time>
      </trkpt>
      <trkpt lat="46.918702041730285" lon="11.444315984845161">
        <ele>1001.35</ele>
        <time>2018-09-17T12:23:56Z</time>
      </trkpt>
      <trkpt lat="46.920105004683137" lon="11.444319002330303">
        <ele>1006.64</ele>
        <time>2018-09-17T12:24:02Z</time>
      </trkpt>
      <trkpt lat="46.92032603546977" lon="11.444388991221786">
        <ele>1007.12</ele>
        <time>2018-09-17T12:24:03Z</time>
      </trkpt>
      <trkpt lat="46.92054002545774" lon="11.444468032568693">
        <ele>1008.08</ele>
        <time>2018-09-17T12:24:04Z</time>
      </trkpt>
      <trkpt lat="46.920747980475426" lon="11.444544978439808">
        <ele>1008.5599999999999</ele>
        <time>2018-09-17T12:24:05Z</time>
      </trkpt>
      <trkpt lat="46.921147964894772" lon="11.444691997021437">
        <ele>1009.52</ele>
        <time>2018-09-17T12:24:07Z</time>
      </trkpt>
      <trkpt lat="46.924173999577761" lon="11.445781979709864">
        <ele>1013.37</ele>
        <time>2018-09-17T12:24:21Z</time>
      </trkpt>
      <trkpt lat="46.924546994268894" lon="11.445956993848085">
        <ele>1013.85</ele>
        <time>2018-09-17T12:24:23Z</time>
      </trkpt>
      <trkpt lat="46.924713039770722" lon="11.446062019094825">
        <ele>1014.33</ele>
        <time>2018-09-17T12:24:24Z</time>
      </trkpt>
      <trkpt lat="46.924876989796758" lon="11.44622303545475">
        <ele>1014.8099999999999</ele>
        <time>2018-09-17T12:24:25Z</time>
      </trkpt>
      <trkpt lat="46.925026020035148" lon="11.446399977430701">
        <ele>1014.8099999999999</ele>
        <time>2018-09-17T12:24:26Z</time>
      </trkpt>
      <trkpt lat="46.925226012244821" lon="11.446638023480773">
        <ele>1015.29</ele>
        <time>2018-09-17T12:24:27Z</time>
      </trkpt>
      <trkpt lat="46.925303963944316" lon="11.446794010698795">
        <ele>1015.77</ele>
        <time>2018-09-17T12:24:28Z</time>
      </trkpt>
      <trkpt lat="46.925418963655829" lon="11.447024010121822">
        <ele>1016.25</ele>
        <time>2018-09-17T12:24:29Z</time>
      </trkpt>
      <trkpt lat="46.925495993345976" lon="11.44732098095119">
        <ele>1016.73</ele>
        <time>2018-09-17T12:24:30Z</time>
      </trkpt>
      <trkpt lat="46.925555001944304" lon="11.447590040042996">
        <ele>1017.6900000000001</ele>
        <time>2018-09-17T12:24:31Z</time>
      </trkpt>
      <trkpt lat="46.925616022199392" lon="11.447863960638642">
        <ele>1018.65</ele>
        <time>2018-09-17T12:24:32Z</time>
      </trkpt>
      <trkpt lat="46.925676036626101" lon="11.448139976710081">
        <ele>1019.62</ele>
        <time>2018-09-17T12:24:33Z</time>
      </trkpt>
      <trkpt lat="46.925779972225428" lon="11.448398977518082">
        <ele>1020.58</ele>
        <time>2018-09-17T12:24:34Z</time>
      </trkpt>
      <trkpt lat="46.926083983853459" lon="11.44906198605895">
        <ele>1024.4200000000001</ele>
        <time>2018-09-17T12:24:37Z</time>
      </trkpt>
      <trkpt lat="46.926169982179999" lon="11.449234988540411">
        <ele>1025.3800000000001</ele>
        <time>2018-09-17T12:24:38Z</time>
      </trkpt>
      <trkpt lat="46.926292022690177" lon="11.449345964938402">
        <ele>1027.3099999999999</ele>
        <time>2018-09-17T12:24:39Z</time>
      </trkpt>
      <trkpt lat="46.926418002694845" lon="11.449449984356761">
        <ele>1028.75</ele>
        <time>2018-09-17T12:24:40Z</time>
      </trkpt>
      <trkpt lat="46.926583964377642" lon="11.449460964649916">
        <ele>1030.1900000000001</ele>
        <time>2018-09-17T12:24:41Z</time>
      </trkpt>
      <trkpt lat="46.926766019314528" lon="11.449465993791819">
        <ele>1031.6300000000001</ele>
        <time>2018-09-17T12:24:42Z</time>
      </trkpt>
      <trkpt lat="46.926962994039059" lon="11.449437998235226">
        <ele>1033.0699999999999</ele>
        <time>2018-09-17T12:24:43Z</time>
      </trkpt>
      <trkpt lat="46.928498977795243" lon="11.449215039610863">
        <ele>1041.73</ele>
        <time>2018-09-17T12:24:50Z</time>
      </trkpt>
      <trkpt lat="46.930250963196158" lon="11.448840033262968">
        <ele>1052.3</ele>
        <time>2018-09-17T12:24:57Z</time>
      </trkpt>
      <trkpt lat="46.931166015565395" lon="11.448635011911392">
        <ele>1054.7</ele>
        <time>2018-09-17T12:25:01Z</time>
      </trkpt>
      <trkpt lat="46.931423004716635" lon="11.448585977777839">
        <ele>1055.1800000000001</ele>
        <time>2018-09-17T12:25:02Z</time>
      </trkpt>
      <trkpt lat="46.933529963716865" lon="11.447319975122809">
        <ele>1056.1500000000001</ele>
        <time>2018-09-17T12:25:10Z</time>
      </trkpt>
      <trkpt lat="46.933250008150935" lon="11.447734041139483">
        <ele>1056.1500000000001</ele>
        <time>2018-09-17T12:25:11Z</time>
      </trkpt>
      <trkpt lat="46.933143977075815" lon="11.447854992002249">
        <ele>1057.1099999999999</ele>
        <time>2018-09-17T12:25:12Z</time>
      </trkpt>
      <trkpt lat="46.933251013979316" lon="11.447733035311103">
        <ele>1057.5899999999999</ele>
        <time>2018-09-17T12:25:13Z</time>
      </trkpt>
      <trkpt lat="46.933313040062785" lon="11.447641002014279">
        <ele>1059.03</ele>
        <time>2018-09-17T12:25:14Z</time>
      </trkpt>
      <trkpt lat="46.933400966227055" lon="11.447510998696089">
        <ele>1060.47</ele>
        <time>2018-09-17T12:25:15Z</time>
      </trkpt>
      <trkpt lat="46.933483025059104" lon="11.447388958185911">
        <ele>1061.9100000000001</ele>
        <time>2018-09-17T12:25:16Z</time>
      </trkpt>
      <trkpt lat="46.933744959533215" lon="11.447002971544862">
        <ele>1066.72</ele>
        <time>2018-09-17T12:25:19Z</time>
      </trkpt>
      <trkpt lat="46.933847973123193" lon="11.446906998753548">
        <ele>1068.1600000000001</ele>
        <time>2018-09-17T12:25:20Z</time>
      </trkpt>
      <trkpt lat="46.933957021683455" lon="11.446805996820331">
        <ele>1069.5999999999999</ele>
        <time>2018-09-17T12:25:21Z</time>
      </trkpt>
      <trkpt lat="46.934076966717839" lon="11.446704994887114">
        <ele>1070.5699999999999</ele>
        <time>2018-09-17T12:25:22Z</time>
      </trkpt>
      <trkpt lat="46.934209987521172" lon="11.446623019874096">
        <ele>1072.01</ele>
        <time>2018-09-17T12:25:23Z</time>
      </trkpt>
      <trkpt lat="46.935059996321797" lon="11.446151034906507">
        <ele>1076.3299999999999</ele>
        <time>2018-09-17T12:25:30Z</time>
      </trkpt>
      <trkpt lat="46.935324026271701" lon="11.446002004668117">
        <ele>1078.74</ele>
        <time>2018-09-17T12:25:34Z</time>
      </trkpt>
      <trkpt lat="46.935929032042623" lon="11.445635966956615">
        <ele>1080.6600000000001</ele>
        <time>2018-09-17T12:25:40Z</time>
      </trkpt>
      <trkpt lat="46.936392970383167" lon="11.445304965600371">
        <ele>1081.1400000000001</ele>
        <time>2018-09-17T12:25:44Z</time>
      </trkpt>
      <trkpt lat="46.936512999236584" lon="11.445268001407385">
        <ele>1080.6600000000001</ele>
        <time>2018-09-17T12:25:45Z</time>
      </trkpt>
      <trkpt lat="46.937529975548387" lon="11.444746982306242">
        <ele>1081.1400000000001</ele>
        <time>2018-09-17T12:25:54Z</time>
      </trkpt>
      <trkpt lat="46.937920991331339" lon="11.444562999531627">
        <ele>1082.0999999999999</ele>
        <time>2018-09-17T12:25:58Z</time>
      </trkpt>
      <trkpt lat="46.938035991042852" lon="11.444513965398073">
        <ele>1082.0999999999999</ele>
        <time>2018-09-17T12:25:59Z</time>
      </trkpt>
      <trkpt lat="46.938104974105954" lon="11.44454799592495">
        <ele>1082.0999999999999</ele>
        <time>2018-09-17T12:26:00Z</time>
      </trkpt>
      <trkpt lat="46.938176974654198" lon="11.444602981209755">
        <ele>1082.0999999999999</ele>
        <time>2018-09-17T12:26:01Z</time>
      </trkpt>
      <trkpt lat="46.938230032101274" lon="11.444710018113256">
        <ele>1082.0999999999999</ele>
        <time>2018-09-17T12:26:02Z</time>
      </trkpt>
      <trkpt lat="46.938257021829486" lon="11.444855025038123">
        <ele>1082.0999999999999</ele>
        <time>2018-09-17T12:26:03Z</time>
      </trkpt>
      <trkpt lat="46.93833296187222" lon="11.445153001695871">
        <ele>1082.5799999999999</ele>
        <time>2018-09-17T12:26:05Z</time>
      </trkpt>
      <trkpt lat="46.938404040411115" lon="11.445290967822075">
        <ele>1083.0599999999999</ele>
        <time>2018-09-17T12:26:06Z</time>
      </trkpt>
      <trkpt lat="46.938490038737655" lon="11.445420971140265">
        <ele>1083.54</ele>
        <time>2018-09-17T12:26:07Z</time>
      </trkpt>
      <trkpt lat="46.938572013750672" lon="11.445544017478824">
        <ele>1084.02</ele>
        <time>2018-09-17T12:26:08Z</time>
      </trkpt>
      <trkpt lat="46.938679972663522" lon="11.445716014131904">
        <ele>1084.5</ele>
        <time>2018-09-17T12:26:09Z</time>
      </trkpt>
      <trkpt lat="46.938762031495571" lon="11.445896979421377">
        <ele>1084.99</ele>
        <time>2018-09-17T12:26:10Z</time>
      </trkpt>
      <trkpt lat="46.939008040353656" lon="11.446540961042047">
        <ele>1087.8699999999999</ele>
        <time>2018-09-17T12:26:13Z</time>
      </trkpt>
      <trkpt lat="46.939120022580028" lon="11.44671899266541">
        <ele>1089.79</ele>
        <time>2018-09-17T12:26:14Z</time>
      </trkpt>
      <trkpt lat="46.939267041161656" lon="11.446877997368574">
        <ele>1091.23</ele>
        <time>2018-09-17T12:26:15Z</time>
      </trkpt>
      <trkpt lat="46.939442977309227" lon="11.447008000686765">
        <ele>1092.2</ele>
        <time>2018-09-17T12:26:16Z</time>
      </trkpt>
      <trkpt lat="46.939631989225745" lon="11.447116965427995">
        <ele>1093.6400000000001</ele>
        <time>2018-09-17T12:26:17Z</time>
      </trkpt>
      <trkpt lat="46.939817983657122" lon="11.447222996503115">
        <ele>1095.0799999999999</ele>
        <time>2018-09-17T12:26:18Z</time>
      </trkpt>
      <trkpt lat="46.941504003480077" lon="11.447855997830629">
        <ele>1107.0999999999999</ele>
        <time>2018-09-17T12:26:26Z</time>
      </trkpt>
      <trkpt lat="46.942071039229631" lon="11.447905031964183">
        <ele>1113.3399999999999</ele>
        <time>2018-09-17T12:26:29Z</time>
      </trkpt>
      <trkpt lat="46.942261978983879" lon="11.447921963408589">
        <ele>1115.27</ele>
        <time>2018-09-17T12:26:30Z</time>
      </trkpt>
      <trkpt lat="46.942451996728778" lon="11.447978960350156">
        <ele>1117.1900000000001</ele>
        <time>2018-09-17T12:26:31Z</time>
      </trkpt>
      <trkpt lat="46.942637991160154" lon="11.448047021403909">
        <ele>1118.6300000000001</ele>
        <time>2018-09-17T12:26:32Z</time>
      </trkpt>
      <trkpt lat="46.942829014733434" lon="11.448117010295391">
        <ele>1120.55</ele>
        <time>2018-09-17T12:26:33Z</time>
      </trkpt>
      <trkpt lat="46.943957973271608" lon="11.448826035484672">
        <ele>1132.0899999999999</ele>
        <time>2018-09-17T12:26:39Z</time>
      </trkpt>
      <trkpt lat="46.944155031815171" lon="11.448969030752778">
        <ele>1134.01</ele>
        <time>2018-09-17T12:26:40Z</time>
      </trkpt>
      <trkpt lat="46.944346977397799" lon="11.449108002707362">
        <ele>1135.45</ele>
        <time>2018-09-17T12:26:41Z</time>
      </trkpt>
      <trkpt lat="46.944706980139017" lon="11.449403967708349">
        <ele>1139.3</ele>
        <time>2018-09-17T12:26:43Z</time>
      </trkpt>
      <trkpt lat="46.944880988448858" lon="11.44957797601819">
        <ele>1140.74</ele>
        <time>2018-09-17T12:26:44Z</time>
      </trkpt>
      <trkpt lat="46.945316009223461" lon="11.450127996504307">
        <ele>1145.0699999999999</ele>
        <time>2018-09-17T12:26:47Z</time>
      </trkpt>
      <trkpt lat="46.945473002269864" lon="11.450293036177754">
        <ele>1146.99</ele>
        <time>2018-09-17T12:26:48Z</time>
      </trkpt>
      <trkpt lat="46.945647010579705" lon="11.45043502561748">
        <ele>1148.9100000000001</ele>
        <time>2018-09-17T12:26:49Z</time>
      </trkpt>
      <trkpt lat="46.947413999587297" lon="11.451473962515593">
        <ele>1166.22</ele>
        <time>2018-09-17T12:26:58Z</time>
      </trkpt>
      <trkpt lat="46.949134971946478" lon="11.452680034562945">
        <ele>1183.52</ele>
        <time>2018-09-17T12:27:07Z</time>
      </trkpt>
      <trkpt lat="46.949329013004899" lon="11.452767960727215">
        <ele>1185.4400000000001</ele>
        <time>2018-09-17T12:27:08Z</time>
      </trkpt>
      <trkpt lat="46.950288992375135" lon="11.453203987330198">
        <ele>1193.6099999999999</ele>
        <time>2018-09-17T12:27:14Z</time>
      </trkpt>
      <trkpt lat="46.950435005128384" lon="11.453235000371933">
        <ele>1195.54</ele>
        <time>2018-09-17T12:27:15Z</time>
      </trkpt>
      <trkpt lat="46.950574982911348" lon="11.453265007585287">
        <ele>1196.5</ele>
        <time>2018-09-17T12:27:16Z</time>
      </trkpt>
      <trkpt lat="46.950697023421526" lon="11.453290991485119">
        <ele>1197.46</ele>
        <time>2018-09-17T12:27:17Z</time>
      </trkpt>
      <trkpt lat="46.950795007869601" lon="11.453312030062079">
        <ele>1198.4200000000001</ele>
        <time>2018-09-17T12:27:18Z</time>
      </trkpt>
      <trkpt lat="46.950886035338044" lon="11.453330973163247">
        <ele>1199.3800000000001</ele>
        <time>2018-09-17T12:27:19Z</time>
      </trkpt>
      <trkpt lat="46.951101031154394" lon="11.453414959833026">
        <ele>1200.8199999999999</ele>
        <time>2018-09-17T12:27:21Z</time>
      </trkpt>
      <trkpt lat="46.95122298784554" lon="11.453486960381269">
        <ele>1201.3</ele>
        <time>2018-09-17T12:27:22Z</time>
      </trkpt>
      <trkpt lat="46.951346034184098" lon="11.453617969527841">
        <ele>1202.27</ele>
        <time>2018-09-17T12:27:23Z</time>
      </trkpt>
      <trkpt lat="46.951462961733341" lon="11.453761970624328">
        <ele>1203.23</ele>
        <time>2018-09-17T12:27:24Z</time>
      </trkpt>
      <trkpt lat="46.951589025557041" lon="11.453924998641014">
        <ele>1204.1900000000001</ele>
        <time>2018-09-17T12:27:25Z</time>
      </trkpt>
      <trkpt lat="46.952782021835446" lon="11.455504987388849">
        <ele>1211.8800000000001</ele>
        <time>2018-09-17T12:27:34Z</time>
      </trkpt>
      <trkpt lat="46.952921999618411" lon="11.455644965171814">
        <ele>1213.3199999999999</ele>
        <time>2018-09-17T12:27:35Z</time>
      </trkpt>
      <trkpt lat="46.953058037906885" lon="11.455781003460288">
        <ele>1214.28</ele>
        <time>2018-09-17T12:27:36Z</time>
      </trkpt>
      <trkpt lat="46.953210001811385" lon="11.455863984301686">
        <ele>1215.24</ele>
        <time>2018-09-17T12:27:37Z</time>
      </trkpt>
      <trkpt lat="46.953373029828072" lon="11.455942019820213">
        <ele>1216.21</ele>
        <time>2018-09-17T12:27:38Z</time>
      </trkpt>
      <trkpt lat="46.953536979854107" lon="11.456020977348089">
        <ele>1217.1700000000001</ele>
        <time>2018-09-17T12:27:39Z</time>
      </trkpt>
      <trkpt lat="46.953712999820709" lon="11.456066993996501">
        <ele>1218.1300000000001</ele>
        <time>2018-09-17T12:27:40Z</time>
      </trkpt>
      <trkpt lat="46.953895976766944" lon="11.45608501508832">
        <ele>1219.5699999999999</ele>
        <time>2018-09-17T12:27:41Z</time>
      </trkpt>
      <trkpt lat="46.955774025991559" lon="11.456282995641232">
        <ele>1229.6600000000001</ele>
        <time>2018-09-17T12:27:51Z</time>
      </trkpt>
      <trkpt lat="46.956192031502724" lon="11.456328006461263">
        <ele>1231.1099999999999</ele>
        <time>2018-09-17T12:27:54Z</time>
      </trkpt>
      <trkpt lat="46.956303007900715" lon="11.456362036988139">
        <ele>1232.0699999999999</ele>
        <time>2018-09-17T12:27:55Z</time>
      </trkpt>
      <trkpt lat="46.956389006227255" lon="11.456439988687634">
        <ele>1232.55</ele>
        <time>2018-09-17T12:27:56Z</time>
      </trkpt>
      <trkpt lat="46.956492019817233" lon="11.456544008105993">
        <ele>1233.03</ele>
        <time>2018-09-17T12:27:57Z</time>
      </trkpt>
      <trkpt lat="46.956510962918401" lon="11.456679040566087">
        <ele>1233.99</ele>
        <time>2018-09-17T12:27:58Z</time>
      </trkpt>
      <trkpt lat="46.956524960696697" lon="11.456852965056896">
        <ele>1234.47</ele>
        <time>2018-09-17T12:27:59Z</time>
      </trkpt>
      <trkpt lat="46.956484979018569" lon="11.456973999738693">
        <ele>1234.95</ele>
        <time>2018-09-17T12:28:00Z</time>
      </trkpt>
      <trkpt lat="46.956391017884016" lon="11.457087993621826">
        <ele>1235.4300000000001</ele>
        <time>2018-09-17T12:28:01Z</time>
      </trkpt>
      <trkpt lat="46.956276018172503" lon="11.457128981128335">
        <ele>1235.9100000000001</ele>
        <time>2018-09-17T12:28:02Z</time>
      </trkpt>
      <trkpt lat="46.956156995147467" lon="11.457124035805464">
        <ele>1236.8699999999999</ele>
        <time>2018-09-17T12:28:03Z</time>
      </trkpt>
      <trkpt lat="46.956021040678024" lon="11.45711800083518">
        <ele>1237.3499999999999</ele>
        <time>2018-09-17T12:28:04Z</time>
      </trkpt>
      <trkpt lat="46.955868992954493" lon="11.457111965864897">
        <ele>1237.8299999999999</ele>
        <time>2018-09-17T12:28:05Z</time>
      </trkpt>
      <trkpt lat="46.954722013324499" lon="11.45700903609395">
        <ele>1241.2</ele>
        <time>2018-09-17T12:28:12Z</time>
      </trkpt>
      <trkpt lat="46.954603996127844" lon="11.457025967538357">
        <ele>1241.6800000000001</ele>
        <time>2018-09-17T12:28:13Z</time>
      </trkpt>
      <trkpt lat="46.954496959224343" lon="11.457041976973414">
        <ele>1242.1600000000001</ele>
        <time>2018-09-17T12:28:14Z</time>
      </trkpt>
      <trkpt lat="46.954416995868087" lon="11.457111965864897">
        <ele>1242.6400000000001</ele>
        <time>2018-09-17T12:28:15Z</time>
      </trkpt>
      <trkpt lat="46.954355975612998" lon="11.457220008596778">
        <ele>1243.1199999999999</ele>
        <time>2018-09-17T12:28:16Z</time>
      </trkpt>
      <trkpt lat="46.954326974228024" lon="11.457364009693265">
        <ele>1243.5999999999999</ele>
        <time>2018-09-17T12:28:17Z</time>
      </trkpt>
      <trkpt lat="46.954343989491463" lon="11.457497030496597">
        <ele>1244.0799999999999</ele>
        <time>2018-09-17T12:28:18Z</time>
      </trkpt>
      <trkpt lat="46.95438195951283" lon="11.457628039643168">
        <ele>1244.5599999999999</ele>
        <time>2018-09-17T12:28:19Z</time>
      </trkpt>
      <trkpt lat="46.954451026394963" lon="11.457731975242496">
        <ele>1244.0799999999999</ele>
        <time>2018-09-17T12:28:20Z</time>
      </trkpt>
      <trkpt lat="46.954568959772587" lon="11.457774974405766">
        <ele>1244.5599999999999</ele>
        <time>2018-09-17T12:28:21Z</time>
      </trkpt>
      <trkpt lat="46.954698041081429" lon="11.457820991054177">
        <ele>1244.0799999999999</ele>
        <time>2018-09-17T12:28:22Z</time>
      </trkpt>
      <trkpt lat="46.954842964187264" lon="11.457862984389067">
        <ele>1244.5599999999999</ele>
        <time>2018-09-17T12:28:23Z</time>
      </trkpt>
      <trkpt lat="46.955910986289382" lon="11.458296999335289">
        <ele>1248.4100000000001</ele>
        <time>2018-09-17T12:28:29Z</time>
      </trkpt>
      <trkpt lat="46.956273000687361" lon="11.45860000513494">
        <ele>1250.3299999999999</ele>
        <time>2018-09-17T12:28:31Z</time>
      </trkpt>
      <trkpt lat="46.956426976248622" lon="11.458810977637768">
        <ele>1251.29</ele>
        <time>2018-09-17T12:28:32Z</time>
      </trkpt>
      <trkpt lat="46.95657298900187" lon="11.459042988717556">
        <ele>1251.77</ele>
        <time>2018-09-17T12:28:33Z</time>
      </trkpt>
      <trkpt lat="46.956729982048273" lon="11.459292015060782">
        <ele>1252.74</ele>
        <time>2018-09-17T12:28:34Z</time>
      </trkpt>
      <trkpt lat="46.956885969266295" lon="11.459552021697164">
        <ele>1253.7</ele>
        <time>2018-09-17T12:28:35Z</time>
      </trkpt>
      <trkpt lat="46.957033993676305" lon="11.459797024726868">
        <ele>1255.1400000000001</ele>
        <time>2018-09-17T12:28:36Z</time>
      </trkpt>
      <trkpt lat="46.957482006400824" lon="11.460429020226002">
        <ele>1257.54</ele>
        <time>2018-09-17T12:28:39Z</time>
      </trkpt>
      <trkpt lat="46.957646962255239" lon="11.460564974695444">
        <ele>1258.5</ele>
        <time>2018-09-17T12:28:40Z</time>
      </trkpt>
      <trkpt lat="46.957832034677267" lon="11.460662959143519">
        <ele>1259.9400000000001</ele>
        <time>2018-09-17T12:28:41Z</time>
      </trkpt>
      <trkpt lat="46.958207041025162" lon="11.460862029343843">
        <ele>1262.3499999999999</ele>
        <time>2018-09-17T12:28:43Z</time>
      </trkpt>
      <trkpt lat="46.958382977172732" lon="11.46100502461195">
        <ele>1263.3099999999999</ele>
        <time>2018-09-17T12:28:44Z</time>
      </trkpt>
      <trkpt lat="46.958552040159702" lon="11.461186995729804">
        <ele>1264.27</ele>
        <time>2018-09-17T12:28:45Z</time>
      </trkpt>
      <trkpt lat="46.958710961043835" lon="11.461398974061012">
        <ele>1265.71</ele>
        <time>2018-09-17T12:28:46Z</time>
      </trkpt>
      <trkpt lat="46.958869965746999" lon="11.461616987362504">
        <ele>1266.6700000000001</ele>
        <time>2018-09-17T12:28:47Z</time>
      </trkpt>
      <trkpt lat="46.959458962082863" lon="11.462415028363466">
        <ele>1272.9200000000001</ele>
        <time>2018-09-17T12:28:51Z</time>
      </trkpt>
      <trkpt lat="46.95977596566081" lon="11.462637986987829">
        <ele>1275.8099999999999</ele>
        <time>2018-09-17T12:28:53Z</time>
      </trkpt>
      <trkpt lat="46.959938993677497" lon="11.462752986699343">
        <ele>1277.25</ele>
        <time>2018-09-17T12:28:54Z</time>
      </trkpt>
      <trkpt lat="46.961112963035703" lon="11.463144002482295">
        <ele>1284.9400000000001</ele>
        <time>2018-09-17T12:29:01Z</time>
      </trkpt>
      <trkpt lat="46.96127800270915" lon="11.463156994432211">
        <ele>1285.9000000000001</ele>
        <time>2018-09-17T12:29:02Z</time>
      </trkpt>
      <trkpt lat="46.962335966527462" lon="11.463104020804167">
        <ele>1291.1900000000001</ele>
        <time>2018-09-17T12:29:08Z</time>
      </trkpt>
      <trkpt lat="46.962541993707418" lon="11.463126987218857">
        <ele>1291.6700000000001</ele>
        <time>2018-09-17T12:29:09Z</time>
      </trkpt>
      <trkpt lat="46.962721031159163" lon="11.463189013302326">
        <ele>1292.1500000000001</ele>
        <time>2018-09-17T12:29:10Z</time>
      </trkpt>
      <trkpt lat="46.962858997285366" lon="11.463282974436879">
        <ele>1292.1500000000001</ele>
        <time>2018-09-17T12:29:11Z</time>
      </trkpt>
      <trkpt lat="46.963010961189866" lon="11.463387999683619">
        <ele>1292.6300000000001</ele>
        <time>2018-09-17T12:29:12Z</time>
      </trkpt>
      <trkpt lat="46.963149011135101" lon="11.463527977466583">
        <ele>1293.5899999999999</ele>
        <time>2018-09-17T12:29:13Z</time>
      </trkpt>
      <trkpt lat="46.963292006403208" lon="11.463697040453553">
        <ele>1294.55</ele>
        <time>2018-09-17T12:29:14Z</time>
      </trkpt>
      <trkpt lat="46.963438019156456" lon="11.463868031278253">
        <ele>1295.51</ele>
        <time>2018-09-17T12:29:15Z</time>
      </trkpt>
      <trkpt lat="46.964678959921002" lon="11.465326985344291">
        <ele>1300.3199999999999</ele>
        <time>2018-09-17T12:29:22Z</time>
      </trkpt>
      <trkpt lat="46.966276969760656" lon="11.467284997925162">
        <ele>1302.72</ele>
        <time>2018-09-17T12:29:29Z</time>
      </trkpt>
      <trkpt lat="46.967882020398974" lon="11.469271006062627">
        <ele>1306.0899999999999</ele>
        <time>2018-09-17T12:29:36Z</time>
      </trkpt>
      <trkpt lat="46.969737019389868" lon="11.471572006121278">
        <ele>1308.97</ele>
        <time>2018-09-17T12:29:45Z</time>
      </trkpt>
      <trkpt lat="46.971123972907662" lon="11.473289038985968">
        <ele>1310.4100000000001</ele>
        <time>2018-09-17T12:29:54Z</time>
      </trkpt>
      <trkpt lat="46.973209977149963" lon="11.476021036505699">
        <ele>1313.3</ele>
        <time>2018-09-17T12:30:08Z</time>
      </trkpt>
      <trkpt lat="46.974588967859745" lon="11.478145010769367">
        <ele>1318.5899999999999</ele>
        <time>2018-09-17T12:30:18Z</time>
      </trkpt>
      <trkpt lat="46.974832965061069" lon="11.478620013222098">
        <ele>1319.55</ele>
        <time>2018-09-17T12:30:20Z</time>
      </trkpt>
      <trkpt lat="46.975583983585238" lon="11.480133030563593">
        <ele>1325.8</ele>
        <time>2018-09-17T12:30:27Z</time>
      </trkpt>
      <trkpt lat="46.976149007678032" lon="11.48118101991713">
        <ele>1330.5999999999999</ele>
        <time>2018-09-17T12:30:33Z</time>
      </trkpt>
      <trkpt lat="46.976244980469346" lon="11.481343964114785">
        <ele>1331.0799999999999</ele>
        <time>2018-09-17T12:30:34Z</time>
      </trkpt>
      <trkpt lat="46.976345982402563" lon="11.481486959382892">
        <ele>1332.04</ele>
        <time>2018-09-17T12:30:35Z</time>
      </trkpt>
      <trkpt lat="46.976471962407231" lon="11.481584021821618">
        <ele>1332.04</ele>
        <time>2018-09-17T12:30:36Z</time>
      </trkpt>
      <trkpt lat="46.976598026230931" lon="11.481679994612932">
        <ele>1332.52</ele>
        <time>2018-09-17T12:30:37Z</time>
      </trkpt>
      <trkpt lat="46.976732974871993" lon="11.481765992939472">
        <ele>1333.01</ele>
        <time>2018-09-17T12:30:38Z</time>
      </trkpt>
      <trkpt lat="46.976871024817228" lon="11.481851991266012">
        <ele>1333.01</ele>
        <time>2018-09-17T12:30:39Z</time>
      </trkpt>
      <trkpt lat="46.977874003350735" lon="11.48249396122992">
        <ele>1330.1199999999999</ele>
        <time>2018-09-17T12:30:46Z</time>
      </trkpt>
      <trkpt lat="46.978010963648558" lon="11.482639973983169">
        <ele>1329.1600000000001</ele>
        <time>2018-09-17T12:30:47Z</time>
      </trkpt>
      <trkpt lat="46.978139039129019" lon="11.48281498812139">
        <ele>1328.6800000000001</ele>
        <time>2018-09-17T12:30:48Z</time>
      </trkpt>
      <trkpt lat="46.979375034570694" lon="11.484780041500926">
        <ele>1326.28</ele>
        <time>2018-09-17T12:30:57Z</time>
      </trkpt>
      <trkpt lat="46.980146002024412" lon="11.486777029931545">
        <ele>1325.3099999999999</ele>
        <time>2018-09-17T12:31:04Z</time>
      </trkpt>
      <trkpt lat="46.980962986126542" lon="11.489336024969816">
        <ele>1330.5999999999999</ele>
        <time>2018-09-17T12:31:13Z</time>
      </trkpt>
      <trkpt lat="46.981049990281463" lon="11.489597959443927">
        <ele>1331.0799999999999</ele>
        <time>2018-09-17T12:31:14Z</time>
      </trkpt>
      <trkpt lat="46.982141984626651" lon="11.491496041417122">
        <ele>1334.45</ele>
        <time>2018-09-17T12:31:22Z</time>
      </trkpt>
      <trkpt lat="46.98231297545135" lon="11.491666026413441">
        <ele>1334.45</ele>
        <time>2018-09-17T12:31:23Z</time>
      </trkpt>
      <trkpt lat="46.983517035841942" lon="11.492962036281824">
        <ele>1336.8499999999999</ele>
        <time>2018-09-17T12:31:30Z</time>
      </trkpt>
      <trkpt lat="46.984950006008148" lon="11.4942860417068">
        <ele>1341.6600000000001</ele>
        <time>2018-09-17T12:31:38Z</time>
      </trkpt>
      <trkpt lat="46.986862001940608" lon="11.49514895863831">
        <ele>1347.9100000000001</ele>
        <time>2018-09-17T12:31:48Z</time>
      </trkpt>
      <trkpt lat="46.989200972020626" lon="11.496053030714393">
        <ele>1358.48</ele>
        <time>2018-09-17T12:31:59Z</time>
      </trkpt>
      <trkpt lat="46.991174994036555" lon="11.497153993695974">
        <ele>1367.6099999999999</ele>
        <time>2018-09-17T12:32:08Z</time>
      </trkpt>
      <trkpt lat="46.993384966626763" lon="11.498686959967017">
        <ele>1373.3800000000001</ele>
        <time>2018-09-17T12:32:19Z</time>
      </trkpt>
      <trkpt lat="46.995080960914493" lon="11.499964026734233">
        <ele>1371.46</ele>
        <time>2018-09-17T12:32:27Z</time>
      </trkpt>
      <trkpt lat="46.997526967898011" lon="11.501597994938493">
        <ele>1373.3800000000001</ele>
        <time>2018-09-17T12:32:39Z</time>
      </trkpt>
      <trkpt lat="46.999057000502944" lon="11.5025370195508">
        <ele>1375.3</ele>
        <time>2018-09-17T12:32:48Z</time>
      </trkpt>
      <trkpt lat="47.000220995396376" lon="11.503337994217873">
        <ele>1376.75</ele>
        <time>2018-09-17T12:32:57Z</time>
      </trkpt>
      <trkpt lat="47.001235960051417" lon="11.504020029678941">
        <ele>1378.6700000000001</ele>
        <time>2018-09-17T12:33:07Z</time>
      </trkpt>
      <trkpt lat="47.001808024942875" lon="11.504381038248539">
        <ele>1379.6300000000001</ele>
        <time>2018-09-17T12:33:12Z</time>
      </trkpt>
      <trkpt lat="47.001870973035693" lon="11.50440501049161">
        <ele>1379.6300000000001</ele>
        <time>2018-09-17T12:33:13Z</time>
      </trkpt>
      <trkpt lat="47.001977004110813" lon="11.504447003826499">
        <ele>1380.1099999999999</ele>
        <time>2018-09-17T12:33:14Z</time>
      </trkpt>
      <trkpt lat="47.00297998264432" lon="11.504999035969377">
        <ele>1380.1099999999999</ele>
        <time>2018-09-17T12:33:24Z</time>
      </trkpt>
      <trkpt lat="47.003726977854967" lon="11.505466997623444">
        <ele>1381.0699999999999</ele>
        <time>2018-09-17T12:33:33Z</time>
      </trkpt>
      <trkpt lat="47.004768010228872" lon="11.505955997854471">
        <ele>1381.0699999999999</ele>
        <time>2018-09-17T12:33:44Z</time>
      </trkpt>
      <trkpt lat="47.005843995139003" lon="11.506381966173649">
        <ele>1383.47</ele>
        <time>2018-09-17T12:33:56Z</time>
      </trkpt>
      <trkpt lat="47.005892023444176" lon="11.506398981437087">
        <ele>1383.96</ele>
        <time>2018-09-17T12:34:01Z</time>
      </trkpt>
      <trkpt lat="47.006013980135322" lon="11.506412979215384">
        <ele>1383.47</ele>
        <time>2018-09-17T12:34:15Z</time>
      </trkpt>
      <trkpt lat="47.00637498870492" lon="11.506379032507539">
        <ele>1382.03</ele>
        <time>2018-09-17T12:34:25Z</time>
      </trkpt>
      <trkpt lat="47.006474984809756" lon="11.506413985043764">
        <ele>1381.55</ele>
        <time>2018-09-17T12:34:27Z</time>
      </trkpt>
      <trkpt lat="47.006528964266181" lon="11.506440974771976">
        <ele>1381.55</ele>
        <time>2018-09-17T12:34:28Z</time>
      </trkpt>
      <trkpt lat="47.006652010604739" lon="11.506407028064132">
        <ele>1381.0699999999999</ele>
        <time>2018-09-17T12:34:31Z</time>
      </trkpt>
      <trkpt lat="47.006702972576022" lon="11.506414990872145">
        <ele>1380.5899999999999</ele>
        <time>2018-09-17T12:34:32Z</time>
      </trkpt>
      <trkpt lat="47.006758041679859" lon="11.506423037499189">
        <ele>1380.5899999999999</ele>
        <time>2018-09-17T12:34:33Z</time>
      </trkpt>
      <trkpt lat="47.006813026964664" lon="11.506432006135583">
        <ele>1380.5899999999999</ele>
        <time>2018-09-17T12:34:34Z</time>
      </trkpt>
      <trkpt lat="47.006872035562992" lon="11.506440974771976">
        <ele>1380.5899999999999</ele>
        <time>2018-09-17T12:34:35Z</time>
      </trkpt>
      <trkpt lat="47.006941018626094" lon="11.506479028612375">
        <ele>1380.1099999999999</ele>
        <time>2018-09-17T12:34:36Z</time>
      </trkpt>
      <trkpt lat="47.007012013345957" lon="11.506518004462123">
        <ele>1380.5899999999999</ele>
        <time>2018-09-17T12:34:37Z</time>
      </trkpt>
      <trkpt lat="47.007082002237439" lon="11.506556980311871">
        <ele>1381.55</ele>
        <time>2018-09-17T12:34:38Z</time>
      </trkpt>
      <trkpt lat="47.007150985300541" lon="11.506595034152269">
        <ele>1381.55</ele>
        <time>2018-09-17T12:34:39Z</time>
      </trkpt>
      <trkpt lat="47.007209993898869" lon="11.506626969203353">
        <ele>1382.03</ele>
        <time>2018-09-17T12:34:40Z</time>
      </trkpt>
      <trkpt lat="47.007270008325577" lon="11.506659993901849">
        <ele>1382.03</ele>
        <time>2018-09-17T12:34:41Z</time>
      </trkpt>
      <trkpt lat="47.007345026358962" lon="11.506700981408358">
        <ele>1382.51</ele>
        <time>2018-09-17T12:34:42Z</time>
      </trkpt>
      <trkpt lat="47.008052039891481" lon="11.506976997479796">
        <ele>1382.99</ele>
        <time>2018-09-17T12:34:50Z</time>
      </trkpt>
      <trkpt lat="47.009393982589245" lon="11.507059978321195">
        <ele>1380.1099999999999</ele>
        <time>2018-09-17T12:35:01Z</time>
      </trkpt>
      <trkpt lat="47.010989980772138" lon="11.506992001086473">
        <ele>1374.3399999999999</ele>
        <time>2018-09-17T12:35:12Z</time>
      </trkpt>
      <trkpt lat="47.01262797228992" lon="11.506936009973288">
        <ele>1368.5699999999999</ele>
        <time>2018-09-17T12:35:23Z</time>
      </trkpt>
      <trkpt lat="47.01391501352191" lon="11.50734999217093">
        <ele>1361.3599999999999</ele>
        <time>2018-09-17T12:35:31Z</time>
      </trkpt>
      <trkpt lat="47.014057002961636" lon="11.507473960518837">
        <ele>1360.4000000000001</ele>
        <time>2018-09-17T12:35:32Z</time>
      </trkpt>
      <trkpt lat="47.015115972608328" lon="11.5087900031358">
        <ele>1352.71</ele>
        <time>2018-09-17T12:35:40Z</time>
      </trkpt>
      <trkpt lat="47.01524899341166" lon="11.508932998403907">
        <ele>1351.27</ele>
        <time>2018-09-17T12:35:41Z</time>
      </trkpt>
      <trkpt lat="47.015392994508147" lon="11.509057972580194">
        <ele>1350.3099999999999</ele>
        <time>2018-09-17T12:35:42Z</time>
      </trkpt>
      <trkpt lat="47.01554898172617" lon="11.50915696285665">
        <ele>1349.3499999999999</ele>
        <time>2018-09-17T12:35:43Z</time>
      </trkpt>
      <trkpt lat="47.015712009742856" lon="11.509227035567164">
        <ele>1347.9100000000001</ele>
        <time>2018-09-17T12:35:44Z</time>
      </trkpt>
      <trkpt lat="47.015875959768891" lon="11.509295012801886">
        <ele>1346.9400000000001</ele>
        <time>2018-09-17T12:35:45Z</time>
      </trkpt>
      <trkpt lat="47.016040999442339" lon="11.509310016408563">
        <ele>1345.5</ele>
        <time>2018-09-17T12:35:46Z</time>
      </trkpt>
      <trkpt lat="47.016217019408941" lon="11.509299958124757">
        <ele>1344.54</ele>
        <time>2018-09-17T12:35:47Z</time>
      </trkpt>
      <trkpt lat="47.016393961384892" lon="11.509271962568164">
        <ele>1343.0999999999999</ele>
        <time>2018-09-17T12:35:48Z</time>
      </trkpt>
      <trkpt lat="47.016572998836637" lon="11.509214965626597">
        <ele>1342.1400000000001</ele>
        <time>2018-09-17T12:35:49Z</time>
      </trkpt>
      <trkpt lat="47.016748012974858" lon="11.509146988391876">
        <ele>1340.7</ele>
        <time>2018-09-17T12:35:50Z</time>
      </trkpt>
      <trkpt lat="47.016916992142797" lon="11.509031988680363">
        <ele>1339.25</ele>
        <time>2018-09-17T12:35:51Z</time>
      </trkpt>
      <trkpt lat="47.017079014331102" lon="11.508921012282372">
        <ele>1338.29</ele>
        <time>2018-09-17T12:35:52Z</time>
      </trkpt>
      <trkpt lat="47.017219997942448" lon="11.508777011185884">
        <ele>1336.8499999999999</ele>
        <time>2018-09-17T12:35:53Z</time>
      </trkpt>
      <trkpt lat="47.017350001260638" lon="11.508619012311101">
        <ele>1335.4100000000001</ele>
        <time>2018-09-17T12:35:54Z</time>
      </trkpt>
      <trkpt lat="47.017465000972152" lon="11.508457995951176">
        <ele>1334.45</ele>
        <time>2018-09-17T12:35:55Z</time>
      </trkpt>
      <trkpt lat="47.018211996182799" lon="11.507001975551248">
        <ele>1328.6800000000001</ele>
        <time>2018-09-17T12:36:03Z</time>
      </trkpt>
      <trkpt lat="47.019212041050196" lon="11.505433972924948">
        <ele>1326.76</ele>
        <time>2018-09-17T12:36:11Z</time>
      </trkpt>
      <trkpt lat="47.021052036434412" lon="11.502969022840261">
        <ele>1325.8</ele>
        <time>2018-09-17T12:36:23Z</time>
      </trkpt>
      <trkpt lat="47.02141497284174" lon="11.502683032304049">
        <ele>1325.3099999999999</ele>
        <time>2018-09-17T12:36:25Z</time>
      </trkpt>
      <trkpt lat="47.021596021950245" lon="11.502556968480349">
        <ele>1324.8299999999999</ele>
        <time>2018-09-17T12:36:26Z</time>
      </trkpt>
      <trkpt lat="47.021791990846395" lon="11.502468036487699">
        <ele>1323.8699999999999</ele>
        <time>2018-09-17T12:36:27Z</time>
      </trkpt>
      <trkpt lat="47.023378014564514" lon="11.501695979386568">
        <ele>1316.6600000000001</ele>
        <time>2018-09-17T12:36:35Z</time>
      </trkpt>
      <trkpt lat="47.023557974025607" lon="11.501683993265033">
        <ele>1315.22</ele>
        <time>2018-09-17T12:36:36Z</time>
      </trkpt>
      <trkpt lat="47.023728964850307" lon="11.501689022406936">
        <ele>1313.78</ele>
        <time>2018-09-17T12:36:37Z</time>
      </trkpt>
      <trkpt lat="47.023896016180515" lon="11.501738978549838">
        <ele>1312.3399999999999</ele>
        <time>2018-09-17T12:36:38Z</time>
      </trkpt>
      <trkpt lat="47.02405896037817" lon="11.501846015453339">
        <ele>1310.9000000000001</ele>
        <time>2018-09-17T12:36:39Z</time>
      </trkpt>
      <trkpt lat="47.024225005879998" lon="11.501954980194569">
        <ele>1309.45</ele>
        <time>2018-09-17T12:36:40Z</time>
      </trkpt>
      <trkpt lat="47.024576039984822" lon="11.50215002708137">
        <ele>1306.0899999999999</ele>
        <time>2018-09-17T12:36:42Z</time>
      </trkpt>
      <trkpt lat="47.024751976132393" lon="11.50219595991075">
        <ele>1304.6500000000001</ele>
        <time>2018-09-17T12:36:43Z</time>
      </trkpt>
      <trkpt lat="47.024934031069279" lon="11.502243988215923">
        <ele>1302.72</ele>
        <time>2018-09-17T12:36:44Z</time>
      </trkpt>
      <trkpt lat="47.025694018229842" lon="11.502310959622264">
        <ele>1294.55</ele>
        <time>2018-09-17T12:36:48Z</time>
      </trkpt>
      <trkpt lat="47.025874983519316" lon="11.502282964065671">
        <ele>1292.6300000000001</ele>
        <time>2018-09-17T12:36:49Z</time>
      </trkpt>
      <trkpt lat="47.02605402097106" lon="11.502227978780866">
        <ele>1290.71</ele>
        <time>2018-09-17T12:36:50Z</time>
      </trkpt>
      <trkpt lat="47.026221994310617" lon="11.502137035131454">
        <ele>1288.3</ele>
        <time>2018-09-17T12:36:51Z</time>
      </trkpt>
      <trkpt lat="47.026367001235485" lon="11.50200099684298">
        <ele>1286.3800000000001</ele>
        <time>2018-09-17T12:36:52Z</time>
      </trkpt>
      <trkpt lat="47.02650697901845" lon="11.501863030716777">
        <ele>1284.46</ele>
        <time>2018-09-17T12:36:53Z</time>
      </trkpt>
      <trkpt lat="47.026631031185389" lon="11.50170000270009">
        <ele>1282.54</ele>
        <time>2018-09-17T12:36:54Z</time>
      </trkpt>
      <trkpt lat="47.026750976219773" lon="11.501543009653687">
        <ele>1280.1300000000001</ele>
        <time>2018-09-17T12:36:55Z</time>
      </trkpt>
      <trkpt lat="47.026816019788384" lon="11.501394985243678">
        <ele>1277.73</ele>
        <time>2018-09-17T12:36:56Z</time>
      </trkpt>
      <trkpt lat="47.026868993416429" lon="11.501263976097107">
        <ele>1275.8099999999999</ele>
        <time>2018-09-17T12:36:57Z</time>
      </trkpt>
      <trkpt lat="47.026891959831119" lon="11.501204967498779">
        <ele>1274.3599999999999</ele>
        <time>2018-09-17T12:36:58Z</time>
      </trkpt>
      <trkpt lat="47.026919033378363" lon="11.501102959737182">
        <ele>1272.9200000000001</ele>
        <time>2018-09-17T12:36:59Z</time>
      </trkpt>
      <trkpt lat="47.026932025328279" lon="11.501053003594279">
        <ele>1271.48</ele>
        <time>2018-09-17T12:37:00Z</time>
      </trkpt>
      <trkpt lat="47.026932025328279" lon="11.501053003594279">
        <ele>1268.1199999999999</ele>
        <time>2018-09-17T12:37:08Z</time>
      </trkpt>
      <trkpt lat="47.026932025328279" lon="11.501053003594279">
        <ele>1267.1600000000001</ele>
        <time>2018-09-17T12:37:46Z</time>
      </trkpt>
      <trkpt lat="47.026949962601066" lon="11.500984020531178">
        <ele>1266.1900000000001</ele>
        <time>2018-09-17T12:38:09Z</time>
      </trkpt>
      <trkpt lat="47.026972007006407" lon="11.500897016376257">
        <ele>1265.71</ele>
        <time>2018-09-17T12:38:10Z</time>
      </trkpt>
      <trkpt lat="47.027163030579686" lon="11.499862018972635">
        <ele>1259.9400000000001</ele>
        <time>2018-09-17T12:38:16Z</time>
      </trkpt>
      <trkpt lat="47.027197983115911" lon="11.498446986079216">
        <ele>1252.25</ele>
        <time>2018-09-17T12:38:21Z</time>
      </trkpt>
      <trkpt lat="47.027176022529602" lon="11.498154038563371">
        <ele>1250.3299999999999</ele>
        <time>2018-09-17T12:38:22Z</time>
      </trkpt>
      <trkpt lat="47.02715003862977" lon="11.497302018105984">
        <ele>1244.5599999999999</ele>
        <time>2018-09-17T12:38:25Z</time>
      </trkpt>
      <trkpt lat="47.02717300504446" lon="11.497033964842558">
        <ele>1242.6400000000001</ele>
        <time>2018-09-17T12:38:26Z</time>
      </trkpt>
      <trkpt lat="47.027203012257814" lon="11.496765995398164">
        <ele>1240.72</ele>
        <time>2018-09-17T12:38:27Z</time>
      </trkpt>
      <trkpt lat="47.027267972007394" lon="11.496510012075305">
        <ele>1238.8</ele>
        <time>2018-09-17T12:38:28Z</time>
      </trkpt>
      <trkpt lat="47.027338966727257" lon="11.496233996003866">
        <ele>1237.3499999999999</ele>
        <time>2018-09-17T12:38:29Z</time>
      </trkpt>
      <trkpt lat="47.028025025501847" lon="11.493756975978613">
        <ele>1226.3</ele>
        <time>2018-09-17T12:38:37Z</time>
      </trkpt>
      <trkpt lat="47.02919103205204" lon="11.49072197265923">
        <ele>1221.49</ele>
        <time>2018-09-17T12:38:47Z</time>
      </trkpt>
      <trkpt lat="47.029442992061377" lon="11.490215035155416">
        <ele>1221.01</ele>
        <time>2018-09-17T12:38:49Z</time>
      </trkpt>
      <trkpt lat="47.029575007036328" lon="11.490008002147079">
        <ele>1220.53</ele>
        <time>2018-09-17T12:38:50Z</time>
      </trkpt>
      <trkpt lat="47.029702998697758" lon="11.489804992452264">
        <ele>1220.53</ele>
        <time>2018-09-17T12:38:51Z</time>
      </trkpt>
      <trkpt lat="47.029830990359187" lon="11.489596031606197">
        <ele>1220.05</ele>
        <time>2018-09-17T12:38:52Z</time>
      </trkpt>
      <trkpt lat="47.029956970363855" lon="11.489391010254622">
        <ele>1219.5699999999999</ele>
        <time>2018-09-17T12:38:53Z</time>
      </trkpt>
      <trkpt lat="47.030622996389866" lon="11.488445028662682">
        <ele>1216.21</ele>
        <time>2018-09-17T12:38:59Z</time>
      </trkpt>
      <trkpt lat="47.030730033293366" lon="11.488344026729465">
        <ele>1214.76</ele>
        <time>2018-09-17T12:39:00Z</time>
      </trkpt>
      <trkpt lat="47.030841009691358" lon="11.488237995654345">
        <ele>1213.8</ele>
        <time>2018-09-17T12:39:01Z</time>
      </trkpt>
      <trkpt lat="47.031513992697001" lon="11.487542968243361">
        <ele>1207.0699999999999</ele>
        <time>2018-09-17T12:39:07Z</time>
      </trkpt>
      <trkpt lat="47.031608037650585" lon="11.487399972975254">
        <ele>1206.1099999999999</ele>
        <time>2018-09-17T12:39:08Z</time>
      </trkpt>
      <trkpt lat="47.031699987128377" lon="11.487257983535528">
        <ele>1205.1500000000001</ele>
        <time>2018-09-17T12:39:09Z</time>
      </trkpt>
      <trkpt lat="47.032042974606156" lon="11.486733024939895">
        <ele>1201.79</ele>
        <time>2018-09-17T12:39:13Z</time>
      </trkpt>
      <trkpt lat="47.032471038401127" lon="11.486173029989004">
        <ele>1199.3800000000001</ele>
        <time>2018-09-17T12:39:18Z</time>
      </trkpt>
      <trkpt lat="47.033141003921628" lon="11.485139960423112">
        <ele>1196.5</ele>
        <time>2018-09-17T12:39:27Z</time>
      </trkpt>
      <trkpt lat="47.033540988340974" lon="11.484716003760695">
        <ele>1192.6500000000001</ele>
        <time>2018-09-17T12:39:31Z</time>
      </trkpt>
      <trkpt lat="47.034302987158298" lon="11.483979988843203">
        <ele>1184.48</ele>
        <time>2018-09-17T12:39:37Z</time>
      </trkpt>
      <trkpt lat="47.034416981041431" lon="11.483830036595464">
        <ele>1183.52</ele>
        <time>2018-09-17T12:39:38Z</time>
      </trkpt>
      <trkpt lat="47.034526029601693" lon="11.483687041327357">
        <ele>1182.5599999999999</ele>
        <time>2018-09-17T12:39:39Z</time>
      </trkpt>
      <trkpt lat="47.034990973770618" lon="11.482934011146426">
        <ele>1178.71</ele>
        <time>2018-09-17T12:39:45Z</time>
      </trkpt>
      <trkpt lat="47.035046964883804" lon="11.482839966192842">
        <ele>1178.23</ele>
        <time>2018-09-17T12:39:46Z</time>
      </trkpt>
      <trkpt lat="47.035098010674119" lon="11.482753967866302">
        <ele>1177.75</ele>
        <time>2018-09-17T12:39:47Z</time>
      </trkpt>
      <trkpt lat="47.03557200729847" lon="11.481545967981219">
        <ele>1175.3499999999999</ele>
        <time>2018-09-17T12:39:57Z</time>
      </trkpt>
      <trkpt lat="47.035617018118501" lon="11.481413030996919">
        <ele>1175.3499999999999</ele>
        <time>2018-09-17T12:39:58Z</time>
      </trkpt>
      <trkpt lat="47.03585003502667" lon="11.480843983590603">
        <ele>1175.3499999999999</ele>
        <time>2018-09-17T12:40:02Z</time>
      </trkpt>
      <trkpt lat="47.036846978589892" lon="11.479545040056109">
        <ele>1174.8699999999999</ele>
        <time>2018-09-17T12:40:13Z</time>
      </trkpt>
      <trkpt lat="47.036940017715096" lon="11.479456024244428">
        <ele>1174.3900000000001</ele>
        <time>2018-09-17T12:40:14Z</time>
      </trkpt>
      <trkpt lat="47.037149984389544" lon="11.479306994006038">
        <ele>1173.9100000000001</ele>
        <time>2018-09-17T12:40:16Z</time>
      </trkpt>
      <trkpt lat="47.037252997979522" lon="11.479234993457794">
        <ele>1173.9100000000001</ele>
        <time>2018-09-17T12:40:17Z</time>
      </trkpt>
      <trkpt lat="47.037366991862655" lon="11.479211021214724">
        <ele>1173.4300000000001</ele>
        <time>2018-09-17T12:40:18Z</time>
      </trkpt>
      <trkpt lat="47.038276009261608" lon="11.479125022888184">
        <ele>1169.0999999999999</ele>
        <time>2018-09-17T12:40:27Z</time>
      </trkpt>
      <trkpt lat="47.038327977061272" lon="11.479125022888184">
        <ele>1168.6199999999999</ele>
        <time>2018-09-17T12:40:28Z</time>
      </trkpt>
      <trkpt lat="47.03836896456778" lon="11.479125022888184">
        <ele>1168.1400000000001</ele>
        <time>2018-09-17T12:40:29Z</time>
      </trkpt>
      <trkpt lat="47.038402995094657" lon="11.479125022888184">
        <ele>1167.6600000000001</ele>
        <time>2018-09-17T12:40:30Z</time>
      </trkpt>
      <trkpt lat="47.03843099065125" lon="11.479125022888184">
        <ele>1167.6600000000001</ele>
        <time>2018-09-17T12:40:31Z</time>
      </trkpt>
      <trkpt lat="47.038445994257927" lon="11.479026032611728">
        <ele>1167.1800000000001</ele>
        <time>2018-09-17T12:40:32Z</time>
      </trkpt>
      <trkpt lat="47.038427973166108" lon="11.478971969336271">
        <ele>1166.22</ele>
        <time>2018-09-17T12:40:33Z</time>
      </trkpt>
      <trkpt lat="47.038404000923038" lon="11.478898040950298">
        <ele>1166.22</ele>
        <time>2018-09-17T12:40:34Z</time>
      </trkpt>
      <trkpt lat="47.0383679587394" lon="11.47881698794663">
        <ele>1165.26</ele>
        <time>2018-09-17T12:40:35Z</time>
      </trkpt>
      <trkpt lat="47.038326971232891" lon="11.478723026812077">
        <ele>1164.77</ele>
        <time>2018-09-17T12:40:36Z</time>
      </trkpt>
      <trkpt lat="47.038273997604847" lon="11.478649014607072">
        <ele>1164.29</ele>
        <time>2018-09-17T12:40:37Z</time>
      </trkpt>
      <trkpt lat="47.038191016763449" lon="11.478586988523602">
        <ele>1164.77</ele>
        <time>2018-09-17T12:40:38Z</time>
      </trkpt>
      <trkpt lat="47.038102000951767" lon="11.478520017117262">
        <ele>1164.77</ele>
        <time>2018-09-17T12:40:39Z</time>
      </trkpt>
      <trkpt lat="47.038007033988833" lon="11.478475006297231">
        <ele>1165.26</ele>
        <time>2018-09-17T12:40:40Z</time>
      </trkpt>
      <trkpt lat="47.037896979600191" lon="11.478457991033792">
        <ele>1165.74</ele>
        <time>2018-09-17T12:40:41Z</time>
      </trkpt>
      <trkpt lat="47.037791032344103" lon="11.478441981598735">
        <ele>1166.22</ele>
        <time>2018-09-17T12:40:42Z</time>
      </trkpt>
      <trkpt lat="47.037706961855292" lon="11.478465031832457">
        <ele>1166.7</ele>
        <time>2018-09-17T12:40:43Z</time>
      </trkpt>
      <trkpt lat="47.037615012377501" lon="11.478503001853824">
        <ele>1167.1800000000001</ele>
        <time>2018-09-17T12:40:44Z</time>
      </trkpt>
      <trkpt lat="47.037524990737438" lon="11.47853996604681">
        <ele>1167.1800000000001</ele>
        <time>2018-09-17T12:40:45Z</time>
      </trkpt>
      <trkpt lat="47.036870028823614" lon="11.47881698794663">
        <ele>1170.0599999999999</ele>
        <time>2018-09-17T12:40:52Z</time>
      </trkpt>
      <trkpt lat="47.036772966384888" lon="11.478832997381687">
        <ele>1170.54</ele>
        <time>2018-09-17T12:40:53Z</time>
      </trkpt>
      <trkpt lat="47.036679005250335" lon="11.478796033188701">
        <ele>1171.02</ele>
        <time>2018-09-17T12:40:54Z</time>
      </trkpt>
      <trkpt lat="47.036579009145498" lon="11.478746999055147">
        <ele>1171.02</ele>
        <time>2018-09-17T12:40:55Z</time>
      </trkpt>
      <trkpt lat="47.036488987505436" lon="11.478647002950311">
        <ele>1171.5</ele>
        <time>2018-09-17T12:40:56Z</time>
      </trkpt>
      <trkpt lat="47.0360660366714" lon="11.478207958862185">
        <ele>1172.95</ele>
        <time>2018-09-17T12:41:00Z</time>
      </trkpt>
      <trkpt lat="47.035221979022026" lon="11.477450989186764">
        <ele>1175.8299999999999</ele>
        <time>2018-09-17T12:41:06Z</time>
      </trkpt>
      <trkpt lat="47.035083007067442" lon="11.477282010018826">
        <ele>1175.8299999999999</ele>
        <time>2018-09-17T12:41:07Z</time>
      </trkpt>
      <trkpt lat="47.034944035112858" lon="11.477112025022507">
        <ele>1176.3099999999999</ele>
        <time>2018-09-17T12:41:08Z</time>
      </trkpt>
      <trkpt lat="47.034815037623048" lon="11.476914966478944">
        <ele>1176.79</ele>
        <time>2018-09-17T12:41:09Z</time>
      </trkpt>
      <trkpt lat="47.034714035689831" lon="11.476693013682961">
        <ele>1177.75</ele>
        <time>2018-09-17T12:41:10Z</time>
      </trkpt>
      <trkpt lat="47.034623008221388" lon="11.476462008431554">
        <ele>1178.23</ele>
        <time>2018-09-17T12:41:11Z</time>
      </trkpt>
      <trkpt lat="47.034524017944932" lon="11.476234020665288">
        <ele>1178.71</ele>
        <time>2018-09-17T12:41:12Z</time>
      </trkpt>
      <trkpt lat="47.034137025475502" lon="11.475240010768175">
        <ele>1182.0799999999999</ele>
        <time>2018-09-17T12:41:17Z</time>
      </trkpt>
      <trkpt lat="47.034101989120245" lon="11.475090980529785">
        <ele>1182.5599999999999</ele>
        <time>2018-09-17T12:41:18Z</time>
      </trkpt>
      <trkpt lat="47.034130990505219" lon="11.474900040775537">
        <ele>1183.04</ele>
        <time>2018-09-17T12:41:19Z</time>
      </trkpt>
      <trkpt lat="47.034158986061811" lon="11.474717985838652">
        <ele>1183.52</ele>
        <time>2018-09-17T12:41:20Z</time>
      </trkpt>
      <trkpt lat="47.034188993275166" lon="11.474526962265372">
        <ele>1184</ele>
        <time>2018-09-17T12:41:21Z</time>
      </trkpt>
      <trkpt lat="47.03421900048852" lon="11.474328981712461">
        <ele>1184.48</ele>
        <time>2018-09-17T12:41:22Z</time>
      </trkpt>
      <trkpt lat="47.034197961911559" lon="11.474123960360885">
        <ele>1185.4400000000001</ele>
        <time>2018-09-17T12:41:23Z</time>
      </trkpt>
      <trkpt lat="47.034149011597037" lon="11.473928997293115">
        <ele>1186.4000000000001</ele>
        <time>2018-09-17T12:41:24Z</time>
      </trkpt>
      <trkpt lat="47.034066030755639" lon="11.473753983154893">
        <ele>1187.3699999999999</ele>
        <time>2018-09-17T12:41:25Z</time>
      </trkpt>
      <trkpt lat="47.033952036872506" lon="11.473610987886786">
        <ele>1188.3299999999999</ele>
        <time>2018-09-17T12:41:26Z</time>
      </trkpt>
      <trkpt lat="47.033821027725935" lon="11.473511997610331">
        <ele>1189.29</ele>
        <time>2018-09-17T12:41:27Z</time>
      </trkpt>
      <trkpt lat="47.033695969730616" lon="11.473418958485126">
        <ele>1190.73</ele>
        <time>2018-09-17T12:41:28Z</time>
      </trkpt>
      <trkpt lat="47.033570995554328" lon="11.473324997350574">
        <ele>1191.6900000000001</ele>
        <time>2018-09-17T12:41:29Z</time>
      </trkpt>
      <trkpt lat="47.033436968922615" lon="11.473223995417356">
        <ele>1192.1700000000001</ele>
        <time>2018-09-17T12:41:30Z</time>
      </trkpt>
      <trkpt lat="47.033347031101584" lon="11.473062979057431">
        <ele>1193.1300000000001</ele>
        <time>2018-09-17T12:41:31Z</time>
      </trkpt>
      <trkpt lat="47.033243011683226" lon="11.472876984626055">
        <ele>1194.5799999999999</ele>
        <time>2018-09-17T12:41:32Z</time>
      </trkpt>
      <trkpt lat="47.033134968951344" lon="11.472683027386665">
        <ele>1195.54</ele>
        <time>2018-09-17T12:41:33Z</time>
      </trkpt>
      <trkpt lat="47.033024998381734" lon="11.472485968843102">
        <ele>1196.98</ele>
        <time>2018-09-17T12:41:34Z</time>
      </trkpt>
      <trkpt lat="47.032917961478233" lon="11.472288994118571">
        <ele>1197.9400000000001</ele>
        <time>2018-09-17T12:41:35Z</time>
      </trkpt>
      <trkpt lat="47.032696008682251" lon="11.47170796059072">
        <ele>1201.79</ele>
        <time>2018-09-17T12:41:38Z</time>
      </trkpt>
      <trkpt lat="47.032611016184092" lon="11.471524983644485">
        <ele>1202.75</ele>
        <time>2018-09-17T12:41:39Z</time>
      </trkpt>
      <trkpt lat="47.032402977347374" lon="11.471185013651848">
        <ele>1205.6300000000001</ele>
        <time>2018-09-17T12:41:41Z</time>
      </trkpt>
      <trkpt lat="47.032281020656228" lon="11.471042018383741">
        <ele>1206.5899999999999</ele>
        <time>2018-09-17T12:41:42Z</time>
      </trkpt>
      <trkpt lat="47.031436963006854" lon="11.470082961022854">
        <ele>1213.8</ele>
        <time>2018-09-17T12:41:49Z</time>
      </trkpt>
      <trkpt lat="47.031339984387159" lon="11.469933008775115">
        <ele>1214.76</ele>
        <time>2018-09-17T12:41:50Z</time>
      </trkpt>
      <trkpt lat="47.031248034909368" lon="11.469791019335389">
        <ele>1215.72</ele>
        <time>2018-09-17T12:41:51Z</time>
      </trkpt>
      <trkpt lat="47.031169999390841" lon="11.469584992155433">
        <ele>1216.21</ele>
        <time>2018-09-17T12:41:52Z</time>
      </trkpt>
      <trkpt lat="47.031093975529075" lon="11.469382988288999">
        <ele>1217.6500000000001</ele>
        <time>2018-09-17T12:41:53Z</time>
      </trkpt>
      <trkpt lat="47.03101702965796" lon="11.469178972765803">
        <ele>1218.6099999999999</ele>
        <time>2018-09-17T12:41:54Z</time>
      </trkpt>
      <trkpt lat="47.030937988311052" lon="11.46897797472775">
        <ele>1219.5699999999999</ele>
        <time>2018-09-17T12:41:55Z</time>
      </trkpt>
      <trkpt lat="47.030848972499371" lon="11.468799021095037">
        <ele>1220.53</ele>
        <time>2018-09-17T12:41:56Z</time>
      </trkpt>
      <trkpt lat="47.030726009979844" lon="11.468668011948466">
        <ele>1221.49</ele>
        <time>2018-09-17T12:41:57Z</time>
      </trkpt>
      <trkpt lat="47.030602963641286" lon="11.468544965609908">
        <ele>1222.45</ele>
        <time>2018-09-17T12:41:58Z</time>
      </trkpt>
      <trkpt lat="47.030477989464998" lon="11.46841999143362">
        <ele>1223.4200000000001</ele>
        <time>2018-09-17T12:41:59Z</time>
      </trkpt>
      <trkpt lat="47.030356032773852" lon="11.46829099394381">
        <ele>1224.3800000000001</ele>
        <time>2018-09-17T12:42:00Z</time>
      </trkpt>
      <trkpt lat="47.030234998092055" lon="11.468145987018943">
        <ele>1225.3399999999999</ele>
        <time>2018-09-17T12:42:01Z</time>
      </trkpt>
      <trkpt lat="47.029724959284067" lon="11.467580962926149">
        <ele>1229.1800000000001</ele>
        <time>2018-09-17T12:42:05Z</time>
      </trkpt>
      <trkpt lat="47.02958095818758" lon="11.46751600317657">
        <ele>1230.6199999999999</ele>
        <time>2018-09-17T12:42:06Z</time>
      </trkpt>
      <trkpt lat="47.02944902703166" lon="11.467462023720145">
        <ele>1231.5899999999999</ele>
        <time>2018-09-17T12:42:07Z</time>
      </trkpt>
      <trkpt lat="47.029207041487098" lon="11.467393040657043">
        <ele>1233.99</ele>
        <time>2018-09-17T12:42:09Z</time>
      </trkpt>
      <trkpt lat="47.029111990705132" lon="11.467311987653375">
        <ele>1234.95</ele>
        <time>2018-09-17T12:42:10Z</time>
      </trkpt>
      <trkpt lat="47.029025992378592" lon="11.467187013477087">
        <ele>1235.4300000000001</ele>
        <time>2018-09-17T12:42:11Z</time>
      </trkpt>
      <trkpt lat="47.028936976566911" lon="11.467033959925175">
        <ele>1236.3900000000001</ele>
        <time>2018-09-17T12:42:12Z</time>
      </trkpt>
      <trkpt lat="47.028835974633694" lon="11.466862969100475">
        <ele>1237.3499999999999</ele>
        <time>2018-09-17T12:42:13Z</time>
      </trkpt>
      <trkpt lat="47.028128961101174" lon="11.46579603664577">
        <ele>1240.72</ele>
        <time>2018-09-17T12:42:19Z</time>
      </trkpt>
      <trkpt lat="47.028008010238409" lon="11.465627979487181">
        <ele>1241.6800000000001</ele>
        <time>2018-09-17T12:42:20Z</time>
      </trkpt>
      <trkpt lat="47.027935003861785" lon="11.465408960357308">
        <ele>1242.1600000000001</ele>
        <time>2018-09-17T12:42:21Z</time>
      </trkpt>
      <trkpt lat="47.027864009141922" lon="11.4651969820261">
        <ele>1242.6400000000001</ele>
        <time>2018-09-17T12:42:22Z</time>
      </trkpt>
      <trkpt lat="47.027803994715214" lon="11.464986009523273">
        <ele>1243.1199999999999</ele>
        <time>2018-09-17T12:42:23Z</time>
      </trkpt>
      <trkpt lat="47.027767030522227" lon="11.464760033413768">
        <ele>1243.5999999999999</ele>
        <time>2018-09-17T12:42:24Z</time>
      </trkpt>
      <trkpt lat="47.027728976681828" lon="11.464533973485231">
        <ele>1244.0799999999999</ele>
        <time>2018-09-17T12:42:25Z</time>
      </trkpt>
      <trkpt lat="47.027707016095519" lon="11.464303974062204">
        <ele>1244.5599999999999</ele>
        <time>2018-09-17T12:42:26Z</time>
      </trkpt>
      <trkpt lat="47.027605008333921" lon="11.463698968291283">
        <ele>1246.01</ele>
        <time>2018-09-17T12:42:29Z</time>
      </trkpt>
      <trkpt lat="47.027551028877497" lon="11.463543986901641">
        <ele>1246.49</ele>
        <time>2018-09-17T12:42:30Z</time>
      </trkpt>
      <trkpt lat="47.02749302610755" lon="11.463401997461915">
        <ele>1246.97</ele>
        <time>2018-09-17T12:42:31Z</time>
      </trkpt>
      <trkpt lat="47.027422031387687" lon="11.463276017457247">
        <ele>1247.45</ele>
        <time>2018-09-17T12:42:32Z</time>
      </trkpt>
      <trkpt lat="47.027350030839443" lon="11.463149031624198">
        <ele>1247.9300000000001</ele>
        <time>2018-09-17T12:42:33Z</time>
      </trkpt>
      <trkpt lat="47.027218015864491" lon="11.46291702054441">
        <ele>1249.3699999999999</ele>
        <time>2018-09-17T12:42:35Z</time>
      </trkpt>
      <trkpt lat="47.027125982567668" lon="11.462723985314369">
        <ele>1250.3299999999999</ele>
        <time>2018-09-17T12:42:37Z</time>
      </trkpt>
      <trkpt lat="47.027101004496217" lon="11.462649973109365">
        <ele>1250.8099999999999</ele>
        <time>2018-09-17T12:42:38Z</time>
      </trkpt>
      <trkpt lat="47.027082983404398" lon="11.462593981996179">
        <ele>1251.29</ele>
        <time>2018-09-17T12:42:39Z</time>
      </trkpt>
      <trkpt lat="47.027072003111243" lon="11.462561963126063">
        <ele>1251.77</ele>
        <time>2018-09-17T12:42:40Z</time>
      </trkpt>
      <trkpt lat="47.02713000588119" lon="11.46253396756947">
        <ele>1252.74</ele>
        <time>2018-09-17T12:42:41Z</time>
      </trkpt>
      <trkpt lat="47.027154983952641" lon="11.462532039731741">
        <ele>1252.74</ele>
        <time>2018-09-17T12:42:42Z</time>
      </trkpt>
      <trkpt lat="47.027202006429434" lon="11.462529022246599">
        <ele>1253.22</ele>
        <time>2018-09-17T12:42:43Z</time>
      </trkpt>
      <trkpt lat="47.027273001149297" lon="11.462524998933077">
        <ele>1253.7</ele>
        <time>2018-09-17T12:42:44Z</time>
      </trkpt>
      <trkpt lat="47.027385989204049" lon="11.462517036125064">
        <ele>1254.1800000000001</ele>
        <time>2018-09-17T12:42:45Z</time>
      </trkpt>
      <trkpt lat="47.027576006948948" lon="11.462569003924727">
        <ele>1255.6199999999999</ele>
        <time>2018-09-17T12:42:47Z</time>
      </trkpt>
      <trkpt lat="47.027818998321891" lon="11.462580990046263">
        <ele>1257.54</ele>
        <time>2018-09-17T12:42:49Z</time>
      </trkpt>
      <trkpt lat="47.027933998033404" lon="11.462580990046263">
        <ele>1258.98</ele>
        <time>2018-09-17T12:42:50Z</time>
      </trkpt>
      <trkpt lat="47.028037011623383" lon="11.462652990594506">
        <ele>1259.9400000000001</ele>
        <time>2018-09-17T12:42:51Z</time>
      </trkpt>
      <trkpt lat="47.028137007728219" lon="11.462752986699343">
        <ele>1261.8699999999999</ele>
        <time>2018-09-17T12:42:52Z</time>
      </trkpt>
      <trkpt lat="47.028208002448082" lon="11.462883995845914">
        <ele>1263.3099999999999</ele>
        <time>2018-09-17T12:42:53Z</time>
      </trkpt>
      <trkpt lat="47.028326019644737" lon="11.463149031624198">
        <ele>1266.1900000000001</ele>
        <time>2018-09-17T12:42:55Z</time>
      </trkpt>
      <trkpt lat="47.028369018808007" lon="11.463265959173441">
        <ele>1267.6400000000001</ele>
        <time>2018-09-17T12:42:56Z</time>
      </trkpt>
      <trkpt lat="47.028409000486135" lon="11.46337098442018">
        <ele>1269.0799999999999</ele>
        <time>2018-09-17T12:42:57Z</time>
      </trkpt>
      <trkpt lat="47.028494998812675" lon="11.463573994114995">
        <ele>1271.48</ele>
        <time>2018-09-17T12:42:59Z</time>
      </trkpt>
      <trkpt lat="47.028997996822" lon="11.464519975706935">
        <ele>1274.8499999999999</ele>
        <time>2018-09-17T12:43:06Z</time>
      </trkpt>
      <trkpt lat="47.029087012633681" lon="11.464626006782055">
        <ele>1275.3299999999999</ele>
        <time>2018-09-17T12:43:07Z</time>
      </trkpt>
      <trkpt lat="47.029183991253376" lon="11.46472298540175">
        <ele>1275.3299999999999</ele>
        <time>2018-09-17T12:43:08Z</time>
      </trkpt>
      <trkpt lat="47.0292760245502" lon="11.464815018698573">
        <ele>1275.3299999999999</ele>
        <time>2018-09-17T12:43:09Z</time>
      </trkpt>
      <trkpt lat="47.029377026483417" lon="11.464889030903578">
        <ele>1275.3299999999999</ele>
        <time>2018-09-17T12:43:10Z</time>
      </trkpt>
      <trkpt lat="47.029489008709788" lon="11.464962959289551">
        <ele>1275.3299999999999</ele>
        <time>2018-09-17T12:43:11Z</time>
      </trkpt>
      <trkpt lat="47.029597973451018" lon="11.465003024786711">
        <ele>1274.8499999999999</ele>
        <time>2018-09-17T12:43:12Z</time>
      </trkpt>
      <trkpt lat="47.029911037534475" lon="11.465117018669844">
        <ele>1274.3599999999999</ele>
        <time>2018-09-17T12:43:15Z</time>
      </trkpt>
      <trkpt lat="47.029989995062351" lon="11.465180972591043">
        <ele>1273.8800000000001</ele>
        <time>2018-09-17T12:43:16Z</time>
      </trkpt>
      <trkpt lat="47.030052021145821" lon="11.465278035029769">
        <ele>1273.8800000000001</ele>
        <time>2018-09-17T12:43:17Z</time>
      </trkpt>
      <trkpt lat="47.030114969238639" lon="11.465379036962986">
        <ele>1272.9200000000001</ele>
        <time>2018-09-17T12:43:18Z</time>
      </trkpt>
      <trkpt lat="47.030172972008586" lon="11.465494958683848">
        <ele>1272.4400000000001</ele>
        <time>2018-09-17T12:43:19Z</time>
      </trkpt>
      <trkpt lat="47.030229968950152" lon="11.465608030557632">
        <ele>1271.48</ele>
        <time>2018-09-17T12:43:20Z</time>
      </trkpt>
      <trkpt lat="47.030289983376861" lon="11.465687993913889">
        <ele>1271</ele>
        <time>2018-09-17T12:43:21Z</time>
      </trkpt>
      <trkpt lat="47.030365001410246" lon="11.465734010562301">
        <ele>1270.52</ele>
        <time>2018-09-17T12:43:22Z</time>
      </trkpt>
      <trkpt lat="47.030454017221928" lon="11.465786984190345">
        <ele>1270.52</ele>
        <time>2018-09-17T12:43:23Z</time>
      </trkpt>
      <trkpt lat="47.030553007498384" lon="11.465846998617053">
        <ele>1270.04</ele>
        <time>2018-09-17T12:43:24Z</time>
      </trkpt>
      <trkpt lat="47.030650991946459" lon="11.465931991115212">
        <ele>1270.04</ele>
        <time>2018-09-17T12:43:25Z</time>
      </trkpt>
      <trkpt lat="47.030755011364818" lon="11.466036010533571">
        <ele>1269.5599999999999</ele>
        <time>2018-09-17T12:43:26Z</time>
      </trkpt>
      <trkpt lat="47.030883003026247" lon="11.466165008023381">
        <ele>1269.0799999999999</ele>
        <time>2018-09-17T12:43:27Z</time>
      </trkpt>
      <trkpt lat="47.030955003574491" lon="11.466300962492824">
        <ele>1269.0799999999999</ele>
        <time>2018-09-17T12:43:28Z</time>
      </trkpt>
      <trkpt lat="47.031043013557792" lon="11.466466002166271">
        <ele>1268.5999999999999</ele>
        <time>2018-09-17T12:43:29Z</time>
      </trkpt>
      <trkpt lat="47.031130017712712" lon="11.466631041839719">
        <ele>1268.5999999999999</ele>
        <time>2018-09-17T12:43:30Z</time>
      </trkpt>
      <trkpt lat="47.031430006027222" lon="11.467196987941861">
        <ele>1267.6400000000001</ele>
        <time>2018-09-17T12:43:34Z</time>
      </trkpt>
      <trkpt lat="47.031508041545749" lon="11.467284997925162">
        <ele>1267.6400000000001</ele>
        <time>2018-09-17T12:43:35Z</time>
      </trkpt>
      <trkpt lat="47.031600996851921" lon="11.467337971553206">
        <ele>1267.1600000000001</ele>
        <time>2018-09-17T12:43:36Z</time>
      </trkpt>
      <trkpt lat="47.031763019040227" lon="11.467431010678411">
        <ele>1266.6700000000001</ele>
        <time>2018-09-17T12:43:38Z</time>
      </trkpt>
      <trkpt lat="47.031859997659922" lon="11.467565959319472">
        <ele>1266.6700000000001</ele>
        <time>2018-09-17T12:43:39Z</time>
      </trkpt>
      <trkpt lat="47.03194297850132" lon="11.467681964859366">
        <ele>1266.6700000000001</ele>
        <time>2018-09-17T12:43:40Z</time>
      </trkpt>
      <trkpt lat="47.032011961564422" lon="11.467826971784234">
        <ele>1266.6700000000001</ele>
        <time>2018-09-17T12:43:41Z</time>
      </trkpt>
      <trkpt lat="47.03207197599113" lon="11.467991005629301">
        <ele>1266.6700000000001</ele>
        <time>2018-09-17T12:43:42Z</time>
      </trkpt>
      <trkpt lat="47.032281020656228" lon="11.468539014458656">
        <ele>1269.5599999999999</ele>
        <time>2018-09-17T12:43:46Z</time>
      </trkpt>
      <trkpt lat="47.032347992062569" lon="11.468636998906732">
        <ele>1270.52</ele>
        <time>2018-09-17T12:43:47Z</time>
      </trkpt>
      <trkpt lat="47.032562987878919" lon="11.468930030241609">
        <ele>1275.3299999999999</ele>
        <time>2018-09-17T12:43:53Z</time>
      </trkpt>
      <trkpt lat="47.032562987878919" lon="11.468930030241609">
        <ele>1276.29</ele>
        <time>2018-09-17T12:44:06Z</time>
      </trkpt>
      <trkpt lat="47.032606992870569" lon="11.468960037454963">
        <ele>1276.77</ele>
        <time>2018-09-17T12:44:33Z</time>
      </trkpt>
      <trkpt lat="47.032623002305627" lon="11.468971017748117">
        <ele>1277.25</ele>
        <time>2018-09-17T12:44:34Z</time>
      </trkpt>
      <trkpt lat="47.032641023397446" lon="11.468983003869653">
        <ele>1277.25</ele>
        <time>2018-09-17T12:44:35Z</time>
      </trkpt>
      <trkpt lat="47.032950986176729" lon="11.46919397637248">
        <ele>1277.25</ele>
        <time>2018-09-17T12:44:40Z</time>
      </trkpt>
      <trkpt lat="47.033045031130314" lon="11.46925700828433">
        <ele>1277.25</ele>
        <time>2018-09-17T12:44:41Z</time>
      </trkpt>
      <trkpt lat="47.033130023628473" lon="11.469375025480986">
        <ele>1277.25</ele>
        <time>2018-09-17T12:44:42Z</time>
      </trkpt>
      <trkpt lat="47.033361028879881" lon="11.46977299824357">
        <ele>1278.21</ele>
        <time>2018-09-17T12:44:45Z</time>
      </trkpt>
      <trkpt lat="47.033437974750996" lon="11.469907024875283">
        <ele>1279.1700000000001</ele>
        <time>2018-09-17T12:44:46Z</time>
      </trkpt>
      <trkpt lat="47.033535959199071" lon="11.470006015151739">
        <ele>1279.1700000000001</ele>
        <time>2018-09-17T12:44:47Z</time>
      </trkpt>
      <trkpt lat="47.033636961132288" lon="11.470090001821518">
        <ele>1280.1300000000001</ele>
        <time>2018-09-17T12:44:48Z</time>
      </trkpt>
      <trkpt lat="47.033732011914253" lon="11.470168959349394">
        <ele>1280.6099999999999</ele>
        <time>2018-09-17T12:44:49Z</time>
      </trkpt>
      <trkpt lat="47.033815998584032" lon="11.470239032059908">
        <ele>1281.5699999999999</ele>
        <time>2018-09-17T12:44:50Z</time>
      </trkpt>
      <trkpt lat="47.033891016617417" lon="11.470301980152726">
        <ele>1282.0599999999999</ele>
        <time>2018-09-17T12:44:51Z</time>
      </trkpt>
      <trkpt lat="47.033959999680519" lon="11.470358977094293">
        <ele>1283.02</ele>
        <time>2018-09-17T12:44:52Z</time>
      </trkpt>
      <trkpt lat="47.03400501050055" lon="11.47046098485589">
        <ele>1283.5</ele>
        <time>2018-09-17T12:44:53Z</time>
      </trkpt>
      <trkpt lat="47.034041974693537" lon="11.470569027587771">
        <ele>1283.98</ele>
        <time>2018-09-17T12:44:54Z</time>
      </trkpt>
      <trkpt lat="47.034078016877174" lon="11.47067204117775">
        <ele>1284.9400000000001</ele>
        <time>2018-09-17T12:44:55Z</time>
      </trkpt>
      <trkpt lat="47.034146999940276" lon="11.470871027559042">
        <ele>1285.9000000000001</ele>
        <time>2018-09-17T12:44:57Z</time>
      </trkpt>
      <trkpt lat="47.034188993275166" lon="11.470959037542343">
        <ele>1286.3800000000001</ele>
        <time>2018-09-17T12:44:58Z</time>
      </trkpt>
      <trkpt lat="47.034249007701874" lon="11.471037995070219">
        <ele>1286.3800000000001</ele>
        <time>2018-09-17T12:44:59Z</time>
      </trkpt>
      <trkpt lat="47.034313967451453" lon="11.47112499922514">
        <ele>1286.8599999999999</ele>
        <time>2018-09-17T12:45:00Z</time>
      </trkpt>
      <trkpt lat="47.034381022676826" lon="11.471214015036821">
        <ele>1287.3399999999999</ele>
        <time>2018-09-17T12:45:01Z</time>
      </trkpt>
      <trkpt lat="47.034450005739927" lon="11.471306970342994">
        <ele>1287.8199999999999</ele>
        <time>2018-09-17T12:45:02Z</time>
      </trkpt>
      <trkpt lat="47.034511025995016" lon="11.471419036388397">
        <ele>1287.8199999999999</ele>
        <time>2018-09-17T12:45:03Z</time>
      </trkpt>
      <trkpt lat="47.034556036815047" lon="11.471544010564685">
        <ele>1287.8199999999999</ele>
        <time>2018-09-17T12:45:04Z</time>
      </trkpt>
      <trkpt lat="47.034600963816047" lon="11.471667978912592">
        <ele>1288.3</ele>
        <time>2018-09-17T12:45:05Z</time>
      </trkpt>
      <trkpt lat="47.034645974636078" lon="11.471793036907911">
        <ele>1288.3</ele>
        <time>2018-09-17T12:45:06Z</time>
      </trkpt>
      <trkpt lat="47.034690985456109" lon="11.471913987770677">
        <ele>1287.8199999999999</ele>
        <time>2018-09-17T12:45:07Z</time>
      </trkpt>
      <trkpt lat="47.034732978790998" lon="11.472030999138951">
        <ele>1287.3399999999999</ele>
        <time>2018-09-17T12:45:08Z</time>
      </trkpt>
      <trkpt lat="47.034789975732565" lon="11.472136024385691">
        <ele>1287.3399999999999</ele>
        <time>2018-09-17T12:45:09Z</time>
      </trkpt>
      <trkpt lat="47.034852001816034" lon="11.472235014662147">
        <ele>1286.8599999999999</ele>
        <time>2018-09-17T12:45:10Z</time>
      </trkpt>
      <trkpt lat="47.034942023456097" lon="11.472294023260474">
        <ele>1286.3800000000001</ele>
        <time>2018-09-17T12:45:11Z</time>
      </trkpt>
      <trkpt lat="47.03503598459065" lon="11.472354037687182">
        <ele>1285.9000000000001</ele>
        <time>2018-09-17T12:45:12Z</time>
      </trkpt>
      <trkpt lat="47.035134974867105" lon="11.472416985780001">
        <ele>1285.9000000000001</ele>
        <time>2018-09-17T12:45:13Z</time>
      </trkpt>
      <trkpt lat="47.035346031188965" lon="11.472552018240094">
        <ele>1284.46</ele>
        <time>2018-09-17T12:45:15Z</time>
      </trkpt>
      <trkpt lat="47.035717014223337" lon="11.472771037369967">
        <ele>1283.02</ele>
        <time>2018-09-17T12:45:18Z</time>
      </trkpt>
      <trkpt lat="47.035849029198289" lon="11.472829040139914">
        <ele>1282.54</ele>
        <time>2018-09-17T12:45:19Z</time>
      </trkpt>
      <trkpt lat="47.036241972818971" lon="11.472899029031396">
        <ele>1281.0899999999999</ele>
        <time>2018-09-17T12:45:22Z</time>
      </trkpt>
      <trkpt lat="47.03636895865202" lon="11.472861981019378">
        <ele>1281.0899999999999</ele>
        <time>2018-09-17T12:45:23Z</time>
      </trkpt>
      <trkpt lat="47.036492004990578" lon="11.472797021269798">
        <ele>1281.0899999999999</ele>
        <time>2018-09-17T12:45:24Z</time>
      </trkpt>
      <trkpt lat="47.036730973049998" lon="11.472672969102859">
        <ele>1282.54</ele>
        <time>2018-09-17T12:45:26Z</time>
      </trkpt>
      <trkpt lat="47.036844966933131" lon="11.472647991031408">
        <ele>1283.5</ele>
        <time>2018-09-17T12:45:27Z</time>
      </trkpt>
      <trkpt lat="47.036976981908083" lon="11.472654026001692">
        <ele>1283.98</ele>
        <time>2018-09-17T12:45:28Z</time>
      </trkpt>
      <trkpt lat="47.038109041750431" lon="11.472749998793006">
        <ele>1290.71</ele>
        <time>2018-09-17T12:45:35Z</time>
      </trkpt>
      <trkpt lat="47.038266034796834" lon="11.472814958542585">
        <ele>1292.1500000000001</ele>
        <time>2018-09-17T12:45:36Z</time>
      </trkpt>
      <trkpt lat="47.038419004529715" lon="11.47288897074759">
        <ele>1293.5899999999999</ele>
        <time>2018-09-17T12:45:37Z</time>
      </trkpt>
      <trkpt lat="47.038711030036211" lon="11.473030038177967">
        <ele>1295.99</ele>
        <time>2018-09-17T12:45:39Z</time>
      </trkpt>
      <trkpt lat="47.038854025304317" lon="11.473085023462772">
        <ele>1296.96</ele>
        <time>2018-09-17T12:45:40Z</time>
      </trkpt>
      <trkpt lat="47.03931100666523" lon="11.473211003467441">
        <ele>1301.28</ele>
        <time>2018-09-17T12:45:43Z</time>
      </trkpt>
      <trkpt lat="47.039459031075239" lon="11.473262971267104">
        <ele>1302.24</ele>
        <time>2018-09-17T12:45:44Z</time>
      </trkpt>
      <trkpt lat="47.039614012464881" lon="11.473331032320857">
        <ele>1303.2</ele>
        <time>2018-09-17T12:45:45Z</time>
      </trkpt>
      <trkpt lat="47.03974099829793" lon="11.473471010103822">
        <ele>1304.1700000000001</ele>
        <time>2018-09-17T12:45:46Z</time>
      </trkpt>
      <trkpt lat="47.039872007444501" lon="11.473616017028689">
        <ele>1305.1300000000001</ele>
        <time>2018-09-17T12:45:47Z</time>
      </trkpt>
      <trkpt lat="47.040001004934311" lon="11.473758006468415">
        <ele>1306.0899999999999</ele>
        <time>2018-09-17T12:45:48Z</time>
      </trkpt>
      <trkpt lat="47.040121033787727" lon="11.473891027271748">
        <ele>1307.05</ele>
        <time>2018-09-17T12:45:49Z</time>
      </trkpt>
      <trkpt lat="47.040245002135634" lon="11.474011978134513">
        <ele>1308.01</ele>
        <time>2018-09-17T12:45:50Z</time>
      </trkpt>
      <trkpt lat="47.040390009060502" lon="11.47409001365304">
        <ele>1308.97</ele>
        <time>2018-09-17T12:45:51Z</time>
      </trkpt>
      <trkpt lat="47.041920963674784" lon="11.474556969478726">
        <ele>1321.95</ele>
        <time>2018-09-17T12:46:01Z</time>
      </trkpt>
      <trkpt lat="47.042842973023653" lon="11.474525034427643">
        <ele>1330.1199999999999</ele>
        <time>2018-09-17T12:46:08Z</time>
      </trkpt>
      <trkpt lat="47.042918996885419" lon="11.474470971152186">
        <ele>1331.5599999999999</ele>
        <time>2018-09-17T12:46:09Z</time>
      </trkpt>
      <trkpt lat="47.042994014918804" lon="11.474386984482408">
        <ele>1332.04</ele>
        <time>2018-09-17T12:46:10Z</time>
      </trkpt>
      <trkpt lat="47.043057968840003" lon="11.474253041669726">
        <ele>1333.01</ele>
        <time>2018-09-17T12:46:11Z</time>
      </trkpt>
      <trkpt lat="47.043128041550517" lon="11.474106023088098">
        <ele>1333.49</ele>
        <time>2018-09-17T12:46:12Z</time>
      </trkpt>
      <trkpt lat="47.043202975764871" lon="11.473950035870075">
        <ele>1334.45</ele>
        <time>2018-09-17T12:46:13Z</time>
      </trkpt>
      <trkpt lat="47.043310012668371" lon="11.473835036158562">
        <ele>1334.9300000000001</ele>
        <time>2018-09-17T12:46:14Z</time>
      </trkpt>
      <trkpt lat="47.043426018208265" lon="11.473734034225345">
        <ele>1335.8900000000001</ele>
        <time>2018-09-17T12:46:15Z</time>
      </trkpt>
      <trkpt lat="47.043550992384553" lon="11.473632026463747">
        <ele>1336.8499999999999</ele>
        <time>2018-09-17T12:46:16Z</time>
      </trkpt>
      <trkpt lat="47.043691975995898" lon="11.473620962351561">
        <ele>1337.3299999999999</ele>
        <time>2018-09-17T12:46:17Z</time>
      </trkpt>
      <trkpt lat="47.04384402371943" lon="11.473610987886786">
        <ele>1338.29</ele>
        <time>2018-09-17T12:46:18Z</time>
      </trkpt>
      <trkpt lat="47.043988024815917" lon="11.473646024242043">
        <ele>1338.77</ele>
        <time>2018-09-17T12:46:19Z</time>
      </trkpt>
      <trkpt lat="47.044144012033939" lon="11.473685000091791">
        <ele>1339.73</ele>
        <time>2018-09-17T12:46:20Z</time>
      </trkpt>
      <trkpt lat="47.04429698176682" lon="11.473723975941539">
        <ele>1340.22</ele>
        <time>2018-09-17T12:46:21Z</time>
      </trkpt>
      <trkpt lat="47.044439977034926" lon="11.473781978711486">
        <ele>1340.7</ele>
        <time>2018-09-17T12:46:22Z</time>
      </trkpt>
      <trkpt lat="47.044566962867975" lon="11.473849033936858">
        <ele>1341.1800000000001</ele>
        <time>2018-09-17T12:46:23Z</time>
      </trkpt>
      <trkpt lat="47.044784976169467" lon="11.473959004506469">
        <ele>1341.6600000000001</ele>
        <time>2018-09-17T12:46:25Z</time>
      </trkpt>
      <trkpt lat="47.044972982257605" lon="11.474016001448035">
        <ele>1342.1400000000001</ele>
        <time>2018-09-17T12:46:27Z</time>
      </trkpt>
      <trkpt lat="47.045054035261273" lon="11.474039973691106">
        <ele>1342.1400000000001</ele>
        <time>2018-09-17T12:46:28Z</time>
      </trkpt>
      <trkpt lat="47.045196024700999" lon="11.474082972854376">
        <ele>1342.1400000000001</ele>
        <time>2018-09-17T12:46:30Z</time>
      </trkpt>
      <trkpt lat="47.045248998329043" lon="11.474118009209633">
        <ele>1341.6600000000001</ele>
        <time>2018-09-17T12:46:31Z</time>
      </trkpt>
      <trkpt lat="47.045269031077623" lon="11.474195960909128">
        <ele>1341.6600000000001</ele>
        <time>2018-09-17T12:46:32Z</time>
      </trkpt>
      <trkpt lat="47.045281017199159" lon="11.474297968670726">
        <ele>1341.1800000000001</ele>
        <time>2018-09-17T12:46:33Z</time>
      </trkpt>
      <trkpt lat="47.045242041349411" lon="11.474401988089085">
        <ele>1340.7</ele>
        <time>2018-09-17T12:46:34Z</time>
      </trkpt>
      <trkpt lat="47.045172974467278" lon="11.474508019164205">
        <ele>1340.7</ele>
        <time>2018-09-17T12:46:35Z</time>
      </trkpt>
      <trkpt lat="47.045073984190822" lon="11.474596029147506">
        <ele>1340.22</ele>
        <time>2018-09-17T12:46:36Z</time>
      </trkpt>
      <trkpt lat="47.044967031106353" lon="11.47469200193882">
        <ele>1340.22</ele>
        <time>2018-09-17T12:46:37Z</time>
      </trkpt>
      <trkpt lat="47.044649021700025" lon="11.474975980818272">
        <ele>1340.7</ele>
        <time>2018-09-17T12:46:40Z</time>
      </trkpt>
      <trkpt lat="47.044592024758458" lon="11.475082011893392">
        <ele>1340.7</ele>
        <time>2018-09-17T12:46:41Z</time>
      </trkpt>
      <trkpt lat="47.044557994231582" lon="11.475190976634622">
        <ele>1340.7</ele>
        <time>2018-09-17T12:46:42Z</time>
      </trkpt>
      <trkpt lat="47.044527987018228" lon="11.475288039073348">
        <ele>1340.7</ele>
        <time>2018-09-17T12:46:43Z</time>
      </trkpt>
      <trkpt lat="47.044512983411551" lon="11.475360039621592">
        <ele>1340.7</ele>
        <time>2018-09-17T12:46:44Z</time>
      </trkpt>
      <trkpt lat="47.044549025595188" lon="11.475448971614242">
        <ele>1340.7</ele>
        <time>2018-09-17T12:46:45Z</time>
      </trkpt>
      <trkpt lat="47.044593030586839" lon="11.475558020174503">
        <ele>1340.7</ele>
        <time>2018-09-17T12:46:46Z</time>
      </trkpt>
      <trkpt lat="47.044651033356786" lon="11.475685006007552">
        <ele>1341.1800000000001</ele>
        <time>2018-09-17T12:46:47Z</time>
      </trkpt>
      <trkpt lat="47.04474801197648" lon="11.475792964920402">
        <ele>1342.1400000000001</ele>
        <time>2018-09-17T12:46:48Z</time>
      </trkpt>
      <trkpt lat="47.045688964426517" lon="11.476832991465926">
        <ele>1350.79</ele>
        <time>2018-09-17T12:46:55Z</time>
      </trkpt>
      <trkpt lat="47.046117028221488" lon="11.477285027503967">
        <ele>1357.52</ele>
        <time>2018-09-17T12:46:58Z</time>
      </trkpt>
      <trkpt lat="47.046568980440497" lon="11.477632960304618">
        <ele>1364.73</ele>
        <time>2018-09-17T12:47:02Z</time>
      </trkpt>
      <trkpt lat="47.046643998473883" lon="11.477772016078234">
        <ele>1366.1700000000001</ele>
        <time>2018-09-17T12:47:03Z</time>
      </trkpt>
      <trkpt lat="47.046720022335649" lon="11.477916017174721">
        <ele>1367.1300000000001</ele>
        <time>2018-09-17T12:47:04Z</time>
      </trkpt>
      <trkpt lat="47.046887995675206" lon="11.478236960247159">
        <ele>1369.54</ele>
        <time>2018-09-17T12:47:06Z</time>
      </trkpt>
      <trkpt lat="47.046977011486888" lon="11.47840702906251">
        <ele>1370.98</ele>
        <time>2018-09-17T12:47:07Z</time>
      </trkpt>
      <trkpt lat="47.047170968726277" lon="11.478725960478187">
        <ele>1373.3800000000001</ele>
        <time>2018-09-17T12:47:09Z</time>
      </trkpt>
      <trkpt lat="47.047267025336623" lon="11.478855041787028">
        <ele>1374.3399999999999</ele>
        <time>2018-09-17T12:47:10Z</time>
      </trkpt>
      <trkpt lat="47.047369033098221" lon="11.478963000699878">
        <ele>1374.8199999999999</ele>
        <time>2018-09-17T12:47:11Z</time>
      </trkpt>
      <trkpt lat="47.047485960647464" lon="11.479004994034767">
        <ele>1375.78</ele>
        <time>2018-09-17T12:47:12Z</time>
      </trkpt>
      <trkpt lat="47.047602972015738" lon="11.479046987369657">
        <ele>1376.26</ele>
        <time>2018-09-17T12:47:13Z</time>
      </trkpt>
      <trkpt lat="47.047723000869155" lon="11.479058973491192">
        <ele>1376.26</ele>
        <time>2018-09-17T12:47:14Z</time>
      </trkpt>
      <trkpt lat="47.047851998358965" lon="11.479056961834431">
        <ele>1376.75</ele>
        <time>2018-09-17T12:47:15Z</time>
      </trkpt>
      <trkpt lat="47.04799298197031" lon="11.479054028168321">
        <ele>1376.75</ele>
        <time>2018-09-17T12:47:16Z</time>
      </trkpt>
      <trkpt lat="47.048811977729201" lon="11.479042964056134">
        <ele>1375.78</ele>
        <time>2018-09-17T12:47:21Z</time>
      </trkpt>
      <trkpt lat="47.048977017402649" lon="11.479056039825082">
        <ele>1375.3</ele>
        <time>2018-09-17T12:47:22Z</time>
      </trkpt>
      <trkpt lat="47.049144990742207" lon="11.479068025946617">
        <ele>1374.8199999999999</ele>
        <time>2018-09-17T12:47:23Z</time>
      </trkpt>
      <trkpt lat="47.049313969910145" lon="11.479081017896533">
        <ele>1373.8599999999999</ele>
        <time>2018-09-17T12:47:24Z</time>
      </trkpt>
      <trkpt lat="47.049484038725495" lon="11.479094009846449">
        <ele>1373.3800000000001</ele>
        <time>2018-09-17T12:47:25Z</time>
      </trkpt>
      <trkpt lat="47.049656035378575" lon="11.479111025109887">
        <ele>1372.4200000000001</ele>
        <time>2018-09-17T12:47:26Z</time>
      </trkpt>
      <trkpt lat="47.050785999745131" lon="11.479329038411379">
        <ele>1368.5699999999999</ele>
        <time>2018-09-17T12:47:34Z</time>
      </trkpt>
      <trkpt lat="47.052363976836205" lon="11.479503968730569">
        <ele>1368.0899999999999</ele>
        <time>2018-09-17T12:47:45Z</time>
      </trkpt>
      <trkpt lat="47.053582035005093" lon="11.479302970692515">
        <ele>1361.3599999999999</ele>
        <time>2018-09-17T12:47:52Z</time>
      </trkpt>
      <trkpt lat="47.053746990859509" lon="11.479202974587679">
        <ele>1360.4000000000001</ele>
        <time>2018-09-17T12:47:53Z</time>
      </trkpt>
      <trkpt lat="47.053913036361337" lon="11.479101972654462">
        <ele>1358.96</ele>
        <time>2018-09-17T12:47:54Z</time>
      </trkpt>
      <trkpt lat="47.05497401766479" lon="11.478380039334297">
        <ele>1350.3099999999999</ele>
        <time>2018-09-17T12:48:01Z</time>
      </trkpt>
      <trkpt lat="47.055131010711193" lon="11.478333016857505">
        <ele>1348.3900000000001</ele>
        <time>2018-09-17T12:48:02Z</time>
      </trkpt>
      <trkpt lat="47.056239014491439" lon="11.47791400551796">
        <ele>1339.25</ele>
        <time>2018-09-17T12:48:09Z</time>
      </trkpt>
      <trkpt lat="47.056354014202952" lon="11.477859020233154">
        <ele>1338.29</ele>
        <time>2018-09-17T12:48:10Z</time>
      </trkpt>
      <trkpt lat="47.056433977559209" lon="11.477738991379738">
        <ele>1337.8099999999999</ele>
        <time>2018-09-17T12:48:11Z</time>
      </trkpt>
      <trkpt lat="47.056514024734497" lon="11.477618962526321">
        <ele>1336.8499999999999</ele>
        <time>2018-09-17T12:48:12Z</time>
      </trkpt>
      <trkpt lat="47.056593988090754" lon="11.477499017491937">
        <ele>1336.3699999999999</ele>
        <time>2018-09-17T12:48:13Z</time>
      </trkpt>
      <trkpt lat="47.056672023609281" lon="11.477381000295281">
        <ele>1335.4100000000001</ele>
        <time>2018-09-17T12:48:14Z</time>
      </trkpt>
      <trkpt lat="47.056848965585232" lon="11.477173967286944">
        <ele>1334.9300000000001</ele>
        <time>2018-09-17T12:48:16Z</time>
      </trkpt>
      <trkpt lat="47.056947033852339" lon="11.477113030850887">
        <ele>1334.9300000000001</ele>
        <time>2018-09-17T12:48:17Z</time>
      </trkpt>
      <trkpt lat="47.057049041613936" lon="11.477086963132024">
        <ele>1334.9300000000001</ele>
        <time>2018-09-17T12:48:18Z</time>
      </trkpt>
      <trkpt lat="47.057151971384883" lon="11.477068020030856">
        <ele>1335.4100000000001</ele>
        <time>2018-09-17T12:48:19Z</time>
      </trkpt>
      <trkpt lat="47.0572529733181" lon="11.477123005315661">
        <ele>1335.8900000000001</ele>
        <time>2018-09-17T12:48:20Z</time>
      </trkpt>
      <trkpt lat="47.057347018271685" lon="11.477174973115325">
        <ele>1336.8499999999999</ele>
        <time>2018-09-17T12:48:21Z</time>
      </trkpt>
      <trkpt lat="47.057438967749476" lon="11.477225013077259">
        <ele>1337.8099999999999</ele>
        <time>2018-09-17T12:48:22Z</time>
      </trkpt>
      <trkpt lat="47.057535024359822" lon="11.477277986705303">
        <ele>1339.25</ele>
        <time>2018-09-17T12:48:23Z</time>
      </trkpt>
      <trkpt lat="47.057661004364491" lon="11.47729299031198">
        <ele>1340.22</ele>
        <time>2018-09-17T12:48:24Z</time>
      </trkpt>
      <trkpt lat="47.057792013511062" lon="11.477278992533684">
        <ele>1341.6600000000001</ele>
        <time>2018-09-17T12:48:25Z</time>
      </trkpt>
      <trkpt lat="47.058933963999152" lon="11.477328026667237">
        <ele>1345.02</ele>
        <time>2018-09-17T12:48:32Z</time>
      </trkpt>
      <trkpt lat="47.059117024764419" lon="11.477327020838857">
        <ele>1345.02</ele>
        <time>2018-09-17T12:48:33Z</time>
      </trkpt>
      <trkpt lat="47.059295978397131" lon="11.477274969220161">
        <ele>1344.54</ele>
        <time>2018-09-17T12:48:34Z</time>
      </trkpt>
      <trkpt lat="47.059942977502942" lon="11.477041030302644">
        <ele>1343.5799999999999</ele>
        <time>2018-09-17T12:48:38Z</time>
      </trkpt>
      <trkpt lat="47.060063006356359" lon="11.476951008662581">
        <ele>1342.6199999999999</ele>
        <time>2018-09-17T12:48:39Z</time>
      </trkpt>
      <trkpt lat="47.06017398275435" lon="11.476813964545727">
        <ele>1342.6199999999999</ele>
        <time>2018-09-17T12:48:40Z</time>
      </trkpt>
      <trkpt lat="47.060293005779386" lon="11.47666803561151">
        <ele>1342.6199999999999</ele>
        <time>2018-09-17T12:48:41Z</time>
      </trkpt>
      <trkpt lat="47.060413034632802" lon="11.476521017029881">
        <ele>1343.0999999999999</ele>
        <time>2018-09-17T12:48:42Z</time>
      </trkpt>
      <trkpt lat="47.060701958835125" lon="11.476150033995509">
        <ele>1345.02</ele>
        <time>2018-09-17T12:48:45Z</time>
      </trkpt>
      <trkpt lat="47.060739006847143" lon="11.475993962958455">
        <ele>1345.5</ele>
        <time>2018-09-17T12:48:46Z</time>
      </trkpt>
      <trkpt lat="47.06077697686851" lon="11.475834036245942">
        <ele>1345.98</ele>
        <time>2018-09-17T12:48:47Z</time>
      </trkpt>
      <trkpt lat="47.060831040143967" lon="11.475685006007552">
        <ele>1346.9400000000001</ele>
        <time>2018-09-17T12:48:48Z</time>
      </trkpt>
      <trkpt lat="47.060907986015081" lon="11.475537987425923">
        <ele>1348.3900000000001</ele>
        <time>2018-09-17T12:48:49Z</time>
      </trkpt>
      <trkpt lat="47.061030026525259" lon="11.475459029898047">
        <ele>1349.3499999999999</ele>
        <time>2018-09-17T12:48:50Z</time>
      </trkpt>
      <trkpt lat="47.06116396933794" lon="11.475372025743127">
        <ele>1350.79</ele>
        <time>2018-09-17T12:48:51Z</time>
      </trkpt>
      <trkpt lat="47.062508007511497" lon="11.47454297170043">
        <ele>1362.3299999999999</ele>
        <time>2018-09-17T12:48:59Z</time>
      </trkpt>
      <trkpt lat="47.063362961634994" lon="11.474142987281084">
        <ele>1368.5699999999999</ele>
        <time>2018-09-17T12:49:04Z</time>
      </trkpt>
      <trkpt lat="47.064397959038615" lon="11.473616017028689">
        <ele>1375.78</ele>
        <time>2018-09-17T12:49:10Z</time>
      </trkpt>
      <trkpt lat="47.064566016197205" lon="11.473481990396976">
        <ele>1376.26</ele>
        <time>2018-09-17T12:49:11Z</time>
      </trkpt>
      <trkpt lat="47.064898023381829" lon="11.473214020952582">
        <ele>1377.23</ele>
        <time>2018-09-17T12:49:13Z</time>
      </trkpt>
      <trkpt lat="47.065193988382816" lon="11.472976980730891">
        <ele>1378.1900000000001</ele>
        <time>2018-09-17T12:49:15Z</time>
      </trkpt>
      <trkpt lat="47.065442008897662" lon="11.472776988521218">
        <ele>1378.6700000000001</ele>
        <time>2018-09-17T12:49:17Z</time>
      </trkpt>
      <trkpt lat="47.065579975023866" lon="11.472666012123227">
        <ele>1378.6700000000001</ele>
        <time>2018-09-17T12:49:18Z</time>
      </trkpt>
      <trkpt lat="47.06569698639214" lon="11.472639022395015">
        <ele>1378.6700000000001</ele>
        <time>2018-09-17T12:49:19Z</time>
      </trkpt>
      <trkpt lat="47.065949030220509" lon="11.472579007968307">
        <ele>1380.5899999999999</ele>
        <time>2018-09-17T12:49:21Z</time>
      </trkpt>
      <trkpt lat="47.066069981083274" lon="11.472517987713218">
        <ele>1381.55</ele>
        <time>2018-09-17T12:49:22Z</time>
      </trkpt>
      <trkpt lat="47.06651296466589" lon="11.472058994695544">
        <ele>1383.96</ele>
        <time>2018-09-17T12:49:26Z</time>
      </trkpt>
      <trkpt lat="47.066612038761377" lon="11.47192002274096">
        <ele>1384.4400000000001</ele>
        <time>2018-09-17T12:49:27Z</time>
      </trkpt>
      <trkpt lat="47.066810019314289" lon="11.471610981971025">
        <ele>1384.9200000000001</ele>
        <time>2018-09-17T12:49:29Z</time>
      </trkpt>
      <trkpt lat="47.066905992105603" lon="11.471463041380048">
        <ele>1384.9200000000001</ele>
        <time>2018-09-17T12:49:30Z</time>
      </trkpt>
      <trkpt lat="47.067023003473878" lon="11.471346030011773">
        <ele>1384.9200000000001</ele>
        <time>2018-09-17T12:49:31Z</time>
      </trkpt>
      <trkpt lat="47.067164992913604" lon="11.471228012815118">
        <ele>1384.4400000000001</ele>
        <time>2018-09-17T12:49:32Z</time>
      </trkpt>
      <trkpt lat="47.067339001223445" lon="11.471160035580397">
        <ele>1384.4400000000001</ele>
        <time>2018-09-17T12:49:33Z</time>
      </trkpt>
      <trkpt lat="47.067531030625105" lon="11.471100021153688">
        <ele>1383.47</ele>
        <time>2018-09-17T12:49:34Z</time>
      </trkpt>
      <trkpt lat="47.067738985642791" lon="11.471034977585077">
        <ele>1382.51</ele>
        <time>2018-09-17T12:49:35Z</time>
      </trkpt>
      <trkpt lat="47.069631032645702" lon="11.470439024269581">
        <ele>1370.5</ele>
        <time>2018-09-17T12:49:43Z</time>
      </trkpt>
      <trkpt lat="47.070580031722784" lon="11.469963015988469">
        <ele>1364.73</ele>
        <time>2018-09-17T12:49:48Z</time>
      </trkpt>
      <trkpt lat="47.070716992020607" lon="11.469801999628544">
        <ele>1363.29</ele>
        <time>2018-09-17T12:49:49Z</time>
      </trkpt>
      <trkpt lat="47.07083098590374" lon="11.469650035724044">
        <ele>1362.3299999999999</ele>
        <time>2018-09-17T12:49:50Z</time>
      </trkpt>
      <trkpt lat="47.070920001715422" lon="11.4694519713521">
        <ele>1361.3599999999999</ele>
        <time>2018-09-17T12:49:51Z</time>
      </trkpt>
      <trkpt lat="47.071010023355484" lon="11.469251979142427">
        <ele>1360.4000000000001</ele>
        <time>2018-09-17T12:49:52Z</time>
      </trkpt>
      <trkpt lat="47.071095015853643" lon="11.469061961397529">
        <ele>1359.4400000000001</ele>
        <time>2018-09-17T12:49:53Z</time>
      </trkpt>
      <trkpt lat="47.071220995858312" lon="11.468917038291693">
        <ele>1358.48</ele>
        <time>2018-09-17T12:49:54Z</time>
      </trkpt>
      <trkpt lat="47.071335995569825" lon="11.468787034973502">
        <ele>1357.52</ele>
        <time>2018-09-17T12:49:55Z</time>
      </trkpt>
      <trkpt lat="47.07145401276648" lon="11.468667006120086">
        <ele>1356.5599999999999</ele>
        <time>2018-09-17T12:49:56Z</time>
      </trkpt>
      <trkpt lat="47.071570018306375" lon="11.468563992530107">
        <ele>1355.5999999999999</ele>
        <time>2018-09-17T12:49:57Z</time>
      </trkpt>
      <trkpt lat="47.071678983047605" lon="11.468428038060665">
        <ele>1354.6300000000001</ele>
        <time>2018-09-17T12:49:58Z</time>
      </trkpt>
      <trkpt lat="47.071787025779486" lon="11.468293005600572">
        <ele>1353.1900000000001</ele>
        <time>2018-09-17T12:49:59Z</time>
      </trkpt>
      <trkpt lat="47.07188400439918" lon="11.468171970918775">
        <ele>1351.75</ele>
        <time>2018-09-17T12:50:00Z</time>
      </trkpt>
      <trkpt lat="47.071999004110694" lon="11.468087984248996">
        <ele>1350.3099999999999</ele>
        <time>2018-09-17T12:50:01Z</time>
      </trkpt>
      <trkpt lat="47.072128001600504" lon="11.468014977872372">
        <ele>1349.3499999999999</ele>
        <time>2018-09-17T12:50:02Z</time>
      </trkpt>
      <trkpt lat="47.072268985211849" lon="11.467934008687735">
        <ele>1347.9100000000001</ele>
        <time>2018-09-17T12:50:03Z</time>
      </trkpt>
      <trkpt lat="47.072408962994814" lon="11.46783803589642">
        <ele>1346.46</ele>
        <time>2018-09-17T12:50:04Z</time>
      </trkpt>
      <trkpt lat="47.072541983798146" lon="11.467717001214623">
        <ele>1344.54</ele>
        <time>2018-09-17T12:50:05Z</time>
      </trkpt>
      <trkpt lat="47.073161993175745" lon="11.467232024297118">
        <ele>1334.9300000000001</ele>
        <time>2018-09-17T12:50:10Z</time>
      </trkpt>
      <trkpt lat="47.073284033685923" lon="11.467203022912145">
        <ele>1333.01</ele>
        <time>2018-09-17T12:50:11Z</time>
      </trkpt>
      <trkpt lat="47.073406996205449" lon="11.467174021527171">
        <ele>1331.0799999999999</ele>
        <time>2018-09-17T12:50:12Z</time>
      </trkpt>
      <trkpt lat="47.073572035878897" lon="11.467087017372251">
        <ele>1327.24</ele>
        <time>2018-09-17T12:50:14Z</time>
      </trkpt>
      <trkpt lat="47.073633978143334" lon="11.467033037915826">
        <ele>1325.3099999999999</ele>
        <time>2018-09-17T12:50:15Z</time>
      </trkpt>
      <trkpt lat="47.073678988963366" lon="11.466976962983608">
        <ele>1323.8699999999999</ele>
        <time>2018-09-17T12:50:16Z</time>
      </trkpt>
      <trkpt lat="47.07377202808857" lon="11.466707987710834">
        <ele>1320.51</ele>
        <time>2018-09-17T12:50:18Z</time>
      </trkpt>
      <trkpt lat="47.07381896674633" lon="11.466573039069772">
        <ele>1318.5899999999999</ele>
        <time>2018-09-17T12:50:19Z</time>
      </trkpt>
      <trkpt lat="47.073831958696246" lon="11.466444041579962">
        <ele>1317.1400000000001</ele>
        <time>2018-09-17T12:50:20Z</time>
      </trkpt>
      <trkpt lat="47.073808992281556" lon="11.466294005513191">
        <ele>1315.22</ele>
        <time>2018-09-17T12:50:21Z</time>
      </trkpt>
      <trkpt lat="47.073785020038486" lon="11.466137012466788">
        <ele>1312.8199999999999</ele>
        <time>2018-09-17T12:50:22Z</time>
      </trkpt>
      <trkpt lat="47.073761969804764" lon="11.465983958914876">
        <ele>1310.9000000000001</ele>
        <time>2018-09-17T12:50:23Z</time>
      </trkpt>
      <trkpt lat="47.073740009218454" lon="11.465835012495518">
        <ele>1308.97</ele>
        <time>2018-09-17T12:50:24Z</time>
      </trkpt>
      <trkpt lat="47.073766998946667" lon="11.465741973370314">
        <ele>1306.5699999999999</ele>
        <time>2018-09-17T12:50:25Z</time>
      </trkpt>
      <trkpt lat="47.073825001716614" lon="11.465640971437097">
        <ele>1304.1700000000001</ele>
        <time>2018-09-17T12:50:26Z</time>
      </trkpt>
      <trkpt lat="47.073884010314941" lon="11.46553804166615">
        <ele>1301.76</ele>
        <time>2018-09-17T12:50:27Z</time>
      </trkpt>
      <trkpt lat="47.073932960629463" lon="11.465488001704216">
        <ele>1299.3599999999999</ele>
        <time>2018-09-17T12:50:28Z</time>
      </trkpt>
      <trkpt lat="47.074014013633132" lon="11.46545497700572">
        <ele>1296.96</ele>
        <time>2018-09-17T12:50:29Z</time>
      </trkpt>
      <trkpt lat="47.074092971161008" lon="11.465422036126256">
        <ele>1295.03</ele>
        <time>2018-09-17T12:50:30Z</time>
      </trkpt>
      <trkpt lat="47.074163965880871" lon="11.465392028912902">
        <ele>1293.1099999999999</ele>
        <time>2018-09-17T12:50:31Z</time>
      </trkpt>
      <trkpt lat="47.074249964207411" lon="11.465421030297875">
        <ele>1290.71</ele>
        <time>2018-09-17T12:50:32Z</time>
      </trkpt>
      <trkpt lat="47.07437401637435" lon="11.465477021411061">
        <ele>1288.78</ele>
        <time>2018-09-17T12:50:33Z</time>
      </trkpt>
      <trkpt lat="47.074479963630438" lon="11.465598978102207">
        <ele>1286.8599999999999</ele>
        <time>2018-09-17T12:50:34Z</time>
      </trkpt>
      <trkpt lat="47.074594963341951" lon="11.46573199890554">
        <ele>1284.46</ele>
        <time>2018-09-17T12:50:35Z</time>
      </trkpt>
      <trkpt lat="47.074793027713895" lon="11.465946994721889">
        <ele>1281.0899999999999</ele>
        <time>2018-09-17T12:50:37Z</time>
      </trkpt>
      <trkpt lat="47.07489000633359" lon="11.466008014976978">
        <ele>1279.6500000000001</ele>
        <time>2018-09-17T12:50:38Z</time>
      </trkpt>
      <trkpt lat="47.0749999769032" lon="11.466079009696841">
        <ele>1278.21</ele>
        <time>2018-09-17T12:50:39Z</time>
      </trkpt>
      <trkpt lat="47.07534296438098" lon="11.466181017458439">
        <ele>1274.3599999999999</ele>
        <time>2018-09-17T12:50:42Z</time>
      </trkpt>
      <trkpt lat="47.075471039861441" lon="11.466179005801678">
        <ele>1272.9200000000001</ele>
        <time>2018-09-17T12:50:43Z</time>
      </trkpt>
      <trkpt lat="47.075561983510852" lon="11.466115973889828">
        <ele>1271.48</ele>
        <time>2018-09-17T12:50:44Z</time>
      </trkpt>
      <trkpt lat="47.075649993494153" lon="11.466055037453771">
        <ele>1270.04</ele>
        <time>2018-09-17T12:50:45Z</time>
      </trkpt>
      <trkpt lat="47.075729034841061" lon="11.46601103246212">
        <ele>1269.0799999999999</ele>
        <time>2018-09-17T12:50:46Z</time>
      </trkpt>
      <trkpt lat="47.07583699375391" lon="11.465993011370301">
        <ele>1267.6400000000001</ele>
        <time>2018-09-17T12:50:47Z</time>
      </trkpt>
      <trkpt lat="47.075898014008999" lon="11.466041961684823">
        <ele>1266.6700000000001</ele>
        <time>2018-09-17T12:50:48Z</time>
      </trkpt>
      <trkpt lat="47.075977977365255" lon="11.466145981103182">
        <ele>1265.23</ele>
        <time>2018-09-17T12:50:49Z</time>
      </trkpt>
      <trkpt lat="47.076038997620344" lon="11.466268021613359">
        <ele>1264.27</ele>
        <time>2018-09-17T12:50:50Z</time>
      </trkpt>
      <trkpt lat="47.076095994561911" lon="11.466382015496492">
        <ele>1262.8299999999999</ele>
        <time>2018-09-17T12:50:51Z</time>
      </trkpt>
      <trkpt lat="47.076150979846716" lon="11.466491986066103">
        <ele>1261.8699999999999</ele>
        <time>2018-09-17T12:50:52Z</time>
      </trkpt>
      <trkpt lat="47.076220968738198" lon="11.466583013534546">
        <ele>1260.4300000000001</ele>
        <time>2018-09-17T12:50:53Z</time>
      </trkpt>
      <trkpt lat="47.076314007863402" lon="11.46665601991117">
        <ele>1258.98</ele>
        <time>2018-09-17T12:50:54Z</time>
      </trkpt>
      <trkpt lat="47.076409980654716" lon="11.466731959953904">
        <ele>1257.54</ele>
        <time>2018-09-17T12:50:55Z</time>
      </trkpt>
      <trkpt lat="47.076607039198279" lon="11.466817958280444">
        <ele>1254.6600000000001</ele>
        <time>2018-09-17T12:50:57Z</time>
      </trkpt>
      <trkpt lat="47.076737964525819" lon="11.46685098297894">
        <ele>1253.22</ele>
        <time>2018-09-17T12:50:58Z</time>
      </trkpt>
      <trkpt lat="47.076781969517469" lon="11.466903034597635">
        <ele>1251.77</ele>
        <time>2018-09-17T12:50:59Z</time>
      </trkpt>
      <trkpt lat="47.0768460072577" lon="11.466989032924175">
        <ele>1249.8499999999999</ele>
        <time>2018-09-17T12:51:00Z</time>
      </trkpt>
      <trkpt lat="47.0768460072577" lon="11.467109983786941">
        <ele>1247.9300000000001</ele>
        <time>2018-09-17T12:51:01Z</time>
      </trkpt>
      <trkpt lat="47.07682597450912" lon="11.467235963791609">
        <ele>1246.49</ele>
        <time>2018-09-17T12:51:02Z</time>
      </trkpt>
      <trkpt lat="47.076793033629656" lon="11.467373007908463">
        <ele>1245.04</ele>
        <time>2018-09-17T12:51:03Z</time>
      </trkpt>
      <trkpt lat="47.076757997274399" lon="11.467521032318473">
        <ele>1243.5999999999999</ele>
        <time>2018-09-17T12:51:04Z</time>
      </trkpt>
      <trkpt lat="47.076734025031328" lon="11.467767963185906">
        <ele>1239.76</ele>
        <time>2018-09-17T12:51:06Z</time>
      </trkpt>
      <trkpt lat="47.076731007546186" lon="11.467897966504097">
        <ele>1237.8299999999999</ele>
        <time>2018-09-17T12:51:07Z</time>
      </trkpt>
      <trkpt lat="47.076723966747522" lon="11.468202983960509">
        <ele>1233.99</ele>
        <time>2018-09-17T12:51:09Z</time>
      </trkpt>
      <trkpt lat="47.07671700976789" lon="11.46848201751709">
        <ele>1230.6199999999999</ele>
        <time>2018-09-17T12:51:11Z</time>
      </trkpt>
      <trkpt lat="47.076754979789257" lon="11.46865401417017">
        <ele>1228.7</ele>
        <time>2018-09-17T12:51:12Z</time>
      </trkpt>
      <trkpt lat="47.076786998659372" lon="11.468798015266657">
        <ele>1227.26</ele>
        <time>2018-09-17T12:51:13Z</time>
      </trkpt>
      <trkpt lat="47.076818011701107" lon="11.46893497556448">
        <ele>1226.3</ele>
        <time>2018-09-17T12:51:14Z</time>
      </trkpt>
      <trkpt lat="47.076854975894094" lon="11.469069002196193">
        <ele>1225.8199999999999</ele>
        <time>2018-09-17T12:51:15Z</time>
      </trkpt>
      <trkpt lat="47.076933011412621" lon="11.469135973602533">
        <ele>1224.8599999999999</ele>
        <time>2018-09-17T12:51:16Z</time>
      </trkpt>
      <trkpt lat="47.077016998082399" lon="11.469197999686003">
        <ele>1223.9000000000001</ele>
        <time>2018-09-17T12:51:17Z</time>
      </trkpt>
      <trkpt lat="47.077116994187236" lon="11.46923697553575">
        <ele>1222.9300000000001</ele>
        <time>2018-09-17T12:51:18Z</time>
      </trkpt>
      <trkpt lat="47.077224031090736" lon="11.46927896887064">
        <ele>1221.97</ele>
        <time>2018-09-17T12:51:19Z</time>
      </trkpt>
      <trkpt lat="47.077327966690063" lon="11.4693190343678">
        <ele>1220.53</ele>
        <time>2018-09-17T12:51:20Z</time>
      </trkpt>
      <trkpt lat="47.077409019693732" lon="11.469367984682322">
        <ele>1220.05</ele>
        <time>2018-09-17T12:51:21Z</time>
      </trkpt>
      <trkpt lat="47.077482026070356" lon="11.469439985230565">
        <ele>1219.0899999999999</ele>
        <time>2018-09-17T12:51:22Z</time>
      </trkpt>
      <trkpt lat="47.077574981376529" lon="11.46953403018415">
        <ele>1218.6099999999999</ele>
        <time>2018-09-17T12:51:23Z</time>
      </trkpt>
      <trkpt lat="47.077628960832953" lon="11.469546016305685">
        <ele>1217.6500000000001</ele>
        <time>2018-09-17T12:51:24Z</time>
      </trkpt>
      <trkpt lat="47.077698027715087" lon="11.469562025740743">
        <ele>1217.1700000000001</ele>
        <time>2018-09-17T12:51:25Z</time>
      </trkpt>
      <trkpt lat="47.077786959707737" lon="11.469581974670291">
        <ele>1216.21</ele>
        <time>2018-09-17T12:51:26Z</time>
      </trkpt>
      <trkpt lat="47.077881004661322" lon="11.469612987712026">
        <ele>1215.72</ele>
        <time>2018-09-17T12:51:27Z</time>
      </trkpt>
      <trkpt lat="47.077975971624255" lon="11.46966696716845">
        <ele>1215.24</ele>
        <time>2018-09-17T12:51:28Z</time>
      </trkpt>
      <trkpt lat="47.078073034062982" lon="11.469721030443907">
        <ele>1214.76</ele>
        <time>2018-09-17T12:51:29Z</time>
      </trkpt>
      <trkpt lat="47.078256011009216" lon="11.469824966043234">
        <ele>1213.8</ele>
        <time>2018-09-17T12:51:31Z</time>
      </trkpt>
      <trkpt lat="47.078348966315389" lon="11.469876011833549">
        <ele>1212.8399999999999</ele>
        <time>2018-09-17T12:51:32Z</time>
      </trkpt>
      <trkpt lat="47.078438987955451" lon="11.469837035983801">
        <ele>1211.8800000000001</ele>
        <time>2018-09-17T12:51:33Z</time>
      </trkpt>
      <trkpt lat="47.078539989888668" lon="11.469791019335389">
        <ele>1210.9200000000001</ele>
        <time>2018-09-17T12:51:34Z</time>
      </trkpt>
      <trkpt lat="47.078657001256943" lon="11.469738967716694">
        <ele>1209.96</ele>
        <time>2018-09-17T12:51:35Z</time>
      </trkpt>
      <trkpt lat="47.079140972346067" lon="11.469376031309366">
        <ele>1205.6300000000001</ele>
        <time>2018-09-17T12:51:39Z</time>
      </trkpt>
      <trkpt lat="47.079249015077949" lon="11.469264971092343">
        <ele>1204.6700000000001</ele>
        <time>2018-09-17T12:51:40Z</time>
      </trkpt>
      <trkpt lat="47.079544980078936" lon="11.468921983614564">
        <ele>1201.79</ele>
        <time>2018-09-17T12:51:43Z</time>
      </trkpt>
      <trkpt lat="47.079647993668914" lon="11.468845959752798">
        <ele>1200.8199999999999</ele>
        <time>2018-09-17T12:51:44Z</time>
      </trkpt>
      <trkpt lat="47.079759975895286" lon="11.468801032751799">
        <ele>1199.8599999999999</ele>
        <time>2018-09-17T12:51:45Z</time>
      </trkpt>
      <trkpt lat="47.079884028062224" lon="11.468792986124754">
        <ele>1198.4200000000001</ele>
        <time>2018-09-17T12:51:46Z</time>
      </trkpt>
      <trkpt lat="47.080006990581751" lon="11.468810001388192">
        <ele>1197.46</ele>
        <time>2018-09-17T12:51:47Z</time>
      </trkpt>
      <trkpt lat="47.08013498224318" lon="11.46882701665163">
        <ele>1196.5</ele>
        <time>2018-09-17T12:51:48Z</time>
      </trkpt>
      <trkpt lat="47.080257022753358" lon="11.468843026086688">
        <ele>1195.54</ele>
        <time>2018-09-17T12:51:49Z</time>
      </trkpt>
      <trkpt lat="47.080372022464871" lon="11.468859035521746">
        <ele>1195.0599999999999</ele>
        <time>2018-09-17T12:51:50Z</time>
      </trkpt>
      <trkpt lat="47.080482998862863" lon="11.468874039128423">
        <ele>1194.5799999999999</ele>
        <time>2018-09-17T12:51:51Z</time>
      </trkpt>
      <trkpt lat="47.080601016059518" lon="11.468889964744449">
        <ele>1193.6099999999999</ele>
        <time>2018-09-17T12:51:52Z</time>
      </trkpt>
      <trkpt lat="47.080700006335974" lon="11.468860963359475">
        <ele>1192.6500000000001</ele>
        <time>2018-09-17T12:51:53Z</time>
      </trkpt>
      <trkpt lat="47.080803019925952" lon="11.468794997781515">
        <ele>1191.21</ele>
        <time>2018-09-17T12:51:54Z</time>
      </trkpt>
      <trkpt lat="47.080902010202408" lon="11.468696007505059">
        <ele>1189.77</ele>
        <time>2018-09-17T12:51:55Z</time>
      </trkpt>
      <trkpt lat="47.081010974943638" lon="11.468586958944798">
        <ele>1188.3299999999999</ele>
        <time>2018-09-17T12:51:56Z</time>
      </trkpt>
      <trkpt lat="47.081137038767338" lon="11.468460978940129">
        <ele>1186.8800000000001</ele>
        <time>2018-09-17T12:51:57Z</time>
      </trkpt>
      <trkpt lat="47.081218007951975" lon="11.468313038349152">
        <ele>1184.96</ele>
        <time>2018-09-17T12:51:58Z</time>
      </trkpt>
      <trkpt lat="47.081307023763657" lon="11.468152021989226">
        <ele>1183.52</ele>
        <time>2018-09-17T12:51:59Z</time>
      </trkpt>
      <trkpt lat="47.081607012078166" lon="11.467606024816632">
        <ele>1177.75</ele>
        <time>2018-09-17T12:52:03Z</time>
      </trkpt>
      <trkpt lat="47.081672977656126" lon="11.467570988461375">
        <ele>1176.3099999999999</ele>
        <time>2018-09-17T12:52:04Z</time>
      </trkpt>
      <trkpt lat="47.081739027053118" lon="11.467537041753531">
        <ele>1174.8699999999999</ele>
        <time>2018-09-17T12:52:05Z</time>
      </trkpt>
      <trkpt lat="47.081796023994684" lon="11.467522038146853">
        <ele>1173.4300000000001</ele>
        <time>2018-09-17T12:52:06Z</time>
      </trkpt>
      <trkpt lat="47.081864001229405" lon="11.467550033703446">
        <ele>1171.98</ele>
        <time>2018-09-17T12:52:07Z</time>
      </trkpt>
      <trkpt lat="47.081887973472476" lon="11.46755900233984">
        <ele>1170.54</ele>
        <time>2018-09-17T12:52:08Z</time>
      </trkpt>
      <trkpt lat="47.081953017041087" lon="11.46764500066638">
        <ele>1169.5799999999999</ele>
        <time>2018-09-17T12:52:09Z</time>
      </trkpt>
      <trkpt lat="47.082016970962286" lon="11.46773099899292">
        <ele>1167.1800000000001</ele>
        <time>2018-09-17T12:52:11Z</time>
      </trkpt>
      <trkpt lat="47.082033986225724" lon="11.467832000926137">
        <ele>1165.74</ele>
        <time>2018-09-17T12:52:12Z</time>
      </trkpt>
      <trkpt lat="47.082059970125556" lon="11.46798899397254">
        <ele>1164.29</ele>
        <time>2018-09-17T12:52:13Z</time>
      </trkpt>
      <trkpt lat="47.082038009539247" lon="11.468159984797239">
        <ele>1162.8499999999999</ele>
        <time>2018-09-17T12:52:14Z</time>
      </trkpt>
      <trkpt lat="47.082000039517879" lon="11.468264004215598">
        <ele>1160.9300000000001</ele>
        <time>2018-09-17T12:52:15Z</time>
      </trkpt>
      <trkpt lat="47.081887973472476" lon="11.46856801584363">
        <ele>1156.1199999999999</ele>
        <time>2018-09-17T12:52:17Z</time>
      </trkpt>
      <trkpt lat="47.081870036199689" lon="11.468711011111736">
        <ele>1154.2</ele>
        <time>2018-09-17T12:52:18Z</time>
      </trkpt>
      <trkpt lat="47.081833994016051" lon="11.469001024961472">
        <ele>1149.3900000000001</ele>
        <time>2018-09-17T12:52:20Z</time>
      </trkpt>
      <trkpt lat="47.081817984580994" lon="11.46912700496614">
        <ele>1147.47</ele>
        <time>2018-09-17T12:52:21Z</time>
      </trkpt>
      <trkpt lat="47.081803986802697" lon="11.469238987192512">
        <ele>1146.03</ele>
        <time>2018-09-17T12:52:22Z</time>
      </trkpt>
      <trkpt lat="47.081792000681162" lon="11.469337977468967">
        <ele>1144.1099999999999</ele>
        <time>2018-09-17T12:52:23Z</time>
      </trkpt>
      <trkpt lat="47.08178797736764" lon="11.469435961917043">
        <ele>1142.6600000000001</ele>
        <time>2018-09-17T12:52:24Z</time>
      </trkpt>
      <trkpt lat="47.081836005672812" lon="11.46949103102088">
        <ele>1141.22</ele>
        <time>2018-09-17T12:52:25Z</time>
      </trkpt>
      <trkpt lat="47.081867018714547" lon="11.46949103102088">
        <ele>1140.26</ele>
        <time>2018-09-17T12:52:26Z</time>
      </trkpt>
      <trkpt lat="47.081953017041087" lon="11.469382988288999">
        <ele>1138.8199999999999</ele>
        <time>2018-09-17T12:52:27Z</time>
      </trkpt>
      <trkpt lat="47.081988975405693" lon="11.469297995790839">
        <ele>1137.3800000000001</ele>
        <time>2018-09-17T12:52:28Z</time>
      </trkpt>
      <trkpt lat="47.082043038681149" lon="11.46917000412941">
        <ele>1135.45</ele>
        <time>2018-09-17T12:52:29Z</time>
      </trkpt>
      <trkpt lat="47.082099029794335" lon="11.469036983326077">
        <ele>1133.05</ele>
        <time>2018-09-17T12:52:30Z</time>
      </trkpt>
      <trkpt lat="47.082155020907521" lon="11.468905974179506">
        <ele>1131.1300000000001</ele>
        <time>2018-09-17T12:52:31Z</time>
      </trkpt>
      <trkpt lat="47.082211012020707" lon="11.468810001388192">
        <ele>1129.21</ele>
        <time>2018-09-17T12:52:32Z</time>
      </trkpt>
      <trkpt lat="47.082322994247079" lon="11.468729032203555">
        <ele>1126.8</ele>
        <time>2018-09-17T12:52:33Z</time>
      </trkpt>
      <trkpt lat="47.082438999786973" lon="11.468644961714745">
        <ele>1124.8800000000001</ele>
        <time>2018-09-17T12:52:34Z</time>
      </trkpt>
      <trkpt lat="47.082555005326867" lon="11.468560975044966">
        <ele>1122.48</ele>
        <time>2018-09-17T12:52:35Z</time>
      </trkpt>
      <trkpt lat="47.082896986976266" lon="11.468327036127448">
        <ele>1115.75</ele>
        <time>2018-09-17T12:52:38Z</time>
      </trkpt>
      <trkpt lat="47.083009975031018" lon="11.468251012265682">
        <ele>1113.3399999999999</ele>
        <time>2018-09-17T12:52:39Z</time>
      </trkpt>
      <trkpt lat="47.083127992227674" lon="11.4681810233742">
        <ele>1110.9400000000001</ele>
        <time>2018-09-17T12:52:40Z</time>
      </trkpt>
      <trkpt lat="47.084219986572862" lon="11.468094019219279">
        <ele>1095.0799999999999</ele>
        <time>2018-09-17T12:52:49Z</time>
      </trkpt>
      <trkpt lat="47.084675040096045" lon="11.468057977035642">
        <ele>1089.3099999999999</ele>
        <time>2018-09-17T12:52:53Z</time>
      </trkpt>
      <trkpt lat="47.084767995402217" lon="11.468038028106093">
        <ele>1088.3499999999999</ele>
        <time>2018-09-17T12:52:54Z</time>
      </trkpt>
      <trkpt lat="47.08486002869904" lon="11.467983964830637">
        <ele>1087.8699999999999</ele>
        <time>2018-09-17T12:52:55Z</time>
      </trkpt>
      <trkpt lat="47.085121963173151" lon="11.467780033126473">
        <ele>1084.5</ele>
        <time>2018-09-17T12:52:58Z</time>
      </trkpt>
      <trkpt lat="47.085198992863297" lon="11.467704009264708">
        <ele>1083.0599999999999</ele>
        <time>2018-09-17T12:52:59Z</time>
      </trkpt>
      <trkpt lat="47.085285997018218" lon="11.467638965696096">
        <ele>1081.6199999999999</ele>
        <time>2018-09-17T12:53:00Z</time>
      </trkpt>
      <trkpt lat="47.085694028064609" lon="11.467546010389924">
        <ele>1074.4100000000001</ele>
        <time>2018-09-17T12:53:04Z</time>
      </trkpt>
      <trkpt lat="47.085795029997826" lon="11.467517009004951">
        <ele>1072.97</ele>
        <time>2018-09-17T12:53:05Z</time>
      </trkpt>
      <trkpt lat="47.085897037759423" lon="11.467483984306455">
        <ele>1071.05</ele>
        <time>2018-09-17T12:53:06Z</time>
      </trkpt>
      <trkpt lat="47.086979979649186" lon="11.467039994895458">
        <ele>1061.9100000000001</ele>
        <time>2018-09-17T12:53:17Z</time>
      </trkpt>
      <trkpt lat="47.087065977975726" lon="11.466975035145879">
        <ele>1060.95</ele>
        <time>2018-09-17T12:53:18Z</time>
      </trkpt>
      <trkpt lat="47.087155999615788" lon="11.466907979920506">
        <ele>1060.47</ele>
        <time>2018-09-17T12:53:19Z</time>
      </trkpt>
      <trkpt lat="47.088225027546287" lon="11.466302974149585">
        <ele>1053.26</ele>
        <time>2018-09-17T12:53:31Z</time>
      </trkpt>
      <trkpt lat="47.088516969233751" lon="11.466109016910195">
        <ele>1050.8599999999999</ele>
        <time>2018-09-17T12:53:35Z</time>
      </trkpt>
      <trkpt lat="47.088857023045421" lon="11.46588203497231">
        <ele>1049.4200000000001</ele>
        <time>2018-09-17T12:53:40Z</time>
      </trkpt>
      <trkpt lat="47.088947966694832" lon="11.465821014717221">
        <ele>1048.9400000000001</ele>
        <time>2018-09-17T12:53:41Z</time>
      </trkpt>
      <trkpt lat="47.089009992778301" lon="11.465821014717221">
        <ele>1049.4200000000001</ele>
        <time>2018-09-17T12:53:42Z</time>
      </trkpt>
      <trkpt lat="47.089085010811687" lon="11.465821014717221">
        <ele>1049.4200000000001</ele>
        <time>2018-09-17T12:53:43Z</time>
      </trkpt>
      <trkpt lat="47.089174026623368" lon="11.465852027758956">
        <ele>1049.4200000000001</ele>
        <time>2018-09-17T12:53:44Z</time>
      </trkpt>
      <trkpt lat="47.089246027171612" lon="11.465881029143929">
        <ele>1049.9000000000001</ele>
        <time>2018-09-17T12:53:45Z</time>
      </trkpt>
      <trkpt lat="47.089707031846046" lon="11.466069035232067">
        <ele>1050.8599999999999</ele>
        <time>2018-09-17T12:53:51Z</time>
      </trkpt>
      <trkpt lat="47.089857989922166" lon="11.466081021353602">
        <ele>1050.8599999999999</ele>
        <time>2018-09-17T12:53:53Z</time>
      </trkpt>
      <trkpt lat="47.089934013783932" lon="11.466059982776642">
        <ele>1050.8599999999999</ele>
        <time>2018-09-17T12:53:54Z</time>
      </trkpt>
      <trkpt lat="47.090007020160556" lon="11.466041039675474">
        <ele>1050.8599999999999</ele>
        <time>2018-09-17T12:53:55Z</time>
      </trkpt>
      <trkpt lat="47.090222015976906" lon="11.465983036905527">
        <ele>1050.3800000000001</ele>
        <time>2018-09-17T12:53:58Z</time>
      </trkpt>
      <trkpt lat="47.090288987383246" lon="11.465965015813708">
        <ele>1049.9000000000001</ele>
        <time>2018-09-17T12:53:59Z</time>
      </trkpt>
      <trkpt lat="47.09036098793149" lon="11.465955963358283">
        <ele>1048.9400000000001</ele>
        <time>2018-09-17T12:54:00Z</time>
      </trkpt>
      <trkpt lat="47.09042401984334" lon="11.465977001935244">
        <ele>1048.45</ele>
        <time>2018-09-17T12:54:01Z</time>
      </trkpt>
      <trkpt lat="47.090485962107778" lon="11.465998040512204">
        <ele>1047.97</ele>
        <time>2018-09-17T12:54:02Z</time>
      </trkpt>
      <trkpt lat="47.090551005676389" lon="11.466018995270133">
        <ele>1047.49</ele>
        <time>2018-09-17T12:54:03Z</time>
      </trkpt>
      <trkpt lat="47.090634992346168" lon="11.466057971119881">
        <ele>1047.49</ele>
        <time>2018-09-17T12:54:04Z</time>
      </trkpt>
      <trkpt lat="47.09085501730442" lon="11.466196021065116">
        <ele>1048.45</ele>
        <time>2018-09-17T12:54:07Z</time>
      </trkpt>
      <trkpt lat="47.090989965945482" lon="11.466281013563275">
        <ele>1049.4200000000001</ele>
        <time>2018-09-17T12:54:09Z</time>
      </trkpt>
      <trkpt lat="47.091183001175523" lon="11.466402970254421">
        <ele>1049.9000000000001</ele>
        <time>2018-09-17T12:54:12Z</time>
      </trkpt>
      <trkpt lat="47.091248966753483" lon="11.466444963589311">
        <ele>1049.9000000000001</ele>
        <time>2018-09-17T12:54:13Z</time>
      </trkpt>
      <trkpt lat="47.09130403585732" lon="11.466479999944568">
        <ele>1049.9000000000001</ele>
        <time>2018-09-17T12:54:14Z</time>
      </trkpt>
      <trkpt lat="47.091353992000222" lon="11.466512018814683">
        <ele>1049.9000000000001</ele>
        <time>2018-09-17T12:54:15Z</time>
      </trkpt>
      <trkpt lat="47.091385005041957" lon="11.466530961915851">
        <ele>1049.9000000000001</ele>
        <time>2018-09-17T12:54:16Z</time>
      </trkpt>
      <trkpt lat="47.091415012255311" lon="11.466550994664431">
        <ele>1050.3800000000001</ele>
        <time>2018-09-17T12:54:23Z</time>
      </trkpt>
      <trkpt lat="47.09147997200489" lon="11.466679992154241">
        <ele>1049.9000000000001</ele>
        <time>2018-09-17T12:54:24Z</time>
      </trkpt>
      <trkpt lat="47.091601006686687" lon="11.466694995760918">
        <ele>1049.4200000000001</ele>
        <time>2018-09-17T12:54:26Z</time>
      </trkpt>
      <trkpt lat="47.091679964214563" lon="11.466711005195975">
        <ele>1048.9400000000001</ele>
        <time>2018-09-17T12:54:27Z</time>
      </trkpt>
      <trkpt lat="47.091762023046613" lon="11.466727014631033">
        <ele>1048.9400000000001</ele>
        <time>2018-09-17T12:54:28Z</time>
      </trkpt>
      <trkpt lat="47.092013983055949" lon="11.466777976602316">
        <ele>1049.4200000000001</ele>
        <time>2018-09-17T12:54:31Z</time>
      </trkpt>
      <trkpt lat="47.09227298386395" lon="11.466801026836038">
        <ele>1050.8599999999999</ele>
        <time>2018-09-17T12:54:34Z</time>
      </trkpt>
      <trkpt lat="47.092532990500331" lon="11.466781999915838">
        <ele>1051.8199999999999</ele>
        <time>2018-09-17T12:54:37Z</time>
      </trkpt>
      <trkpt lat="47.092995001003146" lon="11.466665994375944">
        <ele>1052.78</ele>
        <time>2018-09-17T12:54:42Z</time>
      </trkpt>
      <trkpt lat="47.093082005158067" lon="11.466624001041055">
        <ele>1052.3</ele>
        <time>2018-09-17T12:54:43Z</time>
      </trkpt>
      <trkpt lat="47.09317303262651" lon="11.466579996049404">
        <ele>1052.3</ele>
        <time>2018-09-17T12:54:44Z</time>
      </trkpt>
      <trkpt lat="47.093796981498599" lon="11.46614296361804">
        <ele>1048.9400000000001</ele>
        <time>2018-09-17T12:54:52Z</time>
      </trkpt>
      <trkpt lat="47.093898989260197" lon="11.466041961684823">
        <ele>1047.97</ele>
        <time>2018-09-17T12:54:54Z</time>
      </trkpt>
      <trkpt lat="47.09394701756537" lon="11.465993011370301">
        <ele>1047.97</ele>
        <time>2018-09-17T12:54:55Z</time>
      </trkpt>
      <trkpt lat="47.094028992578387" lon="11.465911958366632">
        <ele>1047.49</ele>
        <time>2018-09-17T12:54:57Z</time>
      </trkpt>
      <trkpt lat="47.094243988394737" lon="11.465719006955624">
        <ele>1045.5699999999999</ele>
        <time>2018-09-17T12:55:03Z</time>
      </trkpt>
      <trkpt lat="47.094386983662844" lon="11.46573300473392">
        <ele>1045.5699999999999</ele>
        <time>2018-09-17T12:55:06Z</time>
      </trkpt>
      <trkpt lat="47.094411039724946" lon="11.465677013620734">
        <ele>1045.0899999999999</ele>
        <time>2018-09-17T12:55:07Z</time>
      </trkpt>
      <trkpt lat="47.094438029453158" lon="11.465614987537265">
        <ele>1045.0899999999999</ele>
        <time>2018-09-17T12:55:08Z</time>
      </trkpt>
      <trkpt lat="47.094513969495893" lon="11.465464029461145">
        <ele>1044.6099999999999</ele>
        <time>2018-09-17T12:55:10Z</time>
      </trkpt>
      <trkpt lat="47.094566021114588" lon="11.465435028076172">
        <ele>1044.1300000000001</ele>
        <time>2018-09-17T12:55:11Z</time>
      </trkpt>
      <trkpt lat="47.09461497142911" lon="11.46540803834796">
        <ele>1043.6500000000001</ele>
        <time>2018-09-17T12:55:12Z</time>
      </trkpt>
      <trkpt lat="47.094666017219424" lon="11.465379958972335">
        <ele>1043.6500000000001</ele>
        <time>2018-09-17T12:55:13Z</time>
      </trkpt>
      <trkpt lat="47.094719996675849" lon="11.465349029749632">
        <ele>1043.1700000000001</ele>
        <time>2018-09-17T12:55:14Z</time>
      </trkpt>
      <trkpt lat="47.094779005274177" lon="11.465316005051136">
        <ele>1042.6900000000001</ele>
        <time>2018-09-17T12:55:15Z</time>
      </trkpt>
      <trkpt lat="47.095653992146254" lon="11.465134033933282">
        <ele>1045.5699999999999</ele>
        <time>2018-09-17T12:55:26Z</time>
      </trkpt>
      <trkpt lat="47.096788985654712" lon="11.464954996481538">
        <ele>1047.01</ele>
        <time>2018-09-17T12:55:37Z</time>
      </trkpt>
      <trkpt lat="47.09792397916317" lon="11.464343033730984">
        <ele>1046.05</ele>
        <time>2018-09-17T12:55:48Z</time>
      </trkpt>
      <trkpt lat="47.099066013470292" lon="11.463701985776424">
        <ele>1044.6099999999999</ele>
        <time>2018-09-17T12:55:59Z</time>
      </trkpt>
      <trkpt lat="47.100534019991755" lon="11.463050963357091">
        <ele>1041.25</ele>
        <time>2018-09-17T12:56:10Z</time>
      </trkpt>
      <trkpt lat="47.101947963237762" lon="11.462390972301364">
        <ele>1037.8800000000001</ele>
        <time>2018-09-17T12:56:19Z</time>
      </trkpt>
      <trkpt lat="47.103172978386283" lon="11.46130601875484">
        <ele>1034.52</ele>
        <time>2018-09-17T12:56:25Z</time>
      </trkpt>
      <trkpt lat="47.104883976280689" lon="11.45941698923707">
        <ele>1030.6700000000001</ele>
        <time>2018-09-17T12:56:33Z</time>
      </trkpt>
      <trkpt lat="47.106185015290976" lon="11.457982007414103">
        <ele>1028.27</ele>
        <time>2018-09-17T12:56:40Z</time>
      </trkpt>
      <trkpt lat="47.107747988775373" lon="11.456265980377793">
        <ele>1025.3800000000001</ele>
        <time>2018-09-17T12:56:49Z</time>
      </trkpt>
      <trkpt lat="47.109472984448075" lon="11.454383991658688">
        <ele>1022.5</ele>
        <time>2018-09-17T12:56:57Z</time>
      </trkpt>
      <trkpt lat="47.111570974811912" lon="11.452331012114882">
        <ele>1018.17</ele>
        <time>2018-09-17T12:57:07Z</time>
      </trkpt>
      <trkpt lat="47.113010985776782" lon="11.451846035197377">
        <ele>1015.77</ele>
        <time>2018-09-17T12:57:13Z</time>
      </trkpt>
      <trkpt lat="47.114886017516255" lon="11.45178803242743">
        <ele>1015.77</ele>
        <time>2018-09-17T12:57:21Z</time>
      </trkpt>
      <trkpt lat="47.116325022652745" lon="11.451527019962668">
        <ele>1016.73</ele>
        <time>2018-09-17T12:57:27Z</time>
      </trkpt>
      <trkpt lat="47.117651039734483" lon="11.451199958100915">
        <ele>1015.29</ele>
        <time>2018-09-17T12:57:35Z</time>
      </trkpt>
      <trkpt lat="47.118974039331079" lon="11.450928971171379">
        <ele>1011.9299999999999</ele>
        <time>2018-09-17T12:57:45Z</time>
      </trkpt>
      <trkpt lat="47.120369961485267" lon="11.450737025588751">
        <ele>1009.52</ele>
        <time>2018-09-17T12:57:56Z</time>
      </trkpt>
      <trkpt lat="47.120880000293255" lon="11.450687991455197">
        <ele>1008.5599999999999</ele>
        <time>2018-09-17T12:58:04Z</time>
      </trkpt>
      <trkpt lat="47.120992988348007" lon="11.450678016990423">
        <ele>1008.08</ele>
        <time>2018-09-17T12:58:07Z</time>
      </trkpt>
      <trkpt lat="47.121027018874884" lon="11.450673993676901">
        <ele>1007.6</ele>
        <time>2018-09-17T12:58:10Z</time>
      </trkpt>
      <trkpt lat="47.121525993570685" lon="11.450676005333662">
        <ele>1006.64</ele>
        <time>2018-09-17T12:58:15Z</time>
      </trkpt>
      <trkpt lat="47.122988970950246" lon="11.450759992003441">
        <ele>1006.16</ele>
        <time>2018-09-17T12:58:24Z</time>
      </trkpt>
      <trkpt lat="47.124902978539467" lon="11.451218985021114">
        <ele>1003.75</ele>
        <time>2018-09-17T12:58:35Z</time>
      </trkpt>
      <trkpt lat="47.125955997034907" lon="11.451678983867168">
        <ele>999.90999999999997</ele>
        <time>2018-09-17T12:58:43Z</time>
      </trkpt>
      <trkpt lat="47.12718503549695" lon="11.452323971316218">
        <ele>997.99000000000001</ele>
        <time>2018-09-17T12:58:55Z</time>
      </trkpt>
      <trkpt lat="47.127361977472901" lon="11.452422961592674">
        <ele>997.99000000000001</ele>
        <time>2018-09-17T12:58:57Z</time>
      </trkpt>
      <trkpt lat="47.127426015213132" lon="11.45245498046279">
        <ele>997.99000000000001</ele>
        <time>2018-09-17T12:58:58Z</time>
      </trkpt>
      <trkpt lat="47.127474965527654" lon="11.452479958534241">
        <ele>997.99000000000001</ele>
        <time>2018-09-17T12:58:59Z</time>
      </trkpt>
      <trkpt lat="47.127510001882911" lon="11.45249797962606">
        <ele>997.99000000000001</ele>
        <time>2018-09-17T12:59:00Z</time>
      </trkpt>
      <trkpt lat="47.127539003267884" lon="11.452511977404356">
        <ele>997.99000000000001</ele>
        <time>2018-09-17T12:59:01Z</time>
      </trkpt>
      <trkpt lat="47.127623995766044" lon="11.452553970739245">
        <ele>997.99000000000001</ele>
        <time>2018-09-17T12:59:04Z</time>
      </trkpt>
      <trkpt lat="47.128202011808753" lon="11.45275698043406">
        <ele>997.99000000000001</ele>
        <time>2018-09-17T12:59:13Z</time>
      </trkpt>
      <trkpt lat="47.128509962931275" lon="11.452819006517529">
        <ele>997.99000000000001</ele>
        <time>2018-09-17T12:59:17Z</time>
      </trkpt>
      <trkpt lat="47.128572994843125" lon="11.452830992639065">
        <ele>997.50999999999999</ele>
        <time>2018-09-17T12:59:18Z</time>
      </trkpt>
      <trkpt lat="47.128731999546289" lon="11.452855970710516">
        <ele>996.05999999999995</ele>
        <time>2018-09-17T12:59:23Z</time>
      </trkpt>
      <trkpt lat="47.129251006990671" lon="11.452934006229043">
        <ele>996.53999999999996</ele>
        <time>2018-09-17T12:59:31Z</time>
      </trkpt>
      <trkpt lat="47.12946399115026" lon="11.452957978472114">
        <ele>996.05999999999995</ele>
        <time>2018-09-17T12:59:34Z</time>
      </trkpt>
      <trkpt lat="47.129545966163278" lon="11.452965019270778">
        <ele>996.05999999999995</ele>
        <time>2018-09-17T12:59:35Z</time>
      </trkpt>
      <trkpt lat="47.129702037200332" lon="11.452989997342229">
        <ele>996.05999999999995</ele>
        <time>2018-09-17T12:59:37Z</time>
      </trkpt>
      <trkpt lat="47.129924995824695" lon="11.453007012605667">
        <ele>997.01999999999998</ele>
        <time>2018-09-17T12:59:40Z</time>
      </trkpt>
      <trkpt lat="47.129990961402655" lon="11.453013969585299">
        <ele>997.50999999999999</ele>
        <time>2018-09-17T12:59:41Z</time>
      </trkpt>
      <trkpt lat="47.130052987486124" lon="11.453024027869105">
        <ele>997.50999999999999</ele>
        <time>2018-09-17T12:59:42Z</time>
      </trkpt>
      <trkpt lat="47.130119036883116" lon="11.45303500816226">
        <ele>998.47000000000003</ele>
        <time>2018-09-17T12:59:43Z</time>
      </trkpt>
      <trkpt lat="47.130206041038036" lon="11.453049005940557">
        <ele>998.47000000000003</ele>
        <time>2018-09-17T12:59:44Z</time>
      </trkpt>
      <trkpt lat="47.130289021879435" lon="11.453054035082459">
        <ele>998.95000000000005</ele>
        <time>2018-09-17T12:59:45Z</time>
      </trkpt>
      <trkpt lat="47.130623962730169" lon="11.453054035082459">
        <ele>999.42999999999995</ele>
        <time>2018-09-17T12:59:49Z</time>
      </trkpt>
      <trkpt lat="47.13071197271347" lon="11.453054035082459">
        <ele>998.95000000000005</ele>
        <time>2018-09-17T12:59:50Z</time>
      </trkpt>
      <trkpt lat="47.130811968818307" lon="11.453054035082459">
        <ele>998.95000000000005</ele>
        <time>2018-09-17T12:59:51Z</time>
      </trkpt>
      <trkpt lat="47.130980025976896" lon="11.452969964593649">
        <ele>998.47000000000003</ele>
        <time>2018-09-17T12:59:53Z</time>
      </trkpt>
      <trkpt lat="47.131066024303436" lon="11.452926965430379">
        <ele>997.99000000000001</ele>
        <time>2018-09-17T12:59:54Z</time>
      </trkpt>
      <trkpt lat="47.131154034286737" lon="11.452882960438728">
        <ele>997.99000000000001</ele>
        <time>2018-09-17T12:59:55Z</time>
      </trkpt>
      <trkpt lat="47.131243972107768" lon="11.452838033437729">
        <ele>997.99000000000001</ele>
        <time>2018-09-17T12:59:56Z</time>
      </trkpt>
      <trkpt lat="47.131341034546494" lon="11.452790005132556">
        <ele>997.99000000000001</ele>
        <time>2018-09-17T12:59:57Z</time>
      </trkpt>
      <trkpt lat="47.131738001480699" lon="11.452578026801348">
        <ele>997.99000000000001</ele>
        <time>2018-09-17T13:00:01Z</time>
      </trkpt>
      <trkpt lat="47.131842020899057" lon="11.452523041516542">
        <ele>997.99000000000001</ele>
        <time>2018-09-17T13:00:02Z</time>
      </trkpt>
      <trkpt lat="47.132735028862953" lon="11.452112998813391">
        <ele>999.90999999999997</ele>
        <time>2018-09-17T13:00:12Z</time>
      </trkpt>
      <trkpt lat="47.132991012185812" lon="11.452109981328249">
        <ele>998.47000000000003</ele>
        <time>2018-09-17T13:00:15Z</time>
      </trkpt>
      <trkpt lat="47.133295023813844" lon="11.45217795856297">
        <ele>996.53999999999996</ele>
        <time>2018-09-17T13:00:19Z</time>
      </trkpt>
      <trkpt lat="47.13337398134172" lon="11.452209977433085">
        <ele>996.05999999999995</ele>
        <time>2018-09-17T13:00:20Z</time>
      </trkpt>
      <trkpt lat="47.133456962183118" lon="11.452244007959962">
        <ele>995.58000000000004</ele>
        <time>2018-09-17T13:00:21Z</time>
      </trkpt>
      <trkpt lat="47.133537009358406" lon="11.452276026830077">
        <ele>995.58000000000004</ele>
        <time>2018-09-17T13:00:22Z</time>
      </trkpt>
      <trkpt lat="47.133616972714663" lon="11.452310979366302">
        <ele>995.10000000000002</ele>
        <time>2018-09-17T13:00:23Z</time>
      </trkpt>
      <trkpt lat="47.133796010166407" lon="11.45238901488483">
        <ele>994.13999999999999</ele>
        <time>2018-09-17T13:00:25Z</time>
      </trkpt>
      <trkpt lat="47.133988961577415" lon="11.452441988512874">
        <ele>994.62</ele>
        <time>2018-09-17T13:00:27Z</time>
      </trkpt>
      <trkpt lat="47.134418031200767" lon="11.452547013759613">
        <ele>997.01999999999998</ele>
        <time>2018-09-17T13:00:32Z</time>
      </trkpt>
      <trkpt lat="47.135219005867839" lon="11.452567968517542">
        <ele>998.95000000000005</ele>
        <time>2018-09-17T13:00:37Z</time>
      </trkpt>
      <trkpt lat="47.1356510091573" lon="11.45245498046279">
        <ele>1000.87</ele>
        <time>2018-09-17T13:00:40Z</time>
      </trkpt>
      <trkpt lat="47.136057028546929" lon="11.452268986031413">
        <ele>1001.83</ele>
        <time>2018-09-17T13:00:43Z</time>
      </trkpt>
      <trkpt lat="47.136172028258443" lon="11.452216012403369">
        <ele>1002.3099999999999</ele>
        <time>2018-09-17T13:00:44Z</time>
      </trkpt>
      <trkpt lat="47.136289961636066" lon="11.452179970219731">
        <ele>1002.79</ele>
        <time>2018-09-17T13:00:45Z</time>
      </trkpt>
      <trkpt lat="47.136534964665771" lon="11.452235961332917">
        <ele>1003.75</ele>
        <time>2018-09-17T13:00:47Z</time>
      </trkpt>
      <trkpt lat="47.136663962155581" lon="11.452264962717891">
        <ele>1003.75</ele>
        <time>2018-09-17T13:00:48Z</time>
      </trkpt>
      <trkpt lat="47.137051960453391" lon="11.452349033206701">
        <ele>1005.6799999999999</ele>
        <time>2018-09-17T13:00:51Z</time>
      </trkpt>
      <trkpt lat="47.137165032327175" lon="11.452360013499856">
        <ele>1006.16</ele>
        <time>2018-09-17T13:00:52Z</time>
      </trkpt>
      <trkpt lat="47.137282965704799" lon="11.452320031821728">
        <ele>1006.64</ele>
        <time>2018-09-17T13:00:53Z</time>
      </trkpt>
      <trkpt lat="47.137399977073073" lon="11.452268986031413">
        <ele>1007.12</ele>
        <time>2018-09-17T13:00:54Z</time>
      </trkpt>
      <trkpt lat="47.137514976784587" lon="11.452209977433085">
        <ele>1007.12</ele>
        <time>2018-09-17T13:00:55Z</time>
      </trkpt>
      <trkpt lat="47.138383006677032" lon="11.451666997745633">
        <ele>1007.6</ele>
        <time>2018-09-17T13:01:02Z</time>
      </trkpt>
      <trkpt lat="47.138494988903403" lon="11.451562978327274">
        <ele>1007.6</ele>
        <time>2018-09-17T13:01:03Z</time>
      </trkpt>
      <trkpt lat="47.139397971332073" lon="11.450522029772401">
        <ele>1009.04</ele>
        <time>2018-09-17T13:01:12Z</time>
      </trkpt>
      <trkpt lat="47.13949796743691" lon="11.45045799203217">
        <ele>1009.04</ele>
        <time>2018-09-17T13:01:13Z</time>
      </trkpt>
      <trkpt lat="47.139596035704017" lon="11.450411975383759">
        <ele>1009.04</ele>
        <time>2018-09-17T13:01:14Z</time>
      </trkpt>
      <trkpt lat="47.139707012102008" lon="11.450399989262223">
        <ele>1009.04</ele>
        <time>2018-09-17T13:01:15Z</time>
      </trkpt>
      <trkpt lat="47.139815976843238" lon="11.450389008969069">
        <ele>1009.04</ele>
        <time>2018-09-17T13:01:16Z</time>
      </trkpt>
      <trkpt lat="47.139919996261597" lon="11.450378028675914">
        <ele>1009.04</ele>
        <time>2018-09-17T13:01:17Z</time>
      </trkpt>
      <trkpt lat="47.140024015679955" lon="11.450367970392108">
        <ele>1009.04</ele>
        <time>2018-09-17T13:01:18Z</time>
      </trkpt>
      <trkpt lat="47.140129040926695" lon="11.450356990098953">
        <ele>1009.04</ele>
        <time>2018-09-17T13:01:19Z</time>
      </trkpt>
      <trkpt lat="47.140238005667925" lon="11.450334023684263">
        <ele>1009.52</ele>
        <time>2018-09-17T13:01:20Z</time>
      </trkpt>
      <trkpt lat="47.140349987894297" lon="11.450296975672245">
        <ele>1009.52</ele>
        <time>2018-09-17T13:01:21Z</time>
      </trkpt>
      <trkpt lat="47.140472028404474" lon="11.450255988165736">
        <ele>1010</ele>
        <time>2018-09-17T13:01:22Z</time>
      </trkpt>
      <trkpt lat="47.141339974477887" lon="11.449908977374434">
        <ele>1007.6</ele>
        <time>2018-09-17T13:01:29Z</time>
      </trkpt>
      <trkpt lat="47.141440976411104" lon="11.449848962947726">
        <ele>1007.12</ele>
        <time>2018-09-17T13:01:30Z</time>
      </trkpt>
      <trkpt lat="47.141535021364689" lon="11.449755001813173">
        <ele>1007.12</ele>
        <time>2018-09-17T13:01:31Z</time>
      </trkpt>
      <trkpt lat="47.141604004427791" lon="11.449629021808505">
        <ele>1006.64</ele>
        <time>2018-09-17T13:01:32Z</time>
      </trkpt>
      <trkpt lat="47.141665024682879" lon="11.449479991570115">
        <ele>1006.64</ele>
        <time>2018-09-17T13:01:33Z</time>
      </trkpt>
      <trkpt lat="47.141696037724614" lon="11.449316963553429">
        <ele>1006.16</ele>
        <time>2018-09-17T13:01:34Z</time>
      </trkpt>
      <trkpt lat="47.141725039109588" lon="11.449149996042252">
        <ele>1006.16</ele>
        <time>2018-09-17T13:01:35Z</time>
      </trkpt>
      <trkpt lat="47.141753034666181" lon="11.448985962197185">
        <ele>1005.6799999999999</ele>
        <time>2018-09-17T13:01:36Z</time>
      </trkpt>
      <trkpt lat="47.141867028549314" lon="11.448487993329763">
        <ele>1004.23</ele>
        <time>2018-09-17T13:01:39Z</time>
      </trkpt>
      <trkpt lat="47.141904998570681" lon="11.448333011940122">
        <ele>1003.75</ele>
        <time>2018-09-17T13:01:40Z</time>
      </trkpt>
      <trkpt lat="47.141998037695885" lon="11.44817903637886">
        <ele>1003.27</ele>
        <time>2018-09-17T13:01:41Z</time>
      </trkpt>
      <trkpt lat="47.14216198772192" lon="11.447906037792563">
        <ele>1002.79</ele>
        <time>2018-09-17T13:01:43Z</time>
      </trkpt>
      <trkpt lat="47.142252009361982" lon="11.447774022817612">
        <ele>1002.79</ele>
        <time>2018-09-17T13:01:44Z</time>
      </trkpt>
      <trkpt lat="47.142373966053128" lon="11.44766204059124">
        <ele>1002.79</ele>
        <time>2018-09-17T13:01:45Z</time>
      </trkpt>
      <trkpt lat="47.142516961321235" lon="11.447541005909443">
        <ele>1002.79</ele>
        <time>2018-09-17T13:01:46Z</time>
      </trkpt>
      <trkpt lat="47.142683006823063" lon="11.447438998147845">
        <ele>1002.79</ele>
        <time>2018-09-17T13:01:47Z</time>
      </trkpt>
      <trkpt lat="47.142861038446426" lon="11.447364985942841">
        <ele>1002.3099999999999</ele>
        <time>2018-09-17T13:01:48Z</time>
      </trkpt>
      <trkpt lat="47.143068993464112" lon="11.447313018143177">
        <ele>1002.3099999999999</ele>
        <time>2018-09-17T13:01:49Z</time>
      </trkpt>
      <trkpt lat="47.14327996596694" lon="11.447259960696101">
        <ele>1002.3099999999999</ele>
        <time>2018-09-17T13:01:50Z</time>
      </trkpt>
      <trkpt lat="47.143851025030017" lon="11.447059968486428">
        <ele>1002.3099999999999</ele>
        <time>2018-09-17T13:01:53Z</time>
      </trkpt>
      <trkpt lat="47.144026961177588" lon="11.446971958503127">
        <ele>1002.3099999999999</ele>
        <time>2018-09-17T13:01:54Z</time>
      </trkpt>
      <trkpt lat="47.144199041649699" lon="11.446879003196955">
        <ele>1001.83</ele>
        <time>2018-09-17T13:01:55Z</time>
      </trkpt>
      <trkpt lat="47.144372966140509" lon="11.446815971285105">
        <ele>1001.83</ele>
        <time>2018-09-17T13:01:56Z</time>
      </trkpt>
      <trkpt lat="47.144523002207279" lon="11.446787975728512">
        <ele>1001.35</ele>
        <time>2018-09-17T13:01:57Z</time>
      </trkpt>
      <trkpt lat="47.144694998860359" lon="11.446851007640362">
        <ele>1000.87</ele>
        <time>2018-09-17T13:01:58Z</time>
      </trkpt>
      <trkpt lat="47.144860038533807" lon="11.44691102206707">
        <ele>1000.39</ele>
        <time>2018-09-17T13:01:59Z</time>
      </trkpt>
      <trkpt lat="47.145031029358506" lon="11.446972964331508">
        <ele>999.90999999999997</ele>
        <time>2018-09-17T13:02:00Z</time>
      </trkpt>
      <trkpt lat="47.14557602070272" lon="11.447102967649698">
        <ele>999.42999999999995</ele>
        <time>2018-09-17T13:02:03Z</time>
      </trkpt>
      <trkpt lat="47.145766960456967" lon="11.447093999013305">
        <ele>999.42999999999995</ele>
        <time>2018-09-17T13:02:04Z</time>
      </trkpt>
      <trkpt lat="47.147679040208459" lon="11.446900963783264">
        <ele>997.50999999999999</ele>
        <time>2018-09-17T13:02:13Z</time>
      </trkpt>
      <trkpt lat="47.148466017097235" lon="11.447001965716481">
        <ele>996.53999999999996</ele>
        <time>2018-09-17T13:02:17Z</time>
      </trkpt>
      <trkpt lat="47.1499839797616" lon="11.446709018200636">
        <ele>994.13999999999999</ele>
        <time>2018-09-17T13:02:24Z</time>
      </trkpt>
      <trkpt lat="47.150662997737527" lon="11.446298975497484">
        <ele>993.65999999999997</ele>
        <time>2018-09-17T13:02:28Z</time>
      </trkpt>
      <trkpt lat="47.150818984955549" lon="11.44622496329248">
        <ele>994.13999999999999</ele>
        <time>2018-09-17T13:02:29Z</time>
      </trkpt>
      <trkpt lat="47.152049029245973" lon="11.445912988856435">
        <ele>995.10000000000002</ele>
        <time>2018-09-17T13:02:38Z</time>
      </trkpt>
      <trkpt lat="47.153169019147754" lon="11.445651976391673">
        <ele>992.70000000000005</ele>
        <time>2018-09-17T13:02:45Z</time>
      </trkpt>
      <trkpt lat="47.154298983514309" lon="11.445395993068814">
        <ele>991.74000000000001</ele>
        <time>2018-09-17T13:02:52Z</time>
      </trkpt>
      <trkpt lat="47.155123008415103" lon="11.445129029452801">
        <ele>990.29999999999995</ele>
        <time>2018-09-17T13:02:56Z</time>
      </trkpt>
      <trkpt lat="47.155320988968015" lon="11.44499802030623">
        <ele>989.80999999999995</ele>
        <time>2018-09-17T13:02:57Z</time>
      </trkpt>
      <trkpt lat="47.157103987410665" lon="11.443573012948036">
        <ele>986.92999999999995</ele>
        <time>2018-09-17T13:03:06Z</time>
      </trkpt>
      <trkpt lat="47.157269027084112" lon="11.443376960232854">
        <ele>986.45000000000005</ele>
        <time>2018-09-17T13:03:07Z</time>
      </trkpt>
      <trkpt lat="47.158417012542486" lon="11.441880958154798">
        <ele>985.00999999999999</ele>
        <time>2018-09-17T13:03:14Z</time>
      </trkpt>
      <trkpt lat="47.159880995750427" lon="11.440609004348516">
        <ele>983.57000000000005</ele>
        <time>2018-09-17T13:03:22Z</time>
      </trkpt>
      <trkpt lat="47.161298962309957" lon="11.439620023593307">
        <ele>983.09000000000003</ele>
        <time>2018-09-17T13:03:32Z</time>
      </trkpt>
      <trkpt lat="47.161418991163373" lon="11.439475016668439">
        <ele>983.09000000000003</ele>
        <time>2018-09-17T13:03:33Z</time>
      </trkpt>
      <trkpt lat="47.161536002531648" lon="11.439318023622036">
        <ele>982.60000000000002</ele>
        <time>2018-09-17T13:03:34Z</time>
      </trkpt>
      <trkpt lat="47.161651002243161" lon="11.439159018918872">
        <ele>982.60000000000002</ele>
        <time>2018-09-17T13:03:35Z</time>
      </trkpt>
      <trkpt lat="47.161720991134644" lon="11.438948968425393">
        <ele>982.12</ele>
        <time>2018-09-17T13:03:36Z</time>
      </trkpt>
      <trkpt lat="47.161774970591068" lon="11.438785018399358">
        <ele>982.12</ele>
        <time>2018-09-17T13:03:37Z</time>
      </trkpt>
      <trkpt lat="47.161800032481551" lon="11.43851101398468">
        <ele>981.63999999999999</ele>
        <time>2018-09-17T13:03:38Z</time>
      </trkpt>
      <trkpt lat="47.161821993067861" lon="11.438271962106228">
        <ele>981.15999999999997</ele>
        <time>2018-09-17T13:03:39Z</time>
      </trkpt>
      <trkpt lat="47.161844037473202" lon="11.438033999875188">
        <ele>981.15999999999997</ele>
        <time>2018-09-17T13:03:40Z</time>
      </trkpt>
      <trkpt lat="47.161865998059511" lon="11.437796959653497">
        <ele>980.67999999999995</ele>
        <time>2018-09-17T13:03:41Z</time>
      </trkpt>
      <trkpt lat="47.161932969465852" lon="11.437125988304615">
        <ele>980.20000000000005</ele>
        <time>2018-09-17T13:03:44Z</time>
      </trkpt>
      <trkpt lat="47.161982003599405" lon="11.436947034671903">
        <ele>980.20000000000005</ele>
        <time>2018-09-17T13:03:45Z</time>
      </trkpt>
      <trkpt lat="47.162060961127281" lon="11.436818959191442">
        <ele>979.72000000000003</ele>
        <time>2018-09-17T13:03:46Z</time>
      </trkpt>
      <trkpt lat="47.162163974717259" lon="11.436731033027172">
        <ele>980.20000000000005</ele>
        <time>2018-09-17T13:03:47Z</time>
      </trkpt>
      <trkpt lat="47.162289032712579" lon="11.436660960316658">
        <ele>980.20000000000005</ele>
        <time>2018-09-17T13:03:48Z</time>
      </trkpt>
      <trkpt lat="47.162425993010402" lon="11.436660038307309">
        <ele>980.20000000000005</ele>
        <time>2018-09-17T13:03:49Z</time>
      </trkpt>
      <trkpt lat="47.162559013813734" lon="11.436693985015154">
        <ele>980.20000000000005</ele>
        <time>2018-09-17T13:03:50Z</time>
      </trkpt>
      <trkpt lat="47.162695974111557" lon="11.436756011098623">
        <ele>980.20000000000005</ele>
        <time>2018-09-17T13:03:51Z</time>
      </trkpt>
      <trkpt lat="47.163566015660763" lon="11.43713696859777">
        <ele>980.67999999999995</ele>
        <time>2018-09-17T13:03:57Z</time>
      </trkpt>
      <trkpt lat="47.163699036464095" lon="11.437149960547686">
        <ele>980.20000000000005</ele>
        <time>2018-09-17T13:03:58Z</time>
      </trkpt>
      <trkpt lat="47.163831973448396" lon="11.437109978869557">
        <ele>980.20000000000005</ele>
        <time>2018-09-17T13:03:59Z</time>
      </trkpt>
      <trkpt lat="47.163958037272096" lon="11.437040995806456">
        <ele>980.20000000000005</ele>
        <time>2018-09-17T13:04:00Z</time>
      </trkpt>
      <trkpt lat="47.16407798230648" lon="11.436928007751703">
        <ele>980.67999999999995</ele>
        <time>2018-09-17T13:04:01Z</time>
      </trkpt>
      <trkpt lat="47.164201028645039" lon="11.43679398111999">
        <ele>980.20000000000005</ele>
        <time>2018-09-17T13:04:02Z</time>
      </trkpt>
      <trkpt lat="47.165636010468006" lon="11.435196977108717">
        <ele>980.67999999999995</ele>
        <time>2018-09-17T13:04:12Z</time>
      </trkpt>
      <trkpt lat="47.167093036696315" lon="11.433565020561218">
        <ele>980.20000000000005</ele>
        <time>2018-09-17T13:04:20Z</time>
      </trkpt>
      <trkpt lat="47.169875996187329" lon="11.430487018078566">
        <ele>978.27999999999997</ele>
        <time>2018-09-17T13:04:34Z</time>
      </trkpt>
      <trkpt lat="47.172357961535454" lon="11.427640020847321">
        <ele>978.27999999999997</ele>
        <time>2018-09-17T13:04:47Z</time>
      </trkpt>
      <trkpt lat="47.173012001439929" lon="11.426684986799955">
        <ele>976.84000000000003</ele>
        <time>2018-09-17T13:04:51Z</time>
      </trkpt>
      <trkpt lat="47.17430398799479" lon="11.425312031060457">
        <ele>976.36000000000001</ele>
        <time>2018-09-17T13:04:58Z</time>
      </trkpt>
      <trkpt lat="47.174722999334335" lon="11.424806015565991">
        <ele>975.88</ele>
        <time>2018-09-17T13:05:01Z</time>
      </trkpt>
      <trkpt lat="47.174833975732327" lon="11.424595965072513">
        <ele>974.90999999999997</ele>
        <time>2018-09-17T13:05:02Z</time>
      </trkpt>
      <trkpt lat="47.174909999594092" lon="11.424355991184711">
        <ele>973.95000000000005</ele>
        <time>2018-09-17T13:05:03Z</time>
      </trkpt>
      <trkpt lat="47.174976971000433" lon="11.424105959013104">
        <ele>973.95000000000005</ele>
        <time>2018-09-17T13:05:04Z</time>
      </trkpt>
      <trkpt lat="47.175011001527309" lon="11.42383798956871">
        <ele>973.47000000000003</ele>
        <time>2018-09-17T13:05:05Z</time>
      </trkpt>
      <trkpt lat="47.175037991255522" lon="11.423571025952697">
        <ele>972.99000000000001</ele>
        <time>2018-09-17T13:05:06Z</time>
      </trkpt>
      <trkpt lat="47.175046959891915" lon="11.423290986567736">
        <ele>972.50999999999999</ele>
        <time>2018-09-17T13:05:07Z</time>
      </trkpt>
      <trkpt lat="47.175056012347341" lon="11.423008013516665">
        <ele>972.02999999999997</ele>
        <time>2018-09-17T13:05:08Z</time>
      </trkpt>
      <trkpt lat="47.175090964883566" lon="11.422740966081619">
        <ele>971.54999999999995</ele>
        <time>2018-09-17T13:05:09Z</time>
      </trkpt>
      <trkpt lat="47.175132958218455" lon="11.422475008293986">
        <ele>971.07000000000005</ele>
        <time>2018-09-17T13:05:10Z</time>
      </trkpt>
      <trkpt lat="47.175228009000421" lon="11.422221036627889">
        <ele>970.59000000000003</ele>
        <time>2018-09-17T13:05:11Z</time>
      </trkpt>
      <trkpt lat="47.175344014540315" lon="11.421960024163127">
        <ele>970.59000000000003</ele>
        <time>2018-09-17T13:05:12Z</time>
      </trkpt>
      <trkpt lat="47.175448033958673" lon="11.421661963686347">
        <ele>970.59000000000003</ele>
        <time>2018-09-17T13:05:13Z</time>
      </trkpt>
      <trkpt lat="47.17608698643744" lon="11.419447967782617">
        <ele>971.54999999999995</ele>
        <time>2018-09-17T13:05:20Z</time>
      </trkpt>
      <trkpt lat="47.176199974492192" lon="11.419270019978285">
        <ele>971.54999999999995</ele>
        <time>2018-09-17T13:05:21Z</time>
      </trkpt>
      <trkpt lat="47.176292007789016" lon="11.419123001396656">
        <ele>972.02999999999997</ele>
        <time>2018-09-17T13:05:22Z</time>
      </trkpt>
      <trkpt lat="47.176401978358626" lon="11.419040020555258">
        <ele>972.02999999999997</ele>
        <time>2018-09-17T13:05:23Z</time>
      </trkpt>
      <trkpt lat="47.176524018868804" lon="11.418955028057098">
        <ele>972.02999999999997</ele>
        <time>2018-09-17T13:05:24Z</time>
      </trkpt>
      <trkpt lat="47.176651004701853" lon="11.418869029730558">
        <ele>972.02999999999997</ele>
        <time>2018-09-17T13:05:25Z</time>
      </trkpt>
      <trkpt lat="47.177695976570249" lon="11.41825002618134">
        <ele>972.02999999999997</ele>
        <time>2018-09-17T13:05:31Z</time>
      </trkpt>
      <trkpt lat="47.179146967828274" lon="11.41739297658205">
        <ele>972.99000000000001</ele>
        <time>2018-09-17T13:05:40Z</time>
      </trkpt>
      <trkpt lat="47.179704029113054" lon="11.41698201186955">
        <ele>973.47000000000003</ele>
        <time>2018-09-17T13:05:44Z</time>
      </trkpt>
      <trkpt lat="47.180869029834867" lon="11.415940979495645">
        <ele>970.59000000000003</ele>
        <time>2018-09-17T13:05:52Z</time>
      </trkpt>
      <trkpt lat="47.181233977898955" lon="11.415545018389821">
        <ele>968.17999999999995</ele>
        <time>2018-09-17T13:05:55Z</time>
      </trkpt>
      <trkpt lat="47.181321987882257" lon="11.415380984544754">
        <ele>966.74000000000001</ele>
        <time>2018-09-17T13:05:56Z</time>
      </trkpt>
      <trkpt lat="47.181391976773739" lon="11.415180992335081">
        <ele>965.77999999999997</ele>
        <time>2018-09-17T13:05:57Z</time>
      </trkpt>
      <trkpt lat="47.181459031999111" lon="11.414973037317395">
        <ele>964.82000000000005</ele>
        <time>2018-09-17T13:05:58Z</time>
      </trkpt>
      <trkpt lat="47.181506976485252" lon="11.414733985438943">
        <ele>964.34000000000003</ele>
        <time>2018-09-17T13:05:59Z</time>
      </trkpt>
      <trkpt lat="47.181556010618806" lon="11.414489988237619">
        <ele>962.89999999999998</ele>
        <time>2018-09-17T13:06:00Z</time>
      </trkpt>
      <trkpt lat="47.181630022823811" lon="11.414244985207915">
        <ele>961.94000000000005</ele>
        <time>2018-09-17T13:06:01Z</time>
      </trkpt>
      <trkpt lat="47.181719960644841" lon="11.414027977734804">
        <ele>961.46000000000004</ele>
        <time>2018-09-17T13:06:02Z</time>
      </trkpt>
      <trkpt lat="47.181824985891581" lon="11.413832008838654">
        <ele>960.49000000000001</ele>
        <time>2018-09-17T13:06:03Z</time>
      </trkpt>
      <trkpt lat="47.181933028623462" lon="11.413636961951852">
        <ele>960.00999999999999</ele>
        <time>2018-09-17T13:06:04Z</time>
      </trkpt>
      <trkpt lat="47.182064959779382" lon="11.413457002490759">
        <ele>959.04999999999995</ele>
        <time>2018-09-17T13:06:05Z</time>
      </trkpt>
      <trkpt lat="47.182203009724617" lon="11.413274025544524">
        <ele>958.57000000000005</ele>
        <time>2018-09-17T13:06:06Z</time>
      </trkpt>
      <trkpt lat="47.183523997664452" lon="11.411551041528583">
        <ele>951.36000000000001</ele>
        <time>2018-09-17T13:06:15Z</time>
      </trkpt>
      <trkpt lat="47.183675961568952" lon="11.41143998131156">
        <ele>950.39999999999998</ele>
        <time>2018-09-17T13:06:16Z</time>
      </trkpt>
      <trkpt lat="47.183828009292483" lon="11.411349959671497">
        <ele>949.44000000000005</ele>
        <time>2018-09-17T13:06:17Z</time>
      </trkpt>
      <trkpt lat="47.183973016217351" lon="11.411264967173338">
        <ele>948.48000000000002</ele>
        <time>2018-09-17T13:06:18Z</time>
      </trkpt>
      <trkpt lat="47.184112994000316" lon="11.411192966625094">
        <ele>947.51999999999998</ele>
        <time>2018-09-17T13:06:19Z</time>
      </trkpt>
      <trkpt lat="47.18424903228879" lon="11.411129012703896">
        <ele>946.55999999999995</ele>
        <time>2018-09-17T13:06:20Z</time>
      </trkpt>
      <trkpt lat="47.18472202308476" lon="11.410937989130616">
        <ele>943.66999999999996</ele>
        <time>2018-09-17T13:06:24Z</time>
      </trkpt>
      <trkpt lat="47.184824030846357" lon="11.41094796359539">
        <ele>943.19000000000005</ele>
        <time>2018-09-17T13:06:25Z</time>
      </trkpt>
      <trkpt lat="47.184918997809291" lon="11.41098802909255">
        <ele>942.71000000000004</ele>
        <time>2018-09-17T13:06:26Z</time>
      </trkpt>
      <trkpt lat="47.184999966993928" lon="11.41107402741909">
        <ele>941.75</ele>
        <time>2018-09-17T13:06:27Z</time>
      </trkpt>
      <trkpt lat="47.185070961713791" lon="11.411191960796714">
        <ele>941.26999999999998</ele>
        <time>2018-09-17T13:06:28Z</time>
      </trkpt>
      <trkpt lat="47.185143968090415" lon="11.411314001306891">
        <ele>940.78999999999996</ele>
        <time>2018-09-17T13:06:29Z</time>
      </trkpt>
      <trkpt lat="47.185230972245336" lon="11.411407962441444">
        <ele>940.30999999999995</ele>
        <time>2018-09-17T13:06:30Z</time>
      </trkpt>
      <trkpt lat="47.185331974178553" lon="11.411462025716901">
        <ele>940.30999999999995</ele>
        <time>2018-09-17T13:06:31Z</time>
      </trkpt>
      <trkpt lat="47.185429958626628" lon="11.411513993516564">
        <ele>939.83000000000004</ele>
        <time>2018-09-17T13:06:32Z</time>
      </trkpt>
      <trkpt lat="47.185520986095071" lon="11.411509970203042">
        <ele>939.35000000000002</ele>
        <time>2018-09-17T13:06:33Z</time>
      </trkpt>
      <trkpt lat="47.185616958886385" lon="11.411469988524914">
        <ele>938.38</ele>
        <time>2018-09-17T13:06:34Z</time>
      </trkpt>
      <trkpt lat="47.185721984133124" lon="11.411425983533263">
        <ele>937.89999999999998</ele>
        <time>2018-09-17T13:06:35Z</time>
      </trkpt>
      <trkpt lat="47.185809994116426" lon="11.411329004913568">
        <ele>937.41999999999996</ele>
        <time>2018-09-17T13:06:36Z</time>
      </trkpt>
      <trkpt lat="47.18590697273612" lon="11.411222973838449">
        <ele>936.94000000000005</ele>
        <time>2018-09-17T13:06:37Z</time>
      </trkpt>
      <trkpt lat="47.186005041003227" lon="11.411135969683528">
        <ele>936.46000000000004</ele>
        <time>2018-09-17T13:06:38Z</time>
      </trkpt>
      <trkpt lat="47.186102019622922" lon="11.411058017984033">
        <ele>935.98000000000002</ele>
        <time>2018-09-17T13:06:39Z</time>
      </trkpt>
      <trkpt lat="47.186187012121081" lon="11.411027004942298">
        <ele>935.5</ele>
        <time>2018-09-17T13:06:40Z</time>
      </trkpt>
      <trkpt lat="47.186277033761144" lon="11.411049971356988">
        <ele>935.5</ele>
        <time>2018-09-17T13:06:41Z</time>
      </trkpt>
      <trkpt lat="47.186408964917064" lon="11.411082996055484">
        <ele>935.01999999999998</ele>
        <time>2018-09-17T13:06:42Z</time>
      </trkpt>
      <trkpt lat="47.186453975737095" lon="11.411166982725263">
        <ele>934.53999999999996</ele>
        <time>2018-09-17T13:06:43Z</time>
      </trkpt>
      <trkpt lat="47.186537040397525" lon="11.411319030448794">
        <ele>934.05999999999995</ele>
        <time>2018-09-17T13:06:44Z</time>
      </trkpt>
      <trkpt lat="47.186566041782498" lon="11.411438975483179">
        <ele>933.58000000000004</ele>
        <time>2018-09-17T13:06:45Z</time>
      </trkpt>
      <trkpt lat="47.186666037887335" lon="11.411854969337583">
        <ele>931.64999999999998</ele>
        <time>2018-09-17T13:06:49Z</time>
      </trkpt>
      <trkpt lat="47.186694033443928" lon="11.411930993199348">
        <ele>931.16999999999996</ele>
        <time>2018-09-17T13:06:50Z</time>
      </trkpt>
      <trkpt lat="47.186725968495011" lon="11.41202000901103">
        <ele>930.69000000000005</ele>
        <time>2018-09-17T13:06:51Z</time>
      </trkpt>
      <trkpt lat="47.186773996800184" lon="11.412112964317203">
        <ele>930.21000000000004</ele>
        <time>2018-09-17T13:06:52Z</time>
      </trkpt>
      <trkpt lat="47.186851026490331" lon="11.412189994007349">
        <ele>929.25</ele>
        <time>2018-09-17T13:06:53Z</time>
      </trkpt>
      <trkpt lat="47.186954040080309" lon="11.412259982898831">
        <ele>928.76999999999998</ele>
        <time>2018-09-17T13:06:54Z</time>
      </trkpt>
      <trkpt lat="47.187073985114694" lon="11.412327038124204">
        <ele>927.80999999999995</ele>
        <time>2018-09-17T13:06:55Z</time>
      </trkpt>
      <trkpt lat="47.187310019508004" lon="11.412456035614014">
        <ele>926.85000000000002</ele>
        <time>2018-09-17T13:06:57Z</time>
      </trkpt>
      <trkpt lat="47.187394006177783" lon="11.412557037547231">
        <ele>925.88999999999999</ele>
        <time>2018-09-17T13:06:58Z</time>
      </trkpt>
      <trkpt lat="47.187445973977447" lon="11.4126639906317">
        <ele>925.40999999999997</ele>
        <time>2018-09-17T13:06:59Z</time>
      </trkpt>
      <trkpt lat="47.187487967312336" lon="11.412781001999974">
        <ele>924.92999999999995</ele>
        <time>2018-09-17T13:07:00Z</time>
      </trkpt>
      <trkpt lat="47.187484027817845" lon="11.412913016974926">
        <ele>924.45000000000005</ele>
        <time>2018-09-17T13:07:01Z</time>
      </trkpt>
      <trkpt lat="47.187456032261252" lon="11.413048971444368">
        <ele>923.96000000000004</ele>
        <time>2018-09-17T13:07:02Z</time>
      </trkpt>
      <trkpt lat="47.187427030876279" lon="11.413190038874745">
        <ele>923.48000000000002</ele>
        <time>2018-09-17T13:07:03Z</time>
      </trkpt>
      <trkpt lat="47.187397023662925" lon="11.413334961980581">
        <ele>923</ele>
        <time>2018-09-17T13:07:04Z</time>
      </trkpt>
      <trkpt lat="47.18736601062119" lon="11.413484998047352">
        <ele>922.51999999999998</ele>
        <time>2018-09-17T13:07:05Z</time>
      </trkpt>
      <trkpt lat="47.187359975650907" lon="11.413639979436994">
        <ele>922.51999999999998</ele>
        <time>2018-09-17T13:07:06Z</time>
      </trkpt>
      <trkpt lat="47.187373973429203" lon="11.413821028545499">
        <ele>922.03999999999996</ele>
        <time>2018-09-17T13:07:07Z</time>
      </trkpt>
      <trkpt lat="47.187440022826195" lon="11.413972992449999">
        <ele>921.55999999999995</ele>
        <time>2018-09-17T13:07:08Z</time>
      </trkpt>
      <trkpt lat="47.187513029202819" lon="11.414087992161512">
        <ele>921.08000000000004</ele>
        <time>2018-09-17T13:07:09Z</time>
      </trkpt>
      <trkpt lat="47.187616964802146" lon="11.414163010194898">
        <ele>920.60000000000002</ele>
        <time>2018-09-17T13:07:10Z</time>
      </trkpt>
      <trkpt lat="47.187728025019169" lon="11.414242973551154">
        <ele>920.12</ele>
        <time>2018-09-17T13:07:11Z</time>
      </trkpt>
      <trkpt lat="47.187841013073921" lon="11.414324026554823">
        <ele>919.15999999999997</ele>
        <time>2018-09-17T13:07:12Z</time>
      </trkpt>
      <trkpt lat="47.187951989471912" lon="11.41440499573946">
        <ele>918.20000000000005</ele>
        <time>2018-09-17T13:07:13Z</time>
      </trkpt>
      <trkpt lat="47.188044022768736" lon="11.414528964087367">
        <ele>917.24000000000001</ele>
        <time>2018-09-17T13:07:14Z</time>
      </trkpt>
      <trkpt lat="47.188104037195444" lon="11.414709007367492">
        <ele>916.75</ele>
        <time>2018-09-17T13:07:15Z</time>
      </trkpt>
      <trkpt lat="47.188125997781754" lon="11.414884021505713">
        <ele>916.26999999999998</ele>
        <time>2018-09-17T13:07:16Z</time>
      </trkpt>
      <trkpt lat="47.188150975853205" lon="11.415074039250612">
        <ele>915.30999999999995</ele>
        <time>2018-09-17T13:07:17Z</time>
      </trkpt>
      <trkpt lat="47.188175031915307" lon="11.415260033681989">
        <ele>914.83000000000004</ele>
        <time>2018-09-17T13:07:18Z</time>
      </trkpt>
      <trkpt lat="47.188223982229829" lon="11.415434964001179">
        <ele>913.87</ele>
        <time>2018-09-17T13:07:19Z</time>
      </trkpt>
      <trkpt lat="47.188314003869891" lon="11.415593968704343">
        <ele>912.90999999999997</ele>
        <time>2018-09-17T13:07:20Z</time>
      </trkpt>
      <trkpt lat="47.188659003004432" lon="11.416207021102309">
        <ele>910.50999999999999</ele>
        <time>2018-09-17T13:07:24Z</time>
      </trkpt>
      <trkpt lat="47.18876201659441" lon="11.416241973638535">
        <ele>910.02999999999997</ele>
        <time>2018-09-17T13:07:25Z</time>
      </trkpt>
      <trkpt lat="47.188865030184388" lon="11.41627399250865">
        <ele>909.53999999999996</ele>
        <time>2018-09-17T13:07:26Z</time>
      </trkpt>
      <trkpt lat="47.188967037945986" lon="11.416270975023508">
        <ele>909.05999999999995</ele>
        <time>2018-09-17T13:07:27Z</time>
      </trkpt>
      <trkpt lat="47.189048007130623" lon="11.416190005838871">
        <ele>908.10000000000002</ele>
        <time>2018-09-17T13:07:28Z</time>
      </trkpt>
      <trkpt lat="47.189096035435796" lon="11.416046004742384">
        <ele>907.13999999999999</ele>
        <time>2018-09-17T13:07:29Z</time>
      </trkpt>
      <trkpt lat="47.189134005457163" lon="11.415891023352742">
        <ele>906.17999999999995</ele>
        <time>2018-09-17T13:07:30Z</time>
      </trkpt>
      <trkpt lat="47.189170969650149" lon="11.41571600921452">
        <ele>905.70000000000005</ele>
        <time>2018-09-17T13:07:31Z</time>
      </trkpt>
      <trkpt lat="47.189210029318929" lon="11.415528003126383">
        <ele>904.74000000000001</ele>
        <time>2018-09-17T13:07:32Z</time>
      </trkpt>
      <trkpt lat="47.189294015988708" lon="11.415357012301683">
        <ele>903.77999999999997</ele>
        <time>2018-09-17T13:07:33Z</time>
      </trkpt>
      <trkpt lat="47.189395017921925" lon="11.415189038962126">
        <ele>902.82000000000005</ele>
        <time>2018-09-17T13:07:34Z</time>
      </trkpt>
      <trkpt lat="47.189490990713239" lon="11.415029028430581">
        <ele>901.85000000000002</ele>
        <time>2018-09-17T13:07:35Z</time>
      </trkpt>
      <trkpt lat="47.189592998474836" lon="11.414913022890687">
        <ele>901.37</ele>
        <time>2018-09-17T13:07:36Z</time>
      </trkpt>
      <trkpt lat="47.189711015671492" lon="11.414841022342443">
        <ele>900.40999999999997</ele>
        <time>2018-09-17T13:07:37Z</time>
      </trkpt>
      <trkpt lat="47.189819980412722" lon="11.414773967117071">
        <ele>899.92999999999995</ele>
        <time>2018-09-17T13:07:38Z</time>
      </trkpt>
      <trkpt lat="47.189916037023067" lon="11.414649998769164">
        <ele>898.97000000000003</ele>
        <time>2018-09-17T13:07:39Z</time>
      </trkpt>
      <trkpt lat="47.189991977065802" lon="11.414508009329438">
        <ele>898.49000000000001</ele>
        <time>2018-09-17T13:07:40Z</time>
      </trkpt>
      <trkpt lat="47.190043022856116" lon="11.414335006847978">
        <ele>898.00999999999999</ele>
        <time>2018-09-17T13:07:41Z</time>
      </trkpt>
      <trkpt lat="47.190077975392342" lon="11.414171978831291">
        <ele>897.52999999999997</ele>
        <time>2018-09-17T13:07:42Z</time>
      </trkpt>
      <trkpt lat="47.190077975392342" lon="11.414009034633636">
        <ele>896.57000000000005</ele>
        <time>2018-09-17T13:07:43Z</time>
      </trkpt>
      <trkpt lat="47.190019972622395" lon="11.413872996345162">
        <ele>896.09000000000003</ele>
        <time>2018-09-17T13:07:44Z</time>
      </trkpt>
      <trkpt lat="47.189954007044435" lon="11.413747016340494">
        <ele>896.09000000000003</ele>
        <time>2018-09-17T13:07:45Z</time>
      </trkpt>
      <trkpt lat="47.189851999282837" lon="11.413634028285742">
        <ele>895.61000000000001</ele>
        <time>2018-09-17T13:07:46Z</time>
      </trkpt>
      <trkpt lat="47.189736999571323" lon="11.413506958633661">
        <ele>895.12</ele>
        <time>2018-09-17T13:07:47Z</time>
      </trkpt>
      <trkpt lat="47.189243976026773" lon="11.412960039451718">
        <ele>894.15999999999997</ele>
        <time>2018-09-17T13:07:51Z</time>
      </trkpt>
      <trkpt lat="47.189160995185375" lon="11.412796005606651">
        <ele>893.67999999999995</ele>
        <time>2018-09-17T13:07:52Z</time>
      </trkpt>
      <trkpt lat="47.189125958830118" lon="11.412595007568598">
        <ele>893.20000000000005</ele>
        <time>2018-09-17T13:07:53Z</time>
      </trkpt>
      <trkpt lat="47.189091006293893" lon="11.412391997873783">
        <ele>892.72000000000003</ele>
        <time>2018-09-17T13:07:54Z</time>
      </trkpt>
      <trkpt lat="47.189112966880202" lon="11.412193011492491">
        <ele>892.24000000000001</ele>
        <time>2018-09-17T13:07:55Z</time>
      </trkpt>
      <trkpt lat="47.189132999628782" lon="11.412011962383986">
        <ele>892.24000000000001</ele>
        <time>2018-09-17T13:07:56Z</time>
      </trkpt>
      <trkpt lat="47.189217992126942" lon="11.411888999864459">
        <ele>891.75999999999999</ele>
        <time>2018-09-17T13:07:57Z</time>
      </trkpt>
      <trkpt lat="47.189307007938623" lon="11.411768971011043">
        <ele>891.75999999999999</ele>
        <time>2018-09-17T13:07:58Z</time>
      </trkpt>
      <trkpt lat="47.189439022913575" lon="11.41171800903976">
        <ele>891.75999999999999</ele>
        <time>2018-09-17T13:07:59Z</time>
      </trkpt>
      <trkpt lat="47.189589980989695" lon="11.411661012098193">
        <ele>892.24000000000001</ele>
        <time>2018-09-17T13:08:00Z</time>
      </trkpt>
      <trkpt lat="47.190358014777303" lon="11.411364963278174">
        <ele>891.75999999999999</ele>
        <time>2018-09-17T13:08:05Z</time>
      </trkpt>
      <trkpt lat="47.190452981740236" lon="11.411221968010068">
        <ele>890.79999999999995</ele>
        <time>2018-09-17T13:08:06Z</time>
      </trkpt>
      <trkpt lat="47.190486006438732" lon="11.411104034632444">
        <ele>889.84000000000003</ele>
        <time>2018-09-17T13:08:07Z</time>
      </trkpt>
      <trkpt lat="47.190469997003675" lon="11.410933965817094">
        <ele>888.88</ele>
        <time>2018-09-17T13:08:08Z</time>
      </trkpt>
      <trkpt lat="47.190437978133559" lon="11.410769009962678">
        <ele>887.90999999999997</ele>
        <time>2018-09-17T13:08:09Z</time>
      </trkpt>
      <trkpt lat="47.190387016162276" lon="11.410578992217779">
        <ele>887.42999999999995</ele>
        <time>2018-09-17T13:08:10Z</time>
      </trkpt>
      <trkpt lat="47.190228011459112" lon="11.409968035295606">
        <ele>885.99000000000001</ele>
        <time>2018-09-17T13:08:13Z</time>
      </trkpt>
      <trkpt lat="47.190228011459112" lon="11.409783968701959">
        <ele>885.50999999999999</ele>
        <time>2018-09-17T13:08:14Z</time>
      </trkpt>
      <trkpt lat="47.190284002572298" lon="11.409603003412485">
        <ele>885.02999999999997</ele>
        <time>2018-09-17T13:08:15Z</time>
      </trkpt>
      <trkpt lat="47.190380981191993" lon="11.409503007307649">
        <ele>883.59000000000003</ele>
        <time>2018-09-17T13:08:16Z</time>
      </trkpt>
      <trkpt lat="47.190463962033391" lon="11.409431006759405">
        <ele>882.63</ele>
        <time>2018-09-17T13:08:17Z</time>
      </trkpt>
      <trkpt lat="47.190606035292149" lon="11.409397982060909">
        <ele>881.19000000000005</ele>
        <time>2018-09-17T13:08:18Z</time>
      </trkpt>
      <trkpt lat="47.190738972276449" lon="11.409367974847555">
        <ele>880.22000000000003</ele>
        <time>2018-09-17T13:08:19Z</time>
      </trkpt>
      <trkpt lat="47.190875010564923" lon="11.40933696180582">
        <ele>878.77999999999997</ele>
        <time>2018-09-17T13:08:20Z</time>
      </trkpt>
      <trkpt lat="47.191004008054733" lon="11.409289017319679">
        <ele>877.82000000000005</ele>
        <time>2018-09-17T13:08:21Z</time>
      </trkpt>
      <trkpt lat="47.191118001937866" lon="11.409233026206493">
        <ele>876.86000000000001</ele>
        <time>2018-09-17T13:08:22Z</time>
      </trkpt>
      <trkpt lat="47.191208023577929" lon="11.409155996516347">
        <ele>875.41999999999996</ele>
        <time>2018-09-17T13:08:23Z</time>
      </trkpt>
      <trkpt lat="47.19125596806407" lon="11.409021969884634">
        <ele>874.94000000000005</ele>
        <time>2018-09-17T13:08:24Z</time>
      </trkpt>
      <trkpt lat="47.191283041611314" lon="11.408881992101669">
        <ele>873.98000000000002</ele>
        <time>2018-09-17T13:08:25Z</time>
      </trkpt>
      <trkpt lat="47.191292010247707" lon="11.408705972135067">
        <ele>873.5</ele>
        <time>2018-09-17T13:08:26Z</time>
      </trkpt>
      <trkpt lat="47.191301984712481" lon="11.408514026552439">
        <ele>872.52999999999997</ele>
        <time>2018-09-17T13:08:27Z</time>
      </trkpt>
      <trkpt lat="47.191311959177256" lon="11.408316968008876">
        <ele>872.04999999999995</ele>
        <time>2018-09-17T13:08:28Z</time>
      </trkpt>
      <trkpt lat="47.191322017461061" lon="11.408129967749119">
        <ele>871.57000000000005</ele>
        <time>2018-09-17T13:08:29Z</time>
      </trkpt>
      <trkpt lat="47.191377002745867" lon="11.407994013279676">
        <ele>871.57000000000005</ele>
        <time>2018-09-17T13:08:30Z</time>
      </trkpt>
      <trkpt lat="47.191436011344194" lon="11.407892005518079">
        <ele>872.04999999999995</ele>
        <time>2018-09-17T13:08:31Z</time>
      </trkpt>
      <trkpt lat="47.191541958600283" lon="11.407783962786198">
        <ele>873.00999999999999</ele>
        <time>2018-09-17T13:08:32Z</time>
      </trkpt>
      <trkpt lat="47.19168403185904" lon="11.407737024128437">
        <ele>873.5</ele>
        <time>2018-09-17T13:08:33Z</time>
      </trkpt>
      <trkpt lat="47.191844964399934" lon="11.407708022743464">
        <ele>874.46000000000004</ele>
        <time>2018-09-17T13:08:34Z</time>
      </trkpt>
      <trkpt lat="47.192470002919436" lon="11.40763602219522">
        <ele>875.89999999999998</ele>
        <time>2018-09-17T13:08:38Z</time>
      </trkpt>
      <trkpt lat="47.192591037601233" lon="11.407554969191551">
        <ele>875.41999999999996</ele>
        <time>2018-09-17T13:08:39Z</time>
      </trkpt>
      <trkpt lat="47.192678041756153" lon="11.40742102637887">
        <ele>874.94000000000005</ele>
        <time>2018-09-17T13:08:40Z</time>
      </trkpt>
      <trkpt lat="47.192765967920423" lon="11.407263027504086">
        <ele>874.46000000000004</ele>
        <time>2018-09-17T13:08:41Z</time>
      </trkpt>
      <trkpt lat="47.192856995388865" lon="11.4070999994874">
        <ele>873.98000000000002</ele>
        <time>2018-09-17T13:08:42Z</time>
      </trkpt>
      <trkpt lat="47.19295104034245" lon="11.406933031976223">
        <ele>873.5</ele>
        <time>2018-09-17T13:08:43Z</time>
      </trkpt>
      <trkpt lat="47.193065034225583" lon="11.406773021444678">
        <ele>873.00999999999999</ele>
        <time>2018-09-17T13:08:44Z</time>
      </trkpt>
      <trkpt lat="47.193192020058632" lon="11.406667996197939">
        <ele>872.52999999999997</ele>
        <time>2018-09-17T13:08:45Z</time>
      </trkpt>
      <trkpt lat="47.193309031426907" lon="11.406570011749864">
        <ele>872.04999999999995</ele>
        <time>2018-09-17T13:08:46Z</time>
      </trkpt>
      <trkpt lat="47.19340399838984" lon="11.406490970402956">
        <ele>871.57000000000005</ele>
        <time>2018-09-17T13:08:47Z</time>
      </trkpt>
      <trkpt lat="47.193452026695013" lon="11.406335989013314">
        <ele>870.61000000000001</ele>
        <time>2018-09-17T13:08:48Z</time>
      </trkpt>
      <trkpt lat="47.193511035293341" lon="11.406147982925177">
        <ele>869.16999999999996</ele>
        <time>2018-09-17T13:08:49Z</time>
      </trkpt>
      <trkpt lat="47.193526960909367" lon="11.405987972393632">
        <ele>868.21000000000004</ele>
        <time>2018-09-17T13:08:50Z</time>
      </trkpt>
      <trkpt lat="47.193547999486327" lon="11.40576702542603">
        <ele>866.76999999999998</ele>
        <time>2018-09-17T13:08:51Z</time>
      </trkpt>
      <trkpt lat="47.193631986156106" lon="11.405330998823047">
        <ele>864.84000000000003</ele>
        <time>2018-09-17T13:08:53Z</time>
      </trkpt>
      <trkpt lat="47.193698035553098" lon="11.405154978856444">
        <ele>863.88</ele>
        <time>2018-09-17T13:08:54Z</time>
      </trkpt>
      <trkpt lat="47.19379099085927" lon="11.405030004680157">
        <ele>862.91999999999996</ele>
        <time>2018-09-17T13:08:55Z</time>
      </trkpt>
      <trkpt lat="47.193891992792487" lon="11.404915004968643">
        <ele>861</ele>
        <time>2018-09-17T13:08:56Z</time>
      </trkpt>
      <trkpt lat="47.194024007767439" lon="11.404835963621736">
        <ele>859.55999999999995</ele>
        <time>2018-09-17T13:08:57Z</time>
      </trkpt>
      <trkpt lat="47.194153005257249" lon="11.40475801192224">
        <ele>858.11000000000001</ele>
        <time>2018-09-17T13:08:58Z</time>
      </trkpt>
      <trkpt lat="47.194286026060581" lon="11.404677964746952">
        <ele>856.66999999999996</ele>
        <time>2018-09-17T13:08:59Z</time>
      </trkpt>
      <trkpt lat="47.194401025772095" lon="11.404501022771001">
        <ele>855.23000000000002</ele>
        <time>2018-09-17T13:09:00Z</time>
      </trkpt>
      <trkpt lat="47.194502027705312" lon="11.40432701446116">
        <ele>853.78999999999996</ele>
        <time>2018-09-17T13:09:01Z</time>
      </trkpt>
      <trkpt lat="47.194685004651546" lon="11.404011016711593">
        <ele>851.38</ele>
        <time>2018-09-17T13:09:03Z</time>
      </trkpt>
      <trkpt lat="47.194764968007803" lon="11.403872966766357">
        <ele>850.41999999999996</ele>
        <time>2018-09-17T13:09:04Z</time>
      </trkpt>
      <trkpt lat="47.19477703794837" lon="11.403670962899923">
        <ele>849.46000000000004</ele>
        <time>2018-09-17T13:09:05Z</time>
      </trkpt>
      <trkpt lat="47.194735966622829" lon="11.403523022308946">
        <ele>848.5</ele>
        <time>2018-09-17T13:09:06Z</time>
      </trkpt>
      <trkpt lat="47.194670001044869" lon="11.403398970142007">
        <ele>847.53999999999996</ele>
        <time>2018-09-17T13:09:07Z</time>
      </trkpt>
      <trkpt lat="47.194566987454891" lon="11.403285982087255">
        <ele>846.58000000000004</ele>
        <time>2018-09-17T13:09:08Z</time>
      </trkpt>
      <trkpt lat="47.194452993571758" lon="11.403161007910967">
        <ele>846.10000000000002</ele>
        <time>2018-09-17T13:09:09Z</time>
      </trkpt>
      <trkpt lat="47.193507011979818" lon="11.402122993022203">
        <ele>840.33000000000004</ele>
        <time>2018-09-17T13:09:16Z</time>
      </trkpt>
      <trkpt lat="47.193387988954782" lon="11.401992989704013">
        <ele>839.37</ele>
        <time>2018-09-17T13:09:17Z</time>
      </trkpt>
      <trkpt lat="47.193321017548442" lon="11.401824010536075">
        <ele>838.40999999999997</ele>
        <time>2018-09-17T13:09:18Z</time>
      </trkpt>
      <trkpt lat="47.19327500090003" lon="11.401662994176149">
        <ele>836.96000000000004</ele>
        <time>2018-09-17T13:09:19Z</time>
      </trkpt>
      <trkpt lat="47.193309031426907" lon="11.401500971987844">
        <ele>836</ele>
        <time>2018-09-17T13:09:20Z</time>
      </trkpt>
      <trkpt lat="47.193343983963132" lon="11.401334004476666">
        <ele>835.51999999999998</ele>
        <time>2018-09-17T13:09:21Z</time>
      </trkpt>
      <trkpt lat="47.193387988954782" lon="11.401187991723418">
        <ele>834.55999999999995</ele>
        <time>2018-09-17T13:09:22Z</time>
      </trkpt>
      <trkpt lat="47.19344699755311" lon="11.401040973141789">
        <ele>834.08000000000004</ele>
        <time>2018-09-17T13:09:23Z</time>
      </trkpt>
      <trkpt lat="47.193541964516044" lon="11.400927985087037">
        <ele>833.60000000000002</ele>
        <time>2018-09-17T13:09:24Z</time>
      </trkpt>
      <trkpt lat="47.193640032783151" lon="11.400811979547143">
        <ele>833.12</ele>
        <time>2018-09-17T13:09:25Z</time>
      </trkpt>
      <trkpt lat="47.193754026666284" lon="11.400725981220603">
        <ele>833.12</ele>
        <time>2018-09-17T13:09:26Z</time>
      </trkpt>
      <trkpt lat="47.193883024156094" lon="11.400706032291055">
        <ele>832.63999999999999</ele>
        <time>2018-09-17T13:09:27Z</time>
      </trkpt>
      <trkpt lat="47.194007998332381" lon="11.400731010362506">
        <ele>832.63999999999999</ele>
        <time>2018-09-17T13:09:28Z</time>
      </trkpt>
      <trkpt lat="47.194133978337049" lon="11.400793958455324">
        <ele>832.63999999999999</ele>
        <time>2018-09-17T13:09:29Z</time>
      </trkpt>
      <trkpt lat="47.194261969998479" lon="11.400878028944135">
        <ele>833.12</ele>
        <time>2018-09-17T13:09:30Z</time>
      </trkpt>
      <trkpt lat="47.194388033822179" lon="11.400979030877352">
        <ele>832.63999999999999</ele>
        <time>2018-09-17T13:09:31Z</time>
      </trkpt>
      <trkpt lat="47.194751976057887" lon="11.401272984221578">
        <ele>831.67999999999995</ele>
        <time>2018-09-17T13:09:34Z</time>
      </trkpt>
      <trkpt lat="47.194880973547697" lon="11.401368035003543">
        <ele>831.20000000000005</ele>
        <time>2018-09-17T13:09:35Z</time>
      </trkpt>
      <trkpt lat="47.195017011836171" lon="11.401407010853291">
        <ele>830.72000000000003</ele>
        <time>2018-09-17T13:09:36Z</time>
      </trkpt>
      <trkpt lat="47.195802982896566" lon="11.401633992791176">
        <ele>828.78999999999996</ele>
        <time>2018-09-17T13:09:42Z</time>
      </trkpt>
      <trkpt lat="47.195933992043138" lon="11.401617983356118">
        <ele>828.30999999999995</ele>
        <time>2018-09-17T13:09:43Z</time>
      </trkpt>
      <trkpt lat="47.196060977876186" lon="11.401588981971145">
        <ele>827.83000000000004</ele>
        <time>2018-09-17T13:09:44Z</time>
      </trkpt>
      <trkpt lat="47.196183018386364" lon="11.401560986414552">
        <ele>827.83000000000004</ele>
        <time>2018-09-17T13:09:45Z</time>
      </trkpt>
      <trkpt lat="47.196307992562652" lon="11.401523016393185">
        <ele>827.35000000000002</ele>
        <time>2018-09-17T13:09:46Z</time>
      </trkpt>
      <trkpt lat="47.196387033909559" lon="11.401396030560136">
        <ele>826.87</ele>
        <time>2018-09-17T13:09:47Z</time>
      </trkpt>
      <trkpt lat="47.196456016972661" lon="11.401250017806888">
        <ele>826.38999999999999</ele>
        <time>2018-09-17T13:09:48Z</time>
      </trkpt>
      <trkpt lat="47.196517959237099" lon="11.401106016710401">
        <ele>825.90999999999997</ele>
        <time>2018-09-17T13:09:49Z</time>
      </trkpt>
      <trkpt lat="47.196576967835426" lon="11.400968972593546">
        <ele>825.42999999999995</ele>
        <time>2018-09-17T13:09:50Z</time>
      </trkpt>
      <trkpt lat="47.196637988090515" lon="11.400880040600896">
        <ele>824.95000000000005</ele>
        <time>2018-09-17T13:09:51Z</time>
      </trkpt>
      <trkpt lat="47.196723986417055" lon="11.400806028395891">
        <ele>824.47000000000003</ele>
        <time>2018-09-17T13:09:52Z</time>
      </trkpt>
      <trkpt lat="47.196806967258453" lon="11.400793036445975">
        <ele>823.99000000000001</ele>
        <time>2018-09-17T13:09:53Z</time>
      </trkpt>
      <trkpt lat="47.196916015818715" lon="11.400811979547143">
        <ele>823.50999999999999</ele>
        <time>2018-09-17T13:09:54Z</time>
      </trkpt>
      <trkpt lat="47.19703696668148" lon="11.400833018124104">
        <ele>823.50999999999999</ele>
        <time>2018-09-17T13:09:55Z</time>
      </trkpt>
      <trkpt lat="47.19716495834291" lon="11.400854978710413">
        <ele>823.02999999999997</ele>
        <time>2018-09-17T13:09:56Z</time>
      </trkpt>
      <trkpt lat="47.19729202799499" lon="11.400871993973851">
        <ele>822.54999999999995</ele>
        <time>2018-09-17T13:09:57Z</time>
      </trkpt>
      <trkpt lat="47.197417002171278" lon="11.400880040600896">
        <ele>822.54999999999995</ele>
        <time>2018-09-17T13:09:58Z</time>
      </trkpt>
      <trkpt lat="47.197534013539553" lon="11.400886997580528">
        <ele>822.54999999999995</ele>
        <time>2018-09-17T13:09:59Z</time>
      </trkpt>
      <trkpt lat="47.19763501547277" lon="11.400961009785533">
        <ele>822.05999999999995</ele>
        <time>2018-09-17T13:10:00Z</time>
      </trkpt>
      <trkpt lat="47.197706010192633" lon="11.401067040860653">
        <ele>822.05999999999995</ele>
        <time>2018-09-17T13:10:01Z</time>
      </trkpt>
      <trkpt lat="47.197728976607323" lon="11.401222022250295">
        <ele>822.05999999999995</ele>
        <time>2018-09-17T13:10:02Z</time>
      </trkpt>
      <trkpt lat="47.197723025456071" lon="11.401378009468317">
        <ele>821.58000000000004</ele>
        <time>2018-09-17T13:10:03Z</time>
      </trkpt>
      <trkpt lat="47.197681032121181" lon="11.401530979201198">
        <ele>821.10000000000002</ele>
        <time>2018-09-17T13:10:04Z</time>
      </trkpt>
      <trkpt lat="47.197638032957911" lon="11.401693001389503">
        <ele>820.62</ele>
        <time>2018-09-17T13:10:05Z</time>
      </trkpt>
      <trkpt lat="47.197587992995977" lon="11.402000030502677">
        <ele>819.17999999999995</ele>
        <time>2018-09-17T13:10:07Z</time>
      </trkpt>
      <trkpt lat="47.197587992995977" lon="11.402151994407177">
        <ele>818.22000000000003</ele>
        <time>2018-09-17T13:10:08Z</time>
      </trkpt>
      <trkpt lat="47.197633003816009" lon="11.402246961370111">
        <ele>816.77999999999997</ele>
        <time>2018-09-17T13:10:09Z</time>
      </trkpt>
      <trkpt lat="47.197703998535872" lon="11.402388028800488">
        <ele>815.82000000000005</ele>
        <time>2018-09-17T13:10:10Z</time>
      </trkpt>
      <trkpt lat="47.197796031832695" lon="11.402510991320014">
        <ele>815.34000000000003</ele>
        <time>2018-09-17T13:10:11Z</time>
      </trkpt>
      <trkpt lat="47.198097025975585" lon="11.402754988521338">
        <ele>813.40999999999997</ele>
        <time>2018-09-17T13:10:14Z</time>
      </trkpt>
      <trkpt lat="47.198203979060054" lon="11.402748031541705">
        <ele>813.40999999999997</ele>
        <time>2018-09-17T13:10:15Z</time>
      </trkpt>
      <trkpt lat="47.198328031226993" lon="11.40273998491466">
        <ele>812.92999999999995</ele>
        <time>2018-09-17T13:10:16Z</time>
      </trkpt>
      <trkpt lat="47.199509963393211" lon="11.402360033243895">
        <ele>808.61000000000001</ele>
        <time>2018-09-17T13:10:23Z</time>
      </trkpt>
      <trkpt lat="47.200185041874647" lon="11.402105977758765">
        <ele>804.27999999999997</ele>
        <time>2018-09-17T13:10:27Z</time>
      </trkpt>
      <trkpt lat="47.200283026322722" lon="11.401974968612194">
        <ele>802.84000000000003</ele>
        <time>2018-09-17T13:10:28Z</time>
      </trkpt>
      <trkpt lat="47.200359972193837" lon="11.401799032464623">
        <ele>801.39999999999998</ele>
        <time>2018-09-17T13:10:29Z</time>
      </trkpt>
      <trkpt lat="47.200632970780134" lon="11.401020018383861">
        <ele>795.63</ele>
        <time>2018-09-17T13:10:33Z</time>
      </trkpt>
      <trkpt lat="47.200650991871953" lon="11.400855984538794">
        <ele>794.66999999999996</ele>
        <time>2018-09-17T13:10:34Z</time>
      </trkpt>
      <trkpt lat="47.20064302906394" lon="11.400709971785545">
        <ele>793.22000000000003</ele>
        <time>2018-09-17T13:10:35Z</time>
      </trkpt>
      <trkpt lat="47.200617967173457" lon="11.400541998445988">
        <ele>792.25999999999999</ele>
        <time>2018-09-17T13:10:36Z</time>
      </trkpt>
      <trkpt lat="47.200591983273625" lon="11.400375030934811">
        <ele>790.82000000000005</ele>
        <time>2018-09-17T13:10:37Z</time>
      </trkpt>
      <trkpt lat="47.200632970780134" lon="11.400157017633319">
        <ele>789.86000000000001</ele>
        <time>2018-09-17T13:10:38Z</time>
      </trkpt>
      <trkpt lat="47.200656021013856" lon="11.39994403347373">
        <ele>788.89999999999998</ele>
        <time>2018-09-17T13:10:39Z</time>
      </trkpt>
      <trkpt lat="47.200656021013856" lon="11.399737000465393">
        <ele>787.94000000000005</ele>
        <time>2018-09-17T13:10:40Z</time>
      </trkpt>
      <trkpt lat="47.200656021013856" lon="11.399527033790946">
        <ele>786.98000000000002</ele>
        <time>2018-09-17T13:10:41Z</time>
      </trkpt>
      <trkpt lat="47.200696002691984" lon="11.399333998560905">
        <ele>786.01999999999998</ele>
        <time>2018-09-17T13:10:42Z</time>
      </trkpt>
      <trkpt lat="47.200746964663267" lon="11.399122020229697">
        <ele>785.04999999999995</ele>
        <time>2018-09-17T13:10:43Z</time>
      </trkpt>
      <trkpt lat="47.200800022110343" lon="11.398901995271444">
        <ele>784.57000000000005</ele>
        <time>2018-09-17T13:10:44Z</time>
      </trkpt>
      <trkpt lat="47.200846038758755" lon="11.398678030818701">
        <ele>784.09000000000003</ele>
        <time>2018-09-17T13:10:45Z</time>
      </trkpt>
      <trkpt lat="47.200879985466599" lon="11.39846496284008">
        <ele>783.13</ele>
        <time>2018-09-17T13:10:46Z</time>
      </trkpt>
      <trkpt lat="47.200913010165095" lon="11.398259019479156">
        <ele>782.64999999999998</ele>
        <time>2018-09-17T13:10:47Z</time>
      </trkpt>
      <trkpt lat="47.200992973521352" lon="11.398093979805708">
        <ele>781.69000000000005</ele>
        <time>2018-09-17T13:10:48Z</time>
      </trkpt>
      <trkpt lat="47.201088024303317" lon="11.397950984537601">
        <ele>780.73000000000002</ele>
        <time>2018-09-17T13:10:49Z</time>
      </trkpt>
      <trkpt lat="47.201212998479605" lon="11.397832967340946">
        <ele>780.25</ele>
        <time>2018-09-17T13:10:50Z</time>
      </trkpt>
      <trkpt lat="47.201335960999131" lon="11.397716039791703">
        <ele>779.76999999999998</ele>
        <time>2018-09-17T13:10:51Z</time>
      </trkpt>
      <trkpt lat="47.201450038701296" lon="11.397606991231441">
        <ele>778.32000000000005</ele>
        <time>2018-09-17T13:10:52Z</time>
      </trkpt>
      <trkpt lat="47.20152597874403" lon="11.397427031770349">
        <ele>777.36000000000001</ele>
        <time>2018-09-17T13:10:53Z</time>
      </trkpt>
      <trkpt lat="47.201594961807132" lon="11.397264003753662">
        <ele>776.39999999999998</ele>
        <time>2018-09-17T13:10:54Z</time>
      </trkpt>
      <trkpt lat="47.201685989275575" lon="11.397144980728626">
        <ele>775.44000000000005</ele>
        <time>2018-09-17T13:10:55Z</time>
      </trkpt>
      <trkpt lat="47.201795959845185" lon="11.397071974352002">
        <ele>774.96000000000004</ele>
        <time>2018-09-17T13:10:56Z</time>
      </trkpt>
      <trkpt lat="47.201922023668885" lon="11.397077003493905">
        <ele>774</ele>
        <time>2018-09-17T13:10:57Z</time>
      </trkpt>
      <trkpt lat="47.202059989795089" lon="11.397082032635808">
        <ele>773.51999999999998</ele>
        <time>2018-09-17T13:10:58Z</time>
      </trkpt>
      <trkpt lat="47.202204996719956" lon="11.39708798378706">
        <ele>772.55999999999995</ele>
        <time>2018-09-17T13:10:59Z</time>
      </trkpt>
      <trkpt lat="47.202359978109598" lon="11.397081026807427">
        <ele>772.08000000000004</ele>
        <time>2018-09-17T13:11:00Z</time>
      </trkpt>
      <trkpt lat="47.203156007453799" lon="11.396766034886241">
        <ele>769.66999999999996</ele>
        <time>2018-09-17T13:11:05Z</time>
      </trkpt>
      <trkpt lat="47.203311994671822" lon="11.396738039329648">
        <ele>769.19000000000005</ele>
        <time>2018-09-17T13:11:06Z</time>
      </trkpt>
      <trkpt lat="47.203489020466805" lon="11.396770980209112">
        <ele>768.71000000000004</ele>
        <time>2018-09-17T13:11:07Z</time>
      </trkpt>
      <trkpt lat="47.20360997132957" lon="11.396841974928975">
        <ele>768.23000000000002</ele>
        <time>2018-09-17T13:11:08Z</time>
      </trkpt>
      <trkpt lat="47.203752966597676" lon="11.396925961598754">
        <ele>767.75</ele>
        <time>2018-09-17T13:11:09Z</time>
      </trkpt>
      <trkpt lat="47.203907025977969" lon="11.396992010995746">
        <ele>767.26999999999998</ele>
        <time>2018-09-17T13:11:10Z</time>
      </trkpt>
      <trkpt lat="47.204077010974288" lon="11.397014977410436">
        <ele>767.26999999999998</ele>
        <time>2018-09-17T13:11:11Z</time>
      </trkpt>
      <trkpt lat="47.20425303094089" lon="11.397008020430803">
        <ele>766.78999999999996</ele>
        <time>2018-09-17T13:11:12Z</time>
      </trkpt>
      <trkpt lat="47.204417986795306" lon="11.396966027095914">
        <ele>766.30999999999995</ele>
        <time>2018-09-17T13:11:13Z</time>
      </trkpt>
      <trkpt lat="47.204577997326851" lon="11.396925039589405">
        <ele>765.83000000000004</ele>
        <time>2018-09-17T13:11:14Z</time>
      </trkpt>
      <trkpt lat="47.204879997298121" lon="11.396847004070878">
        <ele>763.89999999999998</ele>
        <time>2018-09-17T13:11:16Z</time>
      </trkpt>
      <trkpt lat="47.205002959817648" lon="11.39687298797071">
        <ele>762.94000000000005</ele>
        <time>2018-09-17T13:11:17Z</time>
      </trkpt>
      <trkpt lat="47.205132963135839" lon="11.396938031539321">
        <ele>761.98000000000002</ele>
        <time>2018-09-17T13:11:18Z</time>
      </trkpt>
      <trkpt lat="47.205400010570884" lon="11.397114973515272">
        <ele>761.01999999999998</ele>
        <time>2018-09-17T13:11:20Z</time>
      </trkpt>
      <trkpt lat="47.205520961433649" lon="11.397236008197069">
        <ele>760.53999999999996</ele>
        <time>2018-09-17T13:11:21Z</time>
      </trkpt>
      <trkpt lat="47.205603020265698" lon="11.397375985980034">
        <ele>760.05999999999995</ele>
        <time>2018-09-17T13:11:22Z</time>
      </trkpt>
      <trkpt lat="47.205655993893743" lon="11.397528033703566">
        <ele>759.58000000000004</ele>
        <time>2018-09-17T13:11:23Z</time>
      </trkpt>
      <trkpt lat="47.20564903691411" lon="11.39771000482142">
        <ele>758.62</ele>
        <time>2018-09-17T13:11:24Z</time>
      </trkpt>
      <trkpt lat="47.205643001943827" lon="11.397893987596035">
        <ele>758.13999999999999</ele>
        <time>2018-09-17T13:11:25Z</time>
      </trkpt>
      <trkpt lat="47.205636966973543" lon="11.398069001734257">
        <ele>757.65999999999997</ele>
        <time>2018-09-17T13:11:26Z</time>
      </trkpt>
      <trkpt lat="47.205673009157181" lon="11.398207973688841">
        <ele>756.69000000000005</ele>
        <time>2018-09-17T13:11:27Z</time>
      </trkpt>
      <trkpt lat="47.205720031633973" lon="11.398316016420722">
        <ele>755.25</ele>
        <time>2018-09-17T13:11:28Z</time>
      </trkpt>
      <trkpt lat="47.205808963626623" lon="11.398368990048766">
        <ele>753.80999999999995</ele>
        <time>2018-09-17T13:11:29Z</time>
      </trkpt>
      <trkpt lat="47.205922035500407" lon="11.398386005312204">
        <ele>753.33000000000004</ele>
        <time>2018-09-17T13:11:30Z</time>
      </trkpt>
      <trkpt lat="47.20605798996985" lon="11.398393968120217">
        <ele>752.85000000000002</ele>
        <time>2018-09-17T13:11:31Z</time>
      </trkpt>
      <trkpt lat="47.206700965762138" lon="11.398429004475474">
        <ele>752.37</ele>
        <time>2018-09-17T13:11:35Z</time>
      </trkpt>
      <trkpt lat="47.206839015707374" lon="11.398532018065453">
        <ele>751.88999999999999</ele>
        <time>2018-09-17T13:11:36Z</time>
      </trkpt>
      <trkpt lat="47.207093993201852" lon="11.398723041638732">
        <ele>750.92999999999995</ele>
        <time>2018-09-17T13:11:38Z</time>
      </trkpt>
      <trkpt lat="47.207234976813197" lon="11.398753970861435">
        <ele>750.45000000000005</ele>
        <time>2018-09-17T13:11:39Z</time>
      </trkpt>
      <trkpt lat="47.207373026758432" lon="11.39874299056828">
        <ele>749.97000000000003</ele>
        <time>2018-09-17T13:11:40Z</time>
      </trkpt>
      <trkpt lat="47.208420010283589" lon="11.39837603084743">
        <ele>745.15999999999997</ele>
        <time>2018-09-17T13:11:46Z</time>
      </trkpt>
      <trkpt lat="47.20889501273632" lon="11.39816396869719">
        <ele>740.83000000000004</ele>
        <time>2018-09-17T13:11:49Z</time>
      </trkpt>
      <trkpt lat="47.208999032154679" lon="11.398049974814057">
        <ele>739.38999999999999</ele>
        <time>2018-09-17T13:11:50Z</time>
      </trkpt>
      <trkpt lat="47.209092993289232" lon="11.397899016737938">
        <ele>737.95000000000005</ele>
        <time>2018-09-17T13:11:51Z</time>
      </trkpt>
      <trkpt lat="47.209547962993383" lon="11.396854966878891">
        <ele>732.65999999999997</ele>
        <time>2018-09-17T13:11:56Z</time>
      </trkpt>
      <trkpt lat="47.209664974361658" lon="11.396680036559701">
        <ele>731.70000000000005</ele>
        <time>2018-09-17T13:11:57Z</time>
      </trkpt>
      <trkpt lat="47.20982096157968" lon="11.39655003324151">
        <ele>730.74000000000001</ele>
        <time>2018-09-17T13:11:58Z</time>
      </trkpt>
      <trkpt lat="47.209982983767986" lon="11.396455988287926">
        <ele>729.29999999999995</ele>
        <time>2018-09-17T13:11:59Z</time>
      </trkpt>
      <trkpt lat="47.21014098264277" lon="11.396383987739682">
        <ele>728.34000000000003</ele>
        <time>2018-09-17T13:12:00Z</time>
      </trkpt>
      <trkpt lat="47.210301999002695" lon="11.396353980526328">
        <ele>727.37</ele>
        <time>2018-09-17T13:12:01Z</time>
      </trkpt>
      <trkpt lat="47.210585977882147" lon="11.396300001069903">
        <ele>725.45000000000005</ele>
        <time>2018-09-17T13:12:03Z</time>
      </trkpt>
      <trkpt lat="47.210710030049086" lon="11.396196987479925">
        <ele>724.49000000000001</ele>
        <time>2018-09-17T13:12:04Z</time>
      </trkpt>
      <trkpt lat="47.210802985355258" lon="11.396058015525341">
        <ele>724.00999999999999</ele>
        <time>2018-09-17T13:12:05Z</time>
      </trkpt>
      <trkpt lat="47.210881020873785" lon="11.395892975851893">
        <ele>723.04999999999995</ele>
        <time>2018-09-17T13:12:06Z</time>
      </trkpt>
      <trkpt lat="47.21093600615859" lon="11.395690971985459">
        <ele>722.57000000000005</ele>
        <time>2018-09-17T13:12:07Z</time>
      </trkpt>
      <trkpt lat="47.210996020585299" lon="11.395468013361096">
        <ele>722.09000000000003</ele>
        <time>2018-09-17T13:12:08Z</time>
      </trkpt>
      <trkpt lat="47.211057040840387" lon="11.395243965089321">
        <ele>721.61000000000001</ele>
        <time>2018-09-17T13:12:09Z</time>
      </trkpt>
      <trkpt lat="47.211146978661418" lon="11.395051013678312">
        <ele>721.13</ele>
        <time>2018-09-17T13:12:10Z</time>
      </trkpt>
      <trkpt lat="47.211268013343215" lon="11.394879017025232">
        <ele>720.64999999999998</ele>
        <time>2018-09-17T13:12:11Z</time>
      </trkpt>
      <trkpt lat="47.2113879583776" lon="11.394708026200533">
        <ele>719.67999999999995</ele>
        <time>2018-09-17T13:12:12Z</time>
      </trkpt>
      <trkpt lat="47.211501030251384" lon="11.394548015668988">
        <ele>718.72000000000003</ele>
        <time>2018-09-17T13:12:13Z</time>
      </trkpt>
      <trkpt lat="47.211603038012981" lon="11.39440200291574">
        <ele>718.24000000000001</ele>
        <time>2018-09-17T13:12:14Z</time>
      </trkpt>
      <trkpt lat="47.211653999984264" lon="11.394231012091041">
        <ele>717.75999999999999</ele>
        <time>2018-09-17T13:12:15Z</time>
      </trkpt>
      <trkpt lat="47.211657017469406" lon="11.394071001559496">
        <ele>716.79999999999995</ele>
        <time>2018-09-17T13:12:16Z</time>
      </trkpt>
      <trkpt lat="47.211635978892446" lon="11.393896993249655">
        <ele>716.32000000000005</ele>
        <time>2018-09-17T13:12:17Z</time>
      </trkpt>
      <trkpt lat="47.211612006649375" lon="11.393699012696743">
        <ele>716.32000000000005</ele>
        <time>2018-09-17T13:12:18Z</time>
      </trkpt>
      <trkpt lat="47.211285028606653" lon="11.391559028998017">
        <ele>711.50999999999999</ele>
        <time>2018-09-17T13:12:28Z</time>
      </trkpt>
      <trkpt lat="47.210853025317192" lon="11.388542968779802">
        <ele>708.63</ele>
        <time>2018-09-17T13:12:43Z</time>
      </trkpt>
      <trkpt lat="47.210886972025037" lon="11.388373989611864">
        <ele>708.14999999999998</ele>
        <time>2018-09-17T13:12:44Z</time>
      </trkpt>
      <trkpt lat="47.210933994501829" lon="11.388210039585829">
        <ele>707.66999999999996</ele>
        <time>2018-09-17T13:12:45Z</time>
      </trkpt>
      <trkpt lat="47.210982022807002" lon="11.388053968548775">
        <ele>707.66999999999996</ele>
        <time>2018-09-17T13:12:46Z</time>
      </trkpt>
      <trkpt lat="47.2110840305686" lon="11.387940980494022">
        <ele>707.66999999999996</ele>
        <time>2018-09-17T13:12:47Z</time>
      </trkpt>
      <trkpt lat="47.21119299530983" lon="11.387819023802876">
        <ele>707.19000000000005</ele>
        <time>2018-09-17T13:12:48Z</time>
      </trkpt>
      <trkpt lat="47.211309000849724" lon="11.387691032141447">
        <ele>707.19000000000005</ele>
        <time>2018-09-17T13:12:49Z</time>
      </trkpt>
      <trkpt lat="47.21155702136457" lon="11.387415016070008">
        <ele>707.19000000000005</ele>
        <time>2018-09-17T13:12:51Z</time>
      </trkpt>
      <trkpt lat="47.211662968620658" lon="11.387371011078358">
        <ele>707.66999999999996</ele>
        <time>2018-09-17T13:12:52Z</time>
      </trkpt>
      <trkpt lat="47.211791966110468" lon="11.387361958622932">
        <ele>707.66999999999996</ele>
        <time>2018-09-17T13:12:53Z</time>
      </trkpt>
      <trkpt lat="47.211943008005619" lon="11.387350978329778">
        <ele>708.14999999999998</ele>
        <time>2018-09-17T13:12:54Z</time>
      </trkpt>
      <trkpt lat="47.212043004110456" lon="11.387432031333447">
        <ele>708.63</ele>
        <time>2018-09-17T13:12:55Z</time>
      </trkpt>
      <trkpt lat="47.212152974680066" lon="11.387521969154477">
        <ele>709.11000000000001</ele>
        <time>2018-09-17T13:12:56Z</time>
      </trkpt>
      <trkpt lat="47.212261017411947" lon="11.387619031593204">
        <ele>709.59000000000003</ele>
        <time>2018-09-17T13:12:57Z</time>
      </trkpt>
      <trkpt lat="47.212365958839655" lon="11.387716010212898">
        <ele>709.59000000000003</ele>
        <time>2018-09-17T13:12:58Z</time>
      </trkpt>
      <trkpt lat="47.21248297020793" lon="11.387801002711058">
        <ele>710.07000000000005</ele>
        <time>2018-09-17T13:12:59Z</time>
      </trkpt>
      <trkpt lat="47.212614985182881" lon="11.387801002711058">
        <ele>710.07000000000005</ele>
        <time>2018-09-17T13:13:00Z</time>
      </trkpt>
      <trkpt lat="47.212754962965846" lon="11.387801002711058">
        <ele>710.54999999999995</ele>
        <time>2018-09-17T13:13:01Z</time>
      </trkpt>
      <trkpt lat="47.212906004860997" lon="11.387781975790858">
        <ele>710.54999999999995</ele>
        <time>2018-09-17T13:13:02Z</time>
      </trkpt>
      <trkpt lat="47.214483981952071" lon="11.387493973597884">
        <ele>714.39999999999998</ele>
        <time>2018-09-17T13:13:12Z</time>
      </trkpt>
      <trkpt lat="47.215788038447499" lon="11.387231033295393">
        <ele>715.84000000000003</ele>
        <time>2018-09-17T13:13:21Z</time>
      </trkpt>
      <trkpt lat="47.215927010402083" lon="11.387235978618264">
        <ele>715.84000000000003</ele>
        <time>2018-09-17T13:13:22Z</time>
      </trkpt>
      <trkpt lat="47.216068999841809" lon="11.387292975559831">
        <ele>715.84000000000003</ele>
        <time>2018-09-17T13:13:23Z</time>
      </trkpt>
      <trkpt lat="47.216209983453155" lon="11.387402024120092">
        <ele>716.32000000000005</ele>
        <time>2018-09-17T13:13:24Z</time>
      </trkpt>
      <trkpt lat="47.21635197289288" lon="11.387530015781522">
        <ele>716.32000000000005</ele>
        <time>2018-09-17T13:13:25Z</time>
      </trkpt>
      <trkpt lat="47.216494968160987" lon="11.387659013271332">
        <ele>716.32000000000005</ele>
        <time>2018-09-17T13:13:26Z</time>
      </trkpt>
      <trkpt lat="47.216647015884519" lon="11.387760015204549">
        <ele>716.32000000000005</ele>
        <time>2018-09-17T13:13:27Z</time>
      </trkpt>
      <trkpt lat="47.216813983395696" lon="11.387844001874328">
        <ele>716.32000000000005</ele>
        <time>2018-09-17T13:13:28Z</time>
      </trkpt>
      <trkpt lat="47.216987991705537" lon="11.387855987995863">
        <ele>716.79999999999995</ele>
        <time>2018-09-17T13:13:29Z</time>
      </trkpt>
      <trkpt lat="47.217172980308533" lon="11.387867974117398">
        <ele>716.79999999999995</ele>
        <time>2018-09-17T13:13:30Z</time>
      </trkpt>
      <trkpt lat="47.218208983540535" lon="11.387965958565474">
        <ele>716.79999999999995</ele>
        <time>2018-09-17T13:13:36Z</time>
      </trkpt>
      <trkpt lat="47.218339992687106" lon="11.38804298825562">
        <ele>716.79999999999995</ele>
        <time>2018-09-17T13:13:37Z</time>
      </trkpt>
      <trkpt lat="47.218445017933846" lon="11.388155976310372">
        <ele>716.79999999999995</ele>
        <time>2018-09-17T13:13:38Z</time>
      </trkpt>
      <trkpt lat="47.218574015423656" lon="11.388295032083988">
        <ele>716.32000000000005</ele>
        <time>2018-09-17T13:13:39Z</time>
      </trkpt>
      <trkpt lat="47.218623971566558" lon="11.388440961018205">
        <ele>716.32000000000005</ele>
        <time>2018-09-17T13:13:40Z</time>
      </trkpt>
      <trkpt lat="47.218685997650027" lon="11.38862201012671">
        <ele>716.32000000000005</ele>
        <time>2018-09-17T13:13:41Z</time>
      </trkpt>
      <trkpt lat="47.218749029561877" lon="11.388805992901325">
        <ele>716.79999999999995</ele>
        <time>2018-09-17T13:13:42Z</time>
      </trkpt>
      <trkpt lat="47.218816000968218" lon="11.388989975675941">
        <ele>717.27999999999997</ele>
        <time>2018-09-17T13:13:43Z</time>
      </trkpt>
      <trkpt lat="47.218925971537828" lon="11.389136994257569">
        <ele>717.75999999999999</ele>
        <time>2018-09-17T13:13:44Z</time>
      </trkpt>
      <trkpt lat="47.219051029533148" lon="11.389271020889282">
        <ele>718.24000000000001</ele>
        <time>2018-09-17T13:13:45Z</time>
      </trkpt>
      <trkpt lat="47.219195030629635" lon="11.389366993680596">
        <ele>718.72000000000003</ele>
        <time>2018-09-17T13:13:46Z</time>
      </trkpt>
      <trkpt lat="47.219353029504418" lon="11.389415021985769">
        <ele>718.72000000000003</ele>
        <time>2018-09-17T13:13:47Z</time>
      </trkpt>
      <trkpt lat="47.219521002843976" lon="11.389422984793782">
        <ele>718.72000000000003</ele>
        <time>2018-09-17T13:13:48Z</time>
      </trkpt>
      <trkpt lat="47.219686964526772" lon="11.389432037249207">
        <ele>718.72000000000003</ele>
        <time>2018-09-17T13:13:49Z</time>
      </trkpt>
      <trkpt lat="47.219846975058317" lon="11.389323994517326">
        <ele>718.72000000000003</ele>
        <time>2018-09-17T13:13:50Z</time>
      </trkpt>
      <trkpt lat="47.220006985589862" lon="11.389215029776096">
        <ele>719.20000000000005</ele>
        <time>2018-09-17T13:13:51Z</time>
      </trkpt>
      <trkpt lat="47.220162972807884" lon="11.389078991487622">
        <ele>719.20000000000005</ele>
        <time>2018-09-17T13:13:52Z</time>
      </trkpt>
      <trkpt lat="47.220309991389513" lon="11.388912023976445">
        <ele>719.20000000000005</ele>
        <time>2018-09-17T13:13:53Z</time>
      </trkpt>
      <trkpt lat="47.221446996554732" lon="11.387629006057978">
        <ele>721.13</ele>
        <time>2018-09-17T13:14:01Z</time>
      </trkpt>
      <trkpt lat="47.221669033169746" lon="11.387402024120092">
        <ele>721.61000000000001</ele>
        <time>2018-09-17T13:14:03Z</time>
      </trkpt>
      <trkpt lat="47.221771040931344" lon="11.387350978329778">
        <ele>721.61000000000001</ele>
        <time>2018-09-17T13:14:04Z</time>
      </trkpt>
      <trkpt lat="47.221899032592773" lon="11.387364976108074">
        <ele>721.61000000000001</ele>
        <time>2018-09-17T13:14:05Z</time>
      </trkpt>
      <trkpt lat="47.2220219951123" lon="11.387399006634951">
        <ele>721.61000000000001</ele>
        <time>2018-09-17T13:14:06Z</time>
      </trkpt>
      <trkpt lat="47.222159039229155" lon="11.38746396638453">
        <ele>721.61000000000001</ele>
        <time>2018-09-17T13:14:07Z</time>
      </trkpt>
      <trkpt lat="47.222610991448164" lon="11.387677034363151">
        <ele>720.64999999999998</ele>
        <time>2018-09-17T13:14:10Z</time>
      </trkpt>
      <trkpt lat="47.222766978666186" lon="11.387701006606221">
        <ele>720.15999999999997</ele>
        <time>2018-09-17T13:14:11Z</time>
      </trkpt>
      <trkpt lat="47.222931012511253" lon="11.387669993564487">
        <ele>719.67999999999995</ele>
        <time>2018-09-17T13:14:12Z</time>
      </trkpt>
      <trkpt lat="47.223443984985352" lon="11.387532027438283">
        <ele>717.75999999999999</ele>
        <time>2018-09-17T13:14:15Z</time>
      </trkpt>
      <trkpt lat="47.223607013002038" lon="11.387425996363163">
        <ele>717.75999999999999</ele>
        <time>2018-09-17T13:14:16Z</time>
      </trkpt>
      <trkpt lat="47.223769035190344" lon="11.387306973338127">
        <ele>717.27999999999997</ele>
        <time>2018-09-17T13:14:17Z</time>
      </trkpt>
      <trkpt lat="47.223926028236747" lon="11.387158026918769">
        <ele>717.27999999999997</ele>
        <time>2018-09-17T13:14:18Z</time>
      </trkpt>
      <trkpt lat="47.224085032939911" lon="11.387005979195237">
        <ele>716.79999999999995</ele>
        <time>2018-09-17T13:14:19Z</time>
      </trkpt>
      <trkpt lat="47.224252000451088" lon="11.386872036382556">
        <ele>716.79999999999995</ele>
        <time>2018-09-17T13:14:20Z</time>
      </trkpt>
      <trkpt lat="47.224421985447407" lon="11.386761981993914">
        <ele>716.32000000000005</ele>
        <time>2018-09-17T13:14:21Z</time>
      </trkpt>
      <trkpt lat="47.224609991535544" lon="11.386712025851011">
        <ele>716.32000000000005</ele>
        <time>2018-09-17T13:14:22Z</time>
      </trkpt>
      <trkpt lat="47.224802020937204" lon="11.38668897561729">
        <ele>715.84000000000003</ele>
        <time>2018-09-17T13:14:23Z</time>
      </trkpt>
      <trkpt lat="47.224994972348213" lon="11.386665003374219">
        <ele>715.84000000000003</ele>
        <time>2018-09-17T13:14:24Z</time>
      </trkpt>
      <trkpt lat="47.225731993094087" lon="11.386575987562537">
        <ele>715.36000000000001</ele>
        <time>2018-09-17T13:14:28Z</time>
      </trkpt>
      <trkpt lat="47.225878005847335" lon="11.386557966470718">
        <ele>714.39999999999998</ele>
        <time>2018-09-17T13:14:29Z</time>
      </trkpt>
      <trkpt lat="47.22599602304399" lon="11.386424023658037">
        <ele>713.91999999999996</ele>
        <time>2018-09-17T13:14:30Z</time>
      </trkpt>
      <trkpt lat="47.226116973906755" lon="11.386270970106125">
        <ele>713.44000000000005</ele>
        <time>2018-09-17T13:14:31Z</time>
      </trkpt>
      <trkpt lat="47.226239014416933" lon="11.386116994544864">
        <ele>713.44000000000005</ele>
        <time>2018-09-17T13:14:32Z</time>
      </trkpt>
      <trkpt lat="47.226483011618257" lon="11.385875009000301">
        <ele>712.47000000000003</ele>
        <time>2018-09-17T13:14:34Z</time>
      </trkpt>
      <trkpt lat="47.226599017158151" lon="11.3858060259372">
        <ele>711.50999999999999</ele>
        <time>2018-09-17T13:14:35Z</time>
      </trkpt>
      <trkpt lat="47.22674896940589" lon="11.38582899235189">
        <ele>711.02999999999997</ele>
        <time>2018-09-17T13:14:36Z</time>
      </trkpt>
      <trkpt lat="47.226890958845615" lon="11.385855982080102">
        <ele>710.07000000000005</ele>
        <time>2018-09-17T13:14:37Z</time>
      </trkpt>
      <trkpt lat="47.227040994912386" lon="11.385944997891784">
        <ele>709.59000000000003</ele>
        <time>2018-09-17T13:14:38Z</time>
      </trkpt>
      <trkpt lat="47.227197987958789" lon="11.386037031188607">
        <ele>709.11000000000001</ele>
        <time>2018-09-17T13:14:39Z</time>
      </trkpt>
      <trkpt lat="47.227666033431888" lon="11.386380018666387">
        <ele>708.63</ele>
        <time>2018-09-17T13:14:42Z</time>
      </trkpt>
      <trkpt lat="47.227800982072949" lon="11.386530976742506">
        <ele>708.63</ele>
        <time>2018-09-17T13:14:43Z</time>
      </trkpt>
      <trkpt lat="47.228337004780769" lon="11.387092983350158">
        <ele>708.14999999999998</ele>
        <time>2018-09-17T13:14:47Z</time>
      </trkpt>
      <trkpt lat="47.228480000048876" lon="11.387164983898401">
        <ele>707.66999999999996</ele>
        <time>2018-09-17T13:14:48Z</time>
      </trkpt>
      <trkpt lat="47.228631963953376" lon="11.387207983061671">
        <ele>707.19000000000005</ele>
        <time>2018-09-17T13:14:49Z</time>
      </trkpt>
      <trkpt lat="47.228795997798443" lon="11.387224998325109">
        <ele>706.23000000000002</ele>
        <time>2018-09-17T13:14:50Z</time>
      </trkpt>
      <trkpt lat="47.22896103747189" lon="11.387241007760167">
        <ele>705.75</ele>
        <time>2018-09-17T13:14:51Z</time>
      </trkpt>
      <trkpt lat="47.229279968887568" lon="11.387273026630282">
        <ele>704.29999999999995</ele>
        <time>2018-09-17T13:14:53Z</time>
      </trkpt>
      <trkpt lat="47.229428999125957" lon="11.387274032458663">
        <ele>704.29999999999995</ele>
        <time>2018-09-17T13:14:54Z</time>
      </trkpt>
      <trkpt lat="47.229559002444148" lon="11.387192979454994">
        <ele>703.82000000000005</ele>
        <time>2018-09-17T13:14:55Z</time>
      </trkpt>
      <trkpt lat="47.229661010205746" lon="11.387045960873365">
        <ele>703.34000000000003</ele>
        <time>2018-09-17T13:14:56Z</time>
      </trkpt>
      <trkpt lat="47.229753965511918" lon="11.386890979483724">
        <ele>703.34000000000003</ele>
        <time>2018-09-17T13:14:57Z</time>
      </trkpt>
      <trkpt lat="47.229810040444136" lon="11.386696016415954">
        <ele>702.86000000000001</ele>
        <time>2018-09-17T13:14:58Z</time>
      </trkpt>
      <trkpt lat="47.229854967445135" lon="11.386493006721139">
        <ele>702.86000000000001</ele>
        <time>2018-09-17T13:14:59Z</time>
      </trkpt>
      <trkpt lat="47.229849016293883" lon="11.386271975934505">
        <ele>702.86000000000001</ele>
        <time>2018-09-17T13:15:00Z</time>
      </trkpt>
      <trkpt lat="47.229832001030445" lon="11.386045999825001">
        <ele>702.38</ele>
        <time>2018-09-17T13:15:01Z</time>
      </trkpt>
      <trkpt lat="47.229806017130613" lon="11.385823041200638">
        <ele>702.38</ele>
        <time>2018-09-17T13:15:02Z</time>
      </trkpt>
      <trkpt lat="47.229783972725272" lon="11.385253993794322">
        <ele>700.94000000000005</ele>
        <time>2018-09-17T13:15:05Z</time>
      </trkpt>
      <trkpt lat="47.22982001490891" lon="11.385109992697835">
        <ele>700.46000000000004</ele>
        <time>2018-09-17T13:15:06Z</time>
      </trkpt>
      <trkpt lat="47.229877011850476" lon="11.384983006864786">
        <ele>699.98000000000002</ele>
        <time>2018-09-17T13:15:07Z</time>
      </trkpt>
      <trkpt lat="47.229962004348636" lon="11.384869012981653">
        <ele>699.98000000000002</ele>
        <time>2018-09-17T13:15:08Z</time>
      </trkpt>
      <trkpt lat="47.230049008503556" lon="11.384765999391675">
        <ele>699.98000000000002</ele>
        <time>2018-09-17T13:15:09Z</time>
      </trkpt>
      <trkpt lat="47.230154033750296" lon="11.384705984964967">
        <ele>699.5</ele>
        <time>2018-09-17T13:15:10Z</time>
      </trkpt>
      <trkpt lat="47.230271967127919" lon="11.384707996621728">
        <ele>699.5</ele>
        <time>2018-09-17T13:15:11Z</time>
      </trkpt>
      <trkpt lat="47.23039903678" lon="11.38473398052156">
        <ele>699.5</ele>
        <time>2018-09-17T13:15:12Z</time>
      </trkpt>
      <trkpt lat="47.230512024834752" lon="11.384832970798016">
        <ele>699.5</ele>
        <time>2018-09-17T13:15:13Z</time>
      </trkpt>
      <trkpt lat="47.230634987354279" lon="11.384939001873136">
        <ele>699.01999999999998</ele>
        <time>2018-09-17T13:15:14Z</time>
      </trkpt>
      <trkpt lat="47.231340995058417" lon="11.38554803095758">
        <ele>699.01999999999998</ele>
        <time>2018-09-17T13:15:19Z</time>
      </trkpt>
      <trkpt lat="47.231480972841382" lon="11.385590024292469">
        <ele>698.52999999999997</ele>
        <time>2018-09-17T13:15:20Z</time>
      </trkpt>
      <trkpt lat="47.231649029999971" lon="11.385605027899146">
        <ele>698.04999999999995</ele>
        <time>2018-09-17T13:15:21Z</time>
      </trkpt>
      <trkpt lat="47.233116030693054" lon="11.385445017367601">
        <ele>697.09000000000003</ele>
        <time>2018-09-17T13:15:28Z</time>
      </trkpt>
      <trkpt lat="47.234035022556782" lon="11.385402018204331">
        <ele>697.57000000000005</ele>
        <time>2018-09-17T13:15:32Z</time>
      </trkpt>
      <trkpt lat="47.23605003207922" lon="11.386045999825001">
        <ele>699.5</ele>
        <time>2018-09-17T13:15:41Z</time>
      </trkpt>
      <trkpt lat="47.236834997311234" lon="11.386631978675723">
        <ele>700.46000000000004</ele>
        <time>2018-09-17T13:15:47Z</time>
      </trkpt>
      <trkpt lat="47.23708301782608" lon="11.386856026947498">
        <ele>701.89999999999998</ele>
        <time>2018-09-17T13:15:50Z</time>
      </trkpt>
      <trkpt lat="47.237157030031085" lon="11.386901959776878">
        <ele>702.38</ele>
        <time>2018-09-17T13:15:51Z</time>
      </trkpt>
      <trkpt lat="47.237389041110873" lon="11.387022994458675">
        <ele>705.75</ele>
        <time>2018-09-17T13:15:58Z</time>
      </trkpt>
      <trkpt lat="47.23747001029551" lon="11.387043027207255">
        <ele>707.19000000000005</ele>
        <time>2018-09-17T13:16:06Z</time>
      </trkpt>
      <trkpt lat="47.237520972266793" lon="11.387178981676698">
        <ele>707.66999999999996</ele>
        <time>2018-09-17T13:16:07Z</time>
      </trkpt>
      <trkpt lat="47.237593978643417" lon="11.387207983061671">
        <ele>707.66999999999996</ele>
        <time>2018-09-17T13:16:08Z</time>
      </trkpt>
      <trkpt lat="47.237674025818706" lon="11.387199014425278">
        <ele>707.66999999999996</ele>
        <time>2018-09-17T13:16:09Z</time>
      </trkpt>
      <trkpt lat="47.237786008045077" lon="11.387132965028286">
        <ele>707.66999999999996</ele>
        <time>2018-09-17T13:16:10Z</time>
      </trkpt>
      <trkpt lat="47.237859014421701" lon="11.387193985283375">
        <ele>708.14999999999998</ele>
        <time>2018-09-17T13:16:11Z</time>
      </trkpt>
      <trkpt lat="47.237935960292816" lon="11.387264980003238">
        <ele>708.14999999999998</ele>
        <time>2018-09-17T13:16:12Z</time>
      </trkpt>
      <trkpt lat="47.238021036610007" lon="11.387342009693384">
        <ele>708.14999999999998</ele>
        <time>2018-09-17T13:16:13Z</time>
      </trkpt>
      <trkpt lat="47.238108962774277" lon="11.387422978878021">
        <ele>708.63</ele>
        <time>2018-09-17T13:16:14Z</time>
      </trkpt>
      <trkpt lat="47.23899400793016" lon="11.388282962143421">
        <ele>705.25999999999999</ele>
        <time>2018-09-17T13:16:23Z</time>
      </trkpt>
      <trkpt lat="47.239494994282722" lon="11.388701973482966">
        <ele>702.38</ele>
        <time>2018-09-17T13:16:29Z</time>
      </trkpt>
      <trkpt lat="47.240266967564821" lon="11.389282001182437">
        <ele>697.09000000000003</ele>
        <time>2018-09-17T13:16:38Z</time>
      </trkpt>
      <trkpt lat="47.240421026945114" lon="11.389386020600796">
        <ele>696.13</ele>
        <time>2018-09-17T13:16:39Z</time>
      </trkpt>
      <trkpt lat="47.240495039150119" lon="11.389435976743698">
        <ele>695.64999999999998</ele>
        <time>2018-09-17T13:16:40Z</time>
      </trkpt>
      <trkpt lat="47.240699976682663" lon="11.389576038345695">
        <ele>694.21000000000004</ele>
        <time>2018-09-17T13:16:43Z</time>
      </trkpt>
      <trkpt lat="47.241117982193828" lon="11.38982598669827">
        <ele>693.73000000000002</ele>
        <time>2018-09-17T13:16:52Z</time>
      </trkpt>
      <trkpt lat="47.241131979972124" lon="11.389834033325315">
        <ele>693.73000000000002</ele>
        <time>2018-09-17T13:16:53Z</time>
      </trkpt>
      <trkpt lat="47.241151006892323" lon="11.389845013618469">
        <ele>693.73000000000002</ele>
        <time>2018-09-17T13:16:54Z</time>
      </trkpt>
      <trkpt lat="47.241491982713342" lon="11.390039976686239">
        <ele>693.73000000000002</ele>
        <time>2018-09-17T13:17:00Z</time>
      </trkpt>
      <trkpt lat="47.242247024551034" lon="11.390453958883882">
        <ele>694.21000000000004</ele>
        <time>2018-09-17T13:17:08Z</time>
      </trkpt>
      <trkpt lat="47.243429040536284" lon="11.391091989353299">
        <ele>693.25</ele>
        <time>2018-09-17T13:17:16Z</time>
      </trkpt>
      <trkpt lat="47.244910961017013" lon="11.392270987853408">
        <ele>690.36000000000001</ele>
        <time>2018-09-17T13:17:26Z</time>
      </trkpt>
      <trkpt lat="47.246069004759192" lon="11.393427019938827">
        <ele>689.39999999999998</ele>
        <time>2018-09-17T13:17:36Z</time>
      </trkpt>
      <trkpt lat="47.246253993362188" lon="11.3936079852283">
        <ele>688.91999999999996</ele>
        <time>2018-09-17T13:17:38Z</time>
      </trkpt>
      <trkpt lat="47.246358012780547" lon="11.393675962463021">
        <ele>688.91999999999996</ele>
        <time>2018-09-17T13:17:39Z</time>
      </trkpt>
      <trkpt lat="47.246469995006919" lon="11.393721979111433">
        <ele>688.44000000000005</ele>
        <time>2018-09-17T13:17:40Z</time>
      </trkpt>
      <trkpt lat="47.246593041345477" lon="11.393764978274703">
        <ele>688.44000000000005</ele>
        <time>2018-09-17T13:17:41Z</time>
      </trkpt>
      <trkpt lat="47.246721033006907" lon="11.393756009638309">
        <ele>688.44000000000005</ele>
        <time>2018-09-17T13:17:42Z</time>
      </trkpt>
      <trkpt lat="47.246842989698052" lon="11.393747963011265">
        <ele>687.96000000000004</ele>
        <time>2018-09-17T13:17:43Z</time>
      </trkpt>
      <trkpt lat="47.246938962489367" lon="11.393701024353504">
        <ele>687.48000000000002</ele>
        <time>2018-09-17T13:17:44Z</time>
      </trkpt>
      <trkpt lat="47.247038036584854" lon="11.393632041290402">
        <ele>687.48000000000002</ele>
        <time>2018-09-17T13:17:45Z</time>
      </trkpt>
      <trkpt lat="47.247121017426252" lon="11.393558029085398">
        <ele>687</ele>
        <time>2018-09-17T13:17:46Z</time>
      </trkpt>
      <trkpt lat="47.247206009924412" lon="11.393450992181897">
        <ele>686.51999999999998</ele>
        <time>2018-09-17T13:17:47Z</time>
      </trkpt>
      <trkpt lat="47.247279016301036" lon="11.393344961106777">
        <ele>686.51999999999998</ele>
        <time>2018-09-17T13:17:48Z</time>
      </trkpt>
      <trkpt lat="47.247344981878996" lon="11.393201965838671">
        <ele>686.03999999999996</ele>
        <time>2018-09-17T13:17:49Z</time>
      </trkpt>
      <trkpt lat="47.247399967163801" lon="11.393055031076074">
        <ele>685.55999999999995</ele>
        <time>2018-09-17T13:17:50Z</time>
      </trkpt>
      <trkpt lat="47.247440032660961" lon="11.39285696670413">
        <ele>684.60000000000002</ele>
        <time>2018-09-17T13:17:51Z</time>
      </trkpt>
      <trkpt lat="47.247485965490341" lon="11.392628978937864">
        <ele>684.12</ele>
        <time>2018-09-17T13:17:52Z</time>
      </trkpt>
      <trkpt lat="47.247818978503346" lon="11.390623021870852">
        <ele>680.26999999999998</ele>
        <time>2018-09-17T13:17:59Z</time>
      </trkpt>
      <trkpt lat="47.247969014570117" lon="11.390142990276217">
        <ele>678.83000000000004</ele>
        <time>2018-09-17T13:18:01Z</time>
      </trkpt>
      <trkpt lat="47.248065993189812" lon="11.389950038865209">
        <ele>677.87</ele>
        <time>2018-09-17T13:18:02Z</time>
      </trkpt>
      <trkpt lat="47.248154003173113" lon="11.389773013070226">
        <ele>677.38999999999999</ele>
        <time>2018-09-17T13:18:03Z</time>
      </trkpt>
      <trkpt lat="47.248247964307666" lon="11.389625994488597">
        <ele>676.41999999999996</ele>
        <time>2018-09-17T13:18:04Z</time>
      </trkpt>
      <trkpt lat="47.248360030353069" lon="11.389509988948703">
        <ele>675.94000000000005</ele>
        <time>2018-09-17T13:18:05Z</time>
      </trkpt>
      <trkpt lat="47.248475030064583" lon="11.389392977580428">
        <ele>675.46000000000004</ele>
        <time>2018-09-17T13:18:06Z</time>
      </trkpt>
      <trkpt lat="47.248592963442206" lon="11.389272026717663">
        <ele>674.5</ele>
        <time>2018-09-17T13:18:07Z</time>
      </trkpt>
      <trkpt lat="47.248710980638862" lon="11.389149986207485">
        <ele>674.01999999999998</ele>
        <time>2018-09-17T13:18:08Z</time>
      </trkpt>
      <trkpt lat="47.249422017484903" lon="11.388545986264944">
        <ele>670.17999999999995</ele>
        <time>2018-09-17T13:18:14Z</time>
      </trkpt>
      <trkpt lat="47.249528970569372" lon="11.38851597905159">
        <ele>669.70000000000005</ele>
        <time>2018-09-17T13:18:15Z</time>
      </trkpt>
      <trkpt lat="47.249637013301253" lon="11.388529976829886">
        <ele>668.73000000000002</ele>
        <time>2018-09-17T13:18:16Z</time>
      </trkpt>
      <trkpt lat="47.249724017456174" lon="11.388610024005175">
        <ele>668.25</ele>
        <time>2018-09-17T13:18:17Z</time>
      </trkpt>
      <trkpt lat="47.249814039096236" lon="11.388699961826205">
        <ele>667.76999999999998</ele>
        <time>2018-09-17T13:18:18Z</time>
      </trkpt>
      <trkpt lat="47.249877993017435" lon="11.388825019821525">
        <ele>667.28999999999996</ele>
        <time>2018-09-17T13:18:19Z</time>
      </trkpt>
      <trkpt lat="47.249917974695563" lon="11.388997016474605">
        <ele>666.33000000000004</ele>
        <time>2018-09-17T13:18:20Z</time>
      </trkpt>
      <trkpt lat="47.249949993565679" lon="11.389186028391123">
        <ele>665.85000000000002</ele>
        <time>2018-09-17T13:18:21Z</time>
      </trkpt>
      <trkpt lat="47.249966003000736" lon="11.389403035864234">
        <ele>664.88999999999999</ele>
        <time>2018-09-17T13:18:22Z</time>
      </trkpt>
      <trkpt lat="47.250116961076856" lon="11.391189973801374">
        <ele>658.15999999999997</ele>
        <time>2018-09-17T13:18:30Z</time>
      </trkpt>
      <trkpt lat="47.250156020745635" lon="11.391354007646441">
        <ele>657.20000000000005</ele>
        <time>2018-09-17T13:18:31Z</time>
      </trkpt>
      <trkpt lat="47.250228021293879" lon="11.391490967944264">
        <ele>656.72000000000003</ele>
        <time>2018-09-17T13:18:32Z</time>
      </trkpt>
      <trkpt lat="47.250300021842122" lon="11.391627006232738">
        <ele>655.75999999999999</ele>
        <time>2018-09-17T13:18:33Z</time>
      </trkpt>
      <trkpt lat="47.250386020168662" lon="11.391724990680814">
        <ele>655.27999999999997</ele>
        <time>2018-09-17T13:18:34Z</time>
      </trkpt>
      <trkpt lat="47.25048903375864" lon="11.39180101454258">
        <ele>654.30999999999995</ele>
        <time>2018-09-17T13:18:35Z</time>
      </trkpt>
      <trkpt lat="47.250593975186348" lon="11.391877960413694">
        <ele>653.83000000000004</ele>
        <time>2018-09-17T13:18:36Z</time>
      </trkpt>
      <trkpt lat="47.250701012089849" lon="11.391923977062106">
        <ele>653.35000000000002</ele>
        <time>2018-09-17T13:18:37Z</time>
      </trkpt>
      <trkpt lat="47.250830009579659" lon="11.39193101786077">
        <ele>652.87</ele>
        <time>2018-09-17T13:18:38Z</time>
      </trkpt>
      <trkpt lat="47.25096101872623" lon="11.391937974840403">
        <ele>652.38999999999999</ele>
        <time>2018-09-17T13:18:39Z</time>
      </trkpt>
      <trkpt lat="47.251085992902517" lon="11.391917020082474">
        <ele>651.42999999999995</ele>
        <time>2018-09-17T13:18:40Z</time>
      </trkpt>
      <trkpt lat="47.251209039241076" lon="11.391849964857101">
        <ele>650.95000000000005</ele>
        <time>2018-09-17T13:18:41Z</time>
      </trkpt>
      <trkpt lat="47.251324038952589" lon="11.39175902120769">
        <ele>649.99000000000001</ele>
        <time>2018-09-17T13:18:42Z</time>
      </trkpt>
      <trkpt lat="47.251426968723536" lon="11.391643015667796">
        <ele>649.02999999999997</ele>
        <time>2018-09-17T13:18:43Z</time>
      </trkpt>
      <trkpt lat="47.251498969271779" lon="11.391489962115884">
        <ele>648.07000000000005</ele>
        <time>2018-09-17T13:18:44Z</time>
      </trkpt>
      <trkpt lat="47.251560995355248" lon="11.391335986554623">
        <ele>647.10000000000002</ele>
        <time>2018-09-17T13:18:45Z</time>
      </trkpt>
      <trkpt lat="47.251620003953576" lon="11.3911799993366">
        <ele>646.13999999999999</ele>
        <time>2018-09-17T13:18:46Z</time>
      </trkpt>
      <trkpt lat="47.251647999510169" lon="11.390998028218746">
        <ele>645.65999999999997</ele>
        <time>2018-09-17T13:18:47Z</time>
      </trkpt>
      <trkpt lat="47.251674989238381" lon="11.390819996595383">
        <ele>644.70000000000005</ele>
        <time>2018-09-17T13:18:48Z</time>
      </trkpt>
      <trkpt lat="47.251726035028696" lon="11.390483966097236">
        <ele>643.74000000000001</ele>
        <time>2018-09-17T13:18:50Z</time>
      </trkpt>
      <trkpt lat="47.251782026141882" lon="11.390238041058183">
        <ele>641.34000000000003</ele>
        <time>2018-09-17T13:18:55Z</time>
      </trkpt>
      <trkpt lat="47.25180197507143" lon="11.390146007761359">
        <ele>640.38</ele>
        <time>2018-09-17T13:19:05Z</time>
      </trkpt>
      <trkpt lat="47.25190700031817" lon="11.389830010011792">
        <ele>640.38</ele>
        <time>2018-09-17T13:19:17Z</time>
      </trkpt>
      <trkpt lat="47.251985035836697" lon="11.389639992266893">
        <ele>639.88999999999999</ele>
        <time>2018-09-17T13:19:19Z</time>
      </trkpt>
      <trkpt lat="47.252026023343205" lon="11.389539996162057">
        <ele>639.88999999999999</ele>
        <time>2018-09-17T13:19:20Z</time>
      </trkpt>
      <trkpt lat="47.252072039991617" lon="11.389513006433845">
        <ele>639.88999999999999</ele>
        <time>2018-09-17T13:19:21Z</time>
      </trkpt>
      <trkpt lat="47.252139011397958" lon="11.389475036412477">
        <ele>639.88999999999999</ele>
        <time>2018-09-17T13:19:22Z</time>
      </trkpt>
      <trkpt lat="47.252190979197621" lon="11.389463972300291">
        <ele>639.88999999999999</ele>
        <time>2018-09-17T13:19:23Z</time>
      </trkpt>
      <trkpt lat="47.25225199945271" lon="11.389506971463561">
        <ele>639.88999999999999</ele>
        <time>2018-09-17T13:19:24Z</time>
      </trkpt>
      <trkpt lat="47.252327017486095" lon="11.389561034739017">
        <ele>639.88999999999999</ele>
        <time>2018-09-17T13:19:25Z</time>
      </trkpt>
      <trkpt lat="47.252349983900785" lon="11.389643009752035">
        <ele>639.40999999999997</ele>
        <time>2018-09-17T13:19:26Z</time>
      </trkpt>
      <trkpt lat="47.252353001385927" lon="11.389775024726987">
        <ele>639.40999999999997</ele>
        <time>2018-09-17T13:19:27Z</time>
      </trkpt>
      <trkpt lat="47.252332968637347" lon="11.389858005568385">
        <ele>638.92999999999995</ele>
        <time>2018-09-17T13:19:28Z</time>
      </trkpt>
      <trkpt lat="47.252299021929502" lon="11.389979040250182">
        <ele>638.92999999999995</ele>
        <time>2018-09-17T13:19:29Z</time>
      </trkpt>
      <trkpt lat="47.252245964482427" lon="11.390070989727974">
        <ele>638.92999999999995</ele>
        <time>2018-09-17T13:19:30Z</time>
      </trkpt>
      <trkpt lat="47.252023005858064" lon="11.390614975243807">
        <ele>638.45000000000005</ele>
        <time>2018-09-17T13:19:34Z</time>
      </trkpt>
      <trkpt lat="47.251961985602975" lon="11.390804992988706">
        <ele>638.45000000000005</ele>
        <time>2018-09-17T13:19:35Z</time>
      </trkpt>
      <trkpt lat="47.251942036673427" lon="11.390977995470166">
        <ele>637.97000000000003</ele>
        <time>2018-09-17T13:19:36Z</time>
      </trkpt>
      <trkpt lat="47.251916974782944" lon="11.391191985458136">
        <ele>637.97000000000003</ele>
        <time>2018-09-17T13:19:37Z</time>
      </trkpt>
      <trkpt lat="47.251893002539873" lon="11.391404969617724">
        <ele>637.49000000000001</ele>
        <time>2018-09-17T13:19:38Z</time>
      </trkpt>
      <trkpt lat="47.251818990334868" lon="11.391978040337563">
        <ele>636.04999999999995</ele>
        <time>2018-09-17T13:19:41Z</time>
      </trkpt>
      <trkpt lat="47.25177800282836" lon="11.392138972878456">
        <ele>635.57000000000005</ele>
        <time>2018-09-17T13:19:42Z</time>
      </trkpt>
      <trkpt lat="47.251722011715174" lon="11.392294960096478">
        <ele>635.57000000000005</ele>
        <time>2018-09-17T13:19:43Z</time>
      </trkpt>
      <trkpt lat="47.251660991460085" lon="11.39244700782001">
        <ele>634.61000000000001</ele>
        <time>2018-09-17T13:19:44Z</time>
      </trkpt>
      <trkpt lat="47.251597037538886" lon="11.392608024179935">
        <ele>634.61000000000001</ele>
        <time>2018-09-17T13:19:45Z</time>
      </trkpt>
      <trkpt lat="47.251526964828372" lon="11.39272503554821">
        <ele>634.13</ele>
        <time>2018-09-17T13:19:46Z</time>
      </trkpt>
      <trkpt lat="47.251454964280128" lon="11.392845986410975">
        <ele>633.64999999999998</ele>
        <time>2018-09-17T13:19:47Z</time>
      </trkpt>
      <trkpt lat="47.251137960702181" lon="11.393377985805273">
        <ele>630.27999999999997</ele>
        <time>2018-09-17T13:19:53Z</time>
      </trkpt>
      <trkpt lat="47.251114994287491" lon="11.393416961655021">
        <ele>630.27999999999997</ele>
        <time>2018-09-17T13:19:54Z</time>
      </trkpt>
      <trkpt lat="47.251080041751266" lon="11.393476976081729">
        <ele>629.32000000000005</ele>
        <time>2018-09-17T13:19:56Z</time>
      </trkpt>
      <trkpt lat="47.251061014831066" lon="11.393508994951844">
        <ele>628.36000000000001</ele>
        <time>2018-09-17T13:19:57Z</time>
      </trkpt>
      <trkpt lat="47.251043999567628" lon="11.393539002165198">
        <ele>628.36000000000001</ele>
        <time>2018-09-17T13:19:58Z</time>
      </trkpt>
      <trkpt lat="47.251030001789331" lon="11.393561968579888">
        <ele>627.88</ele>
        <time>2018-09-17T13:19:59Z</time>
      </trkpt>
      <trkpt lat="47.251017009839416" lon="11.39358501881361">
        <ele>627.39999999999998</ele>
        <time>2018-09-17T13:20:00Z</time>
      </trkpt>
      <trkpt lat="47.251007035374641" lon="11.393603039905429">
        <ele>627.39999999999998</ele>
        <time>2018-09-17T13:20:01Z</time>
      </trkpt>
      <trkpt lat="47.251007035374641" lon="11.393603039905429">
        <ele>626.91999999999996</ele>
        <time>2018-09-17T13:20:14Z</time>
      </trkpt>
      <trkpt lat="47.251007035374641" lon="11.393603039905429">
        <ele>626.91999999999996</ele>
        <time>2018-09-17T13:20:45Z</time>
      </trkpt>
      <trkpt lat="47.251007035374641" lon="11.393603039905429">
        <ele>626.44000000000005</ele>
        <time>2018-09-17T13:21:41Z</time>
      </trkpt>
      <trkpt lat="47.251007035374641" lon="11.393603039905429">
        <ele>626.44000000000005</ele>
        <time>2018-09-17T13:22:30Z</time>
      </trkpt>
      <trkpt lat="47.251007035374641" lon="11.393603039905429">
        <ele>626.44000000000005</ele>
        <time>2018-09-17T13:23:21Z</time>
      </trkpt>
      <trkpt lat="47.251007035374641" lon="11.393603039905429">
        <ele>626.44000000000005</ele>
        <time>2018-09-17T13:24:19Z</time>
      </trkpt>
      <trkpt lat="47.25096202455461" lon="11.393680991604924">
        <ele>626.91999999999996</ele>
        <time>2018-09-17T13:25:06Z</time>
      </trkpt>
      <trkpt lat="47.25091902539134" lon="11.393756009638309">
        <ele>627.39999999999998</ele>
        <time>2018-09-17T13:25:07Z</time>
      </trkpt>
      <trkpt lat="47.250864040106535" lon="11.393851982429624">
        <ele>627.39999999999998</ele>
        <time>2018-09-17T13:25:08Z</time>
      </trkpt>
      <trkpt lat="47.25061803124845" lon="11.394356992095709">
        <ele>625.96000000000004</ele>
        <time>2018-09-17T13:25:12Z</time>
      </trkpt>
      <trkpt lat="47.250572014600039" lon="11.394523037597537">
        <ele>625.47000000000003</ele>
        <time>2018-09-17T13:25:13Z</time>
      </trkpt>
      <trkpt lat="47.250546030700207" lon="11.394670978188515">
        <ele>624.99000000000001</ele>
        <time>2018-09-17T13:25:14Z</time>
      </trkpt>
      <trkpt lat="47.250525997951627" lon="11.394838029518723">
        <ele>624.02999999999997</ele>
        <time>2018-09-17T13:25:15Z</time>
      </trkpt>
      <trkpt lat="47.25053203292191" lon="11.394992005079985">
        <ele>623.54999999999995</ele>
        <time>2018-09-17T13:25:16Z</time>
      </trkpt>
      <trkpt lat="47.250537984073162" lon="11.395144974812865">
        <ele>623.07000000000005</ele>
        <time>2018-09-17T13:25:17Z</time>
      </trkpt>
      <trkpt lat="47.250544019043446" lon="11.395297022536397">
        <ele>622.59000000000003</ele>
        <time>2018-09-17T13:25:18Z</time>
      </trkpt>
      <trkpt lat="47.250581989064813" lon="11.395457033067942">
        <ele>622.59000000000003</ele>
        <time>2018-09-17T13:25:19Z</time>
      </trkpt>
      <trkpt lat="47.250626999884844" lon="11.395613020285964">
        <ele>622.11000000000001</ele>
        <time>2018-09-17T13:25:20Z</time>
      </trkpt>
      <trkpt lat="47.250675028190017" lon="11.395774036645889">
        <ele>621.14999999999998</ele>
        <time>2018-09-17T13:25:21Z</time>
      </trkpt>
      <trkpt lat="47.250901004299521" lon="11.396623961627483">
        <ele>617.29999999999995</ele>
        <time>2018-09-17T13:25:26Z</time>
      </trkpt>
      <trkpt lat="47.250967975705862" lon="11.396978013217449">
        <ele>615.38</ele>
        <time>2018-09-17T13:25:28Z</time>
      </trkpt>
      <trkpt lat="47.250997982919216" lon="11.397157972678542">
        <ele>614.41999999999996</ele>
        <time>2018-09-17T13:25:29Z</time>
      </trkpt>
      <trkpt lat="47.251252038404346" lon="11.398868970572948">
        <ele>607.21000000000004</ele>
        <time>2018-09-17T13:25:38Z</time>
      </trkpt>
      <trkpt lat="47.251291014254093" lon="11.399045996367931">
        <ele>606.25</ele>
        <time>2018-09-17T13:25:39Z</time>
      </trkpt>
      <trkpt lat="47.251329990103841" lon="11.399222016334534">
        <ele>605.28999999999996</ele>
        <time>2018-09-17T13:25:40Z</time>
      </trkpt>
      <trkpt lat="47.251476002857089" lon="11.399662988260388">
        <ele>602.88</ele>
        <time>2018-09-17T13:25:43Z</time>
      </trkpt>
      <trkpt lat="47.251552026718855" lon="11.39977203682065">
        <ele>602.39999999999998</ele>
        <time>2018-09-17T13:25:44Z</time>
      </trkpt>
      <trkpt lat="47.251631990075111" lon="11.399832973256707">
        <ele>601.91999999999996</ele>
        <time>2018-09-17T13:25:45Z</time>
      </trkpt>
      <trkpt lat="47.251811027526855" lon="11.399886030703783">
        <ele>601.91999999999996</ele>
        <time>2018-09-17T13:25:47Z</time>
      </trkpt>
      <trkpt lat="47.251893002539873" lon="11.399896005168557">
        <ele>601.91999999999996</ele>
        <time>2018-09-17T13:25:48Z</time>
      </trkpt>
      <trkpt lat="47.251995010301471" lon="11.399854011833668">
        <ele>601.91999999999996</ele>
        <time>2018-09-17T13:25:49Z</time>
      </trkpt>
      <trkpt lat="47.253195969387889" lon="11.399330981075764">
        <ele>597.12</ele>
        <time>2018-09-17T13:26:00Z</time>
      </trkpt>
      <trkpt lat="47.253740960732102" lon="11.399045996367931">
        <ele>594.23000000000002</ele>
        <time>2018-09-17T13:26:07Z</time>
      </trkpt>
      <trkpt lat="47.253742972388864" lon="11.398967960849404">
        <ele>594.23000000000002</ele>
        <time>2018-09-17T13:26:08Z</time>
      </trkpt>
      <trkpt lat="47.253742972388864" lon="11.398882968351245">
        <ele>593.75</ele>
        <time>2018-09-17T13:26:09Z</time>
      </trkpt>
      <trkpt lat="47.253742972388864" lon="11.39878598973155">
        <ele>593.75</ele>
        <time>2018-09-17T13:26:10Z</time>
      </trkpt>
      <trkpt lat="47.253742972388864" lon="11.39867995865643">
        <ele>593.26999999999998</ele>
        <time>2018-09-17T13:26:11Z</time>
      </trkpt>
      <trkpt lat="47.253742972388864" lon="11.398564958944917">
        <ele>593.26999999999998</ele>
        <time>2018-09-17T13:26:12Z</time>
      </trkpt>
      <trkpt lat="47.253742972388864" lon="11.39730398543179">
        <ele>588.95000000000005</ele>
        <time>2018-09-17T13:26:21Z</time>
      </trkpt>
      <trkpt lat="47.253742972388864" lon="11.397029981017113">
        <ele>588.95000000000005</ele>
        <time>2018-09-17T13:26:23Z</time>
      </trkpt>
      <trkpt lat="47.253770967945457" lon="11.396897966042161">
        <ele>588.95000000000005</ele>
        <time>2018-09-17T13:26:24Z</time>
      </trkpt>
      <trkpt lat="47.253794018179178" lon="11.396789001300931">
        <ele>589.42999999999995</ele>
        <time>2018-09-17T13:26:25Z</time>
      </trkpt>
      <trkpt lat="47.253807010129094" lon="11.396727981045842">
        <ele>589.42999999999995</ele>
        <time>2018-09-17T13:26:26Z</time>
      </trkpt>
      <trkpt lat="47.253895020112395" lon="11.396639971062541">
        <ele>590.38999999999999</ele>
        <time>2018-09-17T13:26:28Z</time>
      </trkpt>
      <trkpt lat="47.254033992066979" lon="11.396567970514297">
        <ele>590.38999999999999</ele>
        <time>2018-09-17T13:26:29Z</time>
      </trkpt>
      <trkpt lat="47.254119990393519" lon="11.396555984392762">
        <ele>590.87</ele>
        <time>2018-09-17T13:26:30Z</time>
      </trkpt>
      <trkpt lat="47.254312019795179" lon="11.396531006321311">
        <ele>592.78999999999996</ele>
        <time>2018-09-17T13:26:32Z</time>
      </trkpt>
      <trkpt lat="47.255165968090296" lon="11.396469986066222">
        <ele>595.19000000000005</ele>
        <time>2018-09-17T13:26:42Z</time>
      </trkpt>
      <trkpt lat="47.255245009437203" lon="11.396469986066222">
        <ele>594.71000000000004</ele>
        <time>2018-09-17T13:26:43Z</time>
      </trkpt>
      <trkpt lat="47.255277028307319" lon="11.39646403491497">
        <ele>594.23000000000002</ele>
        <time>2018-09-17T13:26:44Z</time>
      </trkpt>
      <trkpt lat="47.255308963358402" lon="11.396457999944687">
        <ele>594.23000000000002</ele>
        <time>2018-09-17T13:26:45Z</time>
      </trkpt>
      <trkpt lat="47.255332013592124" lon="11.396452970802784">
        <ele>594.23000000000002</ele>
        <time>2018-09-17T13:26:46Z</time>
      </trkpt>
      <trkpt lat="47.255352968350053" lon="11.396449031308293">
        <ele>593.75</ele>
        <time>2018-09-17T13:26:47Z</time>
      </trkpt>
      <trkpt lat="47.255556983873248" lon="11.396408965811133">
        <ele>592.30999999999995</ele>
        <time>2018-09-17T13:26:58Z</time>
      </trkpt>
      <trkpt lat="47.25588102824986" lon="11.396346017718315">
        <ele>591.35000000000002</ele>
        <time>2018-09-17T13:27:02Z</time>
      </trkpt>
      <trkpt lat="47.255941964685917" lon="11.39633403159678">
        <ele>591.35000000000002</ele>
        <time>2018-09-17T13:27:03Z</time>
      </trkpt>
      <trkpt lat="47.256112033501267" lon="11.396301006898284">
        <ele>589.90999999999997</ele>
        <time>2018-09-17T13:27:07Z</time>
      </trkpt>
      <trkpt lat="47.256170036271214" lon="11.396289020776749">
        <ele>589.42999999999995</ele>
        <time>2018-09-17T13:27:08Z</time>
      </trkpt>
      <trkpt lat="47.256237007677555" lon="11.396275022998452">
        <ele>588.95000000000005</ele>
        <time>2018-09-17T13:27:09Z</time>
      </trkpt>
      <trkpt lat="47.256368016824126" lon="11.396135967224836">
        <ele>588.95000000000005</ele>
        <time>2018-09-17T13:27:10Z</time>
      </trkpt>
      <trkpt lat="47.25637698546052" lon="11.396018033847213">
        <ele>588.46000000000004</ele>
        <time>2018-09-17T13:27:11Z</time>
      </trkpt>
      <trkpt lat="47.256382014602423" lon="11.395955001935363">
        <ele>588.46000000000004</ele>
        <time>2018-09-17T13:27:12Z</time>
      </trkpt>
      <trkpt lat="47.256359970197082" lon="11.395740006119013">
        <ele>588.46000000000004</ele>
        <time>2018-09-17T13:27:13Z</time>
      </trkpt>
      <trkpt lat="47.25635401904583" lon="11.395579995587468">
        <ele>588.46000000000004</ele>
        <time>2018-09-17T13:27:14Z</time>
      </trkpt>
      <trkpt lat="47.256348989903927" lon="11.395410010591149">
        <ele>587.5</ele>
        <time>2018-09-17T13:27:15Z</time>
      </trkpt>
      <trkpt lat="47.256343038752675" lon="11.395242959260941">
        <ele>587.01999999999998</ele>
        <time>2018-09-17T13:27:16Z</time>
      </trkpt>
      <trkpt lat="47.256220998242497" lon="11.393127031624317">
        <ele>586.53999999999996</ele>
        <time>2018-09-17T13:27:29Z</time>
      </trkpt>
      <trkpt lat="47.25618302822113" lon="11.392714977264404">
        <ele>586.05999999999995</ele>
        <time>2018-09-17T13:27:33Z</time>
      </trkpt>
      <trkpt lat="47.256177999079227" lon="11.392655968666077">
        <ele>585.58000000000004</ele>
        <time>2018-09-17T13:27:34Z</time>
      </trkpt>
      <trkpt lat="47.256172969937325" lon="11.392605006694794">
        <ele>585.58000000000004</ele>
        <time>2018-09-17T13:27:35Z</time>
      </trkpt>
      <trkpt lat="47.256170036271214" lon="11.392567036673427">
        <ele>585.58000000000004</ele>
        <time>2018-09-17T13:27:36Z</time>
      </trkpt>
      <trkpt lat="47.256166012957692" lon="11.392530994489789">
        <ele>585.58000000000004</ele>
        <time>2018-09-17T13:27:37Z</time>
      </trkpt>
      <trkpt lat="47.25616299547255" lon="11.392498975619674">
        <ele>585.10000000000002</ele>
        <time>2018-09-17T13:27:38Z</time>
      </trkpt>
      <trkpt lat="47.25616299547255" lon="11.392498975619674">
        <ele>584.62</ele>
        <time>2018-09-17T13:27:48Z</time>
      </trkpt>
      <trkpt lat="47.256136005744338" lon="11.392197981476784">
        <ele>585.58000000000004</ele>
        <time>2018-09-17T13:28:08Z</time>
      </trkpt>
      <trkpt lat="47.256102981045842" lon="11.391302961856127">
        <ele>585.58000000000004</ele>
        <time>2018-09-17T13:28:15Z</time>
      </trkpt>
      <trkpt lat="47.256241030991077" lon="11.389795979484916">
        <ele>584.13999999999999</ele>
        <time>2018-09-17T13:28:24Z</time>
      </trkpt>
      <trkpt lat="47.256317976862192" lon="11.389475036412477">
        <ele>584.13999999999999</ele>
        <time>2018-09-17T13:28:26Z</time>
      </trkpt>
      <trkpt lat="47.25635401904583" lon="11.389326006174088">
        <ele>583.65999999999997</ele>
        <time>2018-09-17T13:28:27Z</time>
      </trkpt>
      <trkpt lat="47.256388971582055" lon="11.389178987592459">
        <ele>583.17999999999995</ele>
        <time>2018-09-17T13:28:28Z</time>
      </trkpt>
      <trkpt lat="47.256768001243472" lon="11.387951960787177">
        <ele>581.73000000000002</ele>
        <time>2018-09-17T13:28:38Z</time>
      </trkpt>
      <trkpt lat="47.256802031770349" lon="11.387792034074664">
        <ele>581.25</ele>
        <time>2018-09-17T13:28:40Z</time>
      </trkpt>
      <trkpt lat="47.256815023720264" lon="11.387731013819575">
        <ele>581.25</ele>
        <time>2018-09-17T13:28:41Z</time>
      </trkpt>
      <trkpt lat="47.256824998185039" lon="11.387684997171164">
        <ele>580.76999999999998</ele>
        <time>2018-09-17T13:28:42Z</time>
      </trkpt>
      <trkpt lat="47.256833966821432" lon="11.387647027149796">
        <ele>580.76999999999998</ele>
        <time>2018-09-17T13:28:43Z</time>
      </trkpt>
      <trkpt lat="47.256841007620096" lon="11.387609979137778">
        <ele>580.28999999999996</ele>
        <time>2018-09-17T13:28:44Z</time>
      </trkpt>
      <trkpt lat="47.256846958771348" lon="11.387582989409566">
        <ele>580.28999999999996</ele>
        <time>2018-09-17T13:28:45Z</time>
      </trkpt>
      <trkpt lat="47.256846958771348" lon="11.387582989409566">
        <ele>579.80999999999995</ele>
        <time>2018-09-17T13:28:56Z</time>
      </trkpt>
      <trkpt lat="47.25685098208487" lon="11.387566979974508">
        <ele>579.80999999999995</ele>
        <time>2018-09-17T13:28:59Z</time>
      </trkpt>
      <trkpt lat="47.256880989298224" lon="11.387427002191544">
        <ele>578.85000000000002</ele>
        <time>2018-09-17T13:29:01Z</time>
      </trkpt>
      <trkpt lat="47.256905967369676" lon="11.387308984994888">
        <ele>578.85000000000002</ele>
        <time>2018-09-17T13:29:02Z</time>
      </trkpt>
      <trkpt lat="47.257134960964322" lon="11.386164017021656">
        <ele>578.37</ele>
        <time>2018-09-17T13:29:09Z</time>
      </trkpt>
      <trkpt lat="47.257192963734269" lon="11.385770989581943">
        <ele>576.45000000000005</ele>
        <time>2018-09-17T13:29:11Z</time>
      </trkpt>
      <trkpt lat="47.25721500813961" lon="11.385580971837044">
        <ele>575.49000000000001</ele>
        <time>2018-09-17T13:29:12Z</time>
      </trkpt>
      <trkpt lat="47.25723504088819" lon="11.38539900071919">
        <ele>574.03999999999996</ele>
        <time>2018-09-17T13:29:13Z</time>
      </trkpt>
      <trkpt lat="47.257393039762974" lon="11.384050017222762">
        <ele>569.24000000000001</ele>
        <time>2018-09-17T13:29:21Z</time>
      </trkpt>
      <trkpt lat="47.257437966763973" lon="11.383700994774699">
        <ele>568.75999999999999</ele>
        <time>2018-09-17T13:29:24Z</time>
      </trkpt>
      <trkpt lat="47.257494041696191" lon="11.38342103920877">
        <ele>568.27999999999997</ele>
        <time>2018-09-17T13:29:28Z</time>
      </trkpt>
      <trkpt lat="47.257511978968978" lon="11.383354989811778">
        <ele>568.27999999999997</ele>
        <time>2018-09-17T13:29:29Z</time>
      </trkpt>
      <trkpt lat="47.257533017545938" lon="11.38327200897038">
        <ele>567.79999999999995</ele>
        <time>2018-09-17T13:29:30Z</time>
      </trkpt>
      <trkpt lat="47.257560007274151" lon="11.383167989552021">
        <ele>567.32000000000005</ele>
        <time>2018-09-17T13:29:31Z</time>
      </trkpt>
      <trkpt lat="47.257589008659124" lon="11.383052989840508">
        <ele>567.32000000000005</ele>
        <time>2018-09-17T13:29:32Z</time>
      </trkpt>
      <trkpt lat="47.257758993655443" lon="11.382557032629848">
        <ele>566.35000000000002</ele>
        <time>2018-09-17T13:29:36Z</time>
      </trkpt>
      <trkpt lat="47.258136011660099" lon="11.38179000467062">
        <ele>563.47000000000003</ele>
        <time>2018-09-17T13:29:44Z</time>
      </trkpt>
      <trkpt lat="47.258168030530214" lon="11.38172403909266">
        <ele>563.47000000000003</ele>
        <time>2018-09-17T13:29:45Z</time>
      </trkpt>
      <trkpt lat="47.258197031915188" lon="11.381666036322713">
        <ele>563.47000000000003</ele>
        <time>2018-09-17T13:29:46Z</time>
      </trkpt>
      <trkpt lat="47.258222009986639" lon="11.381613984704018">
        <ele>563.47000000000003</ele>
        <time>2018-09-17T13:29:47Z</time>
      </trkpt>
      <trkpt lat="47.25824598222971" lon="11.381565034389496">
        <ele>563.47000000000003</ele>
        <time>2018-09-17T13:29:48Z</time>
      </trkpt>
      <trkpt lat="47.258334998041391" lon="11.381384991109371">
        <ele>563.47000000000003</ele>
        <time>2018-09-17T13:29:49Z</time>
      </trkpt>
      <trkpt lat="47.258297028020024" lon="11.381462020799518">
        <ele>563.47000000000003</ele>
        <time>2018-09-17T13:29:50Z</time>
      </trkpt>
      <trkpt lat="47.258321000263095" lon="11.381412986665964">
        <ele>563.95000000000005</ele>
        <time>2018-09-17T13:29:51Z</time>
      </trkpt>
      <trkpt lat="47.258394006639719" lon="11.381265968084335">
        <ele>565.38999999999999</ele>
        <time>2018-09-17T13:30:00Z</time>
      </trkpt>
      <trkpt lat="47.258412027731538" lon="11.38123101554811">
        <ele>566.35000000000002</ele>
        <time>2018-09-17T13:30:07Z</time>
      </trkpt>
      <trkpt lat="47.258428959175944" lon="11.381197990849614">
        <ele>566.83000000000004</ele>
        <time>2018-09-17T13:30:08Z</time>
      </trkpt>
      <trkpt lat="47.258453015238047" lon="11.381149962544441">
        <ele>567.32000000000005</ele>
        <time>2018-09-17T13:30:09Z</time>
      </trkpt>
      <trkpt lat="47.2586730401963" lon="11.380708990618587">
        <ele>569.72000000000003</ele>
        <time>2018-09-17T13:30:19Z</time>
      </trkpt>
      <trkpt lat="47.258703969419003" lon="11.380646964535117">
        <ele>569.72000000000003</ele>
        <time>2018-09-17T13:30:20Z</time>
      </trkpt>
      <trkpt lat="47.258829027414322" lon="11.380368014797568">
        <ele>571.63999999999999</ele>
        <time>2018-09-17T13:30:23Z</time>
      </trkpt>
      <trkpt lat="47.259373012930155" lon="11.37899799272418">
        <ele>577.40999999999997</ele>
        <time>2018-09-17T13:30:33Z</time>
      </trkpt>
      <trkpt lat="47.260336009785533" lon="11.377462008967996">
        <ele>573.55999999999995</ele>
        <time>2018-09-17T13:30:44Z</time>
      </trkpt>
      <trkpt lat="47.261432027444243" lon="11.376241017132998">
        <ele>571.15999999999997</ele>
        <time>2018-09-17T13:30:54Z</time>
      </trkpt>
      <trkpt lat="47.26247800514102" lon="11.375656966120005">
        <ele>570.67999999999995</ele>
        <time>2018-09-17T13:31:04Z</time>
      </trkpt>
      <trkpt lat="47.262556040659547" lon="11.375616984441876">
        <ele>571.15999999999997</ele>
        <time>2018-09-17T13:31:05Z</time>
      </trkpt>
      <trkpt lat="47.26262804120779" lon="11.37558002024889">
        <ele>572.12</ele>
        <time>2018-09-17T13:31:06Z</time>
      </trkpt>
      <trkpt lat="47.262761984020472" lon="11.375512965023518">
        <ele>574.52999999999997</ele>
        <time>2018-09-17T13:31:12Z</time>
      </trkpt>
      <trkpt lat="47.262797020375729" lon="11.37549402192235">
        <ele>575.00999999999999</ele>
        <time>2018-09-17T13:31:19Z</time>
      </trkpt>
      <trkpt lat="47.262829961255193" lon="11.375476000830531">
        <ele>575.49000000000001</ele>
        <time>2018-09-17T13:31:20Z</time>
      </trkpt>
      <trkpt lat="47.26288796402514" lon="11.375443981960416">
        <ele>575.97000000000003</ele>
        <time>2018-09-17T13:31:21Z</time>
      </trkpt>
      <trkpt lat="47.263591960072517" lon="11.375096971169114">
        <ele>577.40999999999997</ele>
        <time>2018-09-17T13:31:28Z</time>
      </trkpt>
      <trkpt lat="47.263711988925934" lon="11.375062018632889">
        <ele>577.88999999999999</ele>
        <time>2018-09-17T13:31:29Z</time>
      </trkpt>
      <trkpt lat="47.26383101195097" lon="11.375037962570786">
        <ele>577.88999999999999</ele>
        <time>2018-09-17T13:31:30Z</time>
      </trkpt>
      <trkpt lat="47.2639399766922" lon="11.375056989490986">
        <ele>578.37</ele>
        <time>2018-09-17T13:31:31Z</time>
      </trkpt>
      <trkpt lat="47.2640470135957" lon="11.375076016411185">
        <ele>578.37</ele>
        <time>2018-09-17T13:31:32Z</time>
      </trkpt>
      <trkpt lat="47.264170981943607" lon="11.375097976997495">
        <ele>578.85000000000002</ele>
        <time>2018-09-17T13:31:33Z</time>
      </trkpt>
      <trkpt lat="47.26424197666347" lon="11.375120021402836">
        <ele>579.33000000000004</ele>
        <time>2018-09-17T13:31:34Z</time>
      </trkpt>
      <trkpt lat="47.264530984684825" lon="11.375206019729376">
        <ele>581.25</ele>
        <time>2018-09-17T13:31:40Z</time>
      </trkpt>
      <trkpt lat="47.264530984684825" lon="11.375206019729376">
        <ele>581.25</ele>
        <time>2018-09-17T13:32:09Z</time>
      </trkpt>
      <trkpt lat="47.264612959697843" lon="11.375228986144066">
        <ele>582.22000000000003</ele>
        <time>2018-09-17T13:32:56Z</time>
      </trkpt>
      <trkpt lat="47.264891993254423" lon="11.375266034156084">
        <ele>579.80999999999995</ele>
        <time>2018-09-17T13:33:03Z</time>
      </trkpt>
      <trkpt lat="47.264937004074454" lon="11.375269973650575">
        <ele>579.33000000000004</ele>
        <time>2018-09-17T13:33:04Z</time>
      </trkpt>
      <trkpt lat="47.264978997409344" lon="11.375269973650575">
        <ele>578.37</ele>
        <time>2018-09-17T13:33:05Z</time>
      </trkpt>
      <trkpt lat="47.265050997957587" lon="11.375186992809176">
        <ele>577.40999999999997</ele>
        <time>2018-09-17T13:33:06Z</time>
      </trkpt>
      <trkpt lat="47.265050997957587" lon="11.375114992260933">
        <ele>576.92999999999995</ele>
        <time>2018-09-17T13:33:07Z</time>
      </trkpt>
      <trkpt lat="47.265054015442729" lon="11.37502396479249">
        <ele>576.45000000000005</ele>
        <time>2018-09-17T13:33:08Z</time>
      </trkpt>
      <trkpt lat="47.265057032927871" lon="11.374919023364782">
        <ele>575.49000000000001</ele>
        <time>2018-09-17T13:33:09Z</time>
      </trkpt>
      <trkpt lat="47.265059966593981" lon="11.374801006168127">
        <ele>575.00999999999999</ele>
        <time>2018-09-17T13:33:10Z</time>
      </trkpt>
      <trkpt lat="47.265074970200658" lon="11.374259032309055">
        <ele>573.08000000000004</ele>
        <time>2018-09-17T13:33:15Z</time>
      </trkpt>
      <trkpt lat="47.265083016827703" lon="11.373970024287701">
        <ele>573.08000000000004</ele>
        <time>2018-09-17T13:33:19Z</time>
      </trkpt>
      <trkpt lat="47.265079999342561" lon="11.37328295968473">
        <ele>574.03999999999996</ele>
        <time>2018-09-17T13:33:25Z</time>
      </trkpt>
      <trkpt lat="47.265070024877787" lon="11.373052038252354">
        <ele>575.00999999999999</ele>
        <time>2018-09-17T13:33:32Z</time>
      </trkpt>
      <trkpt lat="47.265068013221025" lon="11.373020019382238">
        <ele>575.00999999999999</ele>
        <time>2018-09-17T13:33:54Z</time>
      </trkpt>
      <trkpt lat="47.265041023492813" lon="11.372408978641033">
        <ele>575.00999999999999</ele>
        <time>2018-09-17T13:34:01Z</time>
      </trkpt>
      <trkpt lat="47.264996012672782" lon="11.371628036722541">
        <ele>577.88999999999999</ele>
        <time>2018-09-17T13:34:07Z</time>
      </trkpt>
      <trkpt lat="47.264986960217357" lon="11.371471965685487">
        <ele>577.88999999999999</ele>
        <time>2018-09-17T13:34:08Z</time>
      </trkpt>
      <trkpt lat="47.264914037659764" lon="11.370653975754976">
        <ele>579.80999999999995</ele>
        <time>2018-09-17T13:34:16Z</time>
      </trkpt>
      <trkpt lat="47.264742963016033" lon="11.369226034730673">
        <ele>581.25</ele>
        <time>2018-09-17T13:34:28Z</time>
      </trkpt>
      <trkpt lat="47.264514975249767" lon="11.367440018802881">
        <ele>581.73000000000002</ele>
        <time>2018-09-17T13:34:39Z</time>
      </trkpt>
      <trkpt lat="47.264386983588338" lon="11.366437040269375">
        <ele>583.17999999999995</ele>
        <time>2018-09-17T13:34:45Z</time>
      </trkpt>
      <trkpt lat="47.26432797499001" lon="11.365981986746192">
        <ele>583.65999999999997</ele>
        <time>2018-09-17T13:34:48Z</time>
      </trkpt>
      <trkpt lat="47.264309031888843" lon="11.365835973992944">
        <ele>584.13999999999999</ele>
        <time>2018-09-17T13:34:49Z</time>
      </trkpt>
      <trkpt lat="47.264235019683838" lon="11.365302968770266">
        <ele>584.62</ele>
        <time>2018-09-17T13:34:55Z</time>
      </trkpt>
      <trkpt lat="47.264224961400032" lon="11.365239014849067">
        <ele>584.13999999999999</ele>
        <time>2018-09-17T13:35:04Z</time>
      </trkpt>
      <trkpt lat="47.2641989775002" lon="11.365073975175619">
        <ele>584.13999999999999</ele>
        <time>2018-09-17T13:35:34Z</time>
      </trkpt>
      <trkpt lat="47.264185985550284" lon="11.364987976849079">
        <ele>584.13999999999999</ele>
        <time>2018-09-17T13:35:35Z</time>
      </trkpt>
      <trkpt lat="47.26394098252058" lon="11.363983992487192">
        <ele>584.62</ele>
        <time>2018-09-17T13:35:45Z</time>
      </trkpt>
      <trkpt lat="47.263726992532611" lon="11.362393023446202">
        <ele>585.58000000000004</ele>
        <time>2018-09-17T13:35:55Z</time>
      </trkpt>
      <trkpt lat="47.263597995042801" lon="11.360407015308738">
        <ele>584.62</ele>
        <time>2018-09-17T13:36:04Z</time>
      </trkpt>
      <trkpt lat="47.263583997264504" lon="11.36019797064364">
        <ele>584.62</ele>
        <time>2018-09-17T13:36:05Z</time>
      </trkpt>
      <trkpt lat="47.263428010046482" lon="11.358272982761264">
        <ele>583.17999999999995</ele>
        <time>2018-09-17T13:36:15Z</time>
      </trkpt>
      <trkpt lat="47.263265987858176" lon="11.355971982702613">
        <ele>581.73000000000002</ele>
        <time>2018-09-17T13:36:27Z</time>
      </trkpt>
      <trkpt lat="47.263171020895243" lon="11.354577988386154">
        <ele>581.25</ele>
        <time>2018-09-17T13:36:32Z</time>
      </trkpt>
      <trkpt lat="47.263082005083561" lon="11.353270998224616">
        <ele>581.73000000000002</ele>
        <time>2018-09-17T13:36:40Z</time>
      </trkpt>
      <trkpt lat="47.263035988435149" lon="11.352492989972234">
        <ele>581.73000000000002</ele>
        <time>2018-09-17T13:36:47Z</time>
      </trkpt>
      <trkpt lat="47.263039005920291" lon="11.352425012737513">
        <ele>582.22000000000003</ele>
        <time>2018-09-17T13:36:48Z</time>
      </trkpt>
      <trkpt lat="47.263041017577052" lon="11.352351000532508">
        <ele>582.22000000000003</ele>
        <time>2018-09-17T13:36:49Z</time>
      </trkpt>
      <trkpt lat="47.263072030618787" lon="11.35149797424674">
        <ele>582.22000000000003</ele>
        <time>2018-09-17T13:36:56Z</time>
      </trkpt>
      <trkpt lat="47.263012016192079" lon="11.35016500018537">
        <ele>581.73000000000002</ele>
        <time>2018-09-17T13:37:05Z</time>
      </trkpt>
      <trkpt lat="47.262921994552016" lon="11.348922969773412">
        <ele>580.28999999999996</ele>
        <time>2018-09-17T13:37:10Z</time>
      </trkpt>
      <trkpt lat="47.262786962091923" lon="11.346813999116421">
        <ele>577.40999999999997</ele>
        <time>2018-09-17T13:37:20Z</time>
      </trkpt>
      <trkpt lat="47.262585964053869" lon="11.344232959672809">
        <ele>579.33000000000004</ele>
        <time>2018-09-17T13:37:32Z</time>
      </trkpt>
      <trkpt lat="47.262468030676246" lon="11.342454990372062">
        <ele>581.25</ele>
        <time>2018-09-17T13:37:40Z</time>
      </trkpt>
      <trkpt lat="47.262330986559391" lon="11.340488009154797">
        <ele>584.13999999999999</ele>
        <time>2018-09-17T13:37:50Z</time>
      </trkpt>
      <trkpt lat="47.262283964082599" lon="11.33991401642561">
        <ele>584.13999999999999</ele>
        <time>2018-09-17T13:37:54Z</time>
      </trkpt>
      <trkpt lat="47.262308020144701" lon="11.339782001450658">
        <ele>584.13999999999999</ele>
        <time>2018-09-17T13:37:55Z</time>
      </trkpt>
      <trkpt lat="47.262330986559391" lon="11.339668007567525">
        <ele>584.13999999999999</ele>
        <time>2018-09-17T13:37:56Z</time>
      </trkpt>
      <trkpt lat="47.262399969622493" lon="11.339451000094414">
        <ele>584.13999999999999</ele>
        <time>2018-09-17T13:37:58Z</time>
      </trkpt>
      <trkpt lat="47.262400975450873" lon="11.339342035353184">
        <ele>584.62</ele>
        <time>2018-09-17T13:37:59Z</time>
      </trkpt>
      <trkpt lat="47.26232604123652" lon="11.339242961257696">
        <ele>584.62</ele>
        <time>2018-09-17T13:38:00Z</time>
      </trkpt>
      <trkpt lat="47.262289999052882" lon="11.339156040921807">
        <ele>584.62</ele>
        <time>2018-09-17T13:38:01Z</time>
      </trkpt>
      <trkpt lat="47.262237025424838" lon="11.339028971269727">
        <ele>584.13999999999999</ele>
        <time>2018-09-17T13:38:02Z</time>
      </trkpt>
      <trkpt lat="47.262209029868245" lon="11.338847000151873">
        <ele>584.13999999999999</ele>
        <time>2018-09-17T13:38:03Z</time>
      </trkpt>
      <trkpt lat="47.262196037918329" lon="11.338663017377257">
        <ele>584.13999999999999</ele>
        <time>2018-09-17T13:38:04Z</time>
      </trkpt>
      <trkpt lat="47.262182040140033" lon="11.338472999632359">
        <ele>584.13999999999999</ele>
        <time>2018-09-17T13:38:05Z</time>
      </trkpt>
      <trkpt lat="47.26204801350832" lon="11.336706010624766">
        <ele>584.13999999999999</ele>
        <time>2018-09-17T13:38:13Z</time>
      </trkpt>
      <trkpt lat="47.26181298494339" lon="11.333774020895362">
        <ele>587.01999999999998</ele>
        <time>2018-09-17T13:38:23Z</time>
      </trkpt>
      <trkpt lat="47.261779960244894" lon="11.331762028858066">
        <ele>591.83000000000004</ele>
        <time>2018-09-17T13:38:30Z</time>
      </trkpt>
      <trkpt lat="47.262154966592789" lon="11.329927984625101">
        <ele>593.75</ele>
        <time>2018-09-17T13:38:39Z</time>
      </trkpt>
      <trkpt lat="47.262594010680914" lon="11.328399963676929">
        <ele>595.19000000000005</ele>
        <time>2018-09-17T13:38:48Z</time>
      </trkpt>
      <trkpt lat="47.262872960418463" lon="11.327760005369782">
        <ele>598.08000000000004</ele>
        <time>2018-09-17T13:38:53Z</time>
      </trkpt>
      <trkpt lat="47.26293196901679" lon="11.327624972909689">
        <ele>599.03999999999996</ele>
        <time>2018-09-17T13:38:54Z</time>
      </trkpt>
      <trkpt lat="47.262991983443499" lon="11.327488012611866">
        <ele>600.48000000000002</ele>
        <time>2018-09-17T13:38:55Z</time>
      </trkpt>
      <trkpt lat="47.263591038063169" lon="11.325914980843663">
        <ele>608.64999999999998</ele>
        <time>2018-09-17T13:39:05Z</time>
      </trkpt>
      <trkpt lat="47.263687010854483" lon="11.325780032202601">
        <ele>609.61000000000001</ele>
        <time>2018-09-17T13:39:06Z</time>
      </trkpt>
      <trkpt lat="47.263792958110571" lon="11.32564801722765">
        <ele>610.57000000000005</ele>
        <time>2018-09-17T13:39:07Z</time>
      </trkpt>
      <trkpt lat="47.264816975221038" lon="11.324755009263754">
        <ele>615.86000000000001</ele>
        <time>2018-09-17T13:39:16Z</time>
      </trkpt>
      <trkpt lat="47.265172032639384" lon="11.324561974033713">
        <ele>616.82000000000005</ele>
        <time>2018-09-17T13:39:19Z</time>
      </trkpt>
      <trkpt lat="47.265282003208995" lon="11.324485028162599">
        <ele>616.82000000000005</ele>
        <time>2018-09-17T13:39:20Z</time>
      </trkpt>
      <trkpt lat="47.265389962121844" lon="11.324376985430717">
        <ele>616.82000000000005</ele>
        <time>2018-09-17T13:39:21Z</time>
      </trkpt>
      <trkpt lat="47.265479983761907" lon="11.324233990162611">
        <ele>616.82000000000005</ele>
        <time>2018-09-17T13:39:22Z</time>
      </trkpt>
      <trkpt lat="47.265566987916827" lon="11.324076997116208">
        <ele>616.82000000000005</ele>
        <time>2018-09-17T13:39:23Z</time>
      </trkpt>
      <trkpt lat="47.265940988436341" lon="11.323439972475171">
        <ele>616.34000000000003</ele>
        <time>2018-09-17T13:39:27Z</time>
      </trkpt>
      <trkpt lat="47.266053976491094" lon="11.323296977207065">
        <ele>616.34000000000003</ele>
        <time>2018-09-17T13:39:28Z</time>
      </trkpt>
      <trkpt lat="47.266179034486413" lon="11.323174014687538">
        <ele>616.34000000000003</ele>
        <time>2018-09-17T13:39:29Z</time>
      </trkpt>
      <trkpt lat="47.266317000612617" lon="11.323063960298896">
        <ele>616.34000000000003</ele>
        <time>2018-09-17T13:39:30Z</time>
      </trkpt>
      <trkpt lat="47.266456978395581" lon="11.322971004992723">
        <ele>616.82000000000005</ele>
        <time>2018-09-17T13:39:31Z</time>
      </trkpt>
      <trkpt lat="47.267487030476332" lon="11.322267008945346">
        <ele>616.82000000000005</ele>
        <time>2018-09-17T13:39:38Z</time>
      </trkpt>
      <trkpt lat="47.267626002430916" lon="11.322141028940678">
        <ele>617.29999999999995</ele>
        <time>2018-09-17T13:39:39Z</time>
      </trkpt>
      <trkpt lat="47.267719963565469" lon="11.321984035894275">
        <ele>617.29999999999995</ele>
        <time>2018-09-17T13:39:40Z</time>
      </trkpt>
      <trkpt lat="47.267821971327066" lon="11.321807010099292">
        <ele>617.77999999999997</ele>
        <time>2018-09-17T13:39:41Z</time>
      </trkpt>
      <trkpt lat="47.267881985753775" lon="11.321596959605813">
        <ele>617.77999999999997</ele>
        <time>2018-09-17T13:39:42Z</time>
      </trkpt>
      <trkpt lat="47.267908975481987" lon="11.321368971839547">
        <ele>617.77999999999997</ele>
        <time>2018-09-17T13:39:43Z</time>
      </trkpt>
      <trkpt lat="47.26791400462389" lon="11.321133021265268">
        <ele>617.77999999999997</ele>
        <time>2018-09-17T13:39:44Z</time>
      </trkpt>
      <trkpt lat="47.267920039594173" lon="11.320892041549087">
        <ele>617.77999999999997</ele>
        <time>2018-09-17T13:39:45Z</time>
      </trkpt>
      <trkpt lat="47.267924984917045" lon="11.320646032691002">
        <ele>617.77999999999997</ele>
        <time>2018-09-17T13:39:46Z</time>
      </trkpt>
      <trkpt lat="47.267675958573818" lon="11.317971032112837">
        <ele>616.34000000000003</ele>
        <time>2018-09-17T13:39:56Z</time>
      </trkpt>
      <trkpt lat="47.267569005489349" lon="11.315940013155341">
        <ele>613.94000000000005</ele>
        <time>2018-09-17T13:40:03Z</time>
      </trkpt>
      <trkpt lat="47.26750697940588" lon="11.315663997083902">
        <ele>613.94000000000005</ele>
        <time>2018-09-17T13:40:04Z</time>
      </trkpt>
      <trkpt lat="47.267412012442946" lon="11.315414970740676">
        <ele>613.46000000000004</ele>
        <time>2018-09-17T13:40:05Z</time>
      </trkpt>
      <trkpt lat="47.267303969711065" lon="11.315168039873242">
        <ele>612.98000000000002</ele>
        <time>2018-09-17T13:40:06Z</time>
      </trkpt>
      <trkpt lat="47.267182013019919" lon="11.314935022965074">
        <ele>612.98000000000002</ele>
        <time>2018-09-17T13:40:07Z</time>
      </trkpt>
      <trkpt lat="47.267057038843632" lon="11.314695971086621">
        <ele>612.98000000000002</ele>
        <time>2018-09-17T13:40:08Z</time>
      </trkpt>
      <trkpt lat="47.266932986676693" lon="11.314458008855581">
        <ele>612.5</ele>
        <time>2018-09-17T13:40:09Z</time>
      </trkpt>
      <trkpt lat="47.266814969480038" lon="11.314201019704342">
        <ele>612.5</ele>
        <time>2018-09-17T13:40:10Z</time>
      </trkpt>
      <trkpt lat="47.266740035265684" lon="11.313912011682987">
        <ele>612.01999999999998</ele>
        <time>2018-09-17T13:40:11Z</time>
      </trkpt>
      <trkpt lat="47.266335021704435" lon="11.31222297437489">
        <ele>610.09000000000003</ele>
        <time>2018-09-17T13:40:17Z</time>
      </trkpt>
      <trkpt lat="47.266304008662701" lon="11.31196103990078">
        <ele>609.61000000000001</ele>
        <time>2018-09-17T13:40:18Z</time>
      </trkpt>
      <trkpt lat="47.266311971470714" lon="11.311687035486102">
        <ele>609.61000000000001</ele>
        <time>2018-09-17T13:40:19Z</time>
      </trkpt>
      <trkpt lat="47.266381038352847" lon="11.310864016413689">
        <ele>609.13</ele>
        <time>2018-09-17T13:40:22Z</time>
      </trkpt>
      <trkpt lat="47.266332004219294" lon="11.310596968978643">
        <ele>608.64999999999998</ele>
        <time>2018-09-17T13:40:23Z</time>
      </trkpt>
      <trkpt lat="47.26628003641963" lon="11.31033000536263">
        <ele>608.64999999999998</ele>
        <time>2018-09-17T13:40:24Z</time>
      </trkpt>
      <trkpt lat="47.266212981194258" lon="11.310063963755965">
        <ele>608.16999999999996</ele>
        <time>2018-09-17T13:40:25Z</time>
      </trkpt>
      <trkpt lat="47.266127988696098" lon="11.309794988483191">
        <ele>608.16999999999996</ele>
        <time>2018-09-17T13:40:26Z</time>
      </trkpt>
      <trkpt lat="47.266011983156204" lon="11.309551997110248">
        <ele>608.16999999999996</ele>
        <time>2018-09-17T13:40:27Z</time>
      </trkpt>
      <trkpt lat="47.265889020636678" lon="11.309301964938641">
        <ele>607.69000000000005</ele>
        <time>2018-09-17T13:40:28Z</time>
      </trkpt>
      <trkpt lat="47.265455005690455" lon="11.308348020538688">
        <ele>607.69000000000005</ele>
        <time>2018-09-17T13:40:32Z</time>
      </trkpt>
      <trkpt lat="47.265374036505818" lon="11.308092037215829">
        <ele>607.21000000000004</ele>
        <time>2018-09-17T13:40:33Z</time>
      </trkpt>
      <trkpt lat="47.265322990715504" lon="11.307814009487629">
        <ele>607.21000000000004</ele>
        <time>2018-09-17T13:40:34Z</time>
      </trkpt>
      <trkpt lat="47.265282003208995" lon="11.307520978152752">
        <ele>606.73000000000002</ele>
        <time>2018-09-17T13:40:35Z</time>
      </trkpt>
      <trkpt lat="47.265241015702486" lon="11.307224007323384">
        <ele>606.25</ele>
        <time>2018-09-17T13:40:36Z</time>
      </trkpt>
      <trkpt lat="47.265198016539216" lon="11.30691597238183">
        <ele>605.76999999999998</ele>
        <time>2018-09-17T13:40:37Z</time>
      </trkpt>
      <trkpt lat="47.265136996284127" lon="11.306294035166502">
        <ele>605.28999999999996</ele>
        <time>2018-09-17T13:40:39Z</time>
      </trkpt>
      <trkpt lat="47.265117969363928" lon="11.305979965254664">
        <ele>604.80999999999995</ele>
        <time>2018-09-17T13:40:40Z</time>
      </trkpt>
      <trkpt lat="47.265291977673769" lon="11.3035639654845">
        <ele>600</ele>
        <time>2018-09-17T13:40:48Z</time>
      </trkpt>
      <trkpt lat="47.265334976837039" lon="11.303073037415743">
        <ele>598.55999999999995</ele>
        <time>2018-09-17T13:40:50Z</time>
      </trkpt>
      <trkpt lat="47.265340005978942" lon="11.302823005244136">
        <ele>597.60000000000002</ele>
        <time>2018-09-17T13:40:51Z</time>
      </trkpt>
      <trkpt lat="47.265299018472433" lon="11.302567021921277">
        <ele>597.12</ele>
        <time>2018-09-17T13:40:52Z</time>
      </trkpt>
      <trkpt lat="47.265247972682118" lon="11.302297962829471">
        <ele>596.63999999999999</ele>
        <time>2018-09-17T13:40:53Z</time>
      </trkpt>
      <trkpt lat="47.265170020982623" lon="11.302035022526979">
        <ele>596.14999999999998</ele>
        <time>2018-09-17T13:40:54Z</time>
      </trkpt>
      <trkpt lat="47.264629974961281" lon="11.300150016322732">
        <ele>591.35000000000002</ele>
        <time>2018-09-17T13:41:01Z</time>
      </trkpt>
      <trkpt lat="47.26441397331655" lon="11.299065984785557">
        <ele>589.90999999999997</ele>
        <time>2018-09-17T13:41:05Z</time>
      </trkpt>
      <trkpt lat="47.264278018847108" lon="11.296461978927255">
        <ele>588.95000000000005</ele>
        <time>2018-09-17T13:41:13Z</time>
      </trkpt>
      <trkpt lat="47.264167964458466" lon="11.292524999007583">
        <ele>587.98000000000002</ele>
        <time>2018-09-17T13:41:25Z</time>
      </trkpt>
      <trkpt lat="47.264431994408369" lon="11.288885995745659">
        <ele>588.95000000000005</ele>
        <time>2018-09-17T13:41:36Z</time>
      </trkpt>
      <trkpt lat="47.264574989676476" lon="11.287904977798462">
        <ele>589.42999999999995</ele>
        <time>2018-09-17T13:41:39Z</time>
      </trkpt>
      <trkpt lat="47.264646990224719" lon="11.287586968392134">
        <ele>589.90999999999997</ele>
        <time>2018-09-17T13:41:40Z</time>
      </trkpt>
      <trkpt lat="47.264746986329556" lon="11.287287985906005">
        <ele>590.38999999999999</ele>
        <time>2018-09-17T13:41:41Z</time>
      </trkpt>
      <trkpt lat="47.264856034889817" lon="11.286993026733398">
        <ele>590.38999999999999</ele>
        <time>2018-09-17T13:41:42Z</time>
      </trkpt>
      <trkpt lat="47.264971034601331" lon="11.286703012883663">
        <ele>590.87</ele>
        <time>2018-09-17T13:41:43Z</time>
      </trkpt>
      <trkpt lat="47.265106989070773" lon="11.286431020125747">
        <ele>591.35000000000002</ele>
        <time>2018-09-17T13:41:44Z</time>
      </trkpt>
      <trkpt lat="47.26595900952816" lon="11.284928983077407">
        <ele>592.78999999999996</ele>
        <time>2018-09-17T13:41:50Z</time>
      </trkpt>
      <trkpt lat="47.266052970662713" lon="11.284666964784265">
        <ele>592.78999999999996</ele>
        <time>2018-09-17T13:41:51Z</time>
      </trkpt>
      <trkpt lat="47.266121031716466" lon="11.284372005611658">
        <ele>593.26999999999998</ele>
        <time>2018-09-17T13:41:52Z</time>
      </trkpt>
      <trkpt lat="47.266191020607948" lon="11.284062964841723">
        <ele>593.26999999999998</ele>
        <time>2018-09-17T13:41:53Z</time>
      </trkpt>
      <trkpt lat="47.266261009499431" lon="11.283741015940905">
        <ele>593.26999999999998</ele>
        <time>2018-09-17T13:41:54Z</time>
      </trkpt>
      <trkpt lat="47.266531996428967" lon="11.282051978632808">
        <ele>594.23000000000002</ele>
        <time>2018-09-17T13:41:59Z</time>
      </trkpt>
      <trkpt lat="47.266664011403918" lon="11.279954994097352">
        <ele>597.60000000000002</ele>
        <time>2018-09-17T13:42:06Z</time>
      </trkpt>
      <trkpt lat="47.266743974760175" lon="11.279577976092696">
        <ele>598.55999999999995</ele>
        <time>2018-09-17T13:42:08Z</time>
      </trkpt>
      <trkpt lat="47.266856040805578" lon="11.27874699421227">
        <ele>600.96000000000004</ele>
        <time>2018-09-17T13:42:13Z</time>
      </trkpt>
      <trkpt lat="47.266866015270352" lon="11.278582960367203">
        <ele>600.96000000000004</ele>
        <time>2018-09-17T13:42:14Z</time>
      </trkpt>
      <trkpt lat="47.266928963363171" lon="11.277775028720498">
        <ele>601.91999999999996</ele>
        <time>2018-09-17T13:42:19Z</time>
      </trkpt>
      <trkpt lat="47.266971040517092" lon="11.277409996837378">
        <ele>602.39999999999998</ele>
        <time>2018-09-17T13:42:21Z</time>
      </trkpt>
      <trkpt lat="47.266995012760162" lon="11.27719902433455">
        <ele>602.39999999999998</ele>
        <time>2018-09-17T13:42:22Z</time>
      </trkpt>
      <trkpt lat="47.267043041065335" lon="11.275634961202741">
        <ele>602.88</ele>
        <time>2018-09-17T13:42:27Z</time>
      </trkpt>
      <trkpt lat="47.267254013568163" lon="11.272778995335102">
        <ele>603.36000000000001</ele>
        <time>2018-09-17T13:42:35Z</time>
      </trkpt>
      <trkpt lat="47.267434978857636" lon="11.27114100381732">
        <ele>604.33000000000004</ele>
        <time>2018-09-17T13:42:41Z</time>
      </trkpt>
      <trkpt lat="47.26757001131773" lon="11.270384034141898">
        <ele>603.36000000000001</ele>
        <time>2018-09-17T13:42:44Z</time>
      </trkpt>
      <trkpt lat="47.267728010192513" lon="11.269910037517548">
        <ele>602.39999999999998</ele>
        <time>2018-09-17T13:42:46Z</time>
      </trkpt>
      <trkpt lat="47.267816020175815" lon="11.269663022831082">
        <ele>601.91999999999996</ele>
        <time>2018-09-17T13:42:47Z</time>
      </trkpt>
      <trkpt lat="47.268137969076633" lon="11.268629031255841">
        <ele>599.51999999999998</ele>
        <time>2018-09-17T13:42:51Z</time>
      </trkpt>
      <trkpt lat="47.268524961546063" lon="11.266804039478302">
        <ele>598.08000000000004</ele>
        <time>2018-09-17T13:42:58Z</time>
      </trkpt>
      <trkpt lat="47.268835008144379" lon="11.265329997986555">
        <ele>597.12</ele>
        <time>2018-09-17T13:43:04Z</time>
      </trkpt>
      <trkpt lat="47.268854035064578" lon="11.265081977471709">
        <ele>597.12</ele>
        <time>2018-09-17T13:43:05Z</time>
      </trkpt>
      <trkpt lat="47.268971968442202" lon="11.263194037601352">
        <ele>598.55999999999995</ele>
        <time>2018-09-17T13:43:13Z</time>
      </trkpt>
      <trkpt lat="47.269137008115649" lon="11.262177983298898">
        <ele>599.03999999999996</ele>
        <time>2018-09-17T13:43:18Z</time>
      </trkpt>
      <trkpt lat="47.269666995853186" lon="11.259860973805189">
        <ele>598.55999999999995</ele>
        <time>2018-09-17T13:43:28Z</time>
      </trkpt>
      <trkpt lat="47.269844021648169" lon="11.259112972766161">
        <ele>598.55999999999995</ele>
        <time>2018-09-17T13:43:31Z</time>
      </trkpt>
      <trkpt lat="47.269905041903257" lon="11.258865036070347">
        <ele>598.55999999999995</ele>
        <time>2018-09-17T13:43:32Z</time>
      </trkpt>
      <trkpt lat="47.270273007452488" lon="11.257300972938538">
        <ele>600</ele>
        <time>2018-09-17T13:43:38Z</time>
      </trkpt>
      <trkpt lat="47.270608032122254" lon="11.255516968667507">
        <ele>607.21000000000004</ele>
        <time>2018-09-17T13:43:46Z</time>
      </trkpt>
      <trkpt lat="47.270811963826418" lon="11.254217019304633">
        <ele>613.46000000000004</ele>
        <time>2018-09-17T13:43:55Z</time>
      </trkpt>
      <trkpt lat="47.271076999604702" lon="11.252747001126409">
        <ele>618.25999999999999</ele>
        <time>2018-09-17T13:44:06Z</time>
      </trkpt>
      <trkpt lat="47.271318985149264" lon="11.2514160387218">
        <ele>619.71000000000004</ele>
        <time>2018-09-17T13:44:17Z</time>
      </trkpt>
      <trkpt lat="47.271634982898831" lon="11.249757008627057">
        <ele>621.14999999999998</ele>
        <time>2018-09-17T13:44:30Z</time>
      </trkpt>
      <trkpt lat="47.272052988409996" lon="11.247737975791097">
        <ele>622.59000000000003</ele>
        <time>2018-09-17T13:44:44Z</time>
      </trkpt>
      <trkpt lat="47.272412991151214" lon="11.24606897123158">
        <ele>623.07000000000005</ele>
        <time>2018-09-17T13:44:56Z</time>
      </trkpt>
      <trkpt lat="47.272656988352537" lon="11.244991980493069">
        <ele>623.07000000000005</ele>
        <time>2018-09-17T13:45:05Z</time>
      </trkpt>
      <trkpt lat="47.272681966423988" lon="11.24488603323698">
        <ele>623.07000000000005</ele>
        <time>2018-09-17T13:45:06Z</time>
      </trkpt>
      <trkpt lat="47.272706022486091" lon="11.244785031303763">
        <ele>623.54999999999995</ele>
        <time>2018-09-17T13:45:07Z</time>
      </trkpt>
      <trkpt lat="47.272952031344175" lon="11.243566973134875">
        <ele>626.44000000000005</ele>
        <time>2018-09-17T13:45:16Z</time>
      </trkpt>
      <trkpt lat="47.273203991353512" lon="11.242442037910223">
        <ele>629.32000000000005</ele>
        <time>2018-09-17T13:45:24Z</time>
      </trkpt>
      <trkpt lat="47.273232992738485" lon="11.242317985743284">
        <ele>629.32000000000005</ele>
        <time>2018-09-17T13:45:25Z</time>
      </trkpt>
      <trkpt lat="47.273275991901755" lon="11.242204997688532">
        <ele>628.36000000000001</ele>
        <time>2018-09-17T13:45:27Z</time>
      </trkpt>
      <trkpt lat="47.273455029353499" lon="11.241895034909248">
        <ele>627.88</ele>
        <time>2018-09-17T13:45:29Z</time>
      </trkpt>
      <trkpt lat="47.273497022688389" lon="11.24177198857069">
        <ele>627.88</ele>
        <time>2018-09-17T13:45:30Z</time>
      </trkpt>
      <trkpt lat="47.273715035989881" lon="11.240889960899949">
        <ele>630.75999999999999</ele>
        <time>2018-09-17T13:45:38Z</time>
      </trkpt>
      <trkpt lat="47.27373699657619" lon="11.240770015865564">
        <ele>631.24000000000001</ele>
        <time>2018-09-17T13:45:39Z</time>
      </trkpt>
      <trkpt lat="47.273761974647641" lon="11.240629032254219">
        <ele>631.72000000000003</ele>
        <time>2018-09-17T13:45:40Z</time>
      </trkpt>
      <trkpt lat="47.273878986015916" lon="11.24011698178947">
        <ele>632.20000000000005</ele>
        <time>2018-09-17T13:45:44Z</time>
      </trkpt>
      <trkpt lat="47.273909999057651" lon="11.240002987906337">
        <ele>632.20000000000005</ele>
        <time>2018-09-17T13:45:45Z</time>
      </trkpt>
      <trkpt lat="47.273941012099385" lon="11.239895028993487">
        <ele>631.72000000000003</ele>
        <time>2018-09-17T13:45:46Z</time>
      </trkpt>
      <trkpt lat="47.273976970463991" lon="11.239787992089987">
        <ele>631.72000000000003</ele>
        <time>2018-09-17T13:45:47Z</time>
      </trkpt>
      <trkpt lat="47.274008989334106" lon="11.23968699015677">
        <ele>631.72000000000003</ele>
        <time>2018-09-17T13:45:48Z</time>
      </trkpt>
      <trkpt lat="47.274156007915735" lon="11.239212993532419">
        <ele>632.67999999999995</ele>
        <time>2018-09-17T13:45:55Z</time>
      </trkpt>
      <trkpt lat="47.274161959066987" lon="11.23919396661222">
        <ele>632.67999999999995</ele>
        <time>2018-09-17T13:45:56Z</time>
      </trkpt>
      <trkpt lat="47.274214010685682" lon="11.239030016586185">
        <ele>633.64999999999998</ele>
        <time>2018-09-17T13:46:02Z</time>
      </trkpt>
      <trkpt lat="47.274228008463979" lon="11.238986011594534">
        <ele>633.64999999999998</ele>
        <time>2018-09-17T13:46:03Z</time>
      </trkpt>
      <trkpt lat="47.274257009848952" lon="11.238895989954472">
        <ele>633.64999999999998</ele>
        <time>2018-09-17T13:46:05Z</time>
      </trkpt>
      <trkpt lat="47.274268995970488" lon="11.238856008276343">
        <ele>633.64999999999998</ele>
        <time>2018-09-17T13:46:06Z</time>
      </trkpt>
      <trkpt lat="47.274314006790519" lon="11.238715024664998">
        <ele>632.67999999999995</ele>
        <time>2018-09-17T13:46:10Z</time>
      </trkpt>
      <trkpt lat="47.274342002347112" lon="11.238629026338458">
        <ele>632.20000000000005</ele>
        <time>2018-09-17T13:46:11Z</time>
      </trkpt>
      <trkpt lat="47.274360023438931" lon="11.238531963899732">
        <ele>631.72000000000003</ele>
        <time>2018-09-17T13:46:12Z</time>
      </trkpt>
      <trkpt lat="47.274383995682001" lon="11.238403972238302">
        <ele>631.24000000000001</ele>
        <time>2018-09-17T13:46:13Z</time>
      </trkpt>
      <trkpt lat="47.274410985410213" lon="11.238257959485054">
        <ele>631.24000000000001</ele>
        <time>2018-09-17T13:46:14Z</time>
      </trkpt>
      <trkpt lat="47.274440992623568" lon="11.238101972267032">
        <ele>630.75999999999999</ele>
        <time>2018-09-17T13:46:15Z</time>
      </trkpt>
      <trkpt lat="47.274764031171799" lon="11.236244039610028">
        <ele>628.36000000000001</ele>
        <time>2018-09-17T13:46:26Z</time>
      </trkpt>
      <trkpt lat="47.275429973378778" lon="11.234897989779711">
        <ele>624.50999999999999</ele>
        <time>2018-09-17T13:46:35Z</time>
      </trkpt>
      <trkpt lat="47.2768310084939" lon="11.232634037733078">
        <ele>616.34000000000003</ele>
        <time>2018-09-17T13:46:49Z</time>
      </trkpt>
      <trkpt lat="47.277357978746295" lon="11.231215987354517">
        <ele>612.01999999999998</ele>
        <time>2018-09-17T13:46:56Z</time>
      </trkpt>
      <trkpt lat="47.277784030884504" lon="11.229055970907211">
        <ele>608.16999999999996</ele>
        <time>2018-09-17T13:47:03Z</time>
      </trkpt>
      <trkpt lat="47.277898024767637" lon="11.22838499955833">
        <ele>607.21000000000004</ele>
        <time>2018-09-17T13:47:05Z</time>
      </trkpt>
      <trkpt lat="47.277923002839088" lon="11.228047041222453">
        <ele>607.21000000000004</ele>
        <time>2018-09-17T13:47:06Z</time>
      </trkpt>
      <trkpt lat="47.277944963425398" lon="11.227704975754023">
        <ele>607.21000000000004</ele>
        <time>2018-09-17T13:47:07Z</time>
      </trkpt>
      <trkpt lat="47.27801101282239" lon="11.226653968915343">
        <ele>606.25</ele>
        <time>2018-09-17T13:47:10Z</time>
      </trkpt>
      <trkpt lat="47.278417032212019" lon="11.224739039316773">
        <ele>607.21000000000004</ele>
        <time>2018-09-17T13:47:16Z</time>
      </trkpt>
      <trkpt lat="47.27852700278163" lon="11.224433016031981">
        <ele>607.21000000000004</ele>
        <time>2018-09-17T13:47:17Z</time>
      </trkpt>
      <trkpt lat="47.279298976063728" lon="11.222136039286852">
        <ele>610.57000000000005</ele>
        <time>2018-09-17T13:47:24Z</time>
      </trkpt>
      <trkpt lat="47.279641963541508" lon="11.220817985013127">
        <ele>612.5</ele>
        <time>2018-09-17T13:47:28Z</time>
      </trkpt>
      <trkpt lat="47.280064998194575" lon="11.217454997822642">
        <ele>611.05999999999995</ele>
        <time>2018-09-17T13:47:37Z</time>
      </trkpt>
      <trkpt lat="47.280144961550832" lon="11.216016998514533">
        <ele>610.57000000000005</ele>
        <time>2018-09-17T13:47:41Z</time>
      </trkpt>
      <trkpt lat="47.280157031491399" lon="11.214940007776022">
        <ele>609.61000000000001</ele>
        <time>2018-09-17T13:47:44Z</time>
      </trkpt>
      <trkpt lat="47.280217967927456" lon="11.214614035561681">
        <ele>609.13</ele>
        <time>2018-09-17T13:47:45Z</time>
      </trkpt>
      <trkpt lat="47.280285023152828" lon="11.214276999235153">
        <ele>608.64999999999998</ele>
        <time>2018-09-17T13:47:46Z</time>
      </trkpt>
      <trkpt lat="47.280464982613921" lon="11.213263040408492">
        <ele>606.73000000000002</ele>
        <time>2018-09-17T13:47:49Z</time>
      </trkpt>
      <trkpt lat="47.280475962907076" lon="11.212923992425203">
        <ele>606.25</ele>
        <time>2018-09-17T13:47:50Z</time>
      </trkpt>
      <trkpt lat="47.280460959300399" lon="11.212577987462282">
        <ele>606.25</ele>
        <time>2018-09-17T13:47:51Z</time>
      </trkpt>
      <trkpt lat="47.280417960137129" lon="11.2122299708426">
        <ele>606.25</ele>
        <time>2018-09-17T13:47:52Z</time>
      </trkpt>
      <trkpt lat="47.280368003994226" lon="11.211873991414905">
        <ele>606.25</ele>
        <time>2018-09-17T13:47:53Z</time>
      </trkpt>
      <trkpt lat="47.28007597848773" lon="11.209551030769944">
        <ele>610.57000000000005</ele>
        <time>2018-09-17T13:48:00Z</time>
      </trkpt>
      <trkpt lat="47.280093999579549" lon="11.209230003878474">
        <ele>611.05999999999995</ele>
        <time>2018-09-17T13:48:01Z</time>
      </trkpt>
      <trkpt lat="47.280120989307761" lon="11.208901014178991">
        <ele>611.53999999999996</ele>
        <time>2018-09-17T13:48:02Z</time>
      </trkpt>
      <trkpt lat="47.280167005956173" lon="11.20857696980238">
        <ele>611.53999999999996</ele>
        <time>2018-09-17T13:48:03Z</time>
      </trkpt>
      <trkpt lat="47.280234983190894" lon="11.208278993144631">
        <ele>611.53999999999996</ele>
        <time>2018-09-17T13:48:04Z</time>
      </trkpt>
      <trkpt lat="47.280344031751156" lon="11.208008006215096">
        <ele>611.05999999999995</ele>
        <time>2018-09-17T13:48:05Z</time>
      </trkpt>
      <trkpt lat="47.280456013977528" lon="11.207742970436811">
        <ele>611.05999999999995</ele>
        <time>2018-09-17T13:48:06Z</time>
      </trkpt>
      <trkpt lat="47.28076103143394" lon="11.207027994096279">
        <ele>608.16999999999996</ele>
        <time>2018-09-17T13:48:10Z</time>
      </trkpt>
      <trkpt lat="47.281088009476662" lon="11.206145966425538">
        <ele>605.28999999999996</ele>
        <time>2018-09-17T13:48:16Z</time>
      </trkpt>
      <trkpt lat="47.281111981719732" lon="11.205980004742742">
        <ele>604.80999999999995</ele>
        <time>2018-09-17T13:48:17Z</time>
      </trkpt>
      <trkpt lat="47.281128996983171" lon="11.205800967290998">
        <ele>604.33000000000004</ele>
        <time>2018-09-17T13:48:18Z</time>
      </trkpt>
      <trkpt lat="47.281147018074989" lon="11.205621007829905">
        <ele>604.33000000000004</ele>
        <time>2018-09-17T13:48:19Z</time>
      </trkpt>
      <trkpt lat="47.281164033338428" lon="11.20544096454978">
        <ele>603.85000000000002</ele>
        <time>2018-09-17T13:48:20Z</time>
      </trkpt>
      <trkpt lat="47.281186999753118" lon="11.205081967636943">
        <ele>603.36000000000001</ele>
        <time>2018-09-17T13:48:22Z</time>
      </trkpt>
      <trkpt lat="47.281185993924737" lon="11.204904019832611">
        <ele>602.88</ele>
        <time>2018-09-17T13:48:23Z</time>
      </trkpt>
      <trkpt lat="47.281179958954453" lon="11.204724982380867">
        <ele>602.88</ele>
        <time>2018-09-17T13:48:24Z</time>
      </trkpt>
      <trkpt lat="47.281088009476662" lon="11.202148972079158">
        <ele>604.33000000000004</ele>
        <time>2018-09-17T13:48:37Z</time>
      </trkpt>
      <trkpt lat="47.281007040292025" lon="11.199903041124344">
        <ele>604.80999999999995</ele>
        <time>2018-09-17T13:48:48Z</time>
      </trkpt>
      <trkpt lat="47.281121034175158" lon="11.198214003816247">
        <ele>603.85000000000002</ele>
        <time>2018-09-17T13:48:54Z</time>
      </trkpt>
      <trkpt lat="47.28142898529768" lon="11.196535024791956">
        <ele>603.36000000000001</ele>
        <time>2018-09-17T13:48:59Z</time>
      </trkpt>
      <trkpt lat="47.281538033857942" lon="11.196210980415344">
        <ele>603.36000000000001</ele>
        <time>2018-09-17T13:49:00Z</time>
      </trkpt>
      <trkpt lat="47.281649010255933" lon="11.195882996544242">
        <ele>603.36000000000001</ele>
        <time>2018-09-17T13:49:01Z</time>
      </trkpt>
      <trkpt lat="47.283274009823799" lon="11.191884996369481">
        <ele>604.80999999999995</ele>
        <time>2018-09-17T13:49:13Z</time>
      </trkpt>
      <trkpt lat="47.2839439753443" lon="11.190518997609615">
        <ele>604.80999999999995</ele>
        <time>2018-09-17T13:49:18Z</time>
      </trkpt>
      <trkpt lat="47.284089988097548" lon="11.190320011228323">
        <ele>604.80999999999995</ele>
        <time>2018-09-17T13:49:19Z</time>
      </trkpt>
      <trkpt lat="47.28426399640739" lon="11.190153965726495">
        <ele>604.80999999999995</ele>
        <time>2018-09-17T13:49:20Z</time>
      </trkpt>
      <trkpt lat="47.284455019980669" lon="11.190010970458388">
        <ele>604.80999999999995</ele>
        <time>2018-09-17T13:49:21Z</time>
      </trkpt>
      <trkpt lat="47.284657023847103" lon="11.189859006553888">
        <ele>604.80999999999995</ele>
        <time>2018-09-17T13:49:22Z</time>
      </trkpt>
      <trkpt lat="47.285219030454755" lon="11.189273027703166">
        <ele>604.33000000000004</ele>
        <time>2018-09-17T13:49:25Z</time>
      </trkpt>
      <trkpt lat="47.285379962995648" lon="11.189053002744913">
        <ele>604.33000000000004</ele>
        <time>2018-09-17T13:49:26Z</time>
      </trkpt>
      <trkpt lat="47.285496974363923" lon="11.188781009986997">
        <ele>604.80999999999995</ele>
        <time>2018-09-17T13:49:27Z</time>
      </trkpt>
      <trkpt lat="47.285612979903817" lon="11.1885080114007">
        <ele>604.80999999999995</ele>
        <time>2018-09-17T13:49:28Z</time>
      </trkpt>
      <trkpt lat="47.285712976008654" lon="11.18820701725781">
        <ele>604.80999999999995</ele>
        <time>2018-09-17T13:49:29Z</time>
      </trkpt>
      <trkpt lat="47.285795034840703" lon="11.187884984537959">
        <ele>605.28999999999996</ele>
        <time>2018-09-17T13:49:30Z</time>
      </trkpt>
      <trkpt lat="47.286145985126495" lon="11.186214974150062">
        <ele>606.73000000000002</ele>
        <time>2018-09-17T13:49:35Z</time>
      </trkpt>
      <trkpt lat="47.287094984203577" lon="11.183097995817661">
        <ele>609.61000000000001</ele>
        <time>2018-09-17T13:49:44Z</time>
      </trkpt>
      <trkpt lat="47.287387009710073" lon="11.181597970426083">
        <ele>609.61000000000001</ele>
        <time>2018-09-17T13:49:49Z</time>
      </trkpt>
      <trkpt lat="47.287525981664658" lon="11.180267008021474">
        <ele>609.13</ele>
        <time>2018-09-17T13:49:56Z</time>
      </trkpt>
      <trkpt lat="47.287707030773163" lon="11.178533965721726">
        <ele>609.61000000000001</ele>
        <time>2018-09-17T13:50:06Z</time>
      </trkpt>
      <trkpt lat="47.287879027426243" lon="11.176768988370895">
        <ele>608.16999999999996</ele>
        <time>2018-09-17T13:50:17Z</time>
      </trkpt>
      <trkpt lat="47.288016993552446" lon="11.175356972962618">
        <ele>607.69000000000005</ele>
        <time>2018-09-17T13:50:24Z</time>
      </trkpt>
      <trkpt lat="47.288362998515368" lon="11.171788964420557">
        <ele>607.21000000000004</ele>
        <time>2018-09-17T13:50:38Z</time>
      </trkpt>
      <trkpt lat="47.288595009595156" lon="11.17011995986104">
        <ele>607.69000000000005</ele>
        <time>2018-09-17T13:50:46Z</time>
      </trkpt>
      <trkpt lat="47.288958029821515" lon="11.168739041313529">
        <ele>608.64999999999998</ele>
        <time>2018-09-17T13:50:53Z</time>
      </trkpt>
      <trkpt lat="47.289931001141667" lon="11.166032021865249">
        <ele>608.64999999999998</ele>
        <time>2018-09-17T13:51:04Z</time>
      </trkpt>
      <trkpt lat="47.290288992226124" lon="11.165001969784498">
        <ele>608.64999999999998</ele>
        <time>2018-09-17T13:51:10Z</time>
      </trkpt>
      <trkpt lat="47.290787966921926" lon="11.163541004061699">
        <ele>609.13</ele>
        <time>2018-09-17T13:51:20Z</time>
      </trkpt>
      <trkpt lat="47.291580978780985" lon="11.16122399456799">
        <ele>609.61000000000001</ele>
        <time>2018-09-17T13:51:35Z</time>
      </trkpt>
      <trkpt lat="47.291994960978627" lon="11.159888003021479">
        <ele>607.69000000000005</ele>
        <time>2018-09-17T13:51:44Z</time>
      </trkpt>
      <trkpt lat="47.292049024254084" lon="11.159749031066895">
        <ele>607.21000000000004</ele>
        <time>2018-09-17T13:51:45Z</time>
      </trkpt>
      <trkpt lat="47.292115995660424" lon="11.159630008041859">
        <ele>607.21000000000004</ele>
        <time>2018-09-17T13:51:46Z</time>
      </trkpt>
      <trkpt lat="47.292181961238384" lon="11.1595069617033">
        <ele>606.73000000000002</ele>
        <time>2018-09-17T13:51:47Z</time>
      </trkpt>
      <trkpt lat="47.292248010635376" lon="11.159379975870252">
        <ele>606.73000000000002</ele>
        <time>2018-09-17T13:51:48Z</time>
      </trkpt>
      <trkpt lat="47.292319005355239" lon="11.15924603305757">
        <ele>606.73000000000002</ele>
        <time>2018-09-17T13:51:49Z</time>
      </trkpt>
      <trkpt lat="47.292395029217005" lon="11.159103037789464">
        <ele>606.25</ele>
        <time>2018-09-17T13:51:50Z</time>
      </trkpt>
      <trkpt lat="47.292613964527845" lon="11.158615965396166">
        <ele>606.73000000000002</ele>
        <time>2018-09-17T13:51:53Z</time>
      </trkpt>
      <trkpt lat="47.29322399944067" lon="11.156854005530477">
        <ele>606.25</ele>
        <time>2018-09-17T13:52:03Z</time>
      </trkpt>
      <trkpt lat="47.293519964441657" lon="11.15520897321403">
        <ele>608.64999999999998</ele>
        <time>2018-09-17T13:52:11Z</time>
      </trkpt>
      <trkpt lat="47.293999996036291" lon="11.153258001431823">
        <ele>610.57000000000005</ele>
        <time>2018-09-17T13:52:19Z</time>
      </trkpt>
      <trkpt lat="47.294957041740417" lon="11.151621015742421">
        <ele>611.53999999999996</ele>
        <time>2018-09-17T13:52:25Z</time>
      </trkpt>
      <trkpt lat="47.296160012483597" lon="11.14951497875154">
        <ele>612.01999999999998</ele>
        <time>2018-09-17T13:52:32Z</time>
      </trkpt>
      <trkpt lat="47.297672023996711" lon="11.145447995513678">
        <ele>612.01999999999998</ele>
        <time>2018-09-17T13:52:44Z</time>
      </trkpt>
      <trkpt lat="47.298992006108165" lon="11.141912005841732">
        <ele>612.5</ele>
        <time>2018-09-17T13:52:56Z</time>
      </trkpt>
      <trkpt lat="47.299300963059068" lon="11.141064008697867">
        <ele>614.41999999999996</ele>
        <time>2018-09-17T13:53:01Z</time>
      </trkpt>
      <trkpt lat="47.29951998218894" lon="11.140465037897229">
        <ele>614.89999999999998</ele>
        <time>2018-09-17T13:53:05Z</time>
      </trkpt>
      <trkpt lat="47.300263037905097" lon="11.138497972860932">
        <ele>614.89999999999998</ele>
        <time>2018-09-17T13:53:17Z</time>
      </trkpt>
      <trkpt lat="47.301155040040612" lon="11.136097982525826">
        <ele>614.41999999999996</ele>
        <time>2018-09-17T13:53:29Z</time>
      </trkpt>
      <trkpt lat="47.301928019151092" lon="11.133823972195387">
        <ele>614.41999999999996</ele>
        <time>2018-09-17T13:53:41Z</time>
      </trkpt>
      <trkpt lat="47.302522966638207" lon="11.132047008723021">
        <ele>616.34000000000003</ele>
        <time>2018-09-17T13:53:50Z</time>
      </trkpt>
      <trkpt lat="47.303369035944343" lon="11.129603013396263">
        <ele>617.77999999999997</ele>
        <time>2018-09-17T13:53:59Z</time>
      </trkpt>
      <trkpt lat="47.304517021402717" lon="11.126346979290247">
        <ele>619.71000000000004</ele>
        <time>2018-09-17T13:54:10Z</time>
      </trkpt>
      <trkpt lat="47.305925013497472" lon="11.122750975191593">
        <ele>620.66999999999996</ele>
        <time>2018-09-17T13:54:23Z</time>
      </trkpt>
      <trkpt lat="47.306073037907481" lon="11.122502032667398">
        <ele>620.66999999999996</ele>
        <time>2018-09-17T13:54:24Z</time>
      </trkpt>
      <trkpt lat="47.306613000109792" lon="11.121914964169264">
        <ele>622.11000000000001</ele>
        <time>2018-09-17T13:54:27Z</time>
      </trkpt>
      <trkpt lat="47.308614011853933" lon="11.120082009583712">
        <ele>624.02999999999997</ele>
        <time>2018-09-17T13:54:37Z</time>
      </trkpt>
      <trkpt lat="47.310137003660202" lon="11.117844041436911">
        <ele>624.02999999999997</ele>
        <time>2018-09-17T13:54:46Z</time>
      </trkpt>
      <trkpt lat="47.311327988281846" lon="11.115126963704824">
        <ele>622.11000000000001</ele>
        <time>2018-09-17T13:54:55Z</time>
      </trkpt>
      <trkpt lat="47.312331972643733" lon="11.113106003031135">
        <ele>620.66999999999996</ele>
        <time>2018-09-17T13:55:02Z</time>
      </trkpt>
      <trkpt lat="47.312856009230018" lon="11.111564990133047">
        <ele>619.23000000000002</ele>
        <time>2018-09-17T13:55:08Z</time>
      </trkpt>
      <trkpt lat="47.313258005306125" lon="11.109039019793272">
        <ele>618.25999999999999</ele>
        <time>2018-09-17T13:55:19Z</time>
      </trkpt>
      <trkpt lat="47.313253981992602" lon="11.106283972039819">
        <ele>620.19000000000005</ele>
        <time>2018-09-17T13:55:31Z</time>
      </trkpt>
      <trkpt lat="47.312898002564907" lon="11.104069976136088">
        <ele>621.14999999999998</ele>
        <time>2018-09-17T13:55:41Z</time>
      </trkpt>
      <trkpt lat="47.312578987330198" lon="11.102613033726811">
        <ele>622.11000000000001</ele>
        <time>2018-09-17T13:55:50Z</time>
      </trkpt>
      <trkpt lat="47.312515033408999" lon="11.102327965199947">
        <ele>622.59000000000003</ele>
        <time>2018-09-17T13:55:53Z</time>
      </trkpt>
      <trkpt lat="47.312558032572269" lon="11.102092014625669">
        <ele>622.59000000000003</ele>
        <time>2018-09-17T13:55:54Z</time>
      </trkpt>
      <trkpt lat="47.312562977895141" lon="11.102047003805637">
        <ele>622.59000000000003</ele>
        <time>2018-09-17T13:55:55Z</time>
      </trkpt>
      <trkpt lat="47.312568007037044" lon="11.101875007152557">
        <ele>623.07000000000005</ele>
        <time>2018-09-17T13:55:56Z</time>
      </trkpt>
      <trkpt lat="47.312515033408999" lon="11.101770987734199">
        <ele>623.07000000000005</ele>
        <time>2018-09-17T13:55:57Z</time>
      </trkpt>
      <trkpt lat="47.312373965978622" lon="11.101696975529194">
        <ele>623.07000000000005</ele>
        <time>2018-09-17T13:55:58Z</time>
      </trkpt>
      <trkpt lat="47.312343958765268" lon="11.101512992754579">
        <ele>623.07000000000005</ele>
        <time>2018-09-17T13:55:59Z</time>
      </trkpt>
      <trkpt lat="47.312312023714185" lon="11.101374020799994">
        <ele>622.59000000000003</ele>
        <time>2018-09-17T13:56:00Z</time>
      </trkpt>
      <trkpt lat="47.312266007065773" lon="11.101182997226715">
        <ele>622.59000000000003</ele>
        <time>2018-09-17T13:56:01Z</time>
      </trkpt>
      <trkpt lat="47.311884965747595" lon="11.099466970190406">
        <ele>621.14999999999998</ele>
        <time>2018-09-17T13:56:08Z</time>
      </trkpt>
      <trkpt lat="47.311237966641784" lon="11.096578985452652">
        <ele>622.11000000000001</ele>
        <time>2018-09-17T13:56:18Z</time>
      </trkpt>
      <trkpt lat="47.310493988916278" lon="11.093241982161999">
        <ele>620.66999999999996</ele>
        <time>2018-09-17T13:56:28Z</time>
      </trkpt>
      <trkpt lat="47.309456979855895" lon="11.088554989546537">
        <ele>621.14999999999998</ele>
        <time>2018-09-17T13:56:41Z</time>
      </trkpt>
      <trkpt lat="47.308793971315026" lon="11.085558962076902">
        <ele>621.14999999999998</ele>
        <time>2018-09-17T13:56:51Z</time>
      </trkpt>
      <trkpt lat="47.308259960263968" lon="11.083142962306738">
        <ele>620.66999999999996</ele>
        <time>2018-09-17T13:56:59Z</time>
      </trkpt>
      <trkpt lat="47.307871961966157" lon="11.081468006595969">
        <ele>622.11000000000001</ele>
        <time>2018-09-17T13:57:09Z</time>
      </trkpt>
      <trkpt lat="47.307569039985538" lon="11.080118017271161">
        <ele>622.59000000000003</ele>
        <time>2018-09-17T13:57:20Z</time>
      </trkpt>
      <trkpt lat="47.307520005851984" lon="11.07990100979805">
        <ele>622.59000000000003</ele>
        <time>2018-09-17T13:57:23Z</time>
      </trkpt>
      <trkpt lat="47.307508019730449" lon="11.079845018684864">
        <ele>622.59000000000003</ele>
        <time>2018-09-17T13:57:24Z</time>
      </trkpt>
      <trkpt lat="47.307497961446643" lon="11.079801013693213">
        <ele>622.59000000000003</ele>
        <time>2018-09-17T13:57:25Z</time>
      </trkpt>
      <trkpt lat="47.307477006688714" lon="11.079703029245138">
        <ele>623.07000000000005</ele>
        <time>2018-09-17T13:57:28Z</time>
      </trkpt>
      <trkpt lat="47.307470971718431" lon="11.079674027860165">
        <ele>622.59000000000003</ele>
        <time>2018-09-17T13:57:29Z</time>
      </trkpt>
      <trkpt lat="47.307470971718431" lon="11.079674027860165">
        <ele>623.07000000000005</ele>
        <time>2018-09-17T13:57:30Z</time>
      </trkpt>
      <trkpt lat="47.307470971718431" lon="11.079674027860165">
        <ele>622.59000000000003</ele>
        <time>2018-09-17T13:57:32Z</time>
      </trkpt>
      <trkpt lat="47.307441970333457" lon="11.07953698374331">
        <ele>620.66999999999996</ele>
        <time>2018-09-17T13:57:44Z</time>
      </trkpt>
      <trkpt lat="47.307441970333457" lon="11.07953698374331">
        <ele>620.66999999999996</ele>
        <time>2018-09-17T13:58:18Z</time>
      </trkpt>
      <trkpt lat="47.307526040822268" lon="11.079197013750672">
        <ele>638.45000000000005</ele>
        <time>2018-09-17T14:10:42Z</time>
      </trkpt>
      <trkpt lat="47.307550013065338" lon="11.079096011817455">
        <ele>625.47000000000003</ele>
        <time>2018-09-17T14:11:27Z</time>
      </trkpt>
      <trkpt lat="47.307585971429944" lon="11.079112021252513">
        <ele>628.36000000000001</ele>
        <time>2018-09-17T14:12:16Z</time>
      </trkpt>
      <trkpt lat="47.307574991136789" lon="11.079120989888906">
        <ele>628.84000000000003</ele>
        <time>2018-09-17T14:13:07Z</time>
      </trkpt>
      <trkpt lat="47.307574991136789" lon="11.079123001545668">
        <ele>628.84000000000003</ele>
        <time>2018-09-17T14:14:00Z</time>
      </trkpt>
      <trkpt lat="47.30757599696517" lon="11.079126019030809">
        <ele>628.84000000000003</ele>
        <time>2018-09-17T14:14:52Z</time>
      </trkpt>
      <trkpt lat="47.30757599696517" lon="11.079124007374048">
        <ele>629.32000000000005</ele>
        <time>2018-09-17T14:15:39Z</time>
      </trkpt>
      <trkpt lat="47.30755303055048" lon="11.079094000160694">
        <ele>622.59000000000003</ele>
        <time>2018-09-17T14:18:09Z</time>
      </trkpt>
      <trkpt lat="47.307563005015254" lon="11.079156026244164">
        <ele>629.79999999999995</ele>
        <time>2018-09-17T14:18:53Z</time>
      </trkpt>
      <trkpt lat="47.307558981701732" lon="11.079150997102261">
        <ele>629.79999999999995</ele>
        <time>2018-09-17T14:19:55Z</time>
      </trkpt>
      <trkpt lat="47.307558981701732" lon="11.079150997102261">
        <ele>630.27999999999997</ele>
        <time>2018-09-17T14:20:54Z</time>
      </trkpt>
      <trkpt lat="47.307558981701732" lon="11.079150997102261">
        <ele>630.27999999999997</ele>
        <time>2018-09-17T14:21:09Z</time>
      </trkpt>
      <trkpt lat="47.307379022240639" lon="11.079238001257181">
        <ele>629.32000000000005</ele>
        <time>2018-09-17T14:21:16Z</time>
      </trkpt>
      <trkpt lat="47.307368963956833" lon="11.079191984608769">
        <ele>628.84000000000003</ele>
        <time>2018-09-17T14:21:17Z</time>
      </trkpt>
      <trkpt lat="47.307353960350156" lon="11.079121995717287">
        <ele>628.84000000000003</ele>
        <time>2018-09-17T14:21:18Z</time>
      </trkpt>
      <trkpt lat="47.307335017248988" lon="11.079029962420464">
        <ele>628.36000000000001</ele>
        <time>2018-09-17T14:21:19Z</time>
      </trkpt>
      <trkpt lat="47.307143993675709" lon="11.07811700552702">
        <ele>628.36000000000001</ele>
        <time>2018-09-17T14:21:26Z</time>
      </trkpt>
      <trkpt lat="47.306969985365868" lon="11.077348971739411">
        <ele>628.36000000000001</ele>
        <time>2018-09-17T14:21:35Z</time>
      </trkpt>
      <trkpt lat="47.306936038658023" lon="11.077179992571473">
        <ele>627.39999999999998</ele>
        <time>2018-09-17T14:21:45Z</time>
      </trkpt>
      <trkpt lat="47.306895973160863" lon="11.076977988705039">
        <ele>627.39999999999998</ele>
        <time>2018-09-17T14:21:50Z</time>
      </trkpt>
      <trkpt lat="47.306979037821293" lon="11.076837005093694">
        <ele>627.39999999999998</ele>
        <time>2018-09-17T14:21:51Z</time>
      </trkpt>
      <trkpt lat="47.306979959830642" lon="11.07683097012341">
        <ele>627.39999999999998</ele>
        <time>2018-09-17T14:21:52Z</time>
      </trkpt>
      <trkpt lat="47.306989012286067" lon="11.076756035909057">
        <ele>627.39999999999998</ele>
        <time>2018-09-17T14:21:53Z</time>
      </trkpt>
      <trkpt lat="47.30695397593081" lon="11.076607005670667">
        <ele>627.39999999999998</ele>
        <time>2018-09-17T14:21:54Z</time>
      </trkpt>
      <trkpt lat="47.306915000081062" lon="11.076557971537113">
        <ele>626.91999999999996</ele>
        <time>2018-09-17T14:21:55Z</time>
      </trkpt>
      <trkpt lat="47.306792959570885" lon="11.076587978750467">
        <ele>626.91999999999996</ele>
        <time>2018-09-17T14:21:56Z</time>
      </trkpt>
      <trkpt lat="47.306678965687752" lon="11.076471973210573">
        <ele>626.44000000000005</ele>
        <time>2018-09-17T14:21:57Z</time>
      </trkpt>
      <trkpt lat="47.306640995666385" lon="11.076411958783865">
        <ele>626.44000000000005</ele>
        <time>2018-09-17T14:21:58Z</time>
      </trkpt>
      <trkpt lat="47.306577963754535" lon="11.076309029012918">
        <ele>625.96000000000004</ele>
        <time>2018-09-17T14:21:59Z</time>
      </trkpt>
      <trkpt lat="47.306508980691433" lon="11.076199980452657">
        <ele>625.47000000000003</ele>
        <time>2018-09-17T14:22:00Z</time>
      </trkpt>
      <trkpt lat="47.305907998234034" lon="11.075233966112137">
        <ele>624.02999999999997</ele>
        <time>2018-09-17T14:22:09Z</time>
      </trkpt>
      <trkpt lat="47.305460991337895" lon="11.074427962303162">
        <ele>624.99000000000001</ele>
        <time>2018-09-17T14:22:18Z</time>
      </trkpt>
      <trkpt lat="47.305116998031735" lon="11.073610978201032">
        <ele>628.36000000000001</ele>
        <time>2018-09-17T14:22:27Z</time>
      </trkpt>
      <trkpt lat="47.304852968081832" lon="11.072715958580375">
        <ele>628.84000000000003</ele>
        <time>2018-09-17T14:22:35Z</time>
      </trkpt>
      <trkpt lat="47.304838970303535" lon="11.07266197912395">
        <ele>629.79999999999995</ele>
        <time>2018-09-17T14:22:40Z</time>
      </trkpt>
      <trkpt lat="47.304748026654124" lon="11.07238101772964">
        <ele>630.27999999999997</ele>
        <time>2018-09-17T14:23:03Z</time>
      </trkpt>
      <trkpt lat="47.304701004177332" lon="11.072267023846507">
        <ele>630.27999999999997</ele>
        <time>2018-09-17T14:23:04Z</time>
      </trkpt>
      <trkpt lat="47.304651970043778" lon="11.072140960022807">
        <ele>630.27999999999997</ele>
        <time>2018-09-17T14:23:05Z</time>
      </trkpt>
      <trkpt lat="47.304337983950973" lon="11.071447022259235">
        <ele>630.27999999999997</ele>
        <time>2018-09-17T14:23:11Z</time>
      </trkpt>
      <trkpt lat="47.304301019757986" lon="11.071373010054231">
        <ele>630.27999999999997</ele>
        <time>2018-09-17T14:23:12Z</time>
      </trkpt>
      <trkpt lat="47.304314011707902" lon="11.071123983711004">
        <ele>630.27999999999997</ele>
        <time>2018-09-17T14:23:14Z</time>
      </trkpt>
      <trkpt lat="47.304260032251477" lon="11.071059023961425">
        <ele>630.75999999999999</ele>
        <time>2018-09-17T14:23:15Z</time>
      </trkpt>
      <trkpt lat="47.304170010611415" lon="11.071020970121026">
        <ele>630.75999999999999</ele>
        <time>2018-09-17T14:23:16Z</time>
      </trkpt>
      <trkpt lat="47.303974963724613" lon="11.070978976786137">
        <ele>630.75999999999999</ele>
        <time>2018-09-17T14:23:18Z</time>
      </trkpt>
      <trkpt lat="47.303237020969391" lon="11.070506991818547">
        <ele>631.24000000000001</ele>
        <time>2018-09-17T14:23:26Z</time>
      </trkpt>
      <trkpt lat="47.302299002185464" lon="11.070314040407538">
        <ele>634.13</ele>
        <time>2018-09-17T14:23:34Z</time>
      </trkpt>
      <trkpt lat="47.300435034558177" lon="11.070420993492007">
        <ele>637.00999999999999</ele>
        <time>2018-09-17T14:23:46Z</time>
      </trkpt>
      <trkpt lat="47.299920972436666" lon="11.070355027914047">
        <ele>636.04999999999995</ele>
        <time>2018-09-17T14:23:49Z</time>
      </trkpt>
      <trkpt lat="47.299739001318812" lon="11.070269029587507">
        <ele>636.04999999999995</ele>
        <time>2018-09-17T14:23:50Z</time>
      </trkpt>
      <trkpt lat="47.299560969695449" lon="11.070150006562471">
        <ele>635.57000000000005</ele>
        <time>2018-09-17T14:23:51Z</time>
      </trkpt>
      <trkpt lat="47.299392996355891" lon="11.069993013516068">
        <ele>635.57000000000005</ele>
        <time>2018-09-17T14:23:52Z</time>
      </trkpt>
      <trkpt lat="47.299228040501475" lon="11.069827973842621">
        <ele>635.09000000000003</ele>
        <time>2018-09-17T14:23:53Z</time>
      </trkpt>
      <trkpt lat="47.299084039404988" lon="11.069636028259993">
        <ele>634.61000000000001</ele>
        <time>2018-09-17T14:23:54Z</time>
      </trkpt>
      <trkpt lat="47.29895998723805" lon="11.069435030221939">
        <ele>634.13</ele>
        <time>2018-09-17T14:23:55Z</time>
      </trkpt>
      <trkpt lat="47.298864014446735" lon="11.069218022748828">
        <ele>634.13</ele>
        <time>2018-09-17T14:23:56Z</time>
      </trkpt>
      <trkpt lat="47.298770975321531" lon="11.069005960598588">
        <ele>633.64999999999998</ele>
        <time>2018-09-17T14:23:57Z</time>
      </trkpt>
      <trkpt lat="47.298708027228713" lon="11.06877202168107">
        <ele>633.16999999999996</ele>
        <time>2018-09-17T14:23:58Z</time>
      </trkpt>
      <trkpt lat="47.298650024458766" lon="11.068537998944521">
        <ele>633.16999999999996</ele>
        <time>2018-09-17T14:23:59Z</time>
      </trkpt>
      <trkpt lat="47.298603001981974" lon="11.068292995914817">
        <ele>632.67999999999995</ele>
        <time>2018-09-17T14:24:00Z</time>
      </trkpt>
      <trkpt lat="47.298580035567284" lon="11.068047992885113">
        <ele>632.20000000000005</ele>
        <time>2018-09-17T14:24:01Z</time>
      </trkpt>
      <trkpt lat="47.298571988940239" lon="11.067797960713506">
        <ele>632.20000000000005</ele>
        <time>2018-09-17T14:24:02Z</time>
      </trkpt>
      <trkpt lat="47.298581041395664" lon="11.067551029846072">
        <ele>631.72000000000003</ele>
        <time>2018-09-17T14:24:03Z</time>
      </trkpt>
      <trkpt lat="47.298589004203677" lon="11.067308960482478">
        <ele>631.72000000000003</ele>
        <time>2018-09-17T14:24:04Z</time>
      </trkpt>
      <trkpt lat="47.298662010580301" lon="11.06595603749156">
        <ele>629.32000000000005</ele>
        <time>2018-09-17T14:24:11Z</time>
      </trkpt>
      <trkpt lat="47.298685982823372" lon="11.065660994499922">
        <ele>628.36000000000001</ele>
        <time>2018-09-17T14:24:14Z</time>
      </trkpt>
      <trkpt lat="47.298692017793655" lon="11.065581031143665">
        <ele>628.36000000000001</ele>
        <time>2018-09-17T14:24:15Z</time>
      </trkpt>
      <trkpt lat="47.298825038596988" lon="11.0654859803617">
        <ele>627.88</ele>
        <time>2018-09-17T14:24:16Z</time>
      </trkpt>
      <trkpt lat="47.298889998346567" lon="11.065353965386748">
        <ele>627.39999999999998</ele>
        <time>2018-09-17T14:24:18Z</time>
      </trkpt>
      <trkpt lat="47.298889998346567" lon="11.065254975110292">
        <ele>627.39999999999998</ele>
        <time>2018-09-17T14:24:19Z</time>
      </trkpt>
      <trkpt lat="47.298877006396651" lon="11.065099993720651">
        <ele>626.91999999999996</ele>
        <time>2018-09-17T14:24:20Z</time>
      </trkpt>
      <trkpt lat="47.298825038596988" lon="11.065013995394111">
        <ele>626.91999999999996</ele>
        <time>2018-09-17T14:24:21Z</time>
      </trkpt>
      <trkpt lat="47.298671985045075" lon="11.064953980967402">
        <ele>626.44000000000005</ele>
        <time>2018-09-17T14:24:22Z</time>
      </trkpt>
      <trkpt lat="47.298648012802005" lon="11.064808974042535">
        <ele>625.96000000000004</ele>
        <time>2018-09-17T14:24:23Z</time>
      </trkpt>
      <trkpt lat="47.298619011417031" lon="11.064639994874597">
        <ele>625.96000000000004</ele>
        <time>2018-09-17T14:24:24Z</time>
      </trkpt>
      <trkpt lat="47.298586992546916" lon="11.06445400044322">
        <ele>625.47000000000003</ele>
        <time>2018-09-17T14:24:25Z</time>
      </trkpt>
      <trkpt lat="47.298078965395689" lon="11.062729004770517">
        <ele>625.96000000000004</ele>
        <time>2018-09-17T14:24:33Z</time>
      </trkpt>
      <trkpt lat="47.297444036230445" lon="11.061388989910483">
        <ele>626.44000000000005</ele>
        <time>2018-09-17T14:24:38Z</time>
      </trkpt>
      <trkpt lat="47.296793013811111" lon="11.060428004711866">
        <ele>627.88</ele>
        <time>2018-09-17T14:24:44Z</time>
      </trkpt>
      <trkpt lat="47.295728009194136" lon="11.058895960450172">
        <ele>627.39999999999998</ele>
        <time>2018-09-17T14:24:51Z</time>
      </trkpt>
      <trkpt lat="47.29530899785459" lon="11.057969005778432">
        <ele>627.39999999999998</ele>
        <time>2018-09-17T14:24:54Z</time>
      </trkpt>
      <trkpt lat="47.295190980657935" lon="11.057625012472272">
        <ele>627.39999999999998</ele>
        <time>2018-09-17T14:24:55Z</time>
      </trkpt>
      <trkpt lat="47.295100037008524" lon="11.05725503526628">
        <ele>627.39999999999998</ele>
        <time>2018-09-17T14:24:56Z</time>
      </trkpt>
      <trkpt lat="47.294519003480673" lon="11.05403495952487">
        <ele>627.88</ele>
        <time>2018-09-17T14:25:04Z</time>
      </trkpt>
      <trkpt lat="47.293619960546494" lon="11.050861990079284">
        <ele>628.84000000000003</ele>
        <time>2018-09-17T14:25:12Z</time>
      </trkpt>
      <trkpt lat="47.293255012482405" lon="11.048765005543828">
        <ele>629.32000000000005</ele>
        <time>2018-09-17T14:25:17Z</time>
      </trkpt>
      <trkpt lat="47.293093996122479" lon="11.046829959377646">
        <ele>629.79999999999995</ele>
        <time>2018-09-17T14:25:23Z</time>
      </trkpt>
      <trkpt lat="47.292739022523165" lon="11.04404297657311">
        <ele>630.75999999999999</ele>
        <time>2018-09-17T14:25:31Z</time>
      </trkpt>
      <trkpt lat="47.292319005355239" lon="11.042376989498734">
        <ele>630.75999999999999</ele>
        <time>2018-09-17T14:25:38Z</time>
      </trkpt>
      <trkpt lat="47.291946010664105" lon="11.039953026920557">
        <ele>632.20000000000005</ele>
        <time>2018-09-17T14:25:49Z</time>
      </trkpt>
      <trkpt lat="47.291922038421035" lon="11.037373999133706">
        <ele>633.64999999999998</ele>
        <time>2018-09-17T14:25:58Z</time>
      </trkpt>
      <trkpt lat="47.292037038132548" lon="11.033512037247419">
        <ele>635.09000000000003</ele>
        <time>2018-09-17T14:26:11Z</time>
      </trkpt>
      <trkpt lat="47.292172992601991" lon="11.02818701416254">
        <ele>638.45000000000005</ele>
        <time>2018-09-17T14:26:29Z</time>
      </trkpt>
      <trkpt lat="47.29187099263072" lon="11.024959981441498">
        <ele>640.86000000000001</ele>
        <time>2018-09-17T14:26:40Z</time>
      </trkpt>
      <trkpt lat="47.291363971307874" lon="11.021852977573872">
        <ele>638.45000000000005</ele>
        <time>2018-09-17T14:26:50Z</time>
      </trkpt>
      <trkpt lat="47.290760977193713" lon="11.018557967618108">
        <ele>636.04999999999995</ele>
        <time>2018-09-17T14:26:58Z</time>
      </trkpt>
      <trkpt lat="47.290217997506261" lon="11.016453020274639">
        <ele>635.57000000000005</ele>
        <time>2018-09-17T14:27:04Z</time>
      </trkpt>
      <trkpt lat="47.289297999814153" lon="11.01486699655652">
        <ele>635.57000000000005</ele>
        <time>2018-09-17T14:27:11Z</time>
      </trkpt>
      <trkpt lat="47.288257973268628" lon="11.013048961758614">
        <ele>637.00999999999999</ele>
        <time>2018-09-17T14:27:19Z</time>
      </trkpt>
      <trkpt lat="47.287664031609893" lon="11.010853992775083">
        <ele>637.00999999999999</ele>
        <time>2018-09-17T14:27:27Z</time>
      </trkpt>
      <trkpt lat="47.286558039486408" lon="11.00607899017632">
        <ele>637.97000000000003</ele>
        <time>2018-09-17T14:27:44Z</time>
      </trkpt>
      <trkpt lat="47.285884972661734" lon="11.003532987087965">
        <ele>638.45000000000005</ele>
        <time>2018-09-17T14:27:52Z</time>
      </trkpt>
      <trkpt lat="47.284918036311865" lon="10.999901024624705">
        <ele>638.92999999999995</ele>
        <time>2018-09-17T14:28:01Z</time>
      </trkpt>
      <trkpt lat="47.283118022605777" lon="10.992339961230755">
        <ele>641.82000000000005</ele>
        <time>2018-09-17T14:28:19Z</time>
      </trkpt>
      <trkpt lat="47.282440010458231" lon="10.988446986302733">
        <ele>642.29999999999995</ele>
        <time>2018-09-17T14:28:28Z</time>
      </trkpt>
      <trkpt lat="47.281671976670623" lon="10.985038988292217">
        <ele>642.29999999999995</ele>
        <time>2018-09-17T14:28:37Z</time>
      </trkpt>
      <trkpt lat="47.281251959502697" lon="10.983753958716989">
        <ele>642.77999999999997</ele>
        <time>2018-09-17T14:28:43Z</time>
      </trkpt>
      <trkpt lat="47.281038975343108" lon="10.983242997899652">
        <ele>643.25999999999999</ele>
        <time>2018-09-17T14:28:47Z</time>
      </trkpt>
      <trkpt lat="47.281101001426578" lon="10.983023978769779">
        <ele>643.25999999999999</ele>
        <time>2018-09-17T14:28:48Z</time>
      </trkpt>
      <trkpt lat="47.281066970899701" lon="10.982944015413523">
        <ele>643.25999999999999</ele>
        <time>2018-09-17T14:28:49Z</time>
      </trkpt>
      <trkpt lat="47.281036963686347" lon="10.98287402652204">
        <ele>642.77999999999997</ele>
        <time>2018-09-17T14:28:50Z</time>
      </trkpt>
      <trkpt lat="47.28089296258986" lon="10.982779981568456">
        <ele>642.29999999999995</ele>
        <time>2018-09-17T14:28:51Z</time>
      </trkpt>
      <trkpt lat="47.280865972861648" lon="10.98261795938015">
        <ele>641.34000000000003</ele>
        <time>2018-09-17T14:28:52Z</time>
      </trkpt>
      <trkpt lat="47.2808269970119" lon="10.982426013797522">
        <ele>640.86000000000001</ele>
        <time>2018-09-17T14:28:53Z</time>
      </trkpt>
      <trkpt lat="47.280559027567506" lon="10.980889024212956">
        <ele>639.88999999999999</ele>
        <time>2018-09-17T14:28:59Z</time>
      </trkpt>
      <trkpt lat="47.280276976525784" lon="10.977914035320282">
        <ele>642.29999999999995</ele>
        <time>2018-09-17T14:29:10Z</time>
      </trkpt>
      <trkpt lat="47.280037002637982" lon="10.975574981421232">
        <ele>643.74000000000001</ele>
        <time>2018-09-17T14:29:20Z</time>
      </trkpt>
      <trkpt lat="47.279698038473725" lon="10.973629960790277">
        <ele>645.65999999999997</ele>
        <time>2018-09-17T14:29:29Z</time>
      </trkpt>
      <trkpt lat="47.279353039339185" lon="10.972068998962641">
        <ele>645.65999999999997</ele>
        <time>2018-09-17T14:29:37Z</time>
      </trkpt>
      <trkpt lat="47.278960011899471" lon="10.970697971060872">
        <ele>644.70000000000005</ele>
        <time>2018-09-17T14:29:42Z</time>
      </trkpt>
      <trkpt lat="47.278284011408687" lon="10.968452040106058">
        <ele>644.70000000000005</ele>
        <time>2018-09-17T14:29:50Z</time>
      </trkpt>
      <trkpt lat="47.27771102450788" lon="10.966625036671758">
        <ele>644.70000000000005</ele>
        <time>2018-09-17T14:29:59Z</time>
      </trkpt>
      <trkpt lat="47.2774319909513" lon="10.965697998180985">
        <ele>645.17999999999995</ele>
        <time>2018-09-17T14:30:06Z</time>
      </trkpt>
      <trkpt lat="47.277403995394707" lon="10.965606970712543">
        <ele>645.17999999999995</ele>
        <time>2018-09-17T14:30:07Z</time>
      </trkpt>
      <trkpt lat="47.277316991239786" lon="10.965604959055781">
        <ele>645.17999999999995</ele>
        <time>2018-09-17T14:30:08Z</time>
      </trkpt>
      <trkpt lat="47.277250019833446" lon="10.965649969875813">
        <ele>645.17999999999995</ele>
        <time>2018-09-17T14:30:09Z</time>
      </trkpt>
      <trkpt lat="47.277169972658157" lon="10.965703027322888">
        <ele>645.17999999999995</ele>
        <time>2018-09-17T14:30:10Z</time>
      </trkpt>
      <trkpt lat="47.277079029008746" lon="10.965763963758945">
        <ele>645.65999999999997</ele>
        <time>2018-09-17T14:30:11Z</time>
      </trkpt>
      <trkpt lat="47.276969980448484" lon="10.965806962922215">
        <ele>645.65999999999997</ele>
        <time>2018-09-17T14:30:12Z</time>
      </trkpt>
      <trkpt lat="47.276856992393732" lon="10.965848034247756">
        <ele>646.13999999999999</ele>
        <time>2018-09-17T14:30:13Z</time>
      </trkpt>
      <trkpt lat="47.276736963540316" lon="10.965848034247756">
        <ele>646.13999999999999</ele>
        <time>2018-09-17T14:30:14Z</time>
      </trkpt>
      <trkpt lat="47.276617018505931" lon="10.965835964307189">
        <ele>646.13999999999999</ele>
        <time>2018-09-17T14:30:15Z</time>
      </trkpt>
      <trkpt lat="47.276507969945669" lon="10.965776033699512">
        <ele>646.13999999999999</ele>
        <time>2018-09-17T14:30:16Z</time>
      </trkpt>
      <trkpt lat="47.276396993547678" lon="10.965687017887831">
        <ele>646.62</ele>
        <time>2018-09-17T14:30:17Z</time>
      </trkpt>
      <trkpt lat="47.27631401270628" lon="10.96555701456964">
        <ele>647.10000000000002</ele>
        <time>2018-09-17T14:30:18Z</time>
      </trkpt>
      <trkpt lat="47.27625198662281" lon="10.965395998209715">
        <ele>647.10000000000002</ele>
        <time>2018-09-17T14:30:19Z</time>
      </trkpt>
      <trkpt lat="47.276215022429824" lon="10.965222995728254">
        <ele>647.59000000000003</ele>
        <time>2018-09-17T14:30:20Z</time>
      </trkpt>
      <trkpt lat="47.276176968589425" lon="10.965049993246794">
        <ele>648.07000000000005</ele>
        <time>2018-09-17T14:30:21Z</time>
      </trkpt>
      <trkpt lat="47.276203958317637" lon="10.964840026572347">
        <ele>648.54999999999995</ele>
        <time>2018-09-17T14:30:22Z</time>
      </trkpt>
      <trkpt lat="47.276247963309288" lon="10.96465696580708">
        <ele>649.02999999999997</ele>
        <time>2018-09-17T14:30:23Z</time>
      </trkpt>
      <trkpt lat="47.276306971907616" lon="10.964476000517607">
        <ele>649.99000000000001</ele>
        <time>2018-09-17T14:30:24Z</time>
      </trkpt>
      <trkpt lat="47.276386013254523" lon="10.964306015521288">
        <ele>650.47000000000003</ele>
        <time>2018-09-17T14:30:25Z</time>
      </trkpt>
      <trkpt lat="47.276479974389076" lon="10.964178023859859">
        <ele>650.95000000000005</ele>
        <time>2018-09-17T14:30:26Z</time>
      </trkpt>
      <trkpt lat="47.276575025171041" lon="10.964050032198429">
        <ele>651.90999999999997</ele>
        <time>2018-09-17T14:30:27Z</time>
      </trkpt>
      <trkpt lat="47.277761986479163" lon="10.962311960756779">
        <ele>659.12</ele>
        <time>2018-09-17T14:30:39Z</time>
      </trkpt>
      <trkpt lat="47.278428012505174" lon="10.960753010585904">
        <ele>661.03999999999996</ele>
        <time>2018-09-17T14:30:48Z</time>
      </trkpt>
      <trkpt lat="47.279146006330848" lon="10.959585998207331">
        <ele>663.45000000000005</ele>
        <time>2018-09-17T14:30:55Z</time>
      </trkpt>
      <trkpt lat="47.280005989596248" lon="10.958578996360302">
        <ele>667.76999999999998</ele>
        <time>2018-09-17T14:31:02Z</time>
      </trkpt>
      <trkpt lat="47.280145967379212" lon="10.958516970276833">
        <ele>668.73000000000002</ele>
        <time>2018-09-17T14:31:03Z</time>
      </trkpt>
      <trkpt lat="47.280294997617602" lon="10.958479000255466">
        <ele>669.70000000000005</ele>
        <time>2018-09-17T14:31:04Z</time>
      </trkpt>
      <trkpt lat="47.280478980392218" lon="10.958432983607054">
        <ele>670.17999999999995</ele>
        <time>2018-09-17T14:31:05Z</time>
      </trkpt>
      <trkpt lat="47.280595991760492" lon="10.958480006083846">
        <ele>671.13999999999999</ele>
        <time>2018-09-17T14:31:06Z</time>
      </trkpt>
      <trkpt lat="47.280745021998882" lon="10.958540020510554">
        <ele>672.10000000000002</ele>
        <time>2018-09-17T14:31:07Z</time>
      </trkpt>
      <trkpt lat="47.28089296258986" lon="10.958599029108882">
        <ele>672.58000000000004</ele>
        <time>2018-09-17T14:31:08Z</time>
      </trkpt>
      <trkpt lat="47.282015969976783" lon="10.958946039900184">
        <ele>679.30999999999995</ele>
        <time>2018-09-17T14:31:17Z</time>
      </trkpt>
      <trkpt lat="47.282367004081607" lon="10.95889599993825">
        <ele>681.71000000000004</ele>
        <time>2018-09-17T14:31:21Z</time>
      </trkpt>
      <trkpt lat="47.282475968822837" lon="10.95887403935194">
        <ele>682.66999999999996</ele>
        <time>2018-09-17T14:31:22Z</time>
      </trkpt>
      <trkpt lat="47.2835139837116" lon="10.958426026627421">
        <ele>687</ele>
        <time>2018-09-17T14:31:31Z</time>
      </trkpt>
      <trkpt lat="47.285370994359255" lon="10.958265010267496">
        <ele>691.80999999999995</ele>
        <time>2018-09-17T14:31:43Z</time>
      </trkpt>
      <trkpt lat="47.286639008671045" lon="10.958088990300894">
        <ele>695.64999999999998</ele>
        <time>2018-09-17T14:31:52Z</time>
      </trkpt>
      <trkpt lat="47.286769011989236" lon="10.958024030551314">
        <ele>696.13</ele>
        <time>2018-09-17T14:31:53Z</time>
      </trkpt>
      <trkpt lat="47.28688501752913" lon="10.957927973940969">
        <ele>697.09000000000003</ele>
        <time>2018-09-17T14:31:54Z</time>
      </trkpt>
      <trkpt lat="47.28699398227036" lon="10.957820015028119">
        <ele>697.57000000000005</ele>
        <time>2018-09-17T14:31:55Z</time>
      </trkpt>
      <trkpt lat="47.287085009738803" lon="10.957703003659844">
        <ele>698.04999999999995</ele>
        <time>2018-09-17T14:31:56Z</time>
      </trkpt>
      <trkpt lat="47.287161033600569" lon="10.957578029483557">
        <ele>698.52999999999997</ele>
        <time>2018-09-17T14:31:57Z</time>
      </trkpt>
      <trkpt lat="47.287230016663671" lon="10.957465963438153">
        <ele>698.52999999999997</ele>
        <time>2018-09-17T14:31:58Z</time>
      </trkpt>
      <trkpt lat="47.287290031090379" lon="10.957360016182065">
        <ele>699.01999999999998</ele>
        <time>2018-09-17T14:31:59Z</time>
      </trkpt>
      <trkpt lat="47.287335963919759" lon="10.957239987328649">
        <ele>699.5</ele>
        <time>2018-09-17T14:32:00Z</time>
      </trkpt>
      <trkpt lat="47.28761600330472" lon="10.956570021808147">
        <ele>701.89999999999998</ele>
        <time>2018-09-17T14:32:05Z</time>
      </trkpt>
      <trkpt lat="47.287694960832596" lon="10.956453010439873">
        <ele>702.38</ele>
        <time>2018-09-17T14:32:06Z</time>
      </trkpt>
      <trkpt lat="47.287795962765813" lon="10.956352008506656">
        <ele>702.86000000000001</ele>
        <time>2018-09-17T14:32:07Z</time>
      </trkpt>
      <trkpt lat="47.287895958870649" lon="10.956252012401819">
        <ele>703.34000000000003</ele>
        <time>2018-09-17T14:32:08Z</time>
      </trkpt>
      <trkpt lat="47.288013976067305" lon="10.956244971603155">
        <ele>703.82000000000005</ele>
        <time>2018-09-17T14:32:09Z</time>
      </trkpt>
      <trkpt lat="47.288137022405863" lon="10.956244971603155">
        <ele>704.29999999999995</ele>
        <time>2018-09-17T14:32:10Z</time>
      </trkpt>
      <trkpt lat="47.288252022117376" lon="10.956279002130032">
        <ele>704.29999999999995</ele>
        <time>2018-09-17T14:32:11Z</time>
      </trkpt>
      <trkpt lat="47.288361992686987" lon="10.956363994628191">
        <ele>704.77999999999997</ele>
        <time>2018-09-17T14:32:12Z</time>
      </trkpt>
      <trkpt lat="47.288446985185146" lon="10.956502966582775">
        <ele>705.25999999999999</ele>
        <time>2018-09-17T14:32:13Z</time>
      </trkpt>
      <trkpt lat="47.288529966026545" lon="10.956649985164404">
        <ele>705.75</ele>
        <time>2018-09-17T14:32:14Z</time>
      </trkpt>
      <trkpt lat="47.288563996553421" lon="10.956822987645864">
        <ele>706.23000000000002</ele>
        <time>2018-09-17T14:32:15Z</time>
      </trkpt>
      <trkpt lat="47.28858302347362" lon="10.957013005390763">
        <ele>707.19000000000005</ele>
        <time>2018-09-17T14:32:16Z</time>
      </trkpt>
      <trkpt lat="47.28856299072504" lon="10.957185002043843">
        <ele>707.66999999999996</ele>
        <time>2018-09-17T14:32:17Z</time>
      </trkpt>
      <trkpt lat="47.288525020703673" lon="10.957366973161697">
        <ele>708.63</ele>
        <time>2018-09-17T14:32:18Z</time>
      </trkpt>
      <trkpt lat="47.288460982963443" lon="10.957510974258184">
        <ele>709.11000000000001</ele>
        <time>2018-09-17T14:32:19Z</time>
      </trkpt>
      <trkpt lat="47.288357969373465" lon="10.957622034475207">
        <ele>710.07000000000005</ele>
        <time>2018-09-17T14:32:20Z</time>
      </trkpt>
      <trkpt lat="47.28826099075377" lon="10.957727981731296">
        <ele>711.02999999999997</ele>
        <time>2018-09-17T14:32:21Z</time>
      </trkpt>
      <trkpt lat="47.288149008527398" lon="10.957818003371358">
        <ele>711.50999999999999</ele>
        <time>2018-09-17T14:32:22Z</time>
      </trkpt>
      <trkpt lat="47.288028979673982" lon="10.957881035283208">
        <ele>712.47000000000003</ele>
        <time>2018-09-17T14:32:23Z</time>
      </trkpt>
      <trkpt lat="47.287217024713755" lon="10.958369029685855">
        <ele>719.20000000000005</ele>
        <time>2018-09-17T14:32:31Z</time>
      </trkpt>
      <trkpt lat="47.2866499889642" lon="10.958903040736914">
        <ele>724.49000000000001</ele>
        <time>2018-09-17T14:32:37Z</time>
      </trkpt>
      <trkpt lat="47.286577988415956" lon="10.958971017971635">
        <ele>725.45000000000005</ele>
        <time>2018-09-17T14:32:38Z</time>
      </trkpt>
      <trkpt lat="47.286519985646009" lon="10.95902600325644">
        <ele>726.88999999999999</ele>
        <time>2018-09-17T14:32:39Z</time>
      </trkpt>
      <trkpt lat="47.286456031724811" lon="10.959083000198007">
        <ele>727.86000000000001</ele>
        <time>2018-09-17T14:32:40Z</time>
      </trkpt>
      <trkpt lat="47.286376990377903" lon="10.95913496799767">
        <ele>728.82000000000005</ele>
        <time>2018-09-17T14:32:41Z</time>
      </trkpt>
      <trkpt lat="47.286285040900111" lon="10.959194982424378">
        <ele>730.25999999999999</ele>
        <time>2018-09-17T14:32:42Z</time>
      </trkpt>
      <trkpt lat="47.285435032099485" lon="10.959651963785291">
        <ele>736.99000000000001</ele>
        <time>2018-09-17T14:32:48Z</time>
      </trkpt>
      <trkpt lat="47.284987019374967" lon="10.959835024550557">
        <ele>741.30999999999995</ele>
        <time>2018-09-17T14:32:52Z</time>
      </trkpt>
      <trkpt lat="47.284631039947271" lon="10.960042979568243">
        <ele>743.72000000000003</ele>
        <time>2018-09-17T14:32:56Z</time>
      </trkpt>
      <trkpt lat="47.284554010257125" lon="10.960123026743531">
        <ele>744.20000000000005</ele>
        <time>2018-09-17T14:32:57Z</time>
      </trkpt>
      <trkpt lat="47.284475974738598" lon="10.960225034505129">
        <ele>744.67999999999995</ele>
        <time>2018-09-17T14:32:58Z</time>
      </trkpt>
      <trkpt lat="47.284397017210722" lon="10.960327964276075">
        <ele>745.63999999999999</ele>
        <time>2018-09-17T14:32:59Z</time>
      </trkpt>
      <trkpt lat="47.284319987520576" lon="10.960428966209292">
        <ele>746.12</ele>
        <time>2018-09-17T14:33:00Z</time>
      </trkpt>
      <trkpt lat="47.284262990579009" lon="10.960542960092425">
        <ele>746.60000000000002</ele>
        <time>2018-09-17T14:33:01Z</time>
      </trkpt>
      <trkpt lat="47.284214040264487" lon="10.960669023916125">
        <ele>747.08000000000004</ele>
        <time>2018-09-17T14:33:02Z</time>
      </trkpt>
      <trkpt lat="47.284171963110566" lon="10.960813025012612">
        <ele>748.03999999999996</ele>
        <time>2018-09-17T14:33:03Z</time>
      </trkpt>
      <trkpt lat="47.284127036109567" lon="10.960964988917112">
        <ele>748.51999999999998</ele>
        <time>2018-09-17T14:33:04Z</time>
      </trkpt>
      <trkpt lat="47.284113960340619" lon="10.961123993620276">
        <ele>749.49000000000001</ele>
        <time>2018-09-17T14:33:05Z</time>
      </trkpt>
      <trkpt lat="47.284099962562323" lon="10.961282998323441">
        <ele>749.97000000000003</ele>
        <time>2018-09-17T14:33:06Z</time>
      </trkpt>
      <trkpt lat="47.284087976440787" lon="10.961429011076689">
        <ele>751.40999999999997</ele>
        <time>2018-09-17T14:33:07Z</time>
      </trkpt>
      <trkpt lat="47.284099040552974" lon="10.961573012173176">
        <ele>751.88999999999999</ele>
        <time>2018-09-17T14:33:08Z</time>
      </trkpt>
      <trkpt lat="47.284124018624425" lon="10.961719024926424">
        <ele>752.37</ele>
        <time>2018-09-17T14:33:09Z</time>
      </trkpt>
      <trkpt lat="47.284168023616076" lon="10.961857996881008">
        <ele>753.33000000000004</ele>
        <time>2018-09-17T14:33:10Z</time>
      </trkpt>
      <trkpt lat="47.284218985587358" lon="10.962001997977495">
        <ele>754.28999999999996</ele>
        <time>2018-09-17T14:33:11Z</time>
      </trkpt>
      <trkpt lat="47.284268019720912" lon="10.962143987417221">
        <ele>755.25</ele>
        <time>2018-09-17T14:33:12Z</time>
      </trkpt>
      <trkpt lat="47.284319987520576" lon="10.962274996563792">
        <ele>756.21000000000004</ele>
        <time>2018-09-17T14:33:13Z</time>
      </trkpt>
      <trkpt lat="47.28484402410686" lon="10.963094998151064">
        <ele>761.98000000000002</ele>
        <time>2018-09-17T14:33:22Z</time>
      </trkpt>
      <trkpt lat="47.285475013777614" lon="10.964301992207766">
        <ele>769.19000000000005</ele>
        <time>2018-09-17T14:33:30Z</time>
      </trkpt>
      <trkpt lat="47.285838034003973" lon="10.965146971866488">
        <ele>774</ele>
        <time>2018-09-17T14:33:37Z</time>
      </trkpt>
      <trkpt lat="47.286399034783244" lon="10.966197978705168">
        <ele>778.80999999999995</ele>
        <time>2018-09-17T14:33:45Z</time>
      </trkpt>
      <trkpt lat="47.28699398227036" lon="10.966720003634691">
        <ele>784.57000000000005</ele>
        <time>2018-09-17T14:33:51Z</time>
      </trkpt>
      <trkpt lat="47.287876009941101" lon="10.967012029141188">
        <ele>790.34000000000003</ele>
        <time>2018-09-17T14:33:56Z</time>
      </trkpt>
      <trkpt lat="47.288674972951412" lon="10.967173967510462">
        <ele>795.63</ele>
        <time>2018-09-17T14:34:02Z</time>
      </trkpt>
      <trkpt lat="47.289565969258547" lon="10.967460041865706">
        <ele>798.99000000000001</ele>
        <time>2018-09-17T14:34:09Z</time>
      </trkpt>
      <trkpt lat="47.290561990812421" lon="10.967987012118101">
        <ele>804.75999999999999</ele>
        <time>2018-09-17T14:34:15Z</time>
      </trkpt>
      <trkpt lat="47.291946010664105" lon="10.9687589854002">
        <ele>813.40999999999997</ele>
        <time>2018-09-17T14:34:27Z</time>
      </trkpt>
      <trkpt lat="47.293538991361856" lon="10.969588961452246">
        <ele>815.82000000000005</ele>
        <time>2018-09-17T14:34:39Z</time>
      </trkpt>
      <trkpt lat="47.294884035363793" lon="10.969665991142392">
        <ele>816.77999999999997</ele>
        <time>2018-09-17T14:34:48Z</time>
      </trkpt>
      <trkpt lat="47.296106033027172" lon="10.969054028391838">
        <ele>817.74000000000001</ele>
        <time>2018-09-17T14:34:56Z</time>
      </trkpt>
      <trkpt lat="47.297008009627461" lon="10.967925991863012">
        <ele>819.17999999999995</ele>
        <time>2018-09-17T14:35:03Z</time>
      </trkpt>
      <trkpt lat="47.297378992661834" lon="10.967105990275741">
        <ele>821.58000000000004</ele>
        <time>2018-09-17T14:35:07Z</time>
      </trkpt>
      <trkpt lat="47.297560041770339" lon="10.966562004759908">
        <ele>822.05999999999995</ele>
        <time>2018-09-17T14:35:09Z</time>
      </trkpt>
      <trkpt lat="47.298119030892849" lon="10.964045003056526">
        <ele>830.24000000000001</ele>
        <time>2018-09-17T14:35:16Z</time>
      </trkpt>
      <trkpt lat="47.298609958961606" lon="10.962219005450606">
        <ele>840.33000000000004</ele>
        <time>2018-09-17T14:35:22Z</time>
      </trkpt>
      <trkpt lat="47.298685982823372" lon="10.962003003805876">
        <ele>841.76999999999998</ele>
        <time>2018-09-17T14:35:23Z</time>
      </trkpt>
      <trkpt lat="47.29880902916193" lon="10.961838969960809">
        <ele>842.73000000000002</ele>
        <time>2018-09-17T14:35:24Z</time>
      </trkpt>
      <trkpt lat="47.298943977802992" lon="10.961701003834605">
        <ele>844.17999999999995</ele>
        <time>2018-09-17T14:35:25Z</time>
      </trkpt>
      <trkpt lat="47.299100970849395" lon="10.96162598580122">
        <ele>845.62</ele>
        <time>2018-09-17T14:35:26Z</time>
      </trkpt>
      <trkpt lat="47.299257041886449" lon="10.961552979424596">
        <ele>847.05999999999995</ele>
        <time>2018-09-17T14:35:27Z</time>
      </trkpt>
      <trkpt lat="47.299415040761232" lon="10.961551973596215">
        <ele>848.5</ele>
        <time>2018-09-17T14:35:28Z</time>
      </trkpt>
      <trkpt lat="47.299567004665732" lon="10.961597990244627">
        <ele>849.46000000000004</ele>
        <time>2018-09-17T14:35:29Z</time>
      </trkpt>
      <trkpt lat="47.299747969955206" lon="10.961651969701052">
        <ele>850.41999999999996</ele>
        <time>2018-09-17T14:35:30Z</time>
      </trkpt>
      <trkpt lat="47.299887025728822" lon="10.961768981069326">
        <ele>851.87</ele>
        <time>2018-09-17T14:35:31Z</time>
      </trkpt>
      <trkpt lat="47.300049969926476" lon="10.961907031014562">
        <ele>852.83000000000004</ele>
        <time>2018-09-17T14:35:32Z</time>
      </trkpt>
      <trkpt lat="47.300209980458021" lon="10.962042985484004">
        <ele>854.75</ele>
        <time>2018-09-17T14:35:33Z</time>
      </trkpt>
      <trkpt lat="47.300366973504424" lon="10.962155973538756">
        <ele>856.19000000000005</ele>
        <time>2018-09-17T14:35:34Z</time>
      </trkpt>
      <trkpt lat="47.300535030663013" lon="10.962245995178819">
        <ele>857.63</ele>
        <time>2018-09-17T14:35:35Z</time>
      </trkpt>
      <trkpt lat="47.300717001780868" lon="10.962315984070301">
        <ele>859.08000000000004</ele>
        <time>2018-09-17T14:35:36Z</time>
      </trkpt>
      <trkpt lat="47.30198903940618" lon="10.962814036756754">
        <ele>867.25</ele>
        <time>2018-09-17T14:35:43Z</time>
      </trkpt>
      <trkpt lat="47.302157012745738" lon="10.962872039526701">
        <ele>868.69000000000005</ele>
        <time>2018-09-17T14:35:44Z</time>
      </trkpt>
      <trkpt lat="47.302330015227199" lon="10.962905986234546">
        <ele>869.64999999999998</ele>
        <time>2018-09-17T14:35:45Z</time>
      </trkpt>
      <trkpt lat="47.302506035193801" lon="10.962884025648236">
        <ele>870.61000000000001</ele>
        <time>2018-09-17T14:35:46Z</time>
      </trkpt>
      <trkpt lat="47.302675014361739" lon="10.962835997343063">
        <ele>871.57000000000005</ele>
        <time>2018-09-17T14:35:47Z</time>
      </trkpt>
      <trkpt lat="47.302831001579762" lon="10.962728038430214">
        <ele>873.00999999999999</ele>
        <time>2018-09-17T14:35:48Z</time>
      </trkpt>
      <trkpt lat="47.302981037646532" lon="10.962607003748417">
        <ele>873.98000000000002</ele>
        <time>2018-09-17T14:35:49Z</time>
      </trkpt>
      <trkpt lat="47.303123027086258" lon="10.962473982945085">
        <ele>874.46000000000004</ele>
        <time>2018-09-17T14:35:50Z</time>
      </trkpt>
      <trkpt lat="47.303589982911944" lon="10.961906025186181">
        <ele>878.29999999999995</ele>
        <time>2018-09-17T14:35:55Z</time>
      </trkpt>
      <trkpt lat="47.303702970966697" lon="10.961854979395866">
        <ele>879.25999999999999</ele>
        <time>2018-09-17T14:35:57Z</time>
      </trkpt>
      <trkpt lat="47.303723003715277" lon="10.961768981069326">
        <ele>879.25999999999999</ele>
        <time>2018-09-17T14:35:58Z</time>
      </trkpt>
      <trkpt lat="47.303739013150334" lon="10.961694968864322">
        <ele>879.25999999999999</ele>
        <time>2018-09-17T14:35:59Z</time>
      </trkpt>
      <trkpt lat="47.303702970966697" lon="10.961647024378181">
        <ele>879.74000000000001</ele>
        <time>2018-09-17T14:36:00Z</time>
      </trkpt>
      <trkpt lat="47.303674975410104" lon="10.961608970537782">
        <ele>879.25999999999999</ele>
        <time>2018-09-17T14:36:01Z</time>
      </trkpt>
      <trkpt lat="47.303553018718958" lon="10.961564965546131">
        <ele>879.25999999999999</ele>
        <time>2018-09-17T14:36:02Z</time>
      </trkpt>
      <trkpt lat="47.303497027605772" lon="10.961462035775185">
        <ele>879.25999999999999</ele>
        <time>2018-09-17T14:36:03Z</time>
      </trkpt>
      <trkpt lat="47.30342703871429" lon="10.961337983608246">
        <ele>879.25999999999999</ele>
        <time>2018-09-17T14:36:04Z</time>
      </trkpt>
      <trkpt lat="47.302750032395124" lon="10.960359983146191">
        <ele>882.63</ele>
        <time>2018-09-17T14:36:10Z</time>
      </trkpt>
      <trkpt lat="47.302372008562088" lon="10.959801999852061">
        <ele>885.02999999999997</ele>
        <time>2018-09-17T14:36:13Z</time>
      </trkpt>
      <trkpt lat="47.30226899497211" lon="10.959580969065428">
        <ele>885.99000000000001</ele>
        <time>2018-09-17T14:36:14Z</time>
      </trkpt>
      <trkpt lat="47.302190037444234" lon="10.959345018491149">
        <ele>886.47000000000003</ele>
        <time>2018-09-17T14:36:15Z</time>
      </trkpt>
      <trkpt lat="47.302113007754087" lon="10.9591109957546">
        <ele>886.95000000000005</ele>
        <time>2018-09-17T14:36:16Z</time>
      </trkpt>
      <trkpt lat="47.302038995549083" lon="10.958886025473475">
        <ele>887.42999999999995</ele>
        <time>2018-09-17T14:36:17Z</time>
      </trkpt>
      <trkpt lat="47.301739007234573" lon="10.957602001726627">
        <ele>889.36000000000001</ele>
        <time>2018-09-17T14:36:24Z</time>
      </trkpt>
      <trkpt lat="47.301242966204882" lon="10.955973984673619">
        <ele>891.27999999999997</ele>
        <time>2018-09-17T14:36:34Z</time>
      </trkpt>
      <trkpt lat="47.301193010061979" lon="10.9558039996773">
        <ele>891.75999999999999</ele>
        <time>2018-09-17T14:36:35Z</time>
      </trkpt>
      <trkpt lat="47.300827978178859" lon="10.953904995694757">
        <ele>897.52999999999997</ele>
        <time>2018-09-17T14:36:44Z</time>
      </trkpt>
      <trkpt lat="47.300444003194571" lon="10.951524032279849">
        <ele>910.02999999999997</ele>
        <time>2018-09-17T14:36:52Z</time>
      </trkpt>
      <trkpt lat="47.300331015139818" lon="10.949515979737043">
        <ele>920.60000000000002</ele>
        <time>2018-09-17T14:36:59Z</time>
      </trkpt>
      <trkpt lat="47.300278041511774" lon="10.94843496568501">
        <ele>923.96000000000004</ele>
        <time>2018-09-17T14:37:04Z</time>
      </trkpt>
      <trkpt lat="47.300245016813278" lon="10.948241008445621">
        <ele>924.45000000000005</ele>
        <time>2018-09-17T14:37:05Z</time>
      </trkpt>
      <trkpt lat="47.30020503513515" lon="10.948053002357483">
        <ele>925.40999999999997</ele>
        <time>2018-09-17T14:37:06Z</time>
      </trkpt>
      <trkpt lat="47.300134040415287" lon="10.947874970734119">
        <ele>925.88999999999999</ele>
        <time>2018-09-17T14:37:07Z</time>
      </trkpt>
      <trkpt lat="47.300052987411618" lon="10.947672966867685">
        <ele>926.85000000000002</ele>
        <time>2018-09-17T14:37:08Z</time>
      </trkpt>
      <trkpt lat="47.29994997382164" lon="10.947453025728464">
        <ele>927.33000000000004</ele>
        <time>2018-09-17T14:37:09Z</time>
      </trkpt>
      <trkpt lat="47.29982097633183" lon="10.947220008820295">
        <ele>927.80999999999995</ele>
        <time>2018-09-17T14:37:10Z</time>
      </trkpt>
      <trkpt lat="47.299112034961581" lon="10.945839006453753">
        <ele>932.62</ele>
        <time>2018-09-17T14:37:16Z</time>
      </trkpt>
      <trkpt lat="47.299041040241718" lon="10.945605989545584">
        <ele>933.58000000000004</ele>
        <time>2018-09-17T14:37:17Z</time>
      </trkpt>
      <trkpt lat="47.298897039145231" lon="10.945154959335923">
        <ele>935.01999999999998</ele>
        <time>2018-09-17T14:37:19Z</time>
      </trkpt>
      <trkpt lat="47.298581041395664" lon="10.944217024371028">
        <ele>939.35000000000002</ele>
        <time>2018-09-17T14:37:23Z</time>
      </trkpt>
      <trkpt lat="47.298519015312195" lon="10.94398601911962">
        <ele>940.30999999999995</ele>
        <time>2018-09-17T14:37:24Z</time>
      </trkpt>
      <trkpt lat="47.298497976735234" lon="10.943717965856194">
        <ele>941.26999999999998</ele>
        <time>2018-09-17T14:37:25Z</time>
      </trkpt>
      <trkpt lat="47.298491019755602" lon="10.943442033603787">
        <ele>942.71000000000004</ele>
        <time>2018-09-17T14:37:26Z</time>
      </trkpt>
      <trkpt lat="47.298483978956938" lon="10.943155959248543">
        <ele>943.66999999999996</ele>
        <time>2018-09-17T14:37:27Z</time>
      </trkpt>
      <trkpt lat="47.298450032249093" lon="10.941075989976525">
        <ele>951.84000000000003</ele>
        <time>2018-09-17T14:37:34Z</time>
      </trkpt>
      <trkpt lat="47.298459000885487" lon="10.940783964470029">
        <ele>953.27999999999997</ele>
        <time>2018-09-17T14:37:35Z</time>
      </trkpt>
      <trkpt lat="47.298496970906854" lon="10.940491016954184">
        <ele>954.73000000000002</ele>
        <time>2018-09-17T14:37:36Z</time>
      </trkpt>
      <trkpt lat="47.298578023910522" lon="10.939906965941191">
        <ele>957.61000000000001</ele>
        <time>2018-09-17T14:37:38Z</time>
      </trkpt>
      <trkpt lat="47.29859403334558" lon="10.939600020647049">
        <ele>959.04999999999995</ele>
        <time>2018-09-17T14:37:39Z</time>
      </trkpt>
      <trkpt lat="47.298607025295496" lon="10.938971964642406">
        <ele>961.94000000000005</ele>
        <time>2018-09-17T14:37:41Z</time>
      </trkpt>
      <trkpt lat="47.29863703250885" lon="10.938656972721219">
        <ele>962.89999999999998</ele>
        <time>2018-09-17T14:37:42Z</time>
      </trkpt>
      <trkpt lat="47.298997035250068" lon="10.935711991041899">
        <ele>974.90999999999997</ele>
        <time>2018-09-17T14:37:51Z</time>
      </trkpt>
      <trkpt lat="47.299012960866094" lon="10.935409991070628">
        <ele>975.88</ele>
        <time>2018-09-17T14:37:52Z</time>
      </trkpt>
      <trkpt lat="47.298921011388302" lon="10.933333039283752">
        <ele>979.72000000000003</ele>
        <time>2018-09-17T14:37:59Z</time>
      </trkpt>
      <trkpt lat="47.298684976994991" lon="10.931920018047094">
        <ele>981.15999999999997</ele>
        <time>2018-09-17T14:38:06Z</time>
      </trkpt>
      <trkpt lat="47.298196982592344" lon="10.930331982672215">
        <ele>986.45000000000005</ele>
        <time>2018-09-17T14:38:16Z</time>
      </trkpt>
      <trkpt lat="47.29799397289753" lon="10.928555019199848">
        <ele>994.62</ele>
        <time>2018-09-17T14:38:27Z</time>
      </trkpt>
      <trkpt lat="47.298145014792681" lon="10.926683004945517">
        <ele>998.95000000000005</ele>
        <time>2018-09-17T14:38:37Z</time>
      </trkpt>
      <trkpt lat="47.298590010032058" lon="10.92467101290822">
        <ele>1002.3099999999999</ele>
        <time>2018-09-17T14:38:47Z</time>
      </trkpt>
      <trkpt lat="47.299328958615661" lon="10.922797992825508">
        <ele>1006.64</ele>
        <time>2018-09-17T14:38:57Z</time>
      </trkpt>
      <trkpt lat="47.299921978265047" lon="10.92097501270473">
        <ele>1008.08</ele>
        <time>2018-09-17T14:39:08Z</time>
      </trkpt>
      <trkpt lat="47.300217021256685" lon="10.918738972395658">
        <ele>1008.5599999999999</ele>
        <time>2018-09-17T14:39:20Z</time>
      </trkpt>
      <trkpt lat="47.300475016236305" lon="10.915960958227515">
        <ele>1019.13</ele>
        <time>2018-09-17T14:39:35Z</time>
      </trkpt>
      <trkpt lat="47.300370996817946" lon="10.913689965382218">
        <ele>1024.9000000000001</ele>
        <time>2018-09-17T14:39:47Z</time>
      </trkpt>
      <trkpt lat="47.300340989604592" lon="10.913503970950842">
        <ele>1025.3800000000001</ele>
        <time>2018-09-17T14:39:48Z</time>
      </trkpt>
      <trkpt lat="47.300304025411606" lon="10.91332602314651">
        <ele>1025.8599999999999</ele>
        <time>2018-09-17T14:39:49Z</time>
      </trkpt>
      <trkpt lat="47.300109984353185" lon="10.912581039592624">
        <ele>1026.8299999999999</ele>
        <time>2018-09-17T14:39:53Z</time>
      </trkpt>
      <trkpt lat="47.300059022381902" lon="10.912366965785623">
        <ele>1027.3099999999999</ele>
        <time>2018-09-17T14:39:54Z</time>
      </trkpt>
      <trkpt lat="47.300034966319799" lon="10.912125986069441">
        <ele>1028.27</ele>
        <time>2018-09-17T14:39:55Z</time>
      </trkpt>
      <trkpt lat="47.300022980198264" lon="10.910153975710273">
        <ele>1034.04</ele>
        <time>2018-09-17T14:40:02Z</time>
      </trkpt>
      <trkpt lat="47.300298996269703" lon="10.908746989443898">
        <ele>1039.8</ele>
        <time>2018-09-17T14:40:07Z</time>
      </trkpt>
      <trkpt lat="47.300392035394907" lon="10.908486982807517">
        <ele>1041.25</ele>
        <time>2018-09-17T14:40:08Z</time>
      </trkpt>
      <trkpt lat="47.301167026162148" lon="10.907017970457673">
        <ele>1051.3399999999999</ele>
        <time>2018-09-17T14:40:14Z</time>
      </trkpt>
      <trkpt lat="47.301289988681674" lon="10.906765004619956">
        <ele>1052.78</ele>
        <time>2018-09-17T14:40:15Z</time>
      </trkpt>
      <trkpt lat="47.301816958934069" lon="10.904771033674479">
        <ele>1064.3199999999999</ele>
        <time>2018-09-17T14:40:22Z</time>
      </trkpt>
      <trkpt lat="47.301872028037906" lon="10.904488982632756">
        <ele>1066.24</ele>
        <time>2018-09-17T14:40:23Z</time>
      </trkpt>
      <trkpt lat="47.301962971687317" lon="10.903674010187387">
        <ele>1071.05</ele>
        <time>2018-09-17T14:40:26Z</time>
      </trkpt>
      <trkpt lat="47.301995996385813" lon="10.903375027701259">
        <ele>1072.97</ele>
        <time>2018-09-17T14:40:27Z</time>
      </trkpt>
      <trkpt lat="47.302185008302331" lon="10.902491994202137">
        <ele>1078.26</ele>
        <time>2018-09-17T14:40:30Z</time>
      </trkpt>
      <trkpt lat="47.302287016063929" lon="10.902227964252234">
        <ele>1079.7</ele>
        <time>2018-09-17T14:40:31Z</time>
      </trkpt>
      <trkpt lat="47.302408972755075" lon="10.901935016736388">
        <ele>1081.6199999999999</ele>
        <time>2018-09-17T14:40:32Z</time>
      </trkpt>
      <trkpt lat="47.302534030750394" lon="10.901693031191826">
        <ele>1083.0599999999999</ele>
        <time>2018-09-17T14:40:33Z</time>
      </trkpt>
      <trkpt lat="47.302688006311655" lon="10.901398994028568">
        <ele>1084.5</ele>
        <time>2018-09-17T14:40:34Z</time>
      </trkpt>
      <trkpt lat="47.303663995116949" lon="10.899461014196277">
        <ele>1097</ele>
        <time>2018-09-17T14:40:41Z</time>
      </trkpt>
      <trkpt lat="47.303818976506591" lon="10.899000009521842">
        <ele>1100.8499999999999</ele>
        <time>2018-09-17T14:40:43Z</time>
      </trkpt>
      <trkpt lat="47.303873039782047" lon="10.89878099039197">
        <ele>1102.77</ele>
        <time>2018-09-17T14:40:44Z</time>
      </trkpt>
      <trkpt lat="47.304036989808083" lon="10.897745992988348">
        <ele>1111.9000000000001</ele>
        <time>2018-09-17T14:40:50Z</time>
      </trkpt>
      <trkpt lat="47.304148972034454" lon="10.897455979138613">
        <ele>1113.8199999999999</ele>
        <time>2018-09-17T14:40:52Z</time>
      </trkpt>
      <trkpt lat="47.30461098253727" lon="10.896274968981743">
        <ele>1117.6700000000001</ele>
        <time>2018-09-17T14:40:57Z</time>
      </trkpt>
      <trkpt lat="47.305077016353607" lon="10.894843004643917">
        <ele>1122.48</ele>
        <time>2018-09-17T14:41:03Z</time>
      </trkpt>
      <trkpt lat="47.30527700856328" lon="10.893834996968508">
        <ele>1122.96</ele>
        <time>2018-09-17T14:41:10Z</time>
      </trkpt>
      <trkpt lat="47.305526034906507" lon="10.892533035948873">
        <ele>1123.9200000000001</ele>
        <time>2018-09-17T14:41:18Z</time>
      </trkpt>
      <trkpt lat="47.305875979363918" lon="10.890975007787347">
        <ele>1122.96</ele>
        <time>2018-09-17T14:41:24Z</time>
      </trkpt>
      <trkpt lat="47.306137997657061" lon="10.890303030610085">
        <ele>1121.52</ele>
        <time>2018-09-17T14:41:27Z</time>
      </trkpt>
      <trkpt lat="47.306268000975251" lon="10.890093985944986">
        <ele>1121.03</ele>
        <time>2018-09-17T14:41:28Z</time>
      </trkpt>
      <trkpt lat="47.306395992636681" lon="10.88988896459341">
        <ele>1121.03</ele>
        <time>2018-09-17T14:41:29Z</time>
      </trkpt>
      <trkpt lat="47.307164026424289" lon="10.888764029368758">
        <ele>1117.1900000000001</ele>
        <time>2018-09-17T14:41:36Z</time>
      </trkpt>
      <trkpt lat="47.30824202299118" lon="10.887172976508737">
        <ele>1109.5</ele>
        <time>2018-09-17T14:41:47Z</time>
      </trkpt>
      <trkpt lat="47.308331038802862" lon="10.887000979855657">
        <ele>1109.02</ele>
        <time>2018-09-17T14:41:48Z</time>
      </trkpt>
      <trkpt lat="47.308385018259287" lon="10.88681498542428">
        <ele>1108.0599999999999</ele>
        <time>2018-09-17T14:41:49Z</time>
      </trkpt>
      <trkpt lat="47.308686012402177" lon="10.88556700386107">
        <ele>1100.8499999999999</ele>
        <time>2018-09-17T14:41:55Z</time>
      </trkpt>
      <trkpt lat="47.308703027665615" lon="10.885355025529861">
        <ele>1099.4000000000001</ele>
        <time>2018-09-17T14:41:56Z</time>
      </trkpt>
      <trkpt lat="47.308711996302009" lon="10.885147992521524">
        <ele>1098.4400000000001</ele>
        <time>2018-09-17T14:41:57Z</time>
      </trkpt>
      <trkpt lat="47.308703027665615" lon="10.884950011968613">
        <ele>1097.48</ele>
        <time>2018-09-17T14:41:58Z</time>
      </trkpt>
      <trkpt lat="47.3086710087955" lon="10.884738033637404">
        <ele>1096.52</ele>
        <time>2018-09-17T14:41:59Z</time>
      </trkpt>
      <trkpt lat="47.308639995753765" lon="10.884526977315545">
        <ele>1095.5599999999999</ele>
        <time>2018-09-17T14:42:00Z</time>
      </trkpt>
      <trkpt lat="47.308599008247256" lon="10.88432103395462">
        <ele>1095.0799999999999</ele>
        <time>2018-09-17T14:42:01Z</time>
      </trkpt>
      <trkpt lat="47.308364985510707" lon="10.882770968601108">
        <ele>1090.75</ele>
        <time>2018-09-17T14:42:07Z</time>
      </trkpt>
      <trkpt lat="47.308331038802862" lon="10.881508989259601">
        <ele>1085.47</ele>
        <time>2018-09-17T14:42:13Z</time>
      </trkpt>
      <trkpt lat="47.308438997715712" lon="10.879235984757543">
        <ele>1081.6199999999999</ele>
        <time>2018-09-17T14:42:23Z</time>
      </trkpt>
      <trkpt lat="47.308412007987499" lon="10.878060003742576">
        <ele>1078.74</ele>
        <time>2018-09-17T14:42:27Z</time>
      </trkpt>
      <trkpt lat="47.308292984962463" lon="10.8769949991256">
        <ele>1075.8499999999999</ele>
        <time>2018-09-17T14:42:32Z</time>
      </trkpt>
      <trkpt lat="47.307844972237945" lon="10.875204037874937">
        <ele>1073.9300000000001</ele>
        <time>2018-09-17T14:42:40Z</time>
      </trkpt>
      <trkpt lat="47.30733904056251" lon="10.874056974425912">
        <ele>1070.5699999999999</ele>
        <time>2018-09-17T14:42:46Z</time>
      </trkpt>
      <trkpt lat="47.306551979854703" lon="10.872331978753209">
        <ele>1065.28</ele>
        <time>2018-09-17T14:42:54Z</time>
      </trkpt>
      <trkpt lat="47.306212009862065" lon="10.871189022436738">
        <ele>1060.95</ele>
        <time>2018-09-17T14:42:58Z</time>
      </trkpt>
      <trkpt lat="47.306158030405641" lon="10.870938990265131">
        <ele>1060.47</ele>
        <time>2018-09-17T14:42:59Z</time>
      </trkpt>
      <trkpt lat="47.306111007928848" lon="10.870719971135259">
        <ele>1059.51</ele>
        <time>2018-09-17T14:43:00Z</time>
      </trkpt>
      <trkpt lat="47.305972035974264" lon="10.869154985994101">
        <ele>1054.7</ele>
        <time>2018-09-17T14:43:08Z</time>
      </trkpt>
      <trkpt lat="47.306094998493791" lon="10.867793010547757">
        <ele>1050.3800000000001</ele>
        <time>2018-09-17T14:43:14Z</time>
      </trkpt>
      <trkpt lat="47.306557008996606" lon="10.865958966314793">
        <ele>1045.0899999999999</ele>
        <time>2018-09-17T14:43:24Z</time>
      </trkpt>
      <trkpt lat="47.307273996993899" lon="10.864311000332236">
        <ele>1038.8399999999999</ele>
        <time>2018-09-17T14:43:33Z</time>
      </trkpt>
      <trkpt lat="47.308023003861308" lon="10.862612994387746">
        <ele>1035</ele>
        <time>2018-09-17T14:43:39Z</time>
      </trkpt>
      <trkpt lat="47.30835098773241" lon="10.861668018624187">
        <ele>1031.6300000000001</ele>
        <time>2018-09-17T14:43:43Z</time>
      </trkpt>
      <trkpt lat="47.308394992724061" lon="10.861452016979456">
        <ele>1030.6700000000001</ele>
        <time>2018-09-17T14:43:44Z</time>
      </trkpt>
      <trkpt lat="47.308394992724061" lon="10.8612269628793">
        <ele>1030.1900000000001</ele>
        <time>2018-09-17T14:43:45Z</time>
      </trkpt>
      <trkpt lat="47.308394992724061" lon="10.861016996204853">
        <ele>1029.71</ele>
        <time>2018-09-17T14:43:46Z</time>
      </trkpt>
      <trkpt lat="47.308365991339087" lon="10.860827984288335">
        <ele>1028.75</ele>
        <time>2018-09-17T14:43:47Z</time>
      </trkpt>
      <trkpt lat="47.308335984125733" lon="10.860636960715055">
        <ele>1027.79</ele>
        <time>2018-09-17T14:43:48Z</time>
      </trkpt>
      <trkpt lat="47.308278987184167" lon="10.86047301068902">
        <ele>1027.3099999999999</ele>
        <time>2018-09-17T14:43:49Z</time>
      </trkpt>
      <trkpt lat="47.308213021606207" lon="10.860304031521082">
        <ele>1026.3399999999999</ele>
        <time>2018-09-17T14:43:50Z</time>
      </trkpt>
      <trkpt lat="47.308136997744441" lon="10.860158018767834">
        <ele>1025.3800000000001</ele>
        <time>2018-09-17T14:43:51Z</time>
      </trkpt>
      <trkpt lat="47.308042030781507" lon="10.860019968822598">
        <ele>1024.9000000000001</ele>
        <time>2018-09-17T14:43:52Z</time>
      </trkpt>
      <trkpt lat="47.307944968342781" lon="10.859877979382873">
        <ele>1023.9400000000001</ele>
        <time>2018-09-17T14:43:53Z</time>
      </trkpt>
      <trkpt lat="47.307823011651635" lon="10.859788963571191">
        <ele>1022.98</ele>
        <time>2018-09-17T14:43:54Z</time>
      </trkpt>
      <trkpt lat="47.307690996676683" lon="10.859691984951496">
        <ele>1022.02</ele>
        <time>2018-09-17T14:43:55Z</time>
      </trkpt>
      <trkpt lat="47.307530986145139" lon="10.85961202159524">
        <ele>1021.0599999999999</ele>
        <time>2018-09-17T14:43:56Z</time>
      </trkpt>
      <trkpt lat="47.307327976450324" lon="10.859555024653673">
        <ele>1020.1</ele>
        <time>2018-09-17T14:43:57Z</time>
      </trkpt>
      <trkpt lat="47.3071030061692" lon="10.859543960541487">
        <ele>1018.65</ele>
        <time>2018-09-17T14:43:58Z</time>
      </trkpt>
      <trkpt lat="47.305989973247051" lon="10.859458968043327">
        <ele>1010.96</ele>
        <time>2018-09-17T14:44:04Z</time>
      </trkpt>
      <trkpt lat="47.304940978065133" lon="10.859192004427314">
        <ele>1003.27</ele>
        <time>2018-09-17T14:44:11Z</time>
      </trkpt>
      <trkpt lat="47.30338697321713" lon="10.858284998685122">
        <ele>990.29999999999995</ele>
        <time>2018-09-17T14:44:21Z</time>
      </trkpt>
      <trkpt lat="47.302747014909983" lon="10.857995990663767">
        <ele>985.00999999999999</ele>
        <time>2018-09-17T14:44:26Z</time>
      </trkpt>
      <trkpt lat="47.302607037127018" lon="10.857973024249077">
        <ele>984.04999999999995</ele>
        <time>2018-09-17T14:44:27Z</time>
      </trkpt>
      <trkpt lat="47.302465969696641" lon="10.857948968186975">
        <ele>982.60000000000002</ele>
        <time>2018-09-17T14:44:28Z</time>
      </trkpt>
      <trkpt lat="47.302328003570437" lon="10.857970006763935">
        <ele>981.63999999999999</ele>
        <time>2018-09-17T14:44:29Z</time>
      </trkpt>
      <trkpt lat="47.302190959453583" lon="10.857996996492147">
        <ele>980.67999999999995</ele>
        <time>2018-09-17T14:44:30Z</time>
      </trkpt>
      <trkpt lat="47.301807990297675" lon="10.858139991760254">
        <ele>977.32000000000005</ele>
        <time>2018-09-17T14:44:33Z</time>
      </trkpt>
      <trkpt lat="47.301681004464626" lon="10.858235964551568">
        <ele>976.36000000000001</ele>
        <time>2018-09-17T14:44:34Z</time>
      </trkpt>
      <trkpt lat="47.301186975091696" lon="10.85858004167676">
        <ele>972.50999999999999</ele>
        <time>2018-09-17T14:44:39Z</time>
      </trkpt>
      <trkpt lat="47.30108798481524" lon="10.858618011698127">
        <ele>972.02999999999997</ele>
        <time>2018-09-17T14:44:40Z</time>
      </trkpt>
      <trkpt lat="47.300984971225262" lon="10.858652964234352">
        <ele>971.07000000000005</ele>
        <time>2018-09-17T14:44:41Z</time>
      </trkpt>
      <trkpt lat="47.300887992605567" lon="10.858628991991282">
        <ele>970.11000000000001</ele>
        <time>2018-09-17T14:44:42Z</time>
      </trkpt>
      <trkpt lat="47.30078699067235" lon="10.85860401391983">
        <ele>969.14999999999998</ele>
        <time>2018-09-17T14:44:43Z</time>
      </trkpt>
      <trkpt lat="47.300682971253991" lon="10.858525978401303">
        <ele>968.17999999999995</ele>
        <time>2018-09-17T14:44:44Z</time>
      </trkpt>
      <trkpt lat="47.300599990412593" lon="10.858421036973596">
        <ele>967.70000000000005</ele>
        <time>2018-09-17T14:44:45Z</time>
      </trkpt>
      <trkpt lat="47.30052899569273" lon="10.858291033655405">
        <ele>966.74000000000001</ele>
        <time>2018-09-17T14:44:46Z</time>
      </trkpt>
      <trkpt lat="47.300475016236305" lon="10.858140997588634">
        <ele>965.77999999999997</ele>
        <time>2018-09-17T14:44:47Z</time>
      </trkpt>
      <trkpt lat="47.300450960174203" lon="10.857973024249077">
        <ele>965.29999999999995</ele>
        <time>2018-09-17T14:44:48Z</time>
      </trkpt>
      <trkpt lat="47.300441991537809" lon="10.857783006504178">
        <ele>964.82000000000005</ele>
        <time>2018-09-17T14:44:49Z</time>
      </trkpt>
      <trkpt lat="47.300470992922783" lon="10.857603969052434">
        <ele>964.34000000000003</ele>
        <time>2018-09-17T14:44:50Z</time>
      </trkpt>
      <trkpt lat="47.300522960722446" lon="10.857459967955947">
        <ele>963.86000000000001</ele>
        <time>2018-09-17T14:44:51Z</time>
      </trkpt>
      <trkpt lat="47.300600996240973" lon="10.857312027364969">
        <ele>963.38</ele>
        <time>2018-09-17T14:44:52Z</time>
      </trkpt>
      <trkpt lat="47.300692023709416" lon="10.85722804069519">
        <ele>962.89999999999998</ele>
        <time>2018-09-17T14:44:53Z</time>
      </trkpt>
      <trkpt lat="47.300781039521098" lon="10.857146987691522">
        <ele>961.94000000000005</ele>
        <time>2018-09-17T14:44:54Z</time>
      </trkpt>
      <trkpt lat="47.300901990383863" lon="10.857084961608052">
        <ele>961.46000000000004</ele>
        <time>2018-09-17T14:44:55Z</time>
      </trkpt>
      <trkpt lat="47.301136013120413" lon="10.85701203905046">
        <ele>960.98000000000002</ele>
        <time>2018-09-17T14:44:57Z</time>
      </trkpt>
      <trkpt lat="47.302134968340397" lon="10.856572994962335">
        <ele>957.61000000000001</ele>
        <time>2018-09-17T14:45:06Z</time>
      </trkpt>
      <trkpt lat="47.30237502604723" lon="10.856474004685879">
        <ele>956.16999999999996</ele>
        <time>2018-09-17T14:45:08Z</time>
      </trkpt>
      <trkpt lat="47.303311033174396" lon="10.856318017467856">
        <ele>951.36000000000001</ele>
        <time>2018-09-17T14:45:16Z</time>
      </trkpt>
      <trkpt lat="47.303453022614121" lon="10.856350958347321">
        <ele>950.88</ele>
        <time>2018-09-17T14:45:17Z</time>
      </trkpt>
      <trkpt lat="47.304600002244115" lon="10.856899973005056">
        <ele>941.26999999999998</ele>
        <time>2018-09-17T14:45:25Z</time>
      </trkpt>
      <trkpt lat="47.305263010784984" lon="10.857373969629407">
        <ele>933.10000000000002</ele>
        <time>2018-09-17T14:45:31Z</time>
      </trkpt>
      <trkpt lat="47.305354960262775" lon="10.857401965186">
        <ele>932.13999999999999</ele>
        <time>2018-09-17T14:45:32Z</time>
      </trkpt>
      <trkpt lat="47.305458979681134" lon="10.857419986277819">
        <ele>931.16999999999996</ele>
        <time>2018-09-17T14:45:33Z</time>
      </trkpt>
      <trkpt lat="47.30555696412921" lon="10.857437001541257">
        <ele>930.21000000000004</ele>
        <time>2018-09-17T14:45:34Z</time>
      </trkpt>
      <trkpt lat="47.305646985769272" lon="10.857453010976315">
        <ele>929.25</ele>
        <time>2018-09-17T14:45:35Z</time>
      </trkpt>
      <trkpt lat="47.305718986317515" lon="10.85740297101438">
        <ele>928.76999999999998</ele>
        <time>2018-09-17T14:45:36Z</time>
      </trkpt>
      <trkpt lat="47.305799033492804" lon="10.857343962416053">
        <ele>928.76999999999998</ele>
        <time>2018-09-17T14:45:37Z</time>
      </trkpt>
      <trkpt lat="47.305885031819344" lon="10.857282020151615">
        <ele>928.28999999999996</ele>
        <time>2018-09-17T14:45:38Z</time>
      </trkpt>
      <trkpt lat="47.305936999619007" lon="10.85718403570354">
        <ele>928.28999999999996</ele>
        <time>2018-09-17T14:45:39Z</time>
      </trkpt>
      <trkpt lat="47.305996008217335" lon="10.857074987143278">
        <ele>928.28999999999996</ele>
        <time>2018-09-17T14:45:40Z</time>
      </trkpt>
      <trkpt lat="47.306043030694127" lon="10.856966022402048">
        <ele>928.28999999999996</ele>
        <time>2018-09-17T14:45:41Z</time>
      </trkpt>
      <trkpt lat="47.306073037907481" lon="10.856830989941955">
        <ele>928.28999999999996</ele>
        <time>2018-09-17T14:45:42Z</time>
      </trkpt>
      <trkpt lat="47.306067002937198" lon="10.856693023815751">
        <ele>927.80999999999995</ele>
        <time>2018-09-17T14:45:43Z</time>
      </trkpt>
      <trkpt lat="47.306053005158901" lon="10.856550028547645">
        <ele>927.80999999999995</ele>
        <time>2018-09-17T14:45:44Z</time>
      </trkpt>
      <trkpt lat="47.306040013208985" lon="10.856414996087551">
        <ele>926.85000000000002</ele>
        <time>2018-09-17T14:45:45Z</time>
      </trkpt>
      <trkpt lat="47.306006988510489" lon="10.85630401968956">
        <ele>926.37</ele>
        <time>2018-09-17T14:45:46Z</time>
      </trkpt>
      <trkpt lat="47.305947979912162" lon="10.856184996664524">
        <ele>925.88999999999999</ele>
        <time>2018-09-17T14:45:47Z</time>
      </trkpt>
      <trkpt lat="47.305905986577272" lon="10.856102015823126">
        <ele>924.92999999999995</ele>
        <time>2018-09-17T14:45:48Z</time>
      </trkpt>
      <trkpt lat="47.305798027664423" lon="10.856015011668205">
        <ele>923.96000000000004</ele>
        <time>2018-09-17T14:45:49Z</time>
      </trkpt>
      <trkpt lat="47.305710017681122" lon="10.855944016948342">
        <ele>923.48000000000002</ele>
        <time>2018-09-17T14:45:50Z</time>
      </trkpt>
      <trkpt lat="47.305623013526201" lon="10.855916021391749">
        <ele>923</ele>
        <time>2018-09-17T14:45:51Z</time>
      </trkpt>
      <trkpt lat="47.305515976622701" lon="10.855893976986408">
        <ele>922.51999999999998</ele>
        <time>2018-09-17T14:45:52Z</time>
      </trkpt>
      <trkpt lat="47.305402988567948" lon="10.855870004743338">
        <ele>922.03999999999996</ele>
        <time>2018-09-17T14:45:53Z</time>
      </trkpt>
      <trkpt lat="47.305288994684815" lon="10.855846032500267">
        <ele>921.55999999999995</ele>
        <time>2018-09-17T14:45:54Z</time>
      </trkpt>
      <trkpt lat="47.303789975121617" lon="10.855513019487262">
        <ele>915.78999999999996</ele>
        <time>2018-09-17T14:46:07Z</time>
      </trkpt>
      <trkpt lat="47.30272002518177" lon="10.855079004541039">
        <ele>907.13999999999999</ele>
        <time>2018-09-17T14:46:17Z</time>
      </trkpt>
      <trkpt lat="47.301697013899684" lon="10.854415996000171">
        <ele>900.88999999999999</ele>
        <time>2018-09-17T14:46:27Z</time>
      </trkpt>
      <trkpt lat="47.300646007061005" lon="10.853592976927757">
        <ele>896.09000000000003</ele>
        <time>2018-09-17T14:46:36Z</time>
      </trkpt>
      <trkpt lat="47.299641016870737" lon="10.852800970897079">
        <ele>891.27999999999997</ele>
        <time>2018-09-17T14:46:41Z</time>
      </trkpt>
      <trkpt lat="47.297560041770339" lon="10.85114998742938">
        <ele>881.66999999999996</ele>
        <time>2018-09-17T14:46:49Z</time>
      </trkpt>
      <trkpt lat="47.295647962018847" lon="10.849411999806762">
        <ele>866.28999999999996</ele>
        <time>2018-09-17T14:46:57Z</time>
      </trkpt>
      <trkpt lat="47.295302040874958" lon="10.848819985985756">
        <ele>862.91999999999996</ele>
        <time>2018-09-17T14:46:59Z</time>
      </trkpt>
      <trkpt lat="47.295143958181143" lon="10.848501976579428">
        <ele>861.48000000000002</ele>
        <time>2018-09-17T14:47:00Z</time>
      </trkpt>
      <trkpt lat="47.2950080037117" lon="10.84816100075841">
        <ele>860.03999999999996</ele>
        <time>2018-09-17T14:47:01Z</time>
      </trkpt>
      <trkpt lat="47.294875988736749" lon="10.847809966653585">
        <ele>858.59000000000003</ele>
        <time>2018-09-17T14:47:02Z</time>
      </trkpt>
      <trkpt lat="47.294761994853616" lon="10.847447030246258">
        <ele>857.14999999999998</ele>
        <time>2018-09-17T14:47:03Z</time>
      </trkpt>
      <trkpt lat="47.294678008183837" lon="10.84706598892808">
        <ele>855.23000000000002</ele>
        <time>2018-09-17T14:47:04Z</time>
      </trkpt>
      <trkpt lat="47.294595027342439" lon="10.846686037257314">
        <ele>853.78999999999996</ele>
        <time>2018-09-17T14:47:05Z</time>
      </trkpt>
      <trkpt lat="47.294111978262663" lon="10.84494000300765">
        <ele>844.65999999999997</ele>
        <time>2018-09-17T14:47:10Z</time>
      </trkpt>
      <trkpt lat="47.29397501796484" lon="10.844652000814676">
        <ele>843.21000000000004</ele>
        <time>2018-09-17T14:47:11Z</time>
      </trkpt>
      <trkpt lat="47.293827999383211" lon="10.844382019713521">
        <ele>841.28999999999996</ele>
        <time>2018-09-17T14:47:12Z</time>
      </trkpt>
      <trkpt lat="47.293651979416609" lon="10.844146991148591">
        <ele>839.37</ele>
        <time>2018-09-17T14:47:13Z</time>
      </trkpt>
      <trkpt lat="47.293471014127135" lon="10.843925960361958">
        <ele>837.92999999999995</ele>
        <time>2018-09-17T14:47:14Z</time>
      </trkpt>
      <trkpt lat="47.293272027745843" lon="10.843738038092852">
        <ele>836</ele>
        <time>2018-09-17T14:47:15Z</time>
      </trkpt>
      <trkpt lat="47.293077986687422" lon="10.843551959842443">
        <ele>835.03999999999996</ele>
        <time>2018-09-17T14:47:16Z</time>
      </trkpt>
      <trkpt lat="47.292367033660412" lon="10.842894986271858">
        <ele>829.75999999999999</ele>
        <time>2018-09-17T14:47:20Z</time>
      </trkpt>
      <trkpt lat="47.292248010635376" lon="10.842689964920282">
        <ele>827.83000000000004</ele>
        <time>2018-09-17T14:47:21Z</time>
      </trkpt>
      <trkpt lat="47.292162012308836" lon="10.842485027387738">
        <ele>826.38999999999999</ele>
        <time>2018-09-17T14:47:22Z</time>
      </trkpt>
      <trkpt lat="47.292123958468437" lon="10.842268019914627">
        <ele>824.95000000000005</ele>
        <time>2018-09-17T14:47:23Z</time>
      </trkpt>
      <trkpt lat="47.292097974568605" lon="10.842046989127994">
        <ele>823.99000000000001</ele>
        <time>2018-09-17T14:47:24Z</time>
      </trkpt>
      <trkpt lat="47.29210501536727" lon="10.841819001361728">
        <ele>823.02999999999997</ele>
        <time>2018-09-17T14:47:25Z</time>
      </trkpt>
      <trkpt lat="47.292138962075114" lon="10.84158699028194">
        <ele>822.05999999999995</ele>
        <time>2018-09-17T14:47:26Z</time>
      </trkpt>
      <trkpt lat="47.292208028957248" lon="10.841360008344054">
        <ele>821.10000000000002</ele>
        <time>2018-09-17T14:47:27Z</time>
      </trkpt>
      <trkpt lat="47.292313976213336" lon="10.841182982549071">
        <ele>820.13999999999999</ele>
        <time>2018-09-17T14:47:28Z</time>
      </trkpt>
      <trkpt lat="47.292443979531527" lon="10.841019032523036">
        <ele>819.65999999999997</ele>
        <time>2018-09-17T14:47:29Z</time>
      </trkpt>
      <trkpt lat="47.292593009769917" lon="10.840910989791155">
        <ele>818.70000000000005</ele>
        <time>2018-09-17T14:47:30Z</time>
      </trkpt>
      <trkpt lat="47.292762994766235" lon="10.840853992849588">
        <ele>817.74000000000001</ele>
        <time>2018-09-17T14:47:31Z</time>
      </trkpt>
      <trkpt lat="47.29294303804636" lon="10.840839995071292">
        <ele>816.77999999999997</ele>
        <time>2018-09-17T14:47:32Z</time>
      </trkpt>
      <trkpt lat="47.29311796836555" lon="10.840887017548084">
        <ele>816.29999999999995</ele>
        <time>2018-09-17T14:47:33Z</time>
      </trkpt>
      <trkpt lat="47.293299017474055" lon="10.840983996167779">
        <ele>815.34000000000003</ele>
        <time>2018-09-17T14:47:34Z</time>
      </trkpt>
      <trkpt lat="47.293475959450006" lon="10.841121962293983">
        <ele>814.37</ele>
        <time>2018-09-17T14:47:35Z</time>
      </trkpt>
      <trkpt lat="47.293661031872034" lon="10.841265041381121">
        <ele>813.88999999999999</ele>
        <time>2018-09-17T14:47:36Z</time>
      </trkpt>
      <trkpt lat="47.295685010030866" lon="10.842721983790398">
        <ele>812.92999999999995</ele>
        <time>2018-09-17T14:47:46Z</time>
      </trkpt>
      <trkpt lat="47.297681998461485" lon="10.84362898953259">
        <ele>817.74000000000001</ele>
        <time>2018-09-17T14:47:55Z</time>
      </trkpt>
      <trkpt lat="47.300009988248348" lon="10.844021011143923">
        <ele>820.62</ele>
        <time>2018-09-17T14:48:05Z</time>
      </trkpt>
      <trkpt lat="47.301827017217875" lon="10.843769973143935">
        <ele>824.47000000000003</ele>
        <time>2018-09-17T14:48:14Z</time>
      </trkpt>
      <trkpt lat="47.303403988480568" lon="10.842962041497231">
        <ele>827.83000000000004</ele>
        <time>2018-09-17T14:48:22Z</time>
      </trkpt>
      <trkpt lat="47.304779039695859" lon="10.841510966420174">
        <ele>831.67999999999995</ele>
        <time>2018-09-17T14:48:30Z</time>
      </trkpt>
      <trkpt lat="47.305841026827693" lon="10.83973802626133">
        <ele>834.55999999999995</ele>
        <time>2018-09-17T14:48:38Z</time>
      </trkpt>
      <trkpt lat="47.306460030376911" lon="10.83827999420464">
        <ele>837.45000000000005</ele>
        <time>2018-09-17T14:48:44Z</time>
      </trkpt>
      <trkpt lat="47.306573018431664" lon="10.838052006438375">
        <ele>837.92999999999995</ele>
        <time>2018-09-17T14:48:45Z</time>
      </trkpt>
      <trkpt lat="47.306743003427982" lon="10.837647998705506">
        <ele>838.88999999999999</ele>
        <time>2018-09-17T14:48:47Z</time>
      </trkpt>
      <trkpt lat="47.310629021376371" lon="10.83520601503551">
        <ele>844.17999999999995</ele>
        <time>2018-09-17T14:49:09Z</time>
      </trkpt>
      <trkpt lat="47.311754962429404" lon="10.834078984335065">
        <ele>844.17999999999995</ele>
        <time>2018-09-17T14:49:16Z</time>
      </trkpt>
      <trkpt lat="47.31290303170681" lon="10.832081995904446">
        <ele>846.58000000000004</ele>
        <time>2018-09-17T14:49:25Z</time>
      </trkpt>
      <trkpt lat="47.314717965200543" lon="10.829302975907922">
        <ele>855.71000000000004</ele>
        <time>2018-09-17T14:49:38Z</time>
      </trkpt>
      <trkpt lat="47.314862972125411" lon="10.829096026718616">
        <ele>856.66999999999996</ele>
        <time>2018-09-17T14:49:39Z</time>
      </trkpt>
      <trkpt lat="47.315008984878659" lon="10.828888993710279">
        <ele>857.63</ele>
        <time>2018-09-17T14:49:40Z</time>
      </trkpt>
      <trkpt lat="47.315648021176457" lon="10.827743019908667">
        <ele>863.39999999999998</ele>
        <time>2018-09-17T14:49:45Z</time>
      </trkpt>
      <trkpt lat="47.316626021638513" lon="10.825850972905755">
        <ele>868.69000000000005</ele>
        <time>2018-09-17T14:49:53Z</time>
      </trkpt>
      <trkpt lat="47.316777985543013" lon="10.825676964595914">
        <ele>869.64999999999998</ele>
        <time>2018-09-17T14:49:54Z</time>
      </trkpt>
      <trkpt lat="47.317252987995744" lon="10.825228029862046">
        <ele>871.57000000000005</ele>
        <time>2018-09-17T14:49:57Z</time>
      </trkpt>
      <trkpt lat="47.32313297688961" lon="10.824064034968615">
        <ele>871.57000000000005</ele>
        <time>2018-09-17T14:50:28Z</time>
      </trkpt>
      <trkpt lat="47.325905039906502" lon="10.822091018781066">
        <ele>875.89999999999998</ele>
        <time>2018-09-17T14:50:42Z</time>
      </trkpt>
      <trkpt lat="47.32682797126472" lon="10.820803977549076">
        <ele>880.22000000000003</ele>
        <time>2018-09-17T14:50:50Z</time>
      </trkpt>
      <trkpt lat="47.327711004763842" lon="10.81939497962594">
        <ele>886.47000000000003</ele>
        <time>2018-09-17T14:50:58Z</time>
      </trkpt>
      <trkpt lat="47.328002024441957" lon="10.81913698464632">
        <ele>887.90999999999997</ele>
        <time>2018-09-17T14:51:00Z</time>
      </trkpt>
      <trkpt lat="47.328935014083982" lon="10.818433994427323">
        <ele>892.24000000000001</ele>
        <time>2018-09-17T14:51:07Z</time>
      </trkpt>
      <trkpt lat="47.329267021268606" lon="10.81829996779561">
        <ele>893.67999999999995</ele>
        <time>2018-09-17T14:51:13Z</time>
      </trkpt>
      <trkpt lat="47.329391995444894" lon="10.818252023309469">
        <ele>894.63999999999999</ele>
        <time>2018-09-17T14:51:17Z</time>
      </trkpt>
      <trkpt lat="47.329538008198142" lon="10.818195026367903">
        <ele>897.52999999999997</ele>
        <time>2018-09-17T14:51:22Z</time>
      </trkpt>
      <trkpt lat="47.329607997089624" lon="10.81816803663969">
        <ele>901.37</ele>
        <time>2018-09-17T14:51:31Z</time>
      </trkpt>
      <trkpt lat="47.330229012295604" lon="10.8181709703058">
        <ele>901.85000000000002</ele>
        <time>2018-09-17T14:51:36Z</time>
      </trkpt>
      <trkpt lat="47.331358976662159" lon="10.818528961390257">
        <ele>904.74000000000001</ele>
        <time>2018-09-17T14:51:42Z</time>
      </trkpt>
      <trkpt lat="47.331572966650128" lon="10.818594004958868">
        <ele>905.70000000000005</ele>
        <time>2018-09-17T14:51:43Z</time>
      </trkpt>
      <trkpt lat="47.331797014921904" lon="10.8186009619385">
        <ele>906.65999999999997</ele>
        <time>2018-09-17T14:51:44Z</time>
      </trkpt>
      <trkpt lat="47.332025002688169" lon="10.818608002737164">
        <ele>908.10000000000002</ele>
        <time>2018-09-17T14:51:45Z</time>
      </trkpt>
      <trkpt lat="47.332257013767958" lon="10.818612026050687">
        <ele>909.53999999999996</ele>
        <time>2018-09-17T14:51:46Z</time>
      </trkpt>
      <trkpt lat="47.332488019019365" lon="10.818571960553527">
        <ele>910.50999999999999</ele>
        <time>2018-09-17T14:51:47Z</time>
      </trkpt>
      <trkpt lat="47.333552017807961" lon="10.818517981097102">
        <ele>914.83000000000004</ele>
        <time>2018-09-17T14:51:52Z</time>
      </trkpt>
      <trkpt lat="47.335330992937088" lon="10.818915031850338">
        <ele>919.15999999999997</ele>
        <time>2018-09-17T14:52:00Z</time>
      </trkpt>
      <trkpt lat="47.336778966709971" lon="10.818829033523798">
        <ele>921.08000000000004</ele>
        <time>2018-09-17T14:52:06Z</time>
      </trkpt>
      <trkpt lat="47.336984993889928" lon="10.818771030753851">
        <ele>921.08000000000004</ele>
        <time>2018-09-17T14:52:07Z</time>
      </trkpt>
      <trkpt lat="47.337191021069884" lon="10.81866399385035">
        <ele>921.08000000000004</ele>
        <time>2018-09-17T14:52:08Z</time>
      </trkpt>
      <trkpt lat="47.338950969278812" lon="10.817649029195309">
        <ele>924.45000000000005</ele>
        <time>2018-09-17T14:52:16Z</time>
      </trkpt>
      <trkpt lat="47.339129000902176" lon="10.817578034475446">
        <ele>924.92999999999995</ele>
        <time>2018-09-17T14:52:17Z</time>
      </trkpt>
      <trkpt lat="47.339307032525539" lon="10.817575016990304">
        <ele>925.88999999999999</ele>
        <time>2018-09-17T14:52:18Z</time>
      </trkpt>
      <trkpt lat="47.339471988379955" lon="10.817622961476445">
        <ele>926.37</ele>
        <time>2018-09-17T14:52:19Z</time>
      </trkpt>
      <trkpt lat="47.339619006961584" lon="10.817735027521849">
        <ele>927.33000000000004</ele>
        <time>2018-09-17T14:52:20Z</time>
      </trkpt>
      <trkpt lat="47.339743981137872" lon="10.81786997616291">
        <ele>928.28999999999996</ele>
        <time>2018-09-17T14:52:21Z</time>
      </trkpt>
      <trkpt lat="47.339855041354895" lon="10.818052031099796">
        <ele>928.76999999999998</ele>
        <time>2018-09-17T14:52:22Z</time>
      </trkpt>
      <trkpt lat="47.339963000267744" lon="10.818230984732509">
        <ele>929.73000000000002</ele>
        <time>2018-09-17T14:52:23Z</time>
      </trkpt>
      <trkpt lat="47.340071965008974" lon="10.818410022184253">
        <ele>930.69000000000005</ele>
        <time>2018-09-17T14:52:24Z</time>
      </trkpt>
      <trkpt lat="47.340185958892107" lon="10.818600039929152">
        <ele>931.64999999999998</ele>
        <time>2018-09-17T14:52:25Z</time>
      </trkpt>
      <trkpt lat="47.340333983302116" lon="10.818787040188909">
        <ele>933.10000000000002</ele>
        <time>2018-09-17T14:52:26Z</time>
      </trkpt>
      <trkpt lat="47.34051302075386" lon="10.818945039063692">
        <ele>934.53999999999996</ele>
        <time>2018-09-17T14:52:27Z</time>
      </trkpt>
      <trkpt lat="47.341383984312415" lon="10.81990803591907">
        <ele>940.30999999999995</ele>
        <time>2018-09-17T14:52:32Z</time>
      </trkpt>
      <trkpt lat="47.341546006500721" lon="10.819967966526747">
        <ele>941.75</ele>
        <time>2018-09-17T14:52:33Z</time>
      </trkpt>
      <trkpt lat="47.341710962355137" lon="10.82001599483192">
        <ele>942.71000000000004</ele>
        <time>2018-09-17T14:52:34Z</time>
      </trkpt>
      <trkpt lat="47.341895028948784" lon="10.819990010932088">
        <ele>943.66999999999996</ele>
        <time>2018-09-17T14:52:35Z</time>
      </trkpt>
      <trkpt lat="47.342088986188173" lon="10.819928990676999">
        <ele>945.11000000000001</ele>
        <time>2018-09-17T14:52:36Z</time>
      </trkpt>
      <trkpt lat="47.342282021418214" lon="10.819881968200207">
        <ele>946.55999999999995</ele>
        <time>2018-09-17T14:52:37Z</time>
      </trkpt>
      <trkpt lat="47.342774039134383" lon="10.819713994860649">
        <ele>949.44000000000005</ele>
        <time>2018-09-17T14:52:40Z</time>
      </trkpt>
      <trkpt lat="47.342913011088967" lon="10.81962900236249">
        <ele>950.39999999999998</ele>
        <time>2018-09-17T14:52:41Z</time>
      </trkpt>
      <trkpt lat="47.34302599914372" lon="10.819465974345803">
        <ele>951.84000000000003</ele>
        <time>2018-09-17T14:52:42Z</time>
      </trkpt>
      <trkpt lat="47.343145022168756" lon="10.819287020713091">
        <ele>952.79999999999995</ele>
        <time>2018-09-17T14:52:43Z</time>
      </trkpt>
      <trkpt lat="47.34326396137476" lon="10.819108989089727">
        <ele>954.25</ele>
        <time>2018-09-17T14:52:44Z</time>
      </trkpt>
      <trkpt lat="47.34347996301949" lon="10.818806989118457">
        <ele>956.64999999999998</ele>
        <time>2018-09-17T14:52:46Z</time>
      </trkpt>
      <trkpt lat="47.343588005751371" lon="10.818731971085072">
        <ele>958.57000000000005</ele>
        <time>2018-09-17T14:52:47Z</time>
      </trkpt>
      <trkpt lat="47.343699987977743" lon="10.818678997457027">
        <ele>960.00999999999999</ele>
        <time>2018-09-17T14:52:48Z</time>
      </trkpt>
      <trkpt lat="47.343827979639173" lon="10.818678997457027">
        <ele>960.98000000000002</ele>
        <time>2018-09-17T14:52:49Z</time>
      </trkpt>
      <trkpt lat="47.343964017927647" lon="10.818678997457027">
        <ele>961.94000000000005</ele>
        <time>2018-09-17T14:52:50Z</time>
      </trkpt>
      <trkpt lat="47.344396021217108" lon="10.818678997457027">
        <ele>961.46000000000004</ele>
        <time>2018-09-17T14:52:53Z</time>
      </trkpt>
      <trkpt lat="47.344527030363679" lon="10.818753009662032">
        <ele>960.49000000000001</ele>
        <time>2018-09-17T14:52:54Z</time>
      </trkpt>
      <trkpt lat="47.344658961519599" lon="10.818830039352179">
        <ele>960.49000000000001</ele>
        <time>2018-09-17T14:52:55Z</time>
      </trkpt>
      <trkpt lat="47.3447469715029" lon="10.818904973566532">
        <ele>960.49000000000001</ele>
        <time>2018-09-17T14:52:56Z</time>
      </trkpt>
      <trkpt lat="47.344857025891542" lon="10.818956019356847">
        <ele>960.00999999999999</ele>
        <time>2018-09-17T14:52:57Z</time>
      </trkpt>
      <trkpt lat="47.344965990632772" lon="10.819005975499749">
        <ele>959.52999999999997</ele>
        <time>2018-09-17T14:52:58Z</time>
      </trkpt>
      <trkpt lat="47.345065986737609" lon="10.819008992984891">
        <ele>958.57000000000005</ele>
        <time>2018-09-17T14:52:59Z</time>
      </trkpt>
      <trkpt lat="47.345187021419406" lon="10.818983009085059">
        <ele>958.57000000000005</ele>
        <time>2018-09-17T14:53:00Z</time>
      </trkpt>
      <trkpt lat="47.3453030269593" lon="10.818958031013608">
        <ele>959.04999999999995</ele>
        <time>2018-09-17T14:53:01Z</time>
      </trkpt>
      <trkpt lat="47.345405034720898" lon="10.818924000486732">
        <ele>959.04999999999995</ele>
        <time>2018-09-17T14:53:02Z</time>
      </trkpt>
      <trkpt lat="47.345503019168973" lon="10.818887036293745">
        <ele>959.52999999999997</ele>
        <time>2018-09-17T14:53:03Z</time>
      </trkpt>
      <trkpt lat="47.345603015273809" lon="10.818873038515449">
        <ele>959.52999999999997</ele>
        <time>2018-09-17T14:53:04Z</time>
      </trkpt>
      <trkpt lat="47.345709968358278" lon="10.818936992436647">
        <ele>959.52999999999997</ele>
        <time>2018-09-17T14:53:05Z</time>
      </trkpt>
      <trkpt lat="47.345806024968624" lon="10.819043023511767">
        <ele>959.52999999999997</ele>
        <time>2018-09-17T14:53:06Z</time>
      </trkpt>
      <trkpt lat="47.345866961404681" lon="10.819174032658339">
        <ele>960.00999999999999</ele>
        <time>2018-09-17T14:53:07Z</time>
      </trkpt>
      <trkpt lat="47.345936028286815" lon="10.819319961592555">
        <ele>960.49000000000001</ele>
        <time>2018-09-17T14:53:08Z</time>
      </trkpt>
      <trkpt lat="47.346010040491819" lon="10.819477960467339">
        <ele>960.49000000000001</ele>
        <time>2018-09-17T14:53:09Z</time>
      </trkpt>
      <trkpt lat="47.346174996346235" lon="10.819827988743782">
        <ele>961.94000000000005</ele>
        <time>2018-09-17T14:53:11Z</time>
      </trkpt>
      <trkpt lat="47.346263006329536" lon="10.820013983175159">
        <ele>962.89999999999998</ele>
        <time>2018-09-17T14:53:12Z</time>
      </trkpt>
      <trkpt lat="47.346956022083759" lon="10.821148976683617">
        <ele>967.70000000000005</ele>
        <time>2018-09-17T14:53:18Z</time>
      </trkpt>
      <trkpt lat="47.347566979005933" lon="10.822329986840487">
        <ele>972.02999999999997</ele>
        <time>2018-09-17T14:53:23Z</time>
      </trkpt>
      <trkpt lat="47.347669992595911" lon="10.822558980435133">
        <ele>973.47000000000003</ele>
        <time>2018-09-17T14:53:24Z</time>
      </trkpt>
      <trkpt lat="47.347764959558845" lon="10.822770036756992">
        <ele>974.42999999999995</ele>
        <time>2018-09-17T14:53:25Z</time>
      </trkpt>
      <trkpt lat="47.348060002550483" lon="10.823427010327578">
        <ele>978.27999999999997</ele>
        <time>2018-09-17T14:53:29Z</time>
      </trkpt>
      <trkpt lat="47.348120016977191" lon="10.823561958968639">
        <ele>979.24000000000001</ele>
        <time>2018-09-17T14:53:30Z</time>
      </trkpt>
      <trkpt lat="47.348178019747138" lon="10.823691040277481">
        <ele>980.20000000000005</ele>
        <time>2018-09-17T14:53:31Z</time>
      </trkpt>
      <trkpt lat="47.348240967839956" lon="10.823811991140246">
        <ele>980.67999999999995</ele>
        <time>2018-09-17T14:53:32Z</time>
      </trkpt>
      <trkpt lat="47.348340963944793" lon="10.823903018608689">
        <ele>981.63999999999999</ele>
        <time>2018-09-17T14:53:33Z</time>
      </trkpt>
      <trkpt lat="47.348451018333435" lon="10.823934031650424">
        <ele>982.12</ele>
        <time>2018-09-17T14:53:34Z</time>
      </trkpt>
      <trkpt lat="47.34857096336782" lon="10.823966972529888">
        <ele>983.09000000000003</ele>
        <time>2018-09-17T14:53:35Z</time>
      </trkpt>
      <trkpt lat="47.348693003877997" lon="10.824001003056765">
        <ele>983.57000000000005</ele>
        <time>2018-09-17T14:53:36Z</time>
      </trkpt>
      <trkpt lat="47.348799034953117" lon="10.824096975848079">
        <ele>984.04999999999995</ele>
        <time>2018-09-17T14:53:37Z</time>
      </trkpt>
      <trkpt lat="47.348989974707365" lon="10.82427098415792">
        <ele>985.00999999999999</ele>
        <time>2018-09-17T14:53:39Z</time>
      </trkpt>
      <trkpt lat="47.349120983853936" lon="10.824390007182956">
        <ele>986.45000000000005</ele>
        <time>2018-09-17T14:53:41Z</time>
      </trkpt>
      <trkpt lat="47.349211005493999" lon="10.824439963325858">
        <ele>987.88999999999999</ele>
        <time>2018-09-17T14:53:43Z</time>
      </trkpt>
      <trkpt lat="47.34934201464057" lon="10.824468964710832">
        <ele>989.33000000000004</ele>
        <time>2018-09-17T14:53:45Z</time>
      </trkpt>
      <trkpt lat="47.349417032673955" lon="10.824457984417677">
        <ele>990.29999999999995</ele>
        <time>2018-09-17T14:53:46Z</time>
      </trkpt>
      <trkpt lat="47.349489033222198" lon="10.824439963325858">
        <ele>991.25999999999999</ele>
        <time>2018-09-17T14:53:47Z</time>
      </trkpt>
      <trkpt lat="47.34955701045692" lon="10.824423031881452">
        <ele>992.22000000000003</ele>
        <time>2018-09-17T14:53:48Z</time>
      </trkpt>
      <trkpt lat="47.349619036540389" lon="10.824408028274775">
        <ele>993.17999999999995</ele>
        <time>2018-09-17T14:53:49Z</time>
      </trkpt>
      <trkpt lat="47.349690031260252" lon="10.824390007182956">
        <ele>993.65999999999997</ele>
        <time>2018-09-17T14:53:50Z</time>
      </trkpt>
      <trkpt lat="47.34977301210165" lon="10.824368968605995">
        <ele>994.13999999999999</ele>
        <time>2018-09-17T14:53:51Z</time>
      </trkpt>
      <trkpt lat="47.349869990721345" lon="10.824401993304491">
        <ele>995.10000000000002</ele>
        <time>2018-09-17T14:53:52Z</time>
      </trkpt>
      <trkpt lat="47.349997982382774" lon="10.824458990246058">
        <ele>996.05999999999995</ele>
        <time>2018-09-17T14:53:53Z</time>
      </trkpt>
      <trkpt lat="47.350174002349377" lon="10.824537025764585">
        <ele>997.50999999999999</ele>
        <time>2018-09-17T14:53:54Z</time>
      </trkpt>
      <trkpt lat="47.350318003445864" lon="10.824625035747886">
        <ele>998.47000000000003</ele>
        <time>2018-09-17T14:53:55Z</time>
      </trkpt>
      <trkpt lat="47.350490000098944" lon="10.824728971347213">
        <ele>999.42999999999995</ele>
        <time>2018-09-17T14:53:56Z</time>
      </trkpt>
      <trkpt lat="47.351046977564692" lon="10.825142031535506">
        <ele>1002.79</ele>
        <time>2018-09-17T14:54:00Z</time>
      </trkpt>
      <trkpt lat="47.351182010024786" lon="10.825284020975232">
        <ele>1003.27</ele>
        <time>2018-09-17T14:54:01Z</time>
      </trkpt>
      <trkpt lat="47.351316036656499" lon="10.825461968779564">
        <ele>1004.23</ele>
        <time>2018-09-17T14:54:02Z</time>
      </trkpt>
      <trkpt lat="47.351968986913562" lon="10.826487997546792">
        <ele>1009.04</ele>
        <time>2018-09-17T14:54:07Z</time>
      </trkpt>
      <trkpt lat="47.352663008496165" lon="10.82751402631402">
        <ele>1016.25</ele>
        <time>2018-09-17T14:54:15Z</time>
      </trkpt>
      <trkpt lat="47.352887978777289" lon="10.827927002683282">
        <ele>1017.6900000000001</ele>
        <time>2018-09-17T14:54:18Z</time>
      </trkpt>
      <trkpt lat="47.353484015911818" lon="10.829336000606418">
        <ele>1020.58</ele>
        <time>2018-09-17T14:54:26Z</time>
      </trkpt>
      <trkpt lat="47.353904033079743" lon="10.83103702403605">
        <ele>1022.98</ele>
        <time>2018-09-17T14:54:33Z</time>
      </trkpt>
      <trkpt lat="47.354287002235651" lon="10.832989001646638">
        <ele>1022.5</ele>
        <time>2018-09-17T14:54:39Z</time>
      </trkpt>
      <trkpt lat="47.354501998052001" lon="10.8347989898175">
        <ele>1021.54</ele>
        <time>2018-09-17T14:54:45Z</time>
      </trkpt>
      <trkpt lat="47.354528987780213" lon="10.836332961916924">
        <ele>1025.8599999999999</ele>
        <time>2018-09-17T14:54:52Z</time>
      </trkpt>
      <trkpt lat="47.354528987780213" lon="10.836878037080169">
        <ele>1027.79</ele>
        <time>2018-09-17T14:54:54Z</time>
      </trkpt>
      <trkpt lat="47.354466039687395" lon="10.837294030934572">
        <ele>1029.71</ele>
        <time>2018-09-17T14:54:56Z</time>
      </trkpt>
      <trkpt lat="47.35443502664566" lon="10.837474996224046">
        <ele>1030.6700000000001</ele>
        <time>2018-09-17T14:54:57Z</time>
      </trkpt>
      <trkpt lat="47.354336036369205" lon="10.838056029751897">
        <ele>1033.55</ele>
        <time>2018-09-17T14:55:00Z</time>
      </trkpt>
      <trkpt lat="47.354252971708775" lon="10.838241018354893">
        <ele>1034.52</ele>
        <time>2018-09-17T14:55:01Z</time>
      </trkpt>
      <trkpt lat="47.354150963947177" lon="10.838470011949539">
        <ele>1035.48</ele>
        <time>2018-09-17T14:55:02Z</time>
      </trkpt>
      <trkpt lat="47.353669004514813" lon="10.83954599685967">
        <ele>1043.6500000000001</ele>
        <time>2018-09-17T14:55:08Z</time>
      </trkpt>
      <trkpt lat="47.353590968996286" lon="10.839740037918091">
        <ele>1046.05</ele>
        <time>2018-09-17T14:55:10Z</time>
      </trkpt>
      <trkpt lat="47.353564985096455" lon="10.83982796408236">
        <ele>1047.97</ele>
        <time>2018-09-17T14:55:11Z</time>
      </trkpt>
      <trkpt lat="47.353541012853384" lon="10.839907005429268">
        <ele>1049.4200000000001</ele>
        <time>2018-09-17T14:55:12Z</time>
      </trkpt>
      <trkpt lat="47.353519974276423" lon="10.839978000149131">
        <ele>1050.3800000000001</ele>
        <time>2018-09-17T14:55:13Z</time>
      </trkpt>
      <trkpt lat="47.353502037003636" lon="10.8400400262326">
        <ele>1051.8199999999999</ele>
        <time>2018-09-17T14:55:14Z</time>
      </trkpt>
      <trkpt lat="47.353484015911818" lon="10.840102974325418">
        <ele>1052.78</ele>
        <time>2018-09-17T14:55:15Z</time>
      </trkpt>
      <trkpt lat="47.353465994819999" lon="10.840162988752127">
        <ele>1054.22</ele>
        <time>2018-09-17T14:55:16Z</time>
      </trkpt>
      <trkpt lat="47.353448979556561" lon="10.840218979865313">
        <ele>1055.6700000000001</ele>
        <time>2018-09-17T14:55:17Z</time>
      </trkpt>
      <trkpt lat="47.353381002321839" lon="10.84044998511672">
        <ele>1059.99</ele>
        <time>2018-09-17T14:55:21Z</time>
      </trkpt>
      <trkpt lat="47.353358035907149" lon="10.840525003150105">
        <ele>1060.95</ele>
        <time>2018-09-17T14:55:22Z</time>
      </trkpt>
      <trkpt lat="47.353332974016666" lon="10.840609995648265">
        <ele>1062.3900000000001</ele>
        <time>2018-09-17T14:55:23Z</time>
      </trkpt>
      <trkpt lat="47.353283017873764" lon="10.840778974816203">
        <ele>1063.8399999999999</ele>
        <time>2018-09-17T14:55:25Z</time>
      </trkpt>
      <trkpt lat="47.353256028145552" lon="10.840871008113027">
        <ele>1064.8</ele>
        <time>2018-09-17T14:55:26Z</time>
      </trkpt>
      <trkpt lat="47.35318997874856" lon="10.841101007536054">
        <ele>1065.76</ele>
        <time>2018-09-17T14:55:29Z</time>
      </trkpt>
      <trkpt lat="47.353177992627025" lon="10.841146018356085">
        <ele>1065.76</ele>
        <time>2018-09-17T14:55:30Z</time>
      </trkpt>
      <trkpt lat="47.353091994300485" lon="10.841317009180784">
        <ele>1065.28</ele>
        <time>2018-09-17T14:55:35Z</time>
      </trkpt>
      <trkpt lat="47.35303801484406" lon="10.841348022222519">
        <ele>1065.76</ele>
        <time>2018-09-17T14:55:36Z</time>
      </trkpt>
      <trkpt lat="47.352990992367268" lon="10.841375011950731">
        <ele>1066.24</ele>
        <time>2018-09-17T14:55:37Z</time>
      </trkpt>
      <trkpt lat="47.352945981547236" lon="10.841399990022182">
        <ele>1066.72</ele>
        <time>2018-09-17T14:55:38Z</time>
      </trkpt>
      <trkpt lat="47.352910023182631" lon="10.841405019164085">
        <ele>1067.2</ele>
        <time>2018-09-17T14:55:39Z</time>
      </trkpt>
      <trkpt lat="47.352851014584303" lon="10.841409964486957">
        <ele>1067.6800000000001</ele>
        <time>2018-09-17T14:55:40Z</time>
      </trkpt>
      <trkpt lat="47.352806003764272" lon="10.841412981972098">
        <ele>1068.6400000000001</ele>
        <time>2018-09-17T14:55:41Z</time>
      </trkpt>
      <trkpt lat="47.352769039571285" lon="10.84141499362886">
        <ele>1069.1199999999999</ele>
        <time>2018-09-17T14:55:42Z</time>
      </trkpt>
      <trkpt lat="47.352727968245745" lon="10.841418011114001">
        <ele>1070.0799999999999</ele>
        <time>2018-09-17T14:55:43Z</time>
      </trkpt>
      <trkpt lat="47.352685974910855" lon="10.841421028599143">
        <ele>1070.5699999999999</ele>
        <time>2018-09-17T14:55:44Z</time>
      </trkpt>
      <trkpt lat="47.352572986856103" lon="10.841428991407156">
        <ele>1072.49</ele>
        <time>2018-09-17T14:55:48Z</time>
      </trkpt>
      <trkpt lat="47.352550020441413" lon="10.841431003063917">
        <ele>1072.97</ele>
        <time>2018-09-17T14:55:49Z</time>
      </trkpt>
      <trkpt lat="47.352528981864452" lon="10.841432008892298">
        <ele>1074.4100000000001</ele>
        <time>2018-09-17T14:55:59Z</time>
      </trkpt>
      <trkpt lat="47.352466033771634" lon="10.841437038034201">
        <ele>1074.4100000000001</ele>
        <time>2018-09-17T14:56:13Z</time>
      </trkpt>
      <trkpt lat="47.352364026010036" lon="10.841443995013833">
        <ele>1075.3699999999999</ele>
        <time>2018-09-17T14:56:15Z</time>
      </trkpt>
      <trkpt lat="47.352327983826399" lon="10.841461010277271">
        <ele>1075.3699999999999</ele>
        <time>2018-09-17T14:56:16Z</time>
      </trkpt>
      <trkpt lat="47.352282973006368" lon="10.841518007218838">
        <ele>1075.3699999999999</ele>
        <time>2018-09-17T14:56:17Z</time>
      </trkpt>
      <trkpt lat="47.352254977449775" lon="10.841555977240205">
        <ele>1075.3699999999999</ele>
        <time>2018-09-17T14:56:18Z</time>
      </trkpt>
      <trkpt lat="47.352266041561961" lon="10.841633006930351">
        <ele>1075.3699999999999</ele>
        <time>2018-09-17T14:56:19Z</time>
      </trkpt>
      <trkpt lat="47.352323038503528" lon="10.841715987771749">
        <ele>1075.3699999999999</ele>
        <time>2018-09-17T14:56:20Z</time>
      </trkpt>
      <trkpt lat="47.352432003244758" lon="10.841745994985104">
        <ele>1074.8900000000001</ele>
        <time>2018-09-17T14:56:21Z</time>
      </trkpt>
      <trkpt lat="47.352573992684484" lon="10.841756975278258">
        <ele>1074.8900000000001</ele>
        <time>2018-09-17T14:56:22Z</time>
      </trkpt>
      <trkpt lat="47.353004990145564" lon="10.841677011922002">
        <ele>1074.8900000000001</ele>
        <time>2018-09-17T14:56:25Z</time>
      </trkpt>
      <trkpt lat="47.35310398042202" lon="10.841643987223506">
        <ele>1074.8900000000001</ele>
        <time>2018-09-17T14:56:26Z</time>
      </trkpt>
      <trkpt lat="47.353184027597308" lon="10.841526975855231">
        <ele>1074.8900000000001</ele>
        <time>2018-09-17T14:56:27Z</time>
      </trkpt>
      <trkpt lat="47.353274971246719" lon="10.841394038870931">
        <ele>1074.8900000000001</ele>
        <time>2018-09-17T14:56:28Z</time>
      </trkpt>
      <trkpt lat="47.353363987058401" lon="10.841217013075948">
        <ele>1075.3699999999999</ele>
        <time>2018-09-17T14:56:29Z</time>
      </trkpt>
      <trkpt lat="47.353900009766221" lon="10.839855959638953">
        <ele>1078.26</ele>
        <time>2018-09-17T14:56:35Z</time>
      </trkpt>
      <trkpt lat="47.354020038619637" lon="10.839660996571183">
        <ele>1078.74</ele>
        <time>2018-09-17T14:56:36Z</time>
      </trkpt>
      <trkpt lat="47.354798968881369" lon="10.838325005024672">
        <ele>1084.02</ele>
        <time>2018-09-17T14:56:42Z</time>
      </trkpt>
      <trkpt lat="47.354895025491714" lon="10.8380420319736">
        <ele>1085.47</ele>
        <time>2018-09-17T14:56:43Z</time>
      </trkpt>
      <trkpt lat="47.354995021596551" lon="10.837751012295485">
        <ele>1086.4300000000001</ele>
        <time>2018-09-17T14:56:44Z</time>
      </trkpt>
      <trkpt lat="47.355067022144794" lon="10.837426967918873">
        <ele>1087.3900000000001</ele>
        <time>2018-09-17T14:56:45Z</time>
      </trkpt>
      <trkpt lat="47.355127958580852" lon="10.837090015411377">
        <ele>1088.8299999999999</ele>
        <time>2018-09-17T14:56:46Z</time>
      </trkpt>
      <trkpt lat="47.355415038764477" lon="10.833798022940755">
        <ele>1105.1700000000001</ele>
        <time>2018-09-17T14:56:55Z</time>
      </trkpt>
      <trkpt lat="47.355430964380503" lon="10.833421004936099">
        <ele>1107.0999999999999</ele>
        <time>2018-09-17T14:56:56Z</time>
      </trkpt>
      <trkpt lat="47.355560967698693" lon="10.831241961568594">
        <ele>1117.1900000000001</ele>
        <time>2018-09-17T14:57:02Z</time>
      </trkpt>
      <trkpt lat="47.3555329721421" lon="10.830345014110208">
        <ele>1122</ele>
        <time>2018-09-17T14:57:06Z</time>
      </trkpt>
      <trkpt lat="47.355541018769145" lon="10.829766998067498">
        <ele>1126.8</ele>
        <time>2018-09-17T14:57:11Z</time>
      </trkpt>
      <trkpt lat="47.355577982962132" lon="10.829628026112914">
        <ele>1127.28</ele>
        <time>2018-09-17T14:57:12Z</time>
      </trkpt>
      <trkpt lat="47.355627017095685" lon="10.829481007531285">
        <ele>1128.73</ele>
        <time>2018-09-17T14:57:13Z</time>
      </trkpt>
      <trkpt lat="47.355974027886987" lon="10.828629992902279">
        <ele>1134.49</ele>
        <time>2018-09-17T14:57:17Z</time>
      </trkpt>
      <trkpt lat="47.356269992887974" lon="10.827464992180467">
        <ele>1140.26</ele>
        <time>2018-09-17T14:57:21Z</time>
      </trkpt>
      <trkpt lat="47.356298994272947" lon="10.827187970280647">
        <ele>1141.7</ele>
        <time>2018-09-17T14:57:22Z</time>
      </trkpt>
      <trkpt lat="47.356305029243231" lon="10.82691203802824">
        <ele>1142.6600000000001</ele>
        <time>2018-09-17T14:57:23Z</time>
      </trkpt>
      <trkpt lat="47.356278039515018" lon="10.826654965057969">
        <ele>1143.6300000000001</ele>
        <time>2018-09-17T14:57:24Z</time>
      </trkpt>
      <trkpt lat="47.356252977624536" lon="10.826421026140451">
        <ele>1144.1099999999999</ele>
        <time>2018-09-17T14:57:25Z</time>
      </trkpt>
      <trkpt lat="47.356246020644903" lon="10.826213993132114">
        <ele>1144.5899999999999</ele>
        <time>2018-09-17T14:57:26Z</time>
      </trkpt>
      <trkpt lat="47.356246020644903" lon="10.826022969558835">
        <ele>1144.5899999999999</ele>
        <time>2018-09-17T14:57:27Z</time>
      </trkpt>
      <trkpt lat="47.356307962909341" lon="10.825857007876039">
        <ele>1145.0699999999999</ele>
        <time>2018-09-17T14:57:28Z</time>
      </trkpt>
      <trkpt lat="47.356399996206164" lon="10.825714012607932">
        <ele>1145.0699999999999</ele>
        <time>2018-09-17T14:57:29Z</time>
      </trkpt>
      <trkpt lat="47.356524970382452" lon="10.825593983754516">
        <ele>1145.55</ele>
        <time>2018-09-17T14:57:30Z</time>
      </trkpt>
      <trkpt lat="47.356666037812829" lon="10.825458029285073">
        <ele>1145.55</ele>
        <time>2018-09-17T14:57:31Z</time>
      </trkpt>
      <trkpt lat="47.357675973325968" lon="10.824613971635699">
        <ele>1150.8399999999999</ele>
        <time>2018-09-17T14:57:38Z</time>
      </trkpt>
      <trkpt lat="47.357800025492907" lon="10.824514981359243">
        <ele>1151.8</ele>
        <time>2018-09-17T14:57:39Z</time>
      </trkpt>
      <trkpt lat="47.358021978288889" lon="10.824275007471442">
        <ele>1154.2</ele>
        <time>2018-09-17T14:57:41Z</time>
      </trkpt>
      <trkpt lat="47.358107976615429" lon="10.824113991111517">
        <ele>1155.1600000000001</ele>
        <time>2018-09-17T14:57:42Z</time>
      </trkpt>
      <trkpt lat="47.358196992427111" lon="10.823964038863778">
        <ele>1155.6400000000001</ele>
        <time>2018-09-17T14:57:43Z</time>
      </trkpt>
      <trkpt lat="47.358278967440128" lon="10.823833029717207">
        <ele>1156.5999999999999</ele>
        <time>2018-09-17T14:57:44Z</time>
      </trkpt>
      <trkpt lat="47.358348034322262" lon="10.823720963671803">
        <ele>1157.0799999999999</ele>
        <time>2018-09-17T14:57:45Z</time>
      </trkpt>
      <trkpt lat="47.358409976586699" lon="10.823620967566967">
        <ele>1157.5599999999999</ele>
        <time>2018-09-17T14:57:46Z</time>
      </trkpt>
      <trkpt lat="47.358465967699885" lon="10.823532035574317">
        <ele>1158.53</ele>
        <time>2018-09-17T14:57:47Z</time>
      </trkpt>
      <trkpt lat="47.358546014875174" lon="10.823435978963971">
        <ele>1159.01</ele>
        <time>2018-09-17T14:57:48Z</time>
      </trkpt>
      <trkpt lat="47.358616003766656" lon="10.823416030034423">
        <ele>1159.49</ele>
        <time>2018-09-17T14:57:49Z</time>
      </trkpt>
      <trkpt lat="47.358725974336267" lon="10.823466992005706">
        <ele>1160.45</ele>
        <time>2018-09-17T14:57:50Z</time>
      </trkpt>
      <trkpt lat="47.358784982934594" lon="10.82353999838233">
        <ele>1160.45</ele>
        <time>2018-09-17T14:57:51Z</time>
      </trkpt>
      <trkpt lat="47.358875004574656" lon="10.823675030842423">
        <ele>1160.9300000000001</ele>
        <time>2018-09-17T14:57:52Z</time>
      </trkpt>
      <trkpt lat="47.359022023156285" lon="10.82412295974791">
        <ele>1163.8099999999999</ele>
        <time>2018-09-17T14:57:55Z</time>
      </trkpt>
      <trkpt lat="47.359090000391006" lon="10.824260003864765">
        <ele>1165.26</ele>
        <time>2018-09-17T14:57:56Z</time>
      </trkpt>
      <trkpt lat="47.359154038131237" lon="10.824382966384292">
        <ele>1166.7</ele>
        <time>2018-09-17T14:57:57Z</time>
      </trkpt>
      <trkpt lat="47.359312037006021" lon="10.824627969413996">
        <ele>1169.5799999999999</ele>
        <time>2018-09-17T14:57:59Z</time>
      </trkpt>
      <trkpt lat="47.359393006190658" lon="10.824793009087443">
        <ele>1170.54</ele>
        <time>2018-09-17T14:58:00Z</time>
      </trkpt>
      <trkpt lat="47.359434999525547" lon="10.824977997690439">
        <ele>1171.5</ele>
        <time>2018-09-17T14:58:01Z</time>
      </trkpt>
      <trkpt lat="47.359479004517198" lon="10.825169021263719">
        <ele>1172.47</ele>
        <time>2018-09-17T14:58:02Z</time>
      </trkpt>
      <trkpt lat="47.359520997852087" lon="10.825351998209953">
        <ele>1172.95</ele>
        <time>2018-09-17T14:58:03Z</time>
      </trkpt>
      <trkpt lat="47.35954899340868" lon="10.825533969327807">
        <ele>1173.4300000000001</ele>
        <time>2018-09-17T14:58:04Z</time>
      </trkpt>
      <trkpt lat="47.359543964266777" lon="10.825714012607932">
        <ele>1173.4300000000001</ele>
        <time>2018-09-17T14:58:05Z</time>
      </trkpt>
      <trkpt lat="47.359538013115525" lon="10.825917022302747">
        <ele>1173.4300000000001</ele>
        <time>2018-09-17T14:58:06Z</time>
      </trkpt>
      <trkpt lat="47.359531978145242" lon="10.826136041432619">
        <ele>1173.9100000000001</ele>
        <time>2018-09-17T14:58:07Z</time>
      </trkpt>
      <trkpt lat="47.359543964266777" lon="10.826348019763827">
        <ele>1174.8699999999999</ele>
        <time>2018-09-17T14:58:08Z</time>
      </trkpt>
      <trkpt lat="47.359576988965273" lon="10.826566033065319">
        <ele>1175.3499999999999</ele>
        <time>2018-09-17T14:58:09Z</time>
      </trkpt>
      <trkpt lat="47.359609007835388" lon="10.826772982254624">
        <ele>1176.3099999999999</ele>
        <time>2018-09-17T14:58:10Z</time>
      </trkpt>
      <trkpt lat="47.359682014212012" lon="10.827533975243568">
        <ele>1179.1900000000001</ele>
        <time>2018-09-17T14:58:13Z</time>
      </trkpt>
      <trkpt lat="47.359789973124862" lon="10.828841971233487">
        <ele>1185.4400000000001</ele>
        <time>2018-09-17T14:58:18Z</time>
      </trkpt>
      <trkpt lat="47.359809000045061" lon="10.829000975936651">
        <ele>1186.8800000000001</ele>
        <time>2018-09-17T14:58:19Z</time>
      </trkpt>
      <trkpt lat="47.359830038622022" lon="10.829171966761351">
        <ele>1188.3299999999999</ele>
        <time>2018-09-17T14:58:20Z</time>
      </trkpt>
      <trkpt lat="47.359902961179614" lon="10.829298030585051">
        <ele>1189.29</ele>
        <time>2018-09-17T14:58:21Z</time>
      </trkpt>
      <trkpt lat="47.359985020011663" lon="10.829434990882874">
        <ele>1190.73</ele>
        <time>2018-09-17T14:58:22Z</time>
      </trkpt>
      <trkpt lat="47.3600850161165" lon="10.829525012522936">
        <ele>1191.6900000000001</ele>
        <time>2018-09-17T14:58:23Z</time>
      </trkpt>
      <trkpt lat="47.360179983079433" lon="10.829611010849476">
        <ele>1192.6500000000001</ele>
        <time>2018-09-17T14:58:24Z</time>
      </trkpt>
      <trkpt lat="47.360375029966235" lon="10.829788036644459">
        <ele>1195.0599999999999</ele>
        <time>2018-09-17T14:58:26Z</time>
      </trkpt>
      <trkpt lat="47.360459016636014" lon="10.829908987507224">
        <ele>1196.5</ele>
        <time>2018-09-17T14:58:27Z</time>
      </trkpt>
      <trkpt lat="47.360523976385593" lon="10.830075033009052">
        <ele>1197.46</ele>
        <time>2018-09-17T14:58:28Z</time>
      </trkpt>
      <trkpt lat="47.360587008297443" lon="10.830236971378326">
        <ele>1198.9000000000001</ele>
        <time>2018-09-17T14:58:29Z</time>
      </trkpt>
      <trkpt lat="47.36064400523901" lon="10.830380972474813">
        <ele>1199.8599999999999</ele>
        <time>2018-09-17T14:58:30Z</time>
      </trkpt>
      <trkpt lat="47.36073100939393" lon="10.83058800548315">
        <ele>1202.27</ele>
        <time>2018-09-17T14:58:32Z</time>
      </trkpt>
      <trkpt lat="47.360813990235329" lon="10.830683978274465">
        <ele>1202.75</ele>
        <time>2018-09-17T14:58:33Z</time>
      </trkpt>
      <trkpt lat="47.360893031582236" lon="10.830762013792992">
        <ele>1203.71</ele>
        <time>2018-09-17T14:58:34Z</time>
      </trkpt>
      <trkpt lat="47.361004007980227" lon="10.83078196272254">
        <ele>1204.6700000000001</ele>
        <time>2018-09-17T14:58:35Z</time>
      </trkpt>
      <trkpt lat="47.361150020733476" lon="10.830796966329217">
        <ele>1205.6300000000001</ele>
        <time>2018-09-17T14:58:36Z</time>
      </trkpt>
      <trkpt lat="47.361685959622264" lon="10.830660006031394">
        <ele>1208.03</ele>
        <time>2018-09-17T14:58:39Z</time>
      </trkpt>
      <trkpt lat="47.362002963200212" lon="10.83056696690619">
        <ele>1209.96</ele>
        <time>2018-09-17T14:58:41Z</time>
      </trkpt>
      <trkpt lat="47.362142018973827" lon="10.83056696690619">
        <ele>1210.4400000000001</ele>
        <time>2018-09-17T14:58:42Z</time>
      </trkpt>
      <trkpt lat="47.362252995371819" lon="10.83065397106111">
        <ele>1210.4400000000001</ele>
        <time>2018-09-17T14:58:43Z</time>
      </trkpt>
      <trkpt lat="47.362360032275319" lon="10.830740975216031">
        <ele>1210.4400000000001</ele>
        <time>2018-09-17T14:58:44Z</time>
      </trkpt>
      <trkpt lat="47.362436978146434" lon="10.83086896687746">
        <ele>1210.9200000000001</ele>
        <time>2018-09-17T14:58:45Z</time>
      </trkpt>
      <trkpt lat="47.362511996179819" lon="10.83101799711585">
        <ele>1210.9200000000001</ele>
        <time>2018-09-17T14:58:46Z</time>
      </trkpt>
      <trkpt lat="47.362583996728063" lon="10.831163004040718">
        <ele>1211.4000000000001</ele>
        <time>2018-09-17T14:58:47Z</time>
      </trkpt>
      <trkpt lat="47.363452026620507" lon="10.83318798802793">
        <ele>1214.76</ele>
        <time>2018-09-17T14:59:00Z</time>
      </trkpt>
      <trkpt lat="47.363904984667897" lon="10.834919018670917">
        <ele>1214.76</ele>
        <time>2018-09-17T14:59:06Z</time>
      </trkpt>
      <trkpt lat="47.364052003249526" lon="10.835556965321302">
        <ele>1216.21</ele>
        <time>2018-09-17T14:59:08Z</time>
      </trkpt>
      <trkpt lat="47.364088967442513" lon="10.835872041061521">
        <ele>1216.6900000000001</ele>
        <time>2018-09-17T14:59:09Z</time>
      </trkpt>
      <trkpt lat="47.364120986312628" lon="10.836177980527282">
        <ele>1217.1700000000001</ele>
        <time>2018-09-17T14:59:10Z</time>
      </trkpt>
      <trkpt lat="47.364120986312628" lon="10.836476041004062">
        <ele>1217.6500000000001</ele>
        <time>2018-09-17T14:59:11Z</time>
      </trkpt>
      <trkpt lat="47.364097014069557" lon="10.836765971034765">
        <ele>1218.1300000000001</ele>
        <time>2018-09-17T14:59:12Z</time>
      </trkpt>
      <trkpt lat="47.364042028784752" lon="10.837062019854784">
        <ele>1218.1300000000001</ele>
        <time>2018-09-17T14:59:13Z</time>
      </trkpt>
      <trkpt lat="47.363984026014805" lon="10.837372988462448">
        <ele>1218.6099999999999</ele>
        <time>2018-09-17T14:59:14Z</time>
      </trkpt>
      <trkpt lat="47.363924011588097" lon="10.83769803866744">
        <ele>1219.0899999999999</ele>
        <time>2018-09-17T14:59:15Z</time>
      </trkpt>
      <trkpt lat="47.363453032448888" lon="10.839398978278041">
        <ele>1220.53</ele>
        <time>2018-09-17T14:59:21Z</time>
      </trkpt>
      <trkpt lat="47.363347001373768" lon="10.839629983529449">
        <ele>1220.53</ele>
        <time>2018-09-17T14:59:22Z</time>
      </trkpt>
      <trkpt lat="47.363212974742055" lon="10.839820001274347">
        <ele>1220.05</ele>
        <time>2018-09-17T14:59:23Z</time>
      </trkpt>
      <trkpt lat="47.36307199113071" lon="10.840020999312401">
        <ele>1220.05</ele>
        <time>2018-09-17T14:59:24Z</time>
      </trkpt>
      <trkpt lat="47.36292103305459" lon="10.840235995128751">
        <ele>1220.05</ele>
        <time>2018-09-17T14:59:25Z</time>
      </trkpt>
      <trkpt lat="47.361716972663999" lon="10.842084037140012">
        <ele>1215.24</ele>
        <time>2018-09-17T14:59:33Z</time>
      </trkpt>
      <trkpt lat="47.361367028206587" lon="10.842976039275527">
        <ele>1212.8399999999999</ele>
        <time>2018-09-17T14:59:37Z</time>
      </trkpt>
      <trkpt lat="47.361336015164852" lon="10.843163039535284">
        <ele>1211.8800000000001</ele>
        <time>2018-09-17T14:59:38Z</time>
      </trkpt>
      <trkpt lat="47.36131003126502" lon="10.843355990946293">
        <ele>1210.9200000000001</ele>
        <time>2018-09-17T14:59:39Z</time>
      </trkpt>
      <trkpt lat="47.361248005181551" lon="10.844170041382313">
        <ele>1204.1900000000001</ele>
        <time>2018-09-17T14:59:43Z</time>
      </trkpt>
      <trkpt lat="47.361193019896746" lon="10.844357963651419">
        <ele>1202.75</ele>
        <time>2018-09-17T14:59:44Z</time>
      </trkpt>
      <trkpt lat="47.361124036833644" lon="10.84452903829515">
        <ele>1201.3</ele>
        <time>2018-09-17T14:59:45Z</time>
      </trkpt>
      <trkpt lat="47.361036026850343" lon="10.844672033563256">
        <ele>1199.8599999999999</ele>
        <time>2018-09-17T14:59:46Z</time>
      </trkpt>
      <trkpt lat="47.360917003825307" lon="10.844784015789628">
        <ele>1198.4200000000001</ele>
        <time>2018-09-17T14:59:47Z</time>
      </trkpt>
      <trkpt lat="47.360770991072059" lon="10.84485299885273">
        <ele>1196.98</ele>
        <time>2018-09-17T14:59:48Z</time>
      </trkpt>
      <trkpt lat="47.360607963055372" lon="10.844929022714496">
        <ele>1195.54</ele>
        <time>2018-09-17T14:59:49Z</time>
      </trkpt>
      <trkpt lat="47.360431021079421" lon="10.845013009384274">
        <ele>1194.0899999999999</ele>
        <time>2018-09-17T14:59:50Z</time>
      </trkpt>
      <trkpt lat="47.359726019203663" lon="10.845408970490098">
        <ele>1189.77</ele>
        <time>2018-09-17T14:59:54Z</time>
      </trkpt>
      <trkpt lat="47.359573971480131" lon="10.845550959929824">
        <ele>1188.8099999999999</ele>
        <time>2018-09-17T14:59:55Z</time>
      </trkpt>
      <trkpt lat="47.359439022839069" lon="10.845748018473387">
        <ele>1188.3299999999999</ele>
        <time>2018-09-17T14:59:56Z</time>
      </trkpt>
      <trkpt lat="47.359294015914202" lon="10.845961002632976">
        <ele>1187.3699999999999</ele>
        <time>2018-09-17T14:59:57Z</time>
      </trkpt>
      <trkpt lat="47.35914196819067" lon="10.846183961257339">
        <ele>1186.4000000000001</ele>
        <time>2018-09-17T14:59:58Z</time>
      </trkpt>
      <trkpt lat="47.358996039256454" lon="10.846405997872353">
        <ele>1185.4400000000001</ele>
        <time>2018-09-17T14:59:59Z</time>
      </trkpt>
      <trkpt lat="47.358554983511567" lon="10.84723899140954">
        <ele>1181.5999999999999</ele>
        <time>2018-09-17T15:00:03Z</time>
      </trkpt>
      <trkpt lat="47.358470996841788" lon="10.847419034689665">
        <ele>1180.6400000000001</ele>
        <time>2018-09-17T15:00:04Z</time>
      </trkpt>
      <trkpt lat="47.358412994071841" lon="10.847608968615532">
        <ele>1180.1600000000001</ele>
        <time>2018-09-17T15:00:05Z</time>
      </trkpt>
      <trkpt lat="47.358373012393713" lon="10.847822958603501">
        <ele>1179.6700000000001</ele>
        <time>2018-09-17T15:00:06Z</time>
      </trkpt>
      <trkpt lat="47.358346022665501" lon="10.848047006875277">
        <ele>1179.1900000000001</ele>
        <time>2018-09-17T15:00:07Z</time>
      </trkpt>
      <trkpt lat="47.358340993523598" lon="10.848265020176768">
        <ele>1178.71</ele>
        <time>2018-09-17T15:00:08Z</time>
      </trkpt>
      <trkpt lat="47.358331019058824" lon="10.848680008202791">
        <ele>1177.27</ele>
        <time>2018-09-17T15:00:10Z</time>
      </trkpt>
      <trkpt lat="47.358307968825102" lon="10.848884023725986">
        <ele>1176.3099999999999</ele>
        <time>2018-09-17T15:00:11Z</time>
      </trkpt>
      <trkpt lat="47.35825901851058" lon="10.849080998450518">
        <ele>1175.8299999999999</ele>
        <time>2018-09-17T15:00:12Z</time>
      </trkpt>
      <trkpt lat="47.358185006305575" lon="10.849259030073881">
        <ele>1175.3499999999999</ele>
        <time>2018-09-17T15:00:13Z</time>
      </trkpt>
      <trkpt lat="47.358092973008752" lon="10.849435972049832">
        <ele>1174.3900000000001</ele>
        <time>2018-09-17T15:00:14Z</time>
      </trkpt>
      <trkpt lat="47.357501965016127" lon="10.850574988871813">
        <ele>1171.02</ele>
        <time>2018-09-17T15:00:19Z</time>
      </trkpt>
      <trkpt lat="47.356516001746058" lon="10.85215900093317">
        <ele>1163.3299999999999</ele>
        <time>2018-09-17T15:00:25Z</time>
      </trkpt>
      <trkpt lat="47.356395972892642" lon="10.852410960942507">
        <ele>1161.8900000000001</ele>
        <time>2018-09-17T15:00:26Z</time>
      </trkpt>
      <trkpt lat="47.356147030368447" lon="10.853140018880367">
        <ele>1157.5599999999999</ele>
        <time>2018-09-17T15:00:29Z</time>
      </trkpt>
      <trkpt lat="47.356112999841571" lon="10.853345962241292">
        <ele>1156.1199999999999</ele>
        <time>2018-09-17T15:00:30Z</time>
      </trkpt>
      <trkpt lat="47.356105959042907" lon="10.853551989421248">
        <ele>1154.6800000000001</ele>
        <time>2018-09-17T15:00:31Z</time>
      </trkpt>
      <trkpt lat="47.356099002063274" lon="10.853751981630921">
        <ele>1153.72</ele>
        <time>2018-09-17T15:00:32Z</time>
      </trkpt>
      <trkpt lat="47.356106964871287" lon="10.853944011032581">
        <ele>1152.28</ele>
        <time>2018-09-17T15:00:33Z</time>
      </trkpt>
      <trkpt lat="47.356172008439898" lon="10.854645995423198">
        <ele>1147.95</ele>
        <time>2018-09-17T15:00:37Z</time>
      </trkpt>
      <trkpt lat="47.356192041188478" lon="10.854784967377782">
        <ele>1147.47</ele>
        <time>2018-09-17T15:00:38Z</time>
      </trkpt>
      <trkpt lat="47.356238979846239" lon="10.854913964867592">
        <ele>1146.99</ele>
        <time>2018-09-17T15:00:39Z</time>
      </trkpt>
      <trkpt lat="47.356329001486301" lon="10.855004992336035">
        <ele>1146.99</ele>
        <time>2018-09-17T15:00:40Z</time>
      </trkpt>
      <trkpt lat="47.356422040611506" lon="10.855097025632858">
        <ele>1146.51</ele>
        <time>2018-09-17T15:00:41Z</time>
      </trkpt>
      <trkpt lat="47.356528993695974" lon="10.855126027017832">
        <ele>1146.51</ele>
        <time>2018-09-17T15:00:42Z</time>
      </trkpt>
      <trkpt lat="47.356644999235868" lon="10.855140024796128">
        <ele>1146.03</ele>
        <time>2018-09-17T15:00:43Z</time>
      </trkpt>
      <trkpt lat="47.356754969805479" lon="10.855154022574425">
        <ele>1145.55</ele>
        <time>2018-09-17T15:00:44Z</time>
      </trkpt>
      <trkpt lat="47.356853960081935" lon="10.855105994269252">
        <ele>1145.0699999999999</ele>
        <time>2018-09-17T15:00:45Z</time>
      </trkpt>
      <trkpt lat="47.356952028349042" lon="10.855032987892628">
        <ele>1144.5899999999999</ele>
        <time>2018-09-17T15:00:46Z</time>
      </trkpt>
      <trkpt lat="47.357050012797117" lon="10.854961993172765">
        <ele>1144.5899999999999</ele>
        <time>2018-09-17T15:00:47Z</time>
      </trkpt>
      <trkpt lat="47.35725000500679" lon="10.854855040088296">
        <ele>1144.5899999999999</ele>
        <time>2018-09-17T15:00:49Z</time>
      </trkpt>
      <trkpt lat="47.357340026646852" lon="10.854813968762755">
        <ele>1145.0699999999999</ele>
        <time>2018-09-17T15:00:50Z</time>
      </trkpt>
      <trkpt lat="47.357475981116295" lon="10.854847999289632">
        <ele>1145.0699999999999</ele>
        <time>2018-09-17T15:00:51Z</time>
      </trkpt>
      <trkpt lat="47.357585029676557" lon="10.854906002059579">
        <ele>1145.55</ele>
        <time>2018-09-17T15:00:52Z</time>
      </trkpt>
      <trkpt lat="47.357695000246167" lon="10.854979008436203">
        <ele>1146.51</ele>
        <time>2018-09-17T15:00:53Z</time>
      </trkpt>
      <trkpt lat="47.357805976644158" lon="10.855053020641208">
        <ele>1146.99</ele>
        <time>2018-09-17T15:00:54Z</time>
      </trkpt>
      <trkpt lat="47.358021978288889" lon="10.855148993432522">
        <ele>1148.9100000000001</ele>
        <time>2018-09-17T15:00:56Z</time>
      </trkpt>
      <trkpt lat="47.358134966343641" lon="10.855195010080934">
        <ele>1149.8699999999999</ele>
        <time>2018-09-17T15:00:57Z</time>
      </trkpt>
      <trkpt lat="47.358260024338961" lon="10.855203978717327">
        <ele>1150.8399999999999</ele>
        <time>2018-09-17T15:00:58Z</time>
      </trkpt>
      <trkpt lat="47.358380975201726" lon="10.855168020352721">
        <ele>1151.3199999999999</ele>
        <time>2018-09-17T15:00:59Z</time>
      </trkpt>
      <trkpt lat="47.358504021540284" lon="10.855131978169084">
        <ele>1152.28</ele>
        <time>2018-09-17T15:01:00Z</time>
      </trkpt>
      <trkpt lat="47.358604017645121" lon="10.855061989277601">
        <ele>1152.76</ele>
        <time>2018-09-17T15:01:01Z</time>
      </trkpt>
      <trkpt lat="47.35868901014328" lon="10.854952018707991">
        <ele>1153.24</ele>
        <time>2018-09-17T15:01:02Z</time>
      </trkpt>
      <trkpt lat="47.358765034005046" lon="10.854853028431535">
        <ele>1153.24</ele>
        <time>2018-09-17T15:01:03Z</time>
      </trkpt>
      <trkpt lat="47.358832005411386" lon="10.854767030104995">
        <ele>1153.72</ele>
        <time>2018-09-17T15:01:04Z</time>
      </trkpt>
      <trkpt lat="47.358897970989347" lon="10.854682037606835">
        <ele>1154.2</ele>
        <time>2018-09-17T15:01:05Z</time>
      </trkpt>
      <trkpt lat="47.358959997072816" lon="10.854599978774786">
        <ele>1154.2</ele>
        <time>2018-09-17T15:01:06Z</time>
      </trkpt>
      <trkpt lat="47.359017999842763" lon="10.854524960741401">
        <ele>1154.6800000000001</ele>
        <time>2018-09-17T15:01:07Z</time>
      </trkpt>
      <trkpt lat="47.359070973470807" lon="10.854455977678299">
        <ele>1154.6800000000001</ele>
        <time>2018-09-17T15:01:08Z</time>
      </trkpt>
      <trkpt lat="47.359187984839082" lon="10.854337960481644">
        <ele>1154.6800000000001</ele>
        <time>2018-09-17T15:01:10Z</time>
      </trkpt>
      <trkpt lat="47.359263002872467" lon="10.854294961318374">
        <ele>1155.1600000000001</ele>
        <time>2018-09-17T15:01:11Z</time>
      </trkpt>
      <trkpt lat="47.359343972057104" lon="10.854290015995502">
        <ele>1154.6800000000001</ele>
        <time>2018-09-17T15:01:12Z</time>
      </trkpt>
      <trkpt lat="47.359379008412361" lon="10.854298984631896">
        <ele>1154.6800000000001</ele>
        <time>2018-09-17T15:01:13Z</time>
      </trkpt>
      <trkpt lat="47.359460983425379" lon="10.854442985728383">
        <ele>1154.2</ele>
        <time>2018-09-17T15:01:14Z</time>
      </trkpt>
      <trkpt lat="47.359523009508848" lon="10.854552034288645">
        <ele>1154.2</ele>
        <time>2018-09-17T15:01:15Z</time>
      </trkpt>
      <trkpt lat="47.359577994793653" lon="10.854670973494649">
        <ele>1153.72</ele>
        <time>2018-09-17T15:01:16Z</time>
      </trkpt>
      <trkpt lat="47.359631974250078" lon="10.854810029268265">
        <ele>1153.72</ele>
        <time>2018-09-17T15:01:17Z</time>
      </trkpt>
      <trkpt lat="47.359687965363264" lon="10.854955036193132">
        <ele>1153.24</ele>
        <time>2018-09-17T15:01:18Z</time>
      </trkpt>
      <trkpt lat="47.359949983656406" lon="10.855631036683917">
        <ele>1151.3199999999999</ele>
        <time>2018-09-17T15:01:22Z</time>
      </trkpt>
      <trkpt lat="47.360493969172239" lon="10.856790002435446">
        <ele>1150.8399999999999</ele>
        <time>2018-09-17T15:01:29Z</time>
      </trkpt>
      <trkpt lat="47.360549960285425" lon="10.85696903988719">
        <ele>1150.8399999999999</ele>
        <time>2018-09-17T15:01:30Z</time>
      </trkpt>
      <trkpt lat="47.360592037439346" lon="10.857160985469818">
        <ele>1150.8399999999999</ele>
        <time>2018-09-17T15:01:31Z</time>
      </trkpt>
      <trkpt lat="47.360760010778904" lon="10.858962005004287">
        <ele>1148.9100000000001</ele>
        <time>2018-09-17T15:01:40Z</time>
      </trkpt>
      <trkpt lat="47.360751964151859" lon="10.859169960021973">
        <ele>1148.4300000000001</ele>
        <time>2018-09-17T15:01:41Z</time>
      </trkpt>
      <trkpt lat="47.360718017444015" lon="10.859373975545168">
        <ele>1147.95</ele>
        <time>2018-09-17T15:01:42Z</time>
      </trkpt>
      <trkpt lat="47.360682981088758" lon="10.859583020210266">
        <ele>1146.99</ele>
        <time>2018-09-17T15:01:43Z</time>
      </trkpt>
      <trkpt lat="47.360649034380913" lon="10.859788963571191">
        <ele>1146.51</ele>
        <time>2018-09-17T15:01:44Z</time>
      </trkpt>
      <trkpt lat="47.360534034669399" lon="10.860746009275317">
        <ele>1144.1099999999999</ele>
        <time>2018-09-17T15:01:49Z</time>
      </trkpt>
      <trkpt lat="47.36055800691247" lon="10.860962010920048">
        <ele>1143.1400000000001</ele>
        <time>2018-09-17T15:01:50Z</time>
      </trkpt>
      <trkpt lat="47.36058097332716" lon="10.861166026443243">
        <ele>1142.1800000000001</ele>
        <time>2018-09-17T15:01:51Z</time>
      </trkpt>
      <trkpt lat="47.360641993582249" lon="10.861378004774451">
        <ele>1141.22</ele>
        <time>2018-09-17T15:01:52Z</time>
      </trkpt>
      <trkpt lat="47.360701002180576" lon="10.861580008640885">
        <ele>1140.26</ele>
        <time>2018-09-17T15:01:53Z</time>
      </trkpt>
      <trkpt lat="47.360789012163877" lon="10.861777989193797">
        <ele>1139.78</ele>
        <time>2018-09-17T15:01:54Z</time>
      </trkpt>
      <trkpt lat="47.360912980511785" lon="10.861984016373754">
        <ele>1139.3</ele>
        <time>2018-09-17T15:01:55Z</time>
      </trkpt>
      <trkpt lat="47.361414972692728" lon="10.862821033224463">
        <ele>1136.4200000000001</ele>
        <time>2018-09-17T15:02:00Z</time>
      </trkpt>
      <trkpt lat="47.361502982676029" lon="10.862967967987061">
        <ele>1135.9400000000001</ele>
        <time>2018-09-17T15:02:01Z</time>
      </trkpt>
      <trkpt lat="47.361553022637963" lon="10.863149017095566">
        <ele>1135.45</ele>
        <time>2018-09-17T15:02:02Z</time>
      </trkpt>
      <trkpt lat="47.361605996266007" lon="10.863339034840465">
        <ele>1134.97</ele>
        <time>2018-09-17T15:02:03Z</time>
      </trkpt>
      <trkpt lat="47.361660981550813" lon="10.863536009564996">
        <ele>1134.01</ele>
        <time>2018-09-17T15:02:04Z</time>
      </trkpt>
      <trkpt lat="47.361717978492379" lon="10.863741030916572">
        <ele>1133.53</ele>
        <time>2018-09-17T15:02:05Z</time>
      </trkpt>
      <trkpt lat="47.362295994535089" lon="10.865592006593943">
        <ele>1123.4400000000001</ele>
        <time>2018-09-17T15:02:14Z</time>
      </trkpt>
      <trkpt lat="47.362592965364456" lon="10.866172034293413">
        <ele>1120.55</ele>
        <time>2018-09-17T15:02:17Z</time>
      </trkpt>
      <trkpt lat="47.362756999209523" lon="10.866633038967848">
        <ele>1117.6700000000001</ele>
        <time>2018-09-17T15:02:19Z</time>
      </trkpt>
      <trkpt lat="47.362807961180806" lon="10.866877036169171">
        <ele>1116.23</ele>
        <time>2018-09-17T15:02:20Z</time>
      </trkpt>
      <trkpt lat="47.362840985879302" lon="10.867127990350127">
        <ele>1115.27</ele>
        <time>2018-09-17T15:02:21Z</time>
      </trkpt>
      <trkpt lat="47.362935030832887" lon="10.867841960862279">
        <ele>1112.8599999999999</ele>
        <time>2018-09-17T15:02:24Z</time>
      </trkpt>
      <trkpt lat="47.362962020561099" lon="10.868054023012519">
        <ele>1112.3800000000001</ele>
        <time>2018-09-17T15:02:25Z</time>
      </trkpt>
      <trkpt lat="47.363061010837555" lon="10.86827103048563">
        <ele>1111.4200000000001</ele>
        <time>2018-09-17T15:02:26Z</time>
      </trkpt>
      <trkpt lat="47.363152960315347" lon="10.868474962189794">
        <ele>1110.9400000000001</ele>
        <time>2018-09-17T15:02:27Z</time>
      </trkpt>
      <trkpt lat="47.363263014703989" lon="10.868718959391117">
        <ele>1109.98</ele>
        <time>2018-09-17T15:02:28Z</time>
      </trkpt>
      <trkpt lat="47.36419097520411" lon="10.870281010866165">
        <ele>1101.8099999999999</ele>
        <time>2018-09-17T15:02:37Z</time>
      </trkpt>
      <trkpt lat="47.365105021744967" lon="10.871404018253088">
        <ele>1095.0799999999999</ele>
        <time>2018-09-17T15:02:45Z</time>
      </trkpt>
      <trkpt lat="47.365278024226427" lon="10.871510971337557">
        <ele>1094.5999999999999</ele>
        <time>2018-09-17T15:02:46Z</time>
      </trkpt>
      <trkpt lat="47.365459995344281" lon="10.871569979935884">
        <ele>1094.1199999999999</ele>
        <time>2018-09-17T15:02:47Z</time>
      </trkpt>
      <trkpt lat="47.365649007260799" lon="10.871601998806">
        <ele>1093.6400000000001</ele>
        <time>2018-09-17T15:02:48Z</time>
      </trkpt>
      <trkpt lat="47.365838019177318" lon="10.871633011847734">
        <ele>1093.6400000000001</ele>
        <time>2018-09-17T15:02:49Z</time>
      </trkpt>
      <trkpt lat="47.366667995229363" lon="10.871779024600983">
        <ele>1092.2</ele>
        <time>2018-09-17T15:02:54Z</time>
      </trkpt>
      <trkpt lat="47.36681199632585" lon="10.871856976300478">
        <ele>1091.71</ele>
        <time>2018-09-17T15:02:55Z</time>
      </trkpt>
      <trkpt lat="47.366950968280435" lon="10.871953032910824">
        <ele>1091.23</ele>
        <time>2018-09-17T15:02:56Z</time>
      </trkpt>
      <trkpt lat="47.367997029796243" lon="10.872949976474047">
        <ele>1086.9100000000001</ele>
        <time>2018-09-17T15:03:04Z</time>
      </trkpt>
      <trkpt lat="47.369194971397519" lon="10.874851997941732">
        <ele>1078.26</ele>
        <time>2018-09-17T15:03:14Z</time>
      </trkpt>
      <trkpt lat="47.369822021573782" lon="10.876432992517948">
        <ele>1070.5699999999999</ele>
        <time>2018-09-17T15:03:19Z</time>
      </trkpt>
      <trkpt lat="47.370857018977404" lon="10.878898026421666">
        <ele>1059.51</ele>
        <time>2018-09-17T15:03:26Z</time>
      </trkpt>
      <trkpt lat="47.372296024113894" lon="10.880832988768816">
        <ele>1049.4200000000001</ele>
        <time>2018-09-17T15:03:33Z</time>
      </trkpt>
      <trkpt lat="47.373681971803308" lon="10.881930012255907">
        <ele>1042.6900000000001</ele>
        <time>2018-09-17T15:03:39Z</time>
      </trkpt>
      <trkpt lat="47.374950991943479" lon="10.88260299526155">
        <ele>1039.3199999999999</ele>
        <time>2018-09-17T15:03:46Z</time>
      </trkpt>
      <trkpt lat="47.37607098184526" lon="10.882935002446175">
        <ele>1037.8800000000001</ele>
        <time>2018-09-17T15:03:52Z</time>
      </trkpt>
      <trkpt lat="47.381283016875386" lon="10.881945015862584">
        <ele>1037.8800000000001</ele>
        <time>2018-09-17T15:04:24Z</time>
      </trkpt>
      <trkpt lat="47.399221966043115" lon="10.873867962509394">
        <ele>1037.8800000000001</ele>
        <time>2018-09-17T15:06:17Z</time>
      </trkpt>
      <trkpt lat="47.40116598084569" lon="10.87302097119391">
        <ele>1025.8599999999999</ele>
        <time>2018-09-17T15:06:28Z</time>
      </trkpt>
      <trkpt lat="47.405490959063172" lon="10.868997992947698">
        <ele>1027.3099999999999</ele>
        <time>2018-09-17T15:06:30Z</time>
      </trkpt>
      <trkpt lat="47.408429989591241" lon="10.86461903527379">
        <ele>1029.71</ele>
        <time>2018-09-17T15:06:44Z</time>
      </trkpt>
      <trkpt lat="47.410107040777802" lon="10.862677032127976">
        <ele>1034.52</ele>
        <time>2018-09-17T15:06:52Z</time>
      </trkpt>
      <trkpt lat="47.410772982984781" lon="10.862074038013816">
        <ele>1036.4400000000001</ele>
        <time>2018-09-17T15:06:55Z</time>
      </trkpt>
      <trkpt lat="47.410984961315989" lon="10.861850995570421">
        <ele>1036.9200000000001</ele>
        <time>2018-09-17T15:06:56Z</time>
      </trkpt>
      <trkpt lat="47.411171961575747" lon="10.861581014469266">
        <ele>1037.4000000000001</ele>
        <time>2018-09-17T15:06:57Z</time>
      </trkpt>
      <trkpt lat="47.411340018734336" lon="10.86128898896277">
        <ele>1037.4000000000001</ele>
        <time>2018-09-17T15:06:58Z</time>
      </trkpt>
      <trkpt lat="47.411487959325314" lon="10.860975002869964">
        <ele>1037.8800000000001</ele>
        <time>2018-09-17T15:06:59Z</time>
      </trkpt>
      <trkpt lat="47.411603964865208" lon="10.860631009563804">
        <ele>1038.3599999999999</ele>
        <time>2018-09-17T15:07:00Z</time>
      </trkpt>
      <trkpt lat="47.411717958748341" lon="10.86027997545898">
        <ele>1038.8399999999999</ele>
        <time>2018-09-17T15:07:01Z</time>
      </trkpt>
      <trkpt lat="47.412780029699206" lon="10.857009021565318">
        <ele>1046.05</ele>
        <time>2018-09-17T15:07:10Z</time>
      </trkpt>
      <trkpt lat="47.413322003558278" lon="10.855611003935337">
        <ele>1048.9400000000001</ele>
        <time>2018-09-17T15:07:15Z</time>
      </trkpt>
      <trkpt lat="47.413581004366279" lon="10.855157962068915">
        <ele>1049.4200000000001</ele>
        <time>2018-09-17T15:07:17Z</time>
      </trkpt>
      <trkpt lat="47.414317019283772" lon="10.854267971590161">
        <ele>1052.78</ele>
        <time>2018-09-17T15:07:22Z</time>
      </trkpt>
      <trkpt lat="47.414966030046344" lon="10.852836007252336">
        <ele>1055.1800000000001</ele>
        <time>2018-09-17T15:07:28Z</time>
      </trkpt>
      <trkpt lat="47.415029983967543" lon="10.852562002837658">
        <ele>1055.6700000000001</ele>
        <time>2018-09-17T15:07:29Z</time>
      </trkpt>
      <trkpt lat="47.415442038327456" lon="10.849912986159325">
        <ele>1065.76</ele>
        <time>2018-09-17T15:07:38Z</time>
      </trkpt>
      <trkpt lat="47.415786031633615" lon="10.848662992939353">
        <ele>1071.53</ele>
        <time>2018-09-17T15:07:42Z</time>
      </trkpt>
      <trkpt lat="47.416433030739427" lon="10.847179982811213">
        <ele>1081.1400000000001</ele>
        <time>2018-09-17T15:07:48Z</time>
      </trkpt>
      <trkpt lat="47.416513999924064" lon="10.846974039450288">
        <ele>1082.5799999999999</ele>
        <time>2018-09-17T15:07:49Z</time>
      </trkpt>
      <trkpt lat="47.416651966050267" lon="10.846326034516096">
        <ele>1086.9100000000001</ele>
        <time>2018-09-17T15:07:52Z</time>
      </trkpt>
      <trkpt lat="47.416885988786817" lon="10.845092972740531">
        <ele>1094.5999999999999</ele>
        <time>2018-09-17T15:07:58Z</time>
      </trkpt>
      <trkpt lat="47.416950026527047" lon="10.844888035207987">
        <ele>1095.0799999999999</ele>
        <time>2018-09-17T15:07:59Z</time>
      </trkpt>
      <trkpt lat="47.417511027306318" lon="10.842950977385044">
        <ele>1104.6900000000001</ele>
        <time>2018-09-17T15:08:08Z</time>
      </trkpt>
      <trkpt lat="47.417776985093951" lon="10.840741004794836">
        <ele>1109.5</ele>
        <time>2018-09-17T15:08:17Z</time>
      </trkpt>
      <trkpt lat="47.417915035039186" lon="10.838441010564566">
        <ele>1113.3399999999999</ele>
        <time>2018-09-17T15:08:24Z</time>
      </trkpt>
      <trkpt lat="47.417916962876916" lon="10.835109036415815">
        <ele>1117.1900000000001</ele>
        <time>2018-09-17T15:08:33Z</time>
      </trkpt>
      <trkpt lat="47.417904976755381" lon="10.832161037251353">
        <ele>1113.8199999999999</ele>
        <time>2018-09-17T15:08:42Z</time>
      </trkpt>
      <trkpt lat="47.418155008926988" lon="10.829774038866162">
        <ele>1108.0599999999999</ele>
        <time>2018-09-17T15:08:49Z</time>
      </trkpt>
      <trkpt lat="47.418258022516966" lon="10.826538037508726">
        <ele>1099.4000000000001</ele>
        <time>2018-09-17T15:08:57Z</time>
      </trkpt>
      <trkpt lat="47.418392971158028" lon="10.822631986811757">
        <ele>1090.27</ele>
        <time>2018-09-17T15:09:06Z</time>
      </trkpt>
      <trkpt lat="47.418489027768373" lon="10.81911301240325">
        <ele>1082.5799999999999</ele>
        <time>2018-09-17T15:09:15Z</time>
      </trkpt>
      <trkpt lat="47.41809600032866" lon="10.816138023510575">
        <ele>1080.6600000000001</ele>
        <time>2018-09-17T15:09:23Z</time>
      </trkpt>
      <trkpt lat="47.417811015620828" lon="10.812745029106736">
        <ele>1086.4300000000001</ele>
        <time>2018-09-17T15:09:32Z</time>
      </trkpt>
      <trkpt lat="47.417982006445527" lon="10.809028996154666">
        <ele>1094.5999999999999</ele>
        <time>2018-09-17T15:09:42Z</time>
      </trkpt>
      <trkpt lat="47.417875975370407" lon="10.806649038568139">
        <ele>1094.1199999999999</ele>
        <time>2018-09-17T15:09:49Z</time>
      </trkpt>
      <trkpt lat="47.417332995682955" lon="10.803925003856421">
        <ele>1087.3900000000001</ele>
        <time>2018-09-17T15:09:57Z</time>
      </trkpt>
      <trkpt lat="47.416993025690317" lon="10.801728023216128">
        <ele>1079.7</ele>
        <time>2018-09-17T15:10:04Z</time>
      </trkpt>
      <trkpt lat="47.417222019284964" lon="10.79986497759819">
        <ele>1076.8099999999999</ele>
        <time>2018-09-17T15:10:10Z</time>
      </trkpt>
      <trkpt lat="47.417975971475244" lon="10.79786698333919">
        <ele>1077.78</ele>
        <time>2018-09-17T15:10:17Z</time>
      </trkpt>
      <trkpt lat="47.419204004108906" lon="10.795916011556983">
        <ele>1079.22</ele>
        <time>2018-09-17T15:10:24Z</time>
      </trkpt>
      <trkpt lat="47.421086998656392" lon="10.792809007689357">
        <ele>1081.6199999999999</ele>
        <time>2018-09-17T15:10:34Z</time>
      </trkpt>
      <trkpt lat="47.422037003561854" lon="10.790352020412683">
        <ele>1082.0999999999999</ele>
        <time>2018-09-17T15:10:41Z</time>
      </trkpt>
      <trkpt lat="47.422517035156488" lon="10.787651035934687">
        <ele>1080.1800000000001</ele>
        <time>2018-09-17T15:10:48Z</time>
      </trkpt>
      <trkpt lat="47.422724990174174" lon="10.785195976495743">
        <ele>1077.29</ele>
        <time>2018-09-17T15:10:55Z</time>
      </trkpt>
      <trkpt lat="47.422819035127759" lon="10.784335993230343">
        <ele>1075.8499999999999</ele>
        <time>2018-09-17T15:10:58Z</time>
      </trkpt>
      <trkpt lat="47.423557983711362" lon="10.781605001538992">
        <ele>1070.0799999999999</ele>
        <time>2018-09-17T15:11:08Z</time>
      </trkpt>
      <trkpt lat="47.424555011093616" lon="10.779777998104692">
        <ele>1064.3199999999999</ele>
        <time>2018-09-17T15:11:16Z</time>
      </trkpt>
      <trkpt lat="47.425836017355323" lon="10.778414011001587">
        <ele>1059.51</ele>
        <time>2018-09-17T15:11:24Z</time>
      </trkpt>
      <trkpt lat="47.427172008901834" lon="10.777671039104462">
        <ele>1057.1099999999999</ele>
        <time>2018-09-17T15:11:30Z</time>
      </trkpt>
      <trkpt lat="47.429340993985534" lon="10.776779036968946">
        <ele>1053.74</ele>
        <time>2018-09-17T15:11:38Z</time>
      </trkpt>
      <trkpt lat="47.430801037698984" lon="10.775604983791709">
        <ele>1050.3800000000001</ele>
        <time>2018-09-17T15:11:44Z</time>
      </trkpt>
      <trkpt lat="47.433502022176981" lon="10.77234098687768">
        <ele>1035.96</ele>
        <time>2018-09-17T15:11:56Z</time>
      </trkpt>
      <trkpt lat="47.434535007923841" lon="10.770293958485126">
        <ele>1029.71</ele>
        <time>2018-09-17T15:12:02Z</time>
      </trkpt>
      <trkpt lat="47.436016006395221" lon="10.766669036820531">
        <ele>1021.54</ele>
        <time>2018-09-17T15:12:12Z</time>
      </trkpt>
      <trkpt lat="47.436322029680014" lon="10.764680011197925">
        <ele>1020.58</ele>
        <time>2018-09-17T15:12:17Z</time>
      </trkpt>
      <trkpt lat="47.436339966952801" lon="10.762192010879517">
        <ele>1026.8299999999999</ele>
        <time>2018-09-17T15:12:24Z</time>
      </trkpt>
      <trkpt lat="47.43672301992774" lon="10.760164009407163">
        <ele>1027.79</ele>
        <time>2018-09-17T15:12:30Z</time>
      </trkpt>
      <trkpt lat="47.437443025410175" lon="10.757288010790944">
        <ele>1020.1</ele>
        <time>2018-09-17T15:12:38Z</time>
      </trkpt>
      <trkpt lat="47.437638994306326" lon="10.755348019301891">
        <ele>1014.33</ele>
        <time>2018-09-17T15:12:45Z</time>
      </trkpt>
      <trkpt lat="47.437742007896304" lon="10.754091991111636">
        <ele>1012.41</ele>
        <time>2018-09-17T15:12:50Z</time>
      </trkpt>
      <trkpt lat="47.438763007521629" lon="10.751181039959192">
        <ele>1012.89</ele>
        <time>2018-09-17T15:13:01Z</time>
      </trkpt>
      <trkpt lat="47.440145015716553" lon="10.748923039063811">
        <ele>1018.65</ele>
        <time>2018-09-17T15:13:11Z</time>
      </trkpt>
      <trkpt lat="47.440374009311199" lon="10.748411994427443">
        <ele>1019.13</ele>
        <time>2018-09-17T15:13:13Z</time>
      </trkpt>
      <trkpt lat="47.441963972523808" lon="10.7423460111022">
        <ele>1021.0599999999999</ele>
        <time>2018-09-17T15:13:34Z</time>
      </trkpt>
      <trkpt lat="47.442062962800264" lon="10.742093967273831">
        <ele>1022.02</ele>
        <time>2018-09-17T15:13:35Z</time>
      </trkpt>
      <trkpt lat="47.442297991365194" lon="10.741623993963003">
        <ele>1023.46</ele>
        <time>2018-09-17T15:13:37Z</time>
      </trkpt>
      <trkpt lat="47.442432017996907" lon="10.741408998146653">
        <ele>1023.9400000000001</ele>
        <time>2018-09-17T15:13:38Z</time>
      </trkpt>
      <trkpt lat="47.442584987729788" lon="10.741214035078883">
        <ele>1024.4200000000001</ele>
        <time>2018-09-17T15:13:39Z</time>
      </trkpt>
      <trkpt lat="47.442747009918094" lon="10.74103600345552">
        <ele>1024.9000000000001</ele>
        <time>2018-09-17T15:13:40Z</time>
      </trkpt>
      <trkpt lat="47.442922024056315" lon="10.740845985710621">
        <ele>1025.3800000000001</ele>
        <time>2018-09-17T15:13:41Z</time>
      </trkpt>
      <trkpt lat="47.443126039579511" lon="10.740679018199444">
        <ele>1025.3800000000001</ele>
        <time>2018-09-17T15:13:42Z</time>
      </trkpt>
      <trkpt lat="47.444636039435863" lon="10.739461965858936">
        <ele>1022.98</ele>
        <time>2018-09-17T15:13:48Z</time>
      </trkpt>
      <trkpt lat="47.446891022846103" lon="10.737358024343848">
        <ele>1020.58</ele>
        <time>2018-09-17T15:13:57Z</time>
      </trkpt>
      <trkpt lat="47.447053967043757" lon="10.737076979130507">
        <ele>1021.54</ele>
        <time>2018-09-17T15:13:58Z</time>
      </trkpt>
      <trkpt lat="47.447194028645754" lon="10.736797023564577">
        <ele>1022.5</ele>
        <time>2018-09-17T15:13:59Z</time>
      </trkpt>
      <trkpt lat="47.447292013093829" lon="10.73650298640132">
        <ele>1023.46</ele>
        <time>2018-09-17T15:14:00Z</time>
      </trkpt>
      <trkpt lat="47.447364013642073" lon="10.736198974773288">
        <ele>1023.9400000000001</ele>
        <time>2018-09-17T15:14:01Z</time>
      </trkpt>
      <trkpt lat="47.447440959513187" lon="10.735874008387327">
        <ele>1024.4200000000001</ele>
        <time>2018-09-17T15:14:02Z</time>
      </trkpt>
      <trkpt lat="47.447493011131883" lon="10.735576031729579">
        <ele>1024.9000000000001</ele>
        <time>2018-09-17T15:14:03Z</time>
      </trkpt>
      <trkpt lat="47.447635000571609" lon="10.734951999038458">
        <ele>1025.8599999999999</ele>
        <time>2018-09-17T15:14:05Z</time>
      </trkpt>
      <trkpt lat="47.447711024433374" lon="10.734642958268523">
        <ele>1025.8599999999999</ele>
        <time>2018-09-17T15:14:06Z</time>
      </trkpt>
      <trkpt lat="47.447830969467759" lon="10.734357973560691">
        <ele>1026.3399999999999</ele>
        <time>2018-09-17T15:14:07Z</time>
      </trkpt>
      <trkpt lat="47.447979999706149" lon="10.734104001894593">
        <ele>1026.3399999999999</ele>
        <time>2018-09-17T15:14:08Z</time>
      </trkpt>
      <trkpt lat="47.448145961388946" lon="10.733863022178411">
        <ele>1026.8299999999999</ele>
        <time>2018-09-17T15:14:09Z</time>
      </trkpt>
      <trkpt lat="47.448343019932508" lon="10.733693959191442">
        <ele>1026.8299999999999</ele>
        <time>2018-09-17T15:14:10Z</time>
      </trkpt>
      <trkpt lat="47.448538988828659" lon="10.733530009165406">
        <ele>1026.8299999999999</ele>
        <time>2018-09-17T15:14:11Z</time>
      </trkpt>
      <trkpt lat="47.44873302988708" lon="10.73338801972568">
        <ele>1026.3399999999999</ele>
        <time>2018-09-17T15:14:12Z</time>
      </trkpt>
      <trkpt lat="47.448934027925134" lon="10.733306966722012">
        <ele>1025.8599999999999</ele>
        <time>2018-09-17T15:14:13Z</time>
      </trkpt>
      <trkpt lat="47.449136031791568" lon="10.733267990872264">
        <ele>1025.3800000000001</ele>
        <time>2018-09-17T15:14:14Z</time>
      </trkpt>
      <trkpt lat="47.449339963495731" lon="10.733262039721012">
        <ele>1024.9000000000001</ele>
        <time>2018-09-17T15:14:15Z</time>
      </trkpt>
      <trkpt lat="47.449545990675688" lon="10.733285006135702">
        <ele>1023.9400000000001</ele>
        <time>2018-09-17T15:14:16Z</time>
      </trkpt>
      <trkpt lat="47.449756041169167" lon="10.733308978378773">
        <ele>1023.46</ele>
        <time>2018-09-17T15:14:17Z</time>
      </trkpt>
      <trkpt lat="47.450175974518061" lon="10.733356000855565">
        <ele>1022.98</ele>
        <time>2018-09-17T15:14:19Z</time>
      </trkpt>
      <trkpt lat="47.450377978384495" lon="10.733379973098636">
        <ele>1022.5</ele>
        <time>2018-09-17T15:14:20Z</time>
      </trkpt>
      <trkpt lat="47.450572019442916" lon="10.733353989198804">
        <ele>1022.5</ele>
        <time>2018-09-17T15:14:21Z</time>
      </trkpt>
      <trkpt lat="47.450764970853925" lon="10.733297998085618">
        <ele>1022.5</ele>
        <time>2018-09-17T15:14:22Z</time>
      </trkpt>
      <trkpt lat="47.450951971113682" lon="10.73319498449564">
        <ele>1022.98</ele>
        <time>2018-09-17T15:14:23Z</time>
      </trkpt>
      <trkpt lat="47.4511409830302" lon="10.7330899592489">
        <ele>1022.98</ele>
        <time>2018-09-17T15:14:24Z</time>
      </trkpt>
      <trkpt lat="47.452341020107269" lon="10.732437008991838">
        <ele>1026.8299999999999</ele>
        <time>2018-09-17T15:14:30Z</time>
      </trkpt>
      <trkpt lat="47.452917024493217" lon="10.732125034555793">
        <ele>1028.75</ele>
        <time>2018-09-17T15:14:33Z</time>
      </trkpt>
      <trkpt lat="47.453092038631439" lon="10.731976004317403">
        <ele>1029.23</ele>
        <time>2018-09-17T15:14:34Z</time>
      </trkpt>
      <trkpt lat="47.453421028330922" lon="10.731640979647636">
        <ele>1030.1900000000001</ele>
        <time>2018-09-17T15:14:36Z</time>
      </trkpt>
      <trkpt lat="47.454137010499835" lon="10.73057203553617">
        <ele>1032.1099999999999</ele>
        <time>2018-09-17T15:14:41Z</time>
      </trkpt>
      <trkpt lat="47.454271959140897" lon="10.730301970615983">
        <ele>1032.1099999999999</ele>
        <time>2018-09-17T15:14:42Z</time>
      </trkpt>
      <trkpt lat="47.455078968778253" lon="10.727830985561013">
        <ele>1027.3099999999999</ele>
        <time>2018-09-17T15:14:49Z</time>
      </trkpt>
      <trkpt lat="47.455983040854335" lon="10.724977031350136">
        <ele>1018.65</ele>
        <time>2018-09-17T15:14:57Z</time>
      </trkpt>
      <trkpt lat="47.456352012231946" lon="10.724124005064368">
        <ele>1014.33</ele>
        <time>2018-09-17T15:15:00Z</time>
      </trkpt>
      <trkpt lat="47.456502970308065" lon="10.723885037004948">
        <ele>1013.37</ele>
        <time>2018-09-17T15:15:01Z</time>
      </trkpt>
      <trkpt lat="47.456674966961145" lon="10.723671969026327">
        <ele>1011.9299999999999</ele>
        <time>2018-09-17T15:15:02Z</time>
      </trkpt>
      <trkpt lat="47.456859033554792" lon="10.723476000130177">
        <ele>1010.48</ele>
        <time>2018-09-17T15:15:03Z</time>
      </trkpt>
      <trkpt lat="47.457047961652279" lon="10.72331003844738">
        <ele>1009.04</ele>
        <time>2018-09-17T15:15:04Z</time>
      </trkpt>
      <trkpt lat="47.458332991227508" lon="10.722320973873138">
        <ele>1004.23</ele>
        <time>2018-09-17T15:15:12Z</time>
      </trkpt>
      <trkpt lat="47.458942020311952" lon="10.721927024424076">
        <ele>1001.83</ele>
        <time>2018-09-17T15:15:17Z</time>
      </trkpt>
      <trkpt lat="47.459041010588408" lon="10.721783023327589">
        <ele>1001.35</ele>
        <time>2018-09-17T15:15:18Z</time>
      </trkpt>
      <trkpt lat="47.459142012521625" lon="10.72163499891758">
        <ele>1000.87</ele>
        <time>2018-09-17T15:15:19Z</time>
      </trkpt>
      <trkpt lat="47.459229016676545" lon="10.721494015306234">
        <ele>1000.39</ele>
        <time>2018-09-17T15:15:20Z</time>
      </trkpt>
      <trkpt lat="47.459289031103253" lon="10.721305003389716">
        <ele>1000.39</ele>
        <time>2018-09-17T15:15:21Z</time>
      </trkpt>
      <trkpt lat="47.45934996753931" lon="10.721110962331295">
        <ele>999.42999999999995</ele>
        <time>2018-09-17T15:15:22Z</time>
      </trkpt>
      <trkpt lat="47.459365976974368" lon="10.720893032848835">
        <ele>998.47000000000003</ele>
        <time>2018-09-17T15:15:23Z</time>
      </trkpt>
      <trkpt lat="47.459372011944652" lon="10.720652975142002">
        <ele>997.99000000000001</ele>
        <time>2018-09-17T15:15:24Z</time>
      </trkpt>
      <trkpt lat="47.459372011944652" lon="10.72041098959744">
        <ele>997.50999999999999</ele>
        <time>2018-09-17T15:15:25Z</time>
      </trkpt>
      <trkpt lat="47.459372011944652" lon="10.720166992396116">
        <ele>997.01999999999998</ele>
        <time>2018-09-17T15:15:26Z</time>
      </trkpt>
      <trkpt lat="47.459352985024452" lon="10.718867965042591">
        <ele>991.25999999999999</ele>
        <time>2018-09-17T15:15:32Z</time>
      </trkpt>
      <trkpt lat="47.459393972530961" lon="10.718669984489679">
        <ele>990.29999999999995</ele>
        <time>2018-09-17T15:15:33Z</time>
      </trkpt>
      <trkpt lat="47.45943596586585" lon="10.718472003936768">
        <ele>989.33000000000004</ele>
        <time>2018-09-17T15:15:34Z</time>
      </trkpt>
      <trkpt lat="47.459530010819435" lon="10.71830696426332">
        <ele>988.85000000000002</ele>
        <time>2018-09-17T15:15:35Z</time>
      </trkpt>
      <trkpt lat="47.459623971953988" lon="10.718143014237285">
        <ele>987.88999999999999</ele>
        <time>2018-09-17T15:15:36Z</time>
      </trkpt>
      <trkpt lat="47.459721034392715" lon="10.717990966513753">
        <ele>986.92999999999995</ele>
        <time>2018-09-17T15:15:37Z</time>
      </trkpt>
      <trkpt lat="47.45984299108386" lon="10.717857023701072">
        <ele>985.97000000000003</ele>
        <time>2018-09-17T15:15:38Z</time>
      </trkpt>
      <trkpt lat="47.45997098274529" lon="10.717759039252996">
        <ele>985.00999999999999</ele>
        <time>2018-09-17T15:15:39Z</time>
      </trkpt>
      <trkpt lat="47.460118001326919" lon="10.717697013169527">
        <ele>984.04999999999995</ele>
        <time>2018-09-17T15:15:40Z</time>
      </trkpt>
      <trkpt lat="47.460263008251786" lon="10.717635992914438">
        <ele>983.09000000000003</ele>
        <time>2018-09-17T15:15:41Z</time>
      </trkpt>
      <trkpt lat="47.460410026833415" lon="10.717627024278045">
        <ele>982.60000000000002</ele>
        <time>2018-09-17T15:15:42Z</time>
      </trkpt>
      <trkpt lat="47.46057003736496" lon="10.717649990692735">
        <ele>981.63999999999999</ele>
        <time>2018-09-17T15:15:43Z</time>
      </trkpt>
      <trkpt lat="47.460730969905853" lon="10.717673040926456">
        <ele>980.67999999999995</ele>
        <time>2018-09-17T15:15:44Z</time>
      </trkpt>
      <trkpt lat="47.460890980437398" lon="10.717764990404248">
        <ele>979.24000000000001</ele>
        <time>2018-09-17T15:15:45Z</time>
      </trkpt>
      <trkpt lat="47.461045039817691" lon="10.717871021479368">
        <ele>978.27999999999997</ele>
        <time>2018-09-17T15:15:46Z</time>
      </trkpt>
      <trkpt lat="47.461200021207333" lon="10.717951990664005">
        <ele>977.32000000000005</ele>
        <time>2018-09-17T15:15:47Z</time>
      </trkpt>
      <trkpt lat="47.461655996739864" lon="10.71813496761024">
        <ele>973.47000000000003</ele>
        <time>2018-09-17T15:15:50Z</time>
      </trkpt>
      <trkpt lat="47.461812989786267" lon="10.718162963166833">
        <ele>972.02999999999997</ele>
        <time>2018-09-17T15:15:51Z</time>
      </trkpt>
      <trkpt lat="47.462460994720459" lon="10.718353986740112">
        <ele>965.29999999999995</ele>
        <time>2018-09-17T15:15:55Z</time>
      </trkpt>
      <trkpt lat="47.46261203661561" lon="10.718429004773498">
        <ele>963.38</ele>
        <time>2018-09-17T15:15:56Z</time>
      </trkpt>
      <trkpt lat="47.462701974436641" lon="10.718540986999869">
        <ele>961.46000000000004</ele>
        <time>2018-09-17T15:15:57Z</time>
      </trkpt>
      <trkpt lat="47.462900960817933" lon="10.718785990029573">
        <ele>959.52999999999997</ele>
        <time>2018-09-17T15:15:59Z</time>
      </trkpt>
      <trkpt lat="47.463101036846638" lon="10.719031998887658">
        <ele>958.09000000000003</ele>
        <time>2018-09-17T15:16:01Z</time>
      </trkpt>
      <trkpt lat="47.463205978274345" lon="10.719162002205849">
        <ele>957.61000000000001</ele>
        <time>2018-09-17T15:16:02Z</time>
      </trkpt>
      <trkpt lat="47.46332198381424" lon="10.719289993867278">
        <ele>956.64999999999998</ele>
        <time>2018-09-17T15:16:03Z</time>
      </trkpt>
      <trkpt lat="47.463448969647288" lon="10.719416979700327">
        <ele>956.16999999999996</ele>
        <time>2018-09-17T15:16:04Z</time>
      </trkpt>
      <trkpt lat="47.463576039299369" lon="10.719543965533376">
        <ele>955.21000000000004</ele>
        <time>2018-09-17T15:16:05Z</time>
      </trkpt>
      <trkpt lat="47.464393023401499" lon="10.720598995685577">
        <ele>951.36000000000001</ele>
        <time>2018-09-17T15:16:11Z</time>
      </trkpt>
      <trkpt lat="47.46538401581347" lon="10.722025008872151">
        <ele>946.07000000000005</ele>
        <time>2018-09-17T15:16:18Z</time>
      </trkpt>
      <trkpt lat="47.46611500158906" lon="10.722861019894481">
        <ele>941.26999999999998</ele>
        <time>2018-09-17T15:16:24Z</time>
      </trkpt>
      <trkpt lat="47.466236036270857" lon="10.722992029041052">
        <ele>940.78999999999996</ele>
        <time>2018-09-17T15:16:25Z</time>
      </trkpt>
      <trkpt lat="47.467234991490841" lon="10.724190976470709">
        <ele>934.05999999999995</ele>
        <time>2018-09-17T15:16:33Z</time>
      </trkpt>
      <trkpt lat="47.467704964801669" lon="10.724927997216582">
        <ele>930.69000000000005</ele>
        <time>2018-09-17T15:16:37Z</time>
      </trkpt>
      <trkpt lat="47.467839997261763" lon="10.725079039111733">
        <ele>930.21000000000004</ele>
        <time>2018-09-17T15:16:38Z</time>
      </trkpt>
      <trkpt lat="47.467976035550237" lon="10.725231003016233">
        <ele>929.25</ele>
        <time>2018-09-17T15:16:39Z</time>
      </trkpt>
      <trkpt lat="47.468129005283117" lon="10.72535396553576">
        <ele>928.28999999999996</ele>
        <time>2018-09-17T15:16:40Z</time>
      </trkpt>
      <trkpt lat="47.468304019421339" lon="10.725450022146106">
        <ele>927.80999999999995</ele>
        <time>2018-09-17T15:16:41Z</time>
      </trkpt>
      <trkpt lat="47.468494959175587" lon="10.725509030744433">
        <ele>926.85000000000002</ele>
        <time>2018-09-17T15:16:42Z</time>
      </trkpt>
      <trkpt lat="47.468678019940853" lon="10.725506013259292">
        <ele>926.37</ele>
        <time>2018-09-17T15:16:43Z</time>
      </trkpt>
      <trkpt lat="47.468860996887088" lon="10.725501989945769">
        <ele>925.40999999999997</ele>
        <time>2018-09-17T15:16:44Z</time>
      </trkpt>
      <trkpt lat="47.470363033935428" lon="10.725470976904035">
        <ele>919.63999999999999</ele>
        <time>2018-09-17T15:16:51Z</time>
      </trkpt>
      <trkpt lat="47.471897006034851" lon="10.725540965795517">
        <ele>911.95000000000005</ele>
        <time>2018-09-17T15:16:58Z</time>
      </trkpt>
      <trkpt lat="47.47206699103117" lon="10.725592011585832">
        <ele>910.50999999999999</ele>
        <time>2018-09-17T15:16:59Z</time>
      </trkpt>
      <trkpt lat="47.472234964370728" lon="10.725644985213876">
        <ele>909.53999999999996</ele>
        <time>2018-09-17T15:17:00Z</time>
      </trkpt>
      <trkpt lat="47.472394974902272" lon="10.725744981318712">
        <ele>908.58000000000004</ele>
        <time>2018-09-17T15:17:01Z</time>
      </trkpt>
      <trkpt lat="47.472552973777056" lon="10.725843971595168">
        <ele>907.13999999999999</ele>
        <time>2018-09-17T15:17:02Z</time>
      </trkpt>
      <trkpt lat="47.472695969045162" lon="10.725987972691655">
        <ele>906.65999999999997</ele>
        <time>2018-09-17T15:17:03Z</time>
      </trkpt>
      <trkpt lat="47.472834018990397" lon="10.726131973788142">
        <ele>905.70000000000005</ele>
        <time>2018-09-17T15:17:04Z</time>
      </trkpt>
      <trkpt lat="47.472963016480207" lon="10.726269017904997">
        <ele>905.22000000000003</ele>
        <time>2018-09-17T15:17:05Z</time>
      </trkpt>
      <trkpt lat="47.473068963736296" lon="10.726440008729696">
        <ele>904.25999999999999</ele>
        <time>2018-09-17T15:17:06Z</time>
      </trkpt>
      <trkpt lat="47.473169965669513" lon="10.726632038131356">
        <ele>903.29999999999995</ele>
        <time>2018-09-17T15:17:07Z</time>
      </trkpt>
      <trkpt lat="47.473798021674156" lon="10.727826962247491">
        <ele>898.00999999999999</ele>
        <time>2018-09-17T15:17:13Z</time>
      </trkpt>
      <trkpt lat="47.473905980587006" lon="10.728011028841138">
        <ele>897.04999999999995</ele>
        <time>2018-09-17T15:17:14Z</time>
      </trkpt>
      <trkpt lat="47.474027015268803" lon="10.728150000795722">
        <ele>896.09000000000003</ele>
        <time>2018-09-17T15:17:15Z</time>
      </trkpt>
      <trkpt lat="47.474348964169621" lon="10.728372959420085">
        <ele>894.15999999999997</ele>
        <time>2018-09-17T15:17:17Z</time>
      </trkpt>
      <trkpt lat="47.474520960822701" lon="10.728492988273501">
        <ele>893.20000000000005</ele>
        <time>2018-09-17T15:17:18Z</time>
      </trkpt>
      <trkpt lat="47.474662028253078" lon="10.728526012971997">
        <ele>891.75999999999999</ele>
        <time>2018-09-17T15:17:19Z</time>
      </trkpt>
      <trkpt lat="47.474822960793972" lon="10.728563982993364">
        <ele>890.32000000000005</ele>
        <time>2018-09-17T15:17:20Z</time>
      </trkpt>
      <trkpt lat="47.474981965497136" lon="10.728562977164984">
        <ele>889.36000000000001</ele>
        <time>2018-09-17T15:17:21Z</time>
      </trkpt>
      <trkpt lat="47.47513996437192" lon="10.728535987436771">
        <ele>887.90999999999997</ele>
        <time>2018-09-17T15:17:22Z</time>
      </trkpt>
      <trkpt lat="47.47529000043869" lon="10.728505980223417">
        <ele>886.95000000000005</ele>
        <time>2018-09-17T15:17:23Z</time>
      </trkpt>
      <trkpt lat="47.475428972393274" lon="10.728441020473838">
        <ele>885.99000000000001</ele>
        <time>2018-09-17T15:17:24Z</time>
      </trkpt>
      <trkpt lat="47.475565010681748" lon="10.728376982733607">
        <ele>885.02999999999997</ele>
        <time>2018-09-17T15:17:25Z</time>
      </trkpt>
      <trkpt lat="47.475823005661368" lon="10.728256031870842">
        <ele>882.63</ele>
        <time>2018-09-17T15:17:27Z</time>
      </trkpt>
      <trkpt lat="47.47597698122263" lon="10.728199034929276">
        <ele>882.14999999999998</ele>
        <time>2018-09-17T15:17:28Z</time>
      </trkpt>
      <trkpt lat="47.476108996197581" lon="10.728243961930275">
        <ele>881.19000000000005</ele>
        <time>2018-09-17T15:17:29Z</time>
      </trkpt>
      <trkpt lat="47.476246962323785" lon="10.728290984407067">
        <ele>880.71000000000004</ele>
        <time>2018-09-17T15:17:30Z</time>
      </trkpt>
      <trkpt lat="47.476388029754162" lon="10.72833901271224">
        <ele>879.74000000000001</ele>
        <time>2018-09-17T15:17:31Z</time>
      </trkpt>
      <trkpt lat="47.477114992216229" lon="10.728684011846781">
        <ele>877.34000000000003</ele>
        <time>2018-09-17T15:17:36Z</time>
      </trkpt>
      <trkpt lat="47.477255975827575" lon="10.728824995458126">
        <ele>876.86000000000001</ele>
        <time>2018-09-17T15:17:37Z</time>
      </trkpt>
      <trkpt lat="47.478517033159733" lon="10.730205997824669">
        <ele>870.13</ele>
        <time>2018-09-17T15:17:46Z</time>
      </trkpt>
      <trkpt lat="47.478607976809144" lon="10.730416970327497">
        <ele>869.64999999999998</ele>
        <time>2018-09-17T15:17:47Z</time>
      </trkpt>
      <trkpt lat="47.478699004277587" lon="10.730626014992595">
        <ele>869.16999999999996</ele>
        <time>2018-09-17T15:17:48Z</time>
      </trkpt>
      <trkpt lat="47.478777961805463" lon="10.730836987495422">
        <ele>868.21000000000004</ele>
        <time>2018-09-17T15:17:49Z</time>
      </trkpt>
      <trkpt lat="47.478819033131003" lon="10.731070004403591">
        <ele>868.21000000000004</ele>
        <time>2018-09-17T15:17:50Z</time>
      </trkpt>
      <trkpt lat="47.478861026465893" lon="10.731304027140141">
        <ele>867.73000000000002</ele>
        <time>2018-09-17T15:17:51Z</time>
      </trkpt>
      <trkpt lat="47.478904025629163" lon="10.731544001027942">
        <ele>867.73000000000002</ele>
        <time>2018-09-17T15:17:52Z</time>
      </trkpt>
      <trkpt lat="47.479088008403778" lon="10.732970014214516">
        <ele>868.21000000000004</ele>
        <time>2018-09-17T15:17:58Z</time>
      </trkpt>
      <trkpt lat="47.479128995910287" lon="10.733196996152401">
        <ele>868.69000000000005</ele>
        <time>2018-09-17T15:17:59Z</time>
      </trkpt>
      <trkpt lat="47.479206025600433" lon="10.73343001306057">
        <ele>868.69000000000005</ele>
        <time>2018-09-17T15:18:00Z</time>
      </trkpt>
      <trkpt lat="47.479295963421464" lon="10.73368800804019">
        <ele>869.16999999999996</ele>
        <time>2018-09-17T15:18:01Z</time>
      </trkpt>
      <trkpt lat="47.479421021416783" lon="10.733938040211797">
        <ele>869.64999999999998</ele>
        <time>2018-09-17T15:18:02Z</time>
      </trkpt>
      <trkpt lat="47.479567034170032" lon="10.734164016321301">
        <ele>870.13</ele>
        <time>2018-09-17T15:18:03Z</time>
      </trkpt>
      <trkpt lat="47.479710029438138" lon="10.734367026016116">
        <ele>871.09000000000003</ele>
        <time>2018-09-17T15:18:04Z</time>
      </trkpt>
      <trkpt lat="47.47986501082778" lon="10.734513038769364">
        <ele>873.00999999999999</ele>
        <time>2018-09-17T15:18:05Z</time>
      </trkpt>
      <trkpt lat="47.480004988610744" lon="10.734643964096904">
        <ele>873.5</ele>
        <time>2018-09-17T15:18:06Z</time>
      </trkpt>
      <trkpt lat="47.480142032727599" lon="10.734742032364011">
        <ele>874.46000000000004</ele>
        <time>2018-09-17T15:18:07Z</time>
      </trkpt>
      <trkpt lat="47.48121902346611" lon="10.735475029796362">
        <ele>878.29999999999995</ele>
        <time>2018-09-17T15:18:16Z</time>
      </trkpt>
      <trkpt lat="47.482024021446705" lon="10.736273992806673">
        <ele>876.86000000000001</ele>
        <time>2018-09-17T15:18:21Z</time>
      </trkpt>
      <trkpt lat="47.483758991584182" lon="10.738193029537797">
        <ele>873.98000000000002</ele>
        <time>2018-09-17T15:18:29Z</time>
      </trkpt>
      <trkpt lat="47.485271003097296" lon="10.740278027951717">
        <ele>873.98000000000002</ele>
        <time>2018-09-17T15:18:37Z</time>
      </trkpt>
      <trkpt lat="47.485967958346009" lon="10.741860028356314">
        <ele>878.29999999999995</ele>
        <time>2018-09-17T15:18:42Z</time>
      </trkpt>
      <trkpt lat="47.486126963049173" lon="10.742141995579004">
        <ele>879.25999999999999</ele>
        <time>2018-09-17T15:18:43Z</time>
      </trkpt>
      <trkpt lat="47.486294014379382" lon="10.742413988336921">
        <ele>880.22000000000003</ele>
        <time>2018-09-17T15:18:44Z</time>
      </trkpt>
      <trkpt lat="47.486493000760674" lon="10.742625966668129">
        <ele>881.19000000000005</ele>
        <time>2018-09-17T15:18:45Z</time>
      </trkpt>
      <trkpt lat="47.48669701628387" lon="10.742816990241408">
        <ele>882.14999999999998</ele>
        <time>2018-09-17T15:18:46Z</time>
      </trkpt>
      <trkpt lat="47.486910000443459" lon="10.742986975237727">
        <ele>883.59000000000003</ele>
        <time>2018-09-17T15:18:47Z</time>
      </trkpt>
      <trkpt lat="47.487144023180008" lon="10.74310096912086">
        <ele>884.54999999999995</ele>
        <time>2018-09-17T15:18:48Z</time>
      </trkpt>
      <trkpt lat="47.487378967925906" lon="10.743211023509502">
        <ele>885.50999999999999</ele>
        <time>2018-09-17T15:18:49Z</time>
      </trkpt>
      <trkpt lat="47.488505998626351" lon="10.743840001523495">
        <ele>891.27999999999997</ele>
        <time>2018-09-17T15:18:55Z</time>
      </trkpt>
      <trkpt lat="47.488790983334184" lon="10.744135966524482">
        <ele>892.72000000000003</ele>
        <time>2018-09-17T15:18:57Z</time>
      </trkpt>
      <trkpt lat="47.488924004137516" lon="10.744294971227646">
        <ele>893.67999999999995</ele>
        <time>2018-09-17T15:18:58Z</time>
      </trkpt>
      <trkpt lat="47.489042021334171" lon="10.744484988972545">
        <ele>894.63999999999999</ele>
        <time>2018-09-17T15:18:59Z</time>
      </trkpt>
      <trkpt lat="47.489160038530827" lon="10.744676012545824">
        <ele>895.61000000000001</ele>
        <time>2018-09-17T15:19:00Z</time>
      </trkpt>
      <trkpt lat="47.489252993836999" lon="10.744898971170187">
        <ele>896.09000000000003</ele>
        <time>2018-09-17T15:19:01Z</time>
      </trkpt>
      <trkpt lat="47.489333963021636" lon="10.745135005563498">
        <ele>897.04999999999995</ele>
        <time>2018-09-17T15:19:02Z</time>
      </trkpt>
      <trkpt lat="47.489415016025305" lon="10.745374979451299">
        <ele>898.00999999999999</ele>
        <time>2018-09-17T15:19:03Z</time>
      </trkpt>
      <trkpt lat="47.489497996866703" lon="10.745617970824242">
        <ele>898.97000000000003</ele>
        <time>2018-09-17T15:19:04Z</time>
      </trkpt>
      <trkpt lat="47.489565974101424" lon="10.745874037966132">
        <ele>899.92999999999995</ele>
        <time>2018-09-17T15:19:05Z</time>
      </trkpt>
      <trkpt lat="47.489628000184894" lon="10.746134966611862">
        <ele>900.88999999999999</ele>
        <time>2018-09-17T15:19:06Z</time>
      </trkpt>
      <trkpt lat="47.489753980189562" lon="10.746662020683289">
        <ele>902.82000000000005</ele>
        <time>2018-09-17T15:19:08Z</time>
      </trkpt>
      <trkpt lat="47.489865040406585" lon="10.746886990964413">
        <ele>904.25999999999999</ele>
        <time>2018-09-17T15:19:09Z</time>
      </trkpt>
      <trkpt lat="47.489980962127447" lon="10.74711799621582">
        <ele>905.22000000000003</ele>
        <time>2018-09-17T15:19:10Z</time>
      </trkpt>
      <trkpt lat="47.490096967667341" lon="10.747349001467228">
        <ele>906.17999999999995</ele>
        <time>2018-09-17T15:19:11Z</time>
      </trkpt>
      <trkpt lat="47.490227976813912" lon="10.74754698202014">
        <ele>907.13999999999999</ele>
        <time>2018-09-17T15:19:12Z</time>
      </trkpt>
      <trkpt lat="47.490395028144121" lon="10.747715039178729">
        <ele>908.10000000000002</ele>
        <time>2018-09-17T15:19:13Z</time>
      </trkpt>
      <trkpt lat="47.490559983998537" lon="10.747873960062861">
        <ele>909.05999999999995</ele>
        <time>2018-09-17T15:19:14Z</time>
      </trkpt>
      <trkpt lat="47.490743966773152" lon="10.747959036380053">
        <ele>910.50999999999999</ele>
        <time>2018-09-17T15:19:15Z</time>
      </trkpt>
      <trkpt lat="47.490934990346432" lon="10.748018966987729">
        <ele>911.47000000000003</ele>
        <time>2018-09-17T15:19:16Z</time>
      </trkpt>
      <trkpt lat="47.491132970899343" lon="10.748058026656508">
        <ele>911.95000000000005</ele>
        <time>2018-09-17T15:19:17Z</time>
      </trkpt>
      <trkpt lat="47.491330029442906" lon="10.748098008334637">
        <ele>912.90999999999997</ele>
        <time>2018-09-17T15:19:18Z</time>
      </trkpt>
      <trkpt lat="47.491520969197154" lon="10.748077975586057">
        <ele>913.38999999999999</ele>
        <time>2018-09-17T15:19:19Z</time>
      </trkpt>
      <trkpt lat="47.49170302413404" lon="10.748046040534973">
        <ele>914.35000000000002</ele>
        <time>2018-09-17T15:19:20Z</time>
      </trkpt>
      <trkpt lat="47.491873009130359" lon="10.747978985309601">
        <ele>914.83000000000004</ele>
        <time>2018-09-17T15:19:21Z</time>
      </trkpt>
      <trkpt lat="47.493545031175017" lon="10.747091006487608">
        <ele>915.78999999999996</ele>
        <time>2018-09-17T15:19:31Z</time>
      </trkpt>
      <trkpt lat="47.495282012969255" lon="10.745478998869658">
        <ele>916.75</ele>
        <time>2018-09-17T15:19:41Z</time>
      </trkpt>
      <trkpt lat="47.496145013719797" lon="10.744254989549518">
        <ele>917.24000000000001</ele>
        <time>2018-09-17T15:19:48Z</time>
      </trkpt>
      <trkpt lat="47.497070962563157" lon="10.74258103966713">
        <ele>918.20000000000005</ele>
        <time>2018-09-17T15:19:59Z</time>
      </trkpt>
      <trkpt lat="47.497416967526078" lon="10.741861034184694">
        <ele>918.20000000000005</ele>
        <time>2018-09-17T15:20:03Z</time>
      </trkpt>
      <trkpt lat="47.498013004660606" lon="10.740400990471244">
        <ele>916.26999999999998</ele>
        <time>2018-09-17T15:20:08Z</time>
      </trkpt>
      <trkpt lat="47.499240031465888" lon="10.738033019006252">
        <ele>916.26999999999998</ele>
        <time>2018-09-17T15:20:15Z</time>
      </trkpt>
      <trkpt lat="47.49969600699842" lon="10.737455002963543">
        <ele>915.78999999999996</ele>
        <time>2018-09-17T15:20:17Z</time>
      </trkpt>
      <trkpt lat="47.501421002671123" lon="10.73609403334558">
        <ele>915.30999999999995</ele>
        <time>2018-09-17T15:20:24Z</time>
      </trkpt>
      <trkpt lat="47.503445986658335" lon="10.735324993729591">
        <ele>911.95000000000005</ele>
        <time>2018-09-17T15:20:31Z</time>
      </trkpt>
      <trkpt lat="47.507635010406375" lon="10.733963018283248">
        <ele>904.74000000000001</ele>
        <time>2018-09-17T15:20:45Z</time>
      </trkpt>
      <trkpt lat="47.510578986257315" lon="10.732671031728387">
        <ele>897.52999999999997</ele>
        <time>2018-09-17T15:20:55Z</time>
      </trkpt>
      <trkpt lat="47.513374015688896" lon="10.730798011645675">
        <ele>886.95000000000005</ele>
        <time>2018-09-17T15:21:05Z</time>
      </trkpt>
      <trkpt lat="47.515388019382954" lon="10.728828012943268">
        <ele>878.29999999999995</ele>
        <time>2018-09-17T15:21:13Z</time>
      </trkpt>
      <trkpt lat="47.517386013641953" lon="10.726252002641559">
        <ele>868.69000000000005</ele>
        <time>2018-09-17T15:21:22Z</time>
      </trkpt>
      <trkpt lat="47.519036997109652" lon="10.723148016259074">
        <ele>860.03999999999996</ele>
        <time>2018-09-17T15:21:31Z</time>
      </trkpt>
      <trkpt lat="47.520339963957667" lon="10.71953097358346">
        <ele>852.83000000000004</ele>
        <time>2018-09-17T15:21:40Z</time>
      </trkpt>
      <trkpt lat="47.521690959110856" lon="10.71463099680841">
        <ele>849.94000000000005</ele>
        <time>2018-09-17T15:21:52Z</time>
      </trkpt>
      <trkpt lat="47.523043965920806" lon="10.709512000903487">
        <ele>849.46000000000004</ele>
        <time>2018-09-17T15:22:05Z</time>
      </trkpt>
      <trkpt lat="47.524122968316078" lon="10.705592036247253">
        <ele>846.10000000000002</ele>
        <time>2018-09-17T15:22:16Z</time>
      </trkpt>
      <trkpt lat="47.525187972933054" lon="10.701669976115227">
        <ele>843.21000000000004</ele>
        <time>2018-09-17T15:22:27Z</time>
      </trkpt>
      <trkpt lat="47.525953995063901" lon="10.698787020519376">
        <ele>840.80999999999995</ele>
        <time>2018-09-17T15:22:37Z</time>
      </trkpt>
      <trkpt lat="47.526877010241151" lon="10.695598963648081">
        <ele>836</ele>
        <time>2018-09-17T15:22:48Z</time>
      </trkpt>
      <trkpt lat="47.527645966038108" lon="10.693152034655213">
        <ele>831.20000000000005</ele>
        <time>2018-09-17T15:22:55Z</time>
      </trkpt>
      <trkpt lat="47.529103998094797" lon="10.689056972041726">
        <ele>827.35000000000002</ele>
        <time>2018-09-17T15:23:05Z</time>
      </trkpt>
      <trkpt lat="47.530115023255348" lon="10.686459001153708">
        <ele>825.90999999999997</ele>
        <time>2018-09-17T15:23:12Z</time>
      </trkpt>
      <trkpt lat="47.530880039557815" lon="10.684662004932761">
        <ele>824.47000000000003</ele>
        <time>2018-09-17T15:23:18Z</time>
      </trkpt>
      <trkpt lat="47.531880000606179" lon="10.68249000236392">
        <ele>823.99000000000001</ele>
        <time>2018-09-17T15:23:25Z</time>
      </trkpt>
      <trkpt lat="47.533039972186089" lon="10.680058998987079">
        <ele>823.99000000000001</ele>
        <time>2018-09-17T15:23:34Z</time>
      </trkpt>
      <trkpt lat="47.534220982342958" lon="10.677795968949795">
        <ele>824.95000000000005</ele>
        <time>2018-09-17T15:23:40Z</time>
      </trkpt>
      <trkpt lat="47.536399019882083" lon="10.674101980403066">
        <ele>823.50999999999999</ele>
        <time>2018-09-17T15:23:50Z</time>
      </trkpt>
      <trkpt lat="47.537981020286679" lon="10.671590007841587">
        <ele>821.58000000000004</ele>
        <time>2018-09-17T15:23:58Z</time>
      </trkpt>
      <trkpt lat="47.538919039070606" lon="10.669627971947193">
        <ele>821.58000000000004</ele>
        <time>2018-09-17T15:24:05Z</time>
      </trkpt>
      <trkpt lat="47.539923023432493" lon="10.667324960231781">
        <ele>822.05999999999995</ele>
        <time>2018-09-17T15:24:13Z</time>
      </trkpt>
      <trkpt lat="47.541043013334274" lon="10.666002966463566">
        <ele>822.05999999999995</ele>
        <time>2018-09-17T15:24:19Z</time>
      </trkpt>
      <trkpt lat="47.542511019855738" lon="10.665078023448586">
        <ele>821.58000000000004</ele>
        <time>2018-09-17T15:24:26Z</time>
      </trkpt>
      <trkpt lat="47.544014984741807" lon="10.66358101554215">
        <ele>820.62</ele>
        <time>2018-09-17T15:24:34Z</time>
      </trkpt>
      <trkpt lat="47.545449966564775" lon="10.662397993728518">
        <ele>820.13999999999999</ele>
        <time>2018-09-17T15:24:41Z</time>
      </trkpt>
      <trkpt lat="47.546848990023136" lon="10.66126199439168">
        <ele>819.65999999999997</ele>
        <time>2018-09-17T15:24:49Z</time>
      </trkpt>
      <trkpt lat="47.547764964401722" lon="10.660594962537289">
        <ele>820.13999999999999</ele>
        <time>2018-09-17T15:24:56Z</time>
      </trkpt>
      <trkpt lat="47.548209959641099" lon="10.660364963114262">
        <ele>822.05999999999995</ele>
        <time>2018-09-17T15:25:03Z</time>
      </trkpt>
      <trkpt lat="47.548265028744936" lon="10.660336967557669">
        <ele>822.54999999999995</ele>
        <time>2018-09-17T15:25:04Z</time>
      </trkpt>
      <trkpt lat="47.548407018184662" lon="10.660337973386049">
        <ele>823.50999999999999</ele>
        <time>2018-09-17T15:25:07Z</time>
      </trkpt>
      <trkpt lat="47.548440964892507" lon="10.66031601279974">
        <ele>823.99000000000001</ele>
        <time>2018-09-17T15:25:08Z</time>
      </trkpt>
      <trkpt lat="47.548464015126228" lon="10.660242000594735">
        <ele>824.47000000000003</ele>
        <time>2018-09-17T15:25:09Z</time>
      </trkpt>
      <trkpt lat="47.548464015126228" lon="10.660173017531633">
        <ele>824.47000000000003</ele>
        <time>2018-09-17T15:25:10Z</time>
      </trkpt>
      <trkpt lat="47.548378016799688" lon="10.660129012539983">
        <ele>824.95000000000005</ele>
        <time>2018-09-17T15:25:11Z</time>
      </trkpt>
      <trkpt lat="47.548367036506534" lon="10.660107973963022">
        <ele>824.95000000000005</ele>
        <time>2018-09-17T15:25:12Z</time>
      </trkpt>
      <trkpt lat="47.548329988494515" lon="10.660042008385062">
        <ele>824.95000000000005</ele>
        <time>2018-09-17T15:25:13Z</time>
      </trkpt>
      <trkpt lat="47.548291012644768" lon="10.65997201949358">
        <ele>824.47000000000003</ele>
        <time>2018-09-17T15:25:14Z</time>
      </trkpt>
      <trkpt lat="47.548249019309878" lon="10.659897001460195">
        <ele>824.47000000000003</ele>
        <time>2018-09-17T15:25:15Z</time>
      </trkpt>
      <trkpt lat="47.54816897213459" lon="10.659751994535327">
        <ele>824.47000000000003</ele>
        <time>2018-09-17T15:25:17Z</time>
      </trkpt>
      <trkpt lat="47.547904020175338" lon="10.659443037584424">
        <ele>824.47000000000003</ele>
        <time>2018-09-17T15:25:22Z</time>
      </trkpt>
      <trkpt lat="47.547833025455475" lon="10.659396015107632">
        <ele>824.47000000000003</ele>
        <time>2018-09-17T15:25:23Z</time>
      </trkpt>
      <trkpt lat="47.547749038785696" lon="10.659368019551039">
        <ele>823.99000000000001</ele>
        <time>2018-09-17T15:25:24Z</time>
      </trkpt>
      <trkpt lat="47.547398004680872" lon="10.659229969605803">
        <ele>821.10000000000002</ele>
        <time>2018-09-17T15:25:29Z</time>
      </trkpt>
      <trkpt lat="47.547322986647487" lon="10.659175990149379">
        <ele>820.13999999999999</ele>
        <time>2018-09-17T15:25:31Z</time>
      </trkpt>
      <trkpt lat="47.547287028282881" lon="10.659130979329348">
        <ele>819.65999999999997</ele>
        <time>2018-09-17T15:25:32Z</time>
      </trkpt>
      <trkpt lat="47.547259032726288" lon="10.659082029014826">
        <ele>819.65999999999997</ele>
        <time>2018-09-17T15:25:33Z</time>
      </trkpt>
      <trkpt lat="47.547226008027792" lon="10.659024026244879">
        <ele>819.17999999999995</ele>
        <time>2018-09-17T15:25:34Z</time>
      </trkpt>
      <trkpt lat="47.547211004421115" lon="10.658932998776436">
        <ele>819.17999999999995</ele>
        <time>2018-09-17T15:25:35Z</time>
      </trkpt>
      <trkpt lat="47.547201029956341" lon="10.658825039863586">
        <ele>818.70000000000005</ele>
        <time>2018-09-17T15:25:36Z</time>
      </trkpt>
      <trkpt lat="47.547217039391398" lon="10.658704005181789">
        <ele>818.70000000000005</ele>
        <time>2018-09-17T15:25:37Z</time>
      </trkpt>
      <trkpt lat="47.547248974442482" lon="10.658574001863599">
        <ele>818.70000000000005</ele>
        <time>2018-09-17T15:25:38Z</time>
      </trkpt>
      <trkpt lat="47.547320974990726" lon="10.658488003537059">
        <ele>818.22000000000003</ele>
        <time>2018-09-17T15:25:39Z</time>
      </trkpt>
      <trkpt lat="47.547404039651155" lon="10.658419020473957">
        <ele>818.70000000000005</ele>
        <time>2018-09-17T15:25:40Z</time>
      </trkpt>
      <trkpt lat="47.547491965815425" lon="10.658363029360771">
        <ele>818.70000000000005</ele>
        <time>2018-09-17T15:25:41Z</time>
      </trkpt>
      <trkpt lat="47.547581987455487" lon="10.658305026590824">
        <ele>818.22000000000003</ele>
        <time>2018-09-17T15:25:42Z</time>
      </trkpt>
      <trkpt lat="47.547822967171669" lon="10.658095981925726">
        <ele>818.22000000000003</ele>
        <time>2018-09-17T15:25:45Z</time>
      </trkpt>
      <trkpt lat="47.547898991033435" lon="10.658023981377482">
        <ele>818.22000000000003</ele>
        <time>2018-09-17T15:25:46Z</time>
      </trkpt>
      <trkpt lat="47.547982977703214" lon="10.657945023849607">
        <ele>818.22000000000003</ele>
        <time>2018-09-17T15:25:47Z</time>
      </trkpt>
      <trkpt lat="47.548078028485179" lon="10.657853996381164">
        <ele>818.22000000000003</ele>
        <time>2018-09-17T15:25:48Z</time>
      </trkpt>
      <trkpt lat="47.54814499989152" lon="10.657742014154792">
        <ele>818.22000000000003</ele>
        <time>2018-09-17T15:25:49Z</time>
      </trkpt>
      <trkpt lat="47.548218006268144" lon="10.657619973644614">
        <ele>818.22000000000003</ele>
        <time>2018-09-17T15:25:50Z</time>
      </trkpt>
      <trkpt lat="47.548287995159626" lon="10.657487958669662">
        <ele>817.74000000000001</ele>
        <time>2018-09-17T15:25:51Z</time>
      </trkpt>
      <trkpt lat="47.548342980444431" lon="10.657345969229937">
        <ele>817.74000000000001</ele>
        <time>2018-09-17T15:25:52Z</time>
      </trkpt>
      <trkpt lat="47.548398971557617" lon="10.65720196813345">
        <ele>817.74000000000001</ele>
        <time>2018-09-17T15:25:53Z</time>
      </trkpt>
      <trkpt lat="47.548437025398016" lon="10.657033994793892">
        <ele>817.74000000000001</ele>
        <time>2018-09-17T15:25:54Z</time>
      </trkpt>
      <trkpt lat="47.548462003469467" lon="10.656856968998909">
        <ele>817.74000000000001</ele>
        <time>2018-09-17T15:25:55Z</time>
      </trkpt>
      <trkpt lat="47.548485975712538" lon="10.656653959304094">
        <ele>818.22000000000003</ele>
        <time>2018-09-17T15:25:56Z</time>
      </trkpt>
      <trkpt lat="47.548492010682821" lon="10.656414991244674">
        <ele>818.22000000000003</ele>
        <time>2018-09-17T15:25:57Z</time>
      </trkpt>
      <trkpt lat="47.548507014289498" lon="10.654496038332582">
        <ele>819.17999999999995</ele>
        <time>2018-09-17T15:26:03Z</time>
      </trkpt>
      <trkpt lat="47.548484969884157" lon="10.650743963196874">
        <ele>820.62</ele>
        <time>2018-09-17T15:26:13Z</time>
      </trkpt>
      <trkpt lat="47.548449011519551" lon="10.644524004310369">
        <ele>823.99000000000001</ele>
        <time>2018-09-17T15:26:29Z</time>
      </trkpt>
      <trkpt lat="47.548442976549268" lon="10.642658025026321">
        <ele>827.35000000000002</ele>
        <time>2018-09-17T15:26:35Z</time>
      </trkpt>
      <trkpt lat="47.548441970720887" lon="10.639852015301585">
        <ele>829.26999999999998</ele>
        <time>2018-09-17T15:26:47Z</time>
      </trkpt>
      <trkpt lat="47.548421015962958" lon="10.638116039335728">
        <ele>829.75999999999999</ele>
        <time>2018-09-17T15:26:56Z</time>
      </trkpt>
      <trkpt lat="47.548421015962958" lon="10.637931972742081">
        <ele>829.26999999999998</ele>
        <time>2018-09-17T15:26:57Z</time>
      </trkpt>
      <trkpt lat="47.548421015962958" lon="10.635424023494124">
        <ele>825.90999999999997</ele>
        <time>2018-09-17T15:27:11Z</time>
      </trkpt>
      <trkpt lat="47.548421015962958" lon="10.635248003527522">
        <ele>825.90999999999997</ele>
        <time>2018-09-17T15:27:12Z</time>
      </trkpt>
      <trkpt lat="47.548421015962958" lon="10.634049978107214">
        <ele>827.83000000000004</ele>
        <time>2018-09-17T15:27:19Z</time>
      </trkpt>
      <trkpt lat="47.548421015962958" lon="10.633880998939276">
        <ele>828.30999999999995</ele>
        <time>2018-09-17T15:27:20Z</time>
      </trkpt>
      <trkpt lat="47.548453034833074" lon="10.631659962236881">
        <ele>831.20000000000005</ele>
        <time>2018-09-17T15:27:34Z</time>
      </trkpt>
      <trkpt lat="47.548498967662454" lon="10.631516966968775">
        <ele>831.67999999999995</ele>
        <time>2018-09-17T15:27:35Z</time>
      </trkpt>
      <trkpt lat="47.548543978482485" lon="10.631374977529049">
        <ele>831.67999999999995</ele>
        <time>2018-09-17T15:27:36Z</time>
      </trkpt>
      <trkpt lat="47.548740031197667" lon="10.630867034196854">
        <ele>832.15999999999997</ele>
        <time>2018-09-17T15:27:40Z</time>
      </trkpt>
      <trkpt lat="47.54881102591753" lon="10.630792016163468">
        <ele>831.67999999999995</ele>
        <time>2018-09-17T15:27:41Z</time>
      </trkpt>
      <trkpt lat="47.548883026465774" lon="10.630720015615225">
        <ele>831.20000000000005</ele>
        <time>2018-09-17T15:27:42Z</time>
      </trkpt>
      <trkpt lat="47.548955027014017" lon="10.630658995360136">
        <ele>830.72000000000003</ele>
        <time>2018-09-17T15:27:43Z</time>
      </trkpt>
      <trkpt lat="47.549025015905499" lon="10.630608033388853">
        <ele>830.24000000000001</ele>
        <time>2018-09-17T15:27:44Z</time>
      </trkpt>
      <trkpt lat="47.54937001504004" lon="10.630319025367498">
        <ele>827.35000000000002</ele>
        <time>2018-09-17T15:27:50Z</time>
      </trkpt>
      <trkpt lat="47.549419971182942" lon="10.630269991233945">
        <ele>826.87</ele>
        <time>2018-09-17T15:27:51Z</time>
      </trkpt>
      <trkpt lat="47.549467999488115" lon="10.630203019827604">
        <ele>826.38999999999999</ele>
        <time>2018-09-17T15:27:52Z</time>
      </trkpt>
      <trkpt lat="47.549502030014992" lon="10.630136970430613">
        <ele>826.38999999999999</ele>
        <time>2018-09-17T15:27:53Z</time>
      </trkpt>
      <trkpt lat="47.549536982551217" lon="10.63006597571075">
        <ele>825.42999999999995</ele>
        <time>2018-09-17T15:27:54Z</time>
      </trkpt>
      <trkpt lat="47.549574030563235" lon="10.629991041496396">
        <ele>824.95000000000005</ele>
        <time>2018-09-17T15:27:55Z</time>
      </trkpt>
      <trkpt lat="47.549612000584602" lon="10.629916023463011">
        <ele>824.47000000000003</ele>
        <time>2018-09-17T15:27:56Z</time>
      </trkpt>
      <trkpt lat="47.549730017781258" lon="10.629659034311771">
        <ele>822.54999999999995</ele>
        <time>2018-09-17T15:27:59Z</time>
      </trkpt>
      <trkpt lat="47.549765976145864" lon="10.629539005458355">
        <ele>821.58000000000004</ele>
        <time>2018-09-17T15:28:00Z</time>
      </trkpt>
      <trkpt lat="47.549832025542855" lon="10.629316968843341">
        <ele>821.10000000000002</ele>
        <time>2018-09-17T15:28:02Z</time>
      </trkpt>
      <trkpt lat="47.549863960593939" lon="10.629200041294098">
        <ele>821.58000000000004</ele>
        <time>2018-09-17T15:28:03Z</time>
      </trkpt>
      <trkpt lat="47.549891034141183" lon="10.62905402854085">
        <ele>822.05999999999995</ele>
        <time>2018-09-17T15:28:04Z</time>
      </trkpt>
      <trkpt lat="47.55007803440094" lon="10.627986006438732">
        <ele>823.99000000000001</ele>
        <time>2018-09-17T15:28:09Z</time>
      </trkpt>
      <trkpt lat="47.550514983013272" lon="10.625734962522984">
        <ele>824.95000000000005</ele>
        <time>2018-09-17T15:28:21Z</time>
      </trkpt>
      <trkpt lat="47.550912033766508" lon="10.623862026259303">
        <ele>828.30999999999995</ele>
        <time>2018-09-17T15:28:29Z</time>
      </trkpt>
      <trkpt lat="47.551503041759133" lon="10.620868010446429">
        <ele>831.20000000000005</ele>
        <time>2018-09-17T15:28:38Z</time>
      </trkpt>
      <trkpt lat="47.552546001970768" lon="10.615672990679741">
        <ele>836.96000000000004</ele>
        <time>2018-09-17T15:28:52Z</time>
      </trkpt>
      <trkpt lat="47.553892973810434" lon="10.609123958274722">
        <ele>832.15999999999997</ele>
        <time>2018-09-17T15:29:08Z</time>
      </trkpt>
      <trkpt lat="47.554910033941269" lon="10.605942020192742">
        <ele>830.72000000000003</ele>
        <time>2018-09-17T15:29:16Z</time>
      </trkpt>
      <trkpt lat="47.55682404153049" lon="10.600795028731227">
        <ele>831.20000000000005</ele>
        <time>2018-09-17T15:29:29Z</time>
      </trkpt>
      <trkpt lat="47.557975966483355" lon="10.596968019381166">
        <ele>833.12</ele>
        <time>2018-09-17T15:29:39Z</time>
      </trkpt>
      <trkpt lat="47.558539984747767" lon="10.59525802731514">
        <ele>834.55999999999995</ele>
        <time>2018-09-17T15:29:45Z</time>
      </trkpt>
      <trkpt lat="47.558886995539069" lon="10.594406006857753">
        <ele>835.03999999999996</ele>
        <time>2018-09-17T15:29:49Z</time>
      </trkpt>
      <trkpt lat="47.559803975746036" lon="10.591982966288924">
        <ele>837.45000000000005</ele>
        <time>2018-09-17T15:29:59Z</time>
      </trkpt>
      <trkpt lat="47.560547031462193" lon="10.589854968711734">
        <ele>843.69000000000005</ele>
        <time>2018-09-17T15:30:06Z</time>
      </trkpt>
      <trkpt lat="47.561518996953964" lon="10.586942005902529">
        <ele>846.58000000000004</ele>
        <time>2018-09-17T15:30:17Z</time>
      </trkpt>
      <trkpt lat="47.562370011582971" lon="10.584669001400471">
        <ele>843.69000000000005</ele>
        <time>2018-09-17T15:30:25Z</time>
      </trkpt>
      <trkpt lat="47.563420012593269" lon="10.581615976989269">
        <ele>843.21000000000004</ele>
        <time>2018-09-17T15:30:33Z</time>
      </trkpt>
      <trkpt lat="47.563605001196265" lon="10.581258991733193">
        <ele>843.21000000000004</ele>
        <time>2018-09-17T15:30:34Z</time>
      </trkpt>
      <trkpt lat="47.564604040235281" lon="10.579268038272858">
        <ele>843.69000000000005</ele>
        <time>2018-09-17T15:30:40Z</time>
      </trkpt>
      <trkpt lat="47.565050041303039" lon="10.577608002349734">
        <ele>846.10000000000002</ele>
        <time>2018-09-17T15:30:46Z</time>
      </trkpt>
      <trkpt lat="47.565366039052606" lon="10.575993983075023">
        <ele>847.53999999999996</ele>
        <time>2018-09-17T15:30:54Z</time>
      </trkpt>
      <trkpt lat="47.565662004053593" lon="10.574588002637029">
        <ele>848.5</ele>
        <time>2018-09-17T15:31:02Z</time>
      </trkpt>
      <trkpt lat="47.566082021221519" lon="10.572281973436475">
        <ele>850.41999999999996</ele>
        <time>2018-09-17T15:31:15Z</time>
      </trkpt>
      <trkpt lat="47.566091995686293" lon="10.571917025372386">
        <ele>850.89999999999998</ele>
        <time>2018-09-17T15:31:17Z</time>
      </trkpt>
      <trkpt lat="47.56593500263989" lon="10.570103013888001">
        <ele>853.78999999999996</ele>
        <time>2018-09-17T15:31:27Z</time>
      </trkpt>
      <trkpt lat="47.565758982673287" lon="10.568655040115118">
        <ele>858.11000000000001</ele>
        <time>2018-09-17T15:31:35Z</time>
      </trkpt>
      <trkpt lat="47.565791001543403" lon="10.568481031805277">
        <ele>858.11000000000001</ele>
        <time>2018-09-17T15:31:36Z</time>
      </trkpt>
      <trkpt lat="47.565823020413518" lon="10.568312974646688">
        <ele>858.59000000000003</ele>
        <time>2018-09-17T15:31:37Z</time>
      </trkpt>
      <trkpt lat="47.565887980163097" lon="10.568180959671736">
        <ele>859.08000000000004</ele>
        <time>2018-09-17T15:31:38Z</time>
      </trkpt>
      <trkpt lat="47.565959980711341" lon="10.568037964403629">
        <ele>859.08000000000004</ele>
        <time>2018-09-17T15:31:39Z</time>
      </trkpt>
      <trkpt lat="47.566036004573107" lon="10.567893963307142">
        <ele>859.08000000000004</ele>
        <time>2018-09-17T15:31:40Z</time>
      </trkpt>
      <trkpt lat="47.566125020384789" lon="10.567757003009319">
        <ele>859.08000000000004</ele>
        <time>2018-09-17T15:31:41Z</time>
      </trkpt>
      <trkpt lat="47.56666699424386" lon="10.566953010857105">
        <ele>857.63</ele>
        <time>2018-09-17T15:31:47Z</time>
      </trkpt>
      <trkpt lat="47.567722024396062" lon="10.565977022051811">
        <ele>855.71000000000004</ele>
        <time>2018-09-17T15:31:57Z</time>
      </trkpt>
      <trkpt lat="47.568292999640107" lon="10.565293980762362">
        <ele>855.71000000000004</ele>
        <time>2018-09-17T15:32:03Z</time>
      </trkpt>
      <trkpt lat="47.568398024886847" lon="10.565178981050849">
        <ele>855.71000000000004</ele>
        <time>2018-09-17T15:32:04Z</time>
      </trkpt>
      <trkpt lat="47.568441024050117" lon="10.565071022138">
        <ele>855.71000000000004</ele>
        <time>2018-09-17T15:32:05Z</time>
      </trkpt>
      <trkpt lat="47.568458961322904" lon="10.564896007999778">
        <ele>855.71000000000004</ele>
        <time>2018-09-17T15:32:06Z</time>
      </trkpt>
      <trkpt lat="47.568471031263471" lon="10.564768016338348">
        <ele>855.71000000000004</ele>
        <time>2018-09-17T15:32:07Z</time>
      </trkpt>
      <trkpt lat="47.568482011556625" lon="10.564659973606467">
        <ele>855.71000000000004</ele>
        <time>2018-09-17T15:32:08Z</time>
      </trkpt>
      <trkpt lat="47.568491986021399" lon="10.564565006643534">
        <ele>855.71000000000004</ele>
        <time>2018-09-17T15:32:09Z</time>
      </trkpt>
      <trkpt lat="47.568501038476825" lon="10.56447297334671">
        <ele>855.23000000000002</ele>
        <time>2018-09-17T15:32:10Z</time>
      </trkpt>
      <trkpt lat="47.568518975749612" lon="10.564374988898635">
        <ele>855.23000000000002</ele>
        <time>2018-09-17T15:32:11Z</time>
      </trkpt>
      <trkpt lat="47.568540014326572" lon="10.564298965036869">
        <ele>854.75</ele>
        <time>2018-09-17T15:32:12Z</time>
      </trkpt>
      <trkpt lat="47.568557029590011" lon="10.564232999458909">
        <ele>854.75</ele>
        <time>2018-09-17T15:32:13Z</time>
      </trkpt>
      <trkpt lat="47.568573961034417" lon="10.564169967547059">
        <ele>854.75</ele>
        <time>2018-09-17T15:32:14Z</time>
      </trkpt>
      <trkpt lat="47.568590976297855" lon="10.56410601362586">
        <ele>854.75</ele>
        <time>2018-09-17T15:32:15Z</time>
      </trkpt>
      <trkpt lat="47.568579996004701" lon="10.564087992534041">
        <ele>854.26999999999998</ele>
        <time>2018-09-17T15:32:16Z</time>
      </trkpt>
      <trkpt lat="47.568539008498192" lon="10.564022026956081">
        <ele>854.26999999999998</ele>
        <time>2018-09-17T15:32:17Z</time>
      </trkpt>
      <trkpt lat="47.568488968536258" lon="10.563942985609174">
        <ele>853.78999999999996</ele>
        <time>2018-09-17T15:32:18Z</time>
      </trkpt>
      <trkpt lat="47.568461978808045" lon="10.563808036968112">
        <ele>853.78999999999996</ele>
        <time>2018-09-17T15:32:19Z</time>
      </trkpt>
      <trkpt lat="47.568440018221736" lon="10.563679039478302">
        <ele>853.78999999999996</ele>
        <time>2018-09-17T15:32:20Z</time>
      </trkpt>
      <trkpt lat="47.568414034321904" lon="10.563534032553434">
        <ele>853.78999999999996</ele>
        <time>2018-09-17T15:32:21Z</time>
      </trkpt>
      <trkpt lat="47.568390984088182" lon="10.56337796151638">
        <ele>853.78999999999996</ele>
        <time>2018-09-17T15:32:22Z</time>
      </trkpt>
      <trkpt lat="47.568372962996364" lon="10.563215017318726">
        <ele>853.78999999999996</ele>
        <time>2018-09-17T15:32:23Z</time>
      </trkpt>
      <trkpt lat="47.568333987146616" lon="10.562781002372503">
        <ele>854.26999999999998</ele>
        <time>2018-09-17T15:32:26Z</time>
      </trkpt>
      <trkpt lat="47.568354019895196" lon="10.562649993225932">
        <ele>854.26999999999998</ele>
        <time>2018-09-17T15:32:27Z</time>
      </trkpt>
      <trkpt lat="47.568401964381337" lon="10.562530970200896">
        <ele>854.26999999999998</ele>
        <time>2018-09-17T15:32:28Z</time>
      </trkpt>
      <trkpt lat="47.568453010171652" lon="10.562405996024609">
        <ele>854.26999999999998</ele>
        <time>2018-09-17T15:32:29Z</time>
      </trkpt>
      <trkpt lat="47.568507995456457" lon="10.562270041555166">
        <ele>854.75</ele>
        <time>2018-09-17T15:32:30Z</time>
      </trkpt>
      <trkpt lat="47.568823993206024" lon="10.561477029696107">
        <ele>856.19000000000005</ele>
        <time>2018-09-17T15:32:36Z</time>
      </trkpt>
      <trkpt lat="47.56885701790452" lon="10.561375021934509">
        <ele>856.19000000000005</ele>
        <time>2018-09-17T15:32:37Z</time>
      </trkpt>
      <trkpt lat="47.568975035101175" lon="10.560885015875101">
        <ele>858.11000000000001</ele>
        <time>2018-09-17T15:32:41Z</time>
      </trkpt>
      <trkpt lat="47.568976962938905" lon="10.560741014778614">
        <ele>858.59000000000003</ele>
        <time>2018-09-17T15:32:42Z</time>
      </trkpt>
      <trkpt lat="47.568976962938905" lon="10.560629032552242">
        <ele>859.08000000000004</ele>
        <time>2018-09-17T15:32:43Z</time>
      </trkpt>
      <trkpt lat="47.568952990695834" lon="10.560460975393653">
        <ele>859.08000000000004</ele>
        <time>2018-09-17T15:32:44Z</time>
      </trkpt>
      <trkpt lat="47.568934969604015" lon="10.560328960418701">
        <ele>859.55999999999995</ele>
        <time>2018-09-17T15:32:45Z</time>
      </trkpt>
      <trkpt lat="47.56887998431921" lon="10.560219995677471">
        <ele>859.08000000000004</ele>
        <time>2018-09-17T15:32:46Z</time>
      </trkpt>
      <trkpt lat="47.568824999034405" lon="10.56010901927948">
        <ele>859.55999999999995</ele>
        <time>2018-09-17T15:32:47Z</time>
      </trkpt>
      <trkpt lat="47.568762972950935" lon="10.559985972940922">
        <ele>859.55999999999995</ele>
        <time>2018-09-17T15:32:48Z</time>
      </trkpt>
      <trkpt lat="47.568708993494511" lon="10.559897040948272">
        <ele>859.55999999999995</ele>
        <time>2018-09-17T15:32:49Z</time>
      </trkpt>
      <trkpt lat="47.568577984347939" lon="10.559682967141271">
        <ele>859.55999999999995</ele>
        <time>2018-09-17T15:32:51Z</time>
      </trkpt>
      <trkpt lat="47.568512018769979" lon="10.559563022106886">
        <ele>859.55999999999995</ele>
        <time>2018-09-17T15:32:52Z</time>
      </trkpt>
      <trkpt lat="47.568476982414722" lon="10.559418015182018">
        <ele>859.55999999999995</ele>
        <time>2018-09-17T15:32:53Z</time>
      </trkpt>
      <trkpt lat="47.568462984636426" lon="10.559274014085531">
        <ele>859.55999999999995</ele>
        <time>2018-09-17T15:32:54Z</time>
      </trkpt>
      <trkpt lat="47.56844898685813" lon="10.559125989675522">
        <ele>859.55999999999995</ele>
        <time>2018-09-17T15:32:55Z</time>
      </trkpt>
      <trkpt lat="47.568441024050117" lon="10.558982994407415">
        <ele>860.03999999999996</ele>
        <time>2018-09-17T15:32:56Z</time>
      </trkpt>
      <trkpt lat="47.568441024050117" lon="10.558834969997406">
        <ele>860.51999999999998</ele>
        <time>2018-09-17T15:32:57Z</time>
      </trkpt>
      <trkpt lat="47.568446975201368" lon="10.558683006092906">
        <ele>861</ele>
        <time>2018-09-17T15:32:58Z</time>
      </trkpt>
      <trkpt lat="47.56847002543509" lon="10.558526013046503">
        <ele>861.48000000000002</ele>
        <time>2018-09-17T15:32:59Z</time>
      </trkpt>
      <trkpt lat="47.568517969921231" lon="10.558381006121635">
        <ele>861.48000000000002</ele>
        <time>2018-09-17T15:33:00Z</time>
      </trkpt>
      <trkpt lat="47.568569015711546" lon="10.558228036388755">
        <ele>861.48000000000002</ele>
        <time>2018-09-17T15:33:01Z</time>
      </trkpt>
      <trkpt lat="47.568975035101175" lon="10.556762963533401">
        <ele>862.44000000000005</ele>
        <time>2018-09-17T15:33:09Z</time>
      </trkpt>
      <trkpt lat="47.568999007344246" lon="10.556558026000857">
        <ele>862.91999999999996</ele>
        <time>2018-09-17T15:33:10Z</time>
      </trkpt>
      <trkpt lat="47.569018034264445" lon="10.554848033934832">
        <ele>861.48000000000002</ele>
        <time>2018-09-17T15:33:17Z</time>
      </trkpt>
      <trkpt lat="47.568937987089157" lon="10.554091986268759">
        <ele>862.91999999999996</ele>
        <time>2018-09-17T15:33:20Z</time>
      </trkpt>
      <trkpt lat="47.568905968219042" lon="10.553857041522861">
        <ele>863.39999999999998</ele>
        <time>2018-09-17T15:33:21Z</time>
      </trkpt>
      <trkpt lat="47.568844025954604" lon="10.553410034626722">
        <ele>864.36000000000001</ele>
        <time>2018-09-17T15:33:23Z</time>
      </trkpt>
      <trkpt lat="47.568835979327559" lon="10.553181041032076">
        <ele>864.36000000000001</ele>
        <time>2018-09-17T15:33:24Z</time>
      </trkpt>
      <trkpt lat="47.568854000419378" lon="10.552939977496862">
        <ele>864.84000000000003</ele>
        <time>2018-09-17T15:33:25Z</time>
      </trkpt>
      <trkpt lat="47.568905968219042" lon="10.552059039473534">
        <ele>866.28999999999996</ele>
        <time>2018-09-17T15:33:29Z</time>
      </trkpt>
      <trkpt lat="47.568889036774635" lon="10.551839014515281">
        <ele>866.76999999999998</ele>
        <time>2018-09-17T15:33:30Z</time>
      </trkpt>
      <trkpt lat="47.568849977105856" lon="10.551629969850183">
        <ele>866.76999999999998</ele>
        <time>2018-09-17T15:33:31Z</time>
      </trkpt>
      <trkpt lat="47.568790968507528" lon="10.551428971812129">
        <ele>867.25</ele>
        <time>2018-09-17T15:33:32Z</time>
      </trkpt>
      <trkpt lat="47.568718967959285" lon="10.551264015957713">
        <ele>867.25</ele>
        <time>2018-09-17T15:33:33Z</time>
      </trkpt>
      <trkpt lat="47.568648979067802" lon="10.55110601708293">
        <ele>868.21000000000004</ele>
        <time>2018-09-17T15:33:34Z</time>
      </trkpt>
      <trkpt lat="47.568512018769979" lon="10.550793958827853">
        <ele>868.69000000000005</ele>
        <time>2018-09-17T15:33:36Z</time>
      </trkpt>
      <trkpt lat="47.568463990464807" lon="10.550621040165424">
        <ele>869.16999999999996</ele>
        <time>2018-09-17T15:33:37Z</time>
      </trkpt>
      <trkpt lat="47.568231979385018" lon="10.549267027527094">
        <ele>871.57000000000005</ele>
        <time>2018-09-17T15:33:43Z</time>
      </trkpt>
      <trkpt lat="47.568158973008394" lon="10.549027975648642">
        <ele>872.04999999999995</ele>
        <time>2018-09-17T15:33:44Z</time>
      </trkpt>
      <trkpt lat="47.568069035187364" lon="10.548794036731124">
        <ele>872.04999999999995</ele>
        <time>2018-09-17T15:33:45Z</time>
      </trkpt>
      <trkpt lat="47.567974990233779" lon="10.54854903370142">
        <ele>872.52999999999997</ele>
        <time>2018-09-17T15:33:46Z</time>
      </trkpt>
      <trkpt lat="47.567868959158659" lon="10.548317022621632">
        <ele>872.52999999999997</ele>
        <time>2018-09-17T15:33:47Z</time>
      </trkpt>
      <trkpt lat="47.567743984982371" lon="10.548094986006618">
        <ele>873.00999999999999</ele>
        <time>2018-09-17T15:33:48Z</time>
      </trkpt>
      <trkpt lat="47.567366966977715" lon="10.547423008829355">
        <ele>874.46000000000004</ele>
        <time>2018-09-17T15:33:51Z</time>
      </trkpt>
      <trkpt lat="47.567238975316286" lon="10.547197032719851">
        <ele>874.46000000000004</ele>
        <time>2018-09-17T15:33:52Z</time>
      </trkpt>
      <trkpt lat="47.56709598004818" lon="10.546738961711526">
        <ele>875.41999999999996</ele>
        <time>2018-09-17T15:33:54Z</time>
      </trkpt>
      <trkpt lat="47.566706975921988" lon="10.545501038432121">
        <ele>876.86000000000001</ele>
        <time>2018-09-17T15:34:01Z</time>
      </trkpt>
      <trkpt lat="47.565864007920027" lon="10.543929012492299">
        <ele>878.77999999999997</ele>
        <time>2018-09-17T15:34:12Z</time>
      </trkpt>
      <trkpt lat="47.565236035734415" lon="10.543018989264965">
        <ele>880.22000000000003</ele>
        <time>2018-09-17T15:34:19Z</time>
      </trkpt>
      <trkpt lat="47.564415028318763" lon="10.541952978819609">
        <ele>882.63</ele>
        <time>2018-09-17T15:34:27Z</time>
      </trkpt>
      <trkpt lat="47.563423030078411" lon="10.540488995611668">
        <ele>886.95000000000005</ele>
        <time>2018-09-17T15:34:34Z</time>
      </trkpt>
      <trkpt lat="47.562172031030059" lon="10.538509022444487">
        <ele>890.32000000000005</ele>
        <time>2018-09-17T15:34:42Z</time>
      </trkpt>
      <trkpt lat="47.561327973380685" lon="10.537307979539037">
        <ele>893.20000000000005</ele>
        <time>2018-09-17T15:34:47Z</time>
      </trkpt>
      <trkpt lat="47.561191013082862" lon="10.537036992609501">
        <ele>893.67999999999995</ele>
        <time>2018-09-17T15:34:48Z</time>
      </trkpt>
      <trkpt lat="47.561074001714587" lon="10.536753013730049">
        <ele>894.15999999999997</ele>
        <time>2018-09-17T15:34:49Z</time>
      </trkpt>
      <trkpt lat="47.560969982296228" lon="10.536485966295004">
        <ele>894.63999999999999</ele>
        <time>2018-09-17T15:34:50Z</time>
      </trkpt>
      <trkpt lat="47.5609300006181" lon="10.536194024607539">
        <ele>894.63999999999999</ele>
        <time>2018-09-17T15:34:51Z</time>
      </trkpt>
      <trkpt lat="47.560891024768353" lon="10.535906022414565">
        <ele>894.63999999999999</ele>
        <time>2018-09-17T15:34:52Z</time>
      </trkpt>
      <trkpt lat="47.560743000358343" lon="10.535116028040648">
        <ele>895.61000000000001</ele>
        <time>2018-09-17T15:34:55Z</time>
      </trkpt>
      <trkpt lat="47.560637975111604" lon="10.53488502278924">
        <ele>895.61000000000001</ele>
        <time>2018-09-17T15:34:56Z</time>
      </trkpt>
      <trkpt lat="47.56052297540009" lon="10.534643959254026">
        <ele>896.09000000000003</ele>
        <time>2018-09-17T15:34:57Z</time>
      </trkpt>
      <trkpt lat="47.560120979323983" lon="10.534067032858729">
        <ele>897.52999999999997</ele>
        <time>2018-09-17T15:35:00Z</time>
      </trkpt>
      <trkpt lat="47.560003967955709" lon="10.533868968486786">
        <ele>898.00999999999999</ele>
        <time>2018-09-17T15:35:01Z</time>
      </trkpt>
      <trkpt lat="47.559918975457549" lon="10.533641986548901">
        <ele>898.00999999999999</ele>
        <time>2018-09-17T15:35:02Z</time>
      </trkpt>
      <trkpt lat="47.559867007657886" lon="10.533391032367945">
        <ele>898.49000000000001</ele>
        <time>2018-09-17T15:35:03Z</time>
      </trkpt>
      <trkpt lat="47.559823002666235" lon="10.533132031559944">
        <ele>898.97000000000003</ele>
        <time>2018-09-17T15:35:04Z</time>
      </trkpt>
      <trkpt lat="47.559777991846204" lon="10.53286699578166">
        <ele>899.92999999999995</ele>
        <time>2018-09-17T15:35:05Z</time>
      </trkpt>
      <trkpt lat="47.559733986854553" lon="10.532604977488518">
        <ele>900.40999999999997</ele>
        <time>2018-09-17T15:35:06Z</time>
      </trkpt>
      <trkpt lat="47.559689981862903" lon="10.532348994165659">
        <ele>900.88999999999999</ele>
        <time>2018-09-17T15:35:07Z</time>
      </trkpt>
      <trkpt lat="47.559622004628181" lon="10.532110026106238">
        <ele>901.37</ele>
        <time>2018-09-17T15:35:08Z</time>
      </trkpt>
      <trkpt lat="47.559514967724681" lon="10.531888995319605">
        <ele>901.85000000000002</ele>
        <time>2018-09-17T15:35:09Z</time>
      </trkpt>
      <trkpt lat="47.559407008811831" lon="10.531666036695242">
        <ele>901.85000000000002</ele>
        <time>2018-09-17T15:35:10Z</time>
      </trkpt>
      <trkpt lat="47.559308018535376" lon="10.531439976766706">
        <ele>901.37</ele>
        <time>2018-09-17T15:35:11Z</time>
      </trkpt>
      <trkpt lat="47.559240041300654" lon="10.531198997050524">
        <ele>901.85000000000002</ele>
        <time>2018-09-17T15:35:12Z</time>
      </trkpt>
      <trkpt lat="47.559170974418521" lon="10.53095399402082">
        <ele>901.85000000000002</ele>
        <time>2018-09-17T15:35:13Z</time>
      </trkpt>
      <trkpt lat="47.559160999953747" lon="10.530735980719328">
        <ele>902.33000000000004</ele>
        <time>2018-09-17T15:35:14Z</time>
      </trkpt>
      <trkpt lat="47.559150019660592" lon="10.530516039580107">
        <ele>902.82000000000005</ele>
        <time>2018-09-17T15:35:15Z</time>
      </trkpt>
      <trkpt lat="47.559246998280287" lon="10.530088981613517">
        <ele>903.29999999999995</ele>
        <time>2018-09-17T15:35:17Z</time>
      </trkpt>
      <trkpt lat="47.559299971908331" lon="10.52985998801887">
        <ele>903.77999999999997</ele>
        <time>2018-09-17T15:35:18Z</time>
      </trkpt>
      <trkpt lat="47.559380019083619" lon="10.52938599139452">
        <ele>904.25999999999999</ele>
        <time>2018-09-17T15:35:20Z</time>
      </trkpt>
      <trkpt lat="47.559368032962084" lon="10.52917099557817">
        <ele>904.25999999999999</ele>
        <time>2018-09-17T15:35:21Z</time>
      </trkpt>
      <trkpt lat="47.559311036020517" lon="10.528966980054975">
        <ele>904.25999999999999</ele>
        <time>2018-09-17T15:35:22Z</time>
      </trkpt>
      <trkpt lat="47.559239035472274" lon="10.528779979795218">
        <ele>904.74000000000001</ele>
        <time>2018-09-17T15:35:23Z</time>
      </trkpt>
      <trkpt lat="47.559150019660592" lon="10.528594991192222">
        <ele>905.22000000000003</ele>
        <time>2018-09-17T15:35:24Z</time>
      </trkpt>
      <trkpt lat="47.559038959443569" lon="10.528431963175535">
        <ele>905.70000000000005</ele>
        <time>2018-09-17T15:35:25Z</time>
      </trkpt>
      <trkpt lat="47.558924965560436" lon="10.528263989835978">
        <ele>906.17999999999995</ele>
        <time>2018-09-17T15:35:26Z</time>
      </trkpt>
      <trkpt lat="47.558827986940742" lon="10.528120994567871">
        <ele>906.65999999999997</ele>
        <time>2018-09-17T15:35:27Z</time>
      </trkpt>
      <trkpt lat="47.55871701054275" lon="10.527885966002941">
        <ele>907.13999999999999</ele>
        <time>2018-09-17T15:35:28Z</time>
      </trkpt>
      <trkpt lat="47.558627994731069" lon="10.527694020420313">
        <ele>907.13999999999999</ele>
        <time>2018-09-17T15:35:29Z</time>
      </trkpt>
      <trkpt lat="47.558552976697683" lon="10.527490004897118">
        <ele>907.62</ele>
        <time>2018-09-17T15:35:30Z</time>
      </trkpt>
      <trkpt lat="47.558525986969471" lon="10.527280038222671">
        <ele>908.10000000000002</ele>
        <time>2018-09-17T15:35:31Z</time>
      </trkpt>
      <trkpt lat="47.558497991412878" lon="10.527041992172599">
        <ele>908.58000000000004</ele>
        <time>2018-09-17T15:35:32Z</time>
      </trkpt>
      <trkpt lat="47.558468990027905" lon="10.526795983314514">
        <ele>909.05999999999995</ele>
        <time>2018-09-17T15:35:33Z</time>
      </trkpt>
      <trkpt lat="47.558393971994519" lon="10.526287034153938">
        <ele>910.50999999999999</ele>
        <time>2018-09-17T15:35:35Z</time>
      </trkpt>
      <trkpt lat="47.55833001807332" lon="10.526047982275486">
        <ele>911.47000000000003</ele>
        <time>2018-09-17T15:35:36Z</time>
      </trkpt>
      <trkpt lat="47.558257011696696" lon="10.525800967589021">
        <ele>911.95000000000005</ele>
        <time>2018-09-17T15:35:37Z</time>
      </trkpt>
      <trkpt lat="47.558150980621576" lon="10.525598041713238">
        <ele>912.90999999999997</ele>
        <time>2018-09-17T15:35:38Z</time>
      </trkpt>
      <trkpt lat="47.558044027537107" lon="10.525394026190042">
        <ele>913.87</ele>
        <time>2018-09-17T15:35:39Z</time>
      </trkpt>
      <trkpt lat="47.557920981198549" lon="10.525210965424776">
        <ele>914.83000000000004</ele>
        <time>2018-09-17T15:35:40Z</time>
      </trkpt>
      <trkpt lat="47.557790977880359" lon="10.525037962943316">
        <ele>915.78999999999996</ele>
        <time>2018-09-17T15:35:41Z</time>
      </trkpt>
      <trkpt lat="47.557653011754155" lon="10.524879964068532">
        <ele>916.75</ele>
        <time>2018-09-17T15:35:42Z</time>
      </trkpt>
      <trkpt lat="47.557374984025955" lon="10.524561032652855">
        <ele>918.20000000000005</ele>
        <time>2018-09-17T15:35:44Z</time>
      </trkpt>
      <trkpt lat="47.557247998192906" lon="10.524404961615801">
        <ele>918.67999999999995</ele>
        <time>2018-09-17T15:35:45Z</time>
      </trkpt>
      <trkpt lat="47.557146996259689" lon="10.52420899271965">
        <ele>919.63999999999999</ele>
        <time>2018-09-17T15:35:46Z</time>
      </trkpt>
      <trkpt lat="47.557045994326472" lon="10.52401402965188">
        <ele>920.60000000000002</ele>
        <time>2018-09-17T15:35:47Z</time>
      </trkpt>
      <trkpt lat="47.556939963251352" lon="10.523808002471924">
        <ele>921.08000000000004</ele>
        <time>2018-09-17T15:35:48Z</time>
      </trkpt>
      <trkpt lat="47.556886989623308" lon="10.523579008877277">
        <ele>922.51999999999998</ele>
        <time>2018-09-17T15:35:49Z</time>
      </trkpt>
      <trkpt lat="47.556832004338503" lon="10.523340040817857">
        <ele>923</ele>
        <time>2018-09-17T15:35:50Z</time>
      </trkpt>
      <trkpt lat="47.556776013225317" lon="10.523099983111024">
        <ele>923.96000000000004</ele>
        <time>2018-09-17T15:35:51Z</time>
      </trkpt>
      <trkpt lat="47.556754974648356" lon="10.522849028930068">
        <ele>925.40999999999997</ele>
        <time>2018-09-17T15:35:52Z</time>
      </trkpt>
      <trkpt lat="47.556774001568556" lon="10.522595979273319">
        <ele>926.37</ele>
        <time>2018-09-17T15:35:53Z</time>
      </trkpt>
      <trkpt lat="47.556793028488755" lon="10.522333960980177">
        <ele>927.33000000000004</ele>
        <time>2018-09-17T15:35:54Z</time>
      </trkpt>
      <trkpt lat="47.556813983246684" lon="10.522074960172176">
        <ele>927.80999999999995</ele>
        <time>2018-09-17T15:35:55Z</time>
      </trkpt>
      <trkpt lat="47.55686704069376" lon="10.521818976849318">
        <ele>928.76999999999998</ele>
        <time>2018-09-17T15:35:56Z</time>
      </trkpt>
      <trkpt lat="47.557130986824632" lon="10.520522966980934">
        <ele>934.53999999999996</ele>
        <time>2018-09-17T15:36:01Z</time>
      </trkpt>
      <trkpt lat="47.557221008464694" lon="10.520012006163597">
        <ele>936.46000000000004</ele>
        <time>2018-09-17T15:36:03Z</time>
      </trkpt>
      <trkpt lat="47.557228971272707" lon="10.519750993698835">
        <ele>937.89999999999998</ele>
        <time>2018-09-17T15:36:04Z</time>
      </trkpt>
      <trkpt lat="47.557236012071371" lon="10.519494004547596">
        <ele>939.35000000000002</ele>
        <time>2018-09-17T15:36:05Z</time>
      </trkpt>
      <trkpt lat="47.557209022343159" lon="10.519251013174653">
        <ele>940.78999999999996</ele>
        <time>2018-09-17T15:36:06Z</time>
      </trkpt>
      <trkpt lat="47.557145990431309" lon="10.519014978781343">
        <ele>942.23000000000002</ele>
        <time>2018-09-17T15:36:07Z</time>
      </trkpt>
      <trkpt lat="47.557068038731813" lon="10.518723037093878">
        <ele>943.66999999999996</ele>
        <time>2018-09-17T15:36:08Z</time>
      </trkpt>
      <trkpt lat="47.556981034576893" lon="10.51855799742043">
        <ele>944.63</ele>
        <time>2018-09-17T15:36:09Z</time>
      </trkpt>
      <trkpt lat="47.556872991845012" lon="10.518353981897235">
        <ele>945.59000000000003</ele>
        <time>2018-09-17T15:36:10Z</time>
      </trkpt>
      <trkpt lat="47.556549031287432" lon="10.517744030803442">
        <ele>949.44000000000005</ele>
        <time>2018-09-17T15:36:13Z</time>
      </trkpt>
      <trkpt lat="47.556474013254046" lon="10.517512019723654">
        <ele>950.39999999999998</ele>
        <time>2018-09-17T15:36:14Z</time>
      </trkpt>
      <trkpt lat="47.556363036856055" lon="10.51701002754271">
        <ele>952.32000000000005</ele>
        <time>2018-09-17T15:36:16Z</time>
      </trkpt>
      <trkpt lat="47.556317020207644" lon="10.516753038391471">
        <ele>953.27999999999997</ele>
        <time>2018-09-17T15:36:17Z</time>
      </trkpt>
      <trkpt lat="47.556214006617665" lon="10.51623797044158">
        <ele>954.73000000000002</ele>
        <time>2018-09-17T15:36:19Z</time>
      </trkpt>
      <trkpt lat="47.556117027997971" lon="10.516024986281991">
        <ele>955.69000000000005</ele>
        <time>2018-09-17T15:36:20Z</time>
      </trkpt>
      <trkpt lat="47.556019965559244" lon="10.515812002122402">
        <ele>956.16999999999996</ele>
        <time>2018-09-17T15:36:21Z</time>
      </trkpt>
      <trkpt lat="47.555889962241054" lon="10.515647968277335">
        <ele>957.13</ele>
        <time>2018-09-17T15:36:22Z</time>
      </trkpt>
      <trkpt lat="47.555737998336554" lon="10.515460968017578">
        <ele>957.61000000000001</ele>
        <time>2018-09-17T15:36:23Z</time>
      </trkpt>
      <trkpt lat="47.555596008896828" lon="10.515379998832941">
        <ele>958.09000000000003</ele>
        <time>2018-09-17T15:36:24Z</time>
      </trkpt>
      <trkpt lat="47.555438010022044" lon="10.515288971364498">
        <ele>958.57000000000005</ele>
        <time>2018-09-17T15:36:25Z</time>
      </trkpt>
      <trkpt lat="47.555252015590668" lon="10.515256030485034">
        <ele>958.57000000000005</ele>
        <time>2018-09-17T15:36:26Z</time>
      </trkpt>
      <trkpt lat="47.555069038644433" lon="10.515221999958158">
        <ele>958.57000000000005</ele>
        <time>2018-09-17T15:36:27Z</time>
      </trkpt>
      <trkpt lat="47.554878015071154" lon="10.515203978866339">
        <ele>958.57000000000005</ele>
        <time>2018-09-17T15:36:28Z</time>
      </trkpt>
      <trkpt lat="47.553884005174041" lon="10.515064001083374">
        <ele>957.13</ele>
        <time>2018-09-17T15:36:33Z</time>
      </trkpt>
      <trkpt lat="47.553701028227806" lon="10.514946989715099">
        <ele>957.13</ele>
        <time>2018-09-17T15:36:34Z</time>
      </trkpt>
      <trkpt lat="47.553520984947681" lon="10.514831990003586">
        <ele>957.13</ele>
        <time>2018-09-17T15:36:35Z</time>
      </trkpt>
      <trkpt lat="47.55334597080946" lon="10.514678014442325">
        <ele>957.13</ele>
        <time>2018-09-17T15:36:36Z</time>
      </trkpt>
      <trkpt lat="47.553175985813141" lon="10.514509035274386">
        <ele>957.13</ele>
        <time>2018-09-17T15:36:37Z</time>
      </trkpt>
      <trkpt lat="47.553008012473583" lon="10.514339972287416">
        <ele>957.13</ele>
        <time>2018-09-17T15:36:38Z</time>
      </trkpt>
      <trkpt lat="47.552839033305645" lon="10.514170993119478">
        <ele>957.13</ele>
        <time>2018-09-17T15:36:39Z</time>
      </trkpt>
      <trkpt lat="47.552682040259242" lon="10.513957003131509">
        <ele>957.13</ele>
        <time>2018-09-17T15:36:40Z</time>
      </trkpt>
      <trkpt lat="47.551442021504045" lon="10.512699969112873">
        <ele>961.94000000000005</ele>
        <time>2018-09-17T15:36:47Z</time>
      </trkpt>
      <trkpt lat="47.550013996660709" lon="10.51170201972127">
        <ele>965.77999999999997</ele>
        <time>2018-09-17T15:36:54Z</time>
      </trkpt>
      <trkpt lat="47.549477973952889" lon="10.511053008958697">
        <ele>967.22000000000003</ele>
        <time>2018-09-17T15:36:57Z</time>
      </trkpt>
      <trkpt lat="47.549303965643048" lon="10.510814040899277">
        <ele>968.17999999999995</ele>
        <time>2018-09-17T15:36:58Z</time>
      </trkpt>
      <trkpt lat="47.548812031745911" lon="10.510213980451226">
        <ele>970.59000000000003</ele>
        <time>2018-09-17T15:37:01Z</time>
      </trkpt>
      <trkpt lat="47.548649003729224" lon="10.510080959647894">
        <ele>971.54999999999995</ele>
        <time>2018-09-17T15:37:02Z</time>
      </trkpt>
      <trkpt lat="47.548476001247764" lon="10.509973000735044">
        <ele>972.02999999999997</ele>
        <time>2018-09-17T15:37:03Z</time>
      </trkpt>
      <trkpt lat="47.548296041786671" lon="10.509888008236885">
        <ele>972.99000000000001</ele>
        <time>2018-09-17T15:37:04Z</time>
      </trkpt>
      <trkpt lat="47.548108035698533" lon="10.509821036830544">
        <ele>973.47000000000003</ele>
        <time>2018-09-17T15:37:05Z</time>
      </trkpt>
      <trkpt lat="47.547907959669828" lon="10.509749036282301">
        <ele>974.42999999999995</ele>
        <time>2018-09-17T15:37:06Z</time>
      </trkpt>
      <trkpt lat="47.547703022137284" lon="10.509675024077296">
        <ele>974.90999999999997</ele>
        <time>2018-09-17T15:37:07Z</time>
      </trkpt>
      <trkpt lat="47.546472977846861" lon="10.508965998888016">
        <ele>978.27999999999997</ele>
        <time>2018-09-17T15:37:13Z</time>
      </trkpt>
      <trkpt lat="47.545913988724351" lon="10.508597027510405">
        <ele>981.15999999999997</ele>
        <time>2018-09-17T15:37:16Z</time>
      </trkpt>
      <trkpt lat="47.545738974586129" lon="10.508509017527103">
        <ele>981.63999999999999</ele>
        <time>2018-09-17T15:37:17Z</time>
      </trkpt>
      <trkpt lat="47.545576030388474" lon="10.508509017527103">
        <ele>982.60000000000002</ele>
        <time>2018-09-17T15:37:18Z</time>
      </trkpt>
      <trkpt lat="47.545428005978465" lon="10.508578000590205">
        <ele>984.04999999999995</ele>
        <time>2018-09-17T15:37:19Z</time>
      </trkpt>
      <trkpt lat="47.545279981568456" lon="10.50865201279521">
        <ele>985.00999999999999</ele>
        <time>2018-09-17T15:37:20Z</time>
      </trkpt>
      <trkpt lat="47.545151989907026" lon="10.508778998628259">
        <ele>985.97000000000003</ele>
        <time>2018-09-17T15:37:21Z</time>
      </trkpt>
      <trkpt lat="47.545034978538752" lon="10.508940014988184">
        <ele>987.40999999999997</ele>
        <time>2018-09-17T15:37:22Z</time>
      </trkpt>
      <trkpt lat="47.544917967170477" lon="10.509101031348109">
        <ele>988.37</ele>
        <time>2018-09-17T15:37:23Z</time>
      </trkpt>
      <trkpt lat="47.544801039621234" lon="10.509261041879654">
        <ele>989.33000000000004</ele>
        <time>2018-09-17T15:37:24Z</time>
      </trkpt>
      <trkpt lat="47.544671036303043" lon="10.509414011612535">
        <ele>989.80999999999995</ele>
        <time>2018-09-17T15:37:25Z</time>
      </trkpt>
      <trkpt lat="47.54451597109437" lon="10.509517025202513">
        <ele>990.77999999999997</ele>
        <time>2018-09-17T15:37:26Z</time>
      </trkpt>
      <trkpt lat="47.544340034946799" lon="10.50957603380084">
        <ele>991.74000000000001</ele>
        <time>2018-09-17T15:37:27Z</time>
      </trkpt>
      <trkpt lat="47.544164014980197" lon="10.509634036570787">
        <ele>992.70000000000005</ele>
        <time>2018-09-17T15:37:28Z</time>
      </trkpt>
      <trkpt lat="47.543981960043311" lon="10.509694973006845">
        <ele>993.65999999999997</ele>
        <time>2018-09-17T15:37:29Z</time>
      </trkpt>
      <trkpt lat="47.542643034830689" lon="10.510460995137691">
        <ele>996.53999999999996</ele>
        <time>2018-09-17T15:37:36Z</time>
      </trkpt>
      <trkpt lat="47.541623041033745" lon="10.511800004169345">
        <ele>1000.39</ele>
        <time>2018-09-17T15:37:42Z</time>
      </trkpt>
      <trkpt lat="47.539607025682926" lon="10.51484003663063">
        <ele>1011.4400000000001</ele>
        <time>2018-09-17T15:37:54Z</time>
      </trkpt>
      <trkpt lat="47.538153016939759" lon="10.516914976760745">
        <ele>1016.73</ele>
        <time>2018-09-17T15:38:03Z</time>
      </trkpt>
      <trkpt lat="47.53770500421524" lon="10.517967995256186">
        <ele>1018.17</ele>
        <time>2018-09-17T15:38:08Z</time>
      </trkpt>
      <trkpt lat="47.537295967340469" lon="10.519677987322211">
        <ele>1020.58</ele>
        <time>2018-09-17T15:38:16Z</time>
      </trkpt>
      <trkpt lat="47.537096980959177" lon="10.520505029708147">
        <ele>1022.02</ele>
        <time>2018-09-17T15:38:19Z</time>
      </trkpt>
      <trkpt lat="47.536990027874708" lon="10.520764030516148">
        <ele>1022.5</ele>
        <time>2018-09-17T15:38:20Z</time>
      </trkpt>
      <trkpt lat="47.536514019593596" lon="10.521784024313092">
        <ele>1024.4200000000001</ele>
        <time>2018-09-17T15:38:24Z</time>
      </trkpt>
      <trkpt lat="47.536437995731831" lon="10.522031038999557">
        <ele>1025.3800000000001</ele>
        <time>2018-09-17T15:38:25Z</time>
      </trkpt>
      <trkpt lat="47.536386027932167" lon="10.52227302454412">
        <ele>1026.3399999999999</ele>
        <time>2018-09-17T15:38:26Z</time>
      </trkpt>
      <trkpt lat="47.536291982978582" lon="10.522709973156452">
        <ele>1028.27</ele>
        <time>2018-09-17T15:38:28Z</time>
      </trkpt>
      <trkpt lat="47.536247977986932" lon="10.52291801199317">
        <ele>1028.75</ele>
        <time>2018-09-17T15:38:29Z</time>
      </trkpt>
      <trkpt lat="47.536203972995281" lon="10.523122027516365">
        <ele>1029.71</ele>
        <time>2018-09-17T15:38:30Z</time>
      </trkpt>
      <trkpt lat="47.536161979660392" lon="10.523319002240896">
        <ele>1030.1900000000001</ele>
        <time>2018-09-17T15:38:31Z</time>
      </trkpt>
      <trkpt lat="47.536103976890445" lon="10.523518994450569">
        <ele>1030.6700000000001</ele>
        <time>2018-09-17T15:38:32Z</time>
      </trkpt>
      <trkpt lat="47.536008004099131" lon="10.523666013032198">
        <ele>1031.1500000000001</ele>
        <time>2018-09-17T15:38:33Z</time>
      </trkpt>
      <trkpt lat="47.535907002165914" lon="10.523819988593459">
        <ele>1032.1099999999999</ele>
        <time>2018-09-17T15:38:34Z</time>
      </trkpt>
      <trkpt lat="47.535801976919174" lon="10.523981004953384">
        <ele>1032.5899999999999</ele>
        <time>2018-09-17T15:38:35Z</time>
      </trkpt>
      <trkpt lat="47.535693012177944" lon="10.52414302714169">
        <ele>1033.0699999999999</ele>
        <time>2018-09-17T15:38:36Z</time>
      </trkpt>
      <trkpt lat="47.535459995269775" lon="10.524475034326315">
        <ele>1035</ele>
        <time>2018-09-17T15:38:38Z</time>
      </trkpt>
      <trkpt lat="47.535351030528545" lon="10.524661028757691">
        <ele>1035.96</ele>
        <time>2018-09-17T15:38:39Z</time>
      </trkpt>
      <trkpt lat="47.535277018323541" lon="10.524863032624125">
        <ele>1036.9200000000001</ele>
        <time>2018-09-17T15:38:40Z</time>
      </trkpt>
      <trkpt lat="47.535223960876465" lon="10.525075010955334">
        <ele>1037.4000000000001</ele>
        <time>2018-09-17T15:38:41Z</time>
      </trkpt>
      <trkpt lat="47.535179033875465" lon="10.5252839718014">
        <ele>1038.3599999999999</ele>
        <time>2018-09-17T15:38:42Z</time>
      </trkpt>
      <trkpt lat="47.535165036097169" lon="10.525513971224427">
        <ele>1038.8399999999999</ele>
        <time>2018-09-17T15:38:43Z</time>
      </trkpt>
      <trkpt lat="47.535151038318872" lon="10.525747993960977">
        <ele>1040.28</ele>
        <time>2018-09-17T15:38:44Z</time>
      </trkpt>
      <trkpt lat="47.535034026950598" lon="10.528709990903735">
        <ele>1047.97</ele>
        <time>2018-09-17T15:38:55Z</time>
      </trkpt>
      <trkpt lat="47.534870998933911" lon="10.529947998002172">
        <ele>1046.53</ele>
        <time>2018-09-17T15:38:59Z</time>
      </trkpt>
      <trkpt lat="47.53424696624279" lon="10.531655978411436">
        <ele>1044.1300000000001</ele>
        <time>2018-09-17T15:39:05Z</time>
      </trkpt>
      <trkpt lat="47.53375100903213" lon="10.532849980518222">
        <ele>1045.0899999999999</ele>
        <time>2018-09-17T15:39:11Z</time>
      </trkpt>
      <trkpt lat="47.533636009320617" lon="10.533135971054435">
        <ele>1046.05</ele>
        <time>2018-09-17T15:39:14Z</time>
      </trkpt>
      <trkpt lat="47.533387988805771" lon="10.533714992925525">
        <ele>1046.05</ele>
        <time>2018-09-17T15:39:24Z</time>
      </trkpt>
      <trkpt lat="47.533357981592417" lon="10.533785987645388">
        <ele>1045.5699999999999</ele>
        <time>2018-09-17T15:39:35Z</time>
      </trkpt>
      <trkpt lat="47.533357981592417" lon="10.533785987645388">
        <ele>1045.5699999999999</ele>
        <time>2018-09-17T15:39:50Z</time>
      </trkpt>
      <trkpt lat="47.533357981592417" lon="10.533785987645388">
        <ele>1047.01</ele>
        <time>2018-09-17T15:40:20Z</time>
      </trkpt>
      <trkpt lat="47.533241976052523" lon="10.534011963754892">
        <ele>1042.6900000000001</ele>
        <time>2018-09-17T15:40:32Z</time>
      </trkpt>
      <trkpt lat="47.533071991056204" lon="10.534346988424659">
        <ele>1041.73</ele>
        <time>2018-09-17T15:40:45Z</time>
      </trkpt>
      <trkpt lat="47.532759010791779" lon="10.534946965053678">
        <ele>1046.53</ele>
        <time>2018-09-17T15:40:59Z</time>
      </trkpt>
      <trkpt lat="47.532628001645207" lon="10.535155003890395">
        <ele>1047.97</ele>
        <time>2018-09-17T15:41:03Z</time>
      </trkpt>
      <trkpt lat="47.532216031104326" lon="10.535793034359813">
        <ele>1050.8599999999999</ele>
        <time>2018-09-17T15:41:10Z</time>
      </trkpt>
      <trkpt lat="47.531444979831576" lon="10.536989970132709">
        <ele>1056.6300000000001</ele>
        <time>2018-09-17T15:41:18Z</time>
      </trkpt>
      <trkpt lat="47.530889008194208" lon="10.537865040823817">
        <ele>1061.4300000000001</ele>
        <time>2018-09-17T15:41:24Z</time>
      </trkpt>
      <trkpt lat="47.530811978504062" lon="10.53797903470695">
        <ele>1061.9100000000001</ele>
        <time>2018-09-17T15:41:25Z</time>
      </trkpt>
      <trkpt lat="47.530746012926102" lon="10.538113983348012">
        <ele>1062.3900000000001</ele>
        <time>2018-09-17T15:41:26Z</time>
      </trkpt>
      <trkpt lat="47.530672000721097" lon="10.538270976394415">
        <ele>1063.3599999999999</ele>
        <time>2018-09-17T15:41:27Z</time>
      </trkpt>
      <trkpt lat="47.530590025708079" lon="10.538468034937978">
        <ele>1063.8399999999999</ele>
        <time>2018-09-17T15:41:28Z</time>
      </trkpt>
      <trkpt lat="47.530300011858344" lon="10.539393983781338">
        <ele>1065.28</ele>
        <time>2018-09-17T15:41:32Z</time>
      </trkpt>
      <trkpt lat="47.530186017975211" lon="10.539573021233082">
        <ele>1065.28</ele>
        <time>2018-09-17T15:41:33Z</time>
      </trkpt>
      <trkpt lat="47.530058026313782" lon="10.539752980694175">
        <ele>1065.76</ele>
        <time>2018-09-17T15:41:34Z</time>
      </trkpt>
      <trkpt lat="47.52990597859025" lon="10.539922965690494">
        <ele>1065.76</ele>
        <time>2018-09-17T15:41:35Z</time>
      </trkpt>
      <trkpt lat="47.529721995815635" lon="10.540051041170955">
        <ele>1065.76</ele>
        <time>2018-09-17T15:41:36Z</time>
      </trkpt>
      <trkpt lat="47.529528038576245" lon="10.540185989812016">
        <ele>1065.76</ele>
        <time>2018-09-17T15:41:37Z</time>
      </trkpt>
      <trkpt lat="47.528177965432405" lon="10.541154015809298">
        <ele>1069.1199999999999</ele>
        <time>2018-09-17T15:41:43Z</time>
      </trkpt>
      <trkpt lat="47.527972022071481" lon="10.541360964998603">
        <ele>1070.0799999999999</ele>
        <time>2018-09-17T15:41:44Z</time>
      </trkpt>
      <trkpt lat="47.527788039296865" lon="10.541616026312113">
        <ele>1071.05</ele>
        <time>2018-09-17T15:41:45Z</time>
      </trkpt>
      <trkpt lat="47.525712009519339" lon="10.544523037970066">
        <ele>1080.6600000000001</ele>
        <time>2018-09-17T15:41:56Z</time>
      </trkpt>
      <trkpt lat="47.525354018434882" lon="10.544922016561031">
        <ele>1082.0999999999999</ele>
        <time>2018-09-17T15:41:58Z</time>
      </trkpt>
      <trkpt lat="47.525151008740067" lon="10.54507196880877">
        <ele>1082.5799999999999</ele>
        <time>2018-09-17T15:41:59Z</time>
      </trkpt>
      <trkpt lat="47.524945987388492" lon="10.545223010703921">
        <ele>1083.0599999999999</ele>
        <time>2018-09-17T15:42:00Z</time>
      </trkpt>
      <trkpt lat="47.524725962430239" lon="10.5453069973737">
        <ele>1084.02</ele>
        <time>2018-09-17T15:42:01Z</time>
      </trkpt>
      <trkpt lat="47.524499986320734" lon="10.54539198987186">
        <ele>1084.5</ele>
        <time>2018-09-17T15:42:02Z</time>
      </trkpt>
      <trkpt lat="47.523709991946816" lon="10.545769007876515">
        <ele>1087.8699999999999</ele>
        <time>2018-09-17T15:42:06Z</time>
      </trkpt>
      <trkpt lat="47.523560039699078" lon="10.545918038114905">
        <ele>1088.3499999999999</ele>
        <time>2018-09-17T15:42:07Z</time>
      </trkpt>
      <trkpt lat="47.523435987532139" lon="10.546105038374662">
        <ele>1089.3099999999999</ele>
        <time>2018-09-17T15:42:08Z</time>
      </trkpt>
      <trkpt lat="47.523319981992245" lon="10.546293966472149">
        <ele>1089.79</ele>
        <time>2018-09-17T15:42:09Z</time>
      </trkpt>
      <trkpt lat="47.523206993937492" lon="10.546491025015712">
        <ele>1090.75</ele>
        <time>2018-09-17T15:42:10Z</time>
      </trkpt>
      <trkpt lat="47.523090988397598" lon="10.546694034710526">
        <ele>1091.23</ele>
        <time>2018-09-17T15:42:11Z</time>
      </trkpt>
      <trkpt lat="47.522698966786265" lon="10.547380009666085">
        <ele>1093.1600000000001</ele>
        <time>2018-09-17T15:42:14Z</time>
      </trkpt>
      <trkpt lat="47.522530993446708" lon="10.547586036846042">
        <ele>1094.1199999999999</ele>
        <time>2018-09-17T15:42:15Z</time>
      </trkpt>
      <trkpt lat="47.521751979365945" lon="10.548607036471367">
        <ele>1097.96</ele>
        <time>2018-09-17T15:42:20Z</time>
      </trkpt>
      <trkpt lat="47.521648965775967" lon="10.548813985660672">
        <ele>1098.9200000000001</ele>
        <time>2018-09-17T15:42:21Z</time>
      </trkpt>
      <trkpt lat="47.521219979971647" lon="10.549639016389847">
        <ele>1102.77</ele>
        <time>2018-09-17T15:42:26Z</time>
      </trkpt>
      <trkpt lat="47.521133981645107" lon="10.549758961424232">
        <ele>1104.21</ele>
        <time>2018-09-17T15:42:27Z</time>
      </trkpt>
      <trkpt lat="47.521047983318567" lon="10.549869015812874">
        <ele>1105.1700000000001</ele>
        <time>2018-09-17T15:42:28Z</time>
      </trkpt>
      <trkpt lat="47.520947987213731" lon="10.549944033846259">
        <ele>1106.1300000000001</ele>
        <time>2018-09-17T15:42:29Z</time>
      </trkpt>
      <trkpt lat="47.520842961966991" lon="10.550022991374135">
        <ele>1107.0999999999999</ele>
        <time>2018-09-17T15:42:30Z</time>
      </trkpt>
      <trkpt lat="47.520733997225761" lon="10.550104966387153">
        <ele>1108.0599999999999</ele>
        <time>2018-09-17T15:42:31Z</time>
      </trkpt>
      <trkpt lat="47.519559022039175" lon="10.550989005714655">
        <ele>1115.27</ele>
        <time>2018-09-17T15:42:40Z</time>
      </trkpt>
      <trkpt lat="47.519006989896297" lon="10.551403993740678">
        <ele>1119.1099999999999</ele>
        <time>2018-09-17T15:42:44Z</time>
      </trkpt>
      <trkpt lat="47.518770033493638" lon="10.551697025075555">
        <ele>1121.03</ele>
        <time>2018-09-17T15:42:46Z</time>
      </trkpt>
      <trkpt lat="47.518670037388802" lon="10.551863992586732">
        <ele>1122</ele>
        <time>2018-09-17T15:42:47Z</time>
      </trkpt>
      <trkpt lat="47.518607005476952" lon="10.55207303725183">
        <ele>1122.96</ele>
        <time>2018-09-17T15:42:48Z</time>
      </trkpt>
      <trkpt lat="47.51856199465692" lon="10.552293984219432">
        <ele>1124.4000000000001</ele>
        <time>2018-09-17T15:42:49Z</time>
      </trkpt>
      <trkpt lat="47.518515978008509" lon="10.55252498947084">
        <ele>1125.3599999999999</ele>
        <time>2018-09-17T15:42:50Z</time>
      </trkpt>
      <trkpt lat="47.518478007987142" lon="10.55276102386415">
        <ele>1126.8</ele>
        <time>2018-09-17T15:42:51Z</time>
      </trkpt>
      <trkpt lat="47.518442971631885" lon="10.552983982488513">
        <ele>1127.76</ele>
        <time>2018-09-17T15:42:52Z</time>
      </trkpt>
      <trkpt lat="47.51841296441853" lon="10.553176011890173">
        <ele>1128.73</ele>
        <time>2018-09-17T15:42:53Z</time>
      </trkpt>
      <trkpt lat="47.518353033810854" lon="10.553321018815041">
        <ele>1130.1700000000001</ele>
        <time>2018-09-17T15:42:54Z</time>
      </trkpt>
      <trkpt lat="47.518277009949088" lon="10.553434006869793">
        <ele>1131.1300000000001</ele>
        <time>2018-09-17T15:42:55Z</time>
      </trkpt>
      <trkpt lat="47.5181969627738" lon="10.553525034338236">
        <ele>1132.0899999999999</ele>
        <time>2018-09-17T15:42:56Z</time>
      </trkpt>
      <trkpt lat="47.518098978325725" lon="10.553583959117532">
        <ele>1133.05</ele>
        <time>2018-09-17T15:42:57Z</time>
      </trkpt>
      <trkpt lat="47.51798297278583" lon="10.553625030443072">
        <ele>1134.01</ele>
        <time>2018-09-17T15:42:58Z</time>
      </trkpt>
      <trkpt lat="47.517853975296021" lon="10.553589994087815">
        <ele>1134.97</ele>
        <time>2018-09-17T15:42:59Z</time>
      </trkpt>
      <trkpt lat="47.517712991684675" lon="10.553550012409687">
        <ele>1135.9400000000001</ele>
        <time>2018-09-17T15:43:00Z</time>
      </trkpt>
      <trkpt lat="47.517563961446285" lon="10.553501984104514">
        <ele>1136.9000000000001</ele>
        <time>2018-09-17T15:43:01Z</time>
      </trkpt>
      <trkpt lat="47.517405040562153" lon="10.553441969677806">
        <ele>1137.8599999999999</ele>
        <time>2018-09-17T15:43:02Z</time>
      </trkpt>
      <trkpt lat="47.516870023682714" lon="10.553283970803022">
        <ele>1140.26</ele>
        <time>2018-09-17T15:43:05Z</time>
      </trkpt>
      <trkpt lat="47.516680005937815" lon="10.553273996338248">
        <ele>1140.74</ele>
        <time>2018-09-17T15:43:06Z</time>
      </trkpt>
      <trkpt lat="47.516488982364535" lon="10.553294029086828">
        <ele>1141.7</ele>
        <time>2018-09-17T15:43:07Z</time>
      </trkpt>
      <trkpt lat="47.516294019296765" lon="10.553337028250098">
        <ele>1142.1800000000001</ele>
        <time>2018-09-17T15:43:08Z</time>
      </trkpt>
      <trkpt lat="47.516107019037008" lon="10.553420009091496">
        <ele>1143.1400000000001</ele>
        <time>2018-09-17T15:43:09Z</time>
      </trkpt>
      <trkpt lat="47.515924964100122" lon="10.553530985489488">
        <ele>1144.1099999999999</ele>
        <time>2018-09-17T15:43:10Z</time>
      </trkpt>
      <trkpt lat="47.515737041831017" lon="10.553644979372621">
        <ele>1144.5899999999999</ele>
        <time>2018-09-17T15:43:11Z</time>
      </trkpt>
      <trkpt lat="47.515549035742879" lon="10.553759979084134">
        <ele>1145.0699999999999</ele>
        <time>2018-09-17T15:43:12Z</time>
      </trkpt>
      <trkpt lat="47.514794999733567" lon="10.554197011515498">
        <ele>1146.51</ele>
        <time>2018-09-17T15:43:16Z</time>
      </trkpt>
      <trkpt lat="47.514609005302191" lon="10.554218972101808">
        <ele>1146.99</ele>
        <time>2018-09-17T15:43:17Z</time>
      </trkpt>
      <trkpt lat="47.51443499699235" lon="10.554240010678768">
        <ele>1147.47</ele>
        <time>2018-09-17T15:43:18Z</time>
      </trkpt>
      <trkpt lat="47.513978015631437" lon="10.554293990135193">
        <ele>1147.95</ele>
        <time>2018-09-17T15:43:22Z</time>
      </trkpt>
      <trkpt lat="47.513584988191724" lon="10.554341012611985">
        <ele>1147.95</ele>
        <time>2018-09-17T15:43:26Z</time>
      </trkpt>
      <trkpt lat="47.513453979045153" lon="10.554405972361565">
        <ele>1148.4300000000001</ele>
        <time>2018-09-17T15:43:27Z</time>
      </trkpt>
      <trkpt lat="47.513316012918949" lon="10.554479984566569">
        <ele>1148.9100000000001</ele>
        <time>2018-09-17T15:43:28Z</time>
      </trkpt>
      <trkpt lat="47.513173017650843" lon="10.554580986499786">
        <ele>1148.9100000000001</ele>
        <time>2018-09-17T15:43:29Z</time>
      </trkpt>
      <trkpt lat="47.513029016554356" lon="10.554703027009964">
        <ele>1149.3900000000001</ele>
        <time>2018-09-17T15:43:30Z</time>
      </trkpt>
      <trkpt lat="47.512884009629488" lon="10.55482598952949">
        <ele>1149.3900000000001</ele>
        <time>2018-09-17T15:43:31Z</time>
      </trkpt>
      <trkpt lat="47.512142965570092" lon="10.555159002542496">
        <ele>1147.95</ele>
        <time>2018-09-17T15:43:37Z</time>
      </trkpt>
      <trkpt lat="47.510637994855642" lon="10.555799966678023">
        <ele>1150.8399999999999</ele>
        <time>2018-09-17T15:43:49Z</time>
      </trkpt>
      <trkpt lat="47.509318012744188" lon="10.556372031569481">
        <ele>1156.1199999999999</ele>
        <time>2018-09-17T15:44:00Z</time>
      </trkpt>
      <trkpt lat="47.508537992835045" lon="10.556632960215211">
        <ele>1157.0799999999999</ele>
        <time>2018-09-17T15:44:06Z</time>
      </trkpt>
      <trkpt lat="47.508401032537222" lon="10.556646035984159">
        <ele>1157.0799999999999</ele>
        <time>2018-09-17T15:44:07Z</time>
      </trkpt>
      <trkpt lat="47.50826901756227" lon="10.556605970486999">
        <ele>1157.0799999999999</ele>
        <time>2018-09-17T15:44:08Z</time>
      </trkpt>
      <trkpt lat="47.508134990930557" lon="10.55656498298049">
        <ele>1156.5999999999999</ele>
        <time>2018-09-17T15:44:09Z</time>
      </trkpt>
      <trkpt lat="47.508006999269128" lon="10.556525001302361">
        <ele>1156.5999999999999</ele>
        <time>2018-09-17T15:44:10Z</time>
      </trkpt>
      <trkpt lat="47.507879007607698" lon="10.55647999048233">
        <ele>1156.5999999999999</ele>
        <time>2018-09-17T15:44:11Z</time>
      </trkpt>
      <trkpt lat="47.507770964875817" lon="10.556378988549113">
        <ele>1156.5999999999999</ele>
        <time>2018-09-17T15:44:12Z</time>
      </trkpt>
      <trkpt lat="47.507656970992684" lon="10.556281004101038">
        <ele>1156.1199999999999</ele>
        <time>2018-09-17T15:44:13Z</time>
      </trkpt>
      <trkpt lat="47.506807968020439" lon="10.555558986961842">
        <ele>1155.1600000000001</ele>
        <time>2018-09-17T15:44:20Z</time>
      </trkpt>
      <trkpt lat="47.506574029102921" lon="10.555433006957173">
        <ele>1154.6800000000001</ele>
        <time>2018-09-17T15:44:22Z</time>
      </trkpt>
      <trkpt lat="47.506445031613111" lon="10.555411968380213">
        <ele>1154.2</ele>
        <time>2018-09-17T15:44:23Z</time>
      </trkpt>
      <trkpt lat="47.506311004981399" lon="10.555391013622284">
        <ele>1154.2</ele>
        <time>2018-09-17T15:44:24Z</time>
      </trkpt>
      <trkpt lat="47.506174966692924" lon="10.555372992530465">
        <ele>1154.2</ele>
        <time>2018-09-17T15:44:25Z</time>
      </trkpt>
      <trkpt lat="47.506031971424818" lon="10.555379027500749">
        <ele>1153.72</ele>
        <time>2018-09-17T15:44:26Z</time>
      </trkpt>
      <trkpt lat="47.504517026245594" lon="10.5552520416677">
        <ele>1151.3199999999999</ele>
        <time>2018-09-17T15:44:36Z</time>
      </trkpt>
      <trkpt lat="47.503190003335476" lon="10.554558020085096">
        <ele>1148.4300000000001</ele>
        <time>2018-09-17T15:44:45Z</time>
      </trkpt>
      <trkpt lat="47.502607963979244" lon="10.554484007880092">
        <ele>1146.99</ele>
        <time>2018-09-17T15:44:49Z</time>
      </trkpt>
      <trkpt lat="47.502459017559886" lon="10.554492976516485">
        <ele>1146.51</ele>
        <time>2018-09-17T15:44:50Z</time>
      </trkpt>
      <trkpt lat="47.502336977049708" lon="10.554552990943193">
        <ele>1145.55</ele>
        <time>2018-09-17T15:44:51Z</time>
      </trkpt>
      <trkpt lat="47.50220999121666" lon="10.554625997319818">
        <ele>1144.5899999999999</ele>
        <time>2018-09-17T15:44:52Z</time>
      </trkpt>
      <trkpt lat="47.502083005383611" lon="10.554724987596273">
        <ele>1143.6300000000001</ele>
        <time>2018-09-17T15:44:53Z</time>
      </trkpt>
      <trkpt lat="47.501965994015336" lon="10.554859014227986">
        <ele>1142.1800000000001</ele>
        <time>2018-09-17T15:44:54Z</time>
      </trkpt>
      <trkpt lat="47.5018469709903" lon="10.555012989789248">
        <ele>1141.22</ele>
        <time>2018-09-17T15:44:55Z</time>
      </trkpt>
      <trkpt lat="47.501721996814013" lon="10.555180041119456">
        <ele>1140.26</ele>
        <time>2018-09-17T15:44:56Z</time>
      </trkpt>
      <trkpt lat="47.500796969980001" lon="10.556324003264308">
        <ele>1129.21</ele>
        <time>2018-09-17T15:45:03Z</time>
      </trkpt>
      <trkpt lat="47.500630002468824" lon="10.556361973285675">
        <ele>1127.76</ele>
        <time>2018-09-17T15:45:04Z</time>
      </trkpt>
      <trkpt lat="47.500473009422421" lon="10.556353004649282">
        <ele>1126.3199999999999</ele>
        <time>2018-09-17T15:45:05Z</time>
      </trkpt>
      <trkpt lat="47.500310987234116" lon="10.556292990222573">
        <ele>1124.8800000000001</ele>
        <time>2018-09-17T15:45:06Z</time>
      </trkpt>
      <trkpt lat="47.500141002237797" lon="10.556230964139104">
        <ele>1123.9200000000001</ele>
        <time>2018-09-17T15:45:07Z</time>
      </trkpt>
      <trkpt lat="47.499989960342646" lon="10.556099032983184">
        <ele>1122.96</ele>
        <time>2018-09-17T15:45:08Z</time>
      </trkpt>
      <trkpt lat="47.499846965074539" lon="10.55592100135982">
        <ele>1122</ele>
        <time>2018-09-17T15:45:09Z</time>
      </trkpt>
      <trkpt lat="47.499703969806433" lon="10.555734001100063">
        <ele>1120.55</ele>
        <time>2018-09-17T15:45:10Z</time>
      </trkpt>
      <trkpt lat="47.498833006247878" lon="10.55465298704803">
        <ele>1116.23</ele>
        <time>2018-09-17T15:45:16Z</time>
      </trkpt>
      <trkpt lat="47.498683976009488" lon="10.554495994001627">
        <ele>1115.75</ele>
        <time>2018-09-17T15:45:17Z</time>
      </trkpt>
      <trkpt lat="47.498513991013169" lon="10.554401027038693">
        <ele>1114.79</ele>
        <time>2018-09-17T15:45:18Z</time>
      </trkpt>
      <trkpt lat="47.498331014066935" lon="10.554314022883773">
        <ele>1114.3099999999999</ele>
        <time>2018-09-17T15:45:19Z</time>
      </trkpt>
      <trkpt lat="47.498145019635558" lon="10.554248979315162">
        <ele>1113.8199999999999</ele>
        <time>2018-09-17T15:45:20Z</time>
      </trkpt>
      <trkpt lat="47.497959025204182" lon="10.554229030385613">
        <ele>1112.8599999999999</ele>
        <time>2018-09-17T15:45:21Z</time>
      </trkpt>
      <trkpt lat="47.497780993580818" lon="10.554208997637033">
        <ele>1112.3800000000001</ele>
        <time>2018-09-17T15:45:22Z</time>
      </trkpt>
      <trkpt lat="47.497614026069641" lon="10.554197011515498">
        <ele>1111.9000000000001</ele>
        <time>2018-09-17T15:45:23Z</time>
      </trkpt>
      <trkpt lat="47.497457033023238" lon="10.55424403399229">
        <ele>1110.9400000000001</ele>
        <time>2018-09-17T15:45:24Z</time>
      </trkpt>
      <trkpt lat="47.497312026098371" lon="10.554288038983941">
        <ele>1110.46</ele>
        <time>2018-09-17T15:45:25Z</time>
      </trkpt>
      <trkpt lat="47.497176993638277" lon="10.554334977641702">
        <ele>1110.46</ele>
        <time>2018-09-17T15:45:26Z</time>
      </trkpt>
      <trkpt lat="47.49705595895648" lon="10.554405972361565">
        <ele>1109.98</ele>
        <time>2018-09-17T15:45:27Z</time>
      </trkpt>
      <trkpt lat="47.496844986453652" lon="10.554526001214981">
        <ele>1109.5</ele>
        <time>2018-09-17T15:45:29Z</time>
      </trkpt>
      <trkpt lat="47.496751025319099" lon="10.554577969014645">
        <ele>1109.5</ele>
        <time>2018-09-17T15:45:30Z</time>
      </trkpt>
      <trkpt lat="47.496673995628953" lon="10.554577969014645">
        <ele>1109.5</ele>
        <time>2018-09-17T15:45:31Z</time>
      </trkpt>
      <trkpt lat="47.496610041707754" lon="10.554577969014645">
        <ele>1109.5</ele>
        <time>2018-09-17T15:45:32Z</time>
      </trkpt>
      <trkpt lat="47.49656000174582" lon="10.554577969014645">
        <ele>1109.5</ele>
        <time>2018-09-17T15:45:33Z</time>
      </trkpt>
      <trkpt lat="47.496462017297745" lon="10.554460035637021">
        <ele>1109.5</ele>
        <time>2018-09-17T15:45:34Z</time>
      </trkpt>
      <trkpt lat="47.496468974277377" lon="10.55439499206841">
        <ele>1109.5</ele>
        <time>2018-09-17T15:45:35Z</time>
      </trkpt>
      <trkpt lat="47.496479032561183" lon="10.55428896099329">
        <ele>1109.5</ele>
        <time>2018-09-17T15:45:36Z</time>
      </trkpt>
      <trkpt lat="47.496493030339479" lon="10.554148983210325">
        <ele>1109.5</ele>
        <time>2018-09-17T15:45:37Z</time>
      </trkpt>
      <trkpt lat="47.496485989540815" lon="10.553978998214006">
        <ele>1109.5</ele>
        <time>2018-09-17T15:45:38Z</time>
      </trkpt>
      <trkpt lat="47.496478026732802" lon="10.553778000175953">
        <ele>1109.5</ele>
        <time>2018-09-17T15:45:39Z</time>
      </trkpt>
      <trkpt lat="47.496458999812603" lon="10.553549006581306">
        <ele>1109.98</ele>
        <time>2018-09-17T15:45:40Z</time>
      </trkpt>
      <trkpt lat="47.496422035619617" lon="10.55329998023808">
        <ele>1109.98</ele>
        <time>2018-09-17T15:45:41Z</time>
      </trkpt>
      <trkpt lat="47.496382975950837" lon="10.553033016622066">
        <ele>1109.98</ele>
        <time>2018-09-17T15:45:42Z</time>
      </trkpt>
      <trkpt lat="47.496267976239324" lon="10.551428971812129">
        <ele>1109.5</ele>
        <time>2018-09-17T15:45:47Z</time>
      </trkpt>
      <trkpt lat="47.496583973988891" lon="10.549111040309072">
        <ele>1108.54</ele>
        <time>2018-09-17T15:45:53Z</time>
      </trkpt>
      <trkpt lat="47.497038021683693" lon="10.545571027323604">
        <ele>1106.1300000000001</ele>
        <time>2018-09-17T15:46:01Z</time>
      </trkpt>
      <trkpt lat="47.497530039399862" lon="10.543200960382819">
        <ele>1109.02</ele>
        <time>2018-09-17T15:46:07Z</time>
      </trkpt>
      <trkpt lat="47.497992971912026" lon="10.54122501052916">
        <ele>1112.3800000000001</ele>
        <time>2018-09-17T15:46:14Z</time>
      </trkpt>
      <trkpt lat="47.498393040150404" lon="10.538238035514951">
        <ele>1109.5</ele>
        <time>2018-09-17T15:46:24Z</time>
      </trkpt>
      <trkpt lat="47.498682970181108" lon="10.535228010267019">
        <ele>1107.0999999999999</ele>
        <time>2018-09-17T15:46:32Z</time>
      </trkpt>
      <trkpt lat="47.498720018193126" lon="10.530841005966067">
        <ele>1106.6099999999999</ele>
        <time>2018-09-17T15:46:43Z</time>
      </trkpt>
      <trkpt lat="47.498704008758068" lon="10.527485981583595">
        <ele>1101.3299999999999</ele>
        <time>2018-09-17T15:46:52Z</time>
      </trkpt>
      <trkpt lat="47.498839041218162" lon="10.524592967703938">
        <ele>1096.52</ele>
        <time>2018-09-17T15:47:02Z</time>
      </trkpt>
      <trkpt lat="47.499385038390756" lon="10.522121982648969">
        <ele>1094.5999999999999</ele>
        <time>2018-09-17T15:47:11Z</time>
      </trkpt>
      <trkpt lat="47.500936025753617" lon="10.517752999439836">
        <ele>1093.1600000000001</ele>
        <time>2018-09-17T15:47:28Z</time>
      </trkpt>
      <trkpt lat="47.5012650154531" lon="10.515796998515725">
        <ele>1094.1199999999999</ele>
        <time>2018-09-17T15:47:35Z</time>
      </trkpt>
      <trkpt lat="47.501272978261113" lon="10.513172037899494">
        <ele>1094.5999999999999</ele>
        <time>2018-09-17T15:47:44Z</time>
      </trkpt>
      <trkpt lat="47.500764029100537" lon="10.509479977190495">
        <ele>1092.6800000000001</ele>
        <time>2018-09-17T15:47:57Z</time>
      </trkpt>
      <trkpt lat="47.50051399692893" lon="10.506366016343236">
        <ele>1096.52</ele>
        <time>2018-09-17T15:48:08Z</time>
      </trkpt>
      <trkpt lat="47.50053696334362" lon="10.506082037463784">
        <ele>1097</ele>
        <time>2018-09-17T15:48:09Z</time>
      </trkpt>
      <trkpt lat="47.5010060146451" lon="10.50418496131897">
        <ele>1101.3299999999999</ele>
        <time>2018-09-17T15:48:16Z</time>
      </trkpt>
      <trkpt lat="47.501945961266756" lon="10.5026809964329">
        <ele>1104.21</ele>
        <time>2018-09-17T15:48:23Z</time>
      </trkpt>
      <trkpt lat="47.503656959161162" lon="10.501160016283393">
        <ele>1099.4000000000001</ele>
        <time>2018-09-17T15:48:33Z</time>
      </trkpt>
      <trkpt lat="47.504658009856939" lon="10.499809021130204">
        <ele>1093.6400000000001</ele>
        <time>2018-09-17T15:48:40Z</time>
      </trkpt>
      <trkpt lat="47.505230996757746" lon="10.498001966625452">
        <ele>1090.27</ele>
        <time>2018-09-17T15:48:47Z</time>
      </trkpt>
      <trkpt lat="47.505508018657565" lon="10.495820995420218">
        <ele>1089.3099999999999</ele>
        <time>2018-09-17T15:48:54Z</time>
      </trkpt>
      <trkpt lat="47.505988972261548" lon="10.49243101850152">
        <ele>1088.3499999999999</ele>
        <time>2018-09-17T15:49:06Z</time>
      </trkpt>
      <trkpt lat="47.506730016320944" lon="10.489448988810182">
        <ele>1085.95</ele>
        <time>2018-09-17T15:49:17Z</time>
      </trkpt>
      <trkpt lat="47.50695900991559" lon="10.486269984394312">
        <ele>1081.6199999999999</ele>
        <time>2018-09-17T15:49:28Z</time>
      </trkpt>
      <trkpt lat="47.506706966087222" lon="10.484282970428467">
        <ele>1078.26</ele>
        <time>2018-09-17T15:49:35Z</time>
      </trkpt>
      <trkpt lat="47.506143031641841" lon="10.480621000751853">
        <ele>1076.3299999999999</ele>
        <time>2018-09-17T15:49:48Z</time>
      </trkpt>
      <trkpt lat="47.506253002211452" lon="10.478030992671847">
        <ele>1074.4100000000001</ele>
        <time>2018-09-17T15:49:57Z</time>
      </trkpt>
      <trkpt lat="47.506302958354354" lon="10.477750031277537">
        <ele>1074.4100000000001</ele>
        <time>2018-09-17T15:49:58Z</time>
      </trkpt>
      <trkpt lat="47.506374958902597" lon="10.477483989670873">
        <ele>1073.9300000000001</ele>
        <time>2018-09-17T15:49:59Z</time>
      </trkpt>
      <trkpt lat="47.506458023563027" lon="10.47722197137773">
        <ele>1073.9300000000001</ele>
        <time>2018-09-17T15:50:00Z</time>
      </trkpt>
      <trkpt lat="47.506570005789399" lon="10.47698300331831">
        <ele>1073.9300000000001</ele>
        <time>2018-09-17T15:50:01Z</time>
      </trkpt>
      <trkpt lat="47.506691040471196" lon="10.476758033037186">
        <ele>1073.9300000000001</ele>
        <time>2018-09-17T15:50:02Z</time>
      </trkpt>
      <trkpt lat="47.506832024082541" lon="10.476566003635526">
        <ele>1073.9300000000001</ele>
        <time>2018-09-17T15:50:03Z</time>
      </trkpt>
      <trkpt lat="47.506972001865506" lon="10.476374980062246">
        <ele>1073.9300000000001</ele>
        <time>2018-09-17T15:50:04Z</time>
      </trkpt>
      <trkpt lat="47.507111979648471" lon="10.476184040307999">
        <ele>1073.9300000000001</ele>
        <time>2018-09-17T15:50:05Z</time>
      </trkpt>
      <trkpt lat="47.507272996008396" lon="10.476023023948073">
        <ele>1073.9300000000001</ele>
        <time>2018-09-17T15:50:06Z</time>
      </trkpt>
      <trkpt lat="47.507766019552946" lon="10.475563025102019">
        <ele>1074.4100000000001</ele>
        <time>2018-09-17T15:50:09Z</time>
      </trkpt>
      <trkpt lat="47.507896022871137" lon="10.475363032892346">
        <ele>1074.4100000000001</ele>
        <time>2018-09-17T15:50:10Z</time>
      </trkpt>
      <trkpt lat="47.508026026189327" lon="10.475152982398868">
        <ele>1074.8900000000001</ele>
        <time>2018-09-17T15:50:11Z</time>
      </trkpt>
      <trkpt lat="47.508124010637403" lon="10.474947039037943">
        <ele>1074.4100000000001</ele>
        <time>2018-09-17T15:50:12Z</time>
      </trkpt>
      <trkpt lat="47.508197017014027" lon="10.474762972444296">
        <ele>1074.4100000000001</ele>
        <time>2018-09-17T15:50:13Z</time>
      </trkpt>
      <trkpt lat="47.508242027834058" lon="10.474587958306074">
        <ele>1073.9300000000001</ele>
        <time>2018-09-17T15:50:14Z</time>
      </trkpt>
      <trkpt lat="47.508284021168947" lon="10.474429037421942">
        <ele>1073.45</ele>
        <time>2018-09-17T15:50:15Z</time>
      </trkpt>
      <trkpt lat="47.508325008675456" lon="10.474268021062016">
        <ele>1072.97</ele>
        <time>2018-09-17T15:50:16Z</time>
      </trkpt>
      <trkpt lat="47.508729016408324" lon="10.472425008192658">
        <ele>1072.49</ele>
        <time>2018-09-17T15:50:27Z</time>
      </trkpt>
      <trkpt lat="47.509468970820308" lon="10.470503959804773">
        <ele>1078.26</ele>
        <time>2018-09-17T15:50:37Z</time>
      </trkpt>
      <trkpt lat="47.509759990498424" lon="10.46927098184824">
        <ele>1078.26</ele>
        <time>2018-09-17T15:50:42Z</time>
      </trkpt>
      <trkpt lat="47.509818999096751" lon="10.469005024060607">
        <ele>1078.26</ele>
        <time>2018-09-17T15:50:43Z</time>
      </trkpt>
      <trkpt lat="47.510314034298062" lon="10.466908039525151">
        <ele>1074.4100000000001</ele>
        <time>2018-09-17T15:50:50Z</time>
      </trkpt>
      <trkpt lat="47.511103022843599" lon="10.46544598415494">
        <ele>1072.97</ele>
        <time>2018-09-17T15:50:55Z</time>
      </trkpt>
      <trkpt lat="47.51207297667861" lon="10.464099012315273">
        <ele>1075.3699999999999</ele>
        <time>2018-09-17T15:51:01Z</time>
      </trkpt>
      <trkpt lat="47.512519983574748" lon="10.463265012949705">
        <ele>1077.78</ele>
        <time>2018-09-17T15:51:07Z</time>
      </trkpt>
      <trkpt lat="47.513205958530307" lon="10.461978977546096">
        <ele>1079.22</ele>
        <time>2018-09-17T15:51:19Z</time>
      </trkpt>
      <trkpt lat="47.513478035107255" lon="10.461395010352135">
        <ele>1080.6600000000001</ele>
        <time>2018-09-17T15:51:24Z</time>
      </trkpt>
      <trkpt lat="47.513636033982038" lon="10.461049005389214">
        <ele>1080.6600000000001</ele>
        <time>2018-09-17T15:51:27Z</time>
      </trkpt>
      <trkpt lat="47.513714991509914" lon="10.460957977920771">
        <ele>1080.6600000000001</ele>
        <time>2018-09-17T15:51:28Z</time>
      </trkpt>
      <trkpt lat="47.5137900095433" lon="10.460872985422611">
        <ele>1080.1800000000001</ele>
        <time>2018-09-17T15:51:29Z</time>
      </trkpt>
      <trkpt lat="47.513866033405066" lon="10.460785981267691">
        <ele>1080.1800000000001</ele>
        <time>2018-09-17T15:51:30Z</time>
      </trkpt>
      <trkpt lat="47.51394297927618" lon="10.46069897711277">
        <ele>1080.1800000000001</ele>
        <time>2018-09-17T15:51:31Z</time>
      </trkpt>
      <trkpt lat="47.514554020017385" lon="10.460069999098778">
        <ele>1078.74</ele>
        <time>2018-09-17T15:51:38Z</time>
      </trkpt>
      <trkpt lat="47.514874963089824" lon="10.459630033001304">
        <ele>1077.29</ele>
        <time>2018-09-17T15:51:42Z</time>
      </trkpt>
      <trkpt lat="47.515308978036046" lon="10.458992002531886">
        <ele>1073.9300000000001</ele>
        <time>2018-09-17T15:51:48Z</time>
      </trkpt>
      <trkpt lat="47.515519028529525" lon="10.458624958992004">
        <ele>1072.97</ele>
        <time>2018-09-17T15:51:51Z</time>
      </trkpt>
      <trkpt lat="47.515824967995286" lon="10.457971002906561">
        <ele>1071.05</ele>
        <time>2018-09-17T15:51:56Z</time>
      </trkpt>
      <trkpt lat="47.5163250323385" lon="10.456756968051195">
        <ele>1067.6800000000001</ele>
        <time>2018-09-17T15:52:05Z</time>
      </trkpt>
      <trkpt lat="47.516342969611287" lon="10.456612966954708">
        <ele>1067.2</ele>
        <time>2018-09-17T15:52:06Z</time>
      </trkpt>
      <trkpt lat="47.516361996531487" lon="10.45646502636373">
        <ele>1066.24</ele>
        <time>2018-09-17T15:52:07Z</time>
      </trkpt>
      <trkpt lat="47.516640024259686" lon="10.45472402125597">
        <ele>1065.28</ele>
        <time>2018-09-17T15:52:18Z</time>
      </trkpt>
      <trkpt lat="47.516687968745828" lon="10.454541966319084">
        <ele>1065.76</ele>
        <time>2018-09-17T15:52:19Z</time>
      </trkpt>
      <trkpt lat="47.516758963465691" lon="10.454350020736456">
        <ele>1066.72</ele>
        <time>2018-09-17T15:52:20Z</time>
      </trkpt>
      <trkpt lat="47.516872035339475" lon="10.454193027690053">
        <ele>1067.2</ele>
        <time>2018-09-17T15:52:21Z</time>
      </trkpt>
      <trkpt lat="47.516990974545479" lon="10.454026982188225">
        <ele>1068.1600000000001</ele>
        <time>2018-09-17T15:52:22Z</time>
      </trkpt>
      <trkpt lat="47.517117038369179" lon="10.453851968050003">
        <ele>1069.1199999999999</ele>
        <time>2018-09-17T15:52:23Z</time>
      </trkpt>
      <trkpt lat="47.517251987010241" lon="10.453676031902432">
        <ele>1069.5999999999999</ele>
        <time>2018-09-17T15:52:24Z</time>
      </trkpt>
      <trkpt lat="47.517927987501025" lon="10.452567022293806">
        <ele>1070.5699999999999</ele>
        <time>2018-09-17T15:52:29Z</time>
      </trkpt>
      <trkpt lat="47.518720999360085" lon="10.45135298743844">
        <ele>1071.53</ele>
        <time>2018-09-17T15:52:34Z</time>
      </trkpt>
      <trkpt lat="47.518832981586456" lon="10.451043024659157">
        <ele>1072.01</ele>
        <time>2018-09-17T15:52:35Z</time>
      </trkpt>
      <trkpt lat="47.518937001004815" lon="10.450735995545983">
        <ele>1073.45</ele>
        <time>2018-09-17T15:52:36Z</time>
      </trkpt>
      <trkpt lat="47.519694976508617" lon="10.448992978781462">
        <ele>1080.6600000000001</ele>
        <time>2018-09-17T15:52:42Z</time>
      </trkpt>
      <trkpt lat="47.519825985655189" lon="10.448721991851926">
        <ele>1081.6199999999999</ele>
        <time>2018-09-17T15:52:43Z</time>
      </trkpt>
      <trkpt lat="47.519921036437154" lon="10.448427032679319">
        <ele>1083.0599999999999</ele>
        <time>2018-09-17T15:52:44Z</time>
      </trkpt>
      <trkpt lat="47.520224964246154" lon="10.447489013895392">
        <ele>1087.8699999999999</ele>
        <time>2018-09-17T15:52:47Z</time>
      </trkpt>
      <trkpt lat="47.520362008363008" lon="10.447188019752502">
        <ele>1089.3099999999999</ele>
        <time>2018-09-17T15:52:48Z</time>
      </trkpt>
      <trkpt lat="47.520523024722934" lon="10.446900017559528">
        <ele>1091.23</ele>
        <time>2018-09-17T15:52:49Z</time>
      </trkpt>
      <trkpt lat="47.520701978355646" lon="10.446627018973231">
        <ele>1092.6800000000001</ele>
        <time>2018-09-17T15:52:50Z</time>
      </trkpt>
      <trkpt lat="47.520888978615403" lon="10.446357959881425">
        <ele>1094.1199999999999</ele>
        <time>2018-09-17T15:52:51Z</time>
      </trkpt>
      <trkpt lat="47.522667031735182" lon="10.443933997303247">
        <ele>1109.02</ele>
        <time>2018-09-17T15:53:00Z</time>
      </trkpt>
      <trkpt lat="47.522884961217642" lon="10.443716989830136">
        <ele>1110.9400000000001</ele>
        <time>2018-09-17T15:53:01Z</time>
      </trkpt>
      <trkpt lat="47.523871008306742" lon="10.442793974652886">
        <ele>1119.1099999999999</ele>
        <time>2018-09-17T15:53:06Z</time>
      </trkpt>
      <trkpt lat="47.524002017453313" lon="10.442612003535032">
        <ele>1120.55</ele>
        <time>2018-09-17T15:53:07Z</time>
      </trkpt>
      <trkpt lat="47.524107964709401" lon="10.442379992455244">
        <ele>1122</ele>
        <time>2018-09-17T15:53:08Z</time>
      </trkpt>
      <trkpt lat="47.524199998006225" lon="10.442175976932049">
        <ele>1123.4400000000001</ele>
        <time>2018-09-17T15:53:09Z</time>
      </trkpt>
      <trkpt lat="47.524258000776172" lon="10.441974978893995">
        <ele>1125.3599999999999</ele>
        <time>2018-09-17T15:53:10Z</time>
      </trkpt>
      <trkpt lat="47.524308962747455" lon="10.441771969199181">
        <ele>1126.8</ele>
        <time>2018-09-17T15:53:11Z</time>
      </trkpt>
      <trkpt lat="47.524339975789189" lon="10.441573988646269">
        <ele>1128.73</ele>
        <time>2018-09-17T15:53:12Z</time>
      </trkpt>
      <trkpt lat="47.524365037679672" lon="10.441365027800202">
        <ele>1130.6500000000001</ele>
        <time>2018-09-17T15:53:13Z</time>
      </trkpt>
      <trkpt lat="47.524351961910725" lon="10.441153971478343">
        <ele>1132.5699999999999</ele>
        <time>2018-09-17T15:53:14Z</time>
      </trkpt>
      <trkpt lat="47.524335030466318" lon="10.440942998975515">
        <ele>1134.49</ele>
        <time>2018-09-17T15:53:15Z</time>
      </trkpt>
      <trkpt lat="47.524314997717738" lon="10.440749963745475">
        <ele>1136.4200000000001</ele>
        <time>2018-09-17T15:53:16Z</time>
      </trkpt>
      <trkpt lat="47.524288007989526" lon="10.440567992627621">
        <ele>1137.8599999999999</ele>
        <time>2018-09-17T15:53:17Z</time>
      </trkpt>
      <trkpt lat="47.524212989956141" lon="10.439075008034706">
        <ele>1146.51</ele>
        <time>2018-09-17T15:53:25Z</time>
      </trkpt>
      <trkpt lat="47.524273004382849" lon="10.438862023875117">
        <ele>1147.47</ele>
        <time>2018-09-17T15:53:26Z</time>
      </trkpt>
      <trkpt lat="47.524701990187168" lon="10.437436010688543">
        <ele>1151.3199999999999</ele>
        <time>2018-09-17T15:53:31Z</time>
      </trkpt>
      <trkpt lat="47.525636991485953" lon="10.435197958722711">
        <ele>1160.9300000000001</ele>
        <time>2018-09-17T15:53:38Z</time>
      </trkpt>
      <trkpt lat="47.526236968114972" lon="10.434236973524094">
        <ele>1166.7</ele>
        <time>2018-09-17T15:53:42Z</time>
      </trkpt>
      <trkpt lat="47.526514995843172" lon="10.43390697799623">
        <ele>1169.5799999999999</ele>
        <time>2018-09-17T15:53:44Z</time>
      </trkpt>
      <trkpt lat="47.526631001383066" lon="10.433725006878376">
        <ele>1171.02</ele>
        <time>2018-09-17T15:53:45Z</time>
      </trkpt>
      <trkpt lat="47.526714988052845" lon="10.433517973870039">
        <ele>1171.98</ele>
        <time>2018-09-17T15:53:46Z</time>
      </trkpt>
      <trkpt lat="47.526771984994411" lon="10.43328101746738">
        <ele>1172.95</ele>
        <time>2018-09-17T15:53:47Z</time>
      </trkpt>
      <trkpt lat="47.526828981935978" lon="10.433043977245688">
        <ele>1173.4300000000001</ele>
        <time>2018-09-17T15:53:48Z</time>
      </trkpt>
      <trkpt lat="47.526815989986062" lon="10.432794028893113">
        <ele>1174.3900000000001</ele>
        <time>2018-09-17T15:53:49Z</time>
      </trkpt>
      <trkpt lat="47.526796041056514" lon="10.432541985064745">
        <ele>1174.8699999999999</ele>
        <time>2018-09-17T15:53:50Z</time>
      </trkpt>
      <trkpt lat="47.526736026629806" lon="10.432308968156576">
        <ele>1174.8699999999999</ele>
        <time>2018-09-17T15:53:51Z</time>
      </trkpt>
      <trkpt lat="47.526664026081562" lon="10.432078968733549">
        <ele>1175.3499999999999</ele>
        <time>2018-09-17T15:53:52Z</time>
      </trkpt>
      <trkpt lat="47.526547014713287" lon="10.431891968473792">
        <ele>1175.8299999999999</ele>
        <time>2018-09-17T15:53:53Z</time>
      </trkpt>
      <trkpt lat="47.526423968374729" lon="10.431715026497841">
        <ele>1175.8299999999999</ele>
        <time>2018-09-17T15:53:54Z</time>
      </trkpt>
      <trkpt lat="47.52627301029861" lon="10.431602038443089">
        <ele>1176.3099999999999</ele>
        <time>2018-09-17T15:53:55Z</time>
      </trkpt>
      <trkpt lat="47.526118028908968" lon="10.4315219912678">
        <ele>1176.3099999999999</ele>
        <time>2018-09-17T15:53:56Z</time>
      </trkpt>
      <trkpt lat="47.525948965921998" lon="10.431479997932911">
        <ele>1176.79</ele>
        <time>2018-09-17T15:53:57Z</time>
      </trkpt>
      <trkpt lat="47.525789039209485" lon="10.431470023468137">
        <ele>1176.79</ele>
        <time>2018-09-17T15:53:58Z</time>
      </trkpt>
      <trkpt lat="47.525619976222515" lon="10.431515034288168">
        <ele>1177.27</ele>
        <time>2018-09-17T15:53:59Z</time>
      </trkpt>
      <trkpt lat="47.525441022589803" lon="10.431562978774309">
        <ele>1177.75</ele>
        <time>2018-09-17T15:54:00Z</time>
      </trkpt>
      <trkpt lat="47.525253016501665" lon="10.431613018736243">
        <ele>1178.23</ele>
        <time>2018-09-17T15:54:01Z</time>
      </trkpt>
      <trkpt lat="47.523807976394892" lon="10.432108975946903">
        <ele>1176.79</ele>
        <time>2018-09-17T15:54:08Z</time>
      </trkpt>
      <trkpt lat="47.523605972528458" lon="10.432140994817019">
        <ele>1176.3099999999999</ele>
        <time>2018-09-17T15:54:09Z</time>
      </trkpt>
      <trkpt lat="47.523408997803926" lon="10.432140994817019">
        <ele>1175.8299999999999</ele>
        <time>2018-09-17T15:54:10Z</time>
      </trkpt>
      <trkpt lat="47.523216968402267" lon="10.43208098039031">
        <ele>1174.8699999999999</ele>
        <time>2018-09-17T15:54:11Z</time>
      </trkpt>
      <trkpt lat="47.523040026426315" lon="10.431978972628713">
        <ele>1173.9100000000001</ele>
        <time>2018-09-17T15:54:12Z</time>
      </trkpt>
      <trkpt lat="47.522870963439345" lon="10.431835977360606">
        <ele>1172.95</ele>
        <time>2018-09-17T15:54:13Z</time>
      </trkpt>
      <trkpt lat="47.522716987878084" lon="10.431655012071133">
        <ele>1171.5</ele>
        <time>2018-09-17T15:54:14Z</time>
      </trkpt>
      <trkpt lat="47.522568963468075" lon="10.431440016254783">
        <ele>1170.54</ele>
        <time>2018-09-17T15:54:15Z</time>
      </trkpt>
      <trkpt lat="47.522437032312155" lon="10.431191995739937">
        <ele>1169.5799999999999</ele>
        <time>2018-09-17T15:54:16Z</time>
      </trkpt>
      <trkpt lat="47.522297976538539" lon="10.430929977446795">
        <ele>1168.6199999999999</ele>
        <time>2018-09-17T15:54:17Z</time>
      </trkpt>
      <trkpt lat="47.521152002736926" lon="10.428183982148767">
        <ele>1158.53</ele>
        <time>2018-09-17T15:54:26Z</time>
      </trkpt>
      <trkpt lat="47.520827958360314" lon="10.426899958401918">
        <ele>1154.6800000000001</ele>
        <time>2018-09-17T15:54:30Z</time>
      </trkpt>
      <trkpt lat="47.520721005275846" lon="10.42660198174417">
        <ele>1153.72</ele>
        <time>2018-09-17T15:54:31Z</time>
      </trkpt>
      <trkpt lat="47.520599970594049" lon="10.426313979551196">
        <ele>1152.76</ele>
        <time>2018-09-17T15:54:32Z</time>
      </trkpt>
      <trkpt lat="47.520465021952987" lon="10.426039975136518">
        <ele>1151.3199999999999</ele>
        <time>2018-09-17T15:54:33Z</time>
      </trkpt>
      <trkpt lat="47.520310040563345" lon="10.425795977935195">
        <ele>1150.3499999999999</ele>
        <time>2018-09-17T15:54:34Z</time>
      </trkpt>
      <trkpt lat="47.520156987011433" lon="10.425554998219013">
        <ele>1149.3900000000001</ele>
        <time>2018-09-17T15:54:35Z</time>
      </trkpt>
      <trkpt lat="47.519260039553046" lon="10.423578964546323">
        <ele>1144.1099999999999</ele>
        <time>2018-09-17T15:54:42Z</time>
      </trkpt>
      <trkpt lat="47.518299976363778" lon="10.421580970287323">
        <ele>1142.1800000000001</ele>
        <time>2018-09-17T15:54:49Z</time>
      </trkpt>
      <trkpt lat="47.516875974833965" lon="10.419308971613646">
        <ele>1142.1800000000001</ele>
        <time>2018-09-17T15:54:58Z</time>
      </trkpt>
      <trkpt lat="47.516363002359867" lon="10.417850017547607">
        <ele>1144.1099999999999</ele>
        <time>2018-09-17T15:55:03Z</time>
      </trkpt>
      <trkpt lat="47.516308017075062" lon="10.417538965120912">
        <ele>1144.5899999999999</ele>
        <time>2018-09-17T15:55:04Z</time>
      </trkpt>
      <trkpt lat="47.515925969928503" lon="10.415338966995478">
        <ele>1147.47</ele>
        <time>2018-09-17T15:55:11Z</time>
      </trkpt>
      <trkpt lat="47.515279976651073" lon="10.413449015468359">
        <ele>1152.76</ele>
        <time>2018-09-17T15:55:18Z</time>
      </trkpt>
      <trkpt lat="47.515236977487803" lon="10.413177022710443">
        <ele>1153.24</ele>
        <time>2018-09-17T15:55:19Z</time>
      </trkpt>
      <trkpt lat="47.515195989981294" lon="10.41291399858892">
        <ele>1153.72</ele>
        <time>2018-09-17T15:55:20Z</time>
      </trkpt>
      <trkpt lat="47.515176041051745" lon="10.4126560036093">
        <ele>1154.2</ele>
        <time>2018-09-17T15:55:21Z</time>
      </trkpt>
      <trkpt lat="47.51516598276794" lon="10.412394991144538">
        <ele>1154.2</ele>
        <time>2018-09-17T15:55:22Z</time>
      </trkpt>
      <trkpt lat="47.515175035223365" lon="10.412126015871763">
        <ele>1154.6800000000001</ele>
        <time>2018-09-17T15:55:23Z</time>
      </trkpt>
      <trkpt lat="47.515201019123197" lon="10.411855028942227">
        <ele>1154.6800000000001</ele>
        <time>2018-09-17T15:55:24Z</time>
      </trkpt>
      <trkpt lat="47.515258016064763" lon="10.411579012870789">
        <ele>1154.6800000000001</ele>
        <time>2018-09-17T15:55:25Z</time>
      </trkpt>
      <trkpt lat="47.515331022441387" lon="10.411310959607363">
        <ele>1154.6800000000001</ele>
        <time>2018-09-17T15:55:26Z</time>
      </trkpt>
      <trkpt lat="47.515411991626024" lon="10.411054976284504">
        <ele>1154.2</ele>
        <time>2018-09-17T15:55:27Z</time>
      </trkpt>
      <trkpt lat="47.515511987730861" lon="10.410796981304884">
        <ele>1153.72</ele>
        <time>2018-09-17T15:55:28Z</time>
      </trkpt>
      <trkpt lat="47.515630004927516" lon="10.410562036558986">
        <ele>1153.24</ele>
        <time>2018-09-17T15:55:29Z</time>
      </trkpt>
      <trkpt lat="47.515766965225339" lon="10.410344023257494">
        <ele>1152.76</ele>
        <time>2018-09-17T15:55:30Z</time>
      </trkpt>
      <trkpt lat="47.515909960493445" lon="10.410129027441144">
        <ele>1152.28</ele>
        <time>2018-09-17T15:55:31Z</time>
      </trkpt>
      <trkpt lat="47.516861977055669" lon="10.408985987305641">
        <ele>1149.3900000000001</ele>
        <time>2018-09-17T15:55:38Z</time>
      </trkpt>
      <trkpt lat="47.517031040042639" lon="10.408752970397472">
        <ele>1149.8699999999999</ele>
        <time>2018-09-17T15:55:40Z</time>
      </trkpt>
      <trkpt lat="47.517095999792218" lon="10.408662026748061">
        <ele>1150.3499999999999</ele>
        <time>2018-09-17T15:55:41Z</time>
      </trkpt>
      <trkpt lat="47.517213011160493" lon="10.408611986786127">
        <ele>1150.3499999999999</ele>
        <time>2018-09-17T15:55:42Z</time>
      </trkpt>
      <trkpt lat="47.517306972295046" lon="10.408665966242552">
        <ele>1150.8399999999999</ele>
        <time>2018-09-17T15:55:43Z</time>
      </trkpt>
      <trkpt lat="47.517358018085361" lon="10.408633025363088">
        <ele>1151.3199999999999</ele>
        <time>2018-09-17T15:55:44Z</time>
      </trkpt>
      <trkpt lat="47.517439993098378" lon="10.408537974581122">
        <ele>1151.3199999999999</ele>
        <time>2018-09-17T15:55:45Z</time>
      </trkpt>
      <trkpt lat="47.517449967563152" lon="10.408443007618189">
        <ele>1151.8</ele>
        <time>2018-09-17T15:55:46Z</time>
      </trkpt>
      <trkpt lat="47.51744301058352" lon="10.408325996249914">
        <ele>1151.8</ele>
        <time>2018-09-17T15:55:47Z</time>
      </trkpt>
      <trkpt lat="47.517407974228263" lon="10.408233962953091">
        <ele>1151.8</ele>
        <time>2018-09-17T15:55:48Z</time>
      </trkpt>
      <trkpt lat="47.5173369795084" lon="10.408165985718369">
        <ele>1152.28</ele>
        <time>2018-09-17T15:55:49Z</time>
      </trkpt>
      <trkpt lat="47.517263973131776" lon="10.408130027353764">
        <ele>1152.28</ele>
        <time>2018-09-17T15:55:50Z</time>
      </trkpt>
      <trkpt lat="47.517141010612249" lon="10.408136984333396">
        <ele>1152.28</ele>
        <time>2018-09-17T15:55:51Z</time>
      </trkpt>
      <trkpt lat="47.517069010064006" lon="10.408029025420547">
        <ele>1152.28</ele>
        <time>2018-09-17T15:55:52Z</time>
      </trkpt>
      <trkpt lat="47.516985023394227" lon="10.407903967425227">
        <ele>1151.8</ele>
        <time>2018-09-17T15:55:53Z</time>
      </trkpt>
      <trkpt lat="47.516898019239306" lon="10.407753009349108">
        <ele>1150.8399999999999</ele>
        <time>2018-09-17T15:55:54Z</time>
      </trkpt>
      <trkpt lat="47.516169967129827" lon="10.406338982284069">
        <ele>1145.0699999999999</ele>
        <time>2018-09-17T15:56:01Z</time>
      </trkpt>
      <trkpt lat="47.515556998550892" lon="10.40492202155292">
        <ele>1137.8599999999999</ele>
        <time>2018-09-17T15:56:09Z</time>
      </trkpt>
      <trkpt lat="47.515279976651073" lon="10.404093973338604">
        <ele>1134.49</ele>
        <time>2018-09-17T15:56:14Z</time>
      </trkpt>
      <trkpt lat="47.51525198109448" lon="10.40391300804913">
        <ele>1133.53</ele>
        <time>2018-09-17T15:56:15Z</time>
      </trkpt>
      <trkpt lat="47.515052994713187" lon="10.402869964018464">
        <ele>1132.5699999999999</ele>
        <time>2018-09-17T15:56:21Z</time>
      </trkpt>
      <trkpt lat="47.514782007783651" lon="10.402036970481277">
        <ele>1131.6099999999999</ele>
        <time>2018-09-17T15:56:26Z</time>
      </trkpt>
      <trkpt lat="47.514588972553611" lon="10.401372034102678">
        <ele>1130.1700000000001</ele>
        <time>2018-09-17T15:56:30Z</time>
      </trkpt>
      <trkpt lat="47.514534993097186" lon="10.401213029399514">
        <ele>1129.6900000000001</ele>
        <time>2018-09-17T15:56:31Z</time>
      </trkpt>
      <trkpt lat="47.514017997309566" lon="10.399590963497758">
        <ele>1124.8800000000001</ele>
        <time>2018-09-17T15:56:40Z</time>
      </trkpt>
      <trkpt lat="47.513736030086875" lon="10.398558983579278">
        <ele>1121.52</ele>
        <time>2018-09-17T15:56:44Z</time>
      </trkpt>
      <trkpt lat="47.513703005388379" lon="10.398252960294485">
        <ele>1120.55</ele>
        <time>2018-09-17T15:56:45Z</time>
      </trkpt>
      <trkpt lat="47.513668974861503" lon="10.397936962544918">
        <ele>1119.5899999999999</ele>
        <time>2018-09-17T15:56:46Z</time>
      </trkpt>
      <trkpt lat="47.513523967936635" lon="10.396833987906575">
        <ele>1114.79</ele>
        <time>2018-09-17T15:56:50Z</time>
      </trkpt>
      <trkpt lat="47.513458002358675" lon="10.396631984040141">
        <ele>1113.8199999999999</ele>
        <time>2018-09-17T15:56:51Z</time>
      </trkpt>
      <trkpt lat="47.513234037905931" lon="10.396327972412109">
        <ele>1111.9000000000001</ele>
        <time>2018-09-17T15:56:53Z</time>
      </trkpt>
      <trkpt lat="47.512319991365075" lon="10.395030034705997">
        <ele>1104.6900000000001</ele>
        <time>2018-09-17T15:57:00Z</time>
      </trkpt>
      <trkpt lat="47.512216977775097" lon="10.39484596811235">
        <ele>1103.73</ele>
        <time>2018-09-17T15:57:01Z</time>
      </trkpt>
      <trkpt lat="47.512138020247221" lon="10.394639018923044">
        <ele>1102.29</ele>
        <time>2018-09-17T15:57:02Z</time>
      </trkpt>
      <trkpt lat="47.51209401525557" lon="10.394409019500017">
        <ele>1101.3299999999999</ele>
        <time>2018-09-17T15:57:03Z</time>
      </trkpt>
      <trkpt lat="47.512066019698977" lon="10.394159993156791">
        <ele>1100.3699999999999</ele>
        <time>2018-09-17T15:57:04Z</time>
      </trkpt>
      <trkpt lat="47.512053027749062" lon="10.393907027319074">
        <ele>1099.4000000000001</ele>
        <time>2018-09-17T15:57:05Z</time>
      </trkpt>
      <trkpt lat="47.512069037184119" lon="10.393652971833944">
        <ele>1097.96</ele>
        <time>2018-09-17T15:57:06Z</time>
      </trkpt>
      <trkpt lat="47.51209300942719" lon="10.393408974632621">
        <ele>1097</ele>
        <time>2018-09-17T15:57:07Z</time>
      </trkpt>
      <trkpt lat="47.512114970013499" lon="10.39293103851378">
        <ele>1094.1199999999999</ele>
        <time>2018-09-17T15:57:09Z</time>
      </trkpt>
      <trkpt lat="47.512084962800145" lon="10.392702966928482">
        <ele>1093.1600000000001</ele>
        <time>2018-09-17T15:57:10Z</time>
      </trkpt>
      <trkpt lat="47.512026960030198" lon="10.392493000254035">
        <ele>1091.71</ele>
        <time>2018-09-17T15:57:11Z</time>
      </trkpt>
      <trkpt lat="47.511949008330703" lon="10.392290996387601">
        <ele>1090.27</ele>
        <time>2018-09-17T15:57:12Z</time>
      </trkpt>
      <trkpt lat="47.51185898669064" lon="10.392096033319831">
        <ele>1089.3099999999999</ele>
        <time>2018-09-17T15:57:13Z</time>
      </trkpt>
      <trkpt lat="47.511736024171114" lon="10.391939962282777">
        <ele>1087.8699999999999</ele>
        <time>2018-09-17T15:57:14Z</time>
      </trkpt>
      <trkpt lat="47.511608032509685" lon="10.391787998378277">
        <ele>1086.9100000000001</ele>
        <time>2018-09-17T15:57:15Z</time>
      </trkpt>
      <trkpt lat="47.511488003656268" lon="10.391646008938551">
        <ele>1085.95</ele>
        <time>2018-09-17T15:57:16Z</time>
      </trkpt>
      <trkpt lat="47.511365963146091" lon="10.391539977863431">
        <ele>1084.5</ele>
        <time>2018-09-17T15:57:17Z</time>
      </trkpt>
      <trkpt lat="47.511236965656281" lon="10.391463031992316">
        <ele>1083.54</ele>
        <time>2018-09-17T15:57:18Z</time>
      </trkpt>
      <trkpt lat="47.511118026450276" lon="10.391350965946913">
        <ele>1082.0999999999999</ele>
        <time>2018-09-17T15:57:19Z</time>
      </trkpt>
      <trkpt lat="47.51101803034544" lon="10.391209982335567">
        <ele>1081.1400000000001</ele>
        <time>2018-09-17T15:57:20Z</time>
      </trkpt>
      <trkpt lat="47.510949969291687" lon="10.391060030087829">
        <ele>1080.1800000000001</ele>
        <time>2018-09-17T15:57:21Z</time>
      </trkpt>
      <trkpt lat="47.510876040905714" lon="10.390927009284496">
        <ele>1079.22</ele>
        <time>2018-09-17T15:57:22Z</time>
      </trkpt>
      <trkpt lat="47.510796999558806" lon="10.390857020393014">
        <ele>1078.26</ele>
        <time>2018-09-17T15:57:23Z</time>
      </trkpt>
      <trkpt lat="47.51071996986866" lon="10.390842016786337">
        <ele>1077.29</ele>
        <time>2018-09-17T15:57:24Z</time>
      </trkpt>
      <trkpt lat="47.510637994855642" lon="10.390869006514549">
        <ele>1076.3299999999999</ele>
        <time>2018-09-17T15:57:25Z</time>
      </trkpt>
      <trkpt lat="47.510574962943792" lon="10.390972020104527">
        <ele>1075.8499999999999</ele>
        <time>2018-09-17T15:57:26Z</time>
      </trkpt>
      <trkpt lat="47.510527018457651" lon="10.391091965138912">
        <ele>1074.8900000000001</ele>
        <time>2018-09-17T15:57:27Z</time>
      </trkpt>
      <trkpt lat="47.510550990700722" lon="10.39123697206378">
        <ele>1074.4100000000001</ele>
        <time>2018-09-17T15:57:28Z</time>
      </trkpt>
      <trkpt lat="47.510575968772173" lon="10.391389019787312">
        <ele>1073.45</ele>
        <time>2018-09-17T15:57:29Z</time>
      </trkpt>
      <trkpt lat="47.510620979592204" lon="10.39153897203505">
        <ele>1072.97</ele>
        <time>2018-09-17T15:57:30Z</time>
      </trkpt>
      <trkpt lat="47.51069700345397" lon="10.391691019758582">
        <ele>1072.01</ele>
        <time>2018-09-17T15:57:31Z</time>
      </trkpt>
      <trkpt lat="47.510779984295368" lon="10.391855975612998">
        <ele>1071.53</ele>
        <time>2018-09-17T15:57:32Z</time>
      </trkpt>
      <trkpt lat="47.510894984006882" lon="10.391997965052724">
        <ele>1071.05</ele>
        <time>2018-09-17T15:57:33Z</time>
      </trkpt>
      <trkpt lat="47.511227997019887" lon="10.392430974170566">
        <ele>1069.5999999999999</ele>
        <time>2018-09-17T15:57:36Z</time>
      </trkpt>
      <trkpt lat="47.511281976476312" lon="10.392595008015633">
        <ele>1069.1199999999999</ele>
        <time>2018-09-17T15:57:37Z</time>
      </trkpt>
      <trkpt lat="47.511293962597847" lon="10.392754012718797">
        <ele>1069.1199999999999</ele>
        <time>2018-09-17T15:57:38Z</time>
      </trkpt>
      <trkpt lat="47.51127602532506" lon="10.392873035743833">
        <ele>1068.6400000000001</ele>
        <time>2018-09-17T15:57:39Z</time>
      </trkpt>
      <trkpt lat="47.51121399924159" lon="10.392989963293076">
        <ele>1068.1600000000001</ele>
        <time>2018-09-17T15:57:40Z</time>
      </trkpt>
      <trkpt lat="47.511141998693347" lon="10.393123989924788">
        <ele>1067.6800000000001</ele>
        <time>2018-09-17T15:57:41Z</time>
      </trkpt>
      <trkpt lat="47.511057006195188" lon="10.393244018778205">
        <ele>1067.2</ele>
        <time>2018-09-17T15:57:42Z</time>
      </trkpt>
      <trkpt lat="47.510976959019899" lon="10.393345020711422">
        <ele>1066.72</ele>
        <time>2018-09-17T15:57:43Z</time>
      </trkpt>
      <trkpt lat="47.510915016755462" lon="10.393516011536121">
        <ele>1066.24</ele>
        <time>2018-09-17T15:57:44Z</time>
      </trkpt>
      <trkpt lat="47.510906970128417" lon="10.39364299736917">
        <ele>1065.76</ele>
        <time>2018-09-17T15:57:45Z</time>
      </trkpt>
      <trkpt lat="47.510938988998532" lon="10.393764032050967">
        <ele>1065.28</ele>
        <time>2018-09-17T15:57:46Z</time>
      </trkpt>
      <trkpt lat="47.510970002040267" lon="10.393886994570494">
        <ele>1064.8</ele>
        <time>2018-09-17T15:57:47Z</time>
      </trkpt>
      <trkpt lat="47.511002020910382" lon="10.394010040909052">
        <ele>1063.8399999999999</ele>
        <time>2018-09-17T15:57:48Z</time>
      </trkpt>
      <trkpt lat="47.511034039780498" lon="10.394131997600198">
        <ele>1062.8699999999999</ele>
        <time>2018-09-17T15:57:49Z</time>
      </trkpt>
      <trkpt lat="47.511059017851949" lon="10.394228976219893">
        <ele>1061.9100000000001</ele>
        <time>2018-09-17T15:57:50Z</time>
      </trkpt>
      <trkpt lat="47.511035967618227" lon="10.39428798481822">
        <ele>1060.95</ele>
        <time>2018-09-17T15:57:51Z</time>
      </trkpt>
      <trkpt lat="47.510976959019899" lon="10.394374988973141">
        <ele>1059.99</ele>
        <time>2018-09-17T15:57:52Z</time>
      </trkpt>
      <trkpt lat="47.510920967906713" lon="10.394386975094676">
        <ele>1059.03</ele>
        <time>2018-09-17T15:57:53Z</time>
      </trkpt>
      <trkpt lat="47.510819965973496" lon="10.394346993416548">
        <ele>1058.0699999999999</ele>
        <time>2018-09-17T15:57:54Z</time>
      </trkpt>
      <trkpt lat="47.510766992345452" lon="10.394229982048273">
        <ele>1056.6300000000001</ele>
        <time>2018-09-17T15:57:55Z</time>
      </trkpt>
      <trkpt lat="47.510738996788859" lon="10.39409201592207">
        <ele>1055.6700000000001</ele>
        <time>2018-09-17T15:57:56Z</time>
      </trkpt>
      <trkpt lat="47.510733967646956" lon="10.393936028704047">
        <ele>1054.7</ele>
        <time>2018-09-17T15:57:57Z</time>
      </trkpt>
      <trkpt lat="47.510727010667324" lon="10.393755985423923">
        <ele>1053.26</ele>
        <time>2018-09-17T15:57:58Z</time>
      </trkpt>
      <trkpt lat="47.51071996986866" lon="10.393538977950811">
        <ele>1052.3</ele>
        <time>2018-09-17T15:57:59Z</time>
      </trkpt>
      <trkpt lat="47.510752994567156" lon="10.393357006832957">
        <ele>1051.8199999999999</ele>
        <time>2018-09-17T15:58:00Z</time>
      </trkpt>
      <trkpt lat="47.51082600094378" lon="10.393187021836638">
        <ele>1051.3399999999999</ele>
        <time>2018-09-17T15:58:01Z</time>
      </trkpt>
      <trkpt lat="47.510903030633926" lon="10.393047966063023">
        <ele>1050.8599999999999</ele>
        <time>2018-09-17T15:58:02Z</time>
      </trkpt>
      <trkpt lat="47.510974025353789" lon="10.392917962744832">
        <ele>1050.3800000000001</ele>
        <time>2018-09-17T15:58:03Z</time>
      </trkpt>
      <trkpt lat="47.511006966233253" lon="10.392786031588912">
        <ele>1049.9000000000001</ele>
        <time>2018-09-17T15:58:04Z</time>
      </trkpt>
      <trkpt lat="47.511019958183169" lon="10.392658961936831">
        <ele>1049.4200000000001</ele>
        <time>2018-09-17T15:58:05Z</time>
      </trkpt>
      <trkpt lat="47.510967990383506" lon="10.392554020509124">
        <ele>1048.45</ele>
        <time>2018-09-17T15:58:06Z</time>
      </trkpt>
      <trkpt lat="47.510905964300036" lon="10.392472967505455">
        <ele>1047.97</ele>
        <time>2018-09-17T15:58:07Z</time>
      </trkpt>
      <trkpt lat="47.510806974023581" lon="10.392424017190933">
        <ele>1047.49</ele>
        <time>2018-09-17T15:58:08Z</time>
      </trkpt>
      <trkpt lat="47.51069700345397" lon="10.392368026077747">
        <ele>1047.01</ele>
        <time>2018-09-17T15:58:09Z</time>
      </trkpt>
      <trkpt lat="47.510573035106063" lon="10.392307005822659">
        <ele>1047.01</ele>
        <time>2018-09-17T15:58:10Z</time>
      </trkpt>
      <trkpt lat="47.510434985160828" lon="10.392237016931176">
        <ele>1046.53</ele>
        <time>2018-09-17T15:58:11Z</time>
      </trkpt>
      <trkpt lat="47.510309005156159" lon="10.392149006947875">
        <ele>1046.05</ele>
        <time>2018-09-17T15:58:12Z</time>
      </trkpt>
      <trkpt lat="47.510211020708084" lon="10.392001988366246">
        <ele>1045.0899999999999</ele>
        <time>2018-09-17T15:58:13Z</time>
      </trkpt>
      <trkpt lat="47.510107001289725" lon="10.391847006976604">
        <ele>1044.1300000000001</ele>
        <time>2018-09-17T15:58:14Z</time>
      </trkpt>
      <trkpt lat="47.510048998519778" lon="10.391659000888467">
        <ele>1043.1700000000001</ele>
        <time>2018-09-17T15:58:15Z</time>
      </trkpt>
      <trkpt lat="47.510008011013269" lon="10.391445010900497">
        <ele>1041.73</ele>
        <time>2018-09-17T15:58:16Z</time>
      </trkpt>
      <trkpt lat="47.509989989921451" lon="10.39123797789216">
        <ele>1040.76</ele>
        <time>2018-09-17T15:58:17Z</time>
      </trkpt>
      <trkpt lat="47.509989989921451" lon="10.391049971804023">
        <ele>1039.8</ele>
        <time>2018-09-17T15:58:18Z</time>
      </trkpt>
      <trkpt lat="47.510042963549495" lon="10.390837993472815">
        <ele>1038.8399999999999</ele>
        <time>2018-09-17T15:58:19Z</time>
      </trkpt>
      <trkpt lat="47.510102977976203" lon="10.390651999041438">
        <ele>1038.3599999999999</ele>
        <time>2018-09-17T15:58:20Z</time>
      </trkpt>
      <trkpt lat="47.510194005444646" lon="10.390471033751965">
        <ele>1037.4000000000001</ele>
        <time>2018-09-17T15:58:21Z</time>
      </trkpt>
      <trkpt lat="47.510297019034624" lon="10.390316974371672">
        <ele>1036.4400000000001</ele>
        <time>2018-09-17T15:58:22Z</time>
      </trkpt>
      <trkpt lat="47.510508997365832" lon="10.39003299549222">
        <ele>1034.04</ele>
        <time>2018-09-17T15:58:24Z</time>
      </trkpt>
      <trkpt lat="47.510602958500385" lon="10.389910032972693">
        <ele>1033.0699999999999</ele>
        <time>2018-09-17T15:58:25Z</time>
      </trkpt>
      <trkpt lat="47.510717958211899" lon="10.389844989404082">
        <ele>1031.6300000000001</ele>
        <time>2018-09-17T15:58:26Z</time>
      </trkpt>
      <trkpt lat="47.510847039520741" lon="10.389807019382715">
        <ele>1030.1900000000001</ele>
        <time>2018-09-17T15:58:27Z</time>
      </trkpt>
      <trkpt lat="47.510979976505041" lon="10.389768965542316">
        <ele>1028.75</ele>
        <time>2018-09-17T15:58:28Z</time>
      </trkpt>
      <trkpt lat="47.511119032278657" lon="10.389727978035808">
        <ele>1027.79</ele>
        <time>2018-09-17T15:58:29Z</time>
      </trkpt>
      <trkpt lat="47.511247023940086" lon="10.389614989981055">
        <ele>1026.8299999999999</ele>
        <time>2018-09-17T15:58:30Z</time>
      </trkpt>
      <trkpt lat="47.511374009773135" lon="10.389480041339993">
        <ele>1025.8599999999999</ele>
        <time>2018-09-17T15:58:31Z</time>
      </trkpt>
      <trkpt lat="47.511504013091326" lon="10.389332016929984">
        <ele>1025.3800000000001</ele>
        <time>2018-09-17T15:58:32Z</time>
      </trkpt>
      <trkpt lat="47.511607026681304" lon="10.389136970043182">
        <ele>1024.9000000000001</ele>
        <time>2018-09-17T15:58:33Z</time>
      </trkpt>
      <trkpt lat="47.511710040271282" lon="10.388935972005129">
        <ele>1023.9400000000001</ele>
        <time>2018-09-17T15:58:34Z</time>
      </trkpt>
      <trkpt lat="47.511773994192481" lon="10.388706978410482">
        <ele>1023.46</ele>
        <time>2018-09-17T15:58:35Z</time>
      </trkpt>
      <trkpt lat="47.511839037761092" lon="10.388475973159075">
        <ele>1022.5</ele>
        <time>2018-09-17T15:58:36Z</time>
      </trkpt>
      <trkpt lat="47.511863010004163" lon="10.388237005099654">
        <ele>1022.5</ele>
        <time>2018-09-17T15:58:37Z</time>
      </trkpt>
      <trkpt lat="47.511870972812176" lon="10.387994013726711">
        <ele>1022.02</ele>
        <time>2018-09-17T15:58:38Z</time>
      </trkpt>
      <trkpt lat="47.511880025267601" lon="10.38775697350502">
        <ele>1021.0599999999999</ele>
        <time>2018-09-17T15:58:39Z</time>
      </trkpt>
      <trkpt lat="47.511895028874278" lon="10.387318013235927">
        <ele>1019.13</ele>
        <time>2018-09-17T15:58:41Z</time>
      </trkpt>
      <trkpt lat="47.511910032480955" lon="10.387146016582847">
        <ele>1018.17</ele>
        <time>2018-09-17T15:58:42Z</time>
      </trkpt>
      <trkpt lat="47.511979015544057" lon="10.387023976072669">
        <ele>1017.21</ele>
        <time>2018-09-17T15:58:43Z</time>
      </trkpt>
      <trkpt lat="47.512070965021849" lon="10.386937977746129">
        <ele>1016.25</ele>
        <time>2018-09-17T15:58:44Z</time>
      </trkpt>
      <trkpt lat="47.512165009975433" lon="10.386849967762828">
        <ele>1015.29</ele>
        <time>2018-09-17T15:58:45Z</time>
      </trkpt>
      <trkpt lat="47.512251008301973" lon="10.386771010234952">
        <ele>1014.8099999999999</ele>
        <time>2018-09-17T15:58:46Z</time>
      </trkpt>
      <trkpt lat="47.512289984151721" lon="10.386657016351819">
        <ele>1013.85</ele>
        <time>2018-09-17T15:58:47Z</time>
      </trkpt>
      <trkpt lat="47.512297024950385" lon="10.386534975841641">
        <ele>1013.37</ele>
        <time>2018-09-17T15:58:48Z</time>
      </trkpt>
      <trkpt lat="47.512272968888283" lon="10.386413019150496">
        <ele>1013.37</ele>
        <time>2018-09-17T15:58:49Z</time>
      </trkpt>
      <trkpt lat="47.512219995260239" lon="10.38631796836853">
        <ele>1012.89</ele>
        <time>2018-09-17T15:58:50Z</time>
      </trkpt>
      <trkpt lat="47.512141037732363" lon="10.386243034154177">
        <ele>1012.41</ele>
        <time>2018-09-17T15:58:51Z</time>
      </trkpt>
      <trkpt lat="47.512038024142385" lon="10.386253008618951">
        <ele>1012.41</ele>
        <time>2018-09-17T15:58:52Z</time>
      </trkpt>
      <trkpt lat="47.511941967532039" lon="10.386332971975207">
        <ele>1011.9299999999999</ele>
        <time>2018-09-17T15:58:53Z</time>
      </trkpt>
      <trkpt lat="47.511852029711008" lon="10.386450989171863">
        <ele>1011.4400000000001</ele>
        <time>2018-09-17T15:58:54Z</time>
      </trkpt>
      <trkpt lat="47.511764019727707" lon="10.386578980833292">
        <ele>1010.48</ele>
        <time>2018-09-17T15:58:55Z</time>
      </trkpt>
      <trkpt lat="47.511684978380799" lon="10.386693980544806">
        <ele>1010</ele>
        <time>2018-09-17T15:58:56Z</time>
      </trkpt>
      <trkpt lat="47.51166301779449" lon="10.386847034096718">
        <ele>1009.04</ele>
        <time>2018-09-17T15:58:57Z</time>
      </trkpt>
      <trkpt lat="47.511638961732388" lon="10.387012995779514">
        <ele>1008.5599999999999</ele>
        <time>2018-09-17T15:58:58Z</time>
      </trkpt>
      <trkpt lat="47.511611972004175" lon="10.387193961068988">
        <ele>1007.6</ele>
        <time>2018-09-17T15:58:59Z</time>
      </trkpt>
      <trkpt lat="47.511542988941073" lon="10.387671981006861">
        <ele>1004.72</ele>
        <time>2018-09-17T15:59:02Z</time>
      </trkpt>
      <trkpt lat="47.511500995606184" lon="10.387767031788826">
        <ele>1004.23</ele>
        <time>2018-09-17T15:59:03Z</time>
      </trkpt>
      <trkpt lat="47.511422038078308" lon="10.387830985710025">
        <ele>1003.27</ele>
        <time>2018-09-17T15:59:04Z</time>
      </trkpt>
      <trkpt lat="47.511338973417878" lon="10.387830985710025">
        <ele>1002.79</ele>
        <time>2018-09-17T15:59:05Z</time>
      </trkpt>
      <trkpt lat="47.51123302616179" lon="10.387768959626555">
        <ele>1001.83</ele>
        <time>2018-09-17T15:59:06Z</time>
      </trkpt>
      <trkpt lat="47.511165970936418" lon="10.387639040127397">
        <ele>1001.35</ele>
        <time>2018-09-17T15:59:07Z</time>
      </trkpt>
      <trkpt lat="47.511152978986502" lon="10.387522028759122">
        <ele>1000.39</ele>
        <time>2018-09-17T15:59:08Z</time>
      </trkpt>
      <trkpt lat="47.51119002699852" lon="10.387372998520732">
        <ele>998.95000000000005</ele>
        <time>2018-09-17T15:59:09Z</time>
      </trkpt>
      <trkpt lat="47.511236965656281" lon="10.387241989374161">
        <ele>998.47000000000003</ele>
        <time>2018-09-17T15:59:10Z</time>
      </trkpt>
      <trkpt lat="47.511293962597847" lon="10.387086002156138">
        <ele>997.50999999999999</ele>
        <time>2018-09-17T15:59:11Z</time>
      </trkpt>
      <trkpt lat="47.511344002559781" lon="10.3869170229882">
        <ele>996.53999999999996</ele>
        <time>2018-09-17T15:59:12Z</time>
      </trkpt>
      <trkpt lat="47.511352971196175" lon="10.386706972494721">
        <ele>996.05999999999995</ele>
        <time>2018-09-17T15:59:13Z</time>
      </trkpt>
      <trkpt lat="47.5113620236516" lon="10.386505974456668">
        <ele>995.10000000000002</ele>
        <time>2018-09-17T15:59:14Z</time>
      </trkpt>
      <trkpt lat="47.511418014764786" lon="10.38631402887404">
        <ele>994.13999999999999</ele>
        <time>2018-09-17T15:59:15Z</time>
      </trkpt>
      <trkpt lat="47.511503007262945" lon="10.386161981150508">
        <ele>993.65999999999997</ele>
        <time>2018-09-17T15:59:16Z</time>
      </trkpt>
      <trkpt lat="47.511604009196162" lon="10.386051004752517">
        <ele>992.70000000000005</ele>
        <time>2018-09-17T15:59:17Z</time>
      </trkpt>
      <trkpt lat="47.511704005300999" lon="10.385942040011287">
        <ele>991.74000000000001</ele>
        <time>2018-09-17T15:59:18Z</time>
      </trkpt>
      <trkpt lat="47.511796960607171" lon="10.385839026421309">
        <ele>990.77999999999997</ele>
        <time>2018-09-17T15:59:19Z</time>
      </trkpt>
      <trkpt lat="47.51187901943922" lon="10.385749004781246">
        <ele>990.29999999999995</ele>
        <time>2018-09-17T15:59:20Z</time>
      </trkpt>
      <trkpt lat="47.511910032480955" lon="10.38560701534152">
        <ele>990.29999999999995</ele>
        <time>2018-09-17T15:59:21Z</time>
      </trkpt>
      <trkpt lat="47.511926963925362" lon="10.385438958182931">
        <ele>989.80999999999995</ele>
        <time>2018-09-17T15:59:22Z</time>
      </trkpt>
      <trkpt lat="47.511934004724026" lon="10.385255981236696">
        <ele>989.33000000000004</ele>
        <time>2018-09-17T15:59:23Z</time>
      </trkpt>
      <trkpt lat="47.511942973360419" lon="10.385063029825687">
        <ele>988.85000000000002</ele>
        <time>2018-09-17T15:59:24Z</time>
      </trkpt>
      <trkpt lat="47.511969041079283" lon="10.384880974888802">
        <ele>987.88999999999999</ele>
        <time>2018-09-17T15:59:25Z</time>
      </trkpt>
      <trkpt lat="47.512003993615508" lon="10.38470696657896">
        <ele>987.40999999999997</ele>
        <time>2018-09-17T15:59:26Z</time>
      </trkpt>
      <trkpt lat="47.51205001026392" lon="10.384569000452757">
        <ele>986.92999999999995</ele>
        <time>2018-09-17T15:59:27Z</time>
      </trkpt>
      <trkpt lat="47.512132991105318" lon="10.38449096493423">
        <ele>986.45000000000005</ele>
        <time>2018-09-17T15:59:28Z</time>
      </trkpt>
      <trkpt lat="47.512214966118336" lon="10.384414019063115">
        <ele>985.97000000000003</ele>
        <time>2018-09-17T15:59:29Z</time>
      </trkpt>
      <trkpt lat="47.512302976101637" lon="10.384329026564956">
        <ele>985.00999999999999</ele>
        <time>2018-09-17T15:59:30Z</time>
      </trkpt>
      <trkpt lat="47.512378999963403" lon="10.384257026016712">
        <ele>984.52999999999997</ele>
        <time>2018-09-17T15:59:31Z</time>
      </trkpt>
      <trkpt lat="47.512463992461562" lon="10.384134985506535">
        <ele>983.57000000000005</ele>
        <time>2018-09-17T15:59:32Z</time>
      </trkpt>
      <trkpt lat="47.512463992461562" lon="10.383958965539932">
        <ele>983.09000000000003</ele>
        <time>2018-09-17T15:59:33Z</time>
      </trkpt>
      <trkpt lat="47.512429961934686" lon="10.38384597748518">
        <ele>982.60000000000002</ele>
        <time>2018-09-17T15:59:34Z</time>
      </trkpt>
      <trkpt lat="47.51233097165823" lon="10.38375997915864">
        <ele>982.60000000000002</ele>
        <time>2018-09-17T15:59:35Z</time>
      </trkpt>
      <trkpt lat="47.512246984988451" lon="10.383722009137273">
        <ele>982.12</ele>
        <time>2018-09-17T15:59:36Z</time>
      </trkpt>
      <trkpt lat="47.512165009975433" lon="10.383768025785685">
        <ele>982.12</ele>
        <time>2018-09-17T15:59:37Z</time>
      </trkpt>
      <trkpt lat="47.512092003598809" lon="10.383841032162309">
        <ele>981.63999999999999</ele>
        <time>2018-09-17T15:59:38Z</time>
      </trkpt>
      <trkpt lat="47.512035006657243" lon="10.383940022438765">
        <ele>982.12</ele>
        <time>2018-09-17T15:59:39Z</time>
      </trkpt>
      <trkpt lat="47.511973986402154" lon="10.384069019928575">
        <ele>981.63999999999999</ele>
        <time>2018-09-17T15:59:40Z</time>
      </trkpt>
      <trkpt lat="47.511905003339052" lon="10.384215032681823">
        <ele>981.15999999999997</ele>
        <time>2018-09-17T15:59:41Z</time>
      </trkpt>
      <trkpt lat="47.51183501444757" lon="10.384363979101181">
        <ele>981.15999999999997</ele>
        <time>2018-09-17T15:59:42Z</time>
      </trkpt>
      <trkpt lat="47.511764019727707" lon="10.384515020996332">
        <ele>980.67999999999995</ele>
        <time>2018-09-17T15:59:43Z</time>
      </trkpt>
      <trkpt lat="47.511713979765773" lon="10.38466296158731">
        <ele>980.20000000000005</ele>
        <time>2018-09-17T15:59:44Z</time>
      </trkpt>
      <trkpt lat="47.511680033057928" lon="10.38483202457428">
        <ele>979.72000000000003</ele>
        <time>2018-09-17T15:59:45Z</time>
      </trkpt>
      <trkpt lat="47.511646002531052" lon="10.385001003742218">
        <ele>979.24000000000001</ele>
        <time>2018-09-17T15:59:46Z</time>
      </trkpt>
      <trkpt lat="47.5116210244596" lon="10.385126983746886">
        <ele>978.75999999999999</ele>
        <time>2018-09-17T15:59:47Z</time>
      </trkpt>
      <trkpt lat="47.511554975062609" lon="10.38528598845005">
        <ele>978.27999999999997</ele>
        <time>2018-09-17T15:59:48Z</time>
      </trkpt>
      <trkpt lat="47.511482974514365" lon="10.385401993989944">
        <ele>977.79999999999995</ele>
        <time>2018-09-17T15:59:49Z</time>
      </trkpt>
      <trkpt lat="47.511365041136742" lon="10.385466031730175">
        <ele>977.79999999999995</ele>
        <time>2018-09-17T15:59:50Z</time>
      </trkpt>
      <trkpt lat="47.511238977313042" lon="10.385535014793277">
        <ele>977.79999999999995</ele>
        <time>2018-09-17T15:59:51Z</time>
      </trkpt>
      <trkpt lat="47.510994980111718" lon="10.385688990354538">
        <ele>976.84000000000003</ele>
        <time>2018-09-17T15:59:53Z</time>
      </trkpt>
      <trkpt lat="47.51089196652174" lon="10.385792003944516">
        <ele>976.36000000000001</ele>
        <time>2018-09-17T15:59:54Z</time>
      </trkpt>
      <trkpt lat="47.510822983458638" lon="10.385938016697764">
        <ele>975.88</ele>
        <time>2018-09-17T15:59:55Z</time>
      </trkpt>
      <trkpt lat="47.510745031759143" lon="10.3861019667238">
        <ele>974.90999999999997</ele>
        <time>2018-09-17T15:59:56Z</time>
      </trkpt>
      <trkpt lat="47.510663978755474" lon="10.38627203553915">
        <ele>973.95000000000005</ele>
        <time>2018-09-17T15:59:57Z</time>
      </trkpt>
      <trkpt lat="47.51058803871274" lon="10.386432968080044">
        <ele>972.99000000000001</ele>
        <time>2018-09-17T15:59:58Z</time>
      </trkpt>
      <trkpt lat="47.51050497405231" lon="10.386607982218266">
        <ele>972.50999999999999</ele>
        <time>2018-09-17T15:59:59Z</time>
      </trkpt>
      <trkpt lat="47.510483013466001" lon="10.386770004406571">
        <ele>972.02999999999997</ele>
        <time>2018-09-17T16:00:00Z</time>
      </trkpt>
      <trkpt lat="47.510401038452983" lon="10.387375010177493">
        <ele>969.63</ele>
        <time>2018-09-17T16:00:03Z</time>
      </trkpt>
      <trkpt lat="47.510376982390881" lon="10.387552035972476">
        <ele>968.66999999999996</ele>
        <time>2018-09-17T16:00:04Z</time>
      </trkpt>
      <trkpt lat="47.510283021256328" lon="10.387668963521719">
        <ele>968.17999999999995</ele>
        <time>2018-09-17T16:00:05Z</time>
      </trkpt>
      <trkpt lat="47.510196017101407" lon="10.3877770062536">
        <ele>967.22000000000003</ele>
        <time>2018-09-17T16:00:06Z</time>
      </trkpt>
      <trkpt lat="47.510118987411261" lon="10.387873984873295">
        <ele>966.74000000000001</ele>
        <time>2018-09-17T16:00:07Z</time>
      </trkpt>
      <trkpt lat="47.510057967156172" lon="10.38803399540484">
        <ele>965.77999999999997</ele>
        <time>2018-09-17T16:00:08Z</time>
      </trkpt>
      <trkpt lat="47.510000970214605" lon="10.38818403147161">
        <ele>964.82000000000005</ele>
        <time>2018-09-17T16:00:09Z</time>
      </trkpt>
      <trkpt lat="47.509949002414942" lon="10.388320991769433">
        <ele>963.86000000000001</ele>
        <time>2018-09-17T16:00:10Z</time>
      </trkpt>
      <trkpt lat="47.509863004088402" lon="10.388391986489296">
        <ele>962.89999999999998</ele>
        <time>2018-09-17T16:00:11Z</time>
      </trkpt>
      <trkpt lat="47.509775999933481" lon="10.388400033116341">
        <ele>961.94000000000005</ele>
        <time>2018-09-17T16:00:12Z</time>
      </trkpt>
      <trkpt lat="47.50968798995018" lon="10.388364996761084">
        <ele>961.46000000000004</ele>
        <time>2018-09-17T16:00:13Z</time>
      </trkpt>
      <trkpt lat="47.509620012715459" lon="10.38827002979815">
        <ele>960.49000000000001</ele>
        <time>2018-09-17T16:00:14Z</time>
      </trkpt>
      <trkpt lat="47.509600985795259" lon="10.388155030086637">
        <ele>960.00999999999999</ele>
        <time>2018-09-17T16:00:15Z</time>
      </trkpt>
      <trkpt lat="47.509606014937162" lon="10.387998037040234">
        <ele>959.04999999999995</ele>
        <time>2018-09-17T16:00:16Z</time>
      </trkpt>
      <trkpt lat="47.509662006050348" lon="10.38788597099483">
        <ele>958.09000000000003</ele>
        <time>2018-09-17T16:00:17Z</time>
      </trkpt>
      <trkpt lat="47.509744986891747" lon="10.387774994596839">
        <ele>957.13</ele>
        <time>2018-09-17T16:00:18Z</time>
      </trkpt>
      <trkpt lat="47.509838026016951" lon="10.387682039290667">
        <ele>956.16999999999996</ele>
        <time>2018-09-17T16:00:19Z</time>
      </trkpt>
      <trkpt lat="47.509930981323123" lon="10.387590005993843">
        <ele>955.21000000000004</ele>
        <time>2018-09-17T16:00:20Z</time>
      </trkpt>
      <trkpt lat="47.509987978264689" lon="10.387467965483665">
        <ele>953.76999999999998</ele>
        <time>2018-09-17T16:00:21Z</time>
      </trkpt>
      <trkpt lat="47.510018991306424" lon="10.387324970215559">
        <ele>952.79999999999995</ele>
        <time>2018-09-17T16:00:22Z</time>
      </trkpt>
      <trkpt lat="47.510055033490062" lon="10.387165965512395">
        <ele>951.36000000000001</ele>
        <time>2018-09-17T16:00:23Z</time>
      </trkpt>
      <trkpt lat="47.510027037933469" lon="10.3870689868927">
        <ele>950.88</ele>
        <time>2018-09-17T16:00:24Z</time>
      </trkpt>
      <trkpt lat="47.509969035163522" lon="10.386864971369505">
        <ele>949.91999999999996</ele>
        <time>2018-09-17T16:00:25Z</time>
      </trkpt>
      <trkpt lat="47.509912960231304" lon="10.386763969436288">
        <ele>948.96000000000004</ele>
        <time>2018-09-17T16:00:26Z</time>
      </trkpt>
      <trkpt lat="47.50983702018857" lon="10.386628014966846">
        <ele>948</ele>
        <time>2018-09-17T16:00:27Z</time>
      </trkpt>
      <trkpt lat="47.509754039347172" lon="10.386478984728456">
        <ele>947.03999999999996</ele>
        <time>2018-09-17T16:00:28Z</time>
      </trkpt>
      <trkpt lat="47.509731994941831" lon="10.386335989460349">
        <ele>945.59000000000003</ele>
        <time>2018-09-17T16:00:29Z</time>
      </trkpt>
      <trkpt lat="47.509728977456689" lon="10.38614496588707">
        <ele>944.14999999999998</ele>
        <time>2018-09-17T16:00:30Z</time>
      </trkpt>
      <trkpt lat="47.509782034903765" lon="10.385974980890751">
        <ele>943.19000000000005</ele>
        <time>2018-09-17T16:00:31Z</time>
      </trkpt>
      <trkpt lat="47.509842971339822" lon="10.385782029479742">
        <ele>941.75</ele>
        <time>2018-09-17T16:00:32Z</time>
      </trkpt>
      <trkpt lat="47.509909020736814" lon="10.385573990643024">
        <ele>939.83000000000004</ele>
        <time>2018-09-17T16:00:33Z</time>
      </trkpt>
      <trkpt lat="47.509976997971535" lon="10.385355977341533">
        <ele>938.86000000000001</ele>
        <time>2018-09-17T16:00:34Z</time>
      </trkpt>
      <trkpt lat="47.510048998519778" lon="10.385127989575267">
        <ele>937.89999999999998</ele>
        <time>2018-09-17T16:00:35Z</time>
      </trkpt>
      <trkpt lat="47.510109012946486" lon="10.384878041222692">
        <ele>937.41999999999996</ele>
        <time>2018-09-17T16:00:36Z</time>
      </trkpt>
      <trkpt lat="47.510254019871354" lon="10.384171027690172">
        <ele>935.5</ele>
        <time>2018-09-17T16:00:39Z</time>
      </trkpt>
      <trkpt lat="47.510290984064341" lon="10.383989978581667">
        <ele>935.01999999999998</ele>
        <time>2018-09-17T16:00:40Z</time>
      </trkpt>
      <trkpt lat="47.510372037068009" lon="10.383854024112225">
        <ele>934.05999999999995</ele>
        <time>2018-09-17T16:00:41Z</time>
      </trkpt>
      <trkpt lat="47.510503968223929" lon="10.383633999153972">
        <ele>932.13999999999999</ele>
        <time>2018-09-17T16:00:43Z</time>
      </trkpt>
      <trkpt lat="47.510544033721089" lon="10.383495027199388">
        <ele>931.64999999999998</ele>
        <time>2018-09-17T16:00:44Z</time>
      </trkpt>
      <trkpt lat="47.510534981265664" lon="10.383348008617759">
        <ele>930.69000000000005</ele>
        <time>2018-09-17T16:00:45Z</time>
      </trkpt>
      <trkpt lat="47.510500028729439" lon="10.383177017793059">
        <ele>930.69000000000005</ele>
        <time>2018-09-17T16:00:46Z</time>
      </trkpt>
      <trkpt lat="47.510409001260996" lon="10.383074004203081">
        <ele>930.21000000000004</ele>
        <time>2018-09-17T16:00:47Z</time>
      </trkpt>
      <trkpt lat="47.510307999327779" lon="10.383029999211431">
        <ele>929.73000000000002</ele>
        <time>2018-09-17T16:00:48Z</time>
      </trkpt>
      <trkpt lat="47.510196017101407" lon="10.383020024746656">
        <ele>929.73000000000002</ele>
        <time>2018-09-17T16:00:49Z</time>
      </trkpt>
      <trkpt lat="47.510086968541145" lon="10.383055983111262">
        <ele>929.25</ele>
        <time>2018-09-17T16:00:50Z</time>
      </trkpt>
      <trkpt lat="47.509992001578212" lon="10.383161008358002">
        <ele>929.25</ele>
        <time>2018-09-17T16:00:51Z</time>
      </trkpt>
      <trkpt lat="47.509937016293406" lon="10.383297968655825">
        <ele>928.76999999999998</ele>
        <time>2018-09-17T16:00:52Z</time>
      </trkpt>
      <trkpt lat="47.509893011301756" lon="10.383441969752312">
        <ele>928.76999999999998</ele>
        <time>2018-09-17T16:00:53Z</time>
      </trkpt>
      <trkpt lat="47.509898040443659" lon="10.383590999990702">
        <ele>928.28999999999996</ele>
        <time>2018-09-17T16:00:54Z</time>
      </trkpt>
      <trkpt lat="47.509920001029968" lon="10.383767019957304">
        <ele>928.28999999999996</ele>
        <time>2018-09-17T16:00:55Z</time>
      </trkpt>
      <trkpt lat="47.509941039606929" lon="10.383937004953623">
        <ele>927.80999999999995</ele>
        <time>2018-09-17T16:00:56Z</time>
      </trkpt>
      <trkpt lat="47.509922012686729" lon="10.384102966636419">
        <ele>927.80999999999995</ele>
        <time>2018-09-17T16:00:57Z</time>
      </trkpt>
      <trkpt lat="47.50985998660326" lon="10.384247973561287">
        <ele>927.33000000000004</ele>
        <time>2018-09-17T16:00:58Z</time>
      </trkpt>
      <trkpt lat="47.509771976619959" lon="10.384376971051097">
        <ele>926.85000000000002</ele>
        <time>2018-09-17T16:00:59Z</time>
      </trkpt>
      <trkpt lat="47.509677009657025" lon="10.384517032653093">
        <ele>926.85000000000002</ele>
        <time>2018-09-17T16:01:00Z</time>
      </trkpt>
      <trkpt lat="47.509573996067047" lon="10.384666984900832">
        <ele>925.88999999999999</ele>
        <time>2018-09-17T16:01:01Z</time>
      </trkpt>
      <trkpt lat="47.509471988305449" lon="10.384816015139222">
        <ele>924.92999999999995</ele>
        <time>2018-09-17T16:01:02Z</time>
      </trkpt>
      <trkpt lat="47.509282976388931" lon="10.385124972090125">
        <ele>922.51999999999998</ele>
        <time>2018-09-17T16:01:04Z</time>
      </trkpt>
      <trkpt lat="47.509223967790604" lon="10.385300992056727">
        <ele>921.08000000000004</ele>
        <time>2018-09-17T16:01:05Z</time>
      </trkpt>
      <trkpt lat="47.509164037182927" lon="10.385482963174582">
        <ele>919.15999999999997</ele>
        <time>2018-09-17T16:01:06Z</time>
      </trkpt>
      <trkpt lat="47.509110979735851" lon="10.385641967877746">
        <ele>918.20000000000005</ele>
        <time>2018-09-17T16:01:07Z</time>
      </trkpt>
      <trkpt lat="47.509035961702466" lon="10.385835003107786">
        <ele>916.75</ele>
        <time>2018-09-17T16:01:08Z</time>
      </trkpt>
      <trkpt lat="47.508954992517829" lon="10.385969029739499">
        <ele>915.30999999999995</ele>
        <time>2018-09-17T16:01:09Z</time>
      </trkpt>
      <trkpt lat="47.508852984756231" lon="10.386071037501097">
        <ele>914.35000000000002</ele>
        <time>2018-09-17T16:01:10Z</time>
      </trkpt>
      <trkpt lat="47.50874200835824" lon="10.386089980602264">
        <ele>913.38999999999999</ele>
        <time>2018-09-17T16:01:11Z</time>
      </trkpt>
      <trkpt lat="47.508628014475107" lon="10.386109007522464">
        <ele>913.38999999999999</ele>
        <time>2018-09-17T16:01:12Z</time>
      </trkpt>
      <trkpt lat="47.508521983399987" lon="10.386126022785902">
        <ele>912.90999999999997</ele>
        <time>2018-09-17T16:01:13Z</time>
      </trkpt>
      <trkpt lat="47.508423998951912" lon="10.386178996413946">
        <ele>912.90999999999997</ele>
        <time>2018-09-17T16:01:14Z</time>
      </trkpt>
      <trkpt lat="47.508345963433385" lon="10.386299025267363">
        <ele>913.38999999999999</ele>
        <time>2018-09-17T16:01:15Z</time>
      </trkpt>
      <trkpt lat="47.508295001462102" lon="10.386500023305416">
        <ele>913.87</ele>
        <time>2018-09-17T16:01:16Z</time>
      </trkpt>
      <trkpt lat="47.508295001462102" lon="10.386603036895394">
        <ele>914.35000000000002</ele>
        <time>2018-09-17T16:01:17Z</time>
      </trkpt>
      <trkpt lat="47.508295001462102" lon="10.386760029941797">
        <ele>914.83000000000004</ele>
        <time>2018-09-17T16:01:18Z</time>
      </trkpt>
      <trkpt lat="47.508295001462102" lon="10.386900007724762">
        <ele>914.83000000000004</ele>
        <time>2018-09-17T16:01:19Z</time>
      </trkpt>
      <trkpt lat="47.508244039490819" lon="10.38700201548636">
        <ele>915.30999999999995</ele>
        <time>2018-09-17T16:01:20Z</time>
      </trkpt>
      <trkpt lat="47.508158963173628" lon="10.3870880138129">
        <ele>915.78999999999996</ele>
        <time>2018-09-17T16:01:21Z</time>
      </trkpt>
      <trkpt lat="47.508066007867455" lon="10.387179963290691">
        <ele>916.26999999999998</ele>
        <time>2018-09-17T16:01:22Z</time>
      </trkpt>
      <trkpt lat="47.507977997884154" lon="10.387293035164475">
        <ele>916.26999999999998</ele>
        <time>2018-09-17T16:01:23Z</time>
      </trkpt>
      <trkpt lat="47.507914965972304" lon="10.387450028210878">
        <ele>916.26999999999998</ele>
        <time>2018-09-17T16:01:24Z</time>
      </trkpt>
      <trkpt lat="47.507844977080822" lon="10.387624958530068">
        <ele>916.26999999999998</ele>
        <time>2018-09-17T16:01:25Z</time>
      </trkpt>
      <trkpt lat="47.507770964875817" lon="10.387811036780477">
        <ele>916.26999999999998</ele>
        <time>2018-09-17T16:01:26Z</time>
      </trkpt>
      <trkpt lat="47.507625035941601" lon="10.388175984844565">
        <ele>915.78999999999996</ele>
        <time>2018-09-17T16:01:28Z</time>
      </trkpt>
      <trkpt lat="47.507526967674494" lon="10.388309005647898">
        <ele>915.30999999999995</ele>
        <time>2018-09-17T16:01:29Z</time>
      </trkpt>
      <trkpt lat="47.507421020418406" lon="10.388410007581115">
        <ele>914.35000000000002</ele>
        <time>2018-09-17T16:01:30Z</time>
      </trkpt>
      <trkpt lat="47.507317001000047" lon="10.388410007581115">
        <ele>913.87</ele>
        <time>2018-09-17T16:01:31Z</time>
      </trkpt>
      <trkpt lat="47.507222034037113" lon="10.388410007581115">
        <ele>913.38999999999999</ele>
        <time>2018-09-17T16:01:32Z</time>
      </trkpt>
      <trkpt lat="47.50711097382009" lon="10.388341024518013">
        <ele>912.90999999999997</ele>
        <time>2018-09-17T16:01:33Z</time>
      </trkpt>
      <trkpt lat="47.507016006857157" lon="10.388251002877951">
        <ele>912.90999999999997</ele>
        <time>2018-09-17T16:01:34Z</time>
      </trkpt>
      <trkpt lat="47.50695800408721" lon="10.388113958761096">
        <ele>912.42999999999995</ele>
        <time>2018-09-17T16:01:35Z</time>
      </trkpt>
      <trkpt lat="47.506939982995391" lon="10.387961994856596">
        <ele>912.42999999999995</ele>
        <time>2018-09-17T16:01:36Z</time>
      </trkpt>
      <trkpt lat="47.506921961903572" lon="10.387811036780477">
        <ele>911.95000000000005</ele>
        <time>2018-09-17T16:01:37Z</time>
      </trkpt>
      <trkpt lat="47.506854990497231" lon="10.387701988220215">
        <ele>911.47000000000003</ele>
        <time>2018-09-17T16:01:38Z</time>
      </trkpt>
      <trkpt lat="47.506815008819103" lon="10.387638034299016">
        <ele>910.99000000000001</ele>
        <time>2018-09-17T16:01:39Z</time>
      </trkpt>
      <trkpt lat="47.506721969693899" lon="10.387611966580153">
        <ele>910.50999999999999</ele>
        <time>2018-09-17T16:01:40Z</time>
      </trkpt>
      <trkpt lat="47.506629014387727" lon="10.38758497685194">
        <ele>909.53999999999996</ele>
        <time>2018-09-17T16:01:41Z</time>
      </trkpt>
      <trkpt lat="47.506437990814447" lon="10.387606015428901">
        <ele>907.62</ele>
        <time>2018-09-17T16:01:43Z</time>
      </trkpt>
      <trkpt lat="47.506368001922965" lon="10.387655971571803">
        <ele>906.65999999999997</ele>
        <time>2018-09-17T16:01:44Z</time>
      </trkpt>
      <trkpt lat="47.506358027458191" lon="10.38773400709033">
        <ele>905.70000000000005</ele>
        <time>2018-09-17T16:01:45Z</time>
      </trkpt>
      <trkpt lat="47.506347969174385" lon="10.387850012630224">
        <ele>904.74000000000001</ele>
        <time>2018-09-17T16:01:46Z</time>
      </trkpt>
      <trkpt lat="47.506360039114952" lon="10.387956965714693">
        <ele>904.25999999999999</ele>
        <time>2018-09-17T16:01:47Z</time>
      </trkpt>
      <trkpt lat="47.506419969722629" lon="10.388094009831548">
        <ele>903.29999999999995</ele>
        <time>2018-09-17T16:01:48Z</time>
      </trkpt>
      <trkpt lat="47.506491970270872" lon="10.388257037848234">
        <ele>902.33000000000004</ele>
        <time>2018-09-17T16:01:49Z</time>
      </trkpt>
      <trkpt lat="47.506566988304257" lon="10.388427022844553">
        <ele>901.37</ele>
        <time>2018-09-17T16:01:50Z</time>
      </trkpt>
      <trkpt lat="47.506611999124289" lon="10.388602958992124">
        <ele>900.88999999999999</ele>
        <time>2018-09-17T16:01:51Z</time>
      </trkpt>
      <trkpt lat="47.506610993295908" lon="10.388781996443868">
        <ele>899.92999999999995</ele>
        <time>2018-09-17T16:01:52Z</time>
      </trkpt>
      <trkpt lat="47.506580986082554" lon="10.389155996963382">
        <ele>898.97000000000003</ele>
        <time>2018-09-17T16:01:54Z</time>
      </trkpt>
      <trkpt lat="47.506565982475877" lon="10.389347020536661">
        <ele>898.49000000000001</ele>
        <time>2018-09-17T16:01:55Z</time>
      </trkpt>
      <trkpt lat="47.506544021889567" lon="10.389527985826135">
        <ele>898.00999999999999</ele>
        <time>2018-09-17T16:01:56Z</time>
      </trkpt>
      <trkpt lat="47.506481995806098" lon="10.389836020767689">
        <ele>897.04999999999995</ele>
        <time>2018-09-17T16:01:58Z</time>
      </trkpt>
      <trkpt lat="47.506481995806098" lon="10.389956971630454">
        <ele>896.57000000000005</ele>
        <time>2018-09-17T16:01:59Z</time>
      </trkpt>
      <trkpt lat="47.506534969434142" lon="10.390061996877193">
        <ele>896.09000000000003</ele>
        <time>2018-09-17T16:02:00Z</time>
      </trkpt>
      <trkpt lat="47.506616022437811" lon="10.390133997425437">
        <ele>895.12</ele>
        <time>2018-09-17T16:02:01Z</time>
      </trkpt>
      <trkpt lat="47.506710989400744" lon="10.3902049921453">
        <ele>894.15999999999997</ele>
        <time>2018-09-17T16:02:02Z</time>
      </trkpt>
      <trkpt lat="47.506798999384046" lon="10.390271041542292">
        <ele>893.20000000000005</ele>
        <time>2018-09-17T16:02:03Z</time>
      </trkpt>
      <trkpt lat="47.506850967183709" lon="10.390368020161986">
        <ele>892.24000000000001</ele>
        <time>2018-09-17T16:02:04Z</time>
      </trkpt>
      <trkpt lat="47.50687301158905" lon="10.3904639929533">
        <ele>891.27999999999997</ele>
        <time>2018-09-17T16:02:05Z</time>
      </trkpt>
      <trkpt lat="47.5068290065974" lon="10.390571029856801">
        <ele>890.32000000000005</ele>
        <time>2018-09-17T16:02:06Z</time>
      </trkpt>
      <trkpt lat="47.506753988564014" lon="10.390662979334593">
        <ele>889.84000000000003</ele>
        <time>2018-09-17T16:02:07Z</time>
      </trkpt>
      <trkpt lat="47.506664972752333" lon="10.390662979334593">
        <ele>888.88</ele>
        <time>2018-09-17T16:02:08Z</time>
      </trkpt>
      <trkpt lat="47.506557013839483" lon="10.390595002099872">
        <ele>888.88</ele>
        <time>2018-09-17T16:02:09Z</time>
      </trkpt>
      <trkpt lat="47.506475038826466" lon="10.390457035973668">
        <ele>888.39999999999998</ele>
        <time>2018-09-17T16:02:10Z</time>
      </trkpt>
      <trkpt lat="47.5063990149647" lon="10.390303982421756">
        <ele>887.90999999999997</ele>
        <time>2018-09-17T16:02:11Z</time>
      </trkpt>
      <trkpt lat="47.506342018023133" lon="10.390131985768676">
        <ele>887.90999999999997</ele>
        <time>2018-09-17T16:02:12Z</time>
      </trkpt>
      <trkpt lat="47.506306981667876" lon="10.389966024085879">
        <ele>886.95000000000005</ele>
        <time>2018-09-17T16:02:13Z</time>
      </trkpt>
      <trkpt lat="47.506304970011115" lon="10.389780029654503">
        <ele>885.99000000000001</ele>
        <time>2018-09-17T16:02:14Z</time>
      </trkpt>
      <trkpt lat="47.506307987496257" lon="10.389137975871563">
        <ele>884.07000000000005</ele>
        <time>2018-09-17T16:02:17Z</time>
      </trkpt>
      <trkpt lat="47.506273034960032" lon="10.388943012803793">
        <ele>883.59000000000003</ele>
        <time>2018-09-17T16:02:18Z</time>
      </trkpt>
      <trkpt lat="47.506202040240169" lon="10.388756012544036">
        <ele>883.11000000000001</ele>
        <time>2018-09-17T16:02:19Z</time>
      </trkpt>
      <trkpt lat="47.505848994478583" lon="10.388087974861264">
        <ele>881.19000000000005</ele>
        <time>2018-09-17T16:02:23Z</time>
      </trkpt>
      <trkpt lat="47.505823010578752" lon="10.387902986258268">
        <ele>880.22000000000003</ele>
        <time>2018-09-17T16:02:24Z</time>
      </trkpt>
      <trkpt lat="47.505742041394114" lon="10.387049959972501">
        <ele>876.86000000000001</ele>
        <time>2018-09-17T16:02:28Z</time>
      </trkpt>
      <trkpt lat="47.505768025293946" lon="10.386885004118085">
        <ele>875.89999999999998</ele>
        <time>2018-09-17T16:02:29Z</time>
      </trkpt>
      <trkpt lat="47.505832985043526" lon="10.386741003021598">
        <ele>874.94000000000005</ele>
        <time>2018-09-17T16:02:30Z</time>
      </trkpt>
      <trkpt lat="47.505929041653872" lon="10.386683000251651">
        <ele>873.98000000000002</ele>
        <time>2018-09-17T16:02:31Z</time>
      </trkpt>
      <trkpt lat="47.50603599473834" lon="10.386617034673691">
        <ele>873.5</ele>
        <time>2018-09-17T16:02:32Z</time>
      </trkpt>
      <trkpt lat="47.506126016378403" lon="10.386534975841641">
        <ele>872.52999999999997</ele>
        <time>2018-09-17T16:02:33Z</time>
      </trkpt>
      <trkpt lat="47.50618502497673" lon="10.386421987786889">
        <ele>872.04999999999995</ele>
        <time>2018-09-17T16:02:34Z</time>
      </trkpt>
      <trkpt lat="47.506211008876562" lon="10.386276980862021">
        <ele>871.09000000000003</ele>
        <time>2018-09-17T16:02:35Z</time>
      </trkpt>
      <trkpt lat="47.506194999441504" lon="10.386100960895419">
        <ele>870.61000000000001</ele>
        <time>2018-09-17T16:02:36Z</time>
      </trkpt>
      <trkpt lat="47.506177984178066" lon="10.385914966464043">
        <ele>870.13</ele>
        <time>2018-09-17T16:02:37Z</time>
      </trkpt>
      <trkpt lat="47.50620698556304" lon="10.385721009224653">
        <ele>869.64999999999998</ele>
        <time>2018-09-17T16:02:38Z</time>
      </trkpt>
      <trkpt lat="47.506264988332987" lon="10.385539960116148">
        <ele>869.16999999999996</ele>
        <time>2018-09-17T16:02:39Z</time>
      </trkpt>
      <trkpt lat="47.506321985274553" lon="10.385341979563236">
        <ele>868.69000000000005</ele>
        <time>2018-09-17T16:02:40Z</time>
      </trkpt>
      <trkpt lat="47.506332965567708" lon="10.385126983746886">
        <ele>868.21000000000004</ele>
        <time>2018-09-17T16:02:41Z</time>
      </trkpt>
      <trkpt lat="47.506360961124301" lon="10.38489799015224">
        <ele>867.73000000000002</ele>
        <time>2018-09-17T16:02:42Z</time>
      </trkpt>
      <trkpt lat="47.506481995806098" lon="10.384461963549256">
        <ele>866.28999999999996</ele>
        <time>2018-09-17T16:02:44Z</time>
      </trkpt>
      <trkpt lat="47.506618034094572" lon="10.38356501609087">
        <ele>863.39999999999998</ele>
        <time>2018-09-17T16:02:48Z</time>
      </trkpt>
      <trkpt lat="47.506673019379377" lon="10.383358988910913">
        <ele>862.91999999999996</ele>
        <time>2018-09-17T16:02:49Z</time>
      </trkpt>
      <trkpt lat="47.506730016320944" lon="10.383151033893228">
        <ele>861.96000000000004</ele>
        <time>2018-09-17T16:02:50Z</time>
      </trkpt>
      <trkpt lat="47.5068099796772" lon="10.382991023361683">
        <ele>860.51999999999998</ele>
        <time>2018-09-17T16:02:51Z</time>
      </trkpt>
      <trkpt lat="47.506907964125276" lon="10.382878035306931">
        <ele>859.55999999999995</ele>
        <time>2018-09-17T16:02:52Z</time>
      </trkpt>
      <trkpt lat="47.507026987150311" lon="10.382837969809771">
        <ele>858.59000000000003</ele>
        <time>2018-09-17T16:02:53Z</time>
      </trkpt>
      <trkpt lat="47.507139975205064" lon="10.382850039750338">
        <ele>857.63</ele>
        <time>2018-09-17T16:02:54Z</time>
      </trkpt>
      <trkpt lat="47.507262015715241" lon="10.382864037528634">
        <ele>856.19000000000005</ele>
        <time>2018-09-17T16:02:55Z</time>
      </trkpt>
      <trkpt lat="47.507378021255136" lon="10.382864959537983">
        <ele>855.23000000000002</ele>
        <time>2018-09-17T16:02:56Z</time>
      </trkpt>
      <trkpt lat="47.50747399404645" lon="10.382833024486899">
        <ele>854.26999999999998</ele>
        <time>2018-09-17T16:02:57Z</time>
      </trkpt>
      <trkpt lat="47.507556974887848" lon="10.382764963433146">
        <ele>853.30999999999995</ele>
        <time>2018-09-17T16:02:58Z</time>
      </trkpt>
      <trkpt lat="47.507587987929583" lon="10.382655998691916">
        <ele>852.35000000000002</ele>
        <time>2018-09-17T16:02:59Z</time>
      </trkpt>
      <trkpt lat="47.507620006799698" lon="10.382545022293925">
        <ele>851.87</ele>
        <time>2018-09-17T16:03:00Z</time>
      </trkpt>
      <trkpt lat="47.507614977657795" lon="10.38242700509727">
        <ele>850.89999999999998</ele>
        <time>2018-09-17T16:03:01Z</time>
      </trkpt>
      <trkpt lat="47.507586982101202" lon="10.382273029536009">
        <ele>850.41999999999996</ele>
        <time>2018-09-17T16:03:02Z</time>
      </trkpt>
      <trkpt lat="47.507554963231087" lon="10.382160041481256">
        <ele>849.46000000000004</ele>
        <time>2018-09-17T16:03:03Z</time>
      </trkpt>
      <trkpt lat="47.507511964067817" lon="10.382021991536021">
        <ele>848.5</ele>
        <time>2018-09-17T16:03:04Z</time>
      </trkpt>
      <trkpt lat="47.507113991305232" lon="10.380562031641603">
        <ele>843.21000000000004</ele>
        <time>2018-09-17T16:03:13Z</time>
      </trkpt>
      <trkpt lat="47.506518037989736" lon="10.378315011039376">
        <ele>836</ele>
        <time>2018-09-17T16:03:26Z</time>
      </trkpt>
      <trkpt lat="47.505872966721654" lon="10.376102020964026">
        <ele>824.95000000000005</ele>
        <time>2018-09-17T16:03:39Z</time>
      </trkpt>
      <trkpt lat="47.505081966519356" lon="10.373413022607565">
        <ele>810.52999999999997</ele>
        <time>2018-09-17T16:03:55Z</time>
      </trkpt>
      <trkpt lat="47.504582991823554" lon="10.371393989771605">
        <ele>808.61000000000001</ele>
        <time>2018-09-17T16:04:07Z</time>
      </trkpt>
      <trkpt lat="47.504476038739085" lon="10.369194997474551">
        <ele>810.04999999999995</ele>
        <time>2018-09-17T16:04:19Z</time>
      </trkpt>
      <trkpt lat="47.504496993497014" lon="10.366254961118102">
        <ele>812.45000000000005</ele>
        <time>2018-09-17T16:04:35Z</time>
      </trkpt>
      <trkpt lat="47.504416024312377" lon="10.363939041271806">
        <ele>808.13</ele>
        <time>2018-09-17T16:04:47Z</time>
      </trkpt>
      <trkpt lat="47.504135984927416" lon="10.361510971561074">
        <ele>801.39999999999998</ele>
        <time>2018-09-17T16:04:58Z</time>
      </trkpt>
      <trkpt lat="47.503942027688026" lon="10.360260978341103">
        <ele>798.99000000000001</ele>
        <time>2018-09-17T16:05:06Z</time>
      </trkpt>
      <trkpt lat="47.504025008529425" lon="10.359926959499717">
        <ele>798.02999999999997</ele>
        <time>2018-09-17T16:05:12Z</time>
      </trkpt>
      <trkpt lat="47.504025008529425" lon="10.359827969223261">
        <ele>798.50999999999999</ele>
        <time>2018-09-17T16:05:13Z</time>
      </trkpt>
      <trkpt lat="47.503959964960814" lon="10.359698971733451">
        <ele>798.50999999999999</ele>
        <time>2018-09-17T16:05:14Z</time>
      </trkpt>
      <trkpt lat="47.503848988562822" lon="10.359638035297394">
        <ele>798.02999999999997</ele>
        <time>2018-09-17T16:05:15Z</time>
      </trkpt>
      <trkpt lat="47.503835996612906" lon="10.359504008665681">
        <ele>798.02999999999997</ele>
        <time>2018-09-17T16:05:16Z</time>
      </trkpt>
      <trkpt lat="47.503819987177849" lon="10.35935003310442">
        <ele>797.54999999999995</ele>
        <time>2018-09-17T16:05:17Z</time>
      </trkpt>
      <trkpt lat="47.50380196608603" lon="10.359176024794579">
        <ele>796.59000000000003</ele>
        <time>2018-09-17T16:05:18Z</time>
      </trkpt>
      <trkpt lat="47.503619994968176" lon="10.357584971934557">
        <ele>794.66999999999996</ele>
        <time>2018-09-17T16:05:25Z</time>
      </trkpt>
      <trkpt lat="47.503354037180543" lon="10.355037963017821">
        <ele>792.74000000000001</ele>
        <time>2018-09-17T16:05:34Z</time>
      </trkpt>
      <trkpt lat="47.503106016665697" lon="10.351700037717819">
        <ele>790.82000000000005</ele>
        <time>2018-09-17T16:05:45Z</time>
      </trkpt>
      <trkpt lat="47.503039967268705" lon="10.350368991494179">
        <ele>788.89999999999998</ele>
        <time>2018-09-17T16:05:51Z</time>
      </trkpt>
      <trkpt lat="47.503020018339157" lon="10.348045025020838">
        <ele>784.57000000000005</ele>
        <time>2018-09-17T16:06:03Z</time>
      </trkpt>
      <trkpt lat="47.503047008067369" lon="10.345568004995584">
        <ele>784.09000000000003</ele>
        <time>2018-09-17T16:06:15Z</time>
      </trkpt>
      <trkpt lat="47.503140969201922" lon="10.34278797917068">
        <ele>783.61000000000001</ele>
        <time>2018-09-17T16:06:28Z</time>
      </trkpt>
      <trkpt lat="47.503388989716768" lon="10.340307019650936">
        <ele>781.69000000000005</ele>
        <time>2018-09-17T16:06:38Z</time>
      </trkpt>
      <trkpt lat="47.503814036026597" lon="10.337692033499479">
        <ele>781.21000000000004</ele>
        <time>2018-09-17T16:06:48Z</time>
      </trkpt>
      <trkpt lat="47.504245033487678" lon="10.335085010156035">
        <ele>778.80999999999995</ele>
        <time>2018-09-17T16:06:58Z</time>
      </trkpt>
      <trkpt lat="47.504621967673302" lon="10.332225020974874">
        <ele>776.39999999999998</ele>
        <time>2018-09-17T16:07:09Z</time>
      </trkpt>
      <trkpt lat="47.504672007635236" lon="10.329822013154626">
        <ele>776.39999999999998</ele>
        <time>2018-09-17T16:07:18Z</time>
      </trkpt>
      <trkpt lat="47.504232041537762" lon="10.327224964275956">
        <ele>776.39999999999998</ele>
        <time>2018-09-17T16:07:28Z</time>
      </trkpt>
      <trkpt lat="47.504172027111053" lon="10.324864033609629">
        <ele>774.96000000000004</ele>
        <time>2018-09-17T16:07:37Z</time>
      </trkpt>
      <trkpt lat="47.504471009597182" lon="10.321976970881224">
        <ele>773.03999999999996</ele>
        <time>2018-09-17T16:07:48Z</time>
      </trkpt>
      <trkpt lat="47.504906030371785" lon="10.319127961993217">
        <ele>768.71000000000004</ele>
        <time>2018-09-17T16:07:58Z</time>
      </trkpt>
      <trkpt lat="47.505287993699312" lon="10.315843010321259">
        <ele>766.78999999999996</ele>
        <time>2018-09-17T16:08:06Z</time>
      </trkpt>
      <trkpt lat="47.505785962566733" lon="10.313188964501023">
        <ele>766.78999999999996</ele>
        <time>2018-09-17T16:08:13Z</time>
      </trkpt>
      <trkpt lat="47.506203968077898" lon="10.312055982649326">
        <ele>767.26999999999998</ele>
        <time>2018-09-17T16:08:18Z</time>
      </trkpt>
      <trkpt lat="47.507192026823759" lon="10.309923039749265">
        <ele>770.14999999999998</ele>
        <time>2018-09-17T16:08:28Z</time>
      </trkpt>
      <trkpt lat="47.507763002067804" lon="10.308024035766721">
        <ele>770.14999999999998</ele>
        <time>2018-09-17T16:08:35Z</time>
      </trkpt>
      <trkpt lat="47.508285026997328" lon="10.305763017386198">
        <ele>767.75</ele>
        <time>2018-09-17T16:08:45Z</time>
      </trkpt>
      <trkpt lat="47.508789030835032" lon="10.30346998013556">
        <ele>762.94000000000005</ele>
        <time>2018-09-17T16:08:57Z</time>
      </trkpt>
      <trkpt lat="47.509254980832338" lon="10.301322033628821">
        <ele>761.01999999999998</ele>
        <time>2018-09-17T16:09:09Z</time>
      </trkpt>
      <trkpt lat="47.509764013811946" lon="10.299061015248299">
        <ele>758.62</ele>
        <time>2018-09-17T16:09:22Z</time>
      </trkpt>
      <trkpt lat="47.510071964934468" lon="10.296917008236051">
        <ele>758.13999999999999</ele>
        <time>2018-09-17T16:09:34Z</time>
      </trkpt>
      <trkpt lat="47.510386034846306" lon="10.295141972601414">
        <ele>759.58000000000004</ele>
        <time>2018-09-17T16:09:44Z</time>
      </trkpt>
      <trkpt lat="47.51114803366363" lon="10.293682012706995">
        <ele>757.65999999999997</ele>
        <time>2018-09-17T16:09:54Z</time>
      </trkpt>
      <trkpt lat="47.512099966406822" lon="10.29281297698617">
        <ele>755.73000000000002</ele>
        <time>2018-09-17T16:10:03Z</time>
      </trkpt>
      <trkpt lat="47.513196989893913" lon="10.291947964578867">
        <ele>753.80999999999995</ele>
        <time>2018-09-17T16:10:13Z</time>
      </trkpt>
      <trkpt lat="47.513649025931954" lon="10.291591985151172">
        <ele>752.37</ele>
        <time>2018-09-17T16:10:19Z</time>
      </trkpt>
      <trkpt lat="47.513700993731618" lon="10.291550997644663">
        <ele>752.37</ele>
        <time>2018-09-17T16:10:20Z</time>
      </trkpt>
      <trkpt lat="47.513895034790039" lon="10.291398027911782">
        <ele>748.51999999999998</ele>
        <time>2018-09-17T16:10:28Z</time>
      </trkpt>
      <trkpt lat="47.513895034790039" lon="10.291398027911782">
        <ele>748.51999999999998</ele>
        <time>2018-09-17T16:10:48Z</time>
      </trkpt>
      <trkpt lat="47.513936022296548" lon="10.291366009041667">
        <ele>748.03999999999996</ele>
        <time>2018-09-17T16:11:07Z</time>
      </trkpt>
      <trkpt lat="47.514401972293854" lon="10.290936017408967">
        <ele>746.60000000000002</ele>
        <time>2018-09-17T16:11:14Z</time>
      </trkpt>
      <trkpt lat="47.515092976391315" lon="10.290146023035049">
        <ele>748.03999999999996</ele>
        <time>2018-09-17T16:11:25Z</time>
      </trkpt>
      <trkpt lat="47.515921024605632" lon="10.289162993431091">
        <ele>746.12</ele>
        <time>2018-09-17T16:11:35Z</time>
      </trkpt>
      <trkpt lat="47.516982005909085" lon="10.287939989939332">
        <ele>745.15999999999997</ele>
        <time>2018-09-17T16:11:47Z</time>
      </trkpt>
      <trkpt lat="47.517824973911047" lon="10.286893006414175">
        <ele>744.67999999999995</ele>
        <time>2018-09-17T16:11:57Z</time>
      </trkpt>
      <trkpt lat="47.518585966899991" lon="10.285705039277673">
        <ele>743.24000000000001</ele>
        <time>2018-09-17T16:12:07Z</time>
      </trkpt>
      <trkpt lat="47.518737008795142" lon="10.285369008779526">
        <ele>743.72000000000003</ele>
        <time>2018-09-17T16:12:10Z</time>
      </trkpt>
      <trkpt lat="47.518770033493638" lon="10.285262977704406">
        <ele>743.72000000000003</ele>
        <time>2018-09-17T16:12:11Z</time>
      </trkpt>
      <trkpt lat="47.518800040706992" lon="10.285168010741472">
        <ele>743.72000000000003</ele>
        <time>2018-09-17T16:12:12Z</time>
      </trkpt>
      <trkpt lat="47.518829964101315" lon="10.285073965787888">
        <ele>743.72000000000003</ele>
        <time>2018-09-17T16:12:13Z</time>
      </trkpt>
      <trkpt lat="47.518859971314669" lon="10.284977992996573">
        <ele>743.72000000000003</ele>
        <time>2018-09-17T16:12:14Z</time>
      </trkpt>
      <trkpt lat="47.518889978528023" lon="10.284882020205259">
        <ele>744.20000000000005</ele>
        <time>2018-09-17T16:12:15Z</time>
      </trkpt>
      <trkpt lat="47.518924009054899" lon="10.284773977473378">
        <ele>744.20000000000005</ele>
        <time>2018-09-17T16:12:16Z</time>
      </trkpt>
      <trkpt lat="47.518959967419505" lon="10.284661995247006">
        <ele>743.72000000000003</ele>
        <time>2018-09-17T16:12:17Z</time>
      </trkpt>
      <trkpt lat="47.518986035138369" lon="10.284544983878732">
        <ele>743.24000000000001</ele>
        <time>2018-09-17T16:12:18Z</time>
      </trkpt>
      <trkpt lat="47.519182004034519" lon="10.283662034198642">
        <ele>743.24000000000001</ele>
        <time>2018-09-17T16:12:25Z</time>
      </trkpt>
      <trkpt lat="47.519211005419493" lon="10.283519038930535">
        <ele>743.24000000000001</ele>
        <time>2018-09-17T16:12:26Z</time>
      </trkpt>
      <trkpt lat="47.519637979567051" lon="10.281518027186394">
        <ele>742.75999999999999</ele>
        <time>2018-09-17T16:12:38Z</time>
      </trkpt>
      <trkpt lat="47.519776029512286" lon="10.280848983675241">
        <ele>742.75999999999999</ele>
        <time>2018-09-17T16:12:42Z</time>
      </trkpt>
      <trkpt lat="47.519797990098596" lon="10.280730966478586">
        <ele>742.75999999999999</ele>
        <time>2018-09-17T16:12:43Z</time>
      </trkpt>
      <trkpt lat="47.519821040332317" lon="10.280614960938692">
        <ele>742.27999999999997</ele>
        <time>2018-09-17T16:12:44Z</time>
      </trkpt>
      <trkpt lat="47.520080963149667" lon="10.27936203405261">
        <ele>741.78999999999996</ele>
        <time>2018-09-17T16:12:52Z</time>
      </trkpt>
      <trkpt lat="47.520306017249823" lon="10.277943983674049">
        <ele>741.30999999999995</ele>
        <time>2018-09-17T16:13:00Z</time>
      </trkpt>
      <trkpt lat="47.520355973392725" lon="10.277594039216638">
        <ele>740.83000000000004</ele>
        <time>2018-09-17T16:13:02Z</time>
      </trkpt>
      <trkpt lat="47.520381035283208" lon="10.277417013421655">
        <ele>740.83000000000004</ele>
        <time>2018-09-17T16:13:03Z</time>
      </trkpt>
      <trkpt lat="47.520398972555995" lon="10.277232024818659">
        <ele>740.35000000000002</ele>
        <time>2018-09-17T16:13:04Z</time>
      </trkpt>
      <trkpt lat="47.520439960062504" lon="10.274665988981724">
        <ele>739.38999999999999</ele>
        <time>2018-09-17T16:13:18Z</time>
      </trkpt>
      <trkpt lat="47.520381035283208" lon="10.272835968062282">
        <ele>744.67999999999995</ele>
        <time>2018-09-17T16:13:28Z</time>
      </trkpt>
      <trkpt lat="47.520306017249823" lon="10.270449975505471">
        <ele>744.67999999999995</ele>
        <time>2018-09-17T16:13:41Z</time>
      </trkpt>
      <trkpt lat="47.520252037793398" lon="10.268438989296556">
        <ele>743.24000000000001</ele>
        <time>2018-09-17T16:13:52Z</time>
      </trkpt>
      <trkpt lat="47.520209960639477" lon="10.268047973513603">
        <ele>742.27999999999997</ele>
        <time>2018-09-17T16:13:55Z</time>
      </trkpt>
      <trkpt lat="47.520290007814765" lon="10.267774974927306">
        <ele>741.78999999999996</ele>
        <time>2018-09-17T16:13:57Z</time>
      </trkpt>
      <trkpt lat="47.520277015864849" lon="10.267697023227811">
        <ele>741.30999999999995</ele>
        <time>2018-09-17T16:13:58Z</time>
      </trkpt>
      <trkpt lat="47.520210966467857" lon="10.267570037394762">
        <ele>740.83000000000004</ele>
        <time>2018-09-17T16:13:59Z</time>
      </trkpt>
      <trkpt lat="47.520118011161685" lon="10.267517985776067">
        <ele>740.35000000000002</ele>
        <time>2018-09-17T16:14:00Z</time>
      </trkpt>
      <trkpt lat="47.520026983693242" lon="10.267585963010788">
        <ele>740.35000000000002</ele>
        <time>2018-09-17T16:14:01Z</time>
      </trkpt>
      <trkpt lat="47.51993796788156" lon="10.267644971609116">
        <ele>739.87</ele>
        <time>2018-09-17T16:14:02Z</time>
      </trkpt>
      <trkpt lat="47.519850041717291" lon="10.267627034336329">
        <ele>739.38999999999999</ele>
        <time>2018-09-17T16:14:03Z</time>
      </trkpt>
      <trkpt lat="47.519652983173728" lon="10.267639020457864">
        <ele>739.38999999999999</ele>
        <time>2018-09-17T16:14:05Z</time>
      </trkpt>
      <trkpt lat="47.519545024260879" lon="10.267687970772386">
        <ele>739.38999999999999</ele>
        <time>2018-09-17T16:14:06Z</time>
      </trkpt>
      <trkpt lat="47.519448967650533" lon="10.267766006290913">
        <ele>739.38999999999999</ele>
        <time>2018-09-17T16:14:07Z</time>
      </trkpt>
      <trkpt lat="47.519352994859219" lon="10.267878994345665">
        <ele>738.90999999999997</ele>
        <time>2018-09-17T16:14:08Z</time>
      </trkpt>
      <trkpt lat="47.519251992926002" lon="10.26799701154232">
        <ele>738.90999999999997</ele>
        <time>2018-09-17T16:14:09Z</time>
      </trkpt>
      <trkpt lat="47.519148979336023" lon="10.268118968233466">
        <ele>738.90999999999997</ele>
        <time>2018-09-17T16:14:10Z</time>
      </trkpt>
      <trkpt lat="47.518383041024208" lon="10.269094035029411">
        <ele>741.78999999999996</ele>
        <time>2018-09-17T16:14:17Z</time>
      </trkpt>
      <trkpt lat="47.518256977200508" lon="10.26922001503408">
        <ele>741.78999999999996</ele>
        <time>2018-09-17T16:14:18Z</time>
      </trkpt>
      <trkpt lat="47.516874969005585" lon="10.269945971667767">
        <ele>741.78999999999996</ele>
        <time>2018-09-17T16:14:26Z</time>
      </trkpt>
      <trkpt lat="47.515110997483134" lon="10.270755998790264">
        <ele>743.24000000000001</ele>
        <time>2018-09-17T16:14:35Z</time>
      </trkpt>
      <trkpt lat="47.513180980458856" lon="10.271243993192911">
        <ele>742.75999999999999</ele>
        <time>2018-09-17T16:14:46Z</time>
      </trkpt>
      <trkpt lat="47.51106102950871" lon="10.271583963185549">
        <ele>743.24000000000001</ele>
        <time>2018-09-17T16:14:58Z</time>
      </trkpt>
      <trkpt lat="47.508627008646727" lon="10.271631991490722">
        <ele>745.15999999999997</ele>
        <time>2018-09-17T16:15:10Z</time>
      </trkpt>
      <trkpt lat="47.507342984899879" lon="10.271361004561186">
        <ele>746.12</ele>
        <time>2018-09-17T16:15:17Z</time>
      </trkpt>
      <trkpt lat="47.505611032247543" lon="10.270440001040697">
        <ele>746.12</ele>
        <time>2018-09-17T16:15:26Z</time>
      </trkpt>
      <trkpt lat="47.50403699465096" lon="10.269052963703871">
        <ele>743.24000000000001</ele>
        <time>2018-09-17T16:15:35Z</time>
      </trkpt>
      <trkpt lat="47.502241004258394" lon="10.267471969127655">
        <ele>739.87</ele>
        <time>2018-09-17T16:15:45Z</time>
      </trkpt>
      <trkpt lat="47.500215014442801" lon="10.266345022246242">
        <ele>741.30999999999995</ele>
        <time>2018-09-17T16:15:56Z</time>
      </trkpt>
      <trkpt lat="47.498532012104988" lon="10.265898015350103">
        <ele>744.67999999999995</ele>
        <time>2018-09-17T16:16:05Z</time>
      </trkpt>
      <trkpt lat="47.496652035042644" lon="10.265516974031925">
        <ele>744.67999999999995</ele>
        <time>2018-09-17T16:16:15Z</time>
      </trkpt>
      <trkpt lat="47.496086005121469" lon="10.265466012060642">
        <ele>744.67999999999995</ele>
        <time>2018-09-17T16:16:18Z</time>
      </trkpt>
      <trkpt lat="47.495896993204951" lon="10.265499036759138">
        <ele>745.15999999999997</ele>
        <time>2018-09-17T16:16:19Z</time>
      </trkpt>
      <trkpt lat="47.495710998773575" lon="10.26554798707366">
        <ele>745.15999999999997</ele>
        <time>2018-09-17T16:16:20Z</time>
      </trkpt>
      <trkpt lat="47.494079964235425" lon="10.266356002539396">
        <ele>746.12</ele>
        <time>2018-09-17T16:16:29Z</time>
      </trkpt>
      <trkpt lat="47.492770040407777" lon="10.266694966703653">
        <ele>748.51999999999998</ele>
        <time>2018-09-17T16:16:36Z</time>
      </trkpt>
      <trkpt lat="47.490800963714719" lon="10.266664959490299">
        <ele>756.69000000000005</ele>
        <time>2018-09-17T16:16:46Z</time>
      </trkpt>
      <trkpt lat="47.490623015910387" lon="10.266679041087627">
        <ele>757.65999999999997</ele>
        <time>2018-09-17T16:16:47Z</time>
      </trkpt>
      <trkpt lat="47.489131959155202" lon="10.266974000260234">
        <ele>766.78999999999996</ele>
        <time>2018-09-17T16:16:56Z</time>
      </trkpt>
      <trkpt lat="47.487880038097501" lon="10.266985986381769">
        <ele>775.91999999999996</ele>
        <time>2018-09-17T16:17:04Z</time>
      </trkpt>
      <trkpt lat="47.4872359726578" lon="10.26694499887526">
        <ele>778.80999999999995</ele>
        <time>2018-09-17T16:17:08Z</time>
      </trkpt>
      <trkpt lat="47.4870840087533" lon="10.266968971118331">
        <ele>779.28999999999996</ele>
        <time>2018-09-17T16:17:09Z</time>
      </trkpt>
      <trkpt lat="47.486188989132643" lon="10.267144991084933">
        <ele>782.16999999999996</ele>
        <time>2018-09-17T16:17:15Z</time>
      </trkpt>
      <trkpt lat="47.486034007743001" lon="10.267152031883597">
        <ele>782.64999999999998</ele>
        <time>2018-09-17T16:17:16Z</time>
      </trkpt>
      <trkpt lat="47.485879026353359" lon="10.267097968608141">
        <ele>783.61000000000001</ele>
        <time>2018-09-17T16:17:17Z</time>
      </trkpt>
      <trkpt lat="47.485727984458208" lon="10.267038960009813">
        <ele>784.09000000000003</ele>
        <time>2018-09-17T16:17:18Z</time>
      </trkpt>
      <trkpt lat="47.485574008896947" lon="10.266956984996796">
        <ele>785.04999999999995</ele>
        <time>2018-09-17T16:17:19Z</time>
      </trkpt>
      <trkpt lat="47.485426990315318" lon="10.266849026083946">
        <ele>786.01999999999998</ele>
        <time>2018-09-17T16:17:20Z</time>
      </trkpt>
      <trkpt lat="47.485289024189115" lon="10.266747018322349">
        <ele>786.5</ele>
        <time>2018-09-17T16:17:21Z</time>
      </trkpt>
      <trkpt lat="47.484535994008183" lon="10.266363965347409">
        <ele>787.94000000000005</ele>
        <time>2018-09-17T16:17:26Z</time>
      </trkpt>
      <trkpt lat="47.484376989305019" lon="10.266339993104339">
        <ele>787.94000000000005</ele>
        <time>2018-09-17T16:17:27Z</time>
      </trkpt>
      <trkpt lat="47.482789037749171" lon="10.266166990622878">
        <ele>789.86000000000001</ele>
        <time>2018-09-17T16:17:37Z</time>
      </trkpt>
      <trkpt lat="47.481248024851084" lon="10.266060959547758">
        <ele>789.86000000000001</ele>
        <time>2018-09-17T16:17:46Z</time>
      </trkpt>
      <trkpt lat="47.481088014319539" lon="10.266101025044918">
        <ele>789.86000000000001</ele>
        <time>2018-09-17T16:17:47Z</time>
      </trkpt>
      <trkpt lat="47.480929009616375" lon="10.266155004501343">
        <ele>789.38</ele>
        <time>2018-09-17T16:17:48Z</time>
      </trkpt>
      <trkpt lat="47.479550018906593" lon="10.26666697114706">
        <ele>782.64999999999998</ele>
        <time>2018-09-17T16:17:56Z</time>
      </trkpt>
      <trkpt lat="47.479368969798088" lon="10.266689015552402">
        <ele>781.69000000000005</ele>
        <time>2018-09-17T16:17:57Z</time>
      </trkpt>
      <trkpt lat="47.477918984368443" lon="10.266690021380782">
        <ele>770.63</ele>
        <time>2018-09-17T16:18:06Z</time>
      </trkpt>
      <trkpt lat="47.476520966738462" lon="10.266778031364083">
        <ele>761.01999999999998</ele>
        <time>2018-09-17T16:18:15Z</time>
      </trkpt>
      <trkpt lat="47.474904013797641" lon="10.267257979139686">
        <ele>756.21000000000004</ele>
        <time>2018-09-17T16:18:23Z</time>
      </trkpt>
      <trkpt lat="47.472536964341998" lon="10.267922999337316">
        <ele>760.05999999999995</ele>
        <time>2018-09-17T16:18:35Z</time>
      </trkpt>
      <trkpt lat="47.470614993944764" lon="10.26799600571394">
        <ele>765.35000000000002</ele>
        <time>2018-09-17T16:18:45Z</time>
      </trkpt>
      <trkpt lat="47.468603001907468" lon="10.268048979341984">
        <ele>761.98000000000002</ele>
        <time>2018-09-17T16:18:55Z</time>
      </trkpt>
      <trkpt lat="47.465963959693909" lon="10.268241008743644">
        <ele>767.26999999999998</ele>
        <time>2018-09-17T16:19:08Z</time>
      </trkpt>
      <trkpt lat="47.463958002626896" lon="10.268376041203737">
        <ele>774</ele>
        <time>2018-09-17T16:19:19Z</time>
      </trkpt>
      <trkpt lat="47.463206984102726" lon="10.268278978765011">
        <ele>775.44000000000005</ele>
        <time>2018-09-17T16:19:26Z</time>
      </trkpt>
      <trkpt lat="47.46269803494215" lon="10.268123997375369">
        <ele>774</ele>
        <time>2018-09-17T16:19:35Z</time>
      </trkpt>
      <trkpt lat="47.46257096529007" lon="10.268074963241816">
        <ele>773.03999999999996</ele>
        <time>2018-09-17T16:19:43Z</time>
      </trkpt>
      <trkpt lat="47.462349012494087" lon="10.267979996278882">
        <ele>772.55999999999995</ele>
        <time>2018-09-17T16:19:55Z</time>
      </trkpt>
      <trkpt lat="47.461675023660064" lon="10.267637008801103">
        <ele>772.55999999999995</ele>
        <time>2018-09-17T16:20:04Z</time>
      </trkpt>
      <trkpt lat="47.460604989901185" lon="10.267209028825164">
        <ele>774.96000000000004</ele>
        <time>2018-09-17T16:20:14Z</time>
      </trkpt>
      <trkpt lat="47.460450008511543" lon="10.267169969156384">
        <ele>774.96000000000004</ele>
        <time>2018-09-17T16:20:16Z</time>
      </trkpt>
      <trkpt lat="47.460384964942932" lon="10.267153959721327">
        <ele>775.44000000000005</ele>
        <time>2018-09-17T16:20:17Z</time>
      </trkpt>
      <trkpt lat="47.460298966616392" lon="10.267080031335354">
        <ele>774.96000000000004</ele>
        <time>2018-09-17T16:20:18Z</time>
      </trkpt>
      <trkpt lat="47.460305001586676" lon="10.266997972503304">
        <ele>774.96000000000004</ele>
        <time>2018-09-17T16:20:19Z</time>
      </trkpt>
      <trkpt lat="47.46031497605145" lon="10.26688196696341">
        <ele>774.48000000000002</ele>
        <time>2018-09-17T16:20:20Z</time>
      </trkpt>
      <trkpt lat="47.460326962172985" lon="10.266739977523685">
        <ele>774.48000000000002</ele>
        <time>2018-09-17T16:20:21Z</time>
      </trkpt>
      <trkpt lat="47.46033500880003" lon="10.266586001962423">
        <ele>774.48000000000002</ele>
        <time>2018-09-17T16:20:22Z</time>
      </trkpt>
      <trkpt lat="47.460187990218401" lon="10.265473974868655">
        <ele>776.88</ele>
        <time>2018-09-17T16:20:31Z</time>
      </trkpt>
      <trkpt lat="47.459909040480852" lon="10.264462027698755">
        <ele>779.28999999999996</ele>
        <time>2018-09-17T16:20:42Z</time>
      </trkpt>
      <trkpt lat="47.459489023312926" lon="10.26297097094357">
        <ele>783.13</ele>
        <time>2018-09-17T16:20:54Z</time>
      </trkpt>
      <trkpt lat="47.458999017253518" lon="10.260997032746673">
        <ele>787.94000000000005</ele>
        <time>2018-09-17T16:21:08Z</time>
      </trkpt>
      <trkpt lat="47.458701962605119" lon="10.259508993476629">
        <ele>790.34000000000003</ele>
        <time>2018-09-17T16:21:19Z</time>
      </trkpt>
      <trkpt lat="47.458442039787769" lon="10.258213989436626">
        <ele>792.25999999999999</ele>
        <time>2018-09-17T16:21:27Z</time>
      </trkpt>
      <trkpt lat="47.457877015694976" lon="10.256236027926207">
        <ele>795.63</ele>
        <time>2018-09-17T16:21:36Z</time>
      </trkpt>
      <trkpt lat="47.457527993246913" lon="10.255060968920588">
        <ele>798.99000000000001</ele>
        <time>2018-09-17T16:21:42Z</time>
      </trkpt>
      <trkpt lat="47.456907983869314" lon="10.253621963784099">
        <ele>802.84000000000003</ele>
        <time>2018-09-17T16:21:48Z</time>
      </trkpt>
      <trkpt lat="47.456299038603902" lon="10.252036023885012">
        <ele>807.15999999999997</ele>
        <time>2018-09-17T16:21:54Z</time>
      </trkpt>
      <trkpt lat="47.455635024234653" lon="10.249533019959927">
        <ele>811.49000000000001</ele>
        <time>2018-09-17T16:22:02Z</time>
      </trkpt>
      <trkpt lat="47.454907977953553" lon="10.2471789624542">
        <ele>818.70000000000005</ele>
        <time>2018-09-17T16:22:10Z</time>
      </trkpt>
      <trkpt lat="47.45434002019465" lon="10.245248023420572">
        <ele>824.95000000000005</ele>
        <time>2018-09-17T16:22:17Z</time>
      </trkpt>
      <trkpt lat="47.454244969412684" lon="10.245070997625589">
        <ele>825.42999999999995</ele>
        <time>2018-09-17T16:22:18Z</time>
      </trkpt>
      <trkpt lat="47.454141033813357" lon="10.244936970993876">
        <ele>825.90999999999997</ele>
        <time>2018-09-17T16:22:19Z</time>
      </trkpt>
      <trkpt lat="47.454022010788321" lon="10.244835969060659">
        <ele>826.38999999999999</ele>
        <time>2018-09-17T16:22:20Z</time>
      </trkpt>
      <trkpt lat="47.453906005248427" lon="10.244736978784204">
        <ele>826.87</ele>
        <time>2018-09-17T16:22:21Z</time>
      </trkpt>
      <trkpt lat="47.453791005536914" lon="10.244638994336128">
        <ele>827.35000000000002</ele>
        <time>2018-09-17T16:22:22Z</time>
      </trkpt>
      <trkpt lat="47.453670976683497" lon="10.244581997394562">
        <ele>827.83000000000004</ele>
        <time>2018-09-17T16:22:23Z</time>
      </trkpt>
      <trkpt lat="47.453548014163971" lon="10.244532963261008">
        <ele>827.83000000000004</ele>
        <time>2018-09-17T16:22:24Z</time>
      </trkpt>
      <trkpt lat="47.452210010960698" lon="10.244045974686742">
        <ele>835.03999999999996</ele>
        <time>2018-09-17T16:22:35Z</time>
      </trkpt>
      <trkpt lat="47.452100962400436" lon="10.243960982188582">
        <ele>836</ele>
        <time>2018-09-17T16:22:36Z</time>
      </trkpt>
      <trkpt lat="47.452012030407786" lon="10.243893004953861">
        <ele>836.48000000000002</ele>
        <time>2018-09-17T16:22:37Z</time>
      </trkpt>
      <trkpt lat="47.451910022646189" lon="10.243736011907458">
        <ele>837.45000000000005</ele>
        <time>2018-09-17T16:22:38Z</time>
      </trkpt>
      <trkpt lat="47.451825030148029" lon="10.243603996932507">
        <ele>837.92999999999995</ele>
        <time>2018-09-17T16:22:39Z</time>
      </trkpt>
      <trkpt lat="47.451746994629502" lon="10.243456978350878">
        <ele>838.40999999999997</ele>
        <time>2018-09-17T16:22:40Z</time>
      </trkpt>
      <trkpt lat="47.451680023223162" lon="10.243295039981604">
        <ele>838.88999999999999</ele>
        <time>2018-09-17T16:22:41Z</time>
      </trkpt>
      <trkpt lat="47.451611962169409" lon="10.243128994479775">
        <ele>839.37</ele>
        <time>2018-09-17T16:22:42Z</time>
      </trkpt>
      <trkpt lat="47.451347010210156" lon="10.242438996210694">
        <ele>840.33000000000004</ele>
        <time>2018-09-17T16:22:46Z</time>
      </trkpt>
      <trkpt lat="47.451267968863249" lon="10.242286026477814">
        <ele>840.33000000000004</ele>
        <time>2018-09-17T16:22:47Z</time>
      </trkpt>
      <trkpt lat="47.450582999736071" lon="10.241341972723603">
        <ele>842.25</ele>
        <time>2018-09-17T16:22:55Z</time>
      </trkpt>
      <trkpt lat="47.449866011738777" lon="10.240490036085248">
        <ele>846.10000000000002</ele>
        <time>2018-09-17T16:23:07Z</time>
      </trkpt>
      <trkpt lat="47.449553031474352" lon="10.240021990612149">
        <ele>848.01999999999998</ele>
        <time>2018-09-17T16:23:13Z</time>
      </trkpt>
      <trkpt lat="47.449511960148811" lon="10.239934986457229">
        <ele>848.01999999999998</ele>
        <time>2018-09-17T16:23:14Z</time>
      </trkpt>
      <trkpt lat="47.449470972642303" lon="10.239849993959069">
        <ele>848.5</ele>
        <time>2018-09-17T16:23:15Z</time>
      </trkpt>
      <trkpt lat="47.449434008449316" lon="10.239773970097303">
        <ele>848.5</ele>
        <time>2018-09-17T16:23:16Z</time>
      </trkpt>
      <trkpt lat="47.449407018721104" lon="10.239717978984118">
        <ele>848.98000000000002</ele>
        <time>2018-09-17T16:23:17Z</time>
      </trkpt>
      <trkpt lat="47.449351027607918" lon="10.239600967615843">
        <ele>849.94000000000005</ele>
        <time>2018-09-17T16:23:21Z</time>
      </trkpt>
      <trkpt lat="47.449351027607918" lon="10.239600967615843">
        <ele>849.94000000000005</ele>
        <time>2018-09-17T16:23:22Z</time>
      </trkpt>
      <trkpt lat="47.449290007352829" lon="10.239587975665927">
        <ele>849.94000000000005</ele>
        <time>2018-09-17T16:23:23Z</time>
      </trkpt>
      <trkpt lat="47.449255976825953" lon="10.239581018686295">
        <ele>850.41999999999996</ele>
        <time>2018-09-17T16:23:24Z</time>
      </trkpt>
      <trkpt lat="47.449224041774869" lon="10.23957397788763">
        <ele>850.41999999999996</ele>
        <time>2018-09-17T16:23:25Z</time>
      </trkpt>
      <trkpt lat="47.449180958792567" lon="10.239565009251237">
        <ele>850.41999999999996</ele>
        <time>2018-09-17T16:23:26Z</time>
      </trkpt>
      <trkpt lat="47.449128990992904" lon="10.239554028958082">
        <ele>850.41999999999996</ele>
        <time>2018-09-17T16:23:27Z</time>
      </trkpt>
      <trkpt lat="47.449051039293408" lon="10.239537013694644">
        <ele>850.41999999999996</ele>
        <time>2018-09-17T16:23:28Z</time>
      </trkpt>
      <trkpt lat="47.449011979624629" lon="10.239516980946064">
        <ele>850.41999999999996</ele>
        <time>2018-09-17T16:23:29Z</time>
      </trkpt>
      <trkpt lat="47.448954982683063" lon="10.239488985389471">
        <ele>850.41999999999996</ele>
        <time>2018-09-17T16:23:30Z</time>
      </trkpt>
      <trkpt lat="47.448878958821297" lon="10.239451015368104">
        <ele>850.41999999999996</ele>
        <time>2018-09-17T16:23:32Z</time>
      </trkpt>
      <trkpt lat="47.448789021000266" lon="10.239412039518356">
        <ele>850.89999999999998</ele>
        <time>2018-09-17T16:23:33Z</time>
      </trkpt>
      <trkpt lat="47.448142021894455" lon="10.239132000133395">
        <ele>850.41999999999996</ele>
        <time>2018-09-17T16:23:42Z</time>
      </trkpt>
      <trkpt lat="47.447598036378622" lon="10.239140968769789">
        <ele>848.98000000000002</ele>
        <time>2018-09-17T16:23:49Z</time>
      </trkpt>
      <trkpt lat="47.447526035830379" lon="10.239167958498001">
        <ele>848.5</ele>
        <time>2018-09-17T16:23:50Z</time>
      </trkpt>
      <trkpt lat="47.447453029453754" lon="10.239195032045245">
        <ele>848.5</ele>
        <time>2018-09-17T16:23:51Z</time>
      </trkpt>
      <trkpt lat="47.447383962571621" lon="10.23922897875309">
        <ele>848.01999999999998</ele>
        <time>2018-09-17T16:23:52Z</time>
      </trkpt>
      <trkpt lat="47.447324031963944" lon="10.239289999008179">
        <ele>847.53999999999996</ele>
        <time>2018-09-17T16:23:53Z</time>
      </trkpt>
      <trkpt lat="47.447248008102179" lon="10.239365017041564">
        <ele>847.53999999999996</ele>
        <time>2018-09-17T16:23:54Z</time>
      </trkpt>
      <trkpt lat="47.447216995060444" lon="10.23939804174006">
        <ele>847.05999999999995</ele>
        <time>2018-09-17T16:23:55Z</time>
      </trkpt>
      <trkpt lat="47.44716502726078" lon="10.239453027024865">
        <ele>847.05999999999995</ele>
        <time>2018-09-17T16:23:56Z</time>
      </trkpt>
      <trkpt lat="47.447114987298846" lon="10.239506000652909">
        <ele>846.58000000000004</ele>
        <time>2018-09-17T16:23:57Z</time>
      </trkpt>
      <trkpt lat="47.447023959830403" lon="10.239602979272604">
        <ele>846.10000000000002</ele>
        <time>2018-09-17T16:23:59Z</time>
      </trkpt>
      <trkpt lat="47.446970986202359" lon="10.239657964557409">
        <ele>845.62</ele>
        <time>2018-09-17T16:24:00Z</time>
      </trkpt>
      <trkpt lat="47.446322981268167" lon="10.240341005846858">
        <ele>843.69000000000005</ele>
        <time>2018-09-17T16:24:09Z</time>
      </trkpt>
      <trkpt lat="47.446107985451818" lon="10.240564970299602">
        <ele>843.21000000000004</ele>
        <time>2018-09-17T16:24:12Z</time>
      </trkpt>
      <trkpt lat="47.445318996906281" lon="10.241671968251467">
        <ele>840.80999999999995</ele>
        <time>2018-09-17T16:24:24Z</time>
      </trkpt>
      <trkpt lat="47.444732012227178" lon="10.242695985361934">
        <ele>837.92999999999995</ele>
        <time>2018-09-17T16:24:35Z</time>
      </trkpt>
      <trkpt lat="47.444282993674278" lon="10.243689995259047">
        <ele>836.48000000000002</ele>
        <time>2018-09-17T16:24:46Z</time>
      </trkpt>
      <trkpt lat="47.444231025874615" lon="10.243783034384251">
        <ele>836</ele>
        <time>2018-09-17T16:24:47Z</time>
      </trkpt>
      <trkpt lat="47.443545972928405" lon="10.244816020131111">
        <ele>832.63999999999999</ele>
        <time>2018-09-17T16:25:00Z</time>
      </trkpt>
      <trkpt lat="47.44351495988667" lon="10.24485700763762">
        <ele>832.15999999999997</ele>
        <time>2018-09-17T16:25:01Z</time>
      </trkpt>
      <trkpt lat="47.44355795904994" lon="10.244957003742456">
        <ele>832.15999999999997</ele>
        <time>2018-09-17T16:25:02Z</time>
      </trkpt>
      <trkpt lat="47.443581009283662" lon="10.245010983198881">
        <ele>831.67999999999995</ele>
        <time>2018-09-17T16:25:03Z</time>
      </trkpt>
      <trkpt lat="47.443611016497016" lon="10.245078038424253">
        <ele>831.20000000000005</ele>
        <time>2018-09-17T16:25:04Z</time>
      </trkpt>
      <trkpt lat="47.443642029538751" lon="10.245150960981846">
        <ele>831.20000000000005</ele>
        <time>2018-09-17T16:25:05Z</time>
      </trkpt>
      <trkpt lat="47.443685028702021" lon="10.24522103369236">
        <ele>830.72000000000003</ele>
        <time>2018-09-17T16:25:06Z</time>
      </trkpt>
      <trkpt lat="47.443736996501684" lon="10.245268978178501">
        <ele>830.72000000000003</ele>
        <time>2018-09-17T16:25:07Z</time>
      </trkpt>
      <trkpt lat="47.443787036463618" lon="10.245317006483674">
        <ele>830.24000000000001</ele>
        <time>2018-09-17T16:25:08Z</time>
      </trkpt>
      <trkpt lat="47.443833975121379" lon="10.245360005646944">
        <ele>830.24000000000001</ele>
        <time>2018-09-17T16:25:09Z</time>
      </trkpt>
      <trkpt lat="47.443911004811525" lon="10.245432006195188">
        <ele>829.75999999999999</ele>
        <time>2018-09-17T16:25:11Z</time>
      </trkpt>
      <trkpt lat="47.443948974832892" lon="10.245468970388174">
        <ele>829.75999999999999</ele>
        <time>2018-09-17T16:25:12Z</time>
      </trkpt>
      <trkpt lat="47.443977976217866" lon="10.245495960116386">
        <ele>829.26999999999998</ele>
        <time>2018-09-17T16:25:13Z</time>
      </trkpt>
      <trkpt lat="47.443995997309685" lon="10.245607020333409">
        <ele>829.26999999999998</ele>
        <time>2018-09-17T16:25:15Z</time>
      </trkpt>
      <trkpt lat="47.443988034501672" lon="10.245665023103356">
        <ele>828.78999999999996</ele>
        <time>2018-09-17T16:25:16Z</time>
      </trkpt>
      <trkpt lat="47.443978982046247" lon="10.245727971196175">
        <ele>828.78999999999996</ele>
        <time>2018-09-17T16:25:17Z</time>
      </trkpt>
      <trkpt lat="47.443969007581472" lon="10.245794020593166">
        <ele>828.30999999999995</ele>
        <time>2018-09-17T16:25:18Z</time>
      </trkpt>
      <trkpt lat="47.443947969004512" lon="10.245860991999507">
        <ele>828.30999999999995</ele>
        <time>2018-09-17T16:25:19Z</time>
      </trkpt>
      <trkpt lat="47.443917961791158" lon="10.245925029739738">
        <ele>828.30999999999995</ele>
        <time>2018-09-17T16:25:20Z</time>
      </trkpt>
      <trkpt lat="47.443885020911694" lon="10.24599501863122">
        <ele>827.83000000000004</ele>
        <time>2018-09-17T16:25:21Z</time>
      </trkpt>
      <trkpt lat="47.443854007869959" lon="10.24606199003756">
        <ele>827.83000000000004</ele>
        <time>2018-09-17T16:25:22Z</time>
      </trkpt>
      <trkpt lat="47.443824000656605" lon="10.24612502194941">
        <ele>827.35000000000002</ele>
        <time>2018-09-17T16:25:23Z</time>
      </trkpt>
      <trkpt lat="47.443672958761454" lon="10.246445965021849">
        <ele>827.83000000000004</ele>
        <time>2018-09-17T16:25:28Z</time>
      </trkpt>
      <trkpt lat="47.443652004003525" lon="10.24649198167026">
        <ele>828.30999999999995</ele>
        <time>2018-09-17T16:25:29Z</time>
      </trkpt>
      <trkpt lat="47.443611016497016" lon="10.246504973620176">
        <ele>828.78999999999996</ele>
        <time>2018-09-17T16:25:30Z</time>
      </trkpt>
      <trkpt lat="47.443262999877334" lon="10.246515031903982">
        <ele>828.30999999999995</ele>
        <time>2018-09-17T16:25:37Z</time>
      </trkpt>
      <trkpt lat="47.44321103207767" lon="10.246520983055234">
        <ele>827.83000000000004</ele>
        <time>2018-09-17T16:25:38Z</time>
      </trkpt>
      <trkpt lat="47.443160992115736" lon="10.246526012197137">
        <ele>827.83000000000004</ele>
        <time>2018-09-17T16:25:39Z</time>
      </trkpt>
      <trkpt lat="47.44310399517417" lon="10.24653397500515">
        <ele>827.83000000000004</ele>
        <time>2018-09-17T16:25:40Z</time>
      </trkpt>
      <trkpt lat="47.443054961040616" lon="10.246570017188787">
        <ele>827.35000000000002</ele>
        <time>2018-09-17T16:25:41Z</time>
      </trkpt>
      <trkpt lat="47.443001987412572" lon="10.246607987210155">
        <ele>827.35000000000002</ele>
        <time>2018-09-17T16:25:42Z</time>
      </trkpt>
      <trkpt lat="47.442801995202899" lon="10.246819965541363">
        <ele>826.38999999999999</ele>
        <time>2018-09-17T16:25:46Z</time>
      </trkpt>
      <trkpt lat="47.442689007148147" lon="10.247009983286262">
        <ele>826.38999999999999</ele>
        <time>2018-09-17T16:25:49Z</time>
      </trkpt>
    </trkseg>
  </trk>

</gpx>